<?xml version="1.0" encoding="UTF-8" standalone="no" ?>
<gpx xmlns="http://www.topografix.com/GPX/1/1" xmlns:xsi="http://www.w3.org/2001/XMLSchema-instance" xsi:schemaLocation="http://www.topografix.com/GPX/1/1 http://www.topografix.com/GPX/1/1/gpx.xsd" version="1.1" creator="VisuGPX - https://www.visugpx.com">
  <metadata>
    <name>Mercredi 26 août 26</name>
  </metadata>
  <trk>
    <name><![CDATA[Mercredi 26 août 26]]></name>
    <extensions>
      <line xmlns="http://www.topografix.com/GPX/gpx_style/0/2">
        <width>7</width>
      </line>
    </extensions>
    <trkseg>
      <trkpt lat="43.38657" lon="-1.66328">
        <ele>4</ele>
        <time>2026-08-23T11:25:39.000Z</time>
      </trkpt>
      <trkpt lat="43.38655" lon="-1.66328">
        <ele>4</ele>
        <time>2026-08-23T11:25:39.000Z</time>
      </trkpt>
      <trkpt lat="43.38646" lon="-1.66326">
        <ele>4</ele>
        <time>2026-08-23T11:25:41.000Z</time>
      </trkpt>
      <trkpt lat="43.38637" lon="-1.66324">
        <ele>3.9</ele>
        <time>2026-08-23T11:25:43.000Z</time>
      </trkpt>
      <trkpt lat="43.3863" lon="-1.66321">
        <ele>3.6</ele>
        <time>2026-08-23T11:25:44.000Z</time>
      </trkpt>
      <trkpt lat="43.38626" lon="-1.6632">
        <ele>3.5</ele>
        <time>2026-08-23T11:25:45.000Z</time>
      </trkpt>
      <trkpt lat="43.38623" lon="-1.66318">
        <ele>3.5</ele>
        <time>2026-08-23T11:25:45.000Z</time>
      </trkpt>
      <trkpt lat="43.3862" lon="-1.66316">
        <ele>3.5</ele>
        <time>2026-08-23T11:25:46.000Z</time>
      </trkpt>
      <trkpt lat="43.38616" lon="-1.66314">
        <ele>3.5</ele>
        <time>2026-08-23T11:25:47.000Z</time>
      </trkpt>
      <trkpt lat="43.38609" lon="-1.66308">
        <ele>1</ele>
        <time>2026-08-23T11:25:48.000Z</time>
      </trkpt>
      <trkpt lat="43.38594" lon="-1.66297">
        <ele>1</ele>
        <time>2026-08-23T11:25:51.000Z</time>
      </trkpt>
      <trkpt lat="43.38591" lon="-1.66282">
        <ele>2</ele>
        <time>2026-08-23T11:25:53.000Z</time>
      </trkpt>
      <trkpt lat="43.38568" lon="-1.6626">
        <ele>3</ele>
        <time>2026-08-23T11:25:58.000Z</time>
      </trkpt>
      <trkpt lat="43.38547" lon="-1.66242">
        <ele>4</ele>
        <time>2026-08-23T11:26:02.000Z</time>
      </trkpt>
      <trkpt lat="43.38506" lon="-1.66205">
        <ele>4</ele>
        <time>2026-08-23T11:26:11.000Z</time>
      </trkpt>
      <trkpt lat="43.38504" lon="-1.66202">
        <ele>5</ele>
        <time>2026-08-23T11:26:12.000Z</time>
      </trkpt>
      <trkpt lat="43.38502" lon="-1.662">
        <ele>5</ele>
        <time>2026-08-23T11:26:12.000Z</time>
      </trkpt>
      <trkpt lat="43.385" lon="-1.66198">
        <ele>5</ele>
        <time>2026-08-23T11:26:13.000Z</time>
      </trkpt>
      <trkpt lat="43.38495" lon="-1.66191">
        <ele>5</ele>
        <time>2026-08-23T11:26:14.000Z</time>
      </trkpt>
      <trkpt lat="43.3849" lon="-1.66182">
        <ele>5</ele>
        <time>2026-08-23T11:26:15.000Z</time>
      </trkpt>
      <trkpt lat="43.38483" lon="-1.66161">
        <ele>5</ele>
        <time>2026-08-23T11:26:18.000Z</time>
      </trkpt>
      <trkpt lat="43.38481" lon="-1.66156">
        <ele>5</ele>
        <time>2026-08-23T11:26:19.000Z</time>
      </trkpt>
      <trkpt lat="43.38473" lon="-1.66138">
        <ele>5</ele>
        <time>2026-08-23T11:26:22.000Z</time>
      </trkpt>
      <trkpt lat="43.38462" lon="-1.66117">
        <ele>5</ele>
        <time>2026-08-23T11:26:25.000Z</time>
      </trkpt>
      <trkpt lat="43.38446" lon="-1.66092">
        <ele>5</ele>
        <time>2026-08-23T11:26:29.000Z</time>
      </trkpt>
      <trkpt lat="43.38436" lon="-1.6608">
        <ele>5</ele>
        <time>2026-08-23T11:26:32.000Z</time>
      </trkpt>
      <trkpt lat="43.38429" lon="-1.66071">
        <ele>5</ele>
        <time>2026-08-23T11:26:33.000Z</time>
      </trkpt>
      <trkpt lat="43.38424" lon="-1.66064">
        <ele>5</ele>
        <time>2026-08-23T11:26:35.000Z</time>
      </trkpt>
      <trkpt lat="43.38395" lon="-1.66025">
        <ele>5</ele>
        <time>2026-08-23T11:26:42.000Z</time>
      </trkpt>
      <trkpt lat="43.38382" lon="-1.66008">
        <ele>5</ele>
        <time>2026-08-23T11:26:45.000Z</time>
      </trkpt>
      <trkpt lat="43.38358" lon="-1.65973">
        <ele>6</ele>
        <time>2026-08-23T11:26:51.000Z</time>
      </trkpt>
      <trkpt lat="43.38341" lon="-1.65941">
        <ele>6</ele>
        <time>2026-08-23T11:26:57.000Z</time>
      </trkpt>
      <trkpt lat="43.38339" lon="-1.65944">
        <ele>6</ele>
        <time>2026-08-23T11:26:57.000Z</time>
      </trkpt>
      <trkpt lat="43.38337" lon="-1.65945">
        <ele>6</ele>
        <time>2026-08-23T11:26:57.000Z</time>
      </trkpt>
      <trkpt lat="43.38336" lon="-1.65945">
        <ele>6</ele>
        <time>2026-08-23T11:26:58.000Z</time>
      </trkpt>
      <trkpt lat="43.38333" lon="-1.65945">
        <ele>6</ele>
        <time>2026-08-23T11:26:58.000Z</time>
      </trkpt>
      <trkpt lat="43.38331" lon="-1.65944">
        <ele>6</ele>
        <time>2026-08-23T11:26:59.000Z</time>
      </trkpt>
      <trkpt lat="43.3833" lon="-1.65944">
        <ele>6</ele>
        <time>2026-08-23T11:26:59.000Z</time>
      </trkpt>
      <trkpt lat="43.38329" lon="-1.65943">
        <ele>6</ele>
        <time>2026-08-23T11:26:59.000Z</time>
      </trkpt>
      <trkpt lat="43.38328" lon="-1.6594">
        <ele>6</ele>
        <time>2026-08-23T11:26:59.000Z</time>
      </trkpt>
      <trkpt lat="43.38327" lon="-1.65938">
        <ele>6</ele>
        <time>2026-08-23T11:27:00.000Z</time>
      </trkpt>
      <trkpt lat="43.38327" lon="-1.65936">
        <ele>6</ele>
        <time>2026-08-23T11:27:00.000Z</time>
      </trkpt>
      <trkpt lat="43.38327" lon="-1.65933">
        <ele>6</ele>
        <time>2026-08-23T11:27:00.000Z</time>
      </trkpt>
      <trkpt lat="43.38328" lon="-1.6593">
        <ele>6</ele>
        <time>2026-08-23T11:27:01.000Z</time>
      </trkpt>
      <trkpt lat="43.38328" lon="-1.65928">
        <ele>6</ele>
        <time>2026-08-23T11:27:01.000Z</time>
      </trkpt>
      <trkpt lat="43.38329" lon="-1.65927">
        <ele>6</ele>
        <time>2026-08-23T11:27:01.000Z</time>
      </trkpt>
      <trkpt lat="43.38317" lon="-1.65914">
        <ele>5</ele>
        <time>2026-08-23T11:27:04.000Z</time>
      </trkpt>
      <trkpt lat="43.3831" lon="-1.65904">
        <ele>5</ele>
        <time>2026-08-23T11:27:06.000Z</time>
      </trkpt>
      <trkpt lat="43.38308" lon="-1.65901">
        <ele>5</ele>
        <time>2026-08-23T11:27:06.000Z</time>
      </trkpt>
      <trkpt lat="43.38304" lon="-1.65892">
        <ele>4</ele>
        <time>2026-08-23T11:27:08.000Z</time>
      </trkpt>
      <trkpt lat="43.38303" lon="-1.6589">
        <ele>4</ele>
        <time>2026-08-23T11:27:08.000Z</time>
      </trkpt>
      <trkpt lat="43.38296" lon="-1.65874">
        <ele>4</ele>
        <time>2026-08-23T11:27:10.000Z</time>
      </trkpt>
      <trkpt lat="43.38264" lon="-1.65784">
        <ele>4</ele>
        <time>2026-08-23T11:27:23.000Z</time>
      </trkpt>
      <trkpt lat="43.38236" lon="-1.65703">
        <ele>4</ele>
        <time>2026-08-23T11:27:35.000Z</time>
      </trkpt>
      <trkpt lat="43.38235" lon="-1.65696">
        <ele>4</ele>
        <time>2026-08-23T11:27:36.000Z</time>
      </trkpt>
      <trkpt lat="43.38235" lon="-1.65689">
        <ele>4</ele>
        <time>2026-08-23T11:27:37.000Z</time>
      </trkpt>
      <trkpt lat="43.38235" lon="-1.65683">
        <ele>4</ele>
        <time>2026-08-23T11:27:37.000Z</time>
      </trkpt>
      <trkpt lat="43.38237" lon="-1.65676">
        <ele>4</ele>
        <time>2026-08-23T11:27:38.000Z</time>
      </trkpt>
      <trkpt lat="43.3824" lon="-1.6567">
        <ele>4</ele>
        <time>2026-08-23T11:27:39.000Z</time>
      </trkpt>
      <trkpt lat="43.38246" lon="-1.65661">
        <ele>4</ele>
        <time>2026-08-23T11:27:41.000Z</time>
      </trkpt>
      <trkpt lat="43.38267" lon="-1.65633">
        <ele>4</ele>
        <time>2026-08-23T11:27:46.000Z</time>
      </trkpt>
      <trkpt lat="43.38285" lon="-1.65609">
        <ele>3</ele>
        <time>2026-08-23T11:27:51.000Z</time>
      </trkpt>
      <trkpt lat="43.38299" lon="-1.6559">
        <ele>3</ele>
        <time>2026-08-23T11:27:54.000Z</time>
      </trkpt>
      <trkpt lat="43.38304" lon="-1.65583">
        <ele>3</ele>
        <time>2026-08-23T11:27:55.000Z</time>
      </trkpt>
      <trkpt lat="43.38308" lon="-1.65578">
        <ele>3</ele>
        <time>2026-08-23T11:27:56.000Z</time>
      </trkpt>
      <trkpt lat="43.38351" lon="-1.65522">
        <ele>4</ele>
        <time>2026-08-23T11:28:07.000Z</time>
      </trkpt>
      <trkpt lat="43.38357" lon="-1.65513">
        <ele>4</ele>
        <time>2026-08-23T11:28:08.000Z</time>
      </trkpt>
      <trkpt lat="43.38357" lon="-1.65513">
        <ele>4</ele>
        <time>2026-08-23T11:28:09.000Z</time>
      </trkpt>
      <trkpt lat="43.38349" lon="-1.65504">
        <ele>4</ele>
        <time>2026-08-23T11:28:10.000Z</time>
      </trkpt>
      <trkpt lat="43.38346" lon="-1.65499">
        <ele>4</ele>
        <time>2026-08-23T11:28:11.000Z</time>
      </trkpt>
      <trkpt lat="43.38328" lon="-1.65474">
        <ele>4</ele>
        <time>2026-08-23T11:28:16.000Z</time>
      </trkpt>
      <trkpt lat="43.38328" lon="-1.65474">
        <ele>4</ele>
        <time>2026-08-23T11:28:16.000Z</time>
      </trkpt>
      <trkpt lat="43.38325" lon="-1.65469">
        <ele>4</ele>
        <time>2026-08-23T11:28:17.000Z</time>
      </trkpt>
      <trkpt lat="43.38321" lon="-1.65464">
        <ele>4</ele>
        <time>2026-08-23T11:28:18.000Z</time>
      </trkpt>
      <trkpt lat="43.38333" lon="-1.65448">
        <ele>5</ele>
        <time>2026-08-23T11:28:21.000Z</time>
      </trkpt>
      <trkpt lat="43.38334" lon="-1.65446">
        <ele>5</ele>
        <time>2026-08-23T11:28:21.000Z</time>
      </trkpt>
      <trkpt lat="43.3837" lon="-1.65377">
        <ele>5</ele>
        <time>2026-08-23T11:28:32.000Z</time>
      </trkpt>
      <trkpt lat="43.38375" lon="-1.65366">
        <ele>5</ele>
        <time>2026-08-23T11:28:33.000Z</time>
      </trkpt>
      <trkpt lat="43.38376" lon="-1.65365">
        <ele>5</ele>
        <time>2026-08-23T11:28:34.000Z</time>
      </trkpt>
      <trkpt lat="43.38377" lon="-1.65362">
        <ele>5</ele>
        <time>2026-08-23T11:28:34.000Z</time>
      </trkpt>
      <trkpt lat="43.38397" lon="-1.65314">
        <ele>8</ele>
        <time>2026-08-23T11:28:41.000Z</time>
      </trkpt>
      <trkpt lat="43.38397" lon="-1.65314">
        <ele>8</ele>
        <time>2026-08-23T11:28:41.000Z</time>
      </trkpt>
      <trkpt lat="43.38396" lon="-1.65297">
        <ele>10</ele>
        <time>2026-08-23T11:28:43.000Z</time>
      </trkpt>
      <trkpt lat="43.38395" lon="-1.6529">
        <ele>11</ele>
        <time>2026-08-23T11:28:44.000Z</time>
      </trkpt>
      <trkpt lat="43.38393" lon="-1.65281">
        <ele>12</ele>
        <time>2026-08-23T11:28:46.000Z</time>
      </trkpt>
      <trkpt lat="43.38392" lon="-1.65276">
        <ele>12</ele>
        <time>2026-08-23T11:28:46.000Z</time>
      </trkpt>
      <trkpt lat="43.38389" lon="-1.65266">
        <ele>13</ele>
        <time>2026-08-23T11:28:48.000Z</time>
      </trkpt>
      <trkpt lat="43.38382" lon="-1.65259">
        <ele>13</ele>
        <time>2026-08-23T11:28:49.000Z</time>
      </trkpt>
      <trkpt lat="43.38376" lon="-1.65252">
        <ele>13</ele>
        <time>2026-08-23T11:28:51.000Z</time>
      </trkpt>
      <trkpt lat="43.3837" lon="-1.65245">
        <ele>13</ele>
        <time>2026-08-23T11:28:52.000Z</time>
      </trkpt>
      <trkpt lat="43.38363" lon="-1.65236">
        <ele>13</ele>
        <time>2026-08-23T11:28:54.000Z</time>
      </trkpt>
      <trkpt lat="43.38358" lon="-1.65228">
        <ele>13</ele>
        <time>2026-08-23T11:28:55.000Z</time>
      </trkpt>
      <trkpt lat="43.38353" lon="-1.6522">
        <ele>13</ele>
        <time>2026-08-23T11:28:56.000Z</time>
      </trkpt>
      <trkpt lat="43.38346" lon="-1.65208">
        <ele>12</ele>
        <time>2026-08-23T11:28:58.000Z</time>
      </trkpt>
      <trkpt lat="43.38344" lon="-1.65203">
        <ele>12</ele>
        <time>2026-08-23T11:28:59.000Z</time>
      </trkpt>
      <trkpt lat="43.38341" lon="-1.65197">
        <ele>12</ele>
        <time>2026-08-23T11:29:00.000Z</time>
      </trkpt>
      <trkpt lat="43.3834" lon="-1.65189">
        <ele>12</ele>
        <time>2026-08-23T11:29:01.000Z</time>
      </trkpt>
      <trkpt lat="43.38334" lon="-1.65171">
        <ele>12</ele>
        <time>2026-08-23T11:29:04.000Z</time>
      </trkpt>
      <trkpt lat="43.38302" lon="-1.65083">
        <ele>11</ele>
        <time>2026-08-23T11:29:16.000Z</time>
      </trkpt>
      <trkpt lat="43.38279" lon="-1.6502">
        <ele>9</ele>
        <time>2026-08-23T11:29:26.000Z</time>
      </trkpt>
      <trkpt lat="43.38275" lon="-1.65009">
        <ele>9</ele>
        <time>2026-08-23T11:29:27.000Z</time>
      </trkpt>
      <trkpt lat="43.38267" lon="-1.64988">
        <ele>9</ele>
        <time>2026-08-23T11:29:30.000Z</time>
      </trkpt>
      <trkpt lat="43.38262" lon="-1.64974">
        <ele>8</ele>
        <time>2026-08-23T11:29:32.000Z</time>
      </trkpt>
      <trkpt lat="43.3826" lon="-1.64966">
        <ele>8</ele>
        <time>2026-08-23T11:29:33.000Z</time>
      </trkpt>
      <trkpt lat="43.38258" lon="-1.64958">
        <ele>8</ele>
        <time>2026-08-23T11:29:34.000Z</time>
      </trkpt>
      <trkpt lat="43.38256" lon="-1.6495">
        <ele>8</ele>
        <time>2026-08-23T11:29:36.000Z</time>
      </trkpt>
      <trkpt lat="43.38255" lon="-1.64941">
        <ele>8</ele>
        <time>2026-08-23T11:29:37.000Z</time>
      </trkpt>
      <trkpt lat="43.38254" lon="-1.64936">
        <ele>8</ele>
        <time>2026-08-23T11:29:37.000Z</time>
      </trkpt>
      <trkpt lat="43.38254" lon="-1.64928">
        <ele>8</ele>
        <time>2026-08-23T11:29:38.000Z</time>
      </trkpt>
      <trkpt lat="43.38254" lon="-1.64919">
        <ele>9</ele>
        <time>2026-08-23T11:29:40.000Z</time>
      </trkpt>
      <trkpt lat="43.38254" lon="-1.64913">
        <ele>9</ele>
        <time>2026-08-23T11:29:40.000Z</time>
      </trkpt>
      <trkpt lat="43.38254" lon="-1.64905">
        <ele>9</ele>
        <time>2026-08-23T11:29:41.000Z</time>
      </trkpt>
      <trkpt lat="43.38254" lon="-1.64897">
        <ele>9</ele>
        <time>2026-08-23T11:29:42.000Z</time>
      </trkpt>
      <trkpt lat="43.38255" lon="-1.64888">
        <ele>9</ele>
        <time>2026-08-23T11:29:44.000Z</time>
      </trkpt>
      <trkpt lat="43.38259" lon="-1.64848">
        <ele>10</ele>
        <time>2026-08-23T11:29:49.000Z</time>
      </trkpt>
      <trkpt lat="43.38265" lon="-1.64789">
        <ele>9</ele>
        <time>2026-08-23T11:29:57.000Z</time>
      </trkpt>
      <trkpt lat="43.38271" lon="-1.6473">
        <ele>7</ele>
        <time>2026-08-23T11:30:04.000Z</time>
      </trkpt>
      <trkpt lat="43.38273" lon="-1.64712">
        <ele>7</ele>
        <time>2026-08-23T11:30:07.000Z</time>
      </trkpt>
      <trkpt lat="43.38274" lon="-1.64697">
        <ele>7</ele>
        <time>2026-08-23T11:30:09.000Z</time>
      </trkpt>
      <trkpt lat="43.38277" lon="-1.64667">
        <ele>7</ele>
        <time>2026-08-23T11:30:12.000Z</time>
      </trkpt>
      <trkpt lat="43.38281" lon="-1.64622">
        <ele>8</ele>
        <time>2026-08-23T11:30:18.000Z</time>
      </trkpt>
      <trkpt lat="43.38282" lon="-1.64596">
        <ele>8</ele>
        <time>2026-08-23T11:30:22.000Z</time>
      </trkpt>
      <trkpt lat="43.38282" lon="-1.64568">
        <ele>9</ele>
        <time>2026-08-23T11:30:25.000Z</time>
      </trkpt>
      <trkpt lat="43.38282" lon="-1.64534">
        <ele>10</ele>
        <time>2026-08-23T11:30:30.000Z</time>
      </trkpt>
      <trkpt lat="43.38282" lon="-1.64525">
        <ele>10</ele>
        <time>2026-08-23T11:30:31.000Z</time>
      </trkpt>
      <trkpt lat="43.38281" lon="-1.64501">
        <ele>11</ele>
        <time>2026-08-23T11:30:34.000Z</time>
      </trkpt>
      <trkpt lat="43.38279" lon="-1.64473">
        <ele>10</ele>
        <time>2026-08-23T11:30:38.000Z</time>
      </trkpt>
      <trkpt lat="43.38277" lon="-1.64442">
        <ele>9</ele>
        <time>2026-08-23T11:30:42.000Z</time>
      </trkpt>
      <trkpt lat="43.38276" lon="-1.64431">
        <ele>9</ele>
        <time>2026-08-23T11:30:43.000Z</time>
      </trkpt>
      <trkpt lat="43.38275" lon="-1.64423">
        <ele>8</ele>
        <time>2026-08-23T11:30:44.000Z</time>
      </trkpt>
      <trkpt lat="43.38274" lon="-1.64415">
        <ele>8</ele>
        <time>2026-08-23T11:30:45.000Z</time>
      </trkpt>
      <trkpt lat="43.38273" lon="-1.64407">
        <ele>8</ele>
        <time>2026-08-23T11:30:46.000Z</time>
      </trkpt>
      <trkpt lat="43.38272" lon="-1.64398">
        <ele>8</ele>
        <time>2026-08-23T11:30:47.000Z</time>
      </trkpt>
      <trkpt lat="43.38269" lon="-1.64385">
        <ele>7</ele>
        <time>2026-08-23T11:30:49.000Z</time>
      </trkpt>
      <trkpt lat="43.38267" lon="-1.64378">
        <ele>7</ele>
        <time>2026-08-23T11:30:50.000Z</time>
      </trkpt>
      <trkpt lat="43.38264" lon="-1.64367">
        <ele>6</ele>
        <time>2026-08-23T11:30:52.000Z</time>
      </trkpt>
      <trkpt lat="43.3826" lon="-1.64355">
        <ele>6</ele>
        <time>2026-08-23T11:30:53.000Z</time>
      </trkpt>
      <trkpt lat="43.38254" lon="-1.64342">
        <ele>5</ele>
        <time>2026-08-23T11:30:55.000Z</time>
      </trkpt>
      <trkpt lat="43.3825" lon="-1.64332">
        <ele>5</ele>
        <time>2026-08-23T11:30:57.000Z</time>
      </trkpt>
      <trkpt lat="43.38247" lon="-1.64326">
        <ele>5</ele>
        <time>2026-08-23T11:30:58.000Z</time>
      </trkpt>
      <trkpt lat="43.38243" lon="-1.6432">
        <ele>5</ele>
        <time>2026-08-23T11:30:59.000Z</time>
      </trkpt>
      <trkpt lat="43.3824" lon="-1.64314">
        <ele>5</ele>
        <time>2026-08-23T11:31:00.000Z</time>
      </trkpt>
      <trkpt lat="43.38235" lon="-1.64307">
        <ele>5</ele>
        <time>2026-08-23T11:31:01.000Z</time>
      </trkpt>
      <trkpt lat="43.38231" lon="-1.64301">
        <ele>5</ele>
        <time>2026-08-23T11:31:02.000Z</time>
      </trkpt>
      <trkpt lat="43.38227" lon="-1.64296">
        <ele>5</ele>
        <time>2026-08-23T11:31:03.000Z</time>
      </trkpt>
      <trkpt lat="43.38223" lon="-1.64291">
        <ele>5</ele>
        <time>2026-08-23T11:31:04.000Z</time>
      </trkpt>
      <trkpt lat="43.38219" lon="-1.64286">
        <ele>5</ele>
        <time>2026-08-23T11:31:05.000Z</time>
      </trkpt>
      <trkpt lat="43.38215" lon="-1.64282">
        <ele>5</ele>
        <time>2026-08-23T11:31:06.000Z</time>
      </trkpt>
      <trkpt lat="43.38212" lon="-1.6428">
        <ele>5</ele>
        <time>2026-08-23T11:31:06.000Z</time>
      </trkpt>
      <trkpt lat="43.38203" lon="-1.64271">
        <ele>5</ele>
        <time>2026-08-23T11:31:08.000Z</time>
      </trkpt>
      <trkpt lat="43.38195" lon="-1.64264">
        <ele>5</ele>
        <time>2026-08-23T11:31:10.000Z</time>
      </trkpt>
      <trkpt lat="43.38187" lon="-1.64257">
        <ele>5</ele>
        <time>2026-08-23T11:31:12.000Z</time>
      </trkpt>
      <trkpt lat="43.3817" lon="-1.6424">
        <ele>6</ele>
        <time>2026-08-23T11:31:16.000Z</time>
      </trkpt>
      <trkpt lat="43.38155" lon="-1.64227">
        <ele>6</ele>
        <time>2026-08-23T11:31:19.000Z</time>
      </trkpt>
      <trkpt lat="43.38141" lon="-1.64213">
        <ele>7</ele>
        <time>2026-08-23T11:31:22.000Z</time>
      </trkpt>
      <trkpt lat="43.38139" lon="-1.64212">
        <ele>6</ele>
        <time>2026-08-23T11:31:22.000Z</time>
      </trkpt>
      <trkpt lat="43.38135" lon="-1.64208">
        <ele>6</ele>
        <time>2026-08-23T11:31:23.000Z</time>
      </trkpt>
      <trkpt lat="43.38132" lon="-1.64204">
        <ele>7</ele>
        <time>2026-08-23T11:31:24.000Z</time>
      </trkpt>
      <trkpt lat="43.38126" lon="-1.64198">
        <ele>7</ele>
        <time>2026-08-23T11:31:25.000Z</time>
      </trkpt>
      <trkpt lat="43.38121" lon="-1.6419">
        <ele>7</ele>
        <time>2026-08-23T11:31:26.000Z</time>
      </trkpt>
      <trkpt lat="43.38119" lon="-1.64186">
        <ele>7</ele>
        <time>2026-08-23T11:31:27.000Z</time>
      </trkpt>
      <trkpt lat="43.38116" lon="-1.6418">
        <ele>7</ele>
        <time>2026-08-23T11:31:28.000Z</time>
      </trkpt>
      <trkpt lat="43.3811" lon="-1.64167">
        <ele>7</ele>
        <time>2026-08-23T11:31:30.000Z</time>
      </trkpt>
      <trkpt lat="43.38103" lon="-1.6415">
        <ele>7</ele>
        <time>2026-08-23T11:31:33.000Z</time>
      </trkpt>
      <trkpt lat="43.38094" lon="-1.64129">
        <ele>8</ele>
        <time>2026-08-23T11:31:36.000Z</time>
      </trkpt>
      <trkpt lat="43.38084" lon="-1.64107">
        <ele>8</ele>
        <time>2026-08-23T11:31:39.000Z</time>
      </trkpt>
      <trkpt lat="43.38074" lon="-1.64086">
        <ele>8</ele>
        <time>2026-08-23T11:31:42.000Z</time>
      </trkpt>
      <trkpt lat="43.38071" lon="-1.64078">
        <ele>9</ele>
        <time>2026-08-23T11:31:43.000Z</time>
      </trkpt>
      <trkpt lat="43.38067" lon="-1.64071">
        <ele>9</ele>
        <time>2026-08-23T11:31:45.000Z</time>
      </trkpt>
      <trkpt lat="43.38062" lon="-1.64063">
        <ele>9</ele>
        <time>2026-08-23T11:31:46.000Z</time>
      </trkpt>
      <trkpt lat="43.38056" lon="-1.64055">
        <ele>9</ele>
        <time>2026-08-23T11:31:47.000Z</time>
      </trkpt>
      <trkpt lat="43.3805" lon="-1.64047">
        <ele>9</ele>
        <time>2026-08-23T11:31:49.000Z</time>
      </trkpt>
      <trkpt lat="43.3804" lon="-1.64037">
        <ele>9</ele>
        <time>2026-08-23T11:31:51.000Z</time>
      </trkpt>
      <trkpt lat="43.38026" lon="-1.64024">
        <ele>9</ele>
        <time>2026-08-23T11:31:54.000Z</time>
      </trkpt>
      <trkpt lat="43.38001" lon="-1.64001">
        <ele>8</ele>
        <time>2026-08-23T11:32:00.000Z</time>
      </trkpt>
      <trkpt lat="43.37975" lon="-1.63977">
        <ele>8</ele>
        <time>2026-08-23T11:32:05.000Z</time>
      </trkpt>
      <trkpt lat="43.37951" lon="-1.63955">
        <ele>7</ele>
        <time>2026-08-23T11:32:10.000Z</time>
      </trkpt>
      <trkpt lat="43.37911" lon="-1.63917">
        <ele>7</ele>
        <time>2026-08-23T11:32:19.000Z</time>
      </trkpt>
      <trkpt lat="43.37885" lon="-1.63891">
        <ele>6</ele>
        <time>2026-08-23T11:32:25.000Z</time>
      </trkpt>
      <trkpt lat="43.37864" lon="-1.63869">
        <ele>7</ele>
        <time>2026-08-23T11:32:29.000Z</time>
      </trkpt>
      <trkpt lat="43.37836" lon="-1.6384">
        <ele>8</ele>
        <time>2026-08-23T11:32:36.000Z</time>
      </trkpt>
      <trkpt lat="43.37817" lon="-1.6382">
        <ele>8</ele>
        <time>2026-08-23T11:32:40.000Z</time>
      </trkpt>
      <trkpt lat="43.37803" lon="-1.63806">
        <ele>8</ele>
        <time>2026-08-23T11:32:43.000Z</time>
      </trkpt>
      <trkpt lat="43.37796" lon="-1.638">
        <ele>8</ele>
        <time>2026-08-23T11:32:44.000Z</time>
      </trkpt>
      <trkpt lat="43.37788" lon="-1.63791">
        <ele>8</ele>
        <time>2026-08-23T11:32:46.000Z</time>
      </trkpt>
      <trkpt lat="43.37781" lon="-1.63785">
        <ele>8</ele>
        <time>2026-08-23T11:32:48.000Z</time>
      </trkpt>
      <trkpt lat="43.37774" lon="-1.63781">
        <ele>8</ele>
        <time>2026-08-23T11:32:49.000Z</time>
      </trkpt>
      <trkpt lat="43.37768" lon="-1.63777">
        <ele>8</ele>
        <time>2026-08-23T11:32:50.000Z</time>
      </trkpt>
      <trkpt lat="43.37762" lon="-1.63774">
        <ele>8</ele>
        <time>2026-08-23T11:32:51.000Z</time>
      </trkpt>
      <trkpt lat="43.37756" lon="-1.63772">
        <ele>8</ele>
        <time>2026-08-23T11:32:52.000Z</time>
      </trkpt>
      <trkpt lat="43.37754" lon="-1.63771">
        <ele>8</ele>
        <time>2026-08-23T11:32:53.000Z</time>
      </trkpt>
      <trkpt lat="43.3775" lon="-1.6377">
        <ele>8</ele>
        <time>2026-08-23T11:32:54.000Z</time>
      </trkpt>
      <trkpt lat="43.37746" lon="-1.6377">
        <ele>8</ele>
        <time>2026-08-23T11:32:54.000Z</time>
      </trkpt>
      <trkpt lat="43.37735" lon="-1.6377">
        <ele>8</ele>
        <time>2026-08-23T11:32:56.000Z</time>
      </trkpt>
      <trkpt lat="43.37724" lon="-1.6377">
        <ele>8</ele>
        <time>2026-08-23T11:32:58.000Z</time>
      </trkpt>
      <trkpt lat="43.37654" lon="-1.63774">
        <ele>6</ele>
        <time>2026-08-23T11:33:11.000Z</time>
      </trkpt>
      <trkpt lat="43.3765" lon="-1.63776">
        <ele>6</ele>
        <time>2026-08-23T11:33:11.000Z</time>
      </trkpt>
      <trkpt lat="43.37623" lon="-1.63779">
        <ele>6</ele>
        <time>2026-08-23T11:33:16.000Z</time>
      </trkpt>
      <trkpt lat="43.37609" lon="-1.63782">
        <ele>6</ele>
        <time>2026-08-23T11:33:19.000Z</time>
      </trkpt>
      <trkpt lat="43.37597" lon="-1.63783">
        <ele>6</ele>
        <time>2026-08-23T11:33:21.000Z</time>
      </trkpt>
      <trkpt lat="43.3759" lon="-1.63784">
        <ele>6</ele>
        <time>2026-08-23T11:33:22.000Z</time>
      </trkpt>
      <trkpt lat="43.37537" lon="-1.63787">
        <ele>5</ele>
        <time>2026-08-23T11:33:32.000Z</time>
      </trkpt>
      <trkpt lat="43.37521" lon="-1.63788">
        <ele>4</ele>
        <time>2026-08-23T11:33:34.000Z</time>
      </trkpt>
      <trkpt lat="43.37451" lon="-1.63792">
        <ele>4</ele>
        <time>2026-08-23T11:33:47.000Z</time>
      </trkpt>
      <trkpt lat="43.37439" lon="-1.6379">
        <ele>4</ele>
        <time>2026-08-23T11:33:49.000Z</time>
      </trkpt>
      <trkpt lat="43.37429" lon="-1.63789">
        <ele>4</ele>
        <time>2026-08-23T11:33:51.000Z</time>
      </trkpt>
      <trkpt lat="43.37421" lon="-1.63789">
        <ele>4</ele>
        <time>2026-08-23T11:33:52.000Z</time>
      </trkpt>
      <trkpt lat="43.37416" lon="-1.63789">
        <ele>4</ele>
        <time>2026-08-23T11:33:53.000Z</time>
      </trkpt>
      <trkpt lat="43.37396" lon="-1.6379">
        <ele>4</ele>
        <time>2026-08-23T11:33:57.000Z</time>
      </trkpt>
      <trkpt lat="43.37385" lon="-1.63788">
        <ele>3</ele>
        <time>2026-08-23T11:33:59.000Z</time>
      </trkpt>
      <trkpt lat="43.37298" lon="-1.63793">
        <ele>3</ele>
        <time>2026-08-23T11:34:14.000Z</time>
      </trkpt>
      <trkpt lat="43.37189" lon="-1.63801">
        <ele>4</ele>
        <time>2026-08-23T11:34:34.000Z</time>
      </trkpt>
      <trkpt lat="43.37146" lon="-1.63804">
        <ele>5</ele>
        <time>2026-08-23T11:34:41.000Z</time>
      </trkpt>
      <trkpt lat="43.37123" lon="-1.63805">
        <ele>5</ele>
        <time>2026-08-23T11:34:45.000Z</time>
      </trkpt>
      <trkpt lat="43.37111" lon="-1.63805">
        <ele>5</ele>
        <time>2026-08-23T11:34:47.000Z</time>
      </trkpt>
      <trkpt lat="43.37108" lon="-1.63804">
        <ele>5</ele>
        <time>2026-08-23T11:34:48.000Z</time>
      </trkpt>
      <trkpt lat="43.37105" lon="-1.63804">
        <ele>5</ele>
        <time>2026-08-23T11:34:49.000Z</time>
      </trkpt>
      <trkpt lat="43.37099" lon="-1.63803">
        <ele>6</ele>
        <time>2026-08-23T11:34:50.000Z</time>
      </trkpt>
      <trkpt lat="43.37093" lon="-1.63802">
        <ele>6</ele>
        <time>2026-08-23T11:34:51.000Z</time>
      </trkpt>
      <trkpt lat="43.37085" lon="-1.638">
        <ele>6</ele>
        <time>2026-08-23T11:34:52.000Z</time>
      </trkpt>
      <trkpt lat="43.37076" lon="-1.63796">
        <ele>6</ele>
        <time>2026-08-23T11:34:54.000Z</time>
      </trkpt>
      <trkpt lat="43.37067" lon="-1.63793">
        <ele>6</ele>
        <time>2026-08-23T11:34:55.000Z</time>
      </trkpt>
      <trkpt lat="43.37058" lon="-1.63788">
        <ele>6</ele>
        <time>2026-08-23T11:34:57.000Z</time>
      </trkpt>
      <trkpt lat="43.37045" lon="-1.6378">
        <ele>6</ele>
        <time>2026-08-23T11:35:00.000Z</time>
      </trkpt>
      <trkpt lat="43.3703" lon="-1.63771">
        <ele>5</ele>
        <time>2026-08-23T11:35:03.000Z</time>
      </trkpt>
      <trkpt lat="43.36898" lon="-1.63685">
        <ele>4</ele>
        <time>2026-08-23T11:35:29.000Z</time>
      </trkpt>
      <trkpt lat="43.36857" lon="-1.63658">
        <ele>4</ele>
        <time>2026-08-23T11:35:37.000Z</time>
      </trkpt>
      <trkpt lat="43.36809" lon="-1.63627">
        <ele>5</ele>
        <time>2026-08-23T11:35:46.000Z</time>
      </trkpt>
      <trkpt lat="43.36787" lon="-1.63613">
        <ele>6</ele>
        <time>2026-08-23T11:35:50.000Z</time>
      </trkpt>
      <trkpt lat="43.36771" lon="-1.63603">
        <ele>6</ele>
        <time>2026-08-23T11:35:54.000Z</time>
      </trkpt>
      <trkpt lat="43.36756" lon="-1.63595">
        <ele>7</ele>
        <time>2026-08-23T11:35:56.000Z</time>
      </trkpt>
      <trkpt lat="43.36748" lon="-1.63591">
        <ele>7</ele>
        <time>2026-08-23T11:35:58.000Z</time>
      </trkpt>
      <trkpt lat="43.36734" lon="-1.63586">
        <ele>7</ele>
        <time>2026-08-23T11:36:01.000Z</time>
      </trkpt>
      <trkpt lat="43.36717" lon="-1.6358">
        <ele>7</ele>
        <time>2026-08-23T11:36:04.000Z</time>
      </trkpt>
      <trkpt lat="43.36701" lon="-1.63577">
        <ele>8</ele>
        <time>2026-08-23T11:36:07.000Z</time>
      </trkpt>
      <trkpt lat="43.36683" lon="-1.63575">
        <ele>8</ele>
        <time>2026-08-23T11:36:10.000Z</time>
      </trkpt>
      <trkpt lat="43.36668" lon="-1.63574">
        <ele>8</ele>
        <time>2026-08-23T11:36:12.000Z</time>
      </trkpt>
      <trkpt lat="43.36653" lon="-1.63575">
        <ele>8</ele>
        <time>2026-08-23T11:36:15.000Z</time>
      </trkpt>
      <trkpt lat="43.36641" lon="-1.63575">
        <ele>7</ele>
        <time>2026-08-23T11:36:17.000Z</time>
      </trkpt>
      <trkpt lat="43.36636" lon="-1.63576">
        <ele>7</ele>
        <time>2026-08-23T11:36:18.000Z</time>
      </trkpt>
      <trkpt lat="43.36633" lon="-1.63576">
        <ele>7</ele>
        <time>2026-08-23T11:36:19.000Z</time>
      </trkpt>
      <trkpt lat="43.36631" lon="-1.63577">
        <ele>7</ele>
        <time>2026-08-23T11:36:19.000Z</time>
      </trkpt>
      <trkpt lat="43.36616" lon="-1.6358">
        <ele>6</ele>
        <time>2026-08-23T11:36:22.000Z</time>
      </trkpt>
      <trkpt lat="43.36599" lon="-1.63585">
        <ele>6</ele>
        <time>2026-08-23T11:36:25.000Z</time>
      </trkpt>
      <trkpt lat="43.36581" lon="-1.63591">
        <ele>5</ele>
        <time>2026-08-23T11:36:28.000Z</time>
      </trkpt>
      <trkpt lat="43.36559" lon="-1.63598">
        <ele>5</ele>
        <time>2026-08-23T11:36:32.000Z</time>
      </trkpt>
      <trkpt lat="43.36551" lon="-1.63603">
        <ele>4</ele>
        <time>2026-08-23T11:36:34.000Z</time>
      </trkpt>
      <trkpt lat="43.36535" lon="-1.63609">
        <ele>4</ele>
        <time>2026-08-23T11:36:37.000Z</time>
      </trkpt>
      <trkpt lat="43.36502" lon="-1.63622">
        <ele>4</ele>
        <time>2026-08-23T11:36:43.000Z</time>
      </trkpt>
      <trkpt lat="43.36463" lon="-1.63635">
        <ele>5</ele>
        <time>2026-08-23T11:36:50.000Z</time>
      </trkpt>
      <trkpt lat="43.36461" lon="-1.63635">
        <ele>5</ele>
        <time>2026-08-23T11:36:50.000Z</time>
      </trkpt>
      <trkpt lat="43.36415" lon="-1.63651">
        <ele>7</ele>
        <time>2026-08-23T11:36:59.000Z</time>
      </trkpt>
      <trkpt lat="43.36403" lon="-1.63655">
        <ele>7</ele>
        <time>2026-08-23T11:37:01.000Z</time>
      </trkpt>
      <trkpt lat="43.3637" lon="-1.63665">
        <ele>7</ele>
        <time>2026-08-23T11:37:07.000Z</time>
      </trkpt>
      <trkpt lat="43.36356" lon="-1.63669">
        <ele>7</ele>
        <time>2026-08-23T11:37:09.000Z</time>
      </trkpt>
      <trkpt lat="43.36346" lon="-1.63671">
        <ele>7</ele>
        <time>2026-08-23T11:37:11.000Z</time>
      </trkpt>
      <trkpt lat="43.36337" lon="-1.63673">
        <ele>7</ele>
        <time>2026-08-23T11:37:13.000Z</time>
      </trkpt>
      <trkpt lat="43.36322" lon="-1.63674">
        <ele>7</ele>
        <time>2026-08-23T11:37:16.000Z</time>
      </trkpt>
      <trkpt lat="43.36309" lon="-1.63675">
        <ele>7</ele>
        <time>2026-08-23T11:37:18.000Z</time>
      </trkpt>
      <trkpt lat="43.36298" lon="-1.63675">
        <ele>6</ele>
        <time>2026-08-23T11:37:20.000Z</time>
      </trkpt>
      <trkpt lat="43.36287" lon="-1.63674">
        <ele>6</ele>
        <time>2026-08-23T11:37:22.000Z</time>
      </trkpt>
      <trkpt lat="43.36273" lon="-1.63671">
        <ele>6</ele>
        <time>2026-08-23T11:37:24.000Z</time>
      </trkpt>
      <trkpt lat="43.36268" lon="-1.63666">
        <ele>6</ele>
        <time>2026-08-23T11:37:25.000Z</time>
      </trkpt>
      <trkpt lat="43.36261" lon="-1.63665">
        <ele>6</ele>
        <time>2026-08-23T11:37:27.000Z</time>
      </trkpt>
      <trkpt lat="43.36255" lon="-1.63663">
        <ele>6</ele>
        <time>2026-08-23T11:37:28.000Z</time>
      </trkpt>
      <trkpt lat="43.36245" lon="-1.6366">
        <ele>6</ele>
        <time>2026-08-23T11:37:30.000Z</time>
      </trkpt>
      <trkpt lat="43.36235" lon="-1.63656">
        <ele>6</ele>
        <time>2026-08-23T11:37:31.000Z</time>
      </trkpt>
      <trkpt lat="43.36221" lon="-1.63649">
        <ele>6</ele>
        <time>2026-08-23T11:37:34.000Z</time>
      </trkpt>
      <trkpt lat="43.36214" lon="-1.63651">
        <ele>6</ele>
        <time>2026-08-23T11:37:35.000Z</time>
      </trkpt>
      <trkpt lat="43.36197" lon="-1.63644">
        <ele>6</ele>
        <time>2026-08-23T11:37:38.000Z</time>
      </trkpt>
      <trkpt lat="43.36171" lon="-1.63633">
        <ele>6</ele>
        <time>2026-08-23T11:37:43.000Z</time>
      </trkpt>
      <trkpt lat="43.36114" lon="-1.63609">
        <ele>5</ele>
        <time>2026-08-23T11:37:54.000Z</time>
      </trkpt>
      <trkpt lat="43.36108" lon="-1.63606">
        <ele>5</ele>
        <time>2026-08-23T11:37:55.000Z</time>
      </trkpt>
      <trkpt lat="43.361" lon="-1.636">
        <ele>5</ele>
        <time>2026-08-23T11:37:57.000Z</time>
      </trkpt>
      <trkpt lat="43.36096" lon="-1.63598">
        <ele>5</ele>
        <time>2026-08-23T11:37:57.000Z</time>
      </trkpt>
      <trkpt lat="43.3609" lon="-1.63595">
        <ele>5</ele>
        <time>2026-08-23T11:37:59.000Z</time>
      </trkpt>
      <trkpt lat="43.3608" lon="-1.63589">
        <ele>6</ele>
        <time>2026-08-23T11:38:01.000Z</time>
      </trkpt>
      <trkpt lat="43.36072" lon="-1.63582">
        <ele>6</ele>
        <time>2026-08-23T11:38:02.000Z</time>
      </trkpt>
      <trkpt lat="43.36065" lon="-1.63575">
        <ele>6</ele>
        <time>2026-08-23T11:38:04.000Z</time>
      </trkpt>
      <trkpt lat="43.36059" lon="-1.63568">
        <ele>6</ele>
        <time>2026-08-23T11:38:05.000Z</time>
      </trkpt>
      <trkpt lat="43.3605" lon="-1.63557">
        <ele>6</ele>
        <time>2026-08-23T11:38:07.000Z</time>
      </trkpt>
      <trkpt lat="43.36041" lon="-1.63544">
        <ele>6</ele>
        <time>2026-08-23T11:38:10.000Z</time>
      </trkpt>
      <trkpt lat="43.36033" lon="-1.63531">
        <ele>6</ele>
        <time>2026-08-23T11:38:12.000Z</time>
      </trkpt>
      <trkpt lat="43.36027" lon="-1.6352">
        <ele>6</ele>
        <time>2026-08-23T11:38:14.000Z</time>
      </trkpt>
      <trkpt lat="43.36022" lon="-1.63509">
        <ele>6</ele>
        <time>2026-08-23T11:38:15.000Z</time>
      </trkpt>
      <trkpt lat="43.36018" lon="-1.635">
        <ele>7</ele>
        <time>2026-08-23T11:38:17.000Z</time>
      </trkpt>
      <trkpt lat="43.36012" lon="-1.63486">
        <ele>7</ele>
        <time>2026-08-23T11:38:19.000Z</time>
      </trkpt>
      <trkpt lat="43.36007" lon="-1.63472">
        <ele>7</ele>
        <time>2026-08-23T11:38:21.000Z</time>
      </trkpt>
      <trkpt lat="43.36001" lon="-1.6346">
        <ele>8</ele>
        <time>2026-08-23T11:38:23.000Z</time>
      </trkpt>
      <trkpt lat="43.35996" lon="-1.63448">
        <ele>8</ele>
        <time>2026-08-23T11:38:24.000Z</time>
      </trkpt>
      <trkpt lat="43.35995" lon="-1.63444">
        <ele>8</ele>
        <time>2026-08-23T11:38:25.000Z</time>
      </trkpt>
      <trkpt lat="43.3599" lon="-1.63435">
        <ele>8</ele>
        <time>2026-08-23T11:38:26.000Z</time>
      </trkpt>
      <trkpt lat="43.35977" lon="-1.63416">
        <ele>9</ele>
        <time>2026-08-23T11:38:30.000Z</time>
      </trkpt>
      <trkpt lat="43.35963" lon="-1.63394">
        <ele>9</ele>
        <time>2026-08-23T11:38:34.000Z</time>
      </trkpt>
      <trkpt lat="43.35949" lon="-1.63373">
        <ele>9</ele>
        <time>2026-08-23T11:38:37.000Z</time>
      </trkpt>
      <trkpt lat="43.35936" lon="-1.63353">
        <ele>9</ele>
        <time>2026-08-23T11:38:41.000Z</time>
      </trkpt>
      <trkpt lat="43.35929" lon="-1.63344">
        <ele>9</ele>
        <time>2026-08-23T11:38:42.000Z</time>
      </trkpt>
      <trkpt lat="43.3592" lon="-1.63334">
        <ele>8</ele>
        <time>2026-08-23T11:38:45.000Z</time>
      </trkpt>
      <trkpt lat="43.35908" lon="-1.63322">
        <ele>9</ele>
        <time>2026-08-23T11:38:47.000Z</time>
      </trkpt>
      <trkpt lat="43.35896" lon="-1.6331">
        <ele>10</ele>
        <time>2026-08-23T11:38:50.000Z</time>
      </trkpt>
      <trkpt lat="43.35854" lon="-1.63273">
        <ele>9</ele>
        <time>2026-08-23T11:38:59.000Z</time>
      </trkpt>
      <trkpt lat="43.35825" lon="-1.63247">
        <ele>8</ele>
        <time>2026-08-23T11:39:05.000Z</time>
      </trkpt>
      <trkpt lat="43.35808" lon="-1.63232">
        <ele>9</ele>
        <time>2026-08-23T11:39:08.000Z</time>
      </trkpt>
      <trkpt lat="43.35793" lon="-1.6322">
        <ele>9</ele>
        <time>2026-08-23T11:39:12.000Z</time>
      </trkpt>
      <trkpt lat="43.35781" lon="-1.6321">
        <ele>9</ele>
        <time>2026-08-23T11:39:14.000Z</time>
      </trkpt>
      <trkpt lat="43.35768" lon="-1.63201">
        <ele>8</ele>
        <time>2026-08-23T11:39:17.000Z</time>
      </trkpt>
      <trkpt lat="43.35753" lon="-1.63193">
        <ele>7</ele>
        <time>2026-08-23T11:39:19.000Z</time>
      </trkpt>
      <trkpt lat="43.35736" lon="-1.63185">
        <ele>7</ele>
        <time>2026-08-23T11:39:23.000Z</time>
      </trkpt>
      <trkpt lat="43.35717" lon="-1.63177">
        <ele>7</ele>
        <time>2026-08-23T11:39:26.000Z</time>
      </trkpt>
      <trkpt lat="43.35716" lon="-1.63177">
        <ele>7</ele>
        <time>2026-08-23T11:39:26.000Z</time>
      </trkpt>
      <trkpt lat="43.35698" lon="-1.63171">
        <ele>6</ele>
        <time>2026-08-23T11:39:30.000Z</time>
      </trkpt>
      <trkpt lat="43.35676" lon="-1.63163">
        <ele>6</ele>
        <time>2026-08-23T11:39:34.000Z</time>
      </trkpt>
      <trkpt lat="43.35661" lon="-1.63159">
        <ele>6</ele>
        <time>2026-08-23T11:39:36.000Z</time>
      </trkpt>
      <trkpt lat="43.35651" lon="-1.63155">
        <ele>6</ele>
        <time>2026-08-23T11:39:38.000Z</time>
      </trkpt>
      <trkpt lat="43.35613" lon="-1.63143">
        <ele>5</ele>
        <time>2026-08-23T11:39:45.000Z</time>
      </trkpt>
      <trkpt lat="43.35543" lon="-1.63125">
        <ele>5</ele>
        <time>2026-08-23T11:39:58.000Z</time>
      </trkpt>
      <trkpt lat="43.35512" lon="-1.63118">
        <ele>6</ele>
        <time>2026-08-23T11:40:03.000Z</time>
      </trkpt>
      <trkpt lat="43.35482" lon="-1.63109">
        <ele>6</ele>
        <time>2026-08-23T11:40:09.000Z</time>
      </trkpt>
      <trkpt lat="43.35453" lon="-1.631">
        <ele>6</ele>
        <time>2026-08-23T11:40:14.000Z</time>
      </trkpt>
      <trkpt lat="43.35441" lon="-1.63096">
        <ele>6</ele>
        <time>2026-08-23T11:40:16.000Z</time>
      </trkpt>
      <trkpt lat="43.35426" lon="-1.63091">
        <ele>7</ele>
        <time>2026-08-23T11:40:19.000Z</time>
      </trkpt>
      <trkpt lat="43.35417" lon="-1.63087">
        <ele>7</ele>
        <time>2026-08-23T11:40:21.000Z</time>
      </trkpt>
      <trkpt lat="43.35405" lon="-1.63082">
        <ele>7</ele>
        <time>2026-08-23T11:40:23.000Z</time>
      </trkpt>
      <trkpt lat="43.35395" lon="-1.63077">
        <ele>7</ele>
        <time>2026-08-23T11:40:25.000Z</time>
      </trkpt>
      <trkpt lat="43.35386" lon="-1.63072">
        <ele>7</ele>
        <time>2026-08-23T11:40:27.000Z</time>
      </trkpt>
      <trkpt lat="43.35377" lon="-1.63066">
        <ele>7</ele>
        <time>2026-08-23T11:40:29.000Z</time>
      </trkpt>
      <trkpt lat="43.35366" lon="-1.63058">
        <ele>7</ele>
        <time>2026-08-23T11:40:31.000Z</time>
      </trkpt>
      <trkpt lat="43.35351" lon="-1.63045">
        <ele>7</ele>
        <time>2026-08-23T11:40:34.000Z</time>
      </trkpt>
      <trkpt lat="43.35342" lon="-1.63036">
        <ele>7</ele>
        <time>2026-08-23T11:40:36.000Z</time>
      </trkpt>
      <trkpt lat="43.3533" lon="-1.63025">
        <ele>7</ele>
        <time>2026-08-23T11:40:38.000Z</time>
      </trkpt>
      <trkpt lat="43.3532" lon="-1.63013">
        <ele>6</ele>
        <time>2026-08-23T11:40:41.000Z</time>
      </trkpt>
      <trkpt lat="43.3531" lon="-1.63002">
        <ele>6</ele>
        <time>2026-08-23T11:40:43.000Z</time>
      </trkpt>
      <trkpt lat="43.35302" lon="-1.62992">
        <ele>6</ele>
        <time>2026-08-23T11:40:45.000Z</time>
      </trkpt>
      <trkpt lat="43.35297" lon="-1.62986">
        <ele>6</ele>
        <time>2026-08-23T11:40:46.000Z</time>
      </trkpt>
      <trkpt lat="43.35291" lon="-1.62976">
        <ele>6</ele>
        <time>2026-08-23T11:40:48.000Z</time>
      </trkpt>
      <trkpt lat="43.35284" lon="-1.62963">
        <ele>6</ele>
        <time>2026-08-23T11:40:50.000Z</time>
      </trkpt>
      <trkpt lat="43.35274" lon="-1.62944">
        <ele>6</ele>
        <time>2026-08-23T11:40:53.000Z</time>
      </trkpt>
      <trkpt lat="43.35268" lon="-1.6293">
        <ele>6</ele>
        <time>2026-08-23T11:40:55.000Z</time>
      </trkpt>
      <trkpt lat="43.35263" lon="-1.62918">
        <ele>7</ele>
        <time>2026-08-23T11:40:57.000Z</time>
      </trkpt>
      <trkpt lat="43.35258" lon="-1.62906">
        <ele>6</ele>
        <time>2026-08-23T11:40:59.000Z</time>
      </trkpt>
      <trkpt lat="43.35251" lon="-1.62887">
        <ele>6</ele>
        <time>2026-08-23T11:41:01.000Z</time>
      </trkpt>
      <trkpt lat="43.35244" lon="-1.62867">
        <ele>6</ele>
        <time>2026-08-23T11:41:04.000Z</time>
      </trkpt>
      <trkpt lat="43.35236" lon="-1.62843">
        <ele>7</ele>
        <time>2026-08-23T11:41:08.000Z</time>
      </trkpt>
      <trkpt lat="43.35228" lon="-1.62818">
        <ele>7</ele>
        <time>2026-08-23T11:41:11.000Z</time>
      </trkpt>
      <trkpt lat="43.35221" lon="-1.62797">
        <ele>8</ele>
        <time>2026-08-23T11:41:14.000Z</time>
      </trkpt>
      <trkpt lat="43.35207" lon="-1.62758">
        <ele>8</ele>
        <time>2026-08-23T11:41:20.000Z</time>
      </trkpt>
      <trkpt lat="43.35189" lon="-1.62714">
        <ele>8</ele>
        <time>2026-08-23T11:41:26.000Z</time>
      </trkpt>
      <trkpt lat="43.3517" lon="-1.62665">
        <ele>8</ele>
        <time>2026-08-23T11:41:34.000Z</time>
      </trkpt>
      <trkpt lat="43.35157" lon="-1.62632">
        <ele>10</ele>
        <time>2026-08-23T11:41:38.000Z</time>
      </trkpt>
      <trkpt lat="43.35147" lon="-1.62608">
        <ele>11</ele>
        <time>2026-08-23T11:41:42.000Z</time>
      </trkpt>
      <trkpt lat="43.35145" lon="-1.62603">
        <ele>12</ele>
        <time>2026-08-23T11:41:43.000Z</time>
      </trkpt>
      <trkpt lat="43.3513" lon="-1.62562">
        <ele>12</ele>
        <time>2026-08-23T11:41:49.000Z</time>
      </trkpt>
      <trkpt lat="43.35121" lon="-1.62539">
        <ele>12</ele>
        <time>2026-08-23T11:41:52.000Z</time>
      </trkpt>
      <trkpt lat="43.35116" lon="-1.62524">
        <ele>11</ele>
        <time>2026-08-23T11:41:54.000Z</time>
      </trkpt>
      <trkpt lat="43.3511" lon="-1.62497">
        <ele>11</ele>
        <time>2026-08-23T11:41:58.000Z</time>
      </trkpt>
      <trkpt lat="43.35106" lon="-1.62475">
        <ele>11</ele>
        <time>2026-08-23T11:42:01.000Z</time>
      </trkpt>
      <trkpt lat="43.35103" lon="-1.62455">
        <ele>10</ele>
        <time>2026-08-23T11:42:03.000Z</time>
      </trkpt>
      <trkpt lat="43.35103" lon="-1.62449">
        <ele>11</ele>
        <time>2026-08-23T11:42:04.000Z</time>
      </trkpt>
      <trkpt lat="43.35102" lon="-1.62437">
        <ele>11</ele>
        <time>2026-08-23T11:42:06.000Z</time>
      </trkpt>
      <trkpt lat="43.35102" lon="-1.62423">
        <ele>11</ele>
        <time>2026-08-23T11:42:08.000Z</time>
      </trkpt>
      <trkpt lat="43.35102" lon="-1.62403">
        <ele>11</ele>
        <time>2026-08-23T11:42:10.000Z</time>
      </trkpt>
      <trkpt lat="43.35104" lon="-1.62381">
        <ele>10</ele>
        <time>2026-08-23T11:42:13.000Z</time>
      </trkpt>
      <trkpt lat="43.35105" lon="-1.62359">
        <ele>10</ele>
        <time>2026-08-23T11:42:16.000Z</time>
      </trkpt>
      <trkpt lat="43.35106" lon="-1.62351">
        <ele>10</ele>
        <time>2026-08-23T11:42:17.000Z</time>
      </trkpt>
      <trkpt lat="43.35107" lon="-1.62343">
        <ele>10</ele>
        <time>2026-08-23T11:42:18.000Z</time>
      </trkpt>
      <trkpt lat="43.35108" lon="-1.62337">
        <ele>10</ele>
        <time>2026-08-23T11:42:19.000Z</time>
      </trkpt>
      <trkpt lat="43.35109" lon="-1.6233">
        <ele>10</ele>
        <time>2026-08-23T11:42:20.000Z</time>
      </trkpt>
      <trkpt lat="43.3511" lon="-1.62326">
        <ele>10</ele>
        <time>2026-08-23T11:42:20.000Z</time>
      </trkpt>
      <trkpt lat="43.35111" lon="-1.62321">
        <ele>10</ele>
        <time>2026-08-23T11:42:21.000Z</time>
      </trkpt>
      <trkpt lat="43.35114" lon="-1.62315">
        <ele>11</ele>
        <time>2026-08-23T11:42:22.000Z</time>
      </trkpt>
      <trkpt lat="43.35116" lon="-1.62309">
        <ele>11</ele>
        <time>2026-08-23T11:42:23.000Z</time>
      </trkpt>
      <trkpt lat="43.35122" lon="-1.62299">
        <ele>11</ele>
        <time>2026-08-23T11:42:24.000Z</time>
      </trkpt>
      <trkpt lat="43.35125" lon="-1.62292">
        <ele>11</ele>
        <time>2026-08-23T11:42:25.000Z</time>
      </trkpt>
      <trkpt lat="43.35127" lon="-1.62288">
        <ele>11</ele>
        <time>2026-08-23T11:42:26.000Z</time>
      </trkpt>
      <trkpt lat="43.35142" lon="-1.6226">
        <ele>11</ele>
        <time>2026-08-23T11:42:31.000Z</time>
      </trkpt>
      <trkpt lat="43.35152" lon="-1.62239">
        <ele>10</ele>
        <time>2026-08-23T11:42:34.000Z</time>
      </trkpt>
      <trkpt lat="43.35168" lon="-1.62208">
        <ele>10</ele>
        <time>2026-08-23T11:42:39.000Z</time>
      </trkpt>
      <trkpt lat="43.35178" lon="-1.62189">
        <ele>10</ele>
        <time>2026-08-23T11:42:42.000Z</time>
      </trkpt>
      <trkpt lat="43.35188" lon="-1.62171">
        <ele>11</ele>
        <time>2026-08-23T11:42:45.000Z</time>
      </trkpt>
      <trkpt lat="43.35193" lon="-1.62165">
        <ele>11</ele>
        <time>2026-08-23T11:42:46.000Z</time>
      </trkpt>
      <trkpt lat="43.35198" lon="-1.62158">
        <ele>12</ele>
        <time>2026-08-23T11:42:47.000Z</time>
      </trkpt>
      <trkpt lat="43.35202" lon="-1.62154">
        <ele>12</ele>
        <time>2026-08-23T11:42:48.000Z</time>
      </trkpt>
      <trkpt lat="43.35207" lon="-1.62149">
        <ele>12</ele>
        <time>2026-08-23T11:42:49.000Z</time>
      </trkpt>
      <trkpt lat="43.35213" lon="-1.62144">
        <ele>12</ele>
        <time>2026-08-23T11:42:50.000Z</time>
      </trkpt>
      <trkpt lat="43.35217" lon="-1.6214">
        <ele>13</ele>
        <time>2026-08-23T11:42:51.000Z</time>
      </trkpt>
      <trkpt lat="43.35221" lon="-1.62137">
        <ele>13</ele>
        <time>2026-08-23T11:42:52.000Z</time>
      </trkpt>
      <trkpt lat="43.35224" lon="-1.62135">
        <ele>13</ele>
        <time>2026-08-23T11:42:53.000Z</time>
      </trkpt>
      <trkpt lat="43.35231" lon="-1.6213">
        <ele>13</ele>
        <time>2026-08-23T11:42:54.000Z</time>
      </trkpt>
      <trkpt lat="43.35235" lon="-1.62128">
        <ele>13</ele>
        <time>2026-08-23T11:42:55.000Z</time>
      </trkpt>
      <trkpt lat="43.35243" lon="-1.62124">
        <ele>14</ele>
        <time>2026-08-23T11:42:56.000Z</time>
      </trkpt>
      <trkpt lat="43.35252" lon="-1.6212">
        <ele>14</ele>
        <time>2026-08-23T11:42:58.000Z</time>
      </trkpt>
      <trkpt lat="43.35271" lon="-1.62113">
        <ele>16</ele>
        <time>2026-08-23T11:43:02.000Z</time>
      </trkpt>
      <trkpt lat="43.35285" lon="-1.62107">
        <ele>17</ele>
        <time>2026-08-23T11:43:04.000Z</time>
      </trkpt>
      <trkpt lat="43.35307" lon="-1.62098">
        <ele>18</ele>
        <time>2026-08-23T11:43:08.000Z</time>
      </trkpt>
      <trkpt lat="43.35336" lon="-1.62087">
        <ele>19</ele>
        <time>2026-08-23T11:43:14.000Z</time>
      </trkpt>
      <trkpt lat="43.35365" lon="-1.62076">
        <ele>20</ele>
        <time>2026-08-23T11:43:19.000Z</time>
      </trkpt>
      <trkpt lat="43.35389" lon="-1.62066">
        <ele>21</ele>
        <time>2026-08-23T11:43:23.000Z</time>
      </trkpt>
      <trkpt lat="43.35402" lon="-1.6206">
        <ele>21</ele>
        <time>2026-08-23T11:43:26.000Z</time>
      </trkpt>
      <trkpt lat="43.3541" lon="-1.62056">
        <ele>21</ele>
        <time>2026-08-23T11:43:27.000Z</time>
      </trkpt>
      <trkpt lat="43.35415" lon="-1.62054">
        <ele>21</ele>
        <time>2026-08-23T11:43:28.000Z</time>
      </trkpt>
      <trkpt lat="43.35422" lon="-1.62049">
        <ele>20</ele>
        <time>2026-08-23T11:43:30.000Z</time>
      </trkpt>
      <trkpt lat="43.35433" lon="-1.62042">
        <ele>20</ele>
        <time>2026-08-23T11:43:32.000Z</time>
      </trkpt>
      <trkpt lat="43.35443" lon="-1.62035">
        <ele>20</ele>
        <time>2026-08-23T11:43:34.000Z</time>
      </trkpt>
      <trkpt lat="43.35454" lon="-1.62026">
        <ele>19</ele>
        <time>2026-08-23T11:43:36.000Z</time>
      </trkpt>
      <trkpt lat="43.35468" lon="-1.62014">
        <ele>19</ele>
        <time>2026-08-23T11:43:39.000Z</time>
      </trkpt>
      <trkpt lat="43.35481" lon="-1.62002">
        <ele>18</ele>
        <time>2026-08-23T11:43:42.000Z</time>
      </trkpt>
      <trkpt lat="43.35493" lon="-1.6199">
        <ele>18</ele>
        <time>2026-08-23T11:43:44.000Z</time>
      </trkpt>
      <trkpt lat="43.35504" lon="-1.61975">
        <ele>17</ele>
        <time>2026-08-23T11:43:47.000Z</time>
      </trkpt>
      <trkpt lat="43.35513" lon="-1.61962">
        <ele>17</ele>
        <time>2026-08-23T11:43:50.000Z</time>
      </trkpt>
      <trkpt lat="43.35532" lon="-1.61933">
        <ele>17</ele>
        <time>2026-08-23T11:43:55.000Z</time>
      </trkpt>
      <trkpt lat="43.35566" lon="-1.6188">
        <ele>16</ele>
        <time>2026-08-23T11:44:04.000Z</time>
      </trkpt>
      <trkpt lat="43.35594" lon="-1.61837">
        <ele>12</ele>
        <time>2026-08-23T11:44:11.000Z</time>
      </trkpt>
      <trkpt lat="43.35615" lon="-1.61803">
        <ele>13</ele>
        <time>2026-08-23T11:44:17.000Z</time>
      </trkpt>
      <trkpt lat="43.35638" lon="-1.61767">
        <ele>15</ele>
        <time>2026-08-23T11:44:23.000Z</time>
      </trkpt>
      <trkpt lat="43.35668" lon="-1.6172">
        <ele>15</ele>
        <time>2026-08-23T11:44:31.000Z</time>
      </trkpt>
      <trkpt lat="43.35689" lon="-1.61686">
        <ele>16</ele>
        <time>2026-08-23T11:44:37.000Z</time>
      </trkpt>
      <trkpt lat="43.35714" lon="-1.61647">
        <ele>17</ele>
        <time>2026-08-23T11:44:44.000Z</time>
      </trkpt>
      <trkpt lat="43.35742" lon="-1.61603">
        <ele>15</ele>
        <time>2026-08-23T11:44:51.000Z</time>
      </trkpt>
      <trkpt lat="43.35758" lon="-1.61578">
        <ele>14</ele>
        <time>2026-08-23T11:44:56.000Z</time>
      </trkpt>
      <trkpt lat="43.35779" lon="-1.61546">
        <ele>14</ele>
        <time>2026-08-23T11:45:01.000Z</time>
      </trkpt>
      <trkpt lat="43.3579" lon="-1.61528">
        <ele>14</ele>
        <time>2026-08-23T11:45:04.000Z</time>
      </trkpt>
      <trkpt lat="43.358" lon="-1.61516">
        <ele>13</ele>
        <time>2026-08-23T11:45:07.000Z</time>
      </trkpt>
      <trkpt lat="43.35811" lon="-1.61503">
        <ele>12</ele>
        <time>2026-08-23T11:45:09.000Z</time>
      </trkpt>
      <trkpt lat="43.35826" lon="-1.61489">
        <ele>12</ele>
        <time>2026-08-23T11:45:12.000Z</time>
      </trkpt>
      <trkpt lat="43.35841" lon="-1.61476">
        <ele>13</ele>
        <time>2026-08-23T11:45:16.000Z</time>
      </trkpt>
      <trkpt lat="43.35872" lon="-1.61452">
        <ele>16</ele>
        <time>2026-08-23T11:45:22.000Z</time>
      </trkpt>
      <trkpt lat="43.35895" lon="-1.61433">
        <ele>16</ele>
        <time>2026-08-23T11:45:27.000Z</time>
      </trkpt>
      <trkpt lat="43.35903" lon="-1.61426">
        <ele>16</ele>
        <time>2026-08-23T11:45:28.000Z</time>
      </trkpt>
      <trkpt lat="43.3591" lon="-1.6142">
        <ele>16</ele>
        <time>2026-08-23T11:45:30.000Z</time>
      </trkpt>
      <trkpt lat="43.3592" lon="-1.61409">
        <ele>16</ele>
        <time>2026-08-23T11:45:32.000Z</time>
      </trkpt>
      <trkpt lat="43.35932" lon="-1.61396">
        <ele>15</ele>
        <time>2026-08-23T11:45:35.000Z</time>
      </trkpt>
      <trkpt lat="43.3594" lon="-1.61386">
        <ele>15</ele>
        <time>2026-08-23T11:45:37.000Z</time>
      </trkpt>
      <trkpt lat="43.35953" lon="-1.61369">
        <ele>14</ele>
        <time>2026-08-23T11:45:40.000Z</time>
      </trkpt>
      <trkpt lat="43.35992" lon="-1.6132">
        <ele>11</ele>
        <time>2026-08-23T11:45:49.000Z</time>
      </trkpt>
      <trkpt lat="43.36005" lon="-1.61304">
        <ele>11</ele>
        <time>2026-08-23T11:45:52.000Z</time>
      </trkpt>
      <trkpt lat="43.36026" lon="-1.61276">
        <ele>11</ele>
        <time>2026-08-23T11:45:58.000Z</time>
      </trkpt>
      <trkpt lat="43.36036" lon="-1.61262">
        <ele>11</ele>
        <time>2026-08-23T11:46:00.000Z</time>
      </trkpt>
      <trkpt lat="43.36042" lon="-1.61254">
        <ele>11</ele>
        <time>2026-08-23T11:46:02.000Z</time>
      </trkpt>
      <trkpt lat="43.36048" lon="-1.61243">
        <ele>11</ele>
        <time>2026-08-23T11:46:03.000Z</time>
      </trkpt>
      <trkpt lat="43.36058" lon="-1.61226">
        <ele>11</ele>
        <time>2026-08-23T11:46:06.000Z</time>
      </trkpt>
      <trkpt lat="43.36068" lon="-1.61204">
        <ele>11</ele>
        <time>2026-08-23T11:46:10.000Z</time>
      </trkpt>
      <trkpt lat="43.36076" lon="-1.61184">
        <ele>12</ele>
        <time>2026-08-23T11:46:13.000Z</time>
      </trkpt>
      <trkpt lat="43.36079" lon="-1.61175">
        <ele>12</ele>
        <time>2026-08-23T11:46:14.000Z</time>
      </trkpt>
      <trkpt lat="43.36082" lon="-1.61167">
        <ele>12</ele>
        <time>2026-08-23T11:46:15.000Z</time>
      </trkpt>
      <trkpt lat="43.36087" lon="-1.61149">
        <ele>13</ele>
        <time>2026-08-23T11:46:18.000Z</time>
      </trkpt>
      <trkpt lat="43.36088" lon="-1.61141">
        <ele>13</ele>
        <time>2026-08-23T11:46:19.000Z</time>
      </trkpt>
      <trkpt lat="43.36092" lon="-1.6112">
        <ele>14</ele>
        <time>2026-08-23T11:46:21.000Z</time>
      </trkpt>
      <trkpt lat="43.36094" lon="-1.61106">
        <ele>14</ele>
        <time>2026-08-23T11:46:23.000Z</time>
      </trkpt>
      <trkpt lat="43.36096" lon="-1.61087">
        <ele>14</ele>
        <time>2026-08-23T11:46:26.000Z</time>
      </trkpt>
      <trkpt lat="43.36098" lon="-1.61075">
        <ele>15</ele>
        <time>2026-08-23T11:46:27.000Z</time>
      </trkpt>
      <trkpt lat="43.36099" lon="-1.61059">
        <ele>15</ele>
        <time>2026-08-23T11:46:29.000Z</time>
      </trkpt>
      <trkpt lat="43.361" lon="-1.61043">
        <ele>16</ele>
        <time>2026-08-23T11:46:31.000Z</time>
      </trkpt>
      <trkpt lat="43.36101" lon="-1.61017">
        <ele>16</ele>
        <time>2026-08-23T11:46:35.000Z</time>
      </trkpt>
      <trkpt lat="43.36102" lon="-1.60996">
        <ele>17</ele>
        <time>2026-08-23T11:46:38.000Z</time>
      </trkpt>
      <trkpt lat="43.36104" lon="-1.60959">
        <ele>16</ele>
        <time>2026-08-23T11:46:42.000Z</time>
      </trkpt>
      <trkpt lat="43.36105" lon="-1.60957">
        <ele>16</ele>
        <time>2026-08-23T11:46:43.000Z</time>
      </trkpt>
      <trkpt lat="43.36107" lon="-1.60911">
        <ele>15</ele>
        <time>2026-08-23T11:46:49.000Z</time>
      </trkpt>
      <trkpt lat="43.36109" lon="-1.60875">
        <ele>15</ele>
        <time>2026-08-23T11:46:53.000Z</time>
      </trkpt>
      <trkpt lat="43.36112" lon="-1.60861">
        <ele>16</ele>
        <time>2026-08-23T11:46:55.000Z</time>
      </trkpt>
      <trkpt lat="43.36113" lon="-1.60832">
        <ele>16</ele>
        <time>2026-08-23T11:46:59.000Z</time>
      </trkpt>
      <trkpt lat="43.36116" lon="-1.6078">
        <ele>17</ele>
        <time>2026-08-23T11:47:06.000Z</time>
      </trkpt>
      <trkpt lat="43.36117" lon="-1.60759">
        <ele>18</ele>
        <time>2026-08-23T11:47:08.000Z</time>
      </trkpt>
      <trkpt lat="43.36117" lon="-1.60752">
        <ele>18</ele>
        <time>2026-08-23T11:47:09.000Z</time>
      </trkpt>
      <trkpt lat="43.36117" lon="-1.60739">
        <ele>18</ele>
        <time>2026-08-23T11:47:11.000Z</time>
      </trkpt>
      <trkpt lat="43.36117" lon="-1.60726">
        <ele>18</ele>
        <time>2026-08-23T11:47:13.000Z</time>
      </trkpt>
      <trkpt lat="43.36116" lon="-1.60708">
        <ele>18</ele>
        <time>2026-08-23T11:47:15.000Z</time>
      </trkpt>
      <trkpt lat="43.36115" lon="-1.60689">
        <ele>18</ele>
        <time>2026-08-23T11:47:17.000Z</time>
      </trkpt>
      <trkpt lat="43.36113" lon="-1.60672">
        <ele>18</ele>
        <time>2026-08-23T11:47:20.000Z</time>
      </trkpt>
      <trkpt lat="43.36112" lon="-1.60659">
        <ele>18</ele>
        <time>2026-08-23T11:47:21.000Z</time>
      </trkpt>
      <trkpt lat="43.3611" lon="-1.60644">
        <ele>18</ele>
        <time>2026-08-23T11:47:23.000Z</time>
      </trkpt>
      <trkpt lat="43.36106" lon="-1.60609">
        <ele>18</ele>
        <time>2026-08-23T11:47:28.000Z</time>
      </trkpt>
      <trkpt lat="43.36103" lon="-1.60584">
        <ele>18</ele>
        <time>2026-08-23T11:47:31.000Z</time>
      </trkpt>
      <trkpt lat="43.36102" lon="-1.60567">
        <ele>18</ele>
        <time>2026-08-23T11:47:33.000Z</time>
      </trkpt>
      <trkpt lat="43.36101" lon="-1.60551">
        <ele>17</ele>
        <time>2026-08-23T11:47:36.000Z</time>
      </trkpt>
      <trkpt lat="43.36101" lon="-1.60537">
        <ele>17</ele>
        <time>2026-08-23T11:47:37.000Z</time>
      </trkpt>
      <trkpt lat="43.36101" lon="-1.60516">
        <ele>17</ele>
        <time>2026-08-23T11:47:40.000Z</time>
      </trkpt>
      <trkpt lat="43.36102" lon="-1.60503">
        <ele>17</ele>
        <time>2026-08-23T11:47:42.000Z</time>
      </trkpt>
      <trkpt lat="43.36104" lon="-1.60486">
        <ele>17</ele>
        <time>2026-08-23T11:47:44.000Z</time>
      </trkpt>
      <trkpt lat="43.36108" lon="-1.60465">
        <ele>16</ele>
        <time>2026-08-23T11:47:47.000Z</time>
      </trkpt>
      <trkpt lat="43.36113" lon="-1.60445">
        <ele>16</ele>
        <time>2026-08-23T11:47:50.000Z</time>
      </trkpt>
      <trkpt lat="43.36116" lon="-1.60437">
        <ele>16</ele>
        <time>2026-08-23T11:47:51.000Z</time>
      </trkpt>
      <trkpt lat="43.36119" lon="-1.60427">
        <ele>15</ele>
        <time>2026-08-23T11:47:52.000Z</time>
      </trkpt>
      <trkpt lat="43.36125" lon="-1.60412">
        <ele>15</ele>
        <time>2026-08-23T11:47:54.000Z</time>
      </trkpt>
      <trkpt lat="43.36132" lon="-1.60396">
        <ele>15</ele>
        <time>2026-08-23T11:47:57.000Z</time>
      </trkpt>
      <trkpt lat="43.36135" lon="-1.60388">
        <ele>15</ele>
        <time>2026-08-23T11:47:58.000Z</time>
      </trkpt>
      <trkpt lat="43.36139" lon="-1.60381">
        <ele>15</ele>
        <time>2026-08-23T11:47:59.000Z</time>
      </trkpt>
      <trkpt lat="43.36143" lon="-1.60375">
        <ele>15</ele>
        <time>2026-08-23T11:48:00.000Z</time>
      </trkpt>
      <trkpt lat="43.36147" lon="-1.60369">
        <ele>14</ele>
        <time>2026-08-23T11:48:01.000Z</time>
      </trkpt>
      <trkpt lat="43.36158" lon="-1.60355">
        <ele>14</ele>
        <time>2026-08-23T11:48:04.000Z</time>
      </trkpt>
      <trkpt lat="43.36163" lon="-1.60348">
        <ele>14</ele>
        <time>2026-08-23T11:48:05.000Z</time>
      </trkpt>
      <trkpt lat="43.3617" lon="-1.60341">
        <ele>13</ele>
        <time>2026-08-23T11:48:07.000Z</time>
      </trkpt>
      <trkpt lat="43.36175" lon="-1.60334">
        <ele>13</ele>
        <time>2026-08-23T11:48:08.000Z</time>
      </trkpt>
      <trkpt lat="43.3618" lon="-1.60329">
        <ele>13</ele>
        <time>2026-08-23T11:48:09.000Z</time>
      </trkpt>
      <trkpt lat="43.36198" lon="-1.60313">
        <ele>15</ele>
        <time>2026-08-23T11:48:13.000Z</time>
      </trkpt>
      <trkpt lat="43.36212" lon="-1.60301">
        <ele>16</ele>
        <time>2026-08-23T11:48:16.000Z</time>
      </trkpt>
      <trkpt lat="43.36229" lon="-1.60286">
        <ele>17</ele>
        <time>2026-08-23T11:48:19.000Z</time>
      </trkpt>
      <trkpt lat="43.36258" lon="-1.60262">
        <ele>18</ele>
        <time>2026-08-23T11:48:25.000Z</time>
      </trkpt>
      <trkpt lat="43.36289" lon="-1.60232">
        <ele>20</ele>
        <time>2026-08-23T11:48:32.000Z</time>
      </trkpt>
      <trkpt lat="43.36292" lon="-1.60229">
        <ele>20</ele>
        <time>2026-08-23T11:48:33.000Z</time>
      </trkpt>
      <trkpt lat="43.36299" lon="-1.60221">
        <ele>20</ele>
        <time>2026-08-23T11:48:34.000Z</time>
      </trkpt>
      <trkpt lat="43.36304" lon="-1.60215">
        <ele>20</ele>
        <time>2026-08-23T11:48:36.000Z</time>
      </trkpt>
      <trkpt lat="43.3631" lon="-1.60208">
        <ele>20</ele>
        <time>2026-08-23T11:48:37.000Z</time>
      </trkpt>
      <trkpt lat="43.36318" lon="-1.60196">
        <ele>19</ele>
        <time>2026-08-23T11:48:39.000Z</time>
      </trkpt>
      <trkpt lat="43.36322" lon="-1.6019">
        <ele>19</ele>
        <time>2026-08-23T11:48:40.000Z</time>
      </trkpt>
      <trkpt lat="43.36329" lon="-1.60177">
        <ele>17</ele>
        <time>2026-08-23T11:48:42.000Z</time>
      </trkpt>
      <trkpt lat="43.36334" lon="-1.60167">
        <ele>16</ele>
        <time>2026-08-23T11:48:44.000Z</time>
      </trkpt>
      <trkpt lat="43.36337" lon="-1.60161">
        <ele>16</ele>
        <time>2026-08-23T11:48:45.000Z</time>
      </trkpt>
      <trkpt lat="43.3634" lon="-1.60153">
        <ele>16</ele>
        <time>2026-08-23T11:48:46.000Z</time>
      </trkpt>
      <trkpt lat="43.36345" lon="-1.6014">
        <ele>16</ele>
        <time>2026-08-23T11:48:48.000Z</time>
      </trkpt>
      <trkpt lat="43.36351" lon="-1.60124">
        <ele>16</ele>
        <time>2026-08-23T11:48:50.000Z</time>
      </trkpt>
      <trkpt lat="43.36355" lon="-1.60113">
        <ele>16</ele>
        <time>2026-08-23T11:48:52.000Z</time>
      </trkpt>
      <trkpt lat="43.36358" lon="-1.60105">
        <ele>16</ele>
        <time>2026-08-23T11:48:53.000Z</time>
      </trkpt>
      <trkpt lat="43.36362" lon="-1.60094">
        <ele>16</ele>
        <time>2026-08-23T11:48:54.000Z</time>
      </trkpt>
      <trkpt lat="43.36367" lon="-1.6008">
        <ele>15</ele>
        <time>2026-08-23T11:48:56.000Z</time>
      </trkpt>
      <trkpt lat="43.36375" lon="-1.60065">
        <ele>15</ele>
        <time>2026-08-23T11:48:59.000Z</time>
      </trkpt>
      <trkpt lat="43.36381" lon="-1.60052">
        <ele>15</ele>
        <time>2026-08-23T11:49:01.000Z</time>
      </trkpt>
      <trkpt lat="43.3639" lon="-1.60038">
        <ele>15</ele>
        <time>2026-08-23T11:49:03.000Z</time>
      </trkpt>
      <trkpt lat="43.364" lon="-1.6002">
        <ele>14</ele>
        <time>2026-08-23T11:49:06.000Z</time>
      </trkpt>
      <trkpt lat="43.36411" lon="-1.60004">
        <ele>13</ele>
        <time>2026-08-23T11:49:09.000Z</time>
      </trkpt>
      <trkpt lat="43.36421" lon="-1.59991">
        <ele>13</ele>
        <time>2026-08-23T11:49:11.000Z</time>
      </trkpt>
      <trkpt lat="43.36432" lon="-1.59979">
        <ele>14</ele>
        <time>2026-08-23T11:49:14.000Z</time>
      </trkpt>
      <trkpt lat="43.36444" lon="-1.59966">
        <ele>14</ele>
        <time>2026-08-23T11:49:17.000Z</time>
      </trkpt>
      <trkpt lat="43.36456" lon="-1.59956">
        <ele>14</ele>
        <time>2026-08-23T11:49:19.000Z</time>
      </trkpt>
      <trkpt lat="43.36469" lon="-1.59944">
        <ele>14</ele>
        <time>2026-08-23T11:49:22.000Z</time>
      </trkpt>
      <trkpt lat="43.36488" lon="-1.5993">
        <ele>13</ele>
        <time>2026-08-23T11:49:26.000Z</time>
      </trkpt>
      <trkpt lat="43.36497" lon="-1.59923">
        <ele>13</ele>
        <time>2026-08-23T11:49:28.000Z</time>
      </trkpt>
      <trkpt lat="43.36511" lon="-1.59913">
        <ele>13</ele>
        <time>2026-08-23T11:49:30.000Z</time>
      </trkpt>
      <trkpt lat="43.36516" lon="-1.5991">
        <ele>14</ele>
        <time>2026-08-23T11:49:31.000Z</time>
      </trkpt>
      <trkpt lat="43.36519" lon="-1.59907">
        <ele>14</ele>
        <time>2026-08-23T11:49:32.000Z</time>
      </trkpt>
      <trkpt lat="43.36523" lon="-1.59904">
        <ele>15</ele>
        <time>2026-08-23T11:49:33.000Z</time>
      </trkpt>
      <trkpt lat="43.36528" lon="-1.599">
        <ele>15</ele>
        <time>2026-08-23T11:49:34.000Z</time>
      </trkpt>
      <trkpt lat="43.3653" lon="-1.59897">
        <ele>15</ele>
        <time>2026-08-23T11:49:34.000Z</time>
      </trkpt>
      <trkpt lat="43.36533" lon="-1.59895">
        <ele>16</ele>
        <time>2026-08-23T11:49:35.000Z</time>
      </trkpt>
      <trkpt lat="43.36535" lon="-1.59892">
        <ele>16</ele>
        <time>2026-08-23T11:49:36.000Z</time>
      </trkpt>
      <trkpt lat="43.36537" lon="-1.59889">
        <ele>16</ele>
        <time>2026-08-23T11:49:36.000Z</time>
      </trkpt>
      <trkpt lat="43.36541" lon="-1.59882">
        <ele>16</ele>
        <time>2026-08-23T11:49:37.000Z</time>
      </trkpt>
      <trkpt lat="43.36546" lon="-1.59875">
        <ele>17</ele>
        <time>2026-08-23T11:49:39.000Z</time>
      </trkpt>
      <trkpt lat="43.3655" lon="-1.59867">
        <ele>17</ele>
        <time>2026-08-23T11:49:40.000Z</time>
      </trkpt>
      <trkpt lat="43.36553" lon="-1.59861">
        <ele>17</ele>
        <time>2026-08-23T11:49:41.000Z</time>
      </trkpt>
      <trkpt lat="43.36556" lon="-1.59854">
        <ele>18</ele>
        <time>2026-08-23T11:49:42.000Z</time>
      </trkpt>
      <trkpt lat="43.36557" lon="-1.5985">
        <ele>18</ele>
        <time>2026-08-23T11:49:42.000Z</time>
      </trkpt>
      <trkpt lat="43.36558" lon="-1.59845">
        <ele>18</ele>
        <time>2026-08-23T11:49:43.000Z</time>
      </trkpt>
      <trkpt lat="43.3656" lon="-1.59839">
        <ele>18</ele>
        <time>2026-08-23T11:49:44.000Z</time>
      </trkpt>
      <trkpt lat="43.36562" lon="-1.59828">
        <ele>18</ele>
        <time>2026-08-23T11:49:45.000Z</time>
      </trkpt>
      <trkpt lat="43.36564" lon="-1.59818">
        <ele>18</ele>
        <time>2026-08-23T11:49:47.000Z</time>
      </trkpt>
      <trkpt lat="43.36566" lon="-1.59803">
        <ele>18</ele>
        <time>2026-08-23T11:49:49.000Z</time>
      </trkpt>
      <trkpt lat="43.36575" lon="-1.59691">
        <ele>18</ele>
        <time>2026-08-23T11:50:03.000Z</time>
      </trkpt>
      <trkpt lat="43.36582" lon="-1.59605">
        <ele>13</ele>
        <time>2026-08-23T11:50:14.000Z</time>
      </trkpt>
      <trkpt lat="43.36588" lon="-1.59545">
        <ele>11</ele>
        <time>2026-08-23T11:50:22.000Z</time>
      </trkpt>
      <trkpt lat="43.36591" lon="-1.59506">
        <ele>10</ele>
        <time>2026-08-23T11:50:27.000Z</time>
      </trkpt>
      <trkpt lat="43.36591" lon="-1.5949">
        <ele>9</ele>
        <time>2026-08-23T11:50:29.000Z</time>
      </trkpt>
      <trkpt lat="43.36592" lon="-1.59476">
        <ele>9</ele>
        <time>2026-08-23T11:50:31.000Z</time>
      </trkpt>
      <trkpt lat="43.36591" lon="-1.59458">
        <ele>9</ele>
        <time>2026-08-23T11:50:34.000Z</time>
      </trkpt>
      <trkpt lat="43.36589" lon="-1.59436">
        <ele>9</ele>
        <time>2026-08-23T11:50:36.000Z</time>
      </trkpt>
      <trkpt lat="43.36586" lon="-1.59409">
        <ele>9</ele>
        <time>2026-08-23T11:50:40.000Z</time>
      </trkpt>
      <trkpt lat="43.36584" lon="-1.59396">
        <ele>9</ele>
        <time>2026-08-23T11:50:42.000Z</time>
      </trkpt>
      <trkpt lat="43.3658" lon="-1.59376">
        <ele>9</ele>
        <time>2026-08-23T11:50:44.000Z</time>
      </trkpt>
      <trkpt lat="43.36574" lon="-1.59349">
        <ele>9</ele>
        <time>2026-08-23T11:50:48.000Z</time>
      </trkpt>
      <trkpt lat="43.36562" lon="-1.59304">
        <ele>9</ele>
        <time>2026-08-23T11:50:54.000Z</time>
      </trkpt>
      <trkpt lat="43.36548" lon="-1.5926">
        <ele>10</ele>
        <time>2026-08-23T11:51:00.000Z</time>
      </trkpt>
      <trkpt lat="43.36538" lon="-1.59228">
        <ele>10</ele>
        <time>2026-08-23T11:51:05.000Z</time>
      </trkpt>
      <trkpt lat="43.3651" lon="-1.59136">
        <ele>9</ele>
        <time>2026-08-23T11:51:18.000Z</time>
      </trkpt>
      <trkpt lat="43.36481" lon="-1.59044">
        <ele>9</ele>
        <time>2026-08-23T11:51:31.000Z</time>
      </trkpt>
      <trkpt lat="43.3648" lon="-1.59037">
        <ele>9</ele>
        <time>2026-08-23T11:51:32.000Z</time>
      </trkpt>
      <trkpt lat="43.3647" lon="-1.59005">
        <ele>10</ele>
        <time>2026-08-23T11:51:36.000Z</time>
      </trkpt>
      <trkpt lat="43.36465" lon="-1.58989">
        <ele>10</ele>
        <time>2026-08-23T11:51:38.000Z</time>
      </trkpt>
      <trkpt lat="43.3646" lon="-1.58976">
        <ele>11</ele>
        <time>2026-08-23T11:51:40.000Z</time>
      </trkpt>
      <trkpt lat="43.36454" lon="-1.58963">
        <ele>11</ele>
        <time>2026-08-23T11:51:42.000Z</time>
      </trkpt>
      <trkpt lat="43.36448" lon="-1.5895">
        <ele>12</ele>
        <time>2026-08-23T11:51:44.000Z</time>
      </trkpt>
      <trkpt lat="43.36439" lon="-1.58935">
        <ele>12</ele>
        <time>2026-08-23T11:51:47.000Z</time>
      </trkpt>
      <trkpt lat="43.3643" lon="-1.58921">
        <ele>12</ele>
        <time>2026-08-23T11:51:49.000Z</time>
      </trkpt>
      <trkpt lat="43.36423" lon="-1.58911">
        <ele>13</ele>
        <time>2026-08-23T11:51:51.000Z</time>
      </trkpt>
      <trkpt lat="43.36413" lon="-1.58899">
        <ele>15</ele>
        <time>2026-08-23T11:51:53.000Z</time>
      </trkpt>
      <trkpt lat="43.36407" lon="-1.58892">
        <ele>16</ele>
        <time>2026-08-23T11:51:55.000Z</time>
      </trkpt>
      <trkpt lat="43.36402" lon="-1.58886">
        <ele>17</ele>
        <time>2026-08-23T11:51:56.000Z</time>
      </trkpt>
      <trkpt lat="43.36356" lon="-1.58846">
        <ele>18</ele>
        <time>2026-08-23T11:52:06.000Z</time>
      </trkpt>
      <trkpt lat="43.36336" lon="-1.58829">
        <ele>18</ele>
        <time>2026-08-23T11:52:10.000Z</time>
      </trkpt>
      <trkpt lat="43.36323" lon="-1.58817">
        <ele>19</ele>
        <time>2026-08-23T11:52:13.000Z</time>
      </trkpt>
      <trkpt lat="43.36306" lon="-1.58801">
        <ele>19</ele>
        <time>2026-08-23T11:52:16.000Z</time>
      </trkpt>
      <trkpt lat="43.36292" lon="-1.58786">
        <ele>18</ele>
        <time>2026-08-23T11:52:20.000Z</time>
      </trkpt>
      <trkpt lat="43.36282" lon="-1.58772">
        <ele>18</ele>
        <time>2026-08-23T11:52:22.000Z</time>
      </trkpt>
      <trkpt lat="43.36273" lon="-1.58756">
        <ele>18</ele>
        <time>2026-08-23T11:52:25.000Z</time>
      </trkpt>
      <trkpt lat="43.36265" lon="-1.5874">
        <ele>16</ele>
        <time>2026-08-23T11:52:27.000Z</time>
      </trkpt>
      <trkpt lat="43.36257" lon="-1.58721">
        <ele>14</ele>
        <time>2026-08-23T11:52:30.000Z</time>
      </trkpt>
      <trkpt lat="43.3625" lon="-1.58703">
        <ele>12</ele>
        <time>2026-08-23T11:52:33.000Z</time>
      </trkpt>
      <trkpt lat="43.36239" lon="-1.5867">
        <ele>12</ele>
        <time>2026-08-23T11:52:37.000Z</time>
      </trkpt>
      <trkpt lat="43.36231" lon="-1.58645">
        <ele>11</ele>
        <time>2026-08-23T11:52:41.000Z</time>
      </trkpt>
      <trkpt lat="43.3623" lon="-1.5864">
        <ele>11</ele>
        <time>2026-08-23T11:52:42.000Z</time>
      </trkpt>
      <trkpt lat="43.36229" lon="-1.58636">
        <ele>11</ele>
        <time>2026-08-23T11:52:42.000Z</time>
      </trkpt>
      <trkpt lat="43.36206" lon="-1.58564">
        <ele>11</ele>
        <time>2026-08-23T11:52:52.000Z</time>
      </trkpt>
      <trkpt lat="43.36189" lon="-1.58508">
        <ele>11</ele>
        <time>2026-08-23T11:53:00.000Z</time>
      </trkpt>
      <trkpt lat="43.36169" lon="-1.58447">
        <ele>12</ele>
        <time>2026-08-23T11:53:09.000Z</time>
      </trkpt>
      <trkpt lat="43.36157" lon="-1.58412">
        <ele>12</ele>
        <time>2026-08-23T11:53:14.000Z</time>
      </trkpt>
      <trkpt lat="43.3615" lon="-1.5839">
        <ele>12</ele>
        <time>2026-08-23T11:53:17.000Z</time>
      </trkpt>
      <trkpt lat="43.36144" lon="-1.58377">
        <ele>12</ele>
        <time>2026-08-23T11:53:19.000Z</time>
      </trkpt>
      <trkpt lat="43.3614" lon="-1.58367">
        <ele>12</ele>
        <time>2026-08-23T11:53:20.000Z</time>
      </trkpt>
      <trkpt lat="43.36135" lon="-1.58354">
        <ele>12</ele>
        <time>2026-08-23T11:53:22.000Z</time>
      </trkpt>
      <trkpt lat="43.3613" lon="-1.58342">
        <ele>12</ele>
        <time>2026-08-23T11:53:24.000Z</time>
      </trkpt>
      <trkpt lat="43.36116" lon="-1.58316">
        <ele>12</ele>
        <time>2026-08-23T11:53:28.000Z</time>
      </trkpt>
      <trkpt lat="43.36105" lon="-1.58298">
        <ele>12</ele>
        <time>2026-08-23T11:53:31.000Z</time>
      </trkpt>
      <trkpt lat="43.36092" lon="-1.58277">
        <ele>12</ele>
        <time>2026-08-23T11:53:35.000Z</time>
      </trkpt>
      <trkpt lat="43.36078" lon="-1.58256">
        <ele>12</ele>
        <time>2026-08-23T11:53:39.000Z</time>
      </trkpt>
      <trkpt lat="43.36063" lon="-1.58235">
        <ele>12</ele>
        <time>2026-08-23T11:53:42.000Z</time>
      </trkpt>
      <trkpt lat="43.35923" lon="-1.58033">
        <ele>11</ele>
        <time>2026-08-23T11:54:18.000Z</time>
      </trkpt>
      <trkpt lat="43.35898" lon="-1.57996">
        <ele>11</ele>
        <time>2026-08-23T11:54:25.000Z</time>
      </trkpt>
      <trkpt lat="43.35887" lon="-1.57979">
        <ele>11</ele>
        <time>2026-08-23T11:54:28.000Z</time>
      </trkpt>
      <trkpt lat="43.3587" lon="-1.57949">
        <ele>12</ele>
        <time>2026-08-23T11:54:33.000Z</time>
      </trkpt>
      <trkpt lat="43.35864" lon="-1.57936">
        <ele>12</ele>
        <time>2026-08-23T11:54:35.000Z</time>
      </trkpt>
      <trkpt lat="43.35859" lon="-1.57925">
        <ele>12</ele>
        <time>2026-08-23T11:54:37.000Z</time>
      </trkpt>
      <trkpt lat="43.3585" lon="-1.57904">
        <ele>12</ele>
        <time>2026-08-23T11:54:40.000Z</time>
      </trkpt>
      <trkpt lat="43.35844" lon="-1.57887">
        <ele>12</ele>
        <time>2026-08-23T11:54:42.000Z</time>
      </trkpt>
      <trkpt lat="43.35837" lon="-1.57863">
        <ele>11</ele>
        <time>2026-08-23T11:54:45.000Z</time>
      </trkpt>
      <trkpt lat="43.35829" lon="-1.57824">
        <ele>11</ele>
        <time>2026-08-23T11:54:51.000Z</time>
      </trkpt>
      <trkpt lat="43.35819" lon="-1.57781">
        <ele>11</ele>
        <time>2026-08-23T11:54:57.000Z</time>
      </trkpt>
      <trkpt lat="43.35808" lon="-1.57721">
        <ele>12</ele>
        <time>2026-08-23T11:55:05.000Z</time>
      </trkpt>
      <trkpt lat="43.35788" lon="-1.57615">
        <ele>13</ele>
        <time>2026-08-23T11:55:19.000Z</time>
      </trkpt>
      <trkpt lat="43.35782" lon="-1.57577">
        <ele>13</ele>
        <time>2026-08-23T11:55:24.000Z</time>
      </trkpt>
      <trkpt lat="43.3578" lon="-1.57562">
        <ele>13</ele>
        <time>2026-08-23T11:55:26.000Z</time>
      </trkpt>
      <trkpt lat="43.35779" lon="-1.57548">
        <ele>13</ele>
        <time>2026-08-23T11:55:28.000Z</time>
      </trkpt>
      <trkpt lat="43.35779" lon="-1.57536">
        <ele>13</ele>
        <time>2026-08-23T11:55:29.000Z</time>
      </trkpt>
      <trkpt lat="43.35778" lon="-1.57524">
        <ele>13</ele>
        <time>2026-08-23T11:55:31.000Z</time>
      </trkpt>
      <trkpt lat="43.35777" lon="-1.5752">
        <ele>13</ele>
        <time>2026-08-23T11:55:31.000Z</time>
      </trkpt>
      <trkpt lat="43.35777" lon="-1.57509">
        <ele>13</ele>
        <time>2026-08-23T11:55:33.000Z</time>
      </trkpt>
      <trkpt lat="43.35776" lon="-1.57505">
        <ele>13</ele>
        <time>2026-08-23T11:55:33.000Z</time>
      </trkpt>
      <trkpt lat="43.35775" lon="-1.57497">
        <ele>13</ele>
        <time>2026-08-23T11:55:34.000Z</time>
      </trkpt>
      <trkpt lat="43.35772" lon="-1.57479">
        <ele>13</ele>
        <time>2026-08-23T11:55:37.000Z</time>
      </trkpt>
      <trkpt lat="43.35772" lon="-1.57478">
        <ele>13</ele>
        <time>2026-08-23T11:55:37.000Z</time>
      </trkpt>
      <trkpt lat="43.35771" lon="-1.57478">
        <ele>13</ele>
        <time>2026-08-23T11:55:37.000Z</time>
      </trkpt>
      <trkpt lat="43.35771" lon="-1.57477">
        <ele>13</ele>
        <time>2026-08-23T11:55:37.000Z</time>
      </trkpt>
      <trkpt lat="43.3577" lon="-1.57476">
        <ele>13</ele>
        <time>2026-08-23T11:55:37.000Z</time>
      </trkpt>
      <trkpt lat="43.3577" lon="-1.57475">
        <ele>13</ele>
        <time>2026-08-23T11:55:37.000Z</time>
      </trkpt>
      <trkpt lat="43.35769" lon="-1.57475">
        <ele>13</ele>
        <time>2026-08-23T11:55:38.000Z</time>
      </trkpt>
      <trkpt lat="43.35769" lon="-1.57474">
        <ele>13</ele>
        <time>2026-08-23T11:55:38.000Z</time>
      </trkpt>
      <trkpt lat="43.35769" lon="-1.57473">
        <ele>13</ele>
        <time>2026-08-23T11:55:38.000Z</time>
      </trkpt>
      <trkpt lat="43.35769" lon="-1.57472">
        <ele>13</ele>
        <time>2026-08-23T11:55:38.000Z</time>
      </trkpt>
      <trkpt lat="43.35768" lon="-1.57472">
        <ele>13</ele>
        <time>2026-08-23T11:55:38.000Z</time>
      </trkpt>
      <trkpt lat="43.35768" lon="-1.57471">
        <ele>13</ele>
        <time>2026-08-23T11:55:38.000Z</time>
      </trkpt>
      <trkpt lat="43.35768" lon="-1.5747">
        <ele>13</ele>
        <time>2026-08-23T11:55:38.000Z</time>
      </trkpt>
      <trkpt lat="43.35768" lon="-1.57469">
        <ele>13</ele>
        <time>2026-08-23T11:55:39.000Z</time>
      </trkpt>
      <trkpt lat="43.35768" lon="-1.57468">
        <ele>13</ele>
        <time>2026-08-23T11:55:39.000Z</time>
      </trkpt>
      <trkpt lat="43.35768" lon="-1.57467">
        <ele>13</ele>
        <time>2026-08-23T11:55:39.000Z</time>
      </trkpt>
      <trkpt lat="43.35768" lon="-1.57466">
        <ele>13</ele>
        <time>2026-08-23T11:55:39.000Z</time>
      </trkpt>
      <trkpt lat="43.35768" lon="-1.57465">
        <ele>13</ele>
        <time>2026-08-23T11:55:39.000Z</time>
      </trkpt>
      <trkpt lat="43.35768" lon="-1.57464">
        <ele>13</ele>
        <time>2026-08-23T11:55:39.000Z</time>
      </trkpt>
      <trkpt lat="43.35768" lon="-1.57463">
        <ele>13</ele>
        <time>2026-08-23T11:55:39.000Z</time>
      </trkpt>
      <trkpt lat="43.35769" lon="-1.57463">
        <ele>13</ele>
        <time>2026-08-23T11:55:39.000Z</time>
      </trkpt>
      <trkpt lat="43.35769" lon="-1.57462">
        <ele>13</ele>
        <time>2026-08-23T11:55:40.000Z</time>
      </trkpt>
      <trkpt lat="43.35769" lon="-1.57461">
        <ele>13</ele>
        <time>2026-08-23T11:55:40.000Z</time>
      </trkpt>
      <trkpt lat="43.35769" lon="-1.5746">
        <ele>13</ele>
        <time>2026-08-23T11:55:40.000Z</time>
      </trkpt>
      <trkpt lat="43.3577" lon="-1.57459">
        <ele>13</ele>
        <time>2026-08-23T11:55:40.000Z</time>
      </trkpt>
      <trkpt lat="43.3577" lon="-1.57458">
        <ele>13</ele>
        <time>2026-08-23T11:55:40.000Z</time>
      </trkpt>
      <trkpt lat="43.35771" lon="-1.57458">
        <ele>13</ele>
        <time>2026-08-23T11:55:40.000Z</time>
      </trkpt>
      <trkpt lat="43.35768" lon="-1.57443">
        <ele>13</ele>
        <time>2026-08-23T11:55:42.000Z</time>
      </trkpt>
      <trkpt lat="43.35762" lon="-1.57423">
        <ele>13</ele>
        <time>2026-08-23T11:55:45.000Z</time>
      </trkpt>
      <trkpt lat="43.35764" lon="-1.57416">
        <ele>13</ele>
        <time>2026-08-23T11:55:46.000Z</time>
      </trkpt>
      <trkpt lat="43.35758" lon="-1.57369">
        <ele>13</ele>
        <time>2026-08-23T11:55:52.000Z</time>
      </trkpt>
      <trkpt lat="43.35756" lon="-1.57342">
        <ele>13</ele>
        <time>2026-08-23T11:55:56.000Z</time>
      </trkpt>
      <trkpt lat="43.35754" lon="-1.57324">
        <ele>13</ele>
        <time>2026-08-23T11:55:58.000Z</time>
      </trkpt>
      <trkpt lat="43.35748" lon="-1.57256">
        <ele>14</ele>
        <time>2026-08-23T11:56:07.000Z</time>
      </trkpt>
      <trkpt lat="43.35745" lon="-1.57225">
        <ele>14</ele>
        <time>2026-08-23T11:56:11.000Z</time>
      </trkpt>
      <trkpt lat="43.35743" lon="-1.57209">
        <ele>14</ele>
        <time>2026-08-23T11:56:13.000Z</time>
      </trkpt>
      <trkpt lat="43.35741" lon="-1.57197">
        <ele>15</ele>
        <time>2026-08-23T11:56:15.000Z</time>
      </trkpt>
      <trkpt lat="43.3574" lon="-1.57186">
        <ele>15</ele>
        <time>2026-08-23T11:56:16.000Z</time>
      </trkpt>
      <trkpt lat="43.35737" lon="-1.57174">
        <ele>15</ele>
        <time>2026-08-23T11:56:18.000Z</time>
      </trkpt>
      <trkpt lat="43.35734" lon="-1.57164">
        <ele>15</ele>
        <time>2026-08-23T11:56:19.000Z</time>
      </trkpt>
      <trkpt lat="43.35731" lon="-1.57153">
        <ele>15</ele>
        <time>2026-08-23T11:56:21.000Z</time>
      </trkpt>
      <trkpt lat="43.35727" lon="-1.57142">
        <ele>15</ele>
        <time>2026-08-23T11:56:22.000Z</time>
      </trkpt>
      <trkpt lat="43.35723" lon="-1.57133">
        <ele>15</ele>
        <time>2026-08-23T11:56:24.000Z</time>
      </trkpt>
      <trkpt lat="43.35712" lon="-1.57106">
        <ele>15</ele>
        <time>2026-08-23T11:56:28.000Z</time>
      </trkpt>
      <trkpt lat="43.35681" lon="-1.57041">
        <ele>15</ele>
        <time>2026-08-23T11:56:38.000Z</time>
      </trkpt>
      <trkpt lat="43.35663" lon="-1.57005">
        <ele>15</ele>
        <time>2026-08-23T11:56:43.000Z</time>
      </trkpt>
      <trkpt lat="43.35648" lon="-1.56969">
        <ele>16</ele>
        <time>2026-08-23T11:56:49.000Z</time>
      </trkpt>
      <trkpt lat="43.35641" lon="-1.56954">
        <ele>16</ele>
        <time>2026-08-23T11:56:51.000Z</time>
      </trkpt>
      <trkpt lat="43.35632" lon="-1.56938">
        <ele>17</ele>
        <time>2026-08-23T11:56:54.000Z</time>
      </trkpt>
      <trkpt lat="43.35623" lon="-1.56921">
        <ele>17</ele>
        <time>2026-08-23T11:56:56.000Z</time>
      </trkpt>
      <trkpt lat="43.35616" lon="-1.56908">
        <ele>17</ele>
        <time>2026-08-23T11:56:59.000Z</time>
      </trkpt>
      <trkpt lat="43.35612" lon="-1.56902">
        <ele>17</ele>
        <time>2026-08-23T11:57:00.000Z</time>
      </trkpt>
      <trkpt lat="43.35608" lon="-1.56894">
        <ele>17</ele>
        <time>2026-08-23T11:57:01.000Z</time>
      </trkpt>
      <trkpt lat="43.35603" lon="-1.56887">
        <ele>17</ele>
        <time>2026-08-23T11:57:02.000Z</time>
      </trkpt>
      <trkpt lat="43.35598" lon="-1.56877">
        <ele>17</ele>
        <time>2026-08-23T11:57:04.000Z</time>
      </trkpt>
      <trkpt lat="43.35595" lon="-1.56868">
        <ele>17</ele>
        <time>2026-08-23T11:57:05.000Z</time>
      </trkpt>
      <trkpt lat="43.35591" lon="-1.56856">
        <ele>17</ele>
        <time>2026-08-23T11:57:07.000Z</time>
      </trkpt>
      <trkpt lat="43.35588" lon="-1.56846">
        <ele>17</ele>
        <time>2026-08-23T11:57:08.000Z</time>
      </trkpt>
      <trkpt lat="43.35587" lon="-1.56837">
        <ele>17</ele>
        <time>2026-08-23T11:57:09.000Z</time>
      </trkpt>
      <trkpt lat="43.35586" lon="-1.56829">
        <ele>17</ele>
        <time>2026-08-23T11:57:10.000Z</time>
      </trkpt>
      <trkpt lat="43.35586" lon="-1.56819">
        <ele>17</ele>
        <time>2026-08-23T11:57:12.000Z</time>
      </trkpt>
      <trkpt lat="43.35586" lon="-1.56809">
        <ele>17</ele>
        <time>2026-08-23T11:57:13.000Z</time>
      </trkpt>
      <trkpt lat="43.35586" lon="-1.56805">
        <ele>17</ele>
        <time>2026-08-23T11:57:13.000Z</time>
      </trkpt>
      <trkpt lat="43.35588" lon="-1.56797">
        <ele>17</ele>
        <time>2026-08-23T11:57:15.000Z</time>
      </trkpt>
      <trkpt lat="43.3559" lon="-1.56786">
        <ele>17</ele>
        <time>2026-08-23T11:57:16.000Z</time>
      </trkpt>
      <trkpt lat="43.3561" lon="-1.56721">
        <ele>18</ele>
        <time>2026-08-23T11:57:25.000Z</time>
      </trkpt>
      <trkpt lat="43.35615" lon="-1.56701">
        <ele>19</ele>
        <time>2026-08-23T11:57:28.000Z</time>
      </trkpt>
      <trkpt lat="43.35618" lon="-1.56687">
        <ele>19</ele>
        <time>2026-08-23T11:57:30.000Z</time>
      </trkpt>
      <trkpt lat="43.3562" lon="-1.56677">
        <ele>19</ele>
        <time>2026-08-23T11:57:31.000Z</time>
      </trkpt>
      <trkpt lat="43.35621" lon="-1.56668">
        <ele>19</ele>
        <time>2026-08-23T11:57:32.000Z</time>
      </trkpt>
      <trkpt lat="43.35622" lon="-1.56656">
        <ele>19</ele>
        <time>2026-08-23T11:57:34.000Z</time>
      </trkpt>
      <trkpt lat="43.35623" lon="-1.56643">
        <ele>19</ele>
        <time>2026-08-23T11:57:36.000Z</time>
      </trkpt>
      <trkpt lat="43.35623" lon="-1.5661">
        <ele>19</ele>
        <time>2026-08-23T11:57:40.000Z</time>
      </trkpt>
      <trkpt lat="43.35622" lon="-1.56561">
        <ele>19</ele>
        <time>2026-08-23T11:57:46.000Z</time>
      </trkpt>
      <trkpt lat="43.35621" lon="-1.56516">
        <ele>19</ele>
        <time>2026-08-23T11:57:52.000Z</time>
      </trkpt>
      <trkpt lat="43.35621" lon="-1.56507">
        <ele>19</ele>
        <time>2026-08-23T11:57:53.000Z</time>
      </trkpt>
      <trkpt lat="43.35619" lon="-1.56377">
        <ele>18</ele>
        <time>2026-08-23T11:58:10.000Z</time>
      </trkpt>
      <trkpt lat="43.35617" lon="-1.56314">
        <ele>18</ele>
        <time>2026-08-23T11:58:18.000Z</time>
      </trkpt>
      <trkpt lat="43.35615" lon="-1.56269">
        <ele>18</ele>
        <time>2026-08-23T11:58:24.000Z</time>
      </trkpt>
      <trkpt lat="43.35615" lon="-1.56229">
        <ele>18</ele>
        <time>2026-08-23T11:58:29.000Z</time>
      </trkpt>
      <trkpt lat="43.35615" lon="-1.56214">
        <ele>19</ele>
        <time>2026-08-23T11:58:31.000Z</time>
      </trkpt>
      <trkpt lat="43.35615" lon="-1.5618">
        <ele>19</ele>
        <time>2026-08-23T11:58:35.000Z</time>
      </trkpt>
      <trkpt lat="43.35618" lon="-1.56158">
        <ele>19</ele>
        <time>2026-08-23T11:58:38.000Z</time>
      </trkpt>
      <trkpt lat="43.35619" lon="-1.56151">
        <ele>19</ele>
        <time>2026-08-23T11:58:39.000Z</time>
      </trkpt>
      <trkpt lat="43.3562" lon="-1.56143">
        <ele>19</ele>
        <time>2026-08-23T11:58:40.000Z</time>
      </trkpt>
      <trkpt lat="43.35622" lon="-1.56134">
        <ele>18</ele>
        <time>2026-08-23T11:58:42.000Z</time>
      </trkpt>
      <trkpt lat="43.35628" lon="-1.56117">
        <ele>18</ele>
        <time>2026-08-23T11:58:44.000Z</time>
      </trkpt>
      <trkpt lat="43.35632" lon="-1.56109">
        <ele>18</ele>
        <time>2026-08-23T11:58:45.000Z</time>
      </trkpt>
      <trkpt lat="43.35637" lon="-1.56102">
        <ele>18</ele>
        <time>2026-08-23T11:58:47.000Z</time>
      </trkpt>
      <trkpt lat="43.35641" lon="-1.56097">
        <ele>18</ele>
        <time>2026-08-23T11:58:47.000Z</time>
      </trkpt>
      <trkpt lat="43.35644" lon="-1.56093">
        <ele>18</ele>
        <time>2026-08-23T11:58:48.000Z</time>
      </trkpt>
      <trkpt lat="43.35652" lon="-1.56087">
        <ele>18</ele>
        <time>2026-08-23T11:58:50.000Z</time>
      </trkpt>
      <trkpt lat="43.35674" lon="-1.5607">
        <ele>18</ele>
        <time>2026-08-23T11:58:54.000Z</time>
      </trkpt>
      <trkpt lat="43.35697" lon="-1.56056">
        <ele>18</ele>
        <time>2026-08-23T11:58:59.000Z</time>
      </trkpt>
      <trkpt lat="43.35714" lon="-1.56046">
        <ele>19</ele>
        <time>2026-08-23T11:59:02.000Z</time>
      </trkpt>
      <trkpt lat="43.35724" lon="-1.56038">
        <ele>19</ele>
        <time>2026-08-23T11:59:04.000Z</time>
      </trkpt>
      <trkpt lat="43.35725" lon="-1.56034">
        <ele>19</ele>
        <time>2026-08-23T11:59:05.000Z</time>
      </trkpt>
      <trkpt lat="43.35726" lon="-1.56032">
        <ele>19</ele>
        <time>2026-08-23T11:59:05.000Z</time>
      </trkpt>
      <trkpt lat="43.3573" lon="-1.56027">
        <ele>19</ele>
        <time>2026-08-23T11:59:06.000Z</time>
      </trkpt>
      <trkpt lat="43.35733" lon="-1.56022">
        <ele>18</ele>
        <time>2026-08-23T11:59:07.000Z</time>
      </trkpt>
      <trkpt lat="43.35736" lon="-1.56014">
        <ele>18</ele>
        <time>2026-08-23T11:59:08.000Z</time>
      </trkpt>
      <trkpt lat="43.35738" lon="-1.56006">
        <ele>18</ele>
        <time>2026-08-23T11:59:09.000Z</time>
      </trkpt>
      <trkpt lat="43.35738" lon="-1.56006">
        <ele>18</ele>
        <time>2026-08-23T11:59:09.000Z</time>
      </trkpt>
      <trkpt lat="43.35738" lon="-1.56005">
        <ele>18</ele>
        <time>2026-08-23T11:59:09.000Z</time>
      </trkpt>
      <trkpt lat="43.35738" lon="-1.56003">
        <ele>18</ele>
        <time>2026-08-23T11:59:09.000Z</time>
      </trkpt>
      <trkpt lat="43.35738" lon="-1.56002">
        <ele>18</ele>
        <time>2026-08-23T11:59:10.000Z</time>
      </trkpt>
      <trkpt lat="43.35737" lon="-1.56001">
        <ele>17</ele>
        <time>2026-08-23T11:59:10.000Z</time>
      </trkpt>
      <trkpt lat="43.35737" lon="-1.55999">
        <ele>17</ele>
        <time>2026-08-23T11:59:10.000Z</time>
      </trkpt>
      <trkpt lat="43.35737" lon="-1.55998">
        <ele>17</ele>
        <time>2026-08-23T11:59:10.000Z</time>
      </trkpt>
      <trkpt lat="43.35737" lon="-1.55997">
        <ele>17</ele>
        <time>2026-08-23T11:59:10.000Z</time>
      </trkpt>
      <trkpt lat="43.35737" lon="-1.55995">
        <ele>17</ele>
        <time>2026-08-23T11:59:11.000Z</time>
      </trkpt>
      <trkpt lat="43.35737" lon="-1.55994">
        <ele>17</ele>
        <time>2026-08-23T11:59:11.000Z</time>
      </trkpt>
      <trkpt lat="43.35737" lon="-1.55993">
        <ele>17</ele>
        <time>2026-08-23T11:59:11.000Z</time>
      </trkpt>
      <trkpt lat="43.35738" lon="-1.55991">
        <ele>17</ele>
        <time>2026-08-23T11:59:11.000Z</time>
      </trkpt>
      <trkpt lat="43.35738" lon="-1.5599">
        <ele>17</ele>
        <time>2026-08-23T11:59:11.000Z</time>
      </trkpt>
      <trkpt lat="43.35738" lon="-1.55989">
        <ele>17</ele>
        <time>2026-08-23T11:59:11.000Z</time>
      </trkpt>
      <trkpt lat="43.35739" lon="-1.55987">
        <ele>17</ele>
        <time>2026-08-23T11:59:12.000Z</time>
      </trkpt>
      <trkpt lat="43.35739" lon="-1.55986">
        <ele>17</ele>
        <time>2026-08-23T11:59:12.000Z</time>
      </trkpt>
      <trkpt lat="43.3574" lon="-1.55985">
        <ele>17</ele>
        <time>2026-08-23T11:59:12.000Z</time>
      </trkpt>
      <trkpt lat="43.3574" lon="-1.55984">
        <ele>17</ele>
        <time>2026-08-23T11:59:12.000Z</time>
      </trkpt>
      <trkpt lat="43.35741" lon="-1.55983">
        <ele>17</ele>
        <time>2026-08-23T11:59:12.000Z</time>
      </trkpt>
      <trkpt lat="43.35742" lon="-1.55982">
        <ele>17</ele>
        <time>2026-08-23T11:59:13.000Z</time>
      </trkpt>
      <trkpt lat="43.35742" lon="-1.55981">
        <ele>17</ele>
        <time>2026-08-23T11:59:13.000Z</time>
      </trkpt>
      <trkpt lat="43.35743" lon="-1.5598">
        <ele>17</ele>
        <time>2026-08-23T11:59:13.000Z</time>
      </trkpt>
      <trkpt lat="43.35744" lon="-1.55979">
        <ele>17</ele>
        <time>2026-08-23T11:59:13.000Z</time>
      </trkpt>
      <trkpt lat="43.35745" lon="-1.55979">
        <ele>17</ele>
        <time>2026-08-23T11:59:13.000Z</time>
      </trkpt>
      <trkpt lat="43.35746" lon="-1.55978">
        <ele>17</ele>
        <time>2026-08-23T11:59:14.000Z</time>
      </trkpt>
      <trkpt lat="43.35747" lon="-1.55977">
        <ele>17</ele>
        <time>2026-08-23T11:59:14.000Z</time>
      </trkpt>
      <trkpt lat="43.35748" lon="-1.55977">
        <ele>17</ele>
        <time>2026-08-23T11:59:14.000Z</time>
      </trkpt>
      <trkpt lat="43.35749" lon="-1.55977">
        <ele>17</ele>
        <time>2026-08-23T11:59:14.000Z</time>
      </trkpt>
      <trkpt lat="43.3575" lon="-1.55976">
        <ele>17</ele>
        <time>2026-08-23T11:59:14.000Z</time>
      </trkpt>
      <trkpt lat="43.35752" lon="-1.55976">
        <ele>17</ele>
        <time>2026-08-23T11:59:15.000Z</time>
      </trkpt>
      <trkpt lat="43.35753" lon="-1.55976">
        <ele>17</ele>
        <time>2026-08-23T11:59:15.000Z</time>
      </trkpt>
      <trkpt lat="43.35754" lon="-1.55976">
        <ele>17</ele>
        <time>2026-08-23T11:59:15.000Z</time>
      </trkpt>
      <trkpt lat="43.35756" lon="-1.55976">
        <ele>17</ele>
        <time>2026-08-23T11:59:15.000Z</time>
      </trkpt>
      <trkpt lat="43.35765" lon="-1.55967">
        <ele>17</ele>
        <time>2026-08-23T11:59:17.000Z</time>
      </trkpt>
      <trkpt lat="43.35769" lon="-1.55961">
        <ele>18</ele>
        <time>2026-08-23T11:59:19.000Z</time>
      </trkpt>
      <trkpt lat="43.35774" lon="-1.55952">
        <ele>18</ele>
        <time>2026-08-23T11:59:20.000Z</time>
      </trkpt>
      <trkpt lat="43.35775" lon="-1.55951">
        <ele>18</ele>
        <time>2026-08-23T11:59:20.000Z</time>
      </trkpt>
      <trkpt lat="43.35775" lon="-1.5595">
        <ele>18</ele>
        <time>2026-08-23T11:59:20.000Z</time>
      </trkpt>
      <trkpt lat="43.35778" lon="-1.55949">
        <ele>18</ele>
        <time>2026-08-23T11:59:21.000Z</time>
      </trkpt>
      <trkpt lat="43.35781" lon="-1.55938">
        <ele>18</ele>
        <time>2026-08-23T11:59:22.000Z</time>
      </trkpt>
      <trkpt lat="43.35783" lon="-1.55927">
        <ele>18</ele>
        <time>2026-08-23T11:59:24.000Z</time>
      </trkpt>
      <trkpt lat="43.35785" lon="-1.55916">
        <ele>18</ele>
        <time>2026-08-23T11:59:25.000Z</time>
      </trkpt>
      <trkpt lat="43.35786" lon="-1.55903">
        <ele>19</ele>
        <time>2026-08-23T11:59:27.000Z</time>
      </trkpt>
      <trkpt lat="43.35786" lon="-1.55881">
        <ele>21</ele>
        <time>2026-08-23T11:59:30.000Z</time>
      </trkpt>
      <trkpt lat="43.35783" lon="-1.55805">
        <ele>25</ele>
        <time>2026-08-23T11:59:40.000Z</time>
      </trkpt>
      <trkpt lat="43.3578" lon="-1.55733">
        <ele>25</ele>
        <time>2026-08-23T11:59:49.000Z</time>
      </trkpt>
      <trkpt lat="43.35779" lon="-1.55696">
        <ele>24</ele>
        <time>2026-08-23T11:59:54.000Z</time>
      </trkpt>
      <trkpt lat="43.35779" lon="-1.5567">
        <ele>23</ele>
        <time>2026-08-23T11:59:57.000Z</time>
      </trkpt>
      <trkpt lat="43.3578" lon="-1.55652">
        <ele>23</ele>
        <time>2026-08-23T12:00:00.000Z</time>
      </trkpt>
      <trkpt lat="43.3578" lon="-1.55638">
        <ele>23</ele>
        <time>2026-08-23T12:00:01.000Z</time>
      </trkpt>
      <trkpt lat="43.35781" lon="-1.55628">
        <ele>23</ele>
        <time>2026-08-23T12:00:03.000Z</time>
      </trkpt>
      <trkpt lat="43.35785" lon="-1.5561">
        <ele>23</ele>
        <time>2026-08-23T12:00:05.000Z</time>
      </trkpt>
      <trkpt lat="43.35789" lon="-1.55585">
        <ele>24</ele>
        <time>2026-08-23T12:00:08.000Z</time>
      </trkpt>
      <trkpt lat="43.35794" lon="-1.5556">
        <ele>25</ele>
        <time>2026-08-23T12:00:12.000Z</time>
      </trkpt>
      <trkpt lat="43.35795" lon="-1.55546">
        <ele>25</ele>
        <time>2026-08-23T12:00:14.000Z</time>
      </trkpt>
      <trkpt lat="43.35797" lon="-1.55531">
        <ele>25</ele>
        <time>2026-08-23T12:00:16.000Z</time>
      </trkpt>
      <trkpt lat="43.35797" lon="-1.55516">
        <ele>25</ele>
        <time>2026-08-23T12:00:17.000Z</time>
      </trkpt>
      <trkpt lat="43.35795" lon="-1.55499">
        <ele>25</ele>
        <time>2026-08-23T12:00:20.000Z</time>
      </trkpt>
      <trkpt lat="43.35793" lon="-1.55478">
        <ele>24</ele>
        <time>2026-08-23T12:00:22.000Z</time>
      </trkpt>
      <trkpt lat="43.3579" lon="-1.55455">
        <ele>23</ele>
        <time>2026-08-23T12:00:25.000Z</time>
      </trkpt>
      <trkpt lat="43.35775" lon="-1.55347">
        <ele>21</ele>
        <time>2026-08-23T12:00:40.000Z</time>
      </trkpt>
      <trkpt lat="43.3577" lon="-1.55312">
        <ele>21</ele>
        <time>2026-08-23T12:00:44.000Z</time>
      </trkpt>
      <trkpt lat="43.35767" lon="-1.55299">
        <ele>22</ele>
        <time>2026-08-23T12:00:46.000Z</time>
      </trkpt>
      <trkpt lat="43.35765" lon="-1.55287">
        <ele>22</ele>
        <time>2026-08-23T12:00:48.000Z</time>
      </trkpt>
      <trkpt lat="43.3576" lon="-1.55272">
        <ele>22</ele>
        <time>2026-08-23T12:00:50.000Z</time>
      </trkpt>
      <trkpt lat="43.35757" lon="-1.55265">
        <ele>22</ele>
        <time>2026-08-23T12:00:51.000Z</time>
      </trkpt>
      <trkpt lat="43.35753" lon="-1.55256">
        <ele>22</ele>
        <time>2026-08-23T12:00:52.000Z</time>
      </trkpt>
      <trkpt lat="43.35748" lon="-1.55248">
        <ele>22</ele>
        <time>2026-08-23T12:00:54.000Z</time>
      </trkpt>
      <trkpt lat="43.35725" lon="-1.55214">
        <ele>22</ele>
        <time>2026-08-23T12:01:00.000Z</time>
      </trkpt>
      <trkpt lat="43.35708" lon="-1.5519">
        <ele>22</ele>
        <time>2026-08-23T12:01:04.000Z</time>
      </trkpt>
      <trkpt lat="43.35693" lon="-1.55164">
        <ele>22</ele>
        <time>2026-08-23T12:01:08.000Z</time>
      </trkpt>
      <trkpt lat="43.35676" lon="-1.55136">
        <ele>21</ele>
        <time>2026-08-23T12:01:13.000Z</time>
      </trkpt>
      <trkpt lat="43.35666" lon="-1.55117">
        <ele>21</ele>
        <time>2026-08-23T12:01:16.000Z</time>
      </trkpt>
      <trkpt lat="43.35659" lon="-1.551">
        <ele>21</ele>
        <time>2026-08-23T12:01:19.000Z</time>
      </trkpt>
      <trkpt lat="43.35639" lon="-1.55059">
        <ele>22</ele>
        <time>2026-08-23T12:01:25.000Z</time>
      </trkpt>
      <trkpt lat="43.35635" lon="-1.55059">
        <ele>22</ele>
        <time>2026-08-23T12:01:26.000Z</time>
      </trkpt>
      <trkpt lat="43.35626" lon="-1.5506">
        <ele>21</ele>
        <time>2026-08-23T12:01:27.000Z</time>
      </trkpt>
      <trkpt lat="43.35604" lon="-1.5506">
        <ele>21</ele>
        <time>2026-08-23T12:01:31.000Z</time>
      </trkpt>
      <trkpt lat="43.35584" lon="-1.5506">
        <ele>20</ele>
        <time>2026-08-23T12:01:35.000Z</time>
      </trkpt>
      <trkpt lat="43.35558" lon="-1.55057">
        <ele>20</ele>
        <time>2026-08-23T12:01:39.000Z</time>
      </trkpt>
      <trkpt lat="43.35529" lon="-1.55055">
        <ele>20</ele>
        <time>2026-08-23T12:01:45.000Z</time>
      </trkpt>
      <trkpt lat="43.35508" lon="-1.55051">
        <ele>20</ele>
        <time>2026-08-23T12:01:48.000Z</time>
      </trkpt>
      <trkpt lat="43.35481" lon="-1.55044">
        <ele>20</ele>
        <time>2026-08-23T12:01:53.000Z</time>
      </trkpt>
      <trkpt lat="43.35464" lon="-1.55039">
        <ele>20</ele>
        <time>2026-08-23T12:01:56.000Z</time>
      </trkpt>
      <trkpt lat="43.35433" lon="-1.5503">
        <ele>19</ele>
        <time>2026-08-23T12:02:02.000Z</time>
      </trkpt>
      <trkpt lat="43.35428" lon="-1.55028">
        <ele>19</ele>
        <time>2026-08-23T12:02:03.000Z</time>
      </trkpt>
      <trkpt lat="43.35423" lon="-1.55027">
        <ele>19</ele>
        <time>2026-08-23T12:02:04.000Z</time>
      </trkpt>
      <trkpt lat="43.35382" lon="-1.55015">
        <ele>19</ele>
        <time>2026-08-23T12:02:11.000Z</time>
      </trkpt>
      <trkpt lat="43.35295" lon="-1.54989">
        <ele>19</ele>
        <time>2026-08-23T12:02:27.000Z</time>
      </trkpt>
      <trkpt lat="43.35285" lon="-1.54989">
        <ele>19</ele>
        <time>2026-08-23T12:02:29.000Z</time>
      </trkpt>
      <trkpt lat="43.3523" lon="-1.54976">
        <ele>18</ele>
        <time>2026-08-23T12:02:39.000Z</time>
      </trkpt>
      <trkpt lat="43.35166" lon="-1.54956">
        <ele>18</ele>
        <time>2026-08-23T12:02:50.000Z</time>
      </trkpt>
      <trkpt lat="43.35148" lon="-1.54951">
        <ele>18</ele>
        <time>2026-08-23T12:02:54.000Z</time>
      </trkpt>
      <trkpt lat="43.35145" lon="-1.54952">
        <ele>18</ele>
        <time>2026-08-23T12:02:54.000Z</time>
      </trkpt>
      <trkpt lat="43.35142" lon="-1.54953">
        <ele>18</ele>
        <time>2026-08-23T12:02:55.000Z</time>
      </trkpt>
      <trkpt lat="43.3514" lon="-1.54955">
        <ele>18</ele>
        <time>2026-08-23T12:02:55.000Z</time>
      </trkpt>
      <trkpt lat="43.35137" lon="-1.54958">
        <ele>18</ele>
        <time>2026-08-23T12:02:56.000Z</time>
      </trkpt>
      <trkpt lat="43.35131" lon="-1.54969">
        <ele>18</ele>
        <time>2026-08-23T12:02:58.000Z</time>
      </trkpt>
      <trkpt lat="43.35131" lon="-1.54969">
        <ele>18</ele>
        <time>2026-08-23T12:02:58.000Z</time>
      </trkpt>
      <trkpt lat="43.35131" lon="-1.54972">
        <ele>18</ele>
        <time>2026-08-23T12:02:58.000Z</time>
      </trkpt>
      <trkpt lat="43.3513" lon="-1.54975">
        <ele>18</ele>
        <time>2026-08-23T12:02:58.000Z</time>
      </trkpt>
      <trkpt lat="43.35129" lon="-1.54977">
        <ele>18</ele>
        <time>2026-08-23T12:02:59.000Z</time>
      </trkpt>
      <trkpt lat="43.35128" lon="-1.5498">
        <ele>18</ele>
        <time>2026-08-23T12:02:59.000Z</time>
      </trkpt>
      <trkpt lat="43.35127" lon="-1.54982">
        <ele>18</ele>
        <time>2026-08-23T12:03:00.000Z</time>
      </trkpt>
      <trkpt lat="43.35126" lon="-1.54984">
        <ele>18</ele>
        <time>2026-08-23T12:03:00.000Z</time>
      </trkpt>
      <trkpt lat="43.35124" lon="-1.54985">
        <ele>18</ele>
        <time>2026-08-23T12:03:00.000Z</time>
      </trkpt>
      <trkpt lat="43.35123" lon="-1.54987">
        <ele>18</ele>
        <time>2026-08-23T12:03:01.000Z</time>
      </trkpt>
      <trkpt lat="43.35121" lon="-1.54988">
        <ele>18</ele>
        <time>2026-08-23T12:03:01.000Z</time>
      </trkpt>
      <trkpt lat="43.35119" lon="-1.5499">
        <ele>18</ele>
        <time>2026-08-23T12:03:01.000Z</time>
      </trkpt>
      <trkpt lat="43.35118" lon="-1.54991">
        <ele>18</ele>
        <time>2026-08-23T12:03:02.000Z</time>
      </trkpt>
      <trkpt lat="43.35116" lon="-1.54991">
        <ele>18</ele>
        <time>2026-08-23T12:03:02.000Z</time>
      </trkpt>
      <trkpt lat="43.35114" lon="-1.54992">
        <ele>18</ele>
        <time>2026-08-23T12:03:02.000Z</time>
      </trkpt>
      <trkpt lat="43.35112" lon="-1.54992">
        <ele>18</ele>
        <time>2026-08-23T12:03:03.000Z</time>
      </trkpt>
      <trkpt lat="43.3511" lon="-1.54992">
        <ele>18</ele>
        <time>2026-08-23T12:03:03.000Z</time>
      </trkpt>
      <trkpt lat="43.35108" lon="-1.54992">
        <ele>18</ele>
        <time>2026-08-23T12:03:03.000Z</time>
      </trkpt>
      <trkpt lat="43.35106" lon="-1.54991">
        <ele>18</ele>
        <time>2026-08-23T12:03:04.000Z</time>
      </trkpt>
      <trkpt lat="43.35104" lon="-1.5499">
        <ele>18</ele>
        <time>2026-08-23T12:03:04.000Z</time>
      </trkpt>
      <trkpt lat="43.35102" lon="-1.54989">
        <ele>18</ele>
        <time>2026-08-23T12:03:05.000Z</time>
      </trkpt>
      <trkpt lat="43.351" lon="-1.54988">
        <ele>18</ele>
        <time>2026-08-23T12:03:05.000Z</time>
      </trkpt>
      <trkpt lat="43.35099" lon="-1.54987">
        <ele>18</ele>
        <time>2026-08-23T12:03:05.000Z</time>
      </trkpt>
      <trkpt lat="43.35097" lon="-1.54985">
        <ele>18</ele>
        <time>2026-08-23T12:03:06.000Z</time>
      </trkpt>
      <trkpt lat="43.35096" lon="-1.54983">
        <ele>18</ele>
        <time>2026-08-23T12:03:06.000Z</time>
      </trkpt>
      <trkpt lat="43.35095" lon="-1.54981">
        <ele>18</ele>
        <time>2026-08-23T12:03:06.000Z</time>
      </trkpt>
      <trkpt lat="43.35094" lon="-1.54979">
        <ele>18</ele>
        <time>2026-08-23T12:03:06.000Z</time>
      </trkpt>
      <trkpt lat="43.35093" lon="-1.54977">
        <ele>18</ele>
        <time>2026-08-23T12:03:07.000Z</time>
      </trkpt>
      <trkpt lat="43.35092" lon="-1.54974">
        <ele>18</ele>
        <time>2026-08-23T12:03:07.000Z</time>
      </trkpt>
      <trkpt lat="43.35091" lon="-1.54972">
        <ele>19</ele>
        <time>2026-08-23T12:03:08.000Z</time>
      </trkpt>
      <trkpt lat="43.35091" lon="-1.54969">
        <ele>19</ele>
        <time>2026-08-23T12:03:08.000Z</time>
      </trkpt>
      <trkpt lat="43.3509" lon="-1.54966">
        <ele>19</ele>
        <time>2026-08-23T12:03:08.000Z</time>
      </trkpt>
      <trkpt lat="43.3509" lon="-1.54964">
        <ele>19</ele>
        <time>2026-08-23T12:03:09.000Z</time>
      </trkpt>
      <trkpt lat="43.3509" lon="-1.54962">
        <ele>19</ele>
        <time>2026-08-23T12:03:09.000Z</time>
      </trkpt>
      <trkpt lat="43.3509" lon="-1.54961">
        <ele>19</ele>
        <time>2026-08-23T12:03:09.000Z</time>
      </trkpt>
      <trkpt lat="43.3509" lon="-1.54959">
        <ele>19</ele>
        <time>2026-08-23T12:03:09.000Z</time>
      </trkpt>
      <trkpt lat="43.35091" lon="-1.54958">
        <ele>19</ele>
        <time>2026-08-23T12:03:09.000Z</time>
      </trkpt>
      <trkpt lat="43.35091" lon="-1.54956">
        <ele>19</ele>
        <time>2026-08-23T12:03:10.000Z</time>
      </trkpt>
      <trkpt lat="43.35091" lon="-1.54954">
        <ele>19</ele>
        <time>2026-08-23T12:03:10.000Z</time>
      </trkpt>
      <trkpt lat="43.35092" lon="-1.54953">
        <ele>19</ele>
        <time>2026-08-23T12:03:10.000Z</time>
      </trkpt>
      <trkpt lat="43.35092" lon="-1.54952">
        <ele>19</ele>
        <time>2026-08-23T12:03:10.000Z</time>
      </trkpt>
      <trkpt lat="43.35089" lon="-1.54937">
        <ele>19</ele>
        <time>2026-08-23T12:03:12.000Z</time>
      </trkpt>
      <trkpt lat="43.35087" lon="-1.54931">
        <ele>20</ele>
        <time>2026-08-23T12:03:13.000Z</time>
      </trkpt>
      <trkpt lat="43.35083" lon="-1.54923">
        <ele>20</ele>
        <time>2026-08-23T12:03:14.000Z</time>
      </trkpt>
      <trkpt lat="43.35081" lon="-1.5492">
        <ele>20</ele>
        <time>2026-08-23T12:03:15.000Z</time>
      </trkpt>
      <trkpt lat="43.3508" lon="-1.54918">
        <ele>20</ele>
        <time>2026-08-23T12:03:15.000Z</time>
      </trkpt>
      <trkpt lat="43.35079" lon="-1.54914">
        <ele>20</ele>
        <time>2026-08-23T12:03:16.000Z</time>
      </trkpt>
      <trkpt lat="43.35052" lon="-1.549">
        <ele>21</ele>
        <time>2026-08-23T12:03:21.000Z</time>
      </trkpt>
      <trkpt lat="43.34978" lon="-1.54861">
        <ele>23</ele>
        <time>2026-08-23T12:03:35.000Z</time>
      </trkpt>
      <trkpt lat="43.34937" lon="-1.54838">
        <ele>23</ele>
        <time>2026-08-23T12:03:43.000Z</time>
      </trkpt>
      <trkpt lat="43.34918" lon="-1.54826">
        <ele>23</ele>
        <time>2026-08-23T12:03:47.000Z</time>
      </trkpt>
      <trkpt lat="43.34908" lon="-1.54818">
        <ele>24</ele>
        <time>2026-08-23T12:03:49.000Z</time>
      </trkpt>
      <trkpt lat="43.34893" lon="-1.54805">
        <ele>24</ele>
        <time>2026-08-23T12:03:52.000Z</time>
      </trkpt>
      <trkpt lat="43.34879" lon="-1.54789">
        <ele>25</ele>
        <time>2026-08-23T12:03:55.000Z</time>
      </trkpt>
      <trkpt lat="43.34864" lon="-1.54768">
        <ele>25</ele>
        <time>2026-08-23T12:03:59.000Z</time>
      </trkpt>
      <trkpt lat="43.34848" lon="-1.54746">
        <ele>25</ele>
        <time>2026-08-23T12:04:03.000Z</time>
      </trkpt>
      <trkpt lat="43.34824" lon="-1.54708">
        <ele>26</ele>
        <time>2026-08-23T12:04:09.000Z</time>
      </trkpt>
      <trkpt lat="43.34786" lon="-1.54648">
        <ele>27</ele>
        <time>2026-08-23T12:04:20.000Z</time>
      </trkpt>
      <trkpt lat="43.34734" lon="-1.54566">
        <ele>27</ele>
        <time>2026-08-23T12:04:34.000Z</time>
      </trkpt>
      <trkpt lat="43.34706" lon="-1.5452">
        <ele>28</ele>
        <time>2026-08-23T12:04:42.000Z</time>
      </trkpt>
      <trkpt lat="43.34699" lon="-1.54508">
        <ele>28</ele>
        <time>2026-08-23T12:04:44.000Z</time>
      </trkpt>
      <trkpt lat="43.34695" lon="-1.54498">
        <ele>28</ele>
        <time>2026-08-23T12:04:45.000Z</time>
      </trkpt>
      <trkpt lat="43.34688" lon="-1.54481">
        <ele>28</ele>
        <time>2026-08-23T12:04:48.000Z</time>
      </trkpt>
      <trkpt lat="43.34682" lon="-1.54462">
        <ele>29</ele>
        <time>2026-08-23T12:04:50.000Z</time>
      </trkpt>
      <trkpt lat="43.34679" lon="-1.54448">
        <ele>29</ele>
        <time>2026-08-23T12:04:52.000Z</time>
      </trkpt>
      <trkpt lat="43.34677" lon="-1.54436">
        <ele>30</ele>
        <time>2026-08-23T12:04:54.000Z</time>
      </trkpt>
      <trkpt lat="43.34675" lon="-1.5442">
        <ele>30</ele>
        <time>2026-08-23T12:04:56.000Z</time>
      </trkpt>
      <trkpt lat="43.34674" lon="-1.54407">
        <ele>30</ele>
        <time>2026-08-23T12:04:58.000Z</time>
      </trkpt>
      <trkpt lat="43.34673" lon="-1.54386">
        <ele>31</ele>
        <time>2026-08-23T12:05:00.000Z</time>
      </trkpt>
      <trkpt lat="43.3467" lon="-1.54296">
        <ele>33</ele>
        <time>2026-08-23T12:05:12.000Z</time>
      </trkpt>
      <trkpt lat="43.34668" lon="-1.54262">
        <ele>35</ele>
        <time>2026-08-23T12:05:16.000Z</time>
      </trkpt>
      <trkpt lat="43.34667" lon="-1.54253">
        <ele>35</ele>
        <time>2026-08-23T12:05:18.000Z</time>
      </trkpt>
      <trkpt lat="43.34664" lon="-1.54233">
        <ele>36</ele>
        <time>2026-08-23T12:05:20.000Z</time>
      </trkpt>
      <trkpt lat="43.34659" lon="-1.54213">
        <ele>37</ele>
        <time>2026-08-23T12:05:23.000Z</time>
      </trkpt>
      <trkpt lat="43.34655" lon="-1.54195">
        <ele>37</ele>
        <time>2026-08-23T12:05:25.000Z</time>
      </trkpt>
      <trkpt lat="43.34648" lon="-1.54177">
        <ele>37</ele>
        <time>2026-08-23T12:05:28.000Z</time>
      </trkpt>
      <trkpt lat="43.34641" lon="-1.5416">
        <ele>37</ele>
        <time>2026-08-23T12:05:31.000Z</time>
      </trkpt>
      <trkpt lat="43.34621" lon="-1.54121">
        <ele>36</ele>
        <time>2026-08-23T12:05:37.000Z</time>
      </trkpt>
      <trkpt lat="43.34605" lon="-1.5409">
        <ele>35</ele>
        <time>2026-08-23T12:05:42.000Z</time>
      </trkpt>
      <trkpt lat="43.34592" lon="-1.54064">
        <ele>34</ele>
        <time>2026-08-23T12:05:46.000Z</time>
      </trkpt>
      <trkpt lat="43.34586" lon="-1.54048">
        <ele>34</ele>
        <time>2026-08-23T12:05:48.000Z</time>
      </trkpt>
      <trkpt lat="43.34579" lon="-1.54027">
        <ele>34</ele>
        <time>2026-08-23T12:05:51.000Z</time>
      </trkpt>
      <trkpt lat="43.34573" lon="-1.54001">
        <ele>34</ele>
        <time>2026-08-23T12:05:55.000Z</time>
      </trkpt>
      <trkpt lat="43.34571" lon="-1.53987">
        <ele>34</ele>
        <time>2026-08-23T12:05:56.000Z</time>
      </trkpt>
      <trkpt lat="43.34568" lon="-1.5397">
        <ele>34</ele>
        <time>2026-08-23T12:05:59.000Z</time>
      </trkpt>
      <trkpt lat="43.34568" lon="-1.53951">
        <ele>34</ele>
        <time>2026-08-23T12:06:01.000Z</time>
      </trkpt>
      <trkpt lat="43.34567" lon="-1.53925">
        <ele>34</ele>
        <time>2026-08-23T12:06:04.000Z</time>
      </trkpt>
      <trkpt lat="43.34567" lon="-1.53901">
        <ele>35</ele>
        <time>2026-08-23T12:06:08.000Z</time>
      </trkpt>
      <trkpt lat="43.34564" lon="-1.53872">
        <ele>36</ele>
        <time>2026-08-23T12:06:11.000Z</time>
      </trkpt>
      <trkpt lat="43.3456" lon="-1.53848">
        <ele>37</ele>
        <time>2026-08-23T12:06:15.000Z</time>
      </trkpt>
      <trkpt lat="43.34558" lon="-1.53829">
        <ele>38</ele>
        <time>2026-08-23T12:06:17.000Z</time>
      </trkpt>
      <trkpt lat="43.34553" lon="-1.5381">
        <ele>38</ele>
        <time>2026-08-23T12:06:20.000Z</time>
      </trkpt>
      <trkpt lat="43.34547" lon="-1.53787">
        <ele>38</ele>
        <time>2026-08-23T12:06:23.000Z</time>
      </trkpt>
      <trkpt lat="43.34536" lon="-1.53744">
        <ele>38</ele>
        <time>2026-08-23T12:06:29.000Z</time>
      </trkpt>
      <trkpt lat="43.34531" lon="-1.53715">
        <ele>39</ele>
        <time>2026-08-23T12:06:33.000Z</time>
      </trkpt>
      <trkpt lat="43.34523" lon="-1.53669">
        <ele>39</ele>
        <time>2026-08-23T12:06:39.000Z</time>
      </trkpt>
      <trkpt lat="43.34498" lon="-1.53511">
        <ele>41</ele>
        <time>2026-08-23T12:07:00.000Z</time>
      </trkpt>
      <trkpt lat="43.34489" lon="-1.53447">
        <ele>42</ele>
        <time>2026-08-23T12:07:08.000Z</time>
      </trkpt>
      <trkpt lat="43.34477" lon="-1.533">
        <ele>39</ele>
        <time>2026-08-23T12:07:27.000Z</time>
      </trkpt>
      <trkpt lat="43.34472" lon="-1.53244">
        <ele>38</ele>
        <time>2026-08-23T12:07:35.000Z</time>
      </trkpt>
      <trkpt lat="43.34467" lon="-1.53193">
        <ele>39</ele>
        <time>2026-08-23T12:07:41.000Z</time>
      </trkpt>
      <trkpt lat="43.34462" lon="-1.53135">
        <ele>40</ele>
        <time>2026-08-23T12:07:49.000Z</time>
      </trkpt>
      <trkpt lat="43.34453" lon="-1.53048">
        <ele>39</ele>
        <time>2026-08-23T12:08:00.000Z</time>
      </trkpt>
      <trkpt lat="43.3445" lon="-1.53016">
        <ele>37</ele>
        <time>2026-08-23T12:08:04.000Z</time>
      </trkpt>
      <trkpt lat="43.34447" lon="-1.52994">
        <ele>37</ele>
        <time>2026-08-23T12:08:07.000Z</time>
      </trkpt>
      <trkpt lat="43.34443" lon="-1.52977">
        <ele>37</ele>
        <time>2026-08-23T12:08:09.000Z</time>
      </trkpt>
      <trkpt lat="43.34439" lon="-1.52963">
        <ele>36</ele>
        <time>2026-08-23T12:08:11.000Z</time>
      </trkpt>
      <trkpt lat="43.34432" lon="-1.52945">
        <ele>36</ele>
        <time>2026-08-23T12:08:14.000Z</time>
      </trkpt>
      <trkpt lat="43.34429" lon="-1.52936">
        <ele>36</ele>
        <time>2026-08-23T12:08:15.000Z</time>
      </trkpt>
      <trkpt lat="43.34425" lon="-1.52926">
        <ele>36</ele>
        <time>2026-08-23T12:08:17.000Z</time>
      </trkpt>
      <trkpt lat="43.34412" lon="-1.52901">
        <ele>35</ele>
        <time>2026-08-23T12:08:21.000Z</time>
      </trkpt>
      <trkpt lat="43.34375" lon="-1.5284">
        <ele>36</ele>
        <time>2026-08-23T12:08:31.000Z</time>
      </trkpt>
      <trkpt lat="43.34349" lon="-1.52798">
        <ele>35</ele>
        <time>2026-08-23T12:08:38.000Z</time>
      </trkpt>
      <trkpt lat="43.34349" lon="-1.52798">
        <ele>35</ele>
        <time>2026-08-23T12:08:38.000Z</time>
      </trkpt>
      <trkpt lat="43.34348" lon="-1.528">
        <ele>35</ele>
        <time>2026-08-23T12:08:39.000Z</time>
      </trkpt>
      <trkpt lat="43.34347" lon="-1.52801">
        <ele>35</ele>
        <time>2026-08-23T12:08:39.000Z</time>
      </trkpt>
      <trkpt lat="43.34346" lon="-1.52802">
        <ele>35</ele>
        <time>2026-08-23T12:08:39.000Z</time>
      </trkpt>
      <trkpt lat="43.34345" lon="-1.52803">
        <ele>35</ele>
        <time>2026-08-23T12:08:39.000Z</time>
      </trkpt>
      <trkpt lat="43.34343" lon="-1.52804">
        <ele>36</ele>
        <time>2026-08-23T12:08:40.000Z</time>
      </trkpt>
      <trkpt lat="43.34342" lon="-1.52805">
        <ele>36</ele>
        <time>2026-08-23T12:08:40.000Z</time>
      </trkpt>
      <trkpt lat="43.34341" lon="-1.52805">
        <ele>36</ele>
        <time>2026-08-23T12:08:40.000Z</time>
      </trkpt>
      <trkpt lat="43.34339" lon="-1.52806">
        <ele>36</ele>
        <time>2026-08-23T12:08:40.000Z</time>
      </trkpt>
      <trkpt lat="43.34338" lon="-1.52806">
        <ele>36</ele>
        <time>2026-08-23T12:08:41.000Z</time>
      </trkpt>
      <trkpt lat="43.34337" lon="-1.52806">
        <ele>36</ele>
        <time>2026-08-23T12:08:41.000Z</time>
      </trkpt>
      <trkpt lat="43.34335" lon="-1.52806">
        <ele>36</ele>
        <time>2026-08-23T12:08:41.000Z</time>
      </trkpt>
      <trkpt lat="43.34334" lon="-1.52806">
        <ele>36</ele>
        <time>2026-08-23T12:08:41.000Z</time>
      </trkpt>
      <trkpt lat="43.34333" lon="-1.52806">
        <ele>36</ele>
        <time>2026-08-23T12:08:41.000Z</time>
      </trkpt>
      <trkpt lat="43.34331" lon="-1.52805">
        <ele>36</ele>
        <time>2026-08-23T12:08:42.000Z</time>
      </trkpt>
      <trkpt lat="43.3433" lon="-1.52805">
        <ele>36</ele>
        <time>2026-08-23T12:08:42.000Z</time>
      </trkpt>
      <trkpt lat="43.34329" lon="-1.52804">
        <ele>36</ele>
        <time>2026-08-23T12:08:42.000Z</time>
      </trkpt>
      <trkpt lat="43.34327" lon="-1.52803">
        <ele>36</ele>
        <time>2026-08-23T12:08:43.000Z</time>
      </trkpt>
      <trkpt lat="43.34326" lon="-1.52802">
        <ele>36</ele>
        <time>2026-08-23T12:08:43.000Z</time>
      </trkpt>
      <trkpt lat="43.34325" lon="-1.52801">
        <ele>36</ele>
        <time>2026-08-23T12:08:43.000Z</time>
      </trkpt>
      <trkpt lat="43.34324" lon="-1.528">
        <ele>36</ele>
        <time>2026-08-23T12:08:43.000Z</time>
      </trkpt>
      <trkpt lat="43.34323" lon="-1.52798">
        <ele>36</ele>
        <time>2026-08-23T12:08:44.000Z</time>
      </trkpt>
      <trkpt lat="43.34322" lon="-1.52797">
        <ele>36</ele>
        <time>2026-08-23T12:08:44.000Z</time>
      </trkpt>
      <trkpt lat="43.34321" lon="-1.52795">
        <ele>36</ele>
        <time>2026-08-23T12:08:44.000Z</time>
      </trkpt>
      <trkpt lat="43.34321" lon="-1.52794">
        <ele>36</ele>
        <time>2026-08-23T12:08:44.000Z</time>
      </trkpt>
      <trkpt lat="43.3432" lon="-1.52792">
        <ele>36</ele>
        <time>2026-08-23T12:08:45.000Z</time>
      </trkpt>
      <trkpt lat="43.34319" lon="-1.5279">
        <ele>36</ele>
        <time>2026-08-23T12:08:45.000Z</time>
      </trkpt>
      <trkpt lat="43.34319" lon="-1.52788">
        <ele>36</ele>
        <time>2026-08-23T12:08:45.000Z</time>
      </trkpt>
      <trkpt lat="43.34319" lon="-1.52786">
        <ele>36</ele>
        <time>2026-08-23T12:08:45.000Z</time>
      </trkpt>
      <trkpt lat="43.34318" lon="-1.52784">
        <ele>36</ele>
        <time>2026-08-23T12:08:46.000Z</time>
      </trkpt>
      <trkpt lat="43.34318" lon="-1.52783">
        <ele>36</ele>
        <time>2026-08-23T12:08:46.000Z</time>
      </trkpt>
      <trkpt lat="43.34318" lon="-1.52781">
        <ele>36</ele>
        <time>2026-08-23T12:08:46.000Z</time>
      </trkpt>
      <trkpt lat="43.34318" lon="-1.52779">
        <ele>36</ele>
        <time>2026-08-23T12:08:46.000Z</time>
      </trkpt>
      <trkpt lat="43.34319" lon="-1.52777">
        <ele>36</ele>
        <time>2026-08-23T12:08:47.000Z</time>
      </trkpt>
      <trkpt lat="43.34319" lon="-1.52775">
        <ele>36</ele>
        <time>2026-08-23T12:08:47.000Z</time>
      </trkpt>
      <trkpt lat="43.3432" lon="-1.52773">
        <ele>36</ele>
        <time>2026-08-23T12:08:47.000Z</time>
      </trkpt>
      <trkpt lat="43.3432" lon="-1.52771">
        <ele>36</ele>
        <time>2026-08-23T12:08:47.000Z</time>
      </trkpt>
      <trkpt lat="43.34321" lon="-1.5277">
        <ele>36</ele>
        <time>2026-08-23T12:08:48.000Z</time>
      </trkpt>
      <trkpt lat="43.34321" lon="-1.52768">
        <ele>36</ele>
        <time>2026-08-23T12:08:48.000Z</time>
      </trkpt>
      <trkpt lat="43.34322" lon="-1.52767">
        <ele>36</ele>
        <time>2026-08-23T12:08:48.000Z</time>
      </trkpt>
      <trkpt lat="43.34323" lon="-1.52765">
        <ele>36</ele>
        <time>2026-08-23T12:08:48.000Z</time>
      </trkpt>
      <trkpt lat="43.34324" lon="-1.52764">
        <ele>36</ele>
        <time>2026-08-23T12:08:49.000Z</time>
      </trkpt>
      <trkpt lat="43.34325" lon="-1.52762">
        <ele>36</ele>
        <time>2026-08-23T12:08:49.000Z</time>
      </trkpt>
      <trkpt lat="43.34327" lon="-1.52761">
        <ele>35</ele>
        <time>2026-08-23T12:08:49.000Z</time>
      </trkpt>
      <trkpt lat="43.34319" lon="-1.52744">
        <ele>36</ele>
        <time>2026-08-23T12:08:52.000Z</time>
      </trkpt>
      <trkpt lat="43.34301" lon="-1.52712">
        <ele>39</ele>
        <time>2026-08-23T12:08:57.000Z</time>
      </trkpt>
      <trkpt lat="43.34276" lon="-1.52671">
        <ele>40</ele>
        <time>2026-08-23T12:09:04.000Z</time>
      </trkpt>
      <trkpt lat="43.34264" lon="-1.52653">
        <ele>40</ele>
        <time>2026-08-23T12:09:07.000Z</time>
      </trkpt>
      <trkpt lat="43.34182" lon="-1.52518">
        <ele>42</ele>
        <time>2026-08-23T12:09:30.000Z</time>
      </trkpt>
      <trkpt lat="43.34159" lon="-1.52479">
        <ele>41</ele>
        <time>2026-08-23T12:09:37.000Z</time>
      </trkpt>
      <trkpt lat="43.34147" lon="-1.52454">
        <ele>42</ele>
        <time>2026-08-23T12:09:40.000Z</time>
      </trkpt>
      <trkpt lat="43.3414" lon="-1.52441">
        <ele>42</ele>
        <time>2026-08-23T12:09:43.000Z</time>
      </trkpt>
      <trkpt lat="43.34133" lon="-1.52424">
        <ele>42</ele>
        <time>2026-08-23T12:09:45.000Z</time>
      </trkpt>
      <trkpt lat="43.34076" lon="-1.52288">
        <ele>42</ele>
        <time>2026-08-23T12:10:05.000Z</time>
      </trkpt>
      <trkpt lat="43.33993" lon="-1.52089">
        <ele>41</ele>
        <time>2026-08-23T12:10:35.000Z</time>
      </trkpt>
      <trkpt lat="43.33981" lon="-1.52058">
        <ele>41</ele>
        <time>2026-08-23T12:10:40.000Z</time>
      </trkpt>
      <trkpt lat="43.33969" lon="-1.52031">
        <ele>41</ele>
        <time>2026-08-23T12:10:44.000Z</time>
      </trkpt>
      <trkpt lat="43.33908" lon="-1.51887">
        <ele>44</ele>
        <time>2026-08-23T12:11:05.000Z</time>
      </trkpt>
      <trkpt lat="43.33835" lon="-1.5171">
        <ele>44</ele>
        <time>2026-08-23T12:11:32.000Z</time>
      </trkpt>
      <trkpt lat="43.3382" lon="-1.51674">
        <ele>45</ele>
        <time>2026-08-23T12:11:37.000Z</time>
      </trkpt>
      <trkpt lat="43.33772" lon="-1.51561">
        <ele>47</ele>
        <time>2026-08-23T12:11:54.000Z</time>
      </trkpt>
      <trkpt lat="43.33761" lon="-1.51533">
        <ele>47</ele>
        <time>2026-08-23T12:11:58.000Z</time>
      </trkpt>
      <trkpt lat="43.33756" lon="-1.51521">
        <ele>47</ele>
        <time>2026-08-23T12:12:00.000Z</time>
      </trkpt>
      <trkpt lat="43.33749" lon="-1.51502">
        <ele>47</ele>
        <time>2026-08-23T12:12:03.000Z</time>
      </trkpt>
      <trkpt lat="43.33748" lon="-1.51501">
        <ele>47</ele>
        <time>2026-08-23T12:12:03.000Z</time>
      </trkpt>
      <trkpt lat="43.33735" lon="-1.51459">
        <ele>48</ele>
        <time>2026-08-23T12:12:09.000Z</time>
      </trkpt>
      <trkpt lat="43.33715" lon="-1.51392">
        <ele>48</ele>
        <time>2026-08-23T12:12:18.000Z</time>
      </trkpt>
      <trkpt lat="43.33695" lon="-1.51327">
        <ele>49</ele>
        <time>2026-08-23T12:12:27.000Z</time>
      </trkpt>
      <trkpt lat="43.33678" lon="-1.51274">
        <ele>50</ele>
        <time>2026-08-23T12:12:35.000Z</time>
      </trkpt>
      <trkpt lat="43.33662" lon="-1.51222">
        <ele>50</ele>
        <time>2026-08-23T12:12:42.000Z</time>
      </trkpt>
      <trkpt lat="43.33657" lon="-1.51204">
        <ele>51</ele>
        <time>2026-08-23T12:12:44.000Z</time>
      </trkpt>
      <trkpt lat="43.33645" lon="-1.51166">
        <ele>52</ele>
        <time>2026-08-23T12:12:50.000Z</time>
      </trkpt>
      <trkpt lat="43.33638" lon="-1.51135">
        <ele>52</ele>
        <time>2026-08-23T12:12:54.000Z</time>
      </trkpt>
      <trkpt lat="43.33632" lon="-1.51108">
        <ele>53</ele>
        <time>2026-08-23T12:12:58.000Z</time>
      </trkpt>
      <trkpt lat="43.33628" lon="-1.51078">
        <ele>53</ele>
        <time>2026-08-23T12:13:02.000Z</time>
      </trkpt>
      <trkpt lat="43.33621" lon="-1.51021">
        <ele>54</ele>
        <time>2026-08-23T12:13:09.000Z</time>
      </trkpt>
      <trkpt lat="43.33615" lon="-1.50974">
        <ele>55</ele>
        <time>2026-08-23T12:13:15.000Z</time>
      </trkpt>
      <trkpt lat="43.33608" lon="-1.50926">
        <ele>57</ele>
        <time>2026-08-23T12:13:22.000Z</time>
      </trkpt>
      <trkpt lat="43.336" lon="-1.50856">
        <ele>59</ele>
        <time>2026-08-23T12:13:31.000Z</time>
      </trkpt>
      <trkpt lat="43.33596" lon="-1.50847">
        <ele>59</ele>
        <time>2026-08-23T12:13:32.000Z</time>
      </trkpt>
      <trkpt lat="43.33587" lon="-1.50777">
        <ele>60</ele>
        <time>2026-08-23T12:13:41.000Z</time>
      </trkpt>
      <trkpt lat="43.33584" lon="-1.50756">
        <ele>60</ele>
        <time>2026-08-23T12:13:44.000Z</time>
      </trkpt>
      <trkpt lat="43.33584" lon="-1.50744">
        <ele>61</ele>
        <time>2026-08-23T12:13:46.000Z</time>
      </trkpt>
      <trkpt lat="43.33584" lon="-1.50731">
        <ele>62</ele>
        <time>2026-08-23T12:13:47.000Z</time>
      </trkpt>
      <trkpt lat="43.33584" lon="-1.50716">
        <ele>64</ele>
        <time>2026-08-23T12:13:49.000Z</time>
      </trkpt>
      <trkpt lat="43.33585" lon="-1.50701">
        <ele>65</ele>
        <time>2026-08-23T12:13:51.000Z</time>
      </trkpt>
      <trkpt lat="43.33587" lon="-1.50686">
        <ele>67</ele>
        <time>2026-08-23T12:13:53.000Z</time>
      </trkpt>
      <trkpt lat="43.33589" lon="-1.5067">
        <ele>69</ele>
        <time>2026-08-23T12:13:55.000Z</time>
      </trkpt>
      <trkpt lat="43.33592" lon="-1.50664">
        <ele>69</ele>
        <time>2026-08-23T12:13:56.000Z</time>
      </trkpt>
      <trkpt lat="43.336" lon="-1.50627">
        <ele>73</ele>
        <time>2026-08-23T12:14:01.000Z</time>
      </trkpt>
      <trkpt lat="43.33605" lon="-1.506">
        <ele>75</ele>
        <time>2026-08-23T12:14:05.000Z</time>
      </trkpt>
      <trkpt lat="43.33607" lon="-1.50588">
        <ele>76</ele>
        <time>2026-08-23T12:14:06.000Z</time>
      </trkpt>
      <trkpt lat="43.33608" lon="-1.50575">
        <ele>76</ele>
        <time>2026-08-23T12:14:08.000Z</time>
      </trkpt>
      <trkpt lat="43.33609" lon="-1.50563">
        <ele>76</ele>
        <time>2026-08-23T12:14:10.000Z</time>
      </trkpt>
      <trkpt lat="43.33609" lon="-1.5055">
        <ele>76</ele>
        <time>2026-08-23T12:14:11.000Z</time>
      </trkpt>
      <trkpt lat="43.33607" lon="-1.50535">
        <ele>76</ele>
        <time>2026-08-23T12:14:13.000Z</time>
      </trkpt>
      <trkpt lat="43.33603" lon="-1.50513">
        <ele>77</ele>
        <time>2026-08-23T12:14:16.000Z</time>
      </trkpt>
      <trkpt lat="43.33601" lon="-1.50501">
        <ele>77</ele>
        <time>2026-08-23T12:14:18.000Z</time>
      </trkpt>
      <trkpt lat="43.33595" lon="-1.5048">
        <ele>77</ele>
        <time>2026-08-23T12:14:21.000Z</time>
      </trkpt>
      <trkpt lat="43.3359" lon="-1.50462">
        <ele>76</ele>
        <time>2026-08-23T12:14:23.000Z</time>
      </trkpt>
      <trkpt lat="43.33584" lon="-1.50442">
        <ele>75</ele>
        <time>2026-08-23T12:14:26.000Z</time>
      </trkpt>
      <trkpt lat="43.33576" lon="-1.50424">
        <ele>75</ele>
        <time>2026-08-23T12:14:29.000Z</time>
      </trkpt>
      <trkpt lat="43.3357" lon="-1.5041">
        <ele>75</ele>
        <time>2026-08-23T12:14:31.000Z</time>
      </trkpt>
      <trkpt lat="43.33563" lon="-1.50397">
        <ele>76</ele>
        <time>2026-08-23T12:14:33.000Z</time>
      </trkpt>
      <trkpt lat="43.33556" lon="-1.50386">
        <ele>76</ele>
        <time>2026-08-23T12:14:35.000Z</time>
      </trkpt>
      <trkpt lat="43.33545" lon="-1.50372">
        <ele>77</ele>
        <time>2026-08-23T12:14:38.000Z</time>
      </trkpt>
      <trkpt lat="43.33514" lon="-1.50333">
        <ele>75</ele>
        <time>2026-08-23T12:14:45.000Z</time>
      </trkpt>
      <trkpt lat="43.33504" lon="-1.5032">
        <ele>75</ele>
        <time>2026-08-23T12:14:48.000Z</time>
      </trkpt>
      <trkpt lat="43.33493" lon="-1.50305">
        <ele>75</ele>
        <time>2026-08-23T12:14:50.000Z</time>
      </trkpt>
      <trkpt lat="43.33482" lon="-1.50289">
        <ele>76</ele>
        <time>2026-08-23T12:14:53.000Z</time>
      </trkpt>
      <trkpt lat="43.33474" lon="-1.50275">
        <ele>76</ele>
        <time>2026-08-23T12:14:55.000Z</time>
      </trkpt>
      <trkpt lat="43.33468" lon="-1.50265">
        <ele>76</ele>
        <time>2026-08-23T12:14:57.000Z</time>
      </trkpt>
      <trkpt lat="43.33464" lon="-1.50255">
        <ele>77</ele>
        <time>2026-08-23T12:14:59.000Z</time>
      </trkpt>
      <trkpt lat="43.33454" lon="-1.50232">
        <ele>77</ele>
        <time>2026-08-23T12:15:02.000Z</time>
      </trkpt>
      <trkpt lat="43.33447" lon="-1.50212">
        <ele>77</ele>
        <time>2026-08-23T12:15:05.000Z</time>
      </trkpt>
      <trkpt lat="43.33437" lon="-1.50182">
        <ele>77</ele>
        <time>2026-08-23T12:15:09.000Z</time>
      </trkpt>
      <trkpt lat="43.33425" lon="-1.50147">
        <ele>77</ele>
        <time>2026-08-23T12:15:14.000Z</time>
      </trkpt>
      <trkpt lat="43.33409" lon="-1.501">
        <ele>78</ele>
        <time>2026-08-23T12:15:21.000Z</time>
      </trkpt>
      <trkpt lat="43.3339" lon="-1.50049">
        <ele>81</ele>
        <time>2026-08-23T12:15:28.000Z</time>
      </trkpt>
      <trkpt lat="43.33372" lon="-1.49994">
        <ele>82</ele>
        <time>2026-08-23T12:15:36.000Z</time>
      </trkpt>
      <trkpt lat="43.33346" lon="-1.49921">
        <ele>86</ele>
        <time>2026-08-23T12:15:47.000Z</time>
      </trkpt>
      <trkpt lat="43.33333" lon="-1.49884">
        <ele>88</ele>
        <time>2026-08-23T12:15:52.000Z</time>
      </trkpt>
      <trkpt lat="43.33325" lon="-1.49864">
        <ele>90</ele>
        <time>2026-08-23T12:15:55.000Z</time>
      </trkpt>
      <trkpt lat="43.33318" lon="-1.49838">
        <ele>92</ele>
        <time>2026-08-23T12:15:59.000Z</time>
      </trkpt>
      <trkpt lat="43.33316" lon="-1.49827">
        <ele>93</ele>
        <time>2026-08-23T12:16:00.000Z</time>
      </trkpt>
      <trkpt lat="43.33313" lon="-1.49812">
        <ele>93</ele>
        <time>2026-08-23T12:16:02.000Z</time>
      </trkpt>
      <trkpt lat="43.33311" lon="-1.49794">
        <ele>94</ele>
        <time>2026-08-23T12:16:04.000Z</time>
      </trkpt>
      <trkpt lat="43.3331" lon="-1.49773">
        <ele>94</ele>
        <time>2026-08-23T12:16:07.000Z</time>
      </trkpt>
      <trkpt lat="43.3331" lon="-1.49732">
        <ele>95</ele>
        <time>2026-08-23T12:16:12.000Z</time>
      </trkpt>
      <trkpt lat="43.33312" lon="-1.49701">
        <ele>96</ele>
        <time>2026-08-23T12:16:16.000Z</time>
      </trkpt>
      <trkpt lat="43.33315" lon="-1.49664">
        <ele>98</ele>
        <time>2026-08-23T12:16:21.000Z</time>
      </trkpt>
      <trkpt lat="43.33321" lon="-1.49618">
        <ele>101</ele>
        <time>2026-08-23T12:16:27.000Z</time>
      </trkpt>
      <trkpt lat="43.33327" lon="-1.49571">
        <ele>103</ele>
        <time>2026-08-23T12:16:33.000Z</time>
      </trkpt>
      <trkpt lat="43.33332" lon="-1.49533">
        <ele>104</ele>
        <time>2026-08-23T12:16:38.000Z</time>
      </trkpt>
      <trkpt lat="43.33334" lon="-1.49515">
        <ele>105</ele>
        <time>2026-08-23T12:16:41.000Z</time>
      </trkpt>
      <trkpt lat="43.33336" lon="-1.49499">
        <ele>106</ele>
        <time>2026-08-23T12:16:43.000Z</time>
      </trkpt>
      <trkpt lat="43.33336" lon="-1.49486">
        <ele>105</ele>
        <time>2026-08-23T12:16:45.000Z</time>
      </trkpt>
      <trkpt lat="43.33337" lon="-1.49469">
        <ele>105</ele>
        <time>2026-08-23T12:16:47.000Z</time>
      </trkpt>
      <trkpt lat="43.33337" lon="-1.49453">
        <ele>105</ele>
        <time>2026-08-23T12:16:49.000Z</time>
      </trkpt>
      <trkpt lat="43.33337" lon="-1.49439">
        <ele>104</ele>
        <time>2026-08-23T12:16:51.000Z</time>
      </trkpt>
      <trkpt lat="43.33337" lon="-1.49432">
        <ele>104</ele>
        <time>2026-08-23T12:16:52.000Z</time>
      </trkpt>
      <trkpt lat="43.33337" lon="-1.49424">
        <ele>104</ele>
        <time>2026-08-23T12:16:53.000Z</time>
      </trkpt>
      <trkpt lat="43.33337" lon="-1.49418">
        <ele>104</ele>
        <time>2026-08-23T12:16:53.000Z</time>
      </trkpt>
      <trkpt lat="43.33337" lon="-1.49405">
        <ele>104</ele>
        <time>2026-08-23T12:16:55.000Z</time>
      </trkpt>
      <trkpt lat="43.33336" lon="-1.49382">
        <ele>105</ele>
        <time>2026-08-23T12:16:58.000Z</time>
      </trkpt>
      <trkpt lat="43.33333" lon="-1.49346">
        <ele>106</ele>
        <time>2026-08-23T12:17:03.000Z</time>
      </trkpt>
      <trkpt lat="43.3333" lon="-1.49304">
        <ele>108</ele>
        <time>2026-08-23T12:17:08.000Z</time>
      </trkpt>
      <trkpt lat="43.33325" lon="-1.49228">
        <ele>111</ele>
        <time>2026-08-23T12:17:18.000Z</time>
      </trkpt>
      <trkpt lat="43.33321" lon="-1.49175">
        <ele>112</ele>
        <time>2026-08-23T12:17:25.000Z</time>
      </trkpt>
      <trkpt lat="43.33318" lon="-1.49134">
        <ele>115</ele>
        <time>2026-08-23T12:17:30.000Z</time>
      </trkpt>
      <trkpt lat="43.33317" lon="-1.49105">
        <ele>117</ele>
        <time>2026-08-23T12:17:34.000Z</time>
      </trkpt>
      <trkpt lat="43.33314" lon="-1.4907">
        <ele>119</ele>
        <time>2026-08-23T12:17:39.000Z</time>
      </trkpt>
      <trkpt lat="43.33312" lon="-1.49042">
        <ele>121</ele>
        <time>2026-08-23T12:17:42.000Z</time>
      </trkpt>
      <trkpt lat="43.33311" lon="-1.49031">
        <ele>121</ele>
        <time>2026-08-23T12:17:44.000Z</time>
      </trkpt>
      <trkpt lat="43.33309" lon="-1.49019">
        <ele>122</ele>
        <time>2026-08-23T12:17:45.000Z</time>
      </trkpt>
      <trkpt lat="43.33308" lon="-1.49013">
        <ele>122</ele>
        <time>2026-08-23T12:17:46.000Z</time>
      </trkpt>
      <trkpt lat="43.33306" lon="-1.49001">
        <ele>123</ele>
        <time>2026-08-23T12:17:48.000Z</time>
      </trkpt>
      <trkpt lat="43.33303" lon="-1.48988">
        <ele>124</ele>
        <time>2026-08-23T12:17:49.000Z</time>
      </trkpt>
      <trkpt lat="43.333" lon="-1.48979">
        <ele>124</ele>
        <time>2026-08-23T12:17:51.000Z</time>
      </trkpt>
      <trkpt lat="43.33295" lon="-1.48967">
        <ele>124</ele>
        <time>2026-08-23T12:17:53.000Z</time>
      </trkpt>
      <trkpt lat="43.33287" lon="-1.48949">
        <ele>124</ele>
        <time>2026-08-23T12:17:55.000Z</time>
      </trkpt>
      <trkpt lat="43.33287" lon="-1.48949">
        <ele>124</ele>
        <time>2026-08-23T12:17:55.000Z</time>
      </trkpt>
      <trkpt lat="43.33287" lon="-1.4895">
        <ele>124</ele>
        <time>2026-08-23T12:17:55.000Z</time>
      </trkpt>
      <trkpt lat="43.33286" lon="-1.4895">
        <ele>124</ele>
        <time>2026-08-23T12:17:56.000Z</time>
      </trkpt>
      <trkpt lat="43.33285" lon="-1.48951">
        <ele>124</ele>
        <time>2026-08-23T12:17:56.000Z</time>
      </trkpt>
      <trkpt lat="43.33284" lon="-1.48951">
        <ele>125</ele>
        <time>2026-08-23T12:17:56.000Z</time>
      </trkpt>
      <trkpt lat="43.33283" lon="-1.48951">
        <ele>125</ele>
        <time>2026-08-23T12:17:56.000Z</time>
      </trkpt>
      <trkpt lat="43.33282" lon="-1.48951">
        <ele>125</ele>
        <time>2026-08-23T12:17:56.000Z</time>
      </trkpt>
      <trkpt lat="43.33281" lon="-1.48951">
        <ele>125</ele>
        <time>2026-08-23T12:17:57.000Z</time>
      </trkpt>
      <trkpt lat="43.3328" lon="-1.48951">
        <ele>125</ele>
        <time>2026-08-23T12:17:57.000Z</time>
      </trkpt>
      <trkpt lat="43.33279" lon="-1.48951">
        <ele>125</ele>
        <time>2026-08-23T12:17:57.000Z</time>
      </trkpt>
      <trkpt lat="43.33279" lon="-1.4895">
        <ele>125</ele>
        <time>2026-08-23T12:17:57.000Z</time>
      </trkpt>
      <trkpt lat="43.33278" lon="-1.4895">
        <ele>125</ele>
        <time>2026-08-23T12:17:57.000Z</time>
      </trkpt>
      <trkpt lat="43.33277" lon="-1.4895">
        <ele>125</ele>
        <time>2026-08-23T12:17:57.000Z</time>
      </trkpt>
      <trkpt lat="43.33277" lon="-1.48949">
        <ele>125</ele>
        <time>2026-08-23T12:17:58.000Z</time>
      </trkpt>
      <trkpt lat="43.33276" lon="-1.48949">
        <ele>125</ele>
        <time>2026-08-23T12:17:58.000Z</time>
      </trkpt>
      <trkpt lat="43.33276" lon="-1.48948">
        <ele>125</ele>
        <time>2026-08-23T12:17:58.000Z</time>
      </trkpt>
      <trkpt lat="43.33275" lon="-1.48948">
        <ele>125</ele>
        <time>2026-08-23T12:17:58.000Z</time>
      </trkpt>
      <trkpt lat="43.33275" lon="-1.48947">
        <ele>125</ele>
        <time>2026-08-23T12:17:58.000Z</time>
      </trkpt>
      <trkpt lat="43.33274" lon="-1.48946">
        <ele>125</ele>
        <time>2026-08-23T12:17:58.000Z</time>
      </trkpt>
      <trkpt lat="43.33274" lon="-1.48945">
        <ele>125</ele>
        <time>2026-08-23T12:17:58.000Z</time>
      </trkpt>
      <trkpt lat="43.33273" lon="-1.48945">
        <ele>125</ele>
        <time>2026-08-23T12:17:59.000Z</time>
      </trkpt>
      <trkpt lat="43.33273" lon="-1.48944">
        <ele>125</ele>
        <time>2026-08-23T12:17:59.000Z</time>
      </trkpt>
      <trkpt lat="43.33273" lon="-1.48943">
        <ele>125</ele>
        <time>2026-08-23T12:17:59.000Z</time>
      </trkpt>
      <trkpt lat="43.33272" lon="-1.48942">
        <ele>125</ele>
        <time>2026-08-23T12:17:59.000Z</time>
      </trkpt>
      <trkpt lat="43.33272" lon="-1.48941">
        <ele>125</ele>
        <time>2026-08-23T12:17:59.000Z</time>
      </trkpt>
      <trkpt lat="43.33272" lon="-1.4894">
        <ele>125</ele>
        <time>2026-08-23T12:17:59.000Z</time>
      </trkpt>
      <trkpt lat="43.33272" lon="-1.48939">
        <ele>124</ele>
        <time>2026-08-23T12:18:00.000Z</time>
      </trkpt>
      <trkpt lat="43.33272" lon="-1.48938">
        <ele>124</ele>
        <time>2026-08-23T12:18:00.000Z</time>
      </trkpt>
      <trkpt lat="43.33272" lon="-1.48937">
        <ele>124</ele>
        <time>2026-08-23T12:18:00.000Z</time>
      </trkpt>
      <trkpt lat="43.33272" lon="-1.48936">
        <ele>124</ele>
        <time>2026-08-23T12:18:00.000Z</time>
      </trkpt>
      <trkpt lat="43.33272" lon="-1.48935">
        <ele>124</ele>
        <time>2026-08-23T12:18:00.000Z</time>
      </trkpt>
      <trkpt lat="43.33272" lon="-1.48934">
        <ele>124</ele>
        <time>2026-08-23T12:18:00.000Z</time>
      </trkpt>
      <trkpt lat="43.33272" lon="-1.48933">
        <ele>124</ele>
        <time>2026-08-23T12:18:00.000Z</time>
      </trkpt>
      <trkpt lat="43.33272" lon="-1.48932">
        <ele>124</ele>
        <time>2026-08-23T12:18:00.000Z</time>
      </trkpt>
      <trkpt lat="43.33272" lon="-1.48931">
        <ele>124</ele>
        <time>2026-08-23T12:18:01.000Z</time>
      </trkpt>
      <trkpt lat="43.33273" lon="-1.4893">
        <ele>124</ele>
        <time>2026-08-23T12:18:01.000Z</time>
      </trkpt>
      <trkpt lat="43.33273" lon="-1.48929">
        <ele>124</ele>
        <time>2026-08-23T12:18:01.000Z</time>
      </trkpt>
      <trkpt lat="43.33274" lon="-1.48928">
        <ele>124</ele>
        <time>2026-08-23T12:18:01.000Z</time>
      </trkpt>
      <trkpt lat="43.33274" lon="-1.48927">
        <ele>124</ele>
        <time>2026-08-23T12:18:01.000Z</time>
      </trkpt>
      <trkpt lat="43.33275" lon="-1.48926">
        <ele>124</ele>
        <time>2026-08-23T12:18:01.000Z</time>
      </trkpt>
      <trkpt lat="43.33276" lon="-1.48925">
        <ele>123</ele>
        <time>2026-08-23T12:18:02.000Z</time>
      </trkpt>
      <trkpt lat="43.33276" lon="-1.48924">
        <ele>123</ele>
        <time>2026-08-23T12:18:02.000Z</time>
      </trkpt>
      <trkpt lat="43.33277" lon="-1.48924">
        <ele>123</ele>
        <time>2026-08-23T12:18:02.000Z</time>
      </trkpt>
      <trkpt lat="43.33278" lon="-1.48923">
        <ele>123</ele>
        <time>2026-08-23T12:18:02.000Z</time>
      </trkpt>
      <trkpt lat="43.33279" lon="-1.48923">
        <ele>123</ele>
        <time>2026-08-23T12:18:02.000Z</time>
      </trkpt>
      <trkpt lat="43.3328" lon="-1.48922">
        <ele>123</ele>
        <time>2026-08-23T12:18:03.000Z</time>
      </trkpt>
      <trkpt lat="43.33281" lon="-1.48922">
        <ele>123</ele>
        <time>2026-08-23T12:18:03.000Z</time>
      </trkpt>
      <trkpt lat="43.33282" lon="-1.48922">
        <ele>123</ele>
        <time>2026-08-23T12:18:03.000Z</time>
      </trkpt>
      <trkpt lat="43.33283" lon="-1.48922">
        <ele>123</ele>
        <time>2026-08-23T12:18:03.000Z</time>
      </trkpt>
      <trkpt lat="43.33283" lon="-1.48914">
        <ele>123</ele>
        <time>2026-08-23T12:18:04.000Z</time>
      </trkpt>
      <trkpt lat="43.33283" lon="-1.48903">
        <ele>123</ele>
        <time>2026-08-23T12:18:06.000Z</time>
      </trkpt>
      <trkpt lat="43.33284" lon="-1.48874">
        <ele>122</ele>
        <time>2026-08-23T12:18:09.000Z</time>
      </trkpt>
      <trkpt lat="43.33286" lon="-1.48865">
        <ele>122</ele>
        <time>2026-08-23T12:18:11.000Z</time>
      </trkpt>
      <trkpt lat="43.33287" lon="-1.48855">
        <ele>122</ele>
        <time>2026-08-23T12:18:12.000Z</time>
      </trkpt>
      <trkpt lat="43.3329" lon="-1.48846">
        <ele>122</ele>
        <time>2026-08-23T12:18:13.000Z</time>
      </trkpt>
      <trkpt lat="43.33291" lon="-1.4884">
        <ele>122</ele>
        <time>2026-08-23T12:18:14.000Z</time>
      </trkpt>
      <trkpt lat="43.33296" lon="-1.48827">
        <ele>121</ele>
        <time>2026-08-23T12:18:16.000Z</time>
      </trkpt>
      <trkpt lat="43.33302" lon="-1.48811">
        <ele>121</ele>
        <time>2026-08-23T12:18:18.000Z</time>
      </trkpt>
      <trkpt lat="43.33307" lon="-1.488">
        <ele>120</ele>
        <time>2026-08-23T12:18:20.000Z</time>
      </trkpt>
      <trkpt lat="43.33315" lon="-1.48785">
        <ele>120</ele>
        <time>2026-08-23T12:18:22.000Z</time>
      </trkpt>
      <trkpt lat="43.33322" lon="-1.48773">
        <ele>119</ele>
        <time>2026-08-23T12:18:24.000Z</time>
      </trkpt>
      <trkpt lat="43.3333" lon="-1.48757">
        <ele>118</ele>
        <time>2026-08-23T12:18:27.000Z</time>
      </trkpt>
      <trkpt lat="43.33337" lon="-1.48747">
        <ele>118</ele>
        <time>2026-08-23T12:18:29.000Z</time>
      </trkpt>
      <trkpt lat="43.33343" lon="-1.48738">
        <ele>117</ele>
        <time>2026-08-23T12:18:30.000Z</time>
      </trkpt>
      <trkpt lat="43.3335" lon="-1.48728">
        <ele>116</ele>
        <time>2026-08-23T12:18:32.000Z</time>
      </trkpt>
      <trkpt lat="43.33356" lon="-1.48721">
        <ele>115</ele>
        <time>2026-08-23T12:18:33.000Z</time>
      </trkpt>
      <trkpt lat="43.33362" lon="-1.48714">
        <ele>114</ele>
        <time>2026-08-23T12:18:35.000Z</time>
      </trkpt>
      <trkpt lat="43.33376" lon="-1.48698">
        <ele>113</ele>
        <time>2026-08-23T12:18:38.000Z</time>
      </trkpt>
      <trkpt lat="43.33385" lon="-1.48689">
        <ele>112</ele>
        <time>2026-08-23T12:18:40.000Z</time>
      </trkpt>
      <trkpt lat="43.33395" lon="-1.4868">
        <ele>111</ele>
        <time>2026-08-23T12:18:42.000Z</time>
      </trkpt>
      <trkpt lat="43.33402" lon="-1.4867">
        <ele>111</ele>
        <time>2026-08-23T12:18:44.000Z</time>
      </trkpt>
      <trkpt lat="43.33411" lon="-1.48658">
        <ele>110</ele>
        <time>2026-08-23T12:18:46.000Z</time>
      </trkpt>
      <trkpt lat="43.33417" lon="-1.48648">
        <ele>110</ele>
        <time>2026-08-23T12:18:48.000Z</time>
      </trkpt>
      <trkpt lat="43.33423" lon="-1.48636">
        <ele>110</ele>
        <time>2026-08-23T12:18:50.000Z</time>
      </trkpt>
      <trkpt lat="43.33428" lon="-1.48623">
        <ele>111</ele>
        <time>2026-08-23T12:18:52.000Z</time>
      </trkpt>
      <trkpt lat="43.33432" lon="-1.48611">
        <ele>111</ele>
        <time>2026-08-23T12:18:53.000Z</time>
      </trkpt>
      <trkpt lat="43.33437" lon="-1.48596">
        <ele>111</ele>
        <time>2026-08-23T12:18:55.000Z</time>
      </trkpt>
      <trkpt lat="43.3344" lon="-1.48583">
        <ele>111</ele>
        <time>2026-08-23T12:18:57.000Z</time>
      </trkpt>
      <trkpt lat="43.33442" lon="-1.48569">
        <ele>110</ele>
        <time>2026-08-23T12:18:59.000Z</time>
      </trkpt>
      <trkpt lat="43.33446" lon="-1.48533">
        <ele>108</ele>
        <time>2026-08-23T12:19:04.000Z</time>
      </trkpt>
      <trkpt lat="43.3345" lon="-1.48513">
        <ele>108</ele>
        <time>2026-08-23T12:19:06.000Z</time>
      </trkpt>
      <trkpt lat="43.33454" lon="-1.48494">
        <ele>107</ele>
        <time>2026-08-23T12:19:09.000Z</time>
      </trkpt>
      <trkpt lat="43.33457" lon="-1.48481">
        <ele>106</ele>
        <time>2026-08-23T12:19:11.000Z</time>
      </trkpt>
      <trkpt lat="43.33461" lon="-1.48469">
        <ele>105</ele>
        <time>2026-08-23T12:19:12.000Z</time>
      </trkpt>
      <trkpt lat="43.33466" lon="-1.48456">
        <ele>105</ele>
        <time>2026-08-23T12:19:14.000Z</time>
      </trkpt>
      <trkpt lat="43.3347" lon="-1.48444">
        <ele>104</ele>
        <time>2026-08-23T12:19:16.000Z</time>
      </trkpt>
      <trkpt lat="43.33475" lon="-1.48432">
        <ele>103</ele>
        <time>2026-08-23T12:19:18.000Z</time>
      </trkpt>
      <trkpt lat="43.33482" lon="-1.4842">
        <ele>103</ele>
        <time>2026-08-23T12:19:20.000Z</time>
      </trkpt>
      <trkpt lat="43.33488" lon="-1.48406">
        <ele>102</ele>
        <time>2026-08-23T12:19:22.000Z</time>
      </trkpt>
      <trkpt lat="43.33497" lon="-1.48391">
        <ele>101</ele>
        <time>2026-08-23T12:19:24.000Z</time>
      </trkpt>
      <trkpt lat="43.33505" lon="-1.48376">
        <ele>100</ele>
        <time>2026-08-23T12:19:27.000Z</time>
      </trkpt>
      <trkpt lat="43.33516" lon="-1.48356">
        <ele>99</ele>
        <time>2026-08-23T12:19:30.000Z</time>
      </trkpt>
      <trkpt lat="43.33529" lon="-1.48335">
        <ele>99</ele>
        <time>2026-08-23T12:19:34.000Z</time>
      </trkpt>
      <trkpt lat="43.33537" lon="-1.48321">
        <ele>99</ele>
        <time>2026-08-23T12:19:36.000Z</time>
      </trkpt>
      <trkpt lat="43.33544" lon="-1.48305">
        <ele>99</ele>
        <time>2026-08-23T12:19:38.000Z</time>
      </trkpt>
      <trkpt lat="43.33554" lon="-1.48281">
        <ele>98</ele>
        <time>2026-08-23T12:19:42.000Z</time>
      </trkpt>
      <trkpt lat="43.33557" lon="-1.48272">
        <ele>98</ele>
        <time>2026-08-23T12:19:43.000Z</time>
      </trkpt>
      <trkpt lat="43.33561" lon="-1.48261">
        <ele>97</ele>
        <time>2026-08-23T12:19:45.000Z</time>
      </trkpt>
      <trkpt lat="43.33564" lon="-1.4825">
        <ele>97</ele>
        <time>2026-08-23T12:19:46.000Z</time>
      </trkpt>
      <trkpt lat="43.33568" lon="-1.48235">
        <ele>96</ele>
        <time>2026-08-23T12:19:48.000Z</time>
      </trkpt>
      <trkpt lat="43.33571" lon="-1.48215">
        <ele>95</ele>
        <time>2026-08-23T12:19:51.000Z</time>
      </trkpt>
      <trkpt lat="43.33574" lon="-1.48197">
        <ele>94</ele>
        <time>2026-08-23T12:19:53.000Z</time>
      </trkpt>
      <trkpt lat="43.33577" lon="-1.4818">
        <ele>93</ele>
        <time>2026-08-23T12:19:56.000Z</time>
      </trkpt>
      <trkpt lat="43.33581" lon="-1.48154">
        <ele>92</ele>
        <time>2026-08-23T12:19:59.000Z</time>
      </trkpt>
      <trkpt lat="43.33583" lon="-1.48136">
        <ele>91</ele>
        <time>2026-08-23T12:20:02.000Z</time>
      </trkpt>
      <trkpt lat="43.33593" lon="-1.48064">
        <ele>87</ele>
        <time>2026-08-23T12:20:11.000Z</time>
      </trkpt>
      <trkpt lat="43.33601" lon="-1.47995">
        <ele>84</ele>
        <time>2026-08-23T12:20:20.000Z</time>
      </trkpt>
      <trkpt lat="43.33612" lon="-1.47909">
        <ele>79</ele>
        <time>2026-08-23T12:20:31.000Z</time>
      </trkpt>
      <trkpt lat="43.3362" lon="-1.47851">
        <ele>76</ele>
        <time>2026-08-23T12:20:39.000Z</time>
      </trkpt>
      <trkpt lat="43.33623" lon="-1.47834">
        <ele>75</ele>
        <time>2026-08-23T12:20:41.000Z</time>
      </trkpt>
      <trkpt lat="43.33627" lon="-1.47815">
        <ele>74</ele>
        <time>2026-08-23T12:20:44.000Z</time>
      </trkpt>
      <trkpt lat="43.3363" lon="-1.47805">
        <ele>74</ele>
        <time>2026-08-23T12:20:45.000Z</time>
      </trkpt>
      <trkpt lat="43.33633" lon="-1.47797">
        <ele>73</ele>
        <time>2026-08-23T12:20:46.000Z</time>
      </trkpt>
      <trkpt lat="43.33639" lon="-1.47786">
        <ele>73</ele>
        <time>2026-08-23T12:20:48.000Z</time>
      </trkpt>
      <trkpt lat="43.33644" lon="-1.47776">
        <ele>72</ele>
        <time>2026-08-23T12:20:50.000Z</time>
      </trkpt>
      <trkpt lat="43.33649" lon="-1.47768">
        <ele>72</ele>
        <time>2026-08-23T12:20:51.000Z</time>
      </trkpt>
      <trkpt lat="43.33655" lon="-1.4776">
        <ele>72</ele>
        <time>2026-08-23T12:20:53.000Z</time>
      </trkpt>
      <trkpt lat="43.33663" lon="-1.47753">
        <ele>71</ele>
        <time>2026-08-23T12:20:54.000Z</time>
      </trkpt>
      <trkpt lat="43.33671" lon="-1.47745">
        <ele>71</ele>
        <time>2026-08-23T12:20:56.000Z</time>
      </trkpt>
      <trkpt lat="43.33678" lon="-1.47739">
        <ele>70</ele>
        <time>2026-08-23T12:20:58.000Z</time>
      </trkpt>
      <trkpt lat="43.33685" lon="-1.47736">
        <ele>70</ele>
        <time>2026-08-23T12:20:59.000Z</time>
      </trkpt>
      <trkpt lat="43.33693" lon="-1.47732">
        <ele>70</ele>
        <time>2026-08-23T12:21:00.000Z</time>
      </trkpt>
      <trkpt lat="43.33701" lon="-1.47729">
        <ele>69</ele>
        <time>2026-08-23T12:21:02.000Z</time>
      </trkpt>
      <trkpt lat="43.33708" lon="-1.47728">
        <ele>69</ele>
        <time>2026-08-23T12:21:03.000Z</time>
      </trkpt>
      <trkpt lat="43.33716" lon="-1.47726">
        <ele>69</ele>
        <time>2026-08-23T12:21:05.000Z</time>
      </trkpt>
      <trkpt lat="43.33726" lon="-1.47726">
        <ele>68</ele>
        <time>2026-08-23T12:21:06.000Z</time>
      </trkpt>
      <trkpt lat="43.33736" lon="-1.47727">
        <ele>68</ele>
        <time>2026-08-23T12:21:08.000Z</time>
      </trkpt>
      <trkpt lat="43.33745" lon="-1.47729">
        <ele>67</ele>
        <time>2026-08-23T12:21:10.000Z</time>
      </trkpt>
      <trkpt lat="43.33765" lon="-1.47734">
        <ele>67</ele>
        <time>2026-08-23T12:21:13.000Z</time>
      </trkpt>
      <trkpt lat="43.33797" lon="-1.47743">
        <ele>66</ele>
        <time>2026-08-23T12:21:19.000Z</time>
      </trkpt>
      <trkpt lat="43.33819" lon="-1.47749">
        <ele>65</ele>
        <time>2026-08-23T12:21:23.000Z</time>
      </trkpt>
      <trkpt lat="43.33826" lon="-1.47751">
        <ele>65</ele>
        <time>2026-08-23T12:21:24.000Z</time>
      </trkpt>
      <trkpt lat="43.33835" lon="-1.47753">
        <ele>65</ele>
        <time>2026-08-23T12:21:26.000Z</time>
      </trkpt>
      <trkpt lat="43.33846" lon="-1.47754">
        <ele>65</ele>
        <time>2026-08-23T12:21:28.000Z</time>
      </trkpt>
      <trkpt lat="43.33857" lon="-1.47754">
        <ele>65</ele>
        <time>2026-08-23T12:21:30.000Z</time>
      </trkpt>
      <trkpt lat="43.33869" lon="-1.47754">
        <ele>65</ele>
        <time>2026-08-23T12:21:32.000Z</time>
      </trkpt>
      <trkpt lat="43.33875" lon="-1.47754">
        <ele>65</ele>
        <time>2026-08-23T12:21:33.000Z</time>
      </trkpt>
      <trkpt lat="43.33882" lon="-1.47753">
        <ele>65</ele>
        <time>2026-08-23T12:21:34.000Z</time>
      </trkpt>
      <trkpt lat="43.33889" lon="-1.47752">
        <ele>65</ele>
        <time>2026-08-23T12:21:36.000Z</time>
      </trkpt>
      <trkpt lat="43.33899" lon="-1.4775">
        <ele>65</ele>
        <time>2026-08-23T12:21:37.000Z</time>
      </trkpt>
      <trkpt lat="43.33912" lon="-1.47744">
        <ele>65</ele>
        <time>2026-08-23T12:21:40.000Z</time>
      </trkpt>
      <trkpt lat="43.3392" lon="-1.4774">
        <ele>65</ele>
        <time>2026-08-23T12:21:41.000Z</time>
      </trkpt>
      <trkpt lat="43.33928" lon="-1.47735">
        <ele>66</ele>
        <time>2026-08-23T12:21:43.000Z</time>
      </trkpt>
      <trkpt lat="43.33942" lon="-1.47726">
        <ele>67</ele>
        <time>2026-08-23T12:21:46.000Z</time>
      </trkpt>
      <trkpt lat="43.33955" lon="-1.47715">
        <ele>67</ele>
        <time>2026-08-23T12:21:48.000Z</time>
      </trkpt>
      <trkpt lat="43.33967" lon="-1.47703">
        <ele>68</ele>
        <time>2026-08-23T12:21:51.000Z</time>
      </trkpt>
      <trkpt lat="43.33979" lon="-1.4769">
        <ele>68</ele>
        <time>2026-08-23T12:21:54.000Z</time>
      </trkpt>
      <trkpt lat="43.33992" lon="-1.47675">
        <ele>67</ele>
        <time>2026-08-23T12:21:57.000Z</time>
      </trkpt>
      <trkpt lat="43.34004" lon="-1.47659">
        <ele>67</ele>
        <time>2026-08-23T12:22:00.000Z</time>
      </trkpt>
      <trkpt lat="43.34008" lon="-1.47648">
        <ele>67</ele>
        <time>2026-08-23T12:22:01.000Z</time>
      </trkpt>
      <trkpt lat="43.3402" lon="-1.47632">
        <ele>68</ele>
        <time>2026-08-23T12:22:04.000Z</time>
      </trkpt>
      <trkpt lat="43.34029" lon="-1.47618">
        <ele>68</ele>
        <time>2026-08-23T12:22:07.000Z</time>
      </trkpt>
      <trkpt lat="43.34038" lon="-1.47604">
        <ele>68</ele>
        <time>2026-08-23T12:22:09.000Z</time>
      </trkpt>
      <trkpt lat="43.34054" lon="-1.47577">
        <ele>68</ele>
        <time>2026-08-23T12:22:14.000Z</time>
      </trkpt>
      <trkpt lat="43.34058" lon="-1.47569">
        <ele>68</ele>
        <time>2026-08-23T12:22:15.000Z</time>
      </trkpt>
      <trkpt lat="43.34062" lon="-1.47563">
        <ele>68</ele>
        <time>2026-08-23T12:22:16.000Z</time>
      </trkpt>
      <trkpt lat="43.34067" lon="-1.47554">
        <ele>67</ele>
        <time>2026-08-23T12:22:17.000Z</time>
      </trkpt>
      <trkpt lat="43.34069" lon="-1.47549">
        <ele>67</ele>
        <time>2026-08-23T12:22:18.000Z</time>
      </trkpt>
      <trkpt lat="43.34073" lon="-1.47538">
        <ele>66</ele>
        <time>2026-08-23T12:22:20.000Z</time>
      </trkpt>
      <trkpt lat="43.34073" lon="-1.47538">
        <ele>66</ele>
        <time>2026-08-23T12:22:20.000Z</time>
      </trkpt>
      <trkpt lat="43.34072" lon="-1.47537">
        <ele>66</ele>
        <time>2026-08-23T12:22:20.000Z</time>
      </trkpt>
      <trkpt lat="43.34072" lon="-1.47536">
        <ele>66</ele>
        <time>2026-08-23T12:22:20.000Z</time>
      </trkpt>
      <trkpt lat="43.34072" lon="-1.47535">
        <ele>66</ele>
        <time>2026-08-23T12:22:20.000Z</time>
      </trkpt>
      <trkpt lat="43.34072" lon="-1.47534">
        <ele>66</ele>
        <time>2026-08-23T12:22:20.000Z</time>
      </trkpt>
      <trkpt lat="43.34071" lon="-1.47533">
        <ele>66</ele>
        <time>2026-08-23T12:22:21.000Z</time>
      </trkpt>
      <trkpt lat="43.34071" lon="-1.47532">
        <ele>66</ele>
        <time>2026-08-23T12:22:21.000Z</time>
      </trkpt>
      <trkpt lat="43.34071" lon="-1.47531">
        <ele>66</ele>
        <time>2026-08-23T12:22:21.000Z</time>
      </trkpt>
      <trkpt lat="43.34071" lon="-1.4753">
        <ele>66</ele>
        <time>2026-08-23T12:22:21.000Z</time>
      </trkpt>
      <trkpt lat="43.34071" lon="-1.47529">
        <ele>66</ele>
        <time>2026-08-23T12:22:21.000Z</time>
      </trkpt>
      <trkpt lat="43.34071" lon="-1.47528">
        <ele>66</ele>
        <time>2026-08-23T12:22:21.000Z</time>
      </trkpt>
      <trkpt lat="43.34072" lon="-1.47527">
        <ele>66</ele>
        <time>2026-08-23T12:22:22.000Z</time>
      </trkpt>
      <trkpt lat="43.34072" lon="-1.47526">
        <ele>66</ele>
        <time>2026-08-23T12:22:22.000Z</time>
      </trkpt>
      <trkpt lat="43.34072" lon="-1.47525">
        <ele>66</ele>
        <time>2026-08-23T12:22:22.000Z</time>
      </trkpt>
      <trkpt lat="43.34072" lon="-1.47524">
        <ele>66</ele>
        <time>2026-08-23T12:22:22.000Z</time>
      </trkpt>
      <trkpt lat="43.34073" lon="-1.47524">
        <ele>65</ele>
        <time>2026-08-23T12:22:22.000Z</time>
      </trkpt>
      <trkpt lat="43.34073" lon="-1.47523">
        <ele>65</ele>
        <time>2026-08-23T12:22:22.000Z</time>
      </trkpt>
      <trkpt lat="43.34073" lon="-1.47522">
        <ele>65</ele>
        <time>2026-08-23T12:22:22.000Z</time>
      </trkpt>
      <trkpt lat="43.34074" lon="-1.47522">
        <ele>65</ele>
        <time>2026-08-23T12:22:23.000Z</time>
      </trkpt>
      <trkpt lat="43.34074" lon="-1.47521">
        <ele>65</ele>
        <time>2026-08-23T12:22:23.000Z</time>
      </trkpt>
      <trkpt lat="43.34075" lon="-1.4752">
        <ele>65</ele>
        <time>2026-08-23T12:22:23.000Z</time>
      </trkpt>
      <trkpt lat="43.34076" lon="-1.47519">
        <ele>65</ele>
        <time>2026-08-23T12:22:23.000Z</time>
      </trkpt>
      <trkpt lat="43.34077" lon="-1.47518">
        <ele>65</ele>
        <time>2026-08-23T12:22:23.000Z</time>
      </trkpt>
      <trkpt lat="43.34078" lon="-1.47518">
        <ele>65</ele>
        <time>2026-08-23T12:22:23.000Z</time>
      </trkpt>
      <trkpt lat="43.34079" lon="-1.47517">
        <ele>65</ele>
        <time>2026-08-23T12:22:24.000Z</time>
      </trkpt>
      <trkpt lat="43.34082" lon="-1.47503">
        <ele>63</ele>
        <time>2026-08-23T12:22:26.000Z</time>
      </trkpt>
      <trkpt lat="43.34085" lon="-1.47486">
        <ele>63</ele>
        <time>2026-08-23T12:22:28.000Z</time>
      </trkpt>
      <trkpt lat="43.34086" lon="-1.47473">
        <ele>64</ele>
        <time>2026-08-23T12:22:30.000Z</time>
      </trkpt>
      <trkpt lat="43.34086" lon="-1.4746">
        <ele>64</ele>
        <time>2026-08-23T12:22:31.000Z</time>
      </trkpt>
      <trkpt lat="43.34086" lon="-1.4745">
        <ele>64</ele>
        <time>2026-08-23T12:22:33.000Z</time>
      </trkpt>
      <trkpt lat="43.34084" lon="-1.47429">
        <ele>65</ele>
        <time>2026-08-23T12:22:35.000Z</time>
      </trkpt>
      <trkpt lat="43.34084" lon="-1.47417">
        <ele>65</ele>
        <time>2026-08-23T12:22:37.000Z</time>
      </trkpt>
      <trkpt lat="43.34082" lon="-1.47404">
        <ele>65</ele>
        <time>2026-08-23T12:22:39.000Z</time>
      </trkpt>
      <trkpt lat="43.34078" lon="-1.47373">
        <ele>66</ele>
        <time>2026-08-23T12:22:43.000Z</time>
      </trkpt>
      <trkpt lat="43.34075" lon="-1.47354">
        <ele>66</ele>
        <time>2026-08-23T12:22:45.000Z</time>
      </trkpt>
      <trkpt lat="43.34074" lon="-1.47343">
        <ele>66</ele>
        <time>2026-08-23T12:22:47.000Z</time>
      </trkpt>
      <trkpt lat="43.34073" lon="-1.47332">
        <ele>67</ele>
        <time>2026-08-23T12:22:48.000Z</time>
      </trkpt>
      <trkpt lat="43.34073" lon="-1.47321">
        <ele>66</ele>
        <time>2026-08-23T12:22:49.000Z</time>
      </trkpt>
      <trkpt lat="43.34073" lon="-1.47309">
        <ele>66</ele>
        <time>2026-08-23T12:22:51.000Z</time>
      </trkpt>
      <trkpt lat="43.34074" lon="-1.47297">
        <ele>65</ele>
        <time>2026-08-23T12:22:53.000Z</time>
      </trkpt>
      <trkpt lat="43.34074" lon="-1.47297">
        <ele>65</ele>
        <time>2026-08-23T12:22:53.000Z</time>
      </trkpt>
      <trkpt lat="43.34073" lon="-1.47297">
        <ele>65</ele>
        <time>2026-08-23T12:22:53.000Z</time>
      </trkpt>
      <trkpt lat="43.34073" lon="-1.47296">
        <ele>65</ele>
        <time>2026-08-23T12:22:53.000Z</time>
      </trkpt>
      <trkpt lat="43.34072" lon="-1.47296">
        <ele>65</ele>
        <time>2026-08-23T12:22:53.000Z</time>
      </trkpt>
      <trkpt lat="43.34071" lon="-1.47295">
        <ele>65</ele>
        <time>2026-08-23T12:22:53.000Z</time>
      </trkpt>
      <trkpt lat="43.3407" lon="-1.47294">
        <ele>65</ele>
        <time>2026-08-23T12:22:53.000Z</time>
      </trkpt>
      <trkpt lat="43.34069" lon="-1.47294">
        <ele>66</ele>
        <time>2026-08-23T12:22:54.000Z</time>
      </trkpt>
      <trkpt lat="43.34069" lon="-1.47293">
        <ele>65</ele>
        <time>2026-08-23T12:22:54.000Z</time>
      </trkpt>
      <trkpt lat="43.34068" lon="-1.47292">
        <ele>66</ele>
        <time>2026-08-23T12:22:54.000Z</time>
      </trkpt>
      <trkpt lat="43.34068" lon="-1.47291">
        <ele>66</ele>
        <time>2026-08-23T12:22:54.000Z</time>
      </trkpt>
      <trkpt lat="43.34067" lon="-1.47291">
        <ele>66</ele>
        <time>2026-08-23T12:22:54.000Z</time>
      </trkpt>
      <trkpt lat="43.34067" lon="-1.4729">
        <ele>66</ele>
        <time>2026-08-23T12:22:54.000Z</time>
      </trkpt>
      <trkpt lat="43.34067" lon="-1.47289">
        <ele>66</ele>
        <time>2026-08-23T12:22:55.000Z</time>
      </trkpt>
      <trkpt lat="43.34066" lon="-1.47288">
        <ele>66</ele>
        <time>2026-08-23T12:22:55.000Z</time>
      </trkpt>
      <trkpt lat="43.34066" lon="-1.47287">
        <ele>66</ele>
        <time>2026-08-23T12:22:55.000Z</time>
      </trkpt>
      <trkpt lat="43.34066" lon="-1.47286">
        <ele>66</ele>
        <time>2026-08-23T12:22:55.000Z</time>
      </trkpt>
      <trkpt lat="43.34065" lon="-1.47285">
        <ele>66</ele>
        <time>2026-08-23T12:22:55.000Z</time>
      </trkpt>
      <trkpt lat="43.34065" lon="-1.47284">
        <ele>66</ele>
        <time>2026-08-23T12:22:55.000Z</time>
      </trkpt>
      <trkpt lat="43.34065" lon="-1.47283">
        <ele>66</ele>
        <time>2026-08-23T12:22:56.000Z</time>
      </trkpt>
      <trkpt lat="43.34065" lon="-1.47282">
        <ele>66</ele>
        <time>2026-08-23T12:22:56.000Z</time>
      </trkpt>
      <trkpt lat="43.34065" lon="-1.47281">
        <ele>66</ele>
        <time>2026-08-23T12:22:56.000Z</time>
      </trkpt>
      <trkpt lat="43.34065" lon="-1.4728">
        <ele>66</ele>
        <time>2026-08-23T12:22:56.000Z</time>
      </trkpt>
      <trkpt lat="43.34065" lon="-1.47279">
        <ele>66</ele>
        <time>2026-08-23T12:22:56.000Z</time>
      </trkpt>
      <trkpt lat="43.34065" lon="-1.47278">
        <ele>65</ele>
        <time>2026-08-23T12:22:56.000Z</time>
      </trkpt>
      <trkpt lat="43.34065" lon="-1.47277">
        <ele>65</ele>
        <time>2026-08-23T12:22:56.000Z</time>
      </trkpt>
      <trkpt lat="43.34065" lon="-1.47276">
        <ele>65</ele>
        <time>2026-08-23T12:22:56.000Z</time>
      </trkpt>
      <trkpt lat="43.34065" lon="-1.47275">
        <ele>65</ele>
        <time>2026-08-23T12:22:57.000Z</time>
      </trkpt>
      <trkpt lat="43.34066" lon="-1.47274">
        <ele>65</ele>
        <time>2026-08-23T12:22:57.000Z</time>
      </trkpt>
      <trkpt lat="43.34066" lon="-1.47273">
        <ele>65</ele>
        <time>2026-08-23T12:22:57.000Z</time>
      </trkpt>
      <trkpt lat="43.34066" lon="-1.47272">
        <ele>65</ele>
        <time>2026-08-23T12:22:57.000Z</time>
      </trkpt>
      <trkpt lat="43.34067" lon="-1.47271">
        <ele>65</ele>
        <time>2026-08-23T12:22:57.000Z</time>
      </trkpt>
      <trkpt lat="43.34067" lon="-1.4727">
        <ele>65</ele>
        <time>2026-08-23T12:22:57.000Z</time>
      </trkpt>
      <trkpt lat="43.34068" lon="-1.47269">
        <ele>65</ele>
        <time>2026-08-23T12:22:58.000Z</time>
      </trkpt>
      <trkpt lat="43.34068" lon="-1.47268">
        <ele>65</ele>
        <time>2026-08-23T12:22:58.000Z</time>
      </trkpt>
      <trkpt lat="43.34069" lon="-1.47268">
        <ele>64</ele>
        <time>2026-08-23T12:22:58.000Z</time>
      </trkpt>
      <trkpt lat="43.34069" lon="-1.47267">
        <ele>64</ele>
        <time>2026-08-23T12:22:58.000Z</time>
      </trkpt>
      <trkpt lat="43.3407" lon="-1.47266">
        <ele>64</ele>
        <time>2026-08-23T12:22:58.000Z</time>
      </trkpt>
      <trkpt lat="43.34071" lon="-1.47265">
        <ele>64</ele>
        <time>2026-08-23T12:22:58.000Z</time>
      </trkpt>
      <trkpt lat="43.34059" lon="-1.47233">
        <ele>64</ele>
        <time>2026-08-23T12:23:03.000Z</time>
      </trkpt>
      <trkpt lat="43.34054" lon="-1.47223">
        <ele>65</ele>
        <time>2026-08-23T12:23:05.000Z</time>
      </trkpt>
      <trkpt lat="43.34046" lon="-1.47204">
        <ele>65</ele>
        <time>2026-08-23T12:23:08.000Z</time>
      </trkpt>
      <trkpt lat="43.34034" lon="-1.47178">
        <ele>64</ele>
        <time>2026-08-23T12:23:11.000Z</time>
      </trkpt>
      <trkpt lat="43.33996" lon="-1.471">
        <ele>65</ele>
        <time>2026-08-23T12:23:24.000Z</time>
      </trkpt>
      <trkpt lat="43.33988" lon="-1.47084">
        <ele>64</ele>
        <time>2026-08-23T12:23:26.000Z</time>
      </trkpt>
      <trkpt lat="43.33978" lon="-1.47067">
        <ele>64</ele>
        <time>2026-08-23T12:23:29.000Z</time>
      </trkpt>
      <trkpt lat="43.33971" lon="-1.47056">
        <ele>64</ele>
        <time>2026-08-23T12:23:31.000Z</time>
      </trkpt>
      <trkpt lat="43.33966" lon="-1.47046">
        <ele>63</ele>
        <time>2026-08-23T12:23:32.000Z</time>
      </trkpt>
      <trkpt lat="43.33961" lon="-1.47041">
        <ele>63</ele>
        <time>2026-08-23T12:23:34.000Z</time>
      </trkpt>
      <trkpt lat="43.33956" lon="-1.47034">
        <ele>63</ele>
        <time>2026-08-23T12:23:35.000Z</time>
      </trkpt>
      <trkpt lat="43.3395" lon="-1.47026">
        <ele>63</ele>
        <time>2026-08-23T12:23:36.000Z</time>
      </trkpt>
      <trkpt lat="43.33942" lon="-1.47018">
        <ele>63</ele>
        <time>2026-08-23T12:23:38.000Z</time>
      </trkpt>
      <trkpt lat="43.33928" lon="-1.47001">
        <ele>63</ele>
        <time>2026-08-23T12:23:41.000Z</time>
      </trkpt>
      <trkpt lat="43.33914" lon="-1.46986">
        <ele>63</ele>
        <time>2026-08-23T12:23:45.000Z</time>
      </trkpt>
      <trkpt lat="43.33905" lon="-1.46977">
        <ele>64</ele>
        <time>2026-08-23T12:23:47.000Z</time>
      </trkpt>
      <trkpt lat="43.33892" lon="-1.46965">
        <ele>64</ele>
        <time>2026-08-23T12:23:49.000Z</time>
      </trkpt>
      <trkpt lat="43.33886" lon="-1.46959">
        <ele>65</ele>
        <time>2026-08-23T12:23:51.000Z</time>
      </trkpt>
      <trkpt lat="43.33873" lon="-1.4695">
        <ele>65</ele>
        <time>2026-08-23T12:23:53.000Z</time>
      </trkpt>
      <trkpt lat="43.33853" lon="-1.46936">
        <ele>66</ele>
        <time>2026-08-23T12:23:57.000Z</time>
      </trkpt>
      <trkpt lat="43.3383" lon="-1.46921">
        <ele>67</ele>
        <time>2026-08-23T12:24:02.000Z</time>
      </trkpt>
      <trkpt lat="43.33817" lon="-1.46916">
        <ele>67</ele>
        <time>2026-08-23T12:24:04.000Z</time>
      </trkpt>
      <trkpt lat="43.33807" lon="-1.4691">
        <ele>67</ele>
        <time>2026-08-23T12:24:06.000Z</time>
      </trkpt>
      <trkpt lat="43.33792" lon="-1.469">
        <ele>67</ele>
        <time>2026-08-23T12:24:09.000Z</time>
      </trkpt>
      <trkpt lat="43.33783" lon="-1.46894">
        <ele>67</ele>
        <time>2026-08-23T12:24:11.000Z</time>
      </trkpt>
      <trkpt lat="43.33766" lon="-1.4688">
        <ele>67</ele>
        <time>2026-08-23T12:24:14.000Z</time>
      </trkpt>
      <trkpt lat="43.33752" lon="-1.46862">
        <ele>67</ele>
        <time>2026-08-23T12:24:18.000Z</time>
      </trkpt>
      <trkpt lat="43.33745" lon="-1.46852">
        <ele>67</ele>
        <time>2026-08-23T12:24:20.000Z</time>
      </trkpt>
      <trkpt lat="43.33737" lon="-1.46841">
        <ele>67</ele>
        <time>2026-08-23T12:24:22.000Z</time>
      </trkpt>
      <trkpt lat="43.33732" lon="-1.46832">
        <ele>67</ele>
        <time>2026-08-23T12:24:23.000Z</time>
      </trkpt>
      <trkpt lat="43.33725" lon="-1.46817">
        <ele>67</ele>
        <time>2026-08-23T12:24:25.000Z</time>
      </trkpt>
      <trkpt lat="43.33721" lon="-1.46805">
        <ele>67</ele>
        <time>2026-08-23T12:24:27.000Z</time>
      </trkpt>
      <trkpt lat="43.33719" lon="-1.46792">
        <ele>67</ele>
        <time>2026-08-23T12:24:29.000Z</time>
      </trkpt>
      <trkpt lat="43.33714" lon="-1.46776">
        <ele>66</ele>
        <time>2026-08-23T12:24:31.000Z</time>
      </trkpt>
      <trkpt lat="43.3371" lon="-1.46763">
        <ele>66</ele>
        <time>2026-08-23T12:24:33.000Z</time>
      </trkpt>
      <trkpt lat="43.33704" lon="-1.46742">
        <ele>66</ele>
        <time>2026-08-23T12:24:36.000Z</time>
      </trkpt>
      <trkpt lat="43.33702" lon="-1.46726">
        <ele>66</ele>
        <time>2026-08-23T12:24:38.000Z</time>
      </trkpt>
      <trkpt lat="43.337" lon="-1.46715">
        <ele>66</ele>
        <time>2026-08-23T12:24:39.000Z</time>
      </trkpt>
      <trkpt lat="43.33698" lon="-1.46705">
        <ele>66</ele>
        <time>2026-08-23T12:24:41.000Z</time>
      </trkpt>
      <trkpt lat="43.33698" lon="-1.46688">
        <ele>65</ele>
        <time>2026-08-23T12:24:43.000Z</time>
      </trkpt>
      <trkpt lat="43.33699" lon="-1.46652">
        <ele>65</ele>
        <time>2026-08-23T12:24:48.000Z</time>
      </trkpt>
      <trkpt lat="43.337" lon="-1.46623">
        <ele>64</ele>
        <time>2026-08-23T12:24:51.000Z</time>
      </trkpt>
      <trkpt lat="43.337" lon="-1.46618">
        <ele>64</ele>
        <time>2026-08-23T12:24:52.000Z</time>
      </trkpt>
      <trkpt lat="43.33701" lon="-1.46589">
        <ele>64</ele>
        <time>2026-08-23T12:24:56.000Z</time>
      </trkpt>
      <trkpt lat="43.337" lon="-1.46557">
        <ele>64</ele>
        <time>2026-08-23T12:25:00.000Z</time>
      </trkpt>
      <trkpt lat="43.33698" lon="-1.46546">
        <ele>64</ele>
        <time>2026-08-23T12:25:01.000Z</time>
      </trkpt>
      <trkpt lat="43.33697" lon="-1.46538">
        <ele>63</ele>
        <time>2026-08-23T12:25:02.000Z</time>
      </trkpt>
      <trkpt lat="43.33695" lon="-1.4652">
        <ele>63</ele>
        <time>2026-08-23T12:25:05.000Z</time>
      </trkpt>
      <trkpt lat="43.3369" lon="-1.46491">
        <ele>62</ele>
        <time>2026-08-23T12:25:09.000Z</time>
      </trkpt>
      <trkpt lat="43.33679" lon="-1.46424">
        <ele>59</ele>
        <time>2026-08-23T12:25:17.000Z</time>
      </trkpt>
      <trkpt lat="43.33665" lon="-1.46337">
        <ele>56</ele>
        <time>2026-08-23T12:25:29.000Z</time>
      </trkpt>
      <trkpt lat="43.33657" lon="-1.46288">
        <ele>56</ele>
        <time>2026-08-23T12:25:36.000Z</time>
      </trkpt>
      <trkpt lat="43.33651" lon="-1.46257">
        <ele>56</ele>
        <time>2026-08-23T12:25:40.000Z</time>
      </trkpt>
      <trkpt lat="43.33647" lon="-1.4624">
        <ele>56</ele>
        <time>2026-08-23T12:25:42.000Z</time>
      </trkpt>
      <trkpt lat="43.33646" lon="-1.46232">
        <ele>56</ele>
        <time>2026-08-23T12:25:43.000Z</time>
      </trkpt>
      <trkpt lat="43.33645" lon="-1.46232">
        <ele>56</ele>
        <time>2026-08-23T12:25:43.000Z</time>
      </trkpt>
      <trkpt lat="43.33639" lon="-1.46209">
        <ele>56</ele>
        <time>2026-08-23T12:25:46.000Z</time>
      </trkpt>
      <trkpt lat="43.33634" lon="-1.46198">
        <ele>56</ele>
        <time>2026-08-23T12:25:48.000Z</time>
      </trkpt>
      <trkpt lat="43.33633" lon="-1.46196">
        <ele>56</ele>
        <time>2026-08-23T12:25:48.000Z</time>
      </trkpt>
      <trkpt lat="43.33632" lon="-1.46191">
        <ele>56</ele>
        <time>2026-08-23T12:25:49.000Z</time>
      </trkpt>
      <trkpt lat="43.33626" lon="-1.46179">
        <ele>56</ele>
        <time>2026-08-23T12:25:51.000Z</time>
      </trkpt>
      <trkpt lat="43.33619" lon="-1.46164">
        <ele>56</ele>
        <time>2026-08-23T12:25:53.000Z</time>
      </trkpt>
      <trkpt lat="43.33609" lon="-1.46147">
        <ele>57</ele>
        <time>2026-08-23T12:25:56.000Z</time>
      </trkpt>
      <trkpt lat="43.33599" lon="-1.46129">
        <ele>57</ele>
        <time>2026-08-23T12:25:59.000Z</time>
      </trkpt>
      <trkpt lat="43.33585" lon="-1.46104">
        <ele>57</ele>
        <time>2026-08-23T12:26:03.000Z</time>
      </trkpt>
      <trkpt lat="43.3358" lon="-1.46092">
        <ele>57</ele>
        <time>2026-08-23T12:26:05.000Z</time>
      </trkpt>
      <trkpt lat="43.33575" lon="-1.46084">
        <ele>57</ele>
        <time>2026-08-23T12:26:06.000Z</time>
      </trkpt>
      <trkpt lat="43.33563" lon="-1.46046">
        <ele>57</ele>
        <time>2026-08-23T12:26:12.000Z</time>
      </trkpt>
      <trkpt lat="43.33555" lon="-1.46019">
        <ele>58</ele>
        <time>2026-08-23T12:26:15.000Z</time>
      </trkpt>
      <trkpt lat="43.3355" lon="-1.45995">
        <ele>59</ele>
        <time>2026-08-23T12:26:19.000Z</time>
      </trkpt>
      <trkpt lat="43.33548" lon="-1.45984">
        <ele>60</ele>
        <time>2026-08-23T12:26:20.000Z</time>
      </trkpt>
      <trkpt lat="43.33546" lon="-1.45971">
        <ele>61</ele>
        <time>2026-08-23T12:26:22.000Z</time>
      </trkpt>
      <trkpt lat="43.33545" lon="-1.45963">
        <ele>62</ele>
        <time>2026-08-23T12:26:23.000Z</time>
      </trkpt>
      <trkpt lat="43.33545" lon="-1.45949">
        <ele>63</ele>
        <time>2026-08-23T12:26:25.000Z</time>
      </trkpt>
      <trkpt lat="43.33546" lon="-1.45937">
        <ele>64</ele>
        <time>2026-08-23T12:26:26.000Z</time>
      </trkpt>
      <trkpt lat="43.33547" lon="-1.45923">
        <ele>65</ele>
        <time>2026-08-23T12:26:28.000Z</time>
      </trkpt>
      <trkpt lat="43.33551" lon="-1.45906">
        <ele>66</ele>
        <time>2026-08-23T12:26:30.000Z</time>
      </trkpt>
      <trkpt lat="43.33551" lon="-1.45903">
        <ele>67</ele>
        <time>2026-08-23T12:26:31.000Z</time>
      </trkpt>
      <trkpt lat="43.33553" lon="-1.45897">
        <ele>67</ele>
        <time>2026-08-23T12:26:32.000Z</time>
      </trkpt>
      <trkpt lat="43.33557" lon="-1.45889">
        <ele>68</ele>
        <time>2026-08-23T12:26:33.000Z</time>
      </trkpt>
      <trkpt lat="43.33561" lon="-1.45881">
        <ele>68</ele>
        <time>2026-08-23T12:26:34.000Z</time>
      </trkpt>
      <trkpt lat="43.33566" lon="-1.45871">
        <ele>68</ele>
        <time>2026-08-23T12:26:36.000Z</time>
      </trkpt>
      <trkpt lat="43.33572" lon="-1.45861">
        <ele>68</ele>
        <time>2026-08-23T12:26:37.000Z</time>
      </trkpt>
      <trkpt lat="43.33574" lon="-1.45859">
        <ele>68</ele>
        <time>2026-08-23T12:26:38.000Z</time>
      </trkpt>
      <trkpt lat="43.33578" lon="-1.45856">
        <ele>67</ele>
        <time>2026-08-23T12:26:39.000Z</time>
      </trkpt>
      <trkpt lat="43.33584" lon="-1.45847">
        <ele>66</ele>
        <time>2026-08-23T12:26:40.000Z</time>
      </trkpt>
      <trkpt lat="43.33596" lon="-1.45829">
        <ele>67</ele>
        <time>2026-08-23T12:26:43.000Z</time>
      </trkpt>
      <trkpt lat="43.33616" lon="-1.458">
        <ele>67</ele>
        <time>2026-08-23T12:26:48.000Z</time>
      </trkpt>
      <trkpt lat="43.3363" lon="-1.45779">
        <ele>65</ele>
        <time>2026-08-23T12:26:52.000Z</time>
      </trkpt>
      <trkpt lat="43.33655" lon="-1.45743">
        <ele>62</ele>
        <time>2026-08-23T12:26:59.000Z</time>
      </trkpt>
      <trkpt lat="43.33678" lon="-1.45709">
        <ele>64</ele>
        <time>2026-08-23T12:27:05.000Z</time>
      </trkpt>
      <trkpt lat="43.33707" lon="-1.45666">
        <ele>64</ele>
        <time>2026-08-23T12:27:12.000Z</time>
      </trkpt>
      <trkpt lat="43.33735" lon="-1.45625">
        <ele>62</ele>
        <time>2026-08-23T12:27:19.000Z</time>
      </trkpt>
      <trkpt lat="43.33748" lon="-1.45605">
        <ele>61</ele>
        <time>2026-08-23T12:27:23.000Z</time>
      </trkpt>
      <trkpt lat="43.33763" lon="-1.45583">
        <ele>62</ele>
        <time>2026-08-23T12:27:27.000Z</time>
      </trkpt>
      <trkpt lat="43.33773" lon="-1.45563">
        <ele>62</ele>
        <time>2026-08-23T12:27:30.000Z</time>
      </trkpt>
      <trkpt lat="43.33785" lon="-1.4554">
        <ele>63</ele>
        <time>2026-08-23T12:27:34.000Z</time>
      </trkpt>
      <trkpt lat="43.33794" lon="-1.4552">
        <ele>62</ele>
        <time>2026-08-23T12:27:37.000Z</time>
      </trkpt>
      <trkpt lat="43.33804" lon="-1.45498">
        <ele>62</ele>
        <time>2026-08-23T12:27:40.000Z</time>
      </trkpt>
      <trkpt lat="43.33812" lon="-1.45474">
        <ele>61</ele>
        <time>2026-08-23T12:27:43.000Z</time>
      </trkpt>
      <trkpt lat="43.33816" lon="-1.45463">
        <ele>61</ele>
        <time>2026-08-23T12:27:45.000Z</time>
      </trkpt>
      <trkpt lat="43.33821" lon="-1.45451">
        <ele>60</ele>
        <time>2026-08-23T12:27:47.000Z</time>
      </trkpt>
      <trkpt lat="43.33825" lon="-1.45438">
        <ele>60</ele>
        <time>2026-08-23T12:27:49.000Z</time>
      </trkpt>
      <trkpt lat="43.33828" lon="-1.4543">
        <ele>59</ele>
        <time>2026-08-23T12:27:50.000Z</time>
      </trkpt>
      <trkpt lat="43.33832" lon="-1.45421">
        <ele>59</ele>
        <time>2026-08-23T12:27:51.000Z</time>
      </trkpt>
      <trkpt lat="43.3384" lon="-1.45405">
        <ele>59</ele>
        <time>2026-08-23T12:27:54.000Z</time>
      </trkpt>
      <trkpt lat="43.33849" lon="-1.45391">
        <ele>59</ele>
        <time>2026-08-23T12:27:56.000Z</time>
      </trkpt>
      <trkpt lat="43.33855" lon="-1.45383">
        <ele>59</ele>
        <time>2026-08-23T12:27:58.000Z</time>
      </trkpt>
      <trkpt lat="43.33862" lon="-1.45374">
        <ele>60</ele>
        <time>2026-08-23T12:27:59.000Z</time>
      </trkpt>
      <trkpt lat="43.33868" lon="-1.45367">
        <ele>60</ele>
        <time>2026-08-23T12:28:01.000Z</time>
      </trkpt>
      <trkpt lat="43.33872" lon="-1.45363">
        <ele>60</ele>
        <time>2026-08-23T12:28:02.000Z</time>
      </trkpt>
      <trkpt lat="43.3388" lon="-1.45355">
        <ele>60</ele>
        <time>2026-08-23T12:28:03.000Z</time>
      </trkpt>
      <trkpt lat="43.33893" lon="-1.45341">
        <ele>60</ele>
        <time>2026-08-23T12:28:06.000Z</time>
      </trkpt>
      <trkpt lat="43.33908" lon="-1.45326">
        <ele>61</ele>
        <time>2026-08-23T12:28:10.000Z</time>
      </trkpt>
      <trkpt lat="43.3393" lon="-1.45306">
        <ele>60</ele>
        <time>2026-08-23T12:28:14.000Z</time>
      </trkpt>
      <trkpt lat="43.33942" lon="-1.45295">
        <ele>60</ele>
        <time>2026-08-23T12:28:17.000Z</time>
      </trkpt>
      <trkpt lat="43.33958" lon="-1.45279">
        <ele>60</ele>
        <time>2026-08-23T12:28:20.000Z</time>
      </trkpt>
      <trkpt lat="43.33964" lon="-1.45272">
        <ele>60</ele>
        <time>2026-08-23T12:28:22.000Z</time>
      </trkpt>
      <trkpt lat="43.33967" lon="-1.45268">
        <ele>60</ele>
        <time>2026-08-23T12:28:23.000Z</time>
      </trkpt>
      <trkpt lat="43.3397" lon="-1.45263">
        <ele>60</ele>
        <time>2026-08-23T12:28:23.000Z</time>
      </trkpt>
      <trkpt lat="43.33975" lon="-1.45255">
        <ele>60</ele>
        <time>2026-08-23T12:28:25.000Z</time>
      </trkpt>
      <trkpt lat="43.33977" lon="-1.4525">
        <ele>60</ele>
        <time>2026-08-23T12:28:25.000Z</time>
      </trkpt>
      <trkpt lat="43.33979" lon="-1.45245">
        <ele>60</ele>
        <time>2026-08-23T12:28:26.000Z</time>
      </trkpt>
      <trkpt lat="43.33983" lon="-1.45236">
        <ele>60</ele>
        <time>2026-08-23T12:28:28.000Z</time>
      </trkpt>
      <trkpt lat="43.33986" lon="-1.45227">
        <ele>60</ele>
        <time>2026-08-23T12:28:29.000Z</time>
      </trkpt>
      <trkpt lat="43.33988" lon="-1.45218">
        <ele>60</ele>
        <time>2026-08-23T12:28:30.000Z</time>
      </trkpt>
      <trkpt lat="43.33989" lon="-1.45208">
        <ele>60</ele>
        <time>2026-08-23T12:28:31.000Z</time>
      </trkpt>
      <trkpt lat="43.33991" lon="-1.45199">
        <ele>60</ele>
        <time>2026-08-23T12:28:33.000Z</time>
      </trkpt>
      <trkpt lat="43.33995" lon="-1.45185">
        <ele>60</ele>
        <time>2026-08-23T12:28:35.000Z</time>
      </trkpt>
      <trkpt lat="43.33998" lon="-1.45174">
        <ele>60</ele>
        <time>2026-08-23T12:28:36.000Z</time>
      </trkpt>
      <trkpt lat="43.33999" lon="-1.45168">
        <ele>60</ele>
        <time>2026-08-23T12:28:37.000Z</time>
      </trkpt>
      <trkpt lat="43.33999" lon="-1.45168">
        <ele>60</ele>
        <time>2026-08-23T12:28:37.000Z</time>
      </trkpt>
      <trkpt lat="43.33999" lon="-1.45167">
        <ele>60</ele>
        <time>2026-08-23T12:28:37.000Z</time>
      </trkpt>
      <trkpt lat="43.33998" lon="-1.45166">
        <ele>60</ele>
        <time>2026-08-23T12:28:37.000Z</time>
      </trkpt>
      <trkpt lat="43.33997" lon="-1.45166">
        <ele>60</ele>
        <time>2026-08-23T12:28:37.000Z</time>
      </trkpt>
      <trkpt lat="43.33997" lon="-1.45165">
        <ele>60</ele>
        <time>2026-08-23T12:28:38.000Z</time>
      </trkpt>
      <trkpt lat="43.33996" lon="-1.45164">
        <ele>61</ele>
        <time>2026-08-23T12:28:38.000Z</time>
      </trkpt>
      <trkpt lat="43.33995" lon="-1.45163">
        <ele>61</ele>
        <time>2026-08-23T12:28:38.000Z</time>
      </trkpt>
      <trkpt lat="43.33995" lon="-1.45162">
        <ele>61</ele>
        <time>2026-08-23T12:28:38.000Z</time>
      </trkpt>
      <trkpt lat="43.33994" lon="-1.45161">
        <ele>61</ele>
        <time>2026-08-23T12:28:38.000Z</time>
      </trkpt>
      <trkpt lat="43.33994" lon="-1.4516">
        <ele>61</ele>
        <time>2026-08-23T12:28:38.000Z</time>
      </trkpt>
      <trkpt lat="43.33993" lon="-1.45159">
        <ele>61</ele>
        <time>2026-08-23T12:28:39.000Z</time>
      </trkpt>
      <trkpt lat="43.33993" lon="-1.45158">
        <ele>61</ele>
        <time>2026-08-23T12:28:39.000Z</time>
      </trkpt>
      <trkpt lat="43.33993" lon="-1.45157">
        <ele>61</ele>
        <time>2026-08-23T12:28:39.000Z</time>
      </trkpt>
      <trkpt lat="43.33992" lon="-1.45156">
        <ele>61</ele>
        <time>2026-08-23T12:28:39.000Z</time>
      </trkpt>
      <trkpt lat="43.33992" lon="-1.45155">
        <ele>61</ele>
        <time>2026-08-23T12:28:39.000Z</time>
      </trkpt>
      <trkpt lat="43.33992" lon="-1.45154">
        <ele>61</ele>
        <time>2026-08-23T12:28:39.000Z</time>
      </trkpt>
      <trkpt lat="43.33992" lon="-1.45153">
        <ele>61</ele>
        <time>2026-08-23T12:28:40.000Z</time>
      </trkpt>
      <trkpt lat="43.33992" lon="-1.45151">
        <ele>61</ele>
        <time>2026-08-23T12:28:40.000Z</time>
      </trkpt>
      <trkpt lat="43.33992" lon="-1.4515">
        <ele>62</ele>
        <time>2026-08-23T12:28:40.000Z</time>
      </trkpt>
      <trkpt lat="43.33992" lon="-1.45149">
        <ele>62</ele>
        <time>2026-08-23T12:28:40.000Z</time>
      </trkpt>
      <trkpt lat="43.33992" lon="-1.45148">
        <ele>62</ele>
        <time>2026-08-23T12:28:40.000Z</time>
      </trkpt>
      <trkpt lat="43.33992" lon="-1.45146">
        <ele>62</ele>
        <time>2026-08-23T12:28:40.000Z</time>
      </trkpt>
      <trkpt lat="43.33989" lon="-1.45132">
        <ele>63</ele>
        <time>2026-08-23T12:28:42.000Z</time>
      </trkpt>
      <trkpt lat="43.33989" lon="-1.45128">
        <ele>63</ele>
        <time>2026-08-23T12:28:43.000Z</time>
      </trkpt>
      <trkpt lat="43.33986" lon="-1.45117">
        <ele>63</ele>
        <time>2026-08-23T12:28:44.000Z</time>
      </trkpt>
      <trkpt lat="43.33953" lon="-1.45059">
        <ele>67</ele>
        <time>2026-08-23T12:28:54.000Z</time>
      </trkpt>
      <trkpt lat="43.33896" lon="-1.44961">
        <ele>70</ele>
        <time>2026-08-23T12:29:10.000Z</time>
      </trkpt>
      <trkpt lat="43.33879" lon="-1.44932">
        <ele>71</ele>
        <time>2026-08-23T12:29:15.000Z</time>
      </trkpt>
      <trkpt lat="43.33866" lon="-1.4491">
        <ele>72</ele>
        <time>2026-08-23T12:29:19.000Z</time>
      </trkpt>
      <trkpt lat="43.33859" lon="-1.44894">
        <ele>73</ele>
        <time>2026-08-23T12:29:21.000Z</time>
      </trkpt>
      <trkpt lat="43.33854" lon="-1.44883">
        <ele>73</ele>
        <time>2026-08-23T12:29:23.000Z</time>
      </trkpt>
      <trkpt lat="43.33849" lon="-1.44868">
        <ele>73</ele>
        <time>2026-08-23T12:29:25.000Z</time>
      </trkpt>
      <trkpt lat="43.33845" lon="-1.44855">
        <ele>73</ele>
        <time>2026-08-23T12:29:27.000Z</time>
      </trkpt>
      <trkpt lat="43.33843" lon="-1.44843">
        <ele>73</ele>
        <time>2026-08-23T12:29:28.000Z</time>
      </trkpt>
      <trkpt lat="43.33842" lon="-1.44832">
        <ele>73</ele>
        <time>2026-08-23T12:29:30.000Z</time>
      </trkpt>
      <trkpt lat="43.33842" lon="-1.44818">
        <ele>74</ele>
        <time>2026-08-23T12:29:32.000Z</time>
      </trkpt>
      <trkpt lat="43.33841" lon="-1.44801">
        <ele>75</ele>
        <time>2026-08-23T12:29:34.000Z</time>
      </trkpt>
      <trkpt lat="43.33842" lon="-1.44774">
        <ele>76</ele>
        <time>2026-08-23T12:29:37.000Z</time>
      </trkpt>
      <trkpt lat="43.33841" lon="-1.4474">
        <ele>77</ele>
        <time>2026-08-23T12:29:42.000Z</time>
      </trkpt>
      <trkpt lat="43.3384" lon="-1.44707">
        <ele>78</ele>
        <time>2026-08-23T12:29:46.000Z</time>
      </trkpt>
      <trkpt lat="43.33837" lon="-1.44699">
        <ele>78</ele>
        <time>2026-08-23T12:29:47.000Z</time>
      </trkpt>
      <trkpt lat="43.33831" lon="-1.44671">
        <ele>79</ele>
        <time>2026-08-23T12:29:51.000Z</time>
      </trkpt>
      <trkpt lat="43.33831" lon="-1.44671">
        <ele>79</ele>
        <time>2026-08-23T12:29:51.000Z</time>
      </trkpt>
      <trkpt lat="43.33831" lon="-1.4467">
        <ele>79</ele>
        <time>2026-08-23T12:29:51.000Z</time>
      </trkpt>
      <trkpt lat="43.3383" lon="-1.44669">
        <ele>79</ele>
        <time>2026-08-23T12:29:51.000Z</time>
      </trkpt>
      <trkpt lat="43.3383" lon="-1.44668">
        <ele>79</ele>
        <time>2026-08-23T12:29:51.000Z</time>
      </trkpt>
      <trkpt lat="43.33829" lon="-1.44668">
        <ele>79</ele>
        <time>2026-08-23T12:29:52.000Z</time>
      </trkpt>
      <trkpt lat="43.33829" lon="-1.44667">
        <ele>79</ele>
        <time>2026-08-23T12:29:52.000Z</time>
      </trkpt>
      <trkpt lat="43.33829" lon="-1.44666">
        <ele>79</ele>
        <time>2026-08-23T12:29:52.000Z</time>
      </trkpt>
      <trkpt lat="43.33828" lon="-1.44666">
        <ele>79</ele>
        <time>2026-08-23T12:29:52.000Z</time>
      </trkpt>
      <trkpt lat="43.33828" lon="-1.44665">
        <ele>79</ele>
        <time>2026-08-23T12:29:52.000Z</time>
      </trkpt>
      <trkpt lat="43.33828" lon="-1.44664">
        <ele>79</ele>
        <time>2026-08-23T12:29:52.000Z</time>
      </trkpt>
      <trkpt lat="43.33828" lon="-1.44663">
        <ele>79</ele>
        <time>2026-08-23T12:29:52.000Z</time>
      </trkpt>
      <trkpt lat="43.33827" lon="-1.44663">
        <ele>79</ele>
        <time>2026-08-23T12:29:53.000Z</time>
      </trkpt>
      <trkpt lat="43.33827" lon="-1.44662">
        <ele>79</ele>
        <time>2026-08-23T12:29:53.000Z</time>
      </trkpt>
      <trkpt lat="43.33827" lon="-1.44661">
        <ele>79</ele>
        <time>2026-08-23T12:29:53.000Z</time>
      </trkpt>
      <trkpt lat="43.33827" lon="-1.4466">
        <ele>79</ele>
        <time>2026-08-23T12:29:53.000Z</time>
      </trkpt>
      <trkpt lat="43.33827" lon="-1.44659">
        <ele>79</ele>
        <time>2026-08-23T12:29:53.000Z</time>
      </trkpt>
      <trkpt lat="43.33821" lon="-1.44643">
        <ele>79</ele>
        <time>2026-08-23T12:29:55.000Z</time>
      </trkpt>
      <trkpt lat="43.33817" lon="-1.44639">
        <ele>79</ele>
        <time>2026-08-23T12:29:56.000Z</time>
      </trkpt>
      <trkpt lat="43.33812" lon="-1.44635">
        <ele>79</ele>
        <time>2026-08-23T12:29:57.000Z</time>
      </trkpt>
      <trkpt lat="43.33807" lon="-1.44634">
        <ele>79</ele>
        <time>2026-08-23T12:29:58.000Z</time>
      </trkpt>
      <trkpt lat="43.3378" lon="-1.44624">
        <ele>78</ele>
        <time>2026-08-23T12:30:03.000Z</time>
      </trkpt>
      <trkpt lat="43.33768" lon="-1.44622">
        <ele>78</ele>
        <time>2026-08-23T12:30:05.000Z</time>
      </trkpt>
      <trkpt lat="43.33764" lon="-1.44621">
        <ele>78</ele>
        <time>2026-08-23T12:30:06.000Z</time>
      </trkpt>
      <trkpt lat="43.33756" lon="-1.44619">
        <ele>78</ele>
        <time>2026-08-23T12:30:07.000Z</time>
      </trkpt>
      <trkpt lat="43.33743" lon="-1.44618">
        <ele>78</ele>
        <time>2026-08-23T12:30:10.000Z</time>
      </trkpt>
      <trkpt lat="43.33717" lon="-1.44616">
        <ele>78</ele>
        <time>2026-08-23T12:30:14.000Z</time>
      </trkpt>
      <trkpt lat="43.33698" lon="-1.44614">
        <ele>78</ele>
        <time>2026-08-23T12:30:18.000Z</time>
      </trkpt>
      <trkpt lat="43.33684" lon="-1.44614">
        <ele>78</ele>
        <time>2026-08-23T12:30:20.000Z</time>
      </trkpt>
      <trkpt lat="43.33665" lon="-1.44615">
        <ele>79</ele>
        <time>2026-08-23T12:30:24.000Z</time>
      </trkpt>
      <trkpt lat="43.33647" lon="-1.44617">
        <ele>79</ele>
        <time>2026-08-23T12:30:27.000Z</time>
      </trkpt>
      <trkpt lat="43.33633" lon="-1.4462">
        <ele>80</ele>
        <time>2026-08-23T12:30:29.000Z</time>
      </trkpt>
      <trkpt lat="43.33629" lon="-1.44621">
        <ele>81</ele>
        <time>2026-08-23T12:30:30.000Z</time>
      </trkpt>
      <trkpt lat="43.33619" lon="-1.44622">
        <ele>81</ele>
        <time>2026-08-23T12:30:32.000Z</time>
      </trkpt>
      <trkpt lat="43.33615" lon="-1.44623">
        <ele>81</ele>
        <time>2026-08-23T12:30:33.000Z</time>
      </trkpt>
      <trkpt lat="43.33605" lon="-1.44622">
        <ele>82</ele>
        <time>2026-08-23T12:30:34.000Z</time>
      </trkpt>
      <trkpt lat="43.33593" lon="-1.44617">
        <ele>81</ele>
        <time>2026-08-23T12:30:37.000Z</time>
      </trkpt>
      <trkpt lat="43.3358" lon="-1.44611">
        <ele>81</ele>
        <time>2026-08-23T12:30:39.000Z</time>
      </trkpt>
      <trkpt lat="43.33555" lon="-1.44595">
        <ele>81</ele>
        <time>2026-08-23T12:30:44.000Z</time>
      </trkpt>
      <trkpt lat="43.33536" lon="-1.44578">
        <ele>80</ele>
        <time>2026-08-23T12:30:48.000Z</time>
      </trkpt>
      <trkpt lat="43.3351" lon="-1.44559">
        <ele>80</ele>
        <time>2026-08-23T12:30:53.000Z</time>
      </trkpt>
      <trkpt lat="43.33485" lon="-1.44544">
        <ele>78</ele>
        <time>2026-08-23T12:30:58.000Z</time>
      </trkpt>
      <trkpt lat="43.33463" lon="-1.44535">
        <ele>77</ele>
        <time>2026-08-23T12:31:02.000Z</time>
      </trkpt>
      <trkpt lat="43.33447" lon="-1.44533">
        <ele>78</ele>
        <time>2026-08-23T12:31:05.000Z</time>
      </trkpt>
      <trkpt lat="43.33434" lon="-1.44534">
        <ele>78</ele>
        <time>2026-08-23T12:31:07.000Z</time>
      </trkpt>
      <trkpt lat="43.33422" lon="-1.44538">
        <ele>78</ele>
        <time>2026-08-23T12:31:10.000Z</time>
      </trkpt>
      <trkpt lat="43.33418" lon="-1.44541">
        <ele>78</ele>
        <time>2026-08-23T12:31:10.000Z</time>
      </trkpt>
      <trkpt lat="43.33413" lon="-1.44544">
        <ele>79</ele>
        <time>2026-08-23T12:31:11.000Z</time>
      </trkpt>
      <trkpt lat="43.33406" lon="-1.44551">
        <ele>80</ele>
        <time>2026-08-23T12:31:13.000Z</time>
      </trkpt>
      <trkpt lat="43.334" lon="-1.44559">
        <ele>80</ele>
        <time>2026-08-23T12:31:14.000Z</time>
      </trkpt>
      <trkpt lat="43.33397" lon="-1.44566">
        <ele>80</ele>
        <time>2026-08-23T12:31:15.000Z</time>
      </trkpt>
      <trkpt lat="43.33394" lon="-1.44574">
        <ele>80</ele>
        <time>2026-08-23T12:31:17.000Z</time>
      </trkpt>
      <trkpt lat="43.33382" lon="-1.4461">
        <ele>83</ele>
        <time>2026-08-23T12:31:22.000Z</time>
      </trkpt>
      <trkpt lat="43.33368" lon="-1.44649">
        <ele>84</ele>
        <time>2026-08-23T12:31:27.000Z</time>
      </trkpt>
      <trkpt lat="43.33361" lon="-1.4467">
        <ele>83</ele>
        <time>2026-08-23T12:31:30.000Z</time>
      </trkpt>
      <trkpt lat="43.33355" lon="-1.44681">
        <ele>82</ele>
        <time>2026-08-23T12:31:32.000Z</time>
      </trkpt>
      <trkpt lat="43.33349" lon="-1.4469">
        <ele>81</ele>
        <time>2026-08-23T12:31:34.000Z</time>
      </trkpt>
      <trkpt lat="43.3334" lon="-1.44698">
        <ele>80</ele>
        <time>2026-08-23T12:31:36.000Z</time>
      </trkpt>
      <trkpt lat="43.33331" lon="-1.44705">
        <ele>79</ele>
        <time>2026-08-23T12:31:37.000Z</time>
      </trkpt>
      <trkpt lat="43.33318" lon="-1.44711">
        <ele>79</ele>
        <time>2026-08-23T12:31:40.000Z</time>
      </trkpt>
      <trkpt lat="43.33304" lon="-1.44715">
        <ele>80</ele>
        <time>2026-08-23T12:31:42.000Z</time>
      </trkpt>
      <trkpt lat="43.33288" lon="-1.44718">
        <ele>81</ele>
        <time>2026-08-23T12:31:45.000Z</time>
      </trkpt>
      <trkpt lat="43.33265" lon="-1.44722">
        <ele>81</ele>
        <time>2026-08-23T12:31:49.000Z</time>
      </trkpt>
      <trkpt lat="43.33227" lon="-1.44727">
        <ele>86</ele>
        <time>2026-08-23T12:31:56.000Z</time>
      </trkpt>
      <trkpt lat="43.33215" lon="-1.4473">
        <ele>87</ele>
        <time>2026-08-23T12:31:58.000Z</time>
      </trkpt>
      <trkpt lat="43.33205" lon="-1.44732">
        <ele>88</ele>
        <time>2026-08-23T12:32:00.000Z</time>
      </trkpt>
      <trkpt lat="43.33196" lon="-1.44737">
        <ele>89</ele>
        <time>2026-08-23T12:32:02.000Z</time>
      </trkpt>
      <trkpt lat="43.33186" lon="-1.44746">
        <ele>88</ele>
        <time>2026-08-23T12:32:04.000Z</time>
      </trkpt>
      <trkpt lat="43.33177" lon="-1.44757">
        <ele>88</ele>
        <time>2026-08-23T12:32:06.000Z</time>
      </trkpt>
      <trkpt lat="43.33169" lon="-1.44769">
        <ele>89</ele>
        <time>2026-08-23T12:32:08.000Z</time>
      </trkpt>
      <trkpt lat="43.33161" lon="-1.44783">
        <ele>89</ele>
        <time>2026-08-23T12:32:11.000Z</time>
      </trkpt>
      <trkpt lat="43.33155" lon="-1.44797">
        <ele>88</ele>
        <time>2026-08-23T12:32:13.000Z</time>
      </trkpt>
      <trkpt lat="43.33151" lon="-1.44812">
        <ele>87</ele>
        <time>2026-08-23T12:32:15.000Z</time>
      </trkpt>
      <trkpt lat="43.33146" lon="-1.4483">
        <ele>86</ele>
        <time>2026-08-23T12:32:17.000Z</time>
      </trkpt>
      <trkpt lat="43.33144" lon="-1.44848">
        <ele>88</ele>
        <time>2026-08-23T12:32:20.000Z</time>
      </trkpt>
      <trkpt lat="43.33143" lon="-1.44865">
        <ele>90</ele>
        <time>2026-08-23T12:32:22.000Z</time>
      </trkpt>
      <trkpt lat="43.33139" lon="-1.44884">
        <ele>92</ele>
        <time>2026-08-23T12:32:24.000Z</time>
      </trkpt>
      <trkpt lat="43.33132" lon="-1.4491">
        <ele>94</ele>
        <time>2026-08-23T12:32:28.000Z</time>
      </trkpt>
      <trkpt lat="43.33126" lon="-1.44932">
        <ele>95</ele>
        <time>2026-08-23T12:32:31.000Z</time>
      </trkpt>
      <trkpt lat="43.33116" lon="-1.44948">
        <ele>94</ele>
        <time>2026-08-23T12:32:34.000Z</time>
      </trkpt>
      <trkpt lat="43.33104" lon="-1.44965">
        <ele>93</ele>
        <time>2026-08-23T12:32:37.000Z</time>
      </trkpt>
      <trkpt lat="43.33097" lon="-1.44973">
        <ele>91</ele>
        <time>2026-08-23T12:32:38.000Z</time>
      </trkpt>
      <trkpt lat="43.33095" lon="-1.44976">
        <ele>91</ele>
        <time>2026-08-23T12:32:39.000Z</time>
      </trkpt>
      <trkpt lat="43.33086" lon="-1.44981">
        <ele>89</ele>
        <time>2026-08-23T12:32:41.000Z</time>
      </trkpt>
      <trkpt lat="43.33078" lon="-1.44981">
        <ele>88</ele>
        <time>2026-08-23T12:32:42.000Z</time>
      </trkpt>
      <trkpt lat="43.33067" lon="-1.44981">
        <ele>89</ele>
        <time>2026-08-23T12:32:44.000Z</time>
      </trkpt>
      <trkpt lat="43.33064" lon="-1.4498">
        <ele>89</ele>
        <time>2026-08-23T12:32:45.000Z</time>
      </trkpt>
      <trkpt lat="43.3306" lon="-1.44978">
        <ele>89</ele>
        <time>2026-08-23T12:32:45.000Z</time>
      </trkpt>
      <trkpt lat="43.33057" lon="-1.44977">
        <ele>89</ele>
        <time>2026-08-23T12:32:46.000Z</time>
      </trkpt>
      <trkpt lat="43.33056" lon="-1.44977">
        <ele>89</ele>
        <time>2026-08-23T12:32:46.000Z</time>
      </trkpt>
      <trkpt lat="43.33053" lon="-1.44975">
        <ele>89</ele>
        <time>2026-08-23T12:32:47.000Z</time>
      </trkpt>
      <trkpt lat="43.33044" lon="-1.4497">
        <ele>89</ele>
        <time>2026-08-23T12:32:48.000Z</time>
      </trkpt>
      <trkpt lat="43.33027" lon="-1.4496">
        <ele>88</ele>
        <time>2026-08-23T12:32:52.000Z</time>
      </trkpt>
      <trkpt lat="43.3301" lon="-1.44949">
        <ele>87</ele>
        <time>2026-08-23T12:32:55.000Z</time>
      </trkpt>
      <trkpt lat="43.32995" lon="-1.44941">
        <ele>86</ele>
        <time>2026-08-23T12:32:58.000Z</time>
      </trkpt>
      <trkpt lat="43.32973" lon="-1.44932">
        <ele>86</ele>
        <time>2026-08-23T12:33:02.000Z</time>
      </trkpt>
      <trkpt lat="43.32951" lon="-1.44926">
        <ele>87</ele>
        <time>2026-08-23T12:33:06.000Z</time>
      </trkpt>
      <trkpt lat="43.32934" lon="-1.44923">
        <ele>88</ele>
        <time>2026-08-23T12:33:09.000Z</time>
      </trkpt>
      <trkpt lat="43.32923" lon="-1.44924">
        <ele>89</ele>
        <time>2026-08-23T12:33:11.000Z</time>
      </trkpt>
      <trkpt lat="43.32914" lon="-1.44926">
        <ele>90</ele>
        <time>2026-08-23T12:33:13.000Z</time>
      </trkpt>
      <trkpt lat="43.32903" lon="-1.44928">
        <ele>92</ele>
        <time>2026-08-23T12:33:15.000Z</time>
      </trkpt>
      <trkpt lat="43.32898" lon="-1.44927">
        <ele>91</ele>
        <time>2026-08-23T12:33:16.000Z</time>
      </trkpt>
      <trkpt lat="43.32894" lon="-1.44927">
        <ele>92</ele>
        <time>2026-08-23T12:33:16.000Z</time>
      </trkpt>
      <trkpt lat="43.32892" lon="-1.44926">
        <ele>92</ele>
        <time>2026-08-23T12:33:17.000Z</time>
      </trkpt>
      <trkpt lat="43.32882" lon="-1.44926">
        <ele>92</ele>
        <time>2026-08-23T12:33:18.000Z</time>
      </trkpt>
      <trkpt lat="43.32872" lon="-1.44928">
        <ele>93</ele>
        <time>2026-08-23T12:33:20.000Z</time>
      </trkpt>
      <trkpt lat="43.32858" lon="-1.44934">
        <ele>96</ele>
        <time>2026-08-23T12:33:23.000Z</time>
      </trkpt>
      <trkpt lat="43.32852" lon="-1.44936">
        <ele>97</ele>
        <time>2026-08-23T12:33:24.000Z</time>
      </trkpt>
      <trkpt lat="43.32837" lon="-1.4494">
        <ele>99</ele>
        <time>2026-08-23T12:33:27.000Z</time>
      </trkpt>
      <trkpt lat="43.32817" lon="-1.44942">
        <ele>101</ele>
        <time>2026-08-23T12:33:30.000Z</time>
      </trkpt>
      <trkpt lat="43.32802" lon="-1.44941">
        <ele>102</ele>
        <time>2026-08-23T12:33:33.000Z</time>
      </trkpt>
      <trkpt lat="43.32791" lon="-1.44938">
        <ele>102</ele>
        <time>2026-08-23T12:33:35.000Z</time>
      </trkpt>
      <trkpt lat="43.32781" lon="-1.44933">
        <ele>102</ele>
        <time>2026-08-23T12:33:37.000Z</time>
      </trkpt>
      <trkpt lat="43.32774" lon="-1.44928">
        <ele>101</ele>
        <time>2026-08-23T12:33:38.000Z</time>
      </trkpt>
      <trkpt lat="43.3277" lon="-1.44925">
        <ele>100</ele>
        <time>2026-08-23T12:33:39.000Z</time>
      </trkpt>
      <trkpt lat="43.32766" lon="-1.44922">
        <ele>99</ele>
        <time>2026-08-23T12:33:40.000Z</time>
      </trkpt>
      <trkpt lat="43.32754" lon="-1.44909">
        <ele>99</ele>
        <time>2026-08-23T12:33:42.000Z</time>
      </trkpt>
      <trkpt lat="43.3274" lon="-1.44897">
        <ele>102</ele>
        <time>2026-08-23T12:33:45.000Z</time>
      </trkpt>
      <trkpt lat="43.32732" lon="-1.44893">
        <ele>105</ele>
        <time>2026-08-23T12:33:47.000Z</time>
      </trkpt>
      <trkpt lat="43.3272" lon="-1.44881">
        <ele>107</ele>
        <time>2026-08-23T12:33:50.000Z</time>
      </trkpt>
      <trkpt lat="43.32706" lon="-1.44862">
        <ele>107</ele>
        <time>2026-08-23T12:33:53.000Z</time>
      </trkpt>
      <trkpt lat="43.32692" lon="-1.44842">
        <ele>104</ele>
        <time>2026-08-23T12:33:57.000Z</time>
      </trkpt>
      <trkpt lat="43.3269" lon="-1.4484">
        <ele>104</ele>
        <time>2026-08-23T12:33:57.000Z</time>
      </trkpt>
      <trkpt lat="43.32677" lon="-1.4482">
        <ele>102</ele>
        <time>2026-08-23T12:34:01.000Z</time>
      </trkpt>
      <trkpt lat="43.32667" lon="-1.44809">
        <ele>101</ele>
        <time>2026-08-23T12:34:03.000Z</time>
      </trkpt>
      <trkpt lat="43.32658" lon="-1.44803">
        <ele>101</ele>
        <time>2026-08-23T12:34:05.000Z</time>
      </trkpt>
      <trkpt lat="43.32647" lon="-1.44798">
        <ele>100</ele>
        <time>2026-08-23T12:34:07.000Z</time>
      </trkpt>
      <trkpt lat="43.3263" lon="-1.44791">
        <ele>100</ele>
        <time>2026-08-23T12:34:10.000Z</time>
      </trkpt>
      <trkpt lat="43.32612" lon="-1.44781">
        <ele>98</ele>
        <time>2026-08-23T12:34:13.000Z</time>
      </trkpt>
      <trkpt lat="43.32601" lon="-1.44772">
        <ele>96</ele>
        <time>2026-08-23T12:34:16.000Z</time>
      </trkpt>
      <trkpt lat="43.32597" lon="-1.44764">
        <ele>95</ele>
        <time>2026-08-23T12:34:17.000Z</time>
      </trkpt>
      <trkpt lat="43.32594" lon="-1.44754">
        <ele>92</ele>
        <time>2026-08-23T12:34:18.000Z</time>
      </trkpt>
      <trkpt lat="43.32587" lon="-1.44726">
        <ele>92</ele>
        <time>2026-08-23T12:34:22.000Z</time>
      </trkpt>
      <trkpt lat="43.32585" lon="-1.44714">
        <ele>92</ele>
        <time>2026-08-23T12:34:24.000Z</time>
      </trkpt>
      <trkpt lat="43.32581" lon="-1.44695">
        <ele>92</ele>
        <time>2026-08-23T12:34:26.000Z</time>
      </trkpt>
      <trkpt lat="43.3258" lon="-1.44691">
        <ele>92</ele>
        <time>2026-08-23T12:34:27.000Z</time>
      </trkpt>
      <trkpt lat="43.32572" lon="-1.44658">
        <ele>94</ele>
        <time>2026-08-23T12:34:31.000Z</time>
      </trkpt>
      <trkpt lat="43.3257" lon="-1.44648">
        <ele>95</ele>
        <time>2026-08-23T12:34:33.000Z</time>
      </trkpt>
      <trkpt lat="43.32568" lon="-1.44642">
        <ele>96</ele>
        <time>2026-08-23T12:34:33.000Z</time>
      </trkpt>
      <trkpt lat="43.32567" lon="-1.44635">
        <ele>97</ele>
        <time>2026-08-23T12:34:34.000Z</time>
      </trkpt>
      <trkpt lat="43.32563" lon="-1.44617">
        <ele>99</ele>
        <time>2026-08-23T12:34:37.000Z</time>
      </trkpt>
      <trkpt lat="43.32556" lon="-1.44587">
        <ele>103</ele>
        <time>2026-08-23T12:34:41.000Z</time>
      </trkpt>
      <trkpt lat="43.32553" lon="-1.44567">
        <ele>104</ele>
        <time>2026-08-23T12:34:44.000Z</time>
      </trkpt>
      <trkpt lat="43.32551" lon="-1.44551">
        <ele>105</ele>
        <time>2026-08-23T12:34:46.000Z</time>
      </trkpt>
      <trkpt lat="43.32549" lon="-1.44529">
        <ele>107</ele>
        <time>2026-08-23T12:34:49.000Z</time>
      </trkpt>
      <trkpt lat="43.32548" lon="-1.4452">
        <ele>107</ele>
        <time>2026-08-23T12:34:50.000Z</time>
      </trkpt>
      <trkpt lat="43.32545" lon="-1.44502">
        <ele>109</ele>
        <time>2026-08-23T12:34:52.000Z</time>
      </trkpt>
      <trkpt lat="43.32539" lon="-1.44475">
        <ele>109</ele>
        <time>2026-08-23T12:34:56.000Z</time>
      </trkpt>
      <trkpt lat="43.32533" lon="-1.44442">
        <ele>109</ele>
        <time>2026-08-23T12:35:00.000Z</time>
      </trkpt>
      <trkpt lat="43.32526" lon="-1.4442">
        <ele>109</ele>
        <time>2026-08-23T12:35:03.000Z</time>
      </trkpt>
      <trkpt lat="43.32522" lon="-1.44406">
        <ele>109</ele>
        <time>2026-08-23T12:35:05.000Z</time>
      </trkpt>
      <trkpt lat="43.32512" lon="-1.44374">
        <ele>108</ele>
        <time>2026-08-23T12:35:10.000Z</time>
      </trkpt>
      <trkpt lat="43.32508" lon="-1.44362">
        <ele>107</ele>
        <time>2026-08-23T12:35:11.000Z</time>
      </trkpt>
      <trkpt lat="43.32505" lon="-1.44352">
        <ele>107</ele>
        <time>2026-08-23T12:35:13.000Z</time>
      </trkpt>
      <trkpt lat="43.32501" lon="-1.44342">
        <ele>106</ele>
        <time>2026-08-23T12:35:14.000Z</time>
      </trkpt>
      <trkpt lat="43.32501" lon="-1.44338">
        <ele>106</ele>
        <time>2026-08-23T12:35:15.000Z</time>
      </trkpt>
      <trkpt lat="43.325" lon="-1.44334">
        <ele>106</ele>
        <time>2026-08-23T12:35:15.000Z</time>
      </trkpt>
      <trkpt lat="43.32501" lon="-1.44328">
        <ele>106</ele>
        <time>2026-08-23T12:35:16.000Z</time>
      </trkpt>
      <trkpt lat="43.32502" lon="-1.44322">
        <ele>106</ele>
        <time>2026-08-23T12:35:17.000Z</time>
      </trkpt>
      <trkpt lat="43.32504" lon="-1.44317">
        <ele>106</ele>
        <time>2026-08-23T12:35:18.000Z</time>
      </trkpt>
      <trkpt lat="43.32511" lon="-1.44302">
        <ele>106</ele>
        <time>2026-08-23T12:35:20.000Z</time>
      </trkpt>
      <trkpt lat="43.32513" lon="-1.44298">
        <ele>107</ele>
        <time>2026-08-23T12:35:21.000Z</time>
      </trkpt>
      <trkpt lat="43.32514" lon="-1.44293">
        <ele>107</ele>
        <time>2026-08-23T12:35:21.000Z</time>
      </trkpt>
      <trkpt lat="43.32515" lon="-1.44286">
        <ele>107</ele>
        <time>2026-08-23T12:35:22.000Z</time>
      </trkpt>
      <trkpt lat="43.32517" lon="-1.44279">
        <ele>107</ele>
        <time>2026-08-23T12:35:23.000Z</time>
      </trkpt>
      <trkpt lat="43.32518" lon="-1.44271">
        <ele>107</ele>
        <time>2026-08-23T12:35:24.000Z</time>
      </trkpt>
      <trkpt lat="43.32519" lon="-1.44256">
        <ele>107</ele>
        <time>2026-08-23T12:35:26.000Z</time>
      </trkpt>
      <trkpt lat="43.32518" lon="-1.44237">
        <ele>108</ele>
        <time>2026-08-23T12:35:29.000Z</time>
      </trkpt>
      <trkpt lat="43.32518" lon="-1.44227">
        <ele>109</ele>
        <time>2026-08-23T12:35:30.000Z</time>
      </trkpt>
      <trkpt lat="43.32518" lon="-1.44215">
        <ele>110</ele>
        <time>2026-08-23T12:35:32.000Z</time>
      </trkpt>
      <trkpt lat="43.32519" lon="-1.44202">
        <ele>111</ele>
        <time>2026-08-23T12:35:33.000Z</time>
      </trkpt>
      <trkpt lat="43.3252" lon="-1.44192">
        <ele>111</ele>
        <time>2026-08-23T12:35:35.000Z</time>
      </trkpt>
      <trkpt lat="43.32522" lon="-1.44178">
        <ele>112</ele>
        <time>2026-08-23T12:35:36.000Z</time>
      </trkpt>
      <trkpt lat="43.32526" lon="-1.44157">
        <ele>114</ele>
        <time>2026-08-23T12:35:39.000Z</time>
      </trkpt>
      <trkpt lat="43.32532" lon="-1.44134">
        <ele>116</ele>
        <time>2026-08-23T12:35:42.000Z</time>
      </trkpt>
      <trkpt lat="43.3254" lon="-1.44107">
        <ele>118</ele>
        <time>2026-08-23T12:35:46.000Z</time>
      </trkpt>
      <trkpt lat="43.32542" lon="-1.44097">
        <ele>118</ele>
        <time>2026-08-23T12:35:47.000Z</time>
      </trkpt>
      <trkpt lat="43.32546" lon="-1.44082">
        <ele>119</ele>
        <time>2026-08-23T12:35:50.000Z</time>
      </trkpt>
      <trkpt lat="43.32548" lon="-1.44068">
        <ele>120</ele>
        <time>2026-08-23T12:35:51.000Z</time>
      </trkpt>
      <trkpt lat="43.3255" lon="-1.44053">
        <ele>121</ele>
        <time>2026-08-23T12:35:53.000Z</time>
      </trkpt>
      <trkpt lat="43.32553" lon="-1.44033">
        <ele>122</ele>
        <time>2026-08-23T12:35:56.000Z</time>
      </trkpt>
      <trkpt lat="43.32555" lon="-1.44014">
        <ele>123</ele>
        <time>2026-08-23T12:35:58.000Z</time>
      </trkpt>
      <trkpt lat="43.32557" lon="-1.43994">
        <ele>123</ele>
        <time>2026-08-23T12:36:01.000Z</time>
      </trkpt>
      <trkpt lat="43.32559" lon="-1.43984">
        <ele>123</ele>
        <time>2026-08-23T12:36:02.000Z</time>
      </trkpt>
      <trkpt lat="43.32561" lon="-1.43969">
        <ele>122</ele>
        <time>2026-08-23T12:36:04.000Z</time>
      </trkpt>
      <trkpt lat="43.32563" lon="-1.43962">
        <ele>122</ele>
        <time>2026-08-23T12:36:05.000Z</time>
      </trkpt>
      <trkpt lat="43.32571" lon="-1.43929">
        <ele>120</ele>
        <time>2026-08-23T12:36:10.000Z</time>
      </trkpt>
      <trkpt lat="43.32576" lon="-1.43916">
        <ele>119</ele>
        <time>2026-08-23T12:36:12.000Z</time>
      </trkpt>
      <trkpt lat="43.32581" lon="-1.43903">
        <ele>119</ele>
        <time>2026-08-23T12:36:14.000Z</time>
      </trkpt>
      <trkpt lat="43.32586" lon="-1.43894">
        <ele>119</ele>
        <time>2026-08-23T12:36:15.000Z</time>
      </trkpt>
      <trkpt lat="43.32591" lon="-1.43888">
        <ele>120</ele>
        <time>2026-08-23T12:36:16.000Z</time>
      </trkpt>
      <trkpt lat="43.32603" lon="-1.43874">
        <ele>122</ele>
        <time>2026-08-23T12:36:19.000Z</time>
      </trkpt>
      <trkpt lat="43.32615" lon="-1.43862">
        <ele>123</ele>
        <time>2026-08-23T12:36:22.000Z</time>
      </trkpt>
      <trkpt lat="43.32635" lon="-1.43844">
        <ele>125</ele>
        <time>2026-08-23T12:36:26.000Z</time>
      </trkpt>
      <trkpt lat="43.32657" lon="-1.43827">
        <ele>126</ele>
        <time>2026-08-23T12:36:31.000Z</time>
      </trkpt>
      <trkpt lat="43.32668" lon="-1.43817">
        <ele>127</ele>
        <time>2026-08-23T12:36:33.000Z</time>
      </trkpt>
      <trkpt lat="43.32677" lon="-1.43807">
        <ele>129</ele>
        <time>2026-08-23T12:36:35.000Z</time>
      </trkpt>
      <trkpt lat="43.32685" lon="-1.43796">
        <ele>130</ele>
        <time>2026-08-23T12:36:37.000Z</time>
      </trkpt>
      <trkpt lat="43.32691" lon="-1.43787">
        <ele>131</ele>
        <time>2026-08-23T12:36:39.000Z</time>
      </trkpt>
      <trkpt lat="43.32697" lon="-1.43775">
        <ele>132</ele>
        <time>2026-08-23T12:36:40.000Z</time>
      </trkpt>
      <trkpt lat="43.32701" lon="-1.43762">
        <ele>133</ele>
        <time>2026-08-23T12:36:42.000Z</time>
      </trkpt>
      <trkpt lat="43.32705" lon="-1.43745">
        <ele>134</ele>
        <time>2026-08-23T12:36:45.000Z</time>
      </trkpt>
      <trkpt lat="43.32707" lon="-1.43738">
        <ele>134</ele>
        <time>2026-08-23T12:36:46.000Z</time>
      </trkpt>
      <trkpt lat="43.32712" lon="-1.43722">
        <ele>134</ele>
        <time>2026-08-23T12:36:48.000Z</time>
      </trkpt>
      <trkpt lat="43.32716" lon="-1.43712">
        <ele>134</ele>
        <time>2026-08-23T12:36:49.000Z</time>
      </trkpt>
      <trkpt lat="43.32721" lon="-1.43704">
        <ele>134</ele>
        <time>2026-08-23T12:36:51.000Z</time>
      </trkpt>
      <trkpt lat="43.32737" lon="-1.43683">
        <ele>135</ele>
        <time>2026-08-23T12:36:55.000Z</time>
      </trkpt>
      <trkpt lat="43.32745" lon="-1.43676">
        <ele>135</ele>
        <time>2026-08-23T12:36:56.000Z</time>
      </trkpt>
      <trkpt lat="43.32765" lon="-1.43655">
        <ele>135</ele>
        <time>2026-08-23T12:37:01.000Z</time>
      </trkpt>
      <trkpt lat="43.3279" lon="-1.43633">
        <ele>134</ele>
        <time>2026-08-23T12:37:06.000Z</time>
      </trkpt>
      <trkpt lat="43.32811" lon="-1.43615">
        <ele>133</ele>
        <time>2026-08-23T12:37:10.000Z</time>
      </trkpt>
      <trkpt lat="43.32822" lon="-1.43606">
        <ele>132</ele>
        <time>2026-08-23T12:37:13.000Z</time>
      </trkpt>
      <trkpt lat="43.32825" lon="-1.43598">
        <ele>131</ele>
        <time>2026-08-23T12:37:14.000Z</time>
      </trkpt>
      <trkpt lat="43.32828" lon="-1.43587">
        <ele>130</ele>
        <time>2026-08-23T12:37:15.000Z</time>
      </trkpt>
      <trkpt lat="43.3283" lon="-1.43572">
        <ele>129</ele>
        <time>2026-08-23T12:37:17.000Z</time>
      </trkpt>
      <trkpt lat="43.3283" lon="-1.43556">
        <ele>128</ele>
        <time>2026-08-23T12:37:19.000Z</time>
      </trkpt>
      <trkpt lat="43.32828" lon="-1.43539">
        <ele>127</ele>
        <time>2026-08-23T12:37:22.000Z</time>
      </trkpt>
      <trkpt lat="43.32825" lon="-1.43521">
        <ele>125</ele>
        <time>2026-08-23T12:37:24.000Z</time>
      </trkpt>
      <trkpt lat="43.3282" lon="-1.43503">
        <ele>124</ele>
        <time>2026-08-23T12:37:27.000Z</time>
      </trkpt>
      <trkpt lat="43.32814" lon="-1.43482">
        <ele>123</ele>
        <time>2026-08-23T12:37:29.000Z</time>
      </trkpt>
      <trkpt lat="43.3281" lon="-1.43464">
        <ele>122</ele>
        <time>2026-08-23T12:37:32.000Z</time>
      </trkpt>
      <trkpt lat="43.32809" lon="-1.43452">
        <ele>122</ele>
        <time>2026-08-23T12:37:33.000Z</time>
      </trkpt>
      <trkpt lat="43.32808" lon="-1.4344">
        <ele>122</ele>
        <time>2026-08-23T12:37:35.000Z</time>
      </trkpt>
      <trkpt lat="43.32808" lon="-1.43426">
        <ele>121</ele>
        <time>2026-08-23T12:37:37.000Z</time>
      </trkpt>
      <trkpt lat="43.32809" lon="-1.43412">
        <ele>121</ele>
        <time>2026-08-23T12:37:39.000Z</time>
      </trkpt>
      <trkpt lat="43.32814" lon="-1.43388">
        <ele>120</ele>
        <time>2026-08-23T12:37:42.000Z</time>
      </trkpt>
      <trkpt lat="43.32819" lon="-1.43356">
        <ele>118</ele>
        <time>2026-08-23T12:37:46.000Z</time>
      </trkpt>
      <trkpt lat="43.32824" lon="-1.43329">
        <ele>117</ele>
        <time>2026-08-23T12:37:50.000Z</time>
      </trkpt>
      <trkpt lat="43.32828" lon="-1.43303">
        <ele>117</ele>
        <time>2026-08-23T12:37:53.000Z</time>
      </trkpt>
      <trkpt lat="43.3283" lon="-1.43278">
        <ele>117</ele>
        <time>2026-08-23T12:37:56.000Z</time>
      </trkpt>
      <trkpt lat="43.32834" lon="-1.43251">
        <ele>117</ele>
        <time>2026-08-23T12:38:00.000Z</time>
      </trkpt>
      <trkpt lat="43.32838" lon="-1.43214">
        <ele>115</ele>
        <time>2026-08-23T12:38:05.000Z</time>
      </trkpt>
      <trkpt lat="43.32841" lon="-1.43198">
        <ele>115</ele>
        <time>2026-08-23T12:38:07.000Z</time>
      </trkpt>
      <trkpt lat="43.32844" lon="-1.43186">
        <ele>114</ele>
        <time>2026-08-23T12:38:09.000Z</time>
      </trkpt>
      <trkpt lat="43.32853" lon="-1.43162">
        <ele>114</ele>
        <time>2026-08-23T12:38:12.000Z</time>
      </trkpt>
      <trkpt lat="43.32864" lon="-1.43137">
        <ele>114</ele>
        <time>2026-08-23T12:38:16.000Z</time>
      </trkpt>
      <trkpt lat="43.32871" lon="-1.43123">
        <ele>114</ele>
        <time>2026-08-23T12:38:18.000Z</time>
      </trkpt>
      <trkpt lat="43.32878" lon="-1.4311">
        <ele>114</ele>
        <time>2026-08-23T12:38:20.000Z</time>
      </trkpt>
      <trkpt lat="43.3289" lon="-1.43093">
        <ele>114</ele>
        <time>2026-08-23T12:38:23.000Z</time>
      </trkpt>
      <trkpt lat="43.32898" lon="-1.43082">
        <ele>114</ele>
        <time>2026-08-23T12:38:25.000Z</time>
      </trkpt>
      <trkpt lat="43.32901" lon="-1.43075">
        <ele>114</ele>
        <time>2026-08-23T12:38:26.000Z</time>
      </trkpt>
      <trkpt lat="43.32902" lon="-1.43066">
        <ele>113</ele>
        <time>2026-08-23T12:38:27.000Z</time>
      </trkpt>
      <trkpt lat="43.32902" lon="-1.43057">
        <ele>113</ele>
        <time>2026-08-23T12:38:29.000Z</time>
      </trkpt>
      <trkpt lat="43.329" lon="-1.43042">
        <ele>113</ele>
        <time>2026-08-23T12:38:31.000Z</time>
      </trkpt>
      <trkpt lat="43.32897" lon="-1.43026">
        <ele>112</ele>
        <time>2026-08-23T12:38:33.000Z</time>
      </trkpt>
      <trkpt lat="43.32895" lon="-1.43015">
        <ele>111</ele>
        <time>2026-08-23T12:38:34.000Z</time>
      </trkpt>
      <trkpt lat="43.32895" lon="-1.42998">
        <ele>111</ele>
        <time>2026-08-23T12:38:36.000Z</time>
      </trkpt>
      <trkpt lat="43.32894" lon="-1.4296">
        <ele>109</ele>
        <time>2026-08-23T12:38:41.000Z</time>
      </trkpt>
      <trkpt lat="43.32893" lon="-1.42946">
        <ele>109</ele>
        <time>2026-08-23T12:38:43.000Z</time>
      </trkpt>
      <trkpt lat="43.32894" lon="-1.42935">
        <ele>109</ele>
        <time>2026-08-23T12:38:45.000Z</time>
      </trkpt>
      <trkpt lat="43.32896" lon="-1.42923">
        <ele>108</ele>
        <time>2026-08-23T12:38:46.000Z</time>
      </trkpt>
      <trkpt lat="43.32902" lon="-1.42909">
        <ele>108</ele>
        <time>2026-08-23T12:38:48.000Z</time>
      </trkpt>
      <trkpt lat="43.32909" lon="-1.42898">
        <ele>107</ele>
        <time>2026-08-23T12:38:50.000Z</time>
      </trkpt>
      <trkpt lat="43.32919" lon="-1.42887">
        <ele>107</ele>
        <time>2026-08-23T12:38:52.000Z</time>
      </trkpt>
      <trkpt lat="43.32931" lon="-1.42869">
        <ele>107</ele>
        <time>2026-08-23T12:38:56.000Z</time>
      </trkpt>
      <trkpt lat="43.32935" lon="-1.42861">
        <ele>107</ele>
        <time>2026-08-23T12:38:57.000Z</time>
      </trkpt>
      <trkpt lat="43.32961" lon="-1.42813">
        <ele>106</ele>
        <time>2026-08-23T12:39:05.000Z</time>
      </trkpt>
      <trkpt lat="43.32983" lon="-1.42762">
        <ele>103</ele>
        <time>2026-08-23T12:39:12.000Z</time>
      </trkpt>
      <trkpt lat="43.32988" lon="-1.42751">
        <ele>102</ele>
        <time>2026-08-23T12:39:14.000Z</time>
      </trkpt>
      <trkpt lat="43.32993" lon="-1.42745">
        <ele>102</ele>
        <time>2026-08-23T12:39:15.000Z</time>
      </trkpt>
      <trkpt lat="43.32996" lon="-1.42741">
        <ele>102</ele>
        <time>2026-08-23T12:39:16.000Z</time>
      </trkpt>
      <trkpt lat="43.33" lon="-1.42739">
        <ele>101</ele>
        <time>2026-08-23T12:39:17.000Z</time>
      </trkpt>
      <trkpt lat="43.33011" lon="-1.42731">
        <ele>103</ele>
        <time>2026-08-23T12:39:19.000Z</time>
      </trkpt>
      <trkpt lat="43.33025" lon="-1.42725">
        <ele>105</ele>
        <time>2026-08-23T12:39:21.000Z</time>
      </trkpt>
      <trkpt lat="43.33036" lon="-1.42719">
        <ele>106</ele>
        <time>2026-08-23T12:39:24.000Z</time>
      </trkpt>
      <trkpt lat="43.33052" lon="-1.42708">
        <ele>107</ele>
        <time>2026-08-23T12:39:27.000Z</time>
      </trkpt>
      <trkpt lat="43.33053" lon="-1.42707">
        <ele>108</ele>
        <time>2026-08-23T12:39:27.000Z</time>
      </trkpt>
      <trkpt lat="43.33059" lon="-1.42701">
        <ele>108</ele>
        <time>2026-08-23T12:39:28.000Z</time>
      </trkpt>
      <trkpt lat="43.33064" lon="-1.42693">
        <ele>108</ele>
        <time>2026-08-23T12:39:30.000Z</time>
      </trkpt>
      <trkpt lat="43.33068" lon="-1.42683">
        <ele>108</ele>
        <time>2026-08-23T12:39:31.000Z</time>
      </trkpt>
      <trkpt lat="43.33074" lon="-1.42668">
        <ele>107</ele>
        <time>2026-08-23T12:39:33.000Z</time>
      </trkpt>
      <trkpt lat="43.33083" lon="-1.42641">
        <ele>105</ele>
        <time>2026-08-23T12:39:37.000Z</time>
      </trkpt>
      <trkpt lat="43.3309" lon="-1.42617">
        <ele>103</ele>
        <time>2026-08-23T12:39:41.000Z</time>
      </trkpt>
      <trkpt lat="43.33097" lon="-1.42592">
        <ele>102</ele>
        <time>2026-08-23T12:39:44.000Z</time>
      </trkpt>
      <trkpt lat="43.33102" lon="-1.42566">
        <ele>101</ele>
        <time>2026-08-23T12:39:47.000Z</time>
      </trkpt>
      <trkpt lat="43.33105" lon="-1.42554">
        <ele>101</ele>
        <time>2026-08-23T12:39:49.000Z</time>
      </trkpt>
      <trkpt lat="43.33108" lon="-1.42547">
        <ele>101</ele>
        <time>2026-08-23T12:39:50.000Z</time>
      </trkpt>
      <trkpt lat="43.33116" lon="-1.42529">
        <ele>101</ele>
        <time>2026-08-23T12:39:53.000Z</time>
      </trkpt>
      <trkpt lat="43.33129" lon="-1.42506">
        <ele>102</ele>
        <time>2026-08-23T12:39:57.000Z</time>
      </trkpt>
      <trkpt lat="43.33133" lon="-1.42496">
        <ele>102</ele>
        <time>2026-08-23T12:39:58.000Z</time>
      </trkpt>
      <trkpt lat="43.33138" lon="-1.42484">
        <ele>103</ele>
        <time>2026-08-23T12:40:00.000Z</time>
      </trkpt>
      <trkpt lat="43.33139" lon="-1.42478">
        <ele>103</ele>
        <time>2026-08-23T12:40:01.000Z</time>
      </trkpt>
      <trkpt lat="43.3314" lon="-1.42468">
        <ele>103</ele>
        <time>2026-08-23T12:40:02.000Z</time>
      </trkpt>
      <trkpt lat="43.3314" lon="-1.42455">
        <ele>103</ele>
        <time>2026-08-23T12:40:04.000Z</time>
      </trkpt>
      <trkpt lat="43.3314" lon="-1.42421">
        <ele>103</ele>
        <time>2026-08-23T12:40:08.000Z</time>
      </trkpt>
      <trkpt lat="43.3314" lon="-1.42385">
        <ele>103</ele>
        <time>2026-08-23T12:40:13.000Z</time>
      </trkpt>
      <trkpt lat="43.3314" lon="-1.42356">
        <ele>103</ele>
        <time>2026-08-23T12:40:17.000Z</time>
      </trkpt>
      <trkpt lat="43.3314" lon="-1.42337">
        <ele>104</ele>
        <time>2026-08-23T12:40:19.000Z</time>
      </trkpt>
      <trkpt lat="43.3314" lon="-1.4232">
        <ele>103</ele>
        <time>2026-08-23T12:40:21.000Z</time>
      </trkpt>
      <trkpt lat="43.33141" lon="-1.42306">
        <ele>102</ele>
        <time>2026-08-23T12:40:23.000Z</time>
      </trkpt>
      <trkpt lat="43.33144" lon="-1.42281">
        <ele>102</ele>
        <time>2026-08-23T12:40:26.000Z</time>
      </trkpt>
      <trkpt lat="43.33148" lon="-1.4226">
        <ele>101</ele>
        <time>2026-08-23T12:40:29.000Z</time>
      </trkpt>
      <trkpt lat="43.33148" lon="-1.42246">
        <ele>101</ele>
        <time>2026-08-23T12:40:31.000Z</time>
      </trkpt>
      <trkpt lat="43.33148" lon="-1.42229">
        <ele>100</ele>
        <time>2026-08-23T12:40:33.000Z</time>
      </trkpt>
      <trkpt lat="43.33147" lon="-1.42197">
        <ele>98</ele>
        <time>2026-08-23T12:40:37.000Z</time>
      </trkpt>
      <trkpt lat="43.33148" lon="-1.42177">
        <ele>97</ele>
        <time>2026-08-23T12:40:40.000Z</time>
      </trkpt>
      <trkpt lat="43.33149" lon="-1.42171">
        <ele>96</ele>
        <time>2026-08-23T12:40:41.000Z</time>
      </trkpt>
      <trkpt lat="43.33151" lon="-1.42154">
        <ele>96</ele>
        <time>2026-08-23T12:40:43.000Z</time>
      </trkpt>
      <trkpt lat="43.33155" lon="-1.42135">
        <ele>95</ele>
        <time>2026-08-23T12:40:45.000Z</time>
      </trkpt>
      <trkpt lat="43.33158" lon="-1.4212">
        <ele>95</ele>
        <time>2026-08-23T12:40:47.000Z</time>
      </trkpt>
      <trkpt lat="43.33162" lon="-1.42107">
        <ele>95</ele>
        <time>2026-08-23T12:40:49.000Z</time>
      </trkpt>
      <trkpt lat="43.33168" lon="-1.42093">
        <ele>95</ele>
        <time>2026-08-23T12:40:51.000Z</time>
      </trkpt>
      <trkpt lat="43.33175" lon="-1.42081">
        <ele>95</ele>
        <time>2026-08-23T12:40:53.000Z</time>
      </trkpt>
      <trkpt lat="43.33189" lon="-1.4206">
        <ele>96</ele>
        <time>2026-08-23T12:40:57.000Z</time>
      </trkpt>
      <trkpt lat="43.33205" lon="-1.42034">
        <ele>98</ele>
        <time>2026-08-23T12:41:01.000Z</time>
      </trkpt>
      <trkpt lat="43.33232" lon="-1.4199">
        <ele>101</ele>
        <time>2026-08-23T12:41:09.000Z</time>
      </trkpt>
      <trkpt lat="43.3325" lon="-1.41958">
        <ele>102</ele>
        <time>2026-08-23T12:41:14.000Z</time>
      </trkpt>
      <trkpt lat="43.33258" lon="-1.41943">
        <ele>103</ele>
        <time>2026-08-23T12:41:17.000Z</time>
      </trkpt>
      <trkpt lat="43.33262" lon="-1.41932">
        <ele>104</ele>
        <time>2026-08-23T12:41:18.000Z</time>
      </trkpt>
      <trkpt lat="43.33266" lon="-1.41915">
        <ele>104</ele>
        <time>2026-08-23T12:41:20.000Z</time>
      </trkpt>
      <trkpt lat="43.3327" lon="-1.41888">
        <ele>103</ele>
        <time>2026-08-23T12:41:24.000Z</time>
      </trkpt>
      <trkpt lat="43.33273" lon="-1.41845">
        <ele>100</ele>
        <time>2026-08-23T12:41:30.000Z</time>
      </trkpt>
      <trkpt lat="43.33273" lon="-1.4181">
        <ele>99</ele>
        <time>2026-08-23T12:41:34.000Z</time>
      </trkpt>
      <trkpt lat="43.33272" lon="-1.41794">
        <ele>99</ele>
        <time>2026-08-23T12:41:36.000Z</time>
      </trkpt>
      <trkpt lat="43.33269" lon="-1.41783">
        <ele>98</ele>
        <time>2026-08-23T12:41:38.000Z</time>
      </trkpt>
      <trkpt lat="43.33259" lon="-1.41768">
        <ele>98</ele>
        <time>2026-08-23T12:41:40.000Z</time>
      </trkpt>
      <trkpt lat="43.33248" lon="-1.41758">
        <ele>97</ele>
        <time>2026-08-23T12:41:43.000Z</time>
      </trkpt>
      <trkpt lat="43.3323" lon="-1.41743">
        <ele>97</ele>
        <time>2026-08-23T12:41:46.000Z</time>
      </trkpt>
      <trkpt lat="43.33215" lon="-1.41731">
        <ele>96</ele>
        <time>2026-08-23T12:41:50.000Z</time>
      </trkpt>
      <trkpt lat="43.33211" lon="-1.41726">
        <ele>96</ele>
        <time>2026-08-23T12:41:51.000Z</time>
      </trkpt>
      <trkpt lat="43.33207" lon="-1.41713">
        <ele>95</ele>
        <time>2026-08-23T12:41:52.000Z</time>
      </trkpt>
      <trkpt lat="43.33205" lon="-1.41706">
        <ele>95</ele>
        <time>2026-08-23T12:41:53.000Z</time>
      </trkpt>
      <trkpt lat="43.33203" lon="-1.417">
        <ele>95</ele>
        <time>2026-08-23T12:41:54.000Z</time>
      </trkpt>
      <trkpt lat="43.332" lon="-1.41683">
        <ele>94</ele>
        <time>2026-08-23T12:41:56.000Z</time>
      </trkpt>
      <trkpt lat="43.332" lon="-1.41666">
        <ele>94</ele>
        <time>2026-08-23T12:41:59.000Z</time>
      </trkpt>
      <trkpt lat="43.332" lon="-1.41652">
        <ele>93</ele>
        <time>2026-08-23T12:42:00.000Z</time>
      </trkpt>
      <trkpt lat="43.33201" lon="-1.41636">
        <ele>93</ele>
        <time>2026-08-23T12:42:03.000Z</time>
      </trkpt>
      <trkpt lat="43.33203" lon="-1.4162">
        <ele>92</ele>
        <time>2026-08-23T12:42:05.000Z</time>
      </trkpt>
      <trkpt lat="43.33205" lon="-1.41602">
        <ele>92</ele>
        <time>2026-08-23T12:42:07.000Z</time>
      </trkpt>
      <trkpt lat="43.33209" lon="-1.41575">
        <ele>91</ele>
        <time>2026-08-23T12:42:11.000Z</time>
      </trkpt>
      <trkpt lat="43.33213" lon="-1.41555">
        <ele>90</ele>
        <time>2026-08-23T12:42:13.000Z</time>
      </trkpt>
      <trkpt lat="43.33217" lon="-1.41529">
        <ele>88</ele>
        <time>2026-08-23T12:42:17.000Z</time>
      </trkpt>
      <trkpt lat="43.3322" lon="-1.4151">
        <ele>87</ele>
        <time>2026-08-23T12:42:19.000Z</time>
      </trkpt>
      <trkpt lat="43.33221" lon="-1.41492">
        <ele>87</ele>
        <time>2026-08-23T12:42:22.000Z</time>
      </trkpt>
      <trkpt lat="43.33222" lon="-1.4147">
        <ele>86</ele>
        <time>2026-08-23T12:42:24.000Z</time>
      </trkpt>
      <trkpt lat="43.33224" lon="-1.4144">
        <ele>85</ele>
        <time>2026-08-23T12:42:28.000Z</time>
      </trkpt>
      <trkpt lat="43.33225" lon="-1.41412">
        <ele>84</ele>
        <time>2026-08-23T12:42:32.000Z</time>
      </trkpt>
      <trkpt lat="43.33225" lon="-1.4139">
        <ele>85</ele>
        <time>2026-08-23T12:42:35.000Z</time>
      </trkpt>
      <trkpt lat="43.33227" lon="-1.41372">
        <ele>86</ele>
        <time>2026-08-23T12:42:37.000Z</time>
      </trkpt>
      <trkpt lat="43.33227" lon="-1.41367">
        <ele>86</ele>
        <time>2026-08-23T12:42:38.000Z</time>
      </trkpt>
      <trkpt lat="43.33229" lon="-1.41356">
        <ele>87</ele>
        <time>2026-08-23T12:42:39.000Z</time>
      </trkpt>
      <trkpt lat="43.33232" lon="-1.41347">
        <ele>87</ele>
        <time>2026-08-23T12:42:41.000Z</time>
      </trkpt>
      <trkpt lat="43.33237" lon="-1.41335">
        <ele>89</ele>
        <time>2026-08-23T12:42:42.000Z</time>
      </trkpt>
      <trkpt lat="43.33241" lon="-1.41327">
        <ele>89</ele>
        <time>2026-08-23T12:42:44.000Z</time>
      </trkpt>
      <trkpt lat="43.33248" lon="-1.41315">
        <ele>91</ele>
        <time>2026-08-23T12:42:46.000Z</time>
      </trkpt>
      <trkpt lat="43.3326" lon="-1.41299">
        <ele>92</ele>
        <time>2026-08-23T12:42:49.000Z</time>
      </trkpt>
      <trkpt lat="43.33268" lon="-1.41289">
        <ele>92</ele>
        <time>2026-08-23T12:42:50.000Z</time>
      </trkpt>
      <trkpt lat="43.3327" lon="-1.41286">
        <ele>92</ele>
        <time>2026-08-23T12:42:51.000Z</time>
      </trkpt>
      <trkpt lat="43.33274" lon="-1.4128">
        <ele>93</ele>
        <time>2026-08-23T12:42:52.000Z</time>
      </trkpt>
      <trkpt lat="43.33276" lon="-1.41275">
        <ele>93</ele>
        <time>2026-08-23T12:42:53.000Z</time>
      </trkpt>
      <trkpt lat="43.33278" lon="-1.41268">
        <ele>93</ele>
        <time>2026-08-23T12:42:54.000Z</time>
      </trkpt>
      <trkpt lat="43.33281" lon="-1.41258">
        <ele>93</ele>
        <time>2026-08-23T12:42:55.000Z</time>
      </trkpt>
      <trkpt lat="43.33281" lon="-1.41245">
        <ele>94</ele>
        <time>2026-08-23T12:42:57.000Z</time>
      </trkpt>
      <trkpt lat="43.33281" lon="-1.41233">
        <ele>93</ele>
        <time>2026-08-23T12:42:58.000Z</time>
      </trkpt>
      <trkpt lat="43.3328" lon="-1.4122">
        <ele>93</ele>
        <time>2026-08-23T12:43:00.000Z</time>
      </trkpt>
      <trkpt lat="43.33277" lon="-1.41205">
        <ele>93</ele>
        <time>2026-08-23T12:43:02.000Z</time>
      </trkpt>
      <trkpt lat="43.33277" lon="-1.41199">
        <ele>93</ele>
        <time>2026-08-23T12:43:03.000Z</time>
      </trkpt>
      <trkpt lat="43.33274" lon="-1.41178">
        <ele>92</ele>
        <time>2026-08-23T12:43:06.000Z</time>
      </trkpt>
      <trkpt lat="43.33271" lon="-1.41143">
        <ele>92</ele>
        <time>2026-08-23T12:43:10.000Z</time>
      </trkpt>
      <trkpt lat="43.33268" lon="-1.41108">
        <ele>91</ele>
        <time>2026-08-23T12:43:15.000Z</time>
      </trkpt>
      <trkpt lat="43.33267" lon="-1.411">
        <ele>91</ele>
        <time>2026-08-23T12:43:16.000Z</time>
      </trkpt>
      <trkpt lat="43.33267" lon="-1.41093">
        <ele>90</ele>
        <time>2026-08-23T12:43:17.000Z</time>
      </trkpt>
      <trkpt lat="43.33267" lon="-1.41078">
        <ele>90</ele>
        <time>2026-08-23T12:43:19.000Z</time>
      </trkpt>
      <trkpt lat="43.33267" lon="-1.41076">
        <ele>90</ele>
        <time>2026-08-23T12:43:19.000Z</time>
      </trkpt>
      <trkpt lat="43.33267" lon="-1.41057">
        <ele>89</ele>
        <time>2026-08-23T12:43:21.000Z</time>
      </trkpt>
      <trkpt lat="43.33267" lon="-1.41038">
        <ele>89</ele>
        <time>2026-08-23T12:43:24.000Z</time>
      </trkpt>
      <trkpt lat="43.33266" lon="-1.41022">
        <ele>88</ele>
        <time>2026-08-23T12:43:26.000Z</time>
      </trkpt>
      <trkpt lat="43.33264" lon="-1.41008">
        <ele>88</ele>
        <time>2026-08-23T12:43:28.000Z</time>
      </trkpt>
      <trkpt lat="43.33264" lon="-1.41002">
        <ele>87</ele>
        <time>2026-08-23T12:43:29.000Z</time>
      </trkpt>
      <trkpt lat="43.33263" lon="-1.40991">
        <ele>87</ele>
        <time>2026-08-23T12:43:30.000Z</time>
      </trkpt>
      <trkpt lat="43.33262" lon="-1.40959">
        <ele>87</ele>
        <time>2026-08-23T12:43:34.000Z</time>
      </trkpt>
      <trkpt lat="43.33262" lon="-1.40947">
        <ele>87</ele>
        <time>2026-08-23T12:43:36.000Z</time>
      </trkpt>
      <trkpt lat="43.33264" lon="-1.40935">
        <ele>87</ele>
        <time>2026-08-23T12:43:37.000Z</time>
      </trkpt>
      <trkpt lat="43.3327" lon="-1.40907">
        <ele>86</ele>
        <time>2026-08-23T12:43:41.000Z</time>
      </trkpt>
      <trkpt lat="43.33274" lon="-1.40889">
        <ele>85</ele>
        <time>2026-08-23T12:43:43.000Z</time>
      </trkpt>
      <trkpt lat="43.33277" lon="-1.40879">
        <ele>84</ele>
        <time>2026-08-23T12:43:45.000Z</time>
      </trkpt>
      <trkpt lat="43.33278" lon="-1.40874">
        <ele>84</ele>
        <time>2026-08-23T12:43:46.000Z</time>
      </trkpt>
      <trkpt lat="43.33278" lon="-1.40867">
        <ele>83</ele>
        <time>2026-08-23T12:43:46.000Z</time>
      </trkpt>
      <trkpt lat="43.33278" lon="-1.4085">
        <ele>83</ele>
        <time>2026-08-23T12:43:49.000Z</time>
      </trkpt>
      <trkpt lat="43.33275" lon="-1.40839">
        <ele>82</ele>
        <time>2026-08-23T12:43:50.000Z</time>
      </trkpt>
      <trkpt lat="43.3327" lon="-1.40821">
        <ele>82</ele>
        <time>2026-08-23T12:43:53.000Z</time>
      </trkpt>
      <trkpt lat="43.33269" lon="-1.40818">
        <ele>82</ele>
        <time>2026-08-23T12:43:53.000Z</time>
      </trkpt>
      <trkpt lat="43.33266" lon="-1.40804">
        <ele>82</ele>
        <time>2026-08-23T12:43:55.000Z</time>
      </trkpt>
      <trkpt lat="43.33263" lon="-1.40784">
        <ele>81</ele>
        <time>2026-08-23T12:43:58.000Z</time>
      </trkpt>
      <trkpt lat="43.33254" lon="-1.40727">
        <ele>80</ele>
        <time>2026-08-23T12:44:05.000Z</time>
      </trkpt>
      <trkpt lat="43.33248" lon="-1.40675">
        <ele>80</ele>
        <time>2026-08-23T12:44:12.000Z</time>
      </trkpt>
      <trkpt lat="43.33246" lon="-1.4062">
        <ele>80</ele>
        <time>2026-08-23T12:44:19.000Z</time>
      </trkpt>
      <trkpt lat="43.33242" lon="-1.4058">
        <ele>80</ele>
        <time>2026-08-23T12:44:24.000Z</time>
      </trkpt>
      <trkpt lat="43.33239" lon="-1.40554">
        <ele>79</ele>
        <time>2026-08-23T12:44:28.000Z</time>
      </trkpt>
      <trkpt lat="43.33234" lon="-1.40516">
        <ele>79</ele>
        <time>2026-08-23T12:44:33.000Z</time>
      </trkpt>
      <trkpt lat="43.33232" lon="-1.40502">
        <ele>78</ele>
        <time>2026-08-23T12:44:35.000Z</time>
      </trkpt>
      <trkpt lat="43.33232" lon="-1.4049">
        <ele>79</ele>
        <time>2026-08-23T12:44:36.000Z</time>
      </trkpt>
      <trkpt lat="43.33233" lon="-1.4047">
        <ele>79</ele>
        <time>2026-08-23T12:44:39.000Z</time>
      </trkpt>
      <trkpt lat="43.33234" lon="-1.40432">
        <ele>80</ele>
        <time>2026-08-23T12:44:44.000Z</time>
      </trkpt>
      <trkpt lat="43.33235" lon="-1.40402">
        <ele>81</ele>
        <time>2026-08-23T12:44:48.000Z</time>
      </trkpt>
      <trkpt lat="43.33235" lon="-1.40389">
        <ele>81</ele>
        <time>2026-08-23T12:44:49.000Z</time>
      </trkpt>
      <trkpt lat="43.33234" lon="-1.40378">
        <ele>81</ele>
        <time>2026-08-23T12:44:51.000Z</time>
      </trkpt>
      <trkpt lat="43.33233" lon="-1.40366">
        <ele>82</ele>
        <time>2026-08-23T12:44:52.000Z</time>
      </trkpt>
      <trkpt lat="43.3323" lon="-1.40345">
        <ele>82</ele>
        <time>2026-08-23T12:44:55.000Z</time>
      </trkpt>
      <trkpt lat="43.33227" lon="-1.4033">
        <ele>82</ele>
        <time>2026-08-23T12:44:57.000Z</time>
      </trkpt>
      <trkpt lat="43.33224" lon="-1.40314">
        <ele>81</ele>
        <time>2026-08-23T12:44:59.000Z</time>
      </trkpt>
      <trkpt lat="43.33217" lon="-1.40287">
        <ele>80</ele>
        <time>2026-08-23T12:45:03.000Z</time>
      </trkpt>
      <trkpt lat="43.33212" lon="-1.40267">
        <ele>79</ele>
        <time>2026-08-23T12:45:06.000Z</time>
      </trkpt>
      <trkpt lat="43.3321" lon="-1.40251">
        <ele>78</ele>
        <time>2026-08-23T12:45:08.000Z</time>
      </trkpt>
      <trkpt lat="43.33209" lon="-1.40237">
        <ele>77</ele>
        <time>2026-08-23T12:45:10.000Z</time>
      </trkpt>
      <trkpt lat="43.33209" lon="-1.40219">
        <ele>75</ele>
        <time>2026-08-23T12:45:12.000Z</time>
      </trkpt>
      <trkpt lat="43.33209" lon="-1.40203">
        <ele>74</ele>
        <time>2026-08-23T12:45:14.000Z</time>
      </trkpt>
      <trkpt lat="43.33211" lon="-1.40183">
        <ele>73</ele>
        <time>2026-08-23T12:45:17.000Z</time>
      </trkpt>
      <trkpt lat="43.33214" lon="-1.40155">
        <ele>71</ele>
        <time>2026-08-23T12:45:20.000Z</time>
      </trkpt>
      <trkpt lat="43.33216" lon="-1.40137">
        <ele>71</ele>
        <time>2026-08-23T12:45:23.000Z</time>
      </trkpt>
      <trkpt lat="43.33217" lon="-1.40132">
        <ele>70</ele>
        <time>2026-08-23T12:45:23.000Z</time>
      </trkpt>
      <trkpt lat="43.33216" lon="-1.40127">
        <ele>70</ele>
        <time>2026-08-23T12:45:24.000Z</time>
      </trkpt>
      <trkpt lat="43.33215" lon="-1.40119">
        <ele>69</ele>
        <time>2026-08-23T12:45:25.000Z</time>
      </trkpt>
      <trkpt lat="43.33214" lon="-1.40115">
        <ele>69</ele>
        <time>2026-08-23T12:45:26.000Z</time>
      </trkpt>
      <trkpt lat="43.33211" lon="-1.40104">
        <ele>68</ele>
        <time>2026-08-23T12:45:27.000Z</time>
      </trkpt>
      <trkpt lat="43.33206" lon="-1.40082">
        <ele>66</ele>
        <time>2026-08-23T12:45:30.000Z</time>
      </trkpt>
      <trkpt lat="43.33203" lon="-1.4006">
        <ele>65</ele>
        <time>2026-08-23T12:45:33.000Z</time>
      </trkpt>
      <trkpt lat="43.33202" lon="-1.40043">
        <ele>64</ele>
        <time>2026-08-23T12:45:35.000Z</time>
      </trkpt>
      <trkpt lat="43.33203" lon="-1.40033">
        <ele>64</ele>
        <time>2026-08-23T12:45:36.000Z</time>
      </trkpt>
      <trkpt lat="43.33205" lon="-1.4003">
        <ele>64</ele>
        <time>2026-08-23T12:45:37.000Z</time>
      </trkpt>
      <trkpt lat="43.33206" lon="-1.40026">
        <ele>64</ele>
        <time>2026-08-23T12:45:37.000Z</time>
      </trkpt>
      <trkpt lat="43.33206" lon="-1.40019">
        <ele>64</ele>
        <time>2026-08-23T12:45:38.000Z</time>
      </trkpt>
      <trkpt lat="43.33208" lon="-1.4001">
        <ele>63</ele>
        <time>2026-08-23T12:45:40.000Z</time>
      </trkpt>
      <trkpt lat="43.33208" lon="-1.4001">
        <ele>63</ele>
        <time>2026-08-23T12:45:40.000Z</time>
      </trkpt>
      <trkpt lat="43.33221" lon="-1.39994">
        <ele>65</ele>
        <time>2026-08-23T12:45:43.000Z</time>
      </trkpt>
      <trkpt lat="43.33221" lon="-1.39994">
        <ele>65</ele>
        <time>2026-08-23T12:45:43.000Z</time>
      </trkpt>
      <trkpt lat="43.33209" lon="-1.3997">
        <ele>63</ele>
        <time>2026-08-23T12:45:46.000Z</time>
      </trkpt>
      <trkpt lat="43.33199" lon="-1.3995">
        <ele>61</ele>
        <time>2026-08-23T12:45:50.000Z</time>
      </trkpt>
      <trkpt lat="43.33198" lon="-1.39949">
        <ele>61</ele>
        <time>2026-08-23T12:45:50.000Z</time>
      </trkpt>
      <trkpt lat="43.33184" lon="-1.3992">
        <ele>59</ele>
        <time>2026-08-23T12:45:54.000Z</time>
      </trkpt>
      <trkpt lat="43.33173" lon="-1.39893">
        <ele>58</ele>
        <time>2026-08-23T12:45:58.000Z</time>
      </trkpt>
      <trkpt lat="43.33159" lon="-1.39856">
        <ele>57</ele>
        <time>2026-08-23T12:46:04.000Z</time>
      </trkpt>
      <trkpt lat="43.33148" lon="-1.39823">
        <ele>56</ele>
        <time>2026-08-23T12:46:08.000Z</time>
      </trkpt>
      <trkpt lat="43.33145" lon="-1.3981">
        <ele>55</ele>
        <time>2026-08-23T12:46:10.000Z</time>
      </trkpt>
      <trkpt lat="43.33117" lon="-1.39735">
        <ele>50</ele>
        <time>2026-08-23T12:46:21.000Z</time>
      </trkpt>
      <trkpt lat="43.33109" lon="-1.39708">
        <ele>49</ele>
        <time>2026-08-23T12:46:25.000Z</time>
      </trkpt>
      <trkpt lat="43.33095" lon="-1.39666">
        <ele>48</ele>
        <time>2026-08-23T12:46:31.000Z</time>
      </trkpt>
      <trkpt lat="43.33093" lon="-1.39659">
        <ele>47</ele>
        <time>2026-08-23T12:46:32.000Z</time>
      </trkpt>
      <trkpt lat="43.33089" lon="-1.39647">
        <ele>47</ele>
        <time>2026-08-23T12:46:34.000Z</time>
      </trkpt>
      <trkpt lat="43.33084" lon="-1.39629">
        <ele>47</ele>
        <time>2026-08-23T12:46:36.000Z</time>
      </trkpt>
      <trkpt lat="43.33058" lon="-1.39545">
        <ele>46</ele>
        <time>2026-08-23T12:46:48.000Z</time>
      </trkpt>
      <trkpt lat="43.33024" lon="-1.39433">
        <ele>46</ele>
        <time>2026-08-23T12:47:04.000Z</time>
      </trkpt>
      <trkpt lat="43.32994" lon="-1.39336">
        <ele>39</ele>
        <time>2026-08-23T12:47:17.000Z</time>
      </trkpt>
      <trkpt lat="43.32962" lon="-1.3923">
        <ele>35</ele>
        <time>2026-08-23T12:47:32.000Z</time>
      </trkpt>
      <trkpt lat="43.32941" lon="-1.39161">
        <ele>34</ele>
        <time>2026-08-23T12:47:42.000Z</time>
      </trkpt>
      <trkpt lat="43.32925" lon="-1.3911">
        <ele>39</ele>
        <time>2026-08-23T12:47:49.000Z</time>
      </trkpt>
      <trkpt lat="43.32893" lon="-1.39005">
        <ele>45</ele>
        <time>2026-08-23T12:48:04.000Z</time>
      </trkpt>
      <trkpt lat="43.32886" lon="-1.38983">
        <ele>46</ele>
        <time>2026-08-23T12:48:07.000Z</time>
      </trkpt>
      <trkpt lat="43.32885" lon="-1.3898">
        <ele>46</ele>
        <time>2026-08-23T12:48:07.000Z</time>
      </trkpt>
      <trkpt lat="43.32879" lon="-1.3896">
        <ele>46</ele>
        <time>2026-08-23T12:48:10.000Z</time>
      </trkpt>
      <trkpt lat="43.32872" lon="-1.38937">
        <ele>46</ele>
        <time>2026-08-23T12:48:13.000Z</time>
      </trkpt>
      <trkpt lat="43.3287" lon="-1.38929">
        <ele>47</ele>
        <time>2026-08-23T12:48:14.000Z</time>
      </trkpt>
      <trkpt lat="43.32867" lon="-1.3892">
        <ele>47</ele>
        <time>2026-08-23T12:48:16.000Z</time>
      </trkpt>
      <trkpt lat="43.32866" lon="-1.38915">
        <ele>47</ele>
        <time>2026-08-23T12:48:16.000Z</time>
      </trkpt>
      <trkpt lat="43.32865" lon="-1.38914">
        <ele>47</ele>
        <time>2026-08-23T12:48:17.000Z</time>
      </trkpt>
      <trkpt lat="43.32862" lon="-1.38905">
        <ele>47</ele>
        <time>2026-08-23T12:48:18.000Z</time>
      </trkpt>
      <trkpt lat="43.3286" lon="-1.38895">
        <ele>48</ele>
        <time>2026-08-23T12:48:19.000Z</time>
      </trkpt>
      <trkpt lat="43.32846" lon="-1.38852">
        <ele>48</ele>
        <time>2026-08-23T12:48:25.000Z</time>
      </trkpt>
      <trkpt lat="43.32833" lon="-1.38813">
        <ele>48</ele>
        <time>2026-08-23T12:48:31.000Z</time>
      </trkpt>
      <trkpt lat="43.32824" lon="-1.38785">
        <ele>52</ele>
        <time>2026-08-23T12:48:35.000Z</time>
      </trkpt>
      <trkpt lat="43.32814" lon="-1.38761">
        <ele>54</ele>
        <time>2026-08-23T12:48:38.000Z</time>
      </trkpt>
      <trkpt lat="43.32803" lon="-1.38736">
        <ele>56</ele>
        <time>2026-08-23T12:48:42.000Z</time>
      </trkpt>
      <trkpt lat="43.32792" lon="-1.38712">
        <ele>58</ele>
        <time>2026-08-23T12:48:46.000Z</time>
      </trkpt>
      <trkpt lat="43.32779" lon="-1.38687">
        <ele>58</ele>
        <time>2026-08-23T12:48:50.000Z</time>
      </trkpt>
      <trkpt lat="43.32769" lon="-1.38667">
        <ele>57</ele>
        <time>2026-08-23T12:48:53.000Z</time>
      </trkpt>
      <trkpt lat="43.32765" lon="-1.38661">
        <ele>57</ele>
        <time>2026-08-23T12:48:54.000Z</time>
      </trkpt>
      <trkpt lat="43.32751" lon="-1.38638">
        <ele>56</ele>
        <time>2026-08-23T12:48:58.000Z</time>
      </trkpt>
      <trkpt lat="43.32741" lon="-1.38624">
        <ele>58</ele>
        <time>2026-08-23T12:49:00.000Z</time>
      </trkpt>
      <trkpt lat="43.3273" lon="-1.38609">
        <ele>59</ele>
        <time>2026-08-23T12:49:03.000Z</time>
      </trkpt>
      <trkpt lat="43.32716" lon="-1.38588">
        <ele>60</ele>
        <time>2026-08-23T12:49:07.000Z</time>
      </trkpt>
      <trkpt lat="43.32704" lon="-1.38571">
        <ele>62</ele>
        <time>2026-08-23T12:49:10.000Z</time>
      </trkpt>
      <trkpt lat="43.32691" lon="-1.38553">
        <ele>63</ele>
        <time>2026-08-23T12:49:13.000Z</time>
      </trkpt>
      <trkpt lat="43.32679" lon="-1.38535">
        <ele>63</ele>
        <time>2026-08-23T12:49:16.000Z</time>
      </trkpt>
      <trkpt lat="43.3267" lon="-1.38522">
        <ele>63</ele>
        <time>2026-08-23T12:49:19.000Z</time>
      </trkpt>
      <trkpt lat="43.32659" lon="-1.38503">
        <ele>63</ele>
        <time>2026-08-23T12:49:22.000Z</time>
      </trkpt>
      <trkpt lat="43.32651" lon="-1.38489">
        <ele>64</ele>
        <time>2026-08-23T12:49:24.000Z</time>
      </trkpt>
      <trkpt lat="43.32642" lon="-1.38472">
        <ele>65</ele>
        <time>2026-08-23T12:49:27.000Z</time>
      </trkpt>
      <trkpt lat="43.32634" lon="-1.38457">
        <ele>65</ele>
        <time>2026-08-23T12:49:29.000Z</time>
      </trkpt>
      <trkpt lat="43.32625" lon="-1.3844">
        <ele>64</ele>
        <time>2026-08-23T12:49:32.000Z</time>
      </trkpt>
      <trkpt lat="43.32605" lon="-1.38404">
        <ele>62</ele>
        <time>2026-08-23T12:49:38.000Z</time>
      </trkpt>
      <trkpt lat="43.3259" lon="-1.38376">
        <ele>63</ele>
        <time>2026-08-23T12:49:42.000Z</time>
      </trkpt>
      <trkpt lat="43.32577" lon="-1.38351">
        <ele>64</ele>
        <time>2026-08-23T12:49:46.000Z</time>
      </trkpt>
      <trkpt lat="43.32564" lon="-1.38326">
        <ele>66</ele>
        <time>2026-08-23T12:49:50.000Z</time>
      </trkpt>
      <trkpt lat="43.32553" lon="-1.38305">
        <ele>68</ele>
        <time>2026-08-23T12:49:54.000Z</time>
      </trkpt>
      <trkpt lat="43.32543" lon="-1.38287">
        <ele>69</ele>
        <time>2026-08-23T12:49:57.000Z</time>
      </trkpt>
      <trkpt lat="43.32533" lon="-1.38268">
        <ele>70</ele>
        <time>2026-08-23T12:50:00.000Z</time>
      </trkpt>
      <trkpt lat="43.32525" lon="-1.3825">
        <ele>71</ele>
        <time>2026-08-23T12:50:02.000Z</time>
      </trkpt>
      <trkpt lat="43.32517" lon="-1.38231">
        <ele>71</ele>
        <time>2026-08-23T12:50:05.000Z</time>
      </trkpt>
      <trkpt lat="43.32506" lon="-1.38201">
        <ele>71</ele>
        <time>2026-08-23T12:50:10.000Z</time>
      </trkpt>
      <trkpt lat="43.32496" lon="-1.38172">
        <ele>72</ele>
        <time>2026-08-23T12:50:14.000Z</time>
      </trkpt>
      <trkpt lat="43.32481" lon="-1.38131">
        <ele>76</ele>
        <time>2026-08-23T12:50:20.000Z</time>
      </trkpt>
      <trkpt lat="43.32466" lon="-1.38093">
        <ele>79</ele>
        <time>2026-08-23T12:50:25.000Z</time>
      </trkpt>
      <trkpt lat="43.32463" lon="-1.38088">
        <ele>79</ele>
        <time>2026-08-23T12:50:26.000Z</time>
      </trkpt>
      <trkpt lat="43.3246" lon="-1.38082">
        <ele>79</ele>
        <time>2026-08-23T12:50:27.000Z</time>
      </trkpt>
      <trkpt lat="43.32458" lon="-1.38075">
        <ele>79</ele>
        <time>2026-08-23T12:50:28.000Z</time>
      </trkpt>
      <trkpt lat="43.32454" lon="-1.38063">
        <ele>80</ele>
        <time>2026-08-23T12:50:30.000Z</time>
      </trkpt>
      <trkpt lat="43.32439" lon="-1.38006">
        <ele>80</ele>
        <time>2026-08-23T12:50:38.000Z</time>
      </trkpt>
      <trkpt lat="43.3243" lon="-1.37966">
        <ele>81</ele>
        <time>2026-08-23T12:50:43.000Z</time>
      </trkpt>
      <trkpt lat="43.32419" lon="-1.37925">
        <ele>80</ele>
        <time>2026-08-23T12:50:49.000Z</time>
      </trkpt>
      <trkpt lat="43.32414" lon="-1.37908">
        <ele>81</ele>
        <time>2026-08-23T12:50:51.000Z</time>
      </trkpt>
      <trkpt lat="43.32408" lon="-1.37886">
        <ele>82</ele>
        <time>2026-08-23T12:50:54.000Z</time>
      </trkpt>
      <trkpt lat="43.32398" lon="-1.37848">
        <ele>84</ele>
        <time>2026-08-23T12:50:59.000Z</time>
      </trkpt>
      <trkpt lat="43.32387" lon="-1.3781">
        <ele>86</ele>
        <time>2026-08-23T12:51:05.000Z</time>
      </trkpt>
      <trkpt lat="43.32381" lon="-1.37789">
        <ele>86</ele>
        <time>2026-08-23T12:51:07.000Z</time>
      </trkpt>
      <trkpt lat="43.32361" lon="-1.37724">
        <ele>88</ele>
        <time>2026-08-23T12:51:17.000Z</time>
      </trkpt>
      <trkpt lat="43.32355" lon="-1.37703">
        <ele>88</ele>
        <time>2026-08-23T12:51:19.000Z</time>
      </trkpt>
      <trkpt lat="43.32347" lon="-1.37684">
        <ele>88</ele>
        <time>2026-08-23T12:51:22.000Z</time>
      </trkpt>
      <trkpt lat="43.32344" lon="-1.37677">
        <ele>88</ele>
        <time>2026-08-23T12:51:23.000Z</time>
      </trkpt>
      <trkpt lat="43.32335" lon="-1.37662">
        <ele>87</ele>
        <time>2026-08-23T12:51:26.000Z</time>
      </trkpt>
      <trkpt lat="43.32325" lon="-1.37645">
        <ele>89</ele>
        <time>2026-08-23T12:51:29.000Z</time>
      </trkpt>
      <trkpt lat="43.32311" lon="-1.37624">
        <ele>90</ele>
        <time>2026-08-23T12:51:32.000Z</time>
      </trkpt>
      <trkpt lat="43.32297" lon="-1.37605">
        <ele>90</ele>
        <time>2026-08-23T12:51:36.000Z</time>
      </trkpt>
      <trkpt lat="43.3229" lon="-1.37595">
        <ele>90</ele>
        <time>2026-08-23T12:51:38.000Z</time>
      </trkpt>
      <trkpt lat="43.32288" lon="-1.37592">
        <ele>90</ele>
        <time>2026-08-23T12:51:38.000Z</time>
      </trkpt>
      <trkpt lat="43.32283" lon="-1.37583">
        <ele>90</ele>
        <time>2026-08-23T12:51:40.000Z</time>
      </trkpt>
      <trkpt lat="43.32271" lon="-1.3756">
        <ele>91</ele>
        <time>2026-08-23T12:51:43.000Z</time>
      </trkpt>
      <trkpt lat="43.32257" lon="-1.37527">
        <ele>91</ele>
        <time>2026-08-23T12:51:48.000Z</time>
      </trkpt>
      <trkpt lat="43.32247" lon="-1.37504">
        <ele>92</ele>
        <time>2026-08-23T12:51:52.000Z</time>
      </trkpt>
      <trkpt lat="43.32231" lon="-1.37467">
        <ele>96</ele>
        <time>2026-08-23T12:51:57.000Z</time>
      </trkpt>
      <trkpt lat="43.32228" lon="-1.37458">
        <ele>96</ele>
        <time>2026-08-23T12:51:59.000Z</time>
      </trkpt>
      <trkpt lat="43.32213" lon="-1.37418">
        <ele>100</ele>
        <time>2026-08-23T12:52:04.000Z</time>
      </trkpt>
      <trkpt lat="43.32201" lon="-1.37384">
        <ele>101</ele>
        <time>2026-08-23T12:52:09.000Z</time>
      </trkpt>
      <trkpt lat="43.3219" lon="-1.37351">
        <ele>101</ele>
        <time>2026-08-23T12:52:14.000Z</time>
      </trkpt>
      <trkpt lat="43.32184" lon="-1.37336">
        <ele>101</ele>
        <time>2026-08-23T12:52:16.000Z</time>
      </trkpt>
      <trkpt lat="43.32181" lon="-1.37326">
        <ele>101</ele>
        <time>2026-08-23T12:52:18.000Z</time>
      </trkpt>
      <trkpt lat="43.32174" lon="-1.37312">
        <ele>101</ele>
        <time>2026-08-23T12:52:20.000Z</time>
      </trkpt>
      <trkpt lat="43.32164" lon="-1.3729">
        <ele>101</ele>
        <time>2026-08-23T12:52:23.000Z</time>
      </trkpt>
      <trkpt lat="43.32154" lon="-1.3727">
        <ele>103</ele>
        <time>2026-08-23T12:52:26.000Z</time>
      </trkpt>
      <trkpt lat="43.32142" lon="-1.37248">
        <ele>106</ele>
        <time>2026-08-23T12:52:30.000Z</time>
      </trkpt>
      <trkpt lat="43.3214" lon="-1.37245">
        <ele>106</ele>
        <time>2026-08-23T12:52:30.000Z</time>
      </trkpt>
      <trkpt lat="43.32131" lon="-1.3723">
        <ele>108</ele>
        <time>2026-08-23T12:52:33.000Z</time>
      </trkpt>
      <trkpt lat="43.3212" lon="-1.37212">
        <ele>111</ele>
        <time>2026-08-23T12:52:36.000Z</time>
      </trkpt>
      <trkpt lat="43.32108" lon="-1.37186">
        <ele>113</ele>
        <time>2026-08-23T12:52:40.000Z</time>
      </trkpt>
      <trkpt lat="43.32086" lon="-1.37132">
        <ele>114</ele>
        <time>2026-08-23T12:52:48.000Z</time>
      </trkpt>
      <trkpt lat="43.32081" lon="-1.37116">
        <ele>114</ele>
        <time>2026-08-23T12:52:50.000Z</time>
      </trkpt>
      <trkpt lat="43.32075" lon="-1.37098">
        <ele>116</ele>
        <time>2026-08-23T12:52:53.000Z</time>
      </trkpt>
      <trkpt lat="43.32062" lon="-1.37062">
        <ele>119</ele>
        <time>2026-08-23T12:52:58.000Z</time>
      </trkpt>
      <trkpt lat="43.32045" lon="-1.37015">
        <ele>124</ele>
        <time>2026-08-23T12:53:05.000Z</time>
      </trkpt>
      <trkpt lat="43.32038" lon="-1.36991">
        <ele>126</ele>
        <time>2026-08-23T12:53:08.000Z</time>
      </trkpt>
      <trkpt lat="43.32037" lon="-1.36988">
        <ele>126</ele>
        <time>2026-08-23T12:53:09.000Z</time>
      </trkpt>
      <trkpt lat="43.32031" lon="-1.36967">
        <ele>127</ele>
        <time>2026-08-23T12:53:12.000Z</time>
      </trkpt>
      <trkpt lat="43.32026" lon="-1.3695">
        <ele>129</ele>
        <time>2026-08-23T12:53:14.000Z</time>
      </trkpt>
      <trkpt lat="43.32018" lon="-1.36919">
        <ele>130</ele>
        <time>2026-08-23T12:53:18.000Z</time>
      </trkpt>
      <trkpt lat="43.32009" lon="-1.36879">
        <ele>131</ele>
        <time>2026-08-23T12:53:24.000Z</time>
      </trkpt>
      <trkpt lat="43.32004" lon="-1.36855">
        <ele>131</ele>
        <time>2026-08-23T12:53:27.000Z</time>
      </trkpt>
      <trkpt lat="43.32" lon="-1.36832">
        <ele>131</ele>
        <time>2026-08-23T12:53:30.000Z</time>
      </trkpt>
      <trkpt lat="43.31994" lon="-1.36803">
        <ele>132</ele>
        <time>2026-08-23T12:53:34.000Z</time>
      </trkpt>
      <trkpt lat="43.31992" lon="-1.36776">
        <ele>133</ele>
        <time>2026-08-23T12:53:37.000Z</time>
      </trkpt>
      <trkpt lat="43.31991" lon="-1.36749">
        <ele>134</ele>
        <time>2026-08-23T12:53:41.000Z</time>
      </trkpt>
      <trkpt lat="43.31991" lon="-1.36721">
        <ele>134</ele>
        <time>2026-08-23T12:53:44.000Z</time>
      </trkpt>
      <trkpt lat="43.31996" lon="-1.36657">
        <ele>135</ele>
        <time>2026-08-23T12:53:53.000Z</time>
      </trkpt>
      <trkpt lat="43.31999" lon="-1.36635">
        <ele>136</ele>
        <time>2026-08-23T12:53:56.000Z</time>
      </trkpt>
      <trkpt lat="43.32" lon="-1.36616">
        <ele>138</ele>
        <time>2026-08-23T12:53:58.000Z</time>
      </trkpt>
      <trkpt lat="43.32" lon="-1.36603">
        <ele>139</ele>
        <time>2026-08-23T12:54:00.000Z</time>
      </trkpt>
      <trkpt lat="43.31999" lon="-1.36585">
        <ele>140</ele>
        <time>2026-08-23T12:54:02.000Z</time>
      </trkpt>
      <trkpt lat="43.31996" lon="-1.3655">
        <ele>142</ele>
        <time>2026-08-23T12:54:07.000Z</time>
      </trkpt>
      <trkpt lat="43.31991" lon="-1.36508">
        <ele>145</ele>
        <time>2026-08-23T12:54:12.000Z</time>
      </trkpt>
      <trkpt lat="43.31985" lon="-1.36473">
        <ele>148</ele>
        <time>2026-08-23T12:54:17.000Z</time>
      </trkpt>
      <trkpt lat="43.31979" lon="-1.36435">
        <ele>150</ele>
        <time>2026-08-23T12:54:22.000Z</time>
      </trkpt>
      <trkpt lat="43.31974" lon="-1.36406">
        <ele>151</ele>
        <time>2026-08-23T12:54:26.000Z</time>
      </trkpt>
      <trkpt lat="43.3197" lon="-1.36387">
        <ele>152</ele>
        <time>2026-08-23T12:54:28.000Z</time>
      </trkpt>
      <trkpt lat="43.31968" lon="-1.36376">
        <ele>152</ele>
        <time>2026-08-23T12:54:30.000Z</time>
      </trkpt>
      <trkpt lat="43.31963" lon="-1.36357">
        <ele>152</ele>
        <time>2026-08-23T12:54:32.000Z</time>
      </trkpt>
      <trkpt lat="43.31959" lon="-1.3635">
        <ele>152</ele>
        <time>2026-08-23T12:54:34.000Z</time>
      </trkpt>
      <trkpt lat="43.31948" lon="-1.36316">
        <ele>150</ele>
        <time>2026-08-23T12:54:38.000Z</time>
      </trkpt>
      <trkpt lat="43.31935" lon="-1.36282">
        <ele>148</ele>
        <time>2026-08-23T12:54:43.000Z</time>
      </trkpt>
      <trkpt lat="43.31921" lon="-1.36245">
        <ele>144</ele>
        <time>2026-08-23T12:54:49.000Z</time>
      </trkpt>
      <trkpt lat="43.31916" lon="-1.36231">
        <ele>144</ele>
        <time>2026-08-23T12:54:51.000Z</time>
      </trkpt>
      <trkpt lat="43.31912" lon="-1.36219">
        <ele>143</ele>
        <time>2026-08-23T12:54:52.000Z</time>
      </trkpt>
      <trkpt lat="43.31902" lon="-1.36192">
        <ele>142</ele>
        <time>2026-08-23T12:54:56.000Z</time>
      </trkpt>
      <trkpt lat="43.31888" lon="-1.36157">
        <ele>141</ele>
        <time>2026-08-23T12:55:02.000Z</time>
      </trkpt>
      <trkpt lat="43.31881" lon="-1.36141">
        <ele>140</ele>
        <time>2026-08-23T12:55:04.000Z</time>
      </trkpt>
      <trkpt lat="43.31862" lon="-1.36097">
        <ele>138</ele>
        <time>2026-08-23T12:55:11.000Z</time>
      </trkpt>
      <trkpt lat="43.3185" lon="-1.36073">
        <ele>136</ele>
        <time>2026-08-23T12:55:14.000Z</time>
      </trkpt>
      <trkpt lat="43.31849" lon="-1.36066">
        <ele>136</ele>
        <time>2026-08-23T12:55:15.000Z</time>
      </trkpt>
      <trkpt lat="43.3184" lon="-1.3605">
        <ele>135</ele>
        <time>2026-08-23T12:55:18.000Z</time>
      </trkpt>
      <trkpt lat="43.31802" lon="-1.35981">
        <ele>132</ele>
        <time>2026-08-23T12:55:29.000Z</time>
      </trkpt>
      <trkpt lat="43.31798" lon="-1.35972">
        <ele>131</ele>
        <time>2026-08-23T12:55:30.000Z</time>
      </trkpt>
      <trkpt lat="43.31792" lon="-1.35958">
        <ele>130</ele>
        <time>2026-08-23T12:55:33.000Z</time>
      </trkpt>
      <trkpt lat="43.31788" lon="-1.35949">
        <ele>130</ele>
        <time>2026-08-23T12:55:34.000Z</time>
      </trkpt>
      <trkpt lat="43.31783" lon="-1.35934">
        <ele>129</ele>
        <time>2026-08-23T12:55:36.000Z</time>
      </trkpt>
      <trkpt lat="43.31778" lon="-1.35922">
        <ele>128</ele>
        <time>2026-08-23T12:55:38.000Z</time>
      </trkpt>
      <trkpt lat="43.31775" lon="-1.3591">
        <ele>127</ele>
        <time>2026-08-23T12:55:40.000Z</time>
      </trkpt>
      <trkpt lat="43.31772" lon="-1.35906">
        <ele>127</ele>
        <time>2026-08-23T12:55:40.000Z</time>
      </trkpt>
      <trkpt lat="43.31769" lon="-1.35899">
        <ele>127</ele>
        <time>2026-08-23T12:55:41.000Z</time>
      </trkpt>
      <trkpt lat="43.31756" lon="-1.35863">
        <ele>125</ele>
        <time>2026-08-23T12:55:47.000Z</time>
      </trkpt>
      <trkpt lat="43.3175" lon="-1.35848">
        <ele>124</ele>
        <time>2026-08-23T12:55:49.000Z</time>
      </trkpt>
      <trkpt lat="43.31744" lon="-1.35834">
        <ele>124</ele>
        <time>2026-08-23T12:55:51.000Z</time>
      </trkpt>
      <trkpt lat="43.31734" lon="-1.35812">
        <ele>125</ele>
        <time>2026-08-23T12:55:54.000Z</time>
      </trkpt>
      <trkpt lat="43.3172" lon="-1.35785">
        <ele>125</ele>
        <time>2026-08-23T12:55:58.000Z</time>
      </trkpt>
      <trkpt lat="43.31706" lon="-1.35756">
        <ele>125</ele>
        <time>2026-08-23T12:56:03.000Z</time>
      </trkpt>
      <trkpt lat="43.31699" lon="-1.35744">
        <ele>125</ele>
        <time>2026-08-23T12:56:05.000Z</time>
      </trkpt>
      <trkpt lat="43.3169" lon="-1.35728">
        <ele>125</ele>
        <time>2026-08-23T12:56:08.000Z</time>
      </trkpt>
      <trkpt lat="43.31684" lon="-1.35719">
        <ele>125</ele>
        <time>2026-08-23T12:56:09.000Z</time>
      </trkpt>
      <trkpt lat="43.31679" lon="-1.3571">
        <ele>124</ele>
        <time>2026-08-23T12:56:11.000Z</time>
      </trkpt>
      <trkpt lat="43.31673" lon="-1.35699">
        <ele>124</ele>
        <time>2026-08-23T12:56:12.000Z</time>
      </trkpt>
      <trkpt lat="43.31663" lon="-1.3568">
        <ele>123</ele>
        <time>2026-08-23T12:56:15.000Z</time>
      </trkpt>
      <trkpt lat="43.31663" lon="-1.3568">
        <ele>123</ele>
        <time>2026-08-23T12:56:15.000Z</time>
      </trkpt>
      <trkpt lat="43.31667" lon="-1.35673">
        <ele>122</ele>
        <time>2026-08-23T12:56:17.000Z</time>
      </trkpt>
      <trkpt lat="43.31668" lon="-1.35663">
        <ele>122</ele>
        <time>2026-08-23T12:56:18.000Z</time>
      </trkpt>
      <trkpt lat="43.31668" lon="-1.35661">
        <ele>122</ele>
        <time>2026-08-23T12:56:18.000Z</time>
      </trkpt>
      <trkpt lat="43.31667" lon="-1.35647">
        <ele>122</ele>
        <time>2026-08-23T12:56:20.000Z</time>
      </trkpt>
      <trkpt lat="43.31664" lon="-1.35626">
        <ele>121</ele>
        <time>2026-08-23T12:56:23.000Z</time>
      </trkpt>
      <trkpt lat="43.31659" lon="-1.35586">
        <ele>121</ele>
        <time>2026-08-23T12:56:28.000Z</time>
      </trkpt>
      <trkpt lat="43.31657" lon="-1.35557">
        <ele>120</ele>
        <time>2026-08-23T12:56:32.000Z</time>
      </trkpt>
      <trkpt lat="43.31657" lon="-1.35534">
        <ele>119</ele>
        <time>2026-08-23T12:56:35.000Z</time>
      </trkpt>
      <trkpt lat="43.31657" lon="-1.35522">
        <ele>119</ele>
        <time>2026-08-23T12:56:36.000Z</time>
      </trkpt>
      <trkpt lat="43.31658" lon="-1.35503">
        <ele>118</ele>
        <time>2026-08-23T12:56:39.000Z</time>
      </trkpt>
      <trkpt lat="43.31659" lon="-1.35485">
        <ele>118</ele>
        <time>2026-08-23T12:56:41.000Z</time>
      </trkpt>
      <trkpt lat="43.31659" lon="-1.35459">
        <ele>116</ele>
        <time>2026-08-23T12:56:44.000Z</time>
      </trkpt>
      <trkpt lat="43.31658" lon="-1.35436">
        <ele>115</ele>
        <time>2026-08-23T12:56:47.000Z</time>
      </trkpt>
      <trkpt lat="43.31657" lon="-1.35427">
        <ele>115</ele>
        <time>2026-08-23T12:56:49.000Z</time>
      </trkpt>
      <trkpt lat="43.31656" lon="-1.35405">
        <ele>114</ele>
        <time>2026-08-23T12:56:51.000Z</time>
      </trkpt>
      <trkpt lat="43.31654" lon="-1.35359">
        <ele>114</ele>
        <time>2026-08-23T12:56:57.000Z</time>
      </trkpt>
      <trkpt lat="43.31653" lon="-1.35353">
        <ele>114</ele>
        <time>2026-08-23T12:56:58.000Z</time>
      </trkpt>
      <trkpt lat="43.31648" lon="-1.35286">
        <ele>112</ele>
        <time>2026-08-23T12:57:07.000Z</time>
      </trkpt>
      <trkpt lat="43.31646" lon="-1.3525">
        <ele>110</ele>
        <time>2026-08-23T12:57:12.000Z</time>
      </trkpt>
      <trkpt lat="43.31646" lon="-1.35244">
        <ele>110</ele>
        <time>2026-08-23T12:57:12.000Z</time>
      </trkpt>
      <trkpt lat="43.31643" lon="-1.35215">
        <ele>110</ele>
        <time>2026-08-23T12:57:16.000Z</time>
      </trkpt>
      <trkpt lat="43.3164" lon="-1.35162">
        <ele>110</ele>
        <time>2026-08-23T12:57:23.000Z</time>
      </trkpt>
      <trkpt lat="43.31639" lon="-1.35146">
        <ele>110</ele>
        <time>2026-08-23T12:57:25.000Z</time>
      </trkpt>
      <trkpt lat="43.31639" lon="-1.35139">
        <ele>109</ele>
        <time>2026-08-23T12:57:26.000Z</time>
      </trkpt>
      <trkpt lat="43.31637" lon="-1.35125">
        <ele>109</ele>
        <time>2026-08-23T12:57:28.000Z</time>
      </trkpt>
      <trkpt lat="43.31631" lon="-1.35095">
        <ele>109</ele>
        <time>2026-08-23T12:57:32.000Z</time>
      </trkpt>
      <trkpt lat="43.31625" lon="-1.35063">
        <ele>108</ele>
        <time>2026-08-23T12:57:36.000Z</time>
      </trkpt>
      <trkpt lat="43.31617" lon="-1.35033">
        <ele>107</ele>
        <time>2026-08-23T12:57:40.000Z</time>
      </trkpt>
      <trkpt lat="43.31617" lon="-1.35033">
        <ele>107</ele>
        <time>2026-08-23T12:57:40.000Z</time>
      </trkpt>
      <trkpt lat="43.31624" lon="-1.35031">
        <ele>107</ele>
        <time>2026-08-23T12:57:42.000Z</time>
      </trkpt>
      <trkpt lat="43.3163" lon="-1.35029">
        <ele>107</ele>
        <time>2026-08-23T12:57:43.000Z</time>
      </trkpt>
      <trkpt lat="43.31637" lon="-1.35029">
        <ele>108</ele>
        <time>2026-08-23T12:57:44.000Z</time>
      </trkpt>
      <trkpt lat="43.31642" lon="-1.35027">
        <ele>108</ele>
        <time>2026-08-23T12:57:45.000Z</time>
      </trkpt>
      <trkpt lat="43.3165" lon="-1.35024">
        <ele>109</ele>
        <time>2026-08-23T12:57:46.000Z</time>
      </trkpt>
      <trkpt lat="43.31665" lon="-1.35016">
        <ele>109</ele>
        <time>2026-08-23T12:57:49.000Z</time>
      </trkpt>
      <trkpt lat="43.31672" lon="-1.35008">
        <ele>110</ele>
        <time>2026-08-23T12:57:51.000Z</time>
      </trkpt>
      <trkpt lat="43.31678" lon="-1.34996">
        <ele>111</ele>
        <time>2026-08-23T12:57:53.000Z</time>
      </trkpt>
      <trkpt lat="43.31684" lon="-1.34984">
        <ele>111</ele>
        <time>2026-08-23T12:57:55.000Z</time>
      </trkpt>
      <trkpt lat="43.31689" lon="-1.34968">
        <ele>111</ele>
        <time>2026-08-23T12:57:57.000Z</time>
      </trkpt>
      <trkpt lat="43.31706" lon="-1.34917">
        <ele>110</ele>
        <time>2026-08-23T12:58:04.000Z</time>
      </trkpt>
      <trkpt lat="43.3173" lon="-1.34852">
        <ele>110</ele>
        <time>2026-08-23T12:58:14.000Z</time>
      </trkpt>
      <trkpt lat="43.31739" lon="-1.34819">
        <ele>109</ele>
        <time>2026-08-23T12:58:18.000Z</time>
      </trkpt>
      <trkpt lat="43.31743" lon="-1.34798">
        <ele>109</ele>
        <time>2026-08-23T12:58:21.000Z</time>
      </trkpt>
      <trkpt lat="43.31743" lon="-1.34785">
        <ele>108</ele>
        <time>2026-08-23T12:58:23.000Z</time>
      </trkpt>
      <trkpt lat="43.31744" lon="-1.34776">
        <ele>108</ele>
        <time>2026-08-23T12:58:24.000Z</time>
      </trkpt>
      <trkpt lat="43.31742" lon="-1.34754">
        <ele>107</ele>
        <time>2026-08-23T12:58:27.000Z</time>
      </trkpt>
      <trkpt lat="43.3174" lon="-1.34746">
        <ele>106</ele>
        <time>2026-08-23T12:58:28.000Z</time>
      </trkpt>
      <trkpt lat="43.31733" lon="-1.3471">
        <ele>103</ele>
        <time>2026-08-23T12:58:33.000Z</time>
      </trkpt>
      <trkpt lat="43.31719" lon="-1.34639">
        <ele>101</ele>
        <time>2026-08-23T12:58:42.000Z</time>
      </trkpt>
      <trkpt lat="43.3171" lon="-1.346">
        <ele>101</ele>
        <time>2026-08-23T12:58:47.000Z</time>
      </trkpt>
      <trkpt lat="43.31708" lon="-1.34575">
        <ele>102</ele>
        <time>2026-08-23T12:58:51.000Z</time>
      </trkpt>
      <trkpt lat="43.31707" lon="-1.34558">
        <ele>102</ele>
        <time>2026-08-23T12:58:53.000Z</time>
      </trkpt>
      <trkpt lat="43.31708" lon="-1.34536">
        <ele>102</ele>
        <time>2026-08-23T12:58:56.000Z</time>
      </trkpt>
      <trkpt lat="43.3171" lon="-1.34522">
        <ele>103</ele>
        <time>2026-08-23T12:58:58.000Z</time>
      </trkpt>
      <trkpt lat="43.31718" lon="-1.34486">
        <ele>104</ele>
        <time>2026-08-23T12:59:02.000Z</time>
      </trkpt>
      <trkpt lat="43.31728" lon="-1.34455">
        <ele>105</ele>
        <time>2026-08-23T12:59:07.000Z</time>
      </trkpt>
      <trkpt lat="43.31738" lon="-1.34434">
        <ele>105</ele>
        <time>2026-08-23T12:59:10.000Z</time>
      </trkpt>
      <trkpt lat="43.31751" lon="-1.34399">
        <ele>105</ele>
        <time>2026-08-23T12:59:15.000Z</time>
      </trkpt>
      <trkpt lat="43.31754" lon="-1.34387">
        <ele>105</ele>
        <time>2026-08-23T12:59:17.000Z</time>
      </trkpt>
      <trkpt lat="43.31757" lon="-1.34364">
        <ele>105</ele>
        <time>2026-08-23T12:59:20.000Z</time>
      </trkpt>
      <trkpt lat="43.31768" lon="-1.34288">
        <ele>107</ele>
        <time>2026-08-23T12:59:30.000Z</time>
      </trkpt>
      <trkpt lat="43.31771" lon="-1.34251">
        <ele>108</ele>
        <time>2026-08-23T12:59:35.000Z</time>
      </trkpt>
      <trkpt lat="43.31771" lon="-1.34219">
        <ele>109</ele>
        <time>2026-08-23T12:59:39.000Z</time>
      </trkpt>
      <trkpt lat="43.31769" lon="-1.34174">
        <ele>109</ele>
        <time>2026-08-23T12:59:45.000Z</time>
      </trkpt>
      <trkpt lat="43.31769" lon="-1.3417">
        <ele>109</ele>
        <time>2026-08-23T12:59:45.000Z</time>
      </trkpt>
      <trkpt lat="43.31768" lon="-1.34146">
        <ele>110</ele>
        <time>2026-08-23T12:59:48.000Z</time>
      </trkpt>
      <trkpt lat="43.31766" lon="-1.34108">
        <ele>111</ele>
        <time>2026-08-23T12:59:53.000Z</time>
      </trkpt>
      <trkpt lat="43.31767" lon="-1.34094">
        <ele>112</ele>
        <time>2026-08-23T12:59:55.000Z</time>
      </trkpt>
      <trkpt lat="43.31767" lon="-1.34082">
        <ele>112</ele>
        <time>2026-08-23T12:59:57.000Z</time>
      </trkpt>
      <trkpt lat="43.31768" lon="-1.34069">
        <ele>113</ele>
        <time>2026-08-23T12:59:58.000Z</time>
      </trkpt>
      <trkpt lat="43.31775" lon="-1.34042">
        <ele>116</ele>
        <time>2026-08-23T13:00:02.000Z</time>
      </trkpt>
      <trkpt lat="43.3178" lon="-1.34028">
        <ele>117</ele>
        <time>2026-08-23T13:00:04.000Z</time>
      </trkpt>
      <trkpt lat="43.31787" lon="-1.34014">
        <ele>120</ele>
        <time>2026-08-23T13:00:06.000Z</time>
      </trkpt>
      <trkpt lat="43.31798" lon="-1.34001">
        <ele>123</ele>
        <time>2026-08-23T13:00:09.000Z</time>
      </trkpt>
      <trkpt lat="43.3181" lon="-1.33989">
        <ele>126</ele>
        <time>2026-08-23T13:00:11.000Z</time>
      </trkpt>
      <trkpt lat="43.3183" lon="-1.33974">
        <ele>129</ele>
        <time>2026-08-23T13:00:16.000Z</time>
      </trkpt>
      <trkpt lat="43.31847" lon="-1.33961">
        <ele>132</ele>
        <time>2026-08-23T13:00:19.000Z</time>
      </trkpt>
      <trkpt lat="43.3186" lon="-1.33949">
        <ele>132</ele>
        <time>2026-08-23T13:00:22.000Z</time>
      </trkpt>
      <trkpt lat="43.31872" lon="-1.33932">
        <ele>132</ele>
        <time>2026-08-23T13:00:25.000Z</time>
      </trkpt>
      <trkpt lat="43.31874" lon="-1.33927">
        <ele>131</ele>
        <time>2026-08-23T13:00:26.000Z</time>
      </trkpt>
      <trkpt lat="43.31877" lon="-1.3392">
        <ele>130</ele>
        <time>2026-08-23T13:00:27.000Z</time>
      </trkpt>
      <trkpt lat="43.31881" lon="-1.33913">
        <ele>130</ele>
        <time>2026-08-23T13:00:28.000Z</time>
      </trkpt>
      <trkpt lat="43.31883" lon="-1.33904">
        <ele>130</ele>
        <time>2026-08-23T13:00:29.000Z</time>
      </trkpt>
      <trkpt lat="43.31886" lon="-1.33884">
        <ele>130</ele>
        <time>2026-08-23T13:00:32.000Z</time>
      </trkpt>
      <trkpt lat="43.3189" lon="-1.33857">
        <ele>128</ele>
        <time>2026-08-23T13:00:35.000Z</time>
      </trkpt>
      <trkpt lat="43.31895" lon="-1.33836">
        <ele>127</ele>
        <time>2026-08-23T13:00:38.000Z</time>
      </trkpt>
      <trkpt lat="43.31901" lon="-1.33819">
        <ele>126</ele>
        <time>2026-08-23T13:00:41.000Z</time>
      </trkpt>
      <trkpt lat="43.31909" lon="-1.33804">
        <ele>125</ele>
        <time>2026-08-23T13:00:43.000Z</time>
      </trkpt>
      <trkpt lat="43.31913" lon="-1.33797">
        <ele>124</ele>
        <time>2026-08-23T13:00:44.000Z</time>
      </trkpt>
      <trkpt lat="43.31925" lon="-1.33783">
        <ele>124</ele>
        <time>2026-08-23T13:00:47.000Z</time>
      </trkpt>
      <trkpt lat="43.31939" lon="-1.3377">
        <ele>125</ele>
        <time>2026-08-23T13:00:50.000Z</time>
      </trkpt>
      <trkpt lat="43.31957" lon="-1.33757">
        <ele>127</ele>
        <time>2026-08-23T13:00:54.000Z</time>
      </trkpt>
      <trkpt lat="43.31981" lon="-1.33741">
        <ele>128</ele>
        <time>2026-08-23T13:00:58.000Z</time>
      </trkpt>
      <trkpt lat="43.31997" lon="-1.3373">
        <ele>129</ele>
        <time>2026-08-23T13:01:01.000Z</time>
      </trkpt>
      <trkpt lat="43.32003" lon="-1.33723">
        <ele>130</ele>
        <time>2026-08-23T13:01:03.000Z</time>
      </trkpt>
      <trkpt lat="43.32012" lon="-1.33712">
        <ele>130</ele>
        <time>2026-08-23T13:01:05.000Z</time>
      </trkpt>
      <trkpt lat="43.32025" lon="-1.33692">
        <ele>131</ele>
        <time>2026-08-23T13:01:08.000Z</time>
      </trkpt>
      <trkpt lat="43.32034" lon="-1.33668">
        <ele>130</ele>
        <time>2026-08-23T13:01:12.000Z</time>
      </trkpt>
      <trkpt lat="43.32043" lon="-1.33642">
        <ele>134</ele>
        <time>2026-08-23T13:01:16.000Z</time>
      </trkpt>
      <trkpt lat="43.3206" lon="-1.33597">
        <ele>138</ele>
        <time>2026-08-23T13:01:22.000Z</time>
      </trkpt>
      <trkpt lat="43.32074" lon="-1.33568">
        <ele>141</ele>
        <time>2026-08-23T13:01:27.000Z</time>
      </trkpt>
      <trkpt lat="43.32089" lon="-1.33544">
        <ele>144</ele>
        <time>2026-08-23T13:01:31.000Z</time>
      </trkpt>
      <trkpt lat="43.32107" lon="-1.33524">
        <ele>145</ele>
        <time>2026-08-23T13:01:35.000Z</time>
      </trkpt>
      <trkpt lat="43.32118" lon="-1.33512">
        <ele>145</ele>
        <time>2026-08-23T13:01:37.000Z</time>
      </trkpt>
      <trkpt lat="43.32137" lon="-1.33495">
        <ele>144</ele>
        <time>2026-08-23T13:01:41.000Z</time>
      </trkpt>
      <trkpt lat="43.3214" lon="-1.33492">
        <ele>144</ele>
        <time>2026-08-23T13:01:42.000Z</time>
      </trkpt>
      <trkpt lat="43.32141" lon="-1.33491">
        <ele>144</ele>
        <time>2026-08-23T13:01:42.000Z</time>
      </trkpt>
      <trkpt lat="43.32145" lon="-1.33488">
        <ele>144</ele>
        <time>2026-08-23T13:01:43.000Z</time>
      </trkpt>
      <trkpt lat="43.32186" lon="-1.33457">
        <ele>143</ele>
        <time>2026-08-23T13:01:52.000Z</time>
      </trkpt>
      <trkpt lat="43.32201" lon="-1.33448">
        <ele>143</ele>
        <time>2026-08-23T13:01:54.000Z</time>
      </trkpt>
      <trkpt lat="43.32205" lon="-1.33446">
        <ele>143</ele>
        <time>2026-08-23T13:01:55.000Z</time>
      </trkpt>
      <trkpt lat="43.32211" lon="-1.33444">
        <ele>143</ele>
        <time>2026-08-23T13:01:56.000Z</time>
      </trkpt>
      <trkpt lat="43.32217" lon="-1.33444">
        <ele>142</ele>
        <time>2026-08-23T13:01:57.000Z</time>
      </trkpt>
      <trkpt lat="43.3222" lon="-1.33444">
        <ele>142</ele>
        <time>2026-08-23T13:01:58.000Z</time>
      </trkpt>
      <trkpt lat="43.32243" lon="-1.33451">
        <ele>140</ele>
        <time>2026-08-23T13:02:02.000Z</time>
      </trkpt>
      <trkpt lat="43.32262" lon="-1.33464">
        <ele>140</ele>
        <time>2026-08-23T13:02:06.000Z</time>
      </trkpt>
      <trkpt lat="43.32281" lon="-1.33488">
        <ele>141</ele>
        <time>2026-08-23T13:02:10.000Z</time>
      </trkpt>
      <trkpt lat="43.32291" lon="-1.33498">
        <ele>141</ele>
        <time>2026-08-23T13:02:13.000Z</time>
      </trkpt>
      <trkpt lat="43.32298" lon="-1.33502">
        <ele>142</ele>
        <time>2026-08-23T13:02:14.000Z</time>
      </trkpt>
      <trkpt lat="43.32305" lon="-1.33505">
        <ele>142</ele>
        <time>2026-08-23T13:02:15.000Z</time>
      </trkpt>
      <trkpt lat="43.32312" lon="-1.33506">
        <ele>143</ele>
        <time>2026-08-23T13:02:17.000Z</time>
      </trkpt>
      <trkpt lat="43.32318" lon="-1.33507">
        <ele>143</ele>
        <time>2026-08-23T13:02:18.000Z</time>
      </trkpt>
      <trkpt lat="43.32325" lon="-1.33508">
        <ele>144</ele>
        <time>2026-08-23T13:02:19.000Z</time>
      </trkpt>
      <trkpt lat="43.3233" lon="-1.33508">
        <ele>144</ele>
        <time>2026-08-23T13:02:20.000Z</time>
      </trkpt>
      <trkpt lat="43.32335" lon="-1.33508">
        <ele>144</ele>
        <time>2026-08-23T13:02:21.000Z</time>
      </trkpt>
      <trkpt lat="43.32418" lon="-1.33491">
        <ele>148</ele>
        <time>2026-08-23T13:02:36.000Z</time>
      </trkpt>
      <trkpt lat="43.32489" lon="-1.33477">
        <ele>160</ele>
        <time>2026-08-23T13:02:48.000Z</time>
      </trkpt>
      <trkpt lat="43.32502" lon="-1.33475">
        <ele>163</ele>
        <time>2026-08-23T13:02:51.000Z</time>
      </trkpt>
      <trkpt lat="43.32504" lon="-1.33475">
        <ele>163</ele>
        <time>2026-08-23T13:02:51.000Z</time>
      </trkpt>
      <trkpt lat="43.32515" lon="-1.33475">
        <ele>165</ele>
        <time>2026-08-23T13:02:53.000Z</time>
      </trkpt>
      <trkpt lat="43.32525" lon="-1.33476">
        <ele>167</ele>
        <time>2026-08-23T13:02:55.000Z</time>
      </trkpt>
      <trkpt lat="43.32535" lon="-1.33478">
        <ele>169</ele>
        <time>2026-08-23T13:02:57.000Z</time>
      </trkpt>
      <trkpt lat="43.32544" lon="-1.3348">
        <ele>170</ele>
        <time>2026-08-23T13:02:58.000Z</time>
      </trkpt>
      <trkpt lat="43.32549" lon="-1.33482">
        <ele>171</ele>
        <time>2026-08-23T13:02:59.000Z</time>
      </trkpt>
      <trkpt lat="43.32558" lon="-1.33486">
        <ele>172</ele>
        <time>2026-08-23T13:03:01.000Z</time>
      </trkpt>
      <trkpt lat="43.32567" lon="-1.33493">
        <ele>172</ele>
        <time>2026-08-23T13:03:03.000Z</time>
      </trkpt>
      <trkpt lat="43.32576" lon="-1.33502">
        <ele>173</ele>
        <time>2026-08-23T13:03:05.000Z</time>
      </trkpt>
      <trkpt lat="43.3259" lon="-1.33513">
        <ele>175</ele>
        <time>2026-08-23T13:03:07.000Z</time>
      </trkpt>
      <trkpt lat="43.32607" lon="-1.33528">
        <ele>176</ele>
        <time>2026-08-23T13:03:11.000Z</time>
      </trkpt>
      <trkpt lat="43.32626" lon="-1.33543">
        <ele>177</ele>
        <time>2026-08-23T13:03:15.000Z</time>
      </trkpt>
      <trkpt lat="43.32641" lon="-1.33554">
        <ele>177</ele>
        <time>2026-08-23T13:03:18.000Z</time>
      </trkpt>
      <trkpt lat="43.32648" lon="-1.33557">
        <ele>177</ele>
        <time>2026-08-23T13:03:19.000Z</time>
      </trkpt>
      <trkpt lat="43.32655" lon="-1.3356">
        <ele>177</ele>
        <time>2026-08-23T13:03:21.000Z</time>
      </trkpt>
      <trkpt lat="43.32661" lon="-1.33562">
        <ele>177</ele>
        <time>2026-08-23T13:03:22.000Z</time>
      </trkpt>
      <trkpt lat="43.32667" lon="-1.33564">
        <ele>177</ele>
        <time>2026-08-23T13:03:23.000Z</time>
      </trkpt>
      <trkpt lat="43.32673" lon="-1.33564">
        <ele>177</ele>
        <time>2026-08-23T13:03:24.000Z</time>
      </trkpt>
      <trkpt lat="43.32684" lon="-1.33563">
        <ele>178</ele>
        <time>2026-08-23T13:03:26.000Z</time>
      </trkpt>
      <trkpt lat="43.32698" lon="-1.33558">
        <ele>178</ele>
        <time>2026-08-23T13:03:28.000Z</time>
      </trkpt>
      <trkpt lat="43.32716" lon="-1.33552">
        <ele>178</ele>
        <time>2026-08-23T13:03:32.000Z</time>
      </trkpt>
      <trkpt lat="43.32733" lon="-1.33545">
        <ele>178</ele>
        <time>2026-08-23T13:03:35.000Z</time>
      </trkpt>
      <trkpt lat="43.32751" lon="-1.3354">
        <ele>178</ele>
        <time>2026-08-23T13:03:38.000Z</time>
      </trkpt>
      <trkpt lat="43.32766" lon="-1.33537">
        <ele>178</ele>
        <time>2026-08-23T13:03:41.000Z</time>
      </trkpt>
      <trkpt lat="43.32781" lon="-1.33534">
        <ele>178</ele>
        <time>2026-08-23T13:03:44.000Z</time>
      </trkpt>
      <trkpt lat="43.32792" lon="-1.3353">
        <ele>178</ele>
        <time>2026-08-23T13:03:46.000Z</time>
      </trkpt>
      <trkpt lat="43.32798" lon="-1.33527">
        <ele>178</ele>
        <time>2026-08-23T13:03:47.000Z</time>
      </trkpt>
      <trkpt lat="43.32803" lon="-1.33522">
        <ele>177</ele>
        <time>2026-08-23T13:03:48.000Z</time>
      </trkpt>
      <trkpt lat="43.32812" lon="-1.33511">
        <ele>175</ele>
        <time>2026-08-23T13:03:50.000Z</time>
      </trkpt>
      <trkpt lat="43.32822" lon="-1.33494">
        <ele>173</ele>
        <time>2026-08-23T13:03:53.000Z</time>
      </trkpt>
      <trkpt lat="43.32824" lon="-1.3349">
        <ele>173</ele>
        <time>2026-08-23T13:03:53.000Z</time>
      </trkpt>
      <trkpt lat="43.32832" lon="-1.33475">
        <ele>172</ele>
        <time>2026-08-23T13:03:56.000Z</time>
      </trkpt>
      <trkpt lat="43.3284" lon="-1.33457">
        <ele>171</ele>
        <time>2026-08-23T13:03:59.000Z</time>
      </trkpt>
      <trkpt lat="43.32844" lon="-1.33446">
        <ele>171</ele>
        <time>2026-08-23T13:04:00.000Z</time>
      </trkpt>
      <trkpt lat="43.32849" lon="-1.3343">
        <ele>170</ele>
        <time>2026-08-23T13:04:02.000Z</time>
      </trkpt>
      <trkpt lat="43.3285" lon="-1.33421">
        <ele>170</ele>
        <time>2026-08-23T13:04:04.000Z</time>
      </trkpt>
      <trkpt lat="43.32852" lon="-1.3341">
        <ele>170</ele>
        <time>2026-08-23T13:04:05.000Z</time>
      </trkpt>
      <trkpt lat="43.32855" lon="-1.3339">
        <ele>171</ele>
        <time>2026-08-23T13:04:08.000Z</time>
      </trkpt>
      <trkpt lat="43.32859" lon="-1.33363">
        <ele>172</ele>
        <time>2026-08-23T13:04:11.000Z</time>
      </trkpt>
      <trkpt lat="43.3286" lon="-1.3336">
        <ele>172</ele>
        <time>2026-08-23T13:04:12.000Z</time>
      </trkpt>
      <trkpt lat="43.32865" lon="-1.33335">
        <ele>173</ele>
        <time>2026-08-23T13:04:15.000Z</time>
      </trkpt>
      <trkpt lat="43.32873" lon="-1.33296">
        <ele>175</ele>
        <time>2026-08-23T13:04:20.000Z</time>
      </trkpt>
      <trkpt lat="43.32878" lon="-1.33271">
        <ele>176</ele>
        <time>2026-08-23T13:04:24.000Z</time>
      </trkpt>
      <trkpt lat="43.32881" lon="-1.33253">
        <ele>176</ele>
        <time>2026-08-23T13:04:26.000Z</time>
      </trkpt>
      <trkpt lat="43.32884" lon="-1.33232">
        <ele>177</ele>
        <time>2026-08-23T13:04:29.000Z</time>
      </trkpt>
      <trkpt lat="43.32886" lon="-1.33211">
        <ele>178</ele>
        <time>2026-08-23T13:04:32.000Z</time>
      </trkpt>
      <trkpt lat="43.32889" lon="-1.33194">
        <ele>179</ele>
        <time>2026-08-23T13:04:34.000Z</time>
      </trkpt>
      <trkpt lat="43.32893" lon="-1.33155">
        <ele>182</ele>
        <time>2026-08-23T13:04:39.000Z</time>
      </trkpt>
      <trkpt lat="43.32898" lon="-1.33126">
        <ele>184</ele>
        <time>2026-08-23T13:04:43.000Z</time>
      </trkpt>
      <trkpt lat="43.32902" lon="-1.33095">
        <ele>187</ele>
        <time>2026-08-23T13:04:47.000Z</time>
      </trkpt>
      <trkpt lat="43.32905" lon="-1.33064">
        <ele>189</ele>
        <time>2026-08-23T13:04:51.000Z</time>
      </trkpt>
      <trkpt lat="43.32909" lon="-1.33041">
        <ele>190</ele>
        <time>2026-08-23T13:04:54.000Z</time>
      </trkpt>
      <trkpt lat="43.32909" lon="-1.33038">
        <ele>190</ele>
        <time>2026-08-23T13:04:54.000Z</time>
      </trkpt>
      <trkpt lat="43.32912" lon="-1.33019">
        <ele>191</ele>
        <time>2026-08-23T13:04:57.000Z</time>
      </trkpt>
      <trkpt lat="43.32915" lon="-1.33007">
        <ele>192</ele>
        <time>2026-08-23T13:04:58.000Z</time>
      </trkpt>
      <trkpt lat="43.32918" lon="-1.32994">
        <ele>192</ele>
        <time>2026-08-23T13:05:00.000Z</time>
      </trkpt>
      <trkpt lat="43.32922" lon="-1.32982">
        <ele>193</ele>
        <time>2026-08-23T13:05:02.000Z</time>
      </trkpt>
      <trkpt lat="43.32931" lon="-1.32961">
        <ele>194</ele>
        <time>2026-08-23T13:05:05.000Z</time>
      </trkpt>
      <trkpt lat="43.32939" lon="-1.32942">
        <ele>196</ele>
        <time>2026-08-23T13:05:08.000Z</time>
      </trkpt>
      <trkpt lat="43.32944" lon="-1.32927">
        <ele>197</ele>
        <time>2026-08-23T13:05:10.000Z</time>
      </trkpt>
      <trkpt lat="43.32954" lon="-1.32886">
        <ele>200</ele>
        <time>2026-08-23T13:05:16.000Z</time>
      </trkpt>
      <trkpt lat="43.32962" lon="-1.32854">
        <ele>203</ele>
        <time>2026-08-23T13:05:20.000Z</time>
      </trkpt>
      <trkpt lat="43.32968" lon="-1.32826">
        <ele>205</ele>
        <time>2026-08-23T13:05:24.000Z</time>
      </trkpt>
      <trkpt lat="43.3298" lon="-1.32772">
        <ele>210</ele>
        <time>2026-08-23T13:05:31.000Z</time>
      </trkpt>
      <trkpt lat="43.32985" lon="-1.32748">
        <ele>212</ele>
        <time>2026-08-23T13:05:34.000Z</time>
      </trkpt>
      <trkpt lat="43.32988" lon="-1.32723">
        <ele>212</ele>
        <time>2026-08-23T13:05:38.000Z</time>
      </trkpt>
      <trkpt lat="43.32989" lon="-1.32706">
        <ele>213</ele>
        <time>2026-08-23T13:05:40.000Z</time>
      </trkpt>
      <trkpt lat="43.32989" lon="-1.32691">
        <ele>213</ele>
        <time>2026-08-23T13:05:42.000Z</time>
      </trkpt>
      <trkpt lat="43.32989" lon="-1.32675">
        <ele>213</ele>
        <time>2026-08-23T13:05:44.000Z</time>
      </trkpt>
      <trkpt lat="43.32989" lon="-1.32665">
        <ele>213</ele>
        <time>2026-08-23T13:05:45.000Z</time>
      </trkpt>
      <trkpt lat="43.32989" lon="-1.3264">
        <ele>213</ele>
        <time>2026-08-23T13:05:48.000Z</time>
      </trkpt>
      <trkpt lat="43.32991" lon="-1.32616">
        <ele>213</ele>
        <time>2026-08-23T13:05:52.000Z</time>
      </trkpt>
      <trkpt lat="43.32996" lon="-1.32566">
        <ele>212</ele>
        <time>2026-08-23T13:05:58.000Z</time>
      </trkpt>
      <trkpt lat="43.33003" lon="-1.32513">
        <ele>212</ele>
        <time>2026-08-23T13:06:05.000Z</time>
      </trkpt>
      <trkpt lat="43.33005" lon="-1.32494">
        <ele>212</ele>
        <time>2026-08-23T13:06:08.000Z</time>
      </trkpt>
      <trkpt lat="43.33008" lon="-1.32484">
        <ele>212</ele>
        <time>2026-08-23T13:06:09.000Z</time>
      </trkpt>
      <trkpt lat="43.33011" lon="-1.32474">
        <ele>213</ele>
        <time>2026-08-23T13:06:10.000Z</time>
      </trkpt>
      <trkpt lat="43.33014" lon="-1.32465">
        <ele>213</ele>
        <time>2026-08-23T13:06:12.000Z</time>
      </trkpt>
      <trkpt lat="43.33022" lon="-1.3245">
        <ele>214</ele>
        <time>2026-08-23T13:06:14.000Z</time>
      </trkpt>
      <trkpt lat="43.33032" lon="-1.32432">
        <ele>215</ele>
        <time>2026-08-23T13:06:17.000Z</time>
      </trkpt>
      <trkpt lat="43.33046" lon="-1.3241">
        <ele>216</ele>
        <time>2026-08-23T13:06:21.000Z</time>
      </trkpt>
      <trkpt lat="43.33061" lon="-1.32383">
        <ele>217</ele>
        <time>2026-08-23T13:06:25.000Z</time>
      </trkpt>
      <trkpt lat="43.33066" lon="-1.32371">
        <ele>217</ele>
        <time>2026-08-23T13:06:27.000Z</time>
      </trkpt>
      <trkpt lat="43.3307" lon="-1.32362">
        <ele>217</ele>
        <time>2026-08-23T13:06:28.000Z</time>
      </trkpt>
      <trkpt lat="43.33072" lon="-1.32348">
        <ele>217</ele>
        <time>2026-08-23T13:06:30.000Z</time>
      </trkpt>
      <trkpt lat="43.33075" lon="-1.32331">
        <ele>217</ele>
        <time>2026-08-23T13:06:32.000Z</time>
      </trkpt>
      <trkpt lat="43.33079" lon="-1.3231">
        <ele>218</ele>
        <time>2026-08-23T13:06:35.000Z</time>
      </trkpt>
      <trkpt lat="43.33084" lon="-1.32288">
        <ele>219</ele>
        <time>2026-08-23T13:06:38.000Z</time>
      </trkpt>
      <trkpt lat="43.33087" lon="-1.32277">
        <ele>219</ele>
        <time>2026-08-23T13:06:40.000Z</time>
      </trkpt>
      <trkpt lat="43.3309" lon="-1.32265">
        <ele>220</ele>
        <time>2026-08-23T13:06:41.000Z</time>
      </trkpt>
      <trkpt lat="43.33096" lon="-1.32239">
        <ele>220</ele>
        <time>2026-08-23T13:06:45.000Z</time>
      </trkpt>
      <trkpt lat="43.331" lon="-1.32221">
        <ele>220</ele>
        <time>2026-08-23T13:06:47.000Z</time>
      </trkpt>
      <trkpt lat="43.33102" lon="-1.32213">
        <ele>220</ele>
        <time>2026-08-23T13:06:48.000Z</time>
      </trkpt>
      <trkpt lat="43.33103" lon="-1.32208">
        <ele>220</ele>
        <time>2026-08-23T13:06:49.000Z</time>
      </trkpt>
      <trkpt lat="43.33103" lon="-1.32196">
        <ele>220</ele>
        <time>2026-08-23T13:06:51.000Z</time>
      </trkpt>
      <trkpt lat="43.33102" lon="-1.32185">
        <ele>219</ele>
        <time>2026-08-23T13:06:52.000Z</time>
      </trkpt>
      <trkpt lat="43.331" lon="-1.32175">
        <ele>219</ele>
        <time>2026-08-23T13:06:53.000Z</time>
      </trkpt>
      <trkpt lat="43.33097" lon="-1.32164">
        <ele>219</ele>
        <time>2026-08-23T13:06:55.000Z</time>
      </trkpt>
      <trkpt lat="43.33096" lon="-1.3216">
        <ele>219</ele>
        <time>2026-08-23T13:06:55.000Z</time>
      </trkpt>
      <trkpt lat="43.33092" lon="-1.32146">
        <ele>218</ele>
        <time>2026-08-23T13:06:57.000Z</time>
      </trkpt>
      <trkpt lat="43.33087" lon="-1.32131">
        <ele>218</ele>
        <time>2026-08-23T13:07:00.000Z</time>
      </trkpt>
      <trkpt lat="43.33085" lon="-1.32124">
        <ele>217</ele>
        <time>2026-08-23T13:07:01.000Z</time>
      </trkpt>
      <trkpt lat="43.33079" lon="-1.32111">
        <ele>217</ele>
        <time>2026-08-23T13:07:03.000Z</time>
      </trkpt>
      <trkpt lat="43.33073" lon="-1.32098">
        <ele>217</ele>
        <time>2026-08-23T13:07:05.000Z</time>
      </trkpt>
      <trkpt lat="43.33066" lon="-1.32082">
        <ele>217</ele>
        <time>2026-08-23T13:07:07.000Z</time>
      </trkpt>
      <trkpt lat="43.33061" lon="-1.3207">
        <ele>217</ele>
        <time>2026-08-23T13:07:09.000Z</time>
      </trkpt>
      <trkpt lat="43.33057" lon="-1.32054">
        <ele>217</ele>
        <time>2026-08-23T13:07:11.000Z</time>
      </trkpt>
      <trkpt lat="43.3305" lon="-1.3203">
        <ele>217</ele>
        <time>2026-08-23T13:07:14.000Z</time>
      </trkpt>
      <trkpt lat="43.33047" lon="-1.32018">
        <ele>217</ele>
        <time>2026-08-23T13:07:16.000Z</time>
      </trkpt>
      <trkpt lat="43.33045" lon="-1.32002">
        <ele>216</ele>
        <time>2026-08-23T13:07:18.000Z</time>
      </trkpt>
      <trkpt lat="43.33041" lon="-1.31978">
        <ele>215</ele>
        <time>2026-08-23T13:07:21.000Z</time>
      </trkpt>
      <trkpt lat="43.33039" lon="-1.31967">
        <ele>214</ele>
        <time>2026-08-23T13:07:23.000Z</time>
      </trkpt>
      <trkpt lat="43.33035" lon="-1.31952">
        <ele>213</ele>
        <time>2026-08-23T13:07:25.000Z</time>
      </trkpt>
      <trkpt lat="43.3303" lon="-1.31938">
        <ele>212</ele>
        <time>2026-08-23T13:07:27.000Z</time>
      </trkpt>
      <trkpt lat="43.33023" lon="-1.31925">
        <ele>211</ele>
        <time>2026-08-23T13:07:29.000Z</time>
      </trkpt>
      <trkpt lat="43.33013" lon="-1.31911">
        <ele>210</ele>
        <time>2026-08-23T13:07:31.000Z</time>
      </trkpt>
      <trkpt lat="43.33003" lon="-1.31901">
        <ele>209</ele>
        <time>2026-08-23T13:07:34.000Z</time>
      </trkpt>
      <trkpt lat="43.32991" lon="-1.31893">
        <ele>208</ele>
        <time>2026-08-23T13:07:36.000Z</time>
      </trkpt>
      <trkpt lat="43.32982" lon="-1.31887">
        <ele>207</ele>
        <time>2026-08-23T13:07:38.000Z</time>
      </trkpt>
      <trkpt lat="43.32971" lon="-1.31883">
        <ele>207</ele>
        <time>2026-08-23T13:07:40.000Z</time>
      </trkpt>
      <trkpt lat="43.32964" lon="-1.31879">
        <ele>207</ele>
        <time>2026-08-23T13:07:41.000Z</time>
      </trkpt>
      <trkpt lat="43.32958" lon="-1.31877">
        <ele>206</ele>
        <time>2026-08-23T13:07:42.000Z</time>
      </trkpt>
      <trkpt lat="43.32947" lon="-1.31872">
        <ele>206</ele>
        <time>2026-08-23T13:07:44.000Z</time>
      </trkpt>
      <trkpt lat="43.32939" lon="-1.31865">
        <ele>206</ele>
        <time>2026-08-23T13:07:46.000Z</time>
      </trkpt>
      <trkpt lat="43.32928" lon="-1.31855">
        <ele>206</ele>
        <time>2026-08-23T13:07:48.000Z</time>
      </trkpt>
      <trkpt lat="43.32921" lon="-1.31844">
        <ele>205</ele>
        <time>2026-08-23T13:07:50.000Z</time>
      </trkpt>
      <trkpt lat="43.32915" lon="-1.31833">
        <ele>205</ele>
        <time>2026-08-23T13:07:52.000Z</time>
      </trkpt>
      <trkpt lat="43.32912" lon="-1.31823">
        <ele>207</ele>
        <time>2026-08-23T13:07:53.000Z</time>
      </trkpt>
      <trkpt lat="43.32908" lon="-1.31809">
        <ele>208</ele>
        <time>2026-08-23T13:07:55.000Z</time>
      </trkpt>
      <trkpt lat="43.32906" lon="-1.31797">
        <ele>210</ele>
        <time>2026-08-23T13:07:57.000Z</time>
      </trkpt>
      <trkpt lat="43.32899" lon="-1.31763">
        <ele>213</ele>
        <time>2026-08-23T13:08:01.000Z</time>
      </trkpt>
      <trkpt lat="43.32892" lon="-1.31724">
        <ele>217</ele>
        <time>2026-08-23T13:08:07.000Z</time>
      </trkpt>
      <trkpt lat="43.32883" lon="-1.31687">
        <ele>220</ele>
        <time>2026-08-23T13:08:12.000Z</time>
      </trkpt>
      <trkpt lat="43.32879" lon="-1.31662">
        <ele>222</ele>
        <time>2026-08-23T13:08:15.000Z</time>
      </trkpt>
      <trkpt lat="43.32873" lon="-1.31631">
        <ele>222</ele>
        <time>2026-08-23T13:08:19.000Z</time>
      </trkpt>
      <trkpt lat="43.32871" lon="-1.31608">
        <ele>222</ele>
        <time>2026-08-23T13:08:22.000Z</time>
      </trkpt>
      <trkpt lat="43.3287" lon="-1.3159">
        <ele>221</ele>
        <time>2026-08-23T13:08:25.000Z</time>
      </trkpt>
      <trkpt lat="43.32869" lon="-1.3157">
        <ele>220</ele>
        <time>2026-08-23T13:08:27.000Z</time>
      </trkpt>
      <trkpt lat="43.32869" lon="-1.31546">
        <ele>218</ele>
        <time>2026-08-23T13:08:30.000Z</time>
      </trkpt>
      <trkpt lat="43.3287" lon="-1.31528">
        <ele>216</ele>
        <time>2026-08-23T13:08:33.000Z</time>
      </trkpt>
      <trkpt lat="43.32871" lon="-1.31511">
        <ele>214</ele>
        <time>2026-08-23T13:08:35.000Z</time>
      </trkpt>
      <trkpt lat="43.32873" lon="-1.31492">
        <ele>213</ele>
        <time>2026-08-23T13:08:37.000Z</time>
      </trkpt>
      <trkpt lat="43.32875" lon="-1.3148">
        <ele>212</ele>
        <time>2026-08-23T13:08:39.000Z</time>
      </trkpt>
      <trkpt lat="43.32879" lon="-1.31463">
        <ele>211</ele>
        <time>2026-08-23T13:08:41.000Z</time>
      </trkpt>
      <trkpt lat="43.32881" lon="-1.31454">
        <ele>210</ele>
        <time>2026-08-23T13:08:42.000Z</time>
      </trkpt>
      <trkpt lat="43.32883" lon="-1.31443">
        <ele>210</ele>
        <time>2026-08-23T13:08:44.000Z</time>
      </trkpt>
      <trkpt lat="43.32887" lon="-1.31428">
        <ele>208</ele>
        <time>2026-08-23T13:08:46.000Z</time>
      </trkpt>
      <trkpt lat="43.32893" lon="-1.31411">
        <ele>207</ele>
        <time>2026-08-23T13:08:48.000Z</time>
      </trkpt>
      <trkpt lat="43.32901" lon="-1.31387">
        <ele>205</ele>
        <time>2026-08-23T13:08:52.000Z</time>
      </trkpt>
      <trkpt lat="43.32907" lon="-1.31372">
        <ele>204</ele>
        <time>2026-08-23T13:08:54.000Z</time>
      </trkpt>
      <trkpt lat="43.32911" lon="-1.31361">
        <ele>203</ele>
        <time>2026-08-23T13:08:56.000Z</time>
      </trkpt>
      <trkpt lat="43.32916" lon="-1.3135">
        <ele>202</ele>
        <time>2026-08-23T13:08:57.000Z</time>
      </trkpt>
      <trkpt lat="43.32924" lon="-1.31331">
        <ele>200</ele>
        <time>2026-08-23T13:09:00.000Z</time>
      </trkpt>
      <trkpt lat="43.32939" lon="-1.31301">
        <ele>197</ele>
        <time>2026-08-23T13:09:05.000Z</time>
      </trkpt>
      <trkpt lat="43.32948" lon="-1.31283">
        <ele>196</ele>
        <time>2026-08-23T13:09:08.000Z</time>
      </trkpt>
      <trkpt lat="43.32958" lon="-1.31266">
        <ele>194</ele>
        <time>2026-08-23T13:09:10.000Z</time>
      </trkpt>
      <trkpt lat="43.3297" lon="-1.31246">
        <ele>193</ele>
        <time>2026-08-23T13:09:14.000Z</time>
      </trkpt>
      <trkpt lat="43.32975" lon="-1.31238">
        <ele>192</ele>
        <time>2026-08-23T13:09:15.000Z</time>
      </trkpt>
      <trkpt lat="43.32978" lon="-1.31232">
        <ele>192</ele>
        <time>2026-08-23T13:09:16.000Z</time>
      </trkpt>
      <trkpt lat="43.32981" lon="-1.31225">
        <ele>192</ele>
        <time>2026-08-23T13:09:17.000Z</time>
      </trkpt>
      <trkpt lat="43.32984" lon="-1.31217">
        <ele>192</ele>
        <time>2026-08-23T13:09:18.000Z</time>
      </trkpt>
      <trkpt lat="43.32987" lon="-1.31209">
        <ele>191</ele>
        <time>2026-08-23T13:09:20.000Z</time>
      </trkpt>
      <trkpt lat="43.32991" lon="-1.31198">
        <ele>191</ele>
        <time>2026-08-23T13:09:21.000Z</time>
      </trkpt>
      <trkpt lat="43.32994" lon="-1.31184">
        <ele>191</ele>
        <time>2026-08-23T13:09:23.000Z</time>
      </trkpt>
      <trkpt lat="43.33" lon="-1.3116">
        <ele>190</ele>
        <time>2026-08-23T13:09:26.000Z</time>
      </trkpt>
      <trkpt lat="43.33003" lon="-1.31139">
        <ele>189</ele>
        <time>2026-08-23T13:09:29.000Z</time>
      </trkpt>
      <trkpt lat="43.33005" lon="-1.31118">
        <ele>189</ele>
        <time>2026-08-23T13:09:32.000Z</time>
      </trkpt>
      <trkpt lat="43.33005" lon="-1.31092">
        <ele>189</ele>
        <time>2026-08-23T13:09:35.000Z</time>
      </trkpt>
      <trkpt lat="43.33004" lon="-1.31077">
        <ele>189</ele>
        <time>2026-08-23T13:09:37.000Z</time>
      </trkpt>
      <trkpt lat="43.33004" lon="-1.31061">
        <ele>189</ele>
        <time>2026-08-23T13:09:39.000Z</time>
      </trkpt>
      <trkpt lat="43.33005" lon="-1.31051">
        <ele>189</ele>
        <time>2026-08-23T13:09:40.000Z</time>
      </trkpt>
      <trkpt lat="43.33008" lon="-1.3104">
        <ele>188</ele>
        <time>2026-08-23T13:09:42.000Z</time>
      </trkpt>
      <trkpt lat="43.33013" lon="-1.31028">
        <ele>187</ele>
        <time>2026-08-23T13:09:44.000Z</time>
      </trkpt>
      <trkpt lat="43.33017" lon="-1.31021">
        <ele>186</ele>
        <time>2026-08-23T13:09:45.000Z</time>
      </trkpt>
      <trkpt lat="43.33021" lon="-1.31013">
        <ele>185</ele>
        <time>2026-08-23T13:09:46.000Z</time>
      </trkpt>
      <trkpt lat="43.33026" lon="-1.31004">
        <ele>183</ele>
        <time>2026-08-23T13:09:48.000Z</time>
      </trkpt>
      <trkpt lat="43.3303" lon="-1.30992">
        <ele>182</ele>
        <time>2026-08-23T13:09:49.000Z</time>
      </trkpt>
      <trkpt lat="43.33032" lon="-1.3098">
        <ele>181</ele>
        <time>2026-08-23T13:09:51.000Z</time>
      </trkpt>
      <trkpt lat="43.33034" lon="-1.30965">
        <ele>180</ele>
        <time>2026-08-23T13:09:53.000Z</time>
      </trkpt>
      <trkpt lat="43.33036" lon="-1.30954">
        <ele>179</ele>
        <time>2026-08-23T13:09:54.000Z</time>
      </trkpt>
      <trkpt lat="43.33036" lon="-1.30945">
        <ele>179</ele>
        <time>2026-08-23T13:09:56.000Z</time>
      </trkpt>
      <trkpt lat="43.33035" lon="-1.30936">
        <ele>179</ele>
        <time>2026-08-23T13:09:57.000Z</time>
      </trkpt>
      <trkpt lat="43.33034" lon="-1.30927">
        <ele>179</ele>
        <time>2026-08-23T13:09:58.000Z</time>
      </trkpt>
      <trkpt lat="43.33032" lon="-1.30918">
        <ele>179</ele>
        <time>2026-08-23T13:09:59.000Z</time>
      </trkpt>
      <trkpt lat="43.33029" lon="-1.30908">
        <ele>179</ele>
        <time>2026-08-23T13:10:01.000Z</time>
      </trkpt>
      <trkpt lat="43.33022" lon="-1.30889">
        <ele>179</ele>
        <time>2026-08-23T13:10:03.000Z</time>
      </trkpt>
      <trkpt lat="43.33014" lon="-1.30873">
        <ele>179</ele>
        <time>2026-08-23T13:10:06.000Z</time>
      </trkpt>
      <trkpt lat="43.33008" lon="-1.30856">
        <ele>179</ele>
        <time>2026-08-23T13:10:08.000Z</time>
      </trkpt>
      <trkpt lat="43.33004" lon="-1.30843">
        <ele>178</ele>
        <time>2026-08-23T13:10:10.000Z</time>
      </trkpt>
      <trkpt lat="43.33002" lon="-1.30835">
        <ele>177</ele>
        <time>2026-08-23T13:10:11.000Z</time>
      </trkpt>
      <trkpt lat="43.33002" lon="-1.30825">
        <ele>178</ele>
        <time>2026-08-23T13:10:12.000Z</time>
      </trkpt>
      <trkpt lat="43.33002" lon="-1.30825">
        <ele>178</ele>
        <time>2026-08-23T13:10:12.000Z</time>
      </trkpt>
      <trkpt lat="43.32993" lon="-1.30824">
        <ele>179</ele>
        <time>2026-08-23T13:10:14.000Z</time>
      </trkpt>
      <trkpt lat="43.32984" lon="-1.30825">
        <ele>180</ele>
        <time>2026-08-23T13:10:16.000Z</time>
      </trkpt>
      <trkpt lat="43.32978" lon="-1.30825">
        <ele>181</ele>
        <time>2026-08-23T13:10:17.000Z</time>
      </trkpt>
      <trkpt lat="43.32968" lon="-1.30826">
        <ele>182</ele>
        <time>2026-08-23T13:10:19.000Z</time>
      </trkpt>
      <trkpt lat="43.32957" lon="-1.30827">
        <ele>184</ele>
        <time>2026-08-23T13:10:21.000Z</time>
      </trkpt>
      <trkpt lat="43.32941" lon="-1.30826">
        <ele>186</ele>
        <time>2026-08-23T13:10:23.000Z</time>
      </trkpt>
      <trkpt lat="43.32933" lon="-1.30826">
        <ele>187</ele>
        <time>2026-08-23T13:10:25.000Z</time>
      </trkpt>
      <trkpt lat="43.32918" lon="-1.30829">
        <ele>189</ele>
        <time>2026-08-23T13:10:27.000Z</time>
      </trkpt>
      <trkpt lat="43.32902" lon="-1.30835">
        <ele>191</ele>
        <time>2026-08-23T13:10:30.000Z</time>
      </trkpt>
      <trkpt lat="43.32887" lon="-1.30841">
        <ele>194</ele>
        <time>2026-08-23T13:10:33.000Z</time>
      </trkpt>
      <trkpt lat="43.32878" lon="-1.30844">
        <ele>196</ele>
        <time>2026-08-23T13:10:35.000Z</time>
      </trkpt>
      <trkpt lat="43.32863" lon="-1.3085">
        <ele>199</ele>
        <time>2026-08-23T13:10:38.000Z</time>
      </trkpt>
      <trkpt lat="43.32838" lon="-1.30857">
        <ele>204</ele>
        <time>2026-08-23T13:10:42.000Z</time>
      </trkpt>
      <trkpt lat="43.32829" lon="-1.30859">
        <ele>205</ele>
        <time>2026-08-23T13:10:44.000Z</time>
      </trkpt>
      <trkpt lat="43.32822" lon="-1.30861">
        <ele>206</ele>
        <time>2026-08-23T13:10:45.000Z</time>
      </trkpt>
      <trkpt lat="43.32809" lon="-1.30863">
        <ele>208</ele>
        <time>2026-08-23T13:10:47.000Z</time>
      </trkpt>
      <trkpt lat="43.32798" lon="-1.30862">
        <ele>208</ele>
        <time>2026-08-23T13:10:49.000Z</time>
      </trkpt>
      <trkpt lat="43.32788" lon="-1.3086">
        <ele>209</ele>
        <time>2026-08-23T13:10:51.000Z</time>
      </trkpt>
      <trkpt lat="43.32774" lon="-1.30857">
        <ele>210</ele>
        <time>2026-08-23T13:10:54.000Z</time>
      </trkpt>
      <trkpt lat="43.32763" lon="-1.30856">
        <ele>211</ele>
        <time>2026-08-23T13:10:56.000Z</time>
      </trkpt>
      <trkpt lat="43.32755" lon="-1.30859">
        <ele>212</ele>
        <time>2026-08-23T13:10:57.000Z</time>
      </trkpt>
      <trkpt lat="43.32748" lon="-1.30865">
        <ele>213</ele>
        <time>2026-08-23T13:10:59.000Z</time>
      </trkpt>
      <trkpt lat="43.32738" lon="-1.30874">
        <ele>215</ele>
        <time>2026-08-23T13:11:01.000Z</time>
      </trkpt>
      <trkpt lat="43.32728" lon="-1.30887">
        <ele>217</ele>
        <time>2026-08-23T13:11:03.000Z</time>
      </trkpt>
      <trkpt lat="43.32713" lon="-1.30904">
        <ele>219</ele>
        <time>2026-08-23T13:11:07.000Z</time>
      </trkpt>
      <trkpt lat="43.32705" lon="-1.30912">
        <ele>220</ele>
        <time>2026-08-23T13:11:08.000Z</time>
      </trkpt>
      <trkpt lat="43.32705" lon="-1.30912">
        <ele>220</ele>
        <time>2026-08-23T13:11:08.000Z</time>
      </trkpt>
      <trkpt lat="43.32696" lon="-1.30922">
        <ele>221</ele>
        <time>2026-08-23T13:11:10.000Z</time>
      </trkpt>
      <trkpt lat="43.32693" lon="-1.30925">
        <ele>221</ele>
        <time>2026-08-23T13:11:11.000Z</time>
      </trkpt>
      <trkpt lat="43.32684" lon="-1.30936">
        <ele>222</ele>
        <time>2026-08-23T13:11:13.000Z</time>
      </trkpt>
      <trkpt lat="43.32671" lon="-1.3095">
        <ele>223</ele>
        <time>2026-08-23T13:11:16.000Z</time>
      </trkpt>
      <trkpt lat="43.32657" lon="-1.30961">
        <ele>224</ele>
        <time>2026-08-23T13:11:19.000Z</time>
      </trkpt>
      <trkpt lat="43.32637" lon="-1.30972">
        <ele>226</ele>
        <time>2026-08-23T13:11:23.000Z</time>
      </trkpt>
      <trkpt lat="43.32617" lon="-1.30981">
        <ele>227</ele>
        <time>2026-08-23T13:11:27.000Z</time>
      </trkpt>
      <trkpt lat="43.32605" lon="-1.30987">
        <ele>227</ele>
        <time>2026-08-23T13:11:29.000Z</time>
      </trkpt>
      <trkpt lat="43.32595" lon="-1.30994">
        <ele>227</ele>
        <time>2026-08-23T13:11:31.000Z</time>
      </trkpt>
      <trkpt lat="43.3259" lon="-1.31">
        <ele>227</ele>
        <time>2026-08-23T13:11:32.000Z</time>
      </trkpt>
      <trkpt lat="43.32582" lon="-1.31006">
        <ele>227</ele>
        <time>2026-08-23T13:11:34.000Z</time>
      </trkpt>
      <trkpt lat="43.32581" lon="-1.31007">
        <ele>227</ele>
        <time>2026-08-23T13:11:34.000Z</time>
      </trkpt>
      <trkpt lat="43.3257" lon="-1.31014">
        <ele>226</ele>
        <time>2026-08-23T13:11:36.000Z</time>
      </trkpt>
      <trkpt lat="43.32559" lon="-1.31019">
        <ele>225</ele>
        <time>2026-08-23T13:11:38.000Z</time>
      </trkpt>
      <trkpt lat="43.32535" lon="-1.31028">
        <ele>223</ele>
        <time>2026-08-23T13:11:43.000Z</time>
      </trkpt>
      <trkpt lat="43.32532" lon="-1.31029">
        <ele>223</ele>
        <time>2026-08-23T13:11:43.000Z</time>
      </trkpt>
      <trkpt lat="43.32525" lon="-1.31035">
        <ele>222</ele>
        <time>2026-08-23T13:11:45.000Z</time>
      </trkpt>
      <trkpt lat="43.32523" lon="-1.31038">
        <ele>221</ele>
        <time>2026-08-23T13:11:45.000Z</time>
      </trkpt>
      <trkpt lat="43.32521" lon="-1.31041">
        <ele>221</ele>
        <time>2026-08-23T13:11:46.000Z</time>
      </trkpt>
      <trkpt lat="43.32519" lon="-1.31044">
        <ele>221</ele>
        <time>2026-08-23T13:11:46.000Z</time>
      </trkpt>
      <trkpt lat="43.32517" lon="-1.31047">
        <ele>220</ele>
        <time>2026-08-23T13:11:47.000Z</time>
      </trkpt>
      <trkpt lat="43.32516" lon="-1.31051">
        <ele>220</ele>
        <time>2026-08-23T13:11:47.000Z</time>
      </trkpt>
      <trkpt lat="43.32515" lon="-1.31055">
        <ele>219</ele>
        <time>2026-08-23T13:11:48.000Z</time>
      </trkpt>
      <trkpt lat="43.32514" lon="-1.31061">
        <ele>219</ele>
        <time>2026-08-23T13:11:49.000Z</time>
      </trkpt>
      <trkpt lat="43.32513" lon="-1.31067">
        <ele>218</ele>
        <time>2026-08-23T13:11:49.000Z</time>
      </trkpt>
      <trkpt lat="43.32512" lon="-1.31073">
        <ele>217</ele>
        <time>2026-08-23T13:11:50.000Z</time>
      </trkpt>
      <trkpt lat="43.32512" lon="-1.31079">
        <ele>217</ele>
        <time>2026-08-23T13:11:51.000Z</time>
      </trkpt>
      <trkpt lat="43.32511" lon="-1.31084">
        <ele>216</ele>
        <time>2026-08-23T13:11:52.000Z</time>
      </trkpt>
      <trkpt lat="43.3251" lon="-1.31089">
        <ele>216</ele>
        <time>2026-08-23T13:11:52.000Z</time>
      </trkpt>
      <trkpt lat="43.32507" lon="-1.31095">
        <ele>216</ele>
        <time>2026-08-23T13:11:53.000Z</time>
      </trkpt>
      <trkpt lat="43.32494" lon="-1.3112">
        <ele>214</ele>
        <time>2026-08-23T13:11:57.000Z</time>
      </trkpt>
      <trkpt lat="43.32471" lon="-1.31161">
        <ele>211</ele>
        <time>2026-08-23T13:12:04.000Z</time>
      </trkpt>
      <trkpt lat="43.32448" lon="-1.31198">
        <ele>208</ele>
        <time>2026-08-23T13:12:10.000Z</time>
      </trkpt>
      <trkpt lat="43.32412" lon="-1.31265">
        <ele>199</ele>
        <time>2026-08-23T13:12:21.000Z</time>
      </trkpt>
      <trkpt lat="43.32405" lon="-1.31278">
        <ele>198</ele>
        <time>2026-08-23T13:12:23.000Z</time>
      </trkpt>
      <trkpt lat="43.32399" lon="-1.31286">
        <ele>198</ele>
        <time>2026-08-23T13:12:25.000Z</time>
      </trkpt>
      <trkpt lat="43.32393" lon="-1.31293">
        <ele>197</ele>
        <time>2026-08-23T13:12:26.000Z</time>
      </trkpt>
      <trkpt lat="43.32386" lon="-1.31298">
        <ele>196</ele>
        <time>2026-08-23T13:12:27.000Z</time>
      </trkpt>
      <trkpt lat="43.3238" lon="-1.31301">
        <ele>196</ele>
        <time>2026-08-23T13:12:29.000Z</time>
      </trkpt>
      <trkpt lat="43.32374" lon="-1.31303">
        <ele>195</ele>
        <time>2026-08-23T13:12:30.000Z</time>
      </trkpt>
      <trkpt lat="43.32368" lon="-1.31304">
        <ele>194</ele>
        <time>2026-08-23T13:12:31.000Z</time>
      </trkpt>
      <trkpt lat="43.32363" lon="-1.31306">
        <ele>194</ele>
        <time>2026-08-23T13:12:32.000Z</time>
      </trkpt>
      <trkpt lat="43.3235" lon="-1.31313">
        <ele>192</ele>
        <time>2026-08-23T13:12:34.000Z</time>
      </trkpt>
      <trkpt lat="43.32336" lon="-1.3132">
        <ele>191</ele>
        <time>2026-08-23T13:12:37.000Z</time>
      </trkpt>
      <trkpt lat="43.32316" lon="-1.31331">
        <ele>189</ele>
        <time>2026-08-23T13:12:41.000Z</time>
      </trkpt>
      <trkpt lat="43.3229" lon="-1.31343">
        <ele>189</ele>
        <time>2026-08-23T13:12:45.000Z</time>
      </trkpt>
      <trkpt lat="43.32272" lon="-1.31351">
        <ele>189</ele>
        <time>2026-08-23T13:12:49.000Z</time>
      </trkpt>
      <trkpt lat="43.32255" lon="-1.31357">
        <ele>189</ele>
        <time>2026-08-23T13:12:52.000Z</time>
      </trkpt>
      <trkpt lat="43.32238" lon="-1.31362">
        <ele>189</ele>
        <time>2026-08-23T13:12:55.000Z</time>
      </trkpt>
      <trkpt lat="43.32225" lon="-1.31364">
        <ele>188</ele>
        <time>2026-08-23T13:12:57.000Z</time>
      </trkpt>
      <trkpt lat="43.32217" lon="-1.31365">
        <ele>188</ele>
        <time>2026-08-23T13:12:59.000Z</time>
      </trkpt>
      <trkpt lat="43.32211" lon="-1.31366">
        <ele>187</ele>
        <time>2026-08-23T13:13:00.000Z</time>
      </trkpt>
      <trkpt lat="43.32198" lon="-1.31369">
        <ele>187</ele>
        <time>2026-08-23T13:13:02.000Z</time>
      </trkpt>
      <trkpt lat="43.32176" lon="-1.31375">
        <ele>186</ele>
        <time>2026-08-23T13:13:06.000Z</time>
      </trkpt>
      <trkpt lat="43.32176" lon="-1.31375">
        <ele>186</ele>
        <time>2026-08-23T13:13:06.000Z</time>
      </trkpt>
      <trkpt lat="43.32142" lon="-1.31383">
        <ele>185</ele>
        <time>2026-08-23T13:13:12.000Z</time>
      </trkpt>
      <trkpt lat="43.32139" lon="-1.31384">
        <ele>185</ele>
        <time>2026-08-23T13:13:13.000Z</time>
      </trkpt>
      <trkpt lat="43.32129" lon="-1.31388">
        <ele>184</ele>
        <time>2026-08-23T13:13:15.000Z</time>
      </trkpt>
      <trkpt lat="43.32122" lon="-1.31391">
        <ele>184</ele>
        <time>2026-08-23T13:13:16.000Z</time>
      </trkpt>
      <trkpt lat="43.32117" lon="-1.31394">
        <ele>184</ele>
        <time>2026-08-23T13:13:17.000Z</time>
      </trkpt>
      <trkpt lat="43.32108" lon="-1.31403">
        <ele>184</ele>
        <time>2026-08-23T13:13:19.000Z</time>
      </trkpt>
      <trkpt lat="43.32093" lon="-1.31419">
        <ele>184</ele>
        <time>2026-08-23T13:13:22.000Z</time>
      </trkpt>
      <trkpt lat="43.32084" lon="-1.31425">
        <ele>184</ele>
        <time>2026-08-23T13:13:24.000Z</time>
      </trkpt>
      <trkpt lat="43.32053" lon="-1.31439">
        <ele>182</ele>
        <time>2026-08-23T13:13:30.000Z</time>
      </trkpt>
      <trkpt lat="43.32017" lon="-1.31452">
        <ele>179</ele>
        <time>2026-08-23T13:13:37.000Z</time>
      </trkpt>
      <trkpt lat="43.32004" lon="-1.31456">
        <ele>178</ele>
        <time>2026-08-23T13:13:39.000Z</time>
      </trkpt>
      <trkpt lat="43.31984" lon="-1.31456">
        <ele>176</ele>
        <time>2026-08-23T13:13:43.000Z</time>
      </trkpt>
      <trkpt lat="43.31971" lon="-1.31454">
        <ele>175</ele>
        <time>2026-08-23T13:13:45.000Z</time>
      </trkpt>
      <trkpt lat="43.31959" lon="-1.31455">
        <ele>173</ele>
        <time>2026-08-23T13:13:47.000Z</time>
      </trkpt>
      <trkpt lat="43.31945" lon="-1.31457">
        <ele>172</ele>
        <time>2026-08-23T13:13:49.000Z</time>
      </trkpt>
      <trkpt lat="43.31927" lon="-1.31467">
        <ele>170</ele>
        <time>2026-08-23T13:13:53.000Z</time>
      </trkpt>
      <trkpt lat="43.31911" lon="-1.31476">
        <ele>169</ele>
        <time>2026-08-23T13:13:56.000Z</time>
      </trkpt>
      <trkpt lat="43.31895" lon="-1.31485">
        <ele>167</ele>
        <time>2026-08-23T13:13:59.000Z</time>
      </trkpt>
      <trkpt lat="43.3189" lon="-1.31487">
        <ele>167</ele>
        <time>2026-08-23T13:14:00.000Z</time>
      </trkpt>
      <trkpt lat="43.31884" lon="-1.3149">
        <ele>166</ele>
        <time>2026-08-23T13:14:01.000Z</time>
      </trkpt>
      <trkpt lat="43.31876" lon="-1.31499">
        <ele>165</ele>
        <time>2026-08-23T13:14:03.000Z</time>
      </trkpt>
      <trkpt lat="43.31873" lon="-1.31503">
        <ele>165</ele>
        <time>2026-08-23T13:14:04.000Z</time>
      </trkpt>
      <trkpt lat="43.3187" lon="-1.3151">
        <ele>165</ele>
        <time>2026-08-23T13:14:05.000Z</time>
      </trkpt>
      <trkpt lat="43.31863" lon="-1.31528">
        <ele>166</ele>
        <time>2026-08-23T13:14:07.000Z</time>
      </trkpt>
      <trkpt lat="43.31823" lon="-1.31621">
        <ele>163</ele>
        <time>2026-08-23T13:14:21.000Z</time>
      </trkpt>
      <trkpt lat="43.31792" lon="-1.31692">
        <ele>159</ele>
        <time>2026-08-23T13:14:32.000Z</time>
      </trkpt>
      <trkpt lat="43.31787" lon="-1.31706">
        <ele>158</ele>
        <time>2026-08-23T13:14:34.000Z</time>
      </trkpt>
      <trkpt lat="43.31784" lon="-1.31718">
        <ele>157</ele>
        <time>2026-08-23T13:14:36.000Z</time>
      </trkpt>
      <trkpt lat="43.31783" lon="-1.31739">
        <ele>156</ele>
        <time>2026-08-23T13:14:39.000Z</time>
      </trkpt>
      <trkpt lat="43.31782" lon="-1.3175">
        <ele>156</ele>
        <time>2026-08-23T13:14:40.000Z</time>
      </trkpt>
      <trkpt lat="43.31783" lon="-1.31773">
        <ele>155</ele>
        <time>2026-08-23T13:14:43.000Z</time>
      </trkpt>
      <trkpt lat="43.31784" lon="-1.3179">
        <ele>154</ele>
        <time>2026-08-23T13:14:45.000Z</time>
      </trkpt>
      <trkpt lat="43.31785" lon="-1.31797">
        <ele>154</ele>
        <time>2026-08-23T13:14:46.000Z</time>
      </trkpt>
      <trkpt lat="43.31786" lon="-1.31802">
        <ele>154</ele>
        <time>2026-08-23T13:14:47.000Z</time>
      </trkpt>
      <trkpt lat="43.31789" lon="-1.31809">
        <ele>154</ele>
        <time>2026-08-23T13:14:48.000Z</time>
      </trkpt>
      <trkpt lat="43.31792" lon="-1.31814">
        <ele>154</ele>
        <time>2026-08-23T13:14:49.000Z</time>
      </trkpt>
      <trkpt lat="43.31798" lon="-1.31824">
        <ele>155</ele>
        <time>2026-08-23T13:14:50.000Z</time>
      </trkpt>
      <trkpt lat="43.31802" lon="-1.31832">
        <ele>155</ele>
        <time>2026-08-23T13:14:52.000Z</time>
      </trkpt>
      <trkpt lat="43.31803" lon="-1.31838">
        <ele>155</ele>
        <time>2026-08-23T13:14:52.000Z</time>
      </trkpt>
      <trkpt lat="43.31805" lon="-1.31851">
        <ele>156</ele>
        <time>2026-08-23T13:14:54.000Z</time>
      </trkpt>
      <trkpt lat="43.31801" lon="-1.31862">
        <ele>155</ele>
        <time>2026-08-23T13:14:56.000Z</time>
      </trkpt>
      <trkpt lat="43.31796" lon="-1.31873">
        <ele>155</ele>
        <time>2026-08-23T13:14:57.000Z</time>
      </trkpt>
      <trkpt lat="43.31788" lon="-1.31891">
        <ele>154</ele>
        <time>2026-08-23T13:15:00.000Z</time>
      </trkpt>
      <trkpt lat="43.31776" lon="-1.31917">
        <ele>153</ele>
        <time>2026-08-23T13:15:04.000Z</time>
      </trkpt>
      <trkpt lat="43.31763" lon="-1.31943">
        <ele>152</ele>
        <time>2026-08-23T13:15:08.000Z</time>
      </trkpt>
      <trkpt lat="43.31752" lon="-1.31972">
        <ele>151</ele>
        <time>2026-08-23T13:15:12.000Z</time>
      </trkpt>
      <trkpt lat="43.31752" lon="-1.31972">
        <ele>151</ele>
        <time>2026-08-23T13:15:12.000Z</time>
      </trkpt>
      <trkpt lat="43.31741" lon="-1.31987">
        <ele>152</ele>
        <time>2026-08-23T13:15:15.000Z</time>
      </trkpt>
      <trkpt lat="43.31738" lon="-1.31991">
        <ele>152</ele>
        <time>2026-08-23T13:15:16.000Z</time>
      </trkpt>
      <trkpt lat="43.31735" lon="-1.31994">
        <ele>152</ele>
        <time>2026-08-23T13:15:17.000Z</time>
      </trkpt>
      <trkpt lat="43.31721" lon="-1.32005">
        <ele>152</ele>
        <time>2026-08-23T13:15:19.000Z</time>
      </trkpt>
      <trkpt lat="43.31709" lon="-1.32013">
        <ele>152</ele>
        <time>2026-08-23T13:15:22.000Z</time>
      </trkpt>
      <trkpt lat="43.31706" lon="-1.32015">
        <ele>152</ele>
        <time>2026-08-23T13:15:22.000Z</time>
      </trkpt>
      <trkpt lat="43.3169" lon="-1.32023">
        <ele>151</ele>
        <time>2026-08-23T13:15:25.000Z</time>
      </trkpt>
      <trkpt lat="43.31685" lon="-1.32025">
        <ele>151</ele>
        <time>2026-08-23T13:15:26.000Z</time>
      </trkpt>
      <trkpt lat="43.31674" lon="-1.32035">
        <ele>150</ele>
        <time>2026-08-23T13:15:29.000Z</time>
      </trkpt>
      <trkpt lat="43.31665" lon="-1.32041">
        <ele>149</ele>
        <time>2026-08-23T13:15:30.000Z</time>
      </trkpt>
      <trkpt lat="43.31654" lon="-1.32054">
        <ele>150</ele>
        <time>2026-08-23T13:15:33.000Z</time>
      </trkpt>
      <trkpt lat="43.31651" lon="-1.32059">
        <ele>150</ele>
        <time>2026-08-23T13:15:34.000Z</time>
      </trkpt>
      <trkpt lat="43.31644" lon="-1.32072">
        <ele>150</ele>
        <time>2026-08-23T13:15:36.000Z</time>
      </trkpt>
      <trkpt lat="43.31639" lon="-1.32083">
        <ele>150</ele>
        <time>2026-08-23T13:15:38.000Z</time>
      </trkpt>
      <trkpt lat="43.31627" lon="-1.32104">
        <ele>150</ele>
        <time>2026-08-23T13:15:41.000Z</time>
      </trkpt>
      <trkpt lat="43.31607" lon="-1.32132">
        <ele>149</ele>
        <time>2026-08-23T13:15:46.000Z</time>
      </trkpt>
      <trkpt lat="43.31578" lon="-1.32161">
        <ele>146</ele>
        <time>2026-08-23T13:15:53.000Z</time>
      </trkpt>
      <trkpt lat="43.31578" lon="-1.32161">
        <ele>146</ele>
        <time>2026-08-23T13:15:53.000Z</time>
      </trkpt>
      <trkpt lat="43.31579" lon="-1.32166">
        <ele>145</ele>
        <time>2026-08-23T13:15:53.000Z</time>
      </trkpt>
      <trkpt lat="43.3158" lon="-1.32173">
        <ele>145</ele>
        <time>2026-08-23T13:15:54.000Z</time>
      </trkpt>
      <trkpt lat="43.3158" lon="-1.32181">
        <ele>144</ele>
        <time>2026-08-23T13:15:55.000Z</time>
      </trkpt>
      <trkpt lat="43.3158" lon="-1.32193">
        <ele>144</ele>
        <time>2026-08-23T13:15:57.000Z</time>
      </trkpt>
      <trkpt lat="43.31578" lon="-1.32203">
        <ele>143</ele>
        <time>2026-08-23T13:15:58.000Z</time>
      </trkpt>
      <trkpt lat="43.31577" lon="-1.32212">
        <ele>143</ele>
        <time>2026-08-23T13:15:59.000Z</time>
      </trkpt>
      <trkpt lat="43.31575" lon="-1.32217">
        <ele>142</ele>
        <time>2026-08-23T13:16:00.000Z</time>
      </trkpt>
      <trkpt lat="43.31573" lon="-1.32225">
        <ele>142</ele>
        <time>2026-08-23T13:16:01.000Z</time>
      </trkpt>
      <trkpt lat="43.31569" lon="-1.32236">
        <ele>141</ele>
        <time>2026-08-23T13:16:03.000Z</time>
      </trkpt>
      <trkpt lat="43.31566" lon="-1.32243">
        <ele>141</ele>
        <time>2026-08-23T13:16:04.000Z</time>
      </trkpt>
      <trkpt lat="43.31562" lon="-1.32251">
        <ele>140</ele>
        <time>2026-08-23T13:16:05.000Z</time>
      </trkpt>
      <trkpt lat="43.31559" lon="-1.32258">
        <ele>140</ele>
        <time>2026-08-23T13:16:06.000Z</time>
      </trkpt>
      <trkpt lat="43.31554" lon="-1.32265">
        <ele>140</ele>
        <time>2026-08-23T13:16:07.000Z</time>
      </trkpt>
      <trkpt lat="43.31538" lon="-1.32293">
        <ele>139</ele>
        <time>2026-08-23T13:16:12.000Z</time>
      </trkpt>
      <trkpt lat="43.31517" lon="-1.32327">
        <ele>138</ele>
        <time>2026-08-23T13:16:18.000Z</time>
      </trkpt>
      <trkpt lat="43.31506" lon="-1.32345">
        <ele>137</ele>
        <time>2026-08-23T13:16:21.000Z</time>
      </trkpt>
      <trkpt lat="43.31489" lon="-1.32374">
        <ele>137</ele>
        <time>2026-08-23T13:16:26.000Z</time>
      </trkpt>
      <trkpt lat="43.31485" lon="-1.32382">
        <ele>137</ele>
        <time>2026-08-23T13:16:27.000Z</time>
      </trkpt>
      <trkpt lat="43.3148" lon="-1.32393">
        <ele>137</ele>
        <time>2026-08-23T13:16:29.000Z</time>
      </trkpt>
      <trkpt lat="43.31465" lon="-1.32426">
        <ele>136</ele>
        <time>2026-08-23T13:16:34.000Z</time>
      </trkpt>
      <trkpt lat="43.31454" lon="-1.3245">
        <ele>136</ele>
        <time>2026-08-23T13:16:37.000Z</time>
      </trkpt>
      <trkpt lat="43.31454" lon="-1.32451">
        <ele>136</ele>
        <time>2026-08-23T13:16:37.000Z</time>
      </trkpt>
      <trkpt lat="43.31449" lon="-1.32462">
        <ele>135</ele>
        <time>2026-08-23T13:16:39.000Z</time>
      </trkpt>
      <trkpt lat="43.31445" lon="-1.32477">
        <ele>135</ele>
        <time>2026-08-23T13:16:41.000Z</time>
      </trkpt>
      <trkpt lat="43.31444" lon="-1.3248">
        <ele>135</ele>
        <time>2026-08-23T13:16:42.000Z</time>
      </trkpt>
      <trkpt lat="43.31444" lon="-1.32483">
        <ele>135</ele>
        <time>2026-08-23T13:16:42.000Z</time>
      </trkpt>
      <trkpt lat="43.31444" lon="-1.32498">
        <ele>134</ele>
        <time>2026-08-23T13:16:44.000Z</time>
      </trkpt>
      <trkpt lat="43.31445" lon="-1.32517">
        <ele>135</ele>
        <time>2026-08-23T13:16:46.000Z</time>
      </trkpt>
      <trkpt lat="43.31447" lon="-1.32559">
        <ele>136</ele>
        <time>2026-08-23T13:16:52.000Z</time>
      </trkpt>
      <trkpt lat="43.31447" lon="-1.32563">
        <ele>136</ele>
        <time>2026-08-23T13:16:52.000Z</time>
      </trkpt>
      <trkpt lat="43.31447" lon="-1.32582">
        <ele>137</ele>
        <time>2026-08-23T13:16:55.000Z</time>
      </trkpt>
      <trkpt lat="43.31447" lon="-1.32626">
        <ele>138</ele>
        <time>2026-08-23T13:17:00.000Z</time>
      </trkpt>
      <trkpt lat="43.31445" lon="-1.32662">
        <ele>138</ele>
        <time>2026-08-23T13:17:05.000Z</time>
      </trkpt>
      <trkpt lat="43.31442" lon="-1.32686">
        <ele>138</ele>
        <time>2026-08-23T13:17:08.000Z</time>
      </trkpt>
      <trkpt lat="43.31438" lon="-1.32703">
        <ele>138</ele>
        <time>2026-08-23T13:17:11.000Z</time>
      </trkpt>
      <trkpt lat="43.3143" lon="-1.32736">
        <ele>136</ele>
        <time>2026-08-23T13:17:15.000Z</time>
      </trkpt>
      <trkpt lat="43.31422" lon="-1.32774">
        <ele>134</ele>
        <time>2026-08-23T13:17:20.000Z</time>
      </trkpt>
      <trkpt lat="43.3142" lon="-1.32791">
        <ele>133</ele>
        <time>2026-08-23T13:17:22.000Z</time>
      </trkpt>
      <trkpt lat="43.31418" lon="-1.32802">
        <ele>132</ele>
        <time>2026-08-23T13:17:24.000Z</time>
      </trkpt>
      <trkpt lat="43.31417" lon="-1.32815">
        <ele>132</ele>
        <time>2026-08-23T13:17:26.000Z</time>
      </trkpt>
      <trkpt lat="43.31418" lon="-1.32827">
        <ele>131</ele>
        <time>2026-08-23T13:17:27.000Z</time>
      </trkpt>
      <trkpt lat="43.31418" lon="-1.3284">
        <ele>131</ele>
        <time>2026-08-23T13:17:29.000Z</time>
      </trkpt>
      <trkpt lat="43.31419" lon="-1.32865">
        <ele>132</ele>
        <time>2026-08-23T13:17:32.000Z</time>
      </trkpt>
      <trkpt lat="43.31421" lon="-1.32897">
        <ele>132</ele>
        <time>2026-08-23T13:17:36.000Z</time>
      </trkpt>
      <trkpt lat="43.3142" lon="-1.32908">
        <ele>132</ele>
        <time>2026-08-23T13:17:38.000Z</time>
      </trkpt>
      <trkpt lat="43.31418" lon="-1.32926">
        <ele>131</ele>
        <time>2026-08-23T13:17:40.000Z</time>
      </trkpt>
      <trkpt lat="43.31416" lon="-1.32933">
        <ele>131</ele>
        <time>2026-08-23T13:17:41.000Z</time>
      </trkpt>
      <trkpt lat="43.31409" lon="-1.32968">
        <ele>129</ele>
        <time>2026-08-23T13:17:46.000Z</time>
      </trkpt>
      <trkpt lat="43.31399" lon="-1.33011">
        <ele>128</ele>
        <time>2026-08-23T13:17:52.000Z</time>
      </trkpt>
      <trkpt lat="43.31398" lon="-1.33016">
        <ele>129</ele>
        <time>2026-08-23T13:17:52.000Z</time>
      </trkpt>
      <trkpt lat="43.31392" lon="-1.3305">
        <ele>129</ele>
        <time>2026-08-23T13:17:57.000Z</time>
      </trkpt>
      <trkpt lat="43.31389" lon="-1.33069">
        <ele>130</ele>
        <time>2026-08-23T13:17:59.000Z</time>
      </trkpt>
      <trkpt lat="43.31388" lon="-1.33083">
        <ele>130</ele>
        <time>2026-08-23T13:18:01.000Z</time>
      </trkpt>
      <trkpt lat="43.31388" lon="-1.33093">
        <ele>130</ele>
        <time>2026-08-23T13:18:02.000Z</time>
      </trkpt>
      <trkpt lat="43.31388" lon="-1.33125">
        <ele>129</ele>
        <time>2026-08-23T13:18:07.000Z</time>
      </trkpt>
      <trkpt lat="43.31388" lon="-1.33134">
        <ele>129</ele>
        <time>2026-08-23T13:18:08.000Z</time>
      </trkpt>
      <trkpt lat="43.31387" lon="-1.33148">
        <ele>129</ele>
        <time>2026-08-23T13:18:10.000Z</time>
      </trkpt>
      <trkpt lat="43.31385" lon="-1.33166">
        <ele>128</ele>
        <time>2026-08-23T13:18:12.000Z</time>
      </trkpt>
      <trkpt lat="43.31381" lon="-1.33181">
        <ele>127</ele>
        <time>2026-08-23T13:18:14.000Z</time>
      </trkpt>
      <trkpt lat="43.31373" lon="-1.33197">
        <ele>126</ele>
        <time>2026-08-23T13:18:16.000Z</time>
      </trkpt>
      <trkpt lat="43.31366" lon="-1.33207">
        <ele>125</ele>
        <time>2026-08-23T13:18:18.000Z</time>
      </trkpt>
      <trkpt lat="43.31355" lon="-1.33224">
        <ele>124</ele>
        <time>2026-08-23T13:18:21.000Z</time>
      </trkpt>
      <trkpt lat="43.31347" lon="-1.33237">
        <ele>123</ele>
        <time>2026-08-23T13:18:23.000Z</time>
      </trkpt>
      <trkpt lat="43.31341" lon="-1.33248">
        <ele>123</ele>
        <time>2026-08-23T13:18:25.000Z</time>
      </trkpt>
      <trkpt lat="43.31337" lon="-1.33256">
        <ele>122</ele>
        <time>2026-08-23T13:18:26.000Z</time>
      </trkpt>
      <trkpt lat="43.3133" lon="-1.33278">
        <ele>121</ele>
        <time>2026-08-23T13:18:30.000Z</time>
      </trkpt>
      <trkpt lat="43.31328" lon="-1.33309">
        <ele>121</ele>
        <time>2026-08-23T13:18:34.000Z</time>
      </trkpt>
      <trkpt lat="43.31325" lon="-1.33379">
        <ele>119</ele>
        <time>2026-08-23T13:18:43.000Z</time>
      </trkpt>
      <trkpt lat="43.31323" lon="-1.33395">
        <ele>119</ele>
        <time>2026-08-23T13:18:45.000Z</time>
      </trkpt>
      <trkpt lat="43.31319" lon="-1.33411">
        <ele>118</ele>
        <time>2026-08-23T13:18:47.000Z</time>
      </trkpt>
      <trkpt lat="43.31315" lon="-1.33423">
        <ele>118</ele>
        <time>2026-08-23T13:18:49.000Z</time>
      </trkpt>
      <trkpt lat="43.31311" lon="-1.33433">
        <ele>118</ele>
        <time>2026-08-23T13:18:50.000Z</time>
      </trkpt>
      <trkpt lat="43.31306" lon="-1.33444">
        <ele>118</ele>
        <time>2026-08-23T13:18:52.000Z</time>
      </trkpt>
      <trkpt lat="43.31287" lon="-1.33482">
        <ele>120</ele>
        <time>2026-08-23T13:18:58.000Z</time>
      </trkpt>
      <trkpt lat="43.31273" lon="-1.33513">
        <ele>121</ele>
        <time>2026-08-23T13:19:03.000Z</time>
      </trkpt>
      <trkpt lat="43.31271" lon="-1.33518">
        <ele>122</ele>
        <time>2026-08-23T13:19:03.000Z</time>
      </trkpt>
      <trkpt lat="43.31267" lon="-1.33526">
        <ele>122</ele>
        <time>2026-08-23T13:19:05.000Z</time>
      </trkpt>
      <trkpt lat="43.31262" lon="-1.33536">
        <ele>123</ele>
        <time>2026-08-23T13:19:06.000Z</time>
      </trkpt>
      <trkpt lat="43.31258" lon="-1.3355">
        <ele>125</ele>
        <time>2026-08-23T13:19:08.000Z</time>
      </trkpt>
      <trkpt lat="43.31256" lon="-1.3356">
        <ele>126</ele>
        <time>2026-08-23T13:19:09.000Z</time>
      </trkpt>
      <trkpt lat="43.31255" lon="-1.33579">
        <ele>127</ele>
        <time>2026-08-23T13:19:12.000Z</time>
      </trkpt>
      <trkpt lat="43.31256" lon="-1.33607">
        <ele>129</ele>
        <time>2026-08-23T13:19:15.000Z</time>
      </trkpt>
      <trkpt lat="43.3126" lon="-1.33654">
        <ele>131</ele>
        <time>2026-08-23T13:19:22.000Z</time>
      </trkpt>
      <trkpt lat="43.31262" lon="-1.33666">
        <ele>131</ele>
        <time>2026-08-23T13:19:23.000Z</time>
      </trkpt>
      <trkpt lat="43.31265" lon="-1.33686">
        <ele>133</ele>
        <time>2026-08-23T13:19:26.000Z</time>
      </trkpt>
      <trkpt lat="43.31276" lon="-1.33727">
        <ele>134</ele>
        <time>2026-08-23T13:19:31.000Z</time>
      </trkpt>
      <trkpt lat="43.31278" lon="-1.33739">
        <ele>134</ele>
        <time>2026-08-23T13:19:33.000Z</time>
      </trkpt>
      <trkpt lat="43.3128" lon="-1.33763">
        <ele>134</ele>
        <time>2026-08-23T13:19:36.000Z</time>
      </trkpt>
      <trkpt lat="43.31279" lon="-1.33782">
        <ele>135</ele>
        <time>2026-08-23T13:19:39.000Z</time>
      </trkpt>
      <trkpt lat="43.31277" lon="-1.33812">
        <ele>136</ele>
        <time>2026-08-23T13:19:43.000Z</time>
      </trkpt>
      <trkpt lat="43.31277" lon="-1.33818">
        <ele>136</ele>
        <time>2026-08-23T13:19:43.000Z</time>
      </trkpt>
      <trkpt lat="43.31278" lon="-1.33845">
        <ele>136</ele>
        <time>2026-08-23T13:19:47.000Z</time>
      </trkpt>
      <trkpt lat="43.31279" lon="-1.33852">
        <ele>136</ele>
        <time>2026-08-23T13:19:48.000Z</time>
      </trkpt>
      <trkpt lat="43.31284" lon="-1.33874">
        <ele>135</ele>
        <time>2026-08-23T13:19:51.000Z</time>
      </trkpt>
      <trkpt lat="43.31286" lon="-1.33883">
        <ele>134</ele>
        <time>2026-08-23T13:19:52.000Z</time>
      </trkpt>
      <trkpt lat="43.31293" lon="-1.33899">
        <ele>132</ele>
        <time>2026-08-23T13:19:54.000Z</time>
      </trkpt>
      <trkpt lat="43.313" lon="-1.33916">
        <ele>130</ele>
        <time>2026-08-23T13:19:57.000Z</time>
      </trkpt>
      <trkpt lat="43.31311" lon="-1.33937">
        <ele>126</ele>
        <time>2026-08-23T13:20:00.000Z</time>
      </trkpt>
      <trkpt lat="43.31326" lon="-1.33967">
        <ele>122</ele>
        <time>2026-08-23T13:20:05.000Z</time>
      </trkpt>
      <trkpt lat="43.31342" lon="-1.34001">
        <ele>119</ele>
        <time>2026-08-23T13:20:10.000Z</time>
      </trkpt>
      <trkpt lat="43.3135" lon="-1.34017">
        <ele>120</ele>
        <time>2026-08-23T13:20:13.000Z</time>
      </trkpt>
      <trkpt lat="43.31352" lon="-1.34022">
        <ele>120</ele>
        <time>2026-08-23T13:20:13.000Z</time>
      </trkpt>
      <trkpt lat="43.31358" lon="-1.34034">
        <ele>121</ele>
        <time>2026-08-23T13:20:15.000Z</time>
      </trkpt>
      <trkpt lat="43.31369" lon="-1.34059">
        <ele>121</ele>
        <time>2026-08-23T13:20:19.000Z</time>
      </trkpt>
      <trkpt lat="43.31377" lon="-1.34077">
        <ele>121</ele>
        <time>2026-08-23T13:20:22.000Z</time>
      </trkpt>
      <trkpt lat="43.31385" lon="-1.34103">
        <ele>121</ele>
        <time>2026-08-23T13:20:26.000Z</time>
      </trkpt>
      <trkpt lat="43.31394" lon="-1.34132">
        <ele>121</ele>
        <time>2026-08-23T13:20:30.000Z</time>
      </trkpt>
      <trkpt lat="43.31403" lon="-1.34166">
        <ele>121</ele>
        <time>2026-08-23T13:20:34.000Z</time>
      </trkpt>
      <trkpt lat="43.31412" lon="-1.34193">
        <ele>120</ele>
        <time>2026-08-23T13:20:38.000Z</time>
      </trkpt>
      <trkpt lat="43.31419" lon="-1.34209">
        <ele>119</ele>
        <time>2026-08-23T13:20:41.000Z</time>
      </trkpt>
      <trkpt lat="43.31425" lon="-1.34223">
        <ele>119</ele>
        <time>2026-08-23T13:20:43.000Z</time>
      </trkpt>
      <trkpt lat="43.31436" lon="-1.3424">
        <ele>118</ele>
        <time>2026-08-23T13:20:46.000Z</time>
      </trkpt>
      <trkpt lat="43.31445" lon="-1.34254">
        <ele>117</ele>
        <time>2026-08-23T13:20:48.000Z</time>
      </trkpt>
      <trkpt lat="43.31449" lon="-1.34261">
        <ele>116</ele>
        <time>2026-08-23T13:20:49.000Z</time>
      </trkpt>
      <trkpt lat="43.31459" lon="-1.34279">
        <ele>115</ele>
        <time>2026-08-23T13:20:52.000Z</time>
      </trkpt>
      <trkpt lat="43.31465" lon="-1.34295">
        <ele>114</ele>
        <time>2026-08-23T13:20:54.000Z</time>
      </trkpt>
      <trkpt lat="43.31469" lon="-1.34303">
        <ele>114</ele>
        <time>2026-08-23T13:20:56.000Z</time>
      </trkpt>
      <trkpt lat="43.31478" lon="-1.3433">
        <ele>112</ele>
        <time>2026-08-23T13:21:00.000Z</time>
      </trkpt>
      <trkpt lat="43.31483" lon="-1.34348">
        <ele>112</ele>
        <time>2026-08-23T13:21:02.000Z</time>
      </trkpt>
      <trkpt lat="43.31488" lon="-1.34371">
        <ele>111</ele>
        <time>2026-08-23T13:21:05.000Z</time>
      </trkpt>
      <trkpt lat="43.3149" lon="-1.34388">
        <ele>111</ele>
        <time>2026-08-23T13:21:07.000Z</time>
      </trkpt>
      <trkpt lat="43.3149" lon="-1.3439">
        <ele>111</ele>
        <time>2026-08-23T13:21:08.000Z</time>
      </trkpt>
      <trkpt lat="43.31493" lon="-1.3441">
        <ele>111</ele>
        <time>2026-08-23T13:21:10.000Z</time>
      </trkpt>
      <trkpt lat="43.31499" lon="-1.34459">
        <ele>110</ele>
        <time>2026-08-23T13:21:17.000Z</time>
      </trkpt>
      <trkpt lat="43.31504" lon="-1.34498">
        <ele>110</ele>
        <time>2026-08-23T13:21:22.000Z</time>
      </trkpt>
      <trkpt lat="43.3151" lon="-1.34557">
        <ele>111</ele>
        <time>2026-08-23T13:21:30.000Z</time>
      </trkpt>
      <trkpt lat="43.31515" lon="-1.34596">
        <ele>111</ele>
        <time>2026-08-23T13:21:35.000Z</time>
      </trkpt>
      <trkpt lat="43.31518" lon="-1.34617">
        <ele>112</ele>
        <time>2026-08-23T13:21:37.000Z</time>
      </trkpt>
      <trkpt lat="43.31521" lon="-1.34634">
        <ele>112</ele>
        <time>2026-08-23T13:21:40.000Z</time>
      </trkpt>
      <trkpt lat="43.31527" lon="-1.34662">
        <ele>112</ele>
        <time>2026-08-23T13:21:43.000Z</time>
      </trkpt>
      <trkpt lat="43.3153" lon="-1.34673">
        <ele>112</ele>
        <time>2026-08-23T13:21:45.000Z</time>
      </trkpt>
      <trkpt lat="43.3153" lon="-1.34674">
        <ele>112</ele>
        <time>2026-08-23T13:21:45.000Z</time>
      </trkpt>
      <trkpt lat="43.31533" lon="-1.34684">
        <ele>111</ele>
        <time>2026-08-23T13:21:47.000Z</time>
      </trkpt>
      <trkpt lat="43.31542" lon="-1.34719">
        <ele>108</ele>
        <time>2026-08-23T13:21:51.000Z</time>
      </trkpt>
      <trkpt lat="43.31549" lon="-1.34747">
        <ele>106</ele>
        <time>2026-08-23T13:21:55.000Z</time>
      </trkpt>
      <trkpt lat="43.31553" lon="-1.3477">
        <ele>105</ele>
        <time>2026-08-23T13:21:58.000Z</time>
      </trkpt>
      <trkpt lat="43.31557" lon="-1.34786">
        <ele>104</ele>
        <time>2026-08-23T13:22:00.000Z</time>
      </trkpt>
      <trkpt lat="43.31559" lon="-1.34794">
        <ele>104</ele>
        <time>2026-08-23T13:22:02.000Z</time>
      </trkpt>
      <trkpt lat="43.3156" lon="-1.34802">
        <ele>104</ele>
        <time>2026-08-23T13:22:03.000Z</time>
      </trkpt>
      <trkpt lat="43.31572" lon="-1.34848">
        <ele>104</ele>
        <time>2026-08-23T13:22:09.000Z</time>
      </trkpt>
      <trkpt lat="43.31575" lon="-1.34861">
        <ele>104</ele>
        <time>2026-08-23T13:22:11.000Z</time>
      </trkpt>
      <trkpt lat="43.31581" lon="-1.34888">
        <ele>104</ele>
        <time>2026-08-23T13:22:14.000Z</time>
      </trkpt>
      <trkpt lat="43.31589" lon="-1.3492">
        <ele>104</ele>
        <time>2026-08-23T13:22:19.000Z</time>
      </trkpt>
      <trkpt lat="43.31615" lon="-1.35023">
        <ele>106</ele>
        <time>2026-08-23T13:22:33.000Z</time>
      </trkpt>
      <trkpt lat="43.31617" lon="-1.35033">
        <ele>107</ele>
        <time>2026-08-23T13:22:34.000Z</time>
      </trkpt>
      <trkpt lat="43.31617" lon="-1.35033">
        <ele>107</ele>
        <time>2026-08-23T13:22:34.000Z</time>
      </trkpt>
      <trkpt lat="43.31603" lon="-1.35034">
        <ele>106</ele>
        <time>2026-08-23T13:22:37.000Z</time>
      </trkpt>
      <trkpt lat="43.31591" lon="-1.35032">
        <ele>105</ele>
        <time>2026-08-23T13:22:39.000Z</time>
      </trkpt>
      <trkpt lat="43.31571" lon="-1.35024">
        <ele>104</ele>
        <time>2026-08-23T13:22:43.000Z</time>
      </trkpt>
      <trkpt lat="43.31548" lon="-1.35011">
        <ele>104</ele>
        <time>2026-08-23T13:22:47.000Z</time>
      </trkpt>
      <trkpt lat="43.31536" lon="-1.35005">
        <ele>104</ele>
        <time>2026-08-23T13:22:49.000Z</time>
      </trkpt>
      <trkpt lat="43.31531" lon="-1.35003">
        <ele>104</ele>
        <time>2026-08-23T13:22:50.000Z</time>
      </trkpt>
      <trkpt lat="43.31526" lon="-1.35003">
        <ele>104</ele>
        <time>2026-08-23T13:22:51.000Z</time>
      </trkpt>
      <trkpt lat="43.31517" lon="-1.35001">
        <ele>103</ele>
        <time>2026-08-23T13:22:53.000Z</time>
      </trkpt>
      <trkpt lat="43.31507" lon="-1.35001">
        <ele>103</ele>
        <time>2026-08-23T13:22:54.000Z</time>
      </trkpt>
      <trkpt lat="43.31496" lon="-1.35008">
        <ele>104</ele>
        <time>2026-08-23T13:22:57.000Z</time>
      </trkpt>
      <trkpt lat="43.31489" lon="-1.35015">
        <ele>105</ele>
        <time>2026-08-23T13:22:58.000Z</time>
      </trkpt>
      <trkpt lat="43.31487" lon="-1.35022">
        <ele>106</ele>
        <time>2026-08-23T13:22:59.000Z</time>
      </trkpt>
      <trkpt lat="43.31485" lon="-1.35029">
        <ele>108</ele>
        <time>2026-08-23T13:23:00.000Z</time>
      </trkpt>
      <trkpt lat="43.31484" lon="-1.35037">
        <ele>109</ele>
        <time>2026-08-23T13:23:01.000Z</time>
      </trkpt>
      <trkpt lat="43.31484" lon="-1.35042">
        <ele>109</ele>
        <time>2026-08-23T13:23:02.000Z</time>
      </trkpt>
      <trkpt lat="43.31484" lon="-1.35042">
        <ele>109</ele>
        <time>2026-08-23T13:23:02.000Z</time>
      </trkpt>
      <trkpt lat="43.31485" lon="-1.35043">
        <ele>109</ele>
        <time>2026-08-23T13:23:02.000Z</time>
      </trkpt>
      <trkpt lat="43.31485" lon="-1.35044">
        <ele>110</ele>
        <time>2026-08-23T13:23:02.000Z</time>
      </trkpt>
      <trkpt lat="43.31486" lon="-1.35045">
        <ele>110</ele>
        <time>2026-08-23T13:23:02.000Z</time>
      </trkpt>
      <trkpt lat="43.31486" lon="-1.35046">
        <ele>110</ele>
        <time>2026-08-23T13:23:02.000Z</time>
      </trkpt>
      <trkpt lat="43.31486" lon="-1.35047">
        <ele>110</ele>
        <time>2026-08-23T13:23:03.000Z</time>
      </trkpt>
      <trkpt lat="43.31487" lon="-1.35048">
        <ele>110</ele>
        <time>2026-08-23T13:23:03.000Z</time>
      </trkpt>
      <trkpt lat="43.31487" lon="-1.35049">
        <ele>110</ele>
        <time>2026-08-23T13:23:03.000Z</time>
      </trkpt>
      <trkpt lat="43.31487" lon="-1.3505">
        <ele>110</ele>
        <time>2026-08-23T13:23:03.000Z</time>
      </trkpt>
      <trkpt lat="43.31487" lon="-1.35051">
        <ele>110</ele>
        <time>2026-08-23T13:23:03.000Z</time>
      </trkpt>
      <trkpt lat="43.31487" lon="-1.35052">
        <ele>110</ele>
        <time>2026-08-23T13:23:03.000Z</time>
      </trkpt>
      <trkpt lat="43.31487" lon="-1.35054">
        <ele>111</ele>
        <time>2026-08-23T13:23:04.000Z</time>
      </trkpt>
      <trkpt lat="43.31487" lon="-1.35055">
        <ele>111</ele>
        <time>2026-08-23T13:23:04.000Z</time>
      </trkpt>
      <trkpt lat="43.31487" lon="-1.35056">
        <ele>111</ele>
        <time>2026-08-23T13:23:04.000Z</time>
      </trkpt>
      <trkpt lat="43.31487" lon="-1.35057">
        <ele>111</ele>
        <time>2026-08-23T13:23:04.000Z</time>
      </trkpt>
      <trkpt lat="43.31487" lon="-1.35058">
        <ele>111</ele>
        <time>2026-08-23T13:23:04.000Z</time>
      </trkpt>
      <trkpt lat="43.31486" lon="-1.35059">
        <ele>111</ele>
        <time>2026-08-23T13:23:04.000Z</time>
      </trkpt>
      <trkpt lat="43.31486" lon="-1.3506">
        <ele>111</ele>
        <time>2026-08-23T13:23:04.000Z</time>
      </trkpt>
      <trkpt lat="43.31486" lon="-1.35061">
        <ele>112</ele>
        <time>2026-08-23T13:23:05.000Z</time>
      </trkpt>
      <trkpt lat="43.31486" lon="-1.35062">
        <ele>112</ele>
        <time>2026-08-23T13:23:05.000Z</time>
      </trkpt>
      <trkpt lat="43.31485" lon="-1.35063">
        <ele>112</ele>
        <time>2026-08-23T13:23:05.000Z</time>
      </trkpt>
      <trkpt lat="43.31485" lon="-1.35064">
        <ele>112</ele>
        <time>2026-08-23T13:23:05.000Z</time>
      </trkpt>
      <trkpt lat="43.31484" lon="-1.35064">
        <ele>112</ele>
        <time>2026-08-23T13:23:05.000Z</time>
      </trkpt>
      <trkpt lat="43.31484" lon="-1.35065">
        <ele>112</ele>
        <time>2026-08-23T13:23:05.000Z</time>
      </trkpt>
      <trkpt lat="43.31483" lon="-1.35066">
        <ele>113</ele>
        <time>2026-08-23T13:23:06.000Z</time>
      </trkpt>
      <trkpt lat="43.31483" lon="-1.35067">
        <ele>113</ele>
        <time>2026-08-23T13:23:06.000Z</time>
      </trkpt>
      <trkpt lat="43.31482" lon="-1.35067">
        <ele>113</ele>
        <time>2026-08-23T13:23:06.000Z</time>
      </trkpt>
      <trkpt lat="43.31482" lon="-1.35068">
        <ele>113</ele>
        <time>2026-08-23T13:23:06.000Z</time>
      </trkpt>
      <trkpt lat="43.31481" lon="-1.35068">
        <ele>113</ele>
        <time>2026-08-23T13:23:06.000Z</time>
      </trkpt>
      <trkpt lat="43.3148" lon="-1.35069">
        <ele>114</ele>
        <time>2026-08-23T13:23:06.000Z</time>
      </trkpt>
      <trkpt lat="43.31479" lon="-1.3507">
        <ele>114</ele>
        <time>2026-08-23T13:23:07.000Z</time>
      </trkpt>
      <trkpt lat="43.31478" lon="-1.35071">
        <ele>114</ele>
        <time>2026-08-23T13:23:07.000Z</time>
      </trkpt>
      <trkpt lat="43.31477" lon="-1.35071">
        <ele>114</ele>
        <time>2026-08-23T13:23:07.000Z</time>
      </trkpt>
      <trkpt lat="43.31476" lon="-1.35071">
        <ele>115</ele>
        <time>2026-08-23T13:23:07.000Z</time>
      </trkpt>
      <trkpt lat="43.31475" lon="-1.35071">
        <ele>115</ele>
        <time>2026-08-23T13:23:07.000Z</time>
      </trkpt>
      <trkpt lat="43.31474" lon="-1.35072">
        <ele>115</ele>
        <time>2026-08-23T13:23:08.000Z</time>
      </trkpt>
      <trkpt lat="43.31473" lon="-1.35072">
        <ele>115</ele>
        <time>2026-08-23T13:23:08.000Z</time>
      </trkpt>
      <trkpt lat="43.31472" lon="-1.35072">
        <ele>115</ele>
        <time>2026-08-23T13:23:08.000Z</time>
      </trkpt>
      <trkpt lat="43.31471" lon="-1.35071">
        <ele>115</ele>
        <time>2026-08-23T13:23:08.000Z</time>
      </trkpt>
      <trkpt lat="43.3147" lon="-1.35071">
        <ele>115</ele>
        <time>2026-08-23T13:23:08.000Z</time>
      </trkpt>
      <trkpt lat="43.31469" lon="-1.35071">
        <ele>116</ele>
        <time>2026-08-23T13:23:09.000Z</time>
      </trkpt>
      <trkpt lat="43.31469" lon="-1.3507">
        <ele>115</ele>
        <time>2026-08-23T13:23:09.000Z</time>
      </trkpt>
      <trkpt lat="43.31468" lon="-1.3507">
        <ele>116</ele>
        <time>2026-08-23T13:23:09.000Z</time>
      </trkpt>
      <trkpt lat="43.31467" lon="-1.35069">
        <ele>116</ele>
        <time>2026-08-23T13:23:09.000Z</time>
      </trkpt>
      <trkpt lat="43.31466" lon="-1.35068">
        <ele>116</ele>
        <time>2026-08-23T13:23:09.000Z</time>
      </trkpt>
      <trkpt lat="43.31465" lon="-1.35067">
        <ele>116</ele>
        <time>2026-08-23T13:23:10.000Z</time>
      </trkpt>
      <trkpt lat="43.31464" lon="-1.35066">
        <ele>116</ele>
        <time>2026-08-23T13:23:10.000Z</time>
      </trkpt>
      <trkpt lat="43.31464" lon="-1.35065">
        <ele>115</ele>
        <time>2026-08-23T13:23:10.000Z</time>
      </trkpt>
      <trkpt lat="43.31463" lon="-1.35064">
        <ele>115</ele>
        <time>2026-08-23T13:23:10.000Z</time>
      </trkpt>
      <trkpt lat="43.31463" lon="-1.35063">
        <ele>115</ele>
        <time>2026-08-23T13:23:10.000Z</time>
      </trkpt>
      <trkpt lat="43.31462" lon="-1.35062">
        <ele>115</ele>
        <time>2026-08-23T13:23:10.000Z</time>
      </trkpt>
      <trkpt lat="43.31462" lon="-1.35061">
        <ele>115</ele>
        <time>2026-08-23T13:23:11.000Z</time>
      </trkpt>
      <trkpt lat="43.31462" lon="-1.35059">
        <ele>115</ele>
        <time>2026-08-23T13:23:11.000Z</time>
      </trkpt>
      <trkpt lat="43.31455" lon="-1.35056">
        <ele>115</ele>
        <time>2026-08-23T13:23:12.000Z</time>
      </trkpt>
      <trkpt lat="43.3145" lon="-1.35055">
        <ele>116</ele>
        <time>2026-08-23T13:23:13.000Z</time>
      </trkpt>
      <trkpt lat="43.31442" lon="-1.35052">
        <ele>116</ele>
        <time>2026-08-23T13:23:15.000Z</time>
      </trkpt>
      <trkpt lat="43.31438" lon="-1.35049">
        <ele>116</ele>
        <time>2026-08-23T13:23:15.000Z</time>
      </trkpt>
      <trkpt lat="43.31433" lon="-1.35047">
        <ele>116</ele>
        <time>2026-08-23T13:23:16.000Z</time>
      </trkpt>
      <trkpt lat="43.31427" lon="-1.35044">
        <ele>116</ele>
        <time>2026-08-23T13:23:17.000Z</time>
      </trkpt>
      <trkpt lat="43.31417" lon="-1.35037">
        <ele>116</ele>
        <time>2026-08-23T13:23:19.000Z</time>
      </trkpt>
      <trkpt lat="43.31394" lon="-1.3502">
        <ele>111</ele>
        <time>2026-08-23T13:23:24.000Z</time>
      </trkpt>
      <trkpt lat="43.3139" lon="-1.35018">
        <ele>111</ele>
        <time>2026-08-23T13:23:25.000Z</time>
      </trkpt>
      <trkpt lat="43.31384" lon="-1.35015">
        <ele>110</ele>
        <time>2026-08-23T13:23:26.000Z</time>
      </trkpt>
      <trkpt lat="43.31376" lon="-1.35013">
        <ele>109</ele>
        <time>2026-08-23T13:23:27.000Z</time>
      </trkpt>
      <trkpt lat="43.31368" lon="-1.35012">
        <ele>108</ele>
        <time>2026-08-23T13:23:29.000Z</time>
      </trkpt>
      <trkpt lat="43.31364" lon="-1.35011">
        <ele>108</ele>
        <time>2026-08-23T13:23:30.000Z</time>
      </trkpt>
      <trkpt lat="43.31354" lon="-1.35012">
        <ele>108</ele>
        <time>2026-08-23T13:23:31.000Z</time>
      </trkpt>
      <trkpt lat="43.31347" lon="-1.35014">
        <ele>108</ele>
        <time>2026-08-23T13:23:33.000Z</time>
      </trkpt>
      <trkpt lat="43.31339" lon="-1.35018">
        <ele>109</ele>
        <time>2026-08-23T13:23:34.000Z</time>
      </trkpt>
      <trkpt lat="43.31334" lon="-1.35021">
        <ele>110</ele>
        <time>2026-08-23T13:23:35.000Z</time>
      </trkpt>
      <trkpt lat="43.31328" lon="-1.35026">
        <ele>112</ele>
        <time>2026-08-23T13:23:36.000Z</time>
      </trkpt>
      <trkpt lat="43.31309" lon="-1.35044">
        <ele>117</ele>
        <time>2026-08-23T13:23:40.000Z</time>
      </trkpt>
      <trkpt lat="43.31286" lon="-1.35063">
        <ele>119</ele>
        <time>2026-08-23T13:23:45.000Z</time>
      </trkpt>
      <trkpt lat="43.31275" lon="-1.35069">
        <ele>119</ele>
        <time>2026-08-23T13:23:47.000Z</time>
      </trkpt>
      <trkpt lat="43.31252" lon="-1.35075">
        <ele>117</ele>
        <time>2026-08-23T13:23:51.000Z</time>
      </trkpt>
      <trkpt lat="43.31229" lon="-1.35076">
        <ele>113</ele>
        <time>2026-08-23T13:23:56.000Z</time>
      </trkpt>
      <trkpt lat="43.31193" lon="-1.35073">
        <ele>107</ele>
        <time>2026-08-23T13:24:02.000Z</time>
      </trkpt>
      <trkpt lat="43.31181" lon="-1.35073">
        <ele>106</ele>
        <time>2026-08-23T13:24:04.000Z</time>
      </trkpt>
      <trkpt lat="43.31168" lon="-1.35075">
        <ele>103</ele>
        <time>2026-08-23T13:24:06.000Z</time>
      </trkpt>
      <trkpt lat="43.31163" lon="-1.35076">
        <ele>103</ele>
        <time>2026-08-23T13:24:07.000Z</time>
      </trkpt>
      <trkpt lat="43.31159" lon="-1.35077">
        <ele>103</ele>
        <time>2026-08-23T13:24:08.000Z</time>
      </trkpt>
      <trkpt lat="43.31153" lon="-1.35079">
        <ele>102</ele>
        <time>2026-08-23T13:24:09.000Z</time>
      </trkpt>
      <trkpt lat="43.31141" lon="-1.35086">
        <ele>101</ele>
        <time>2026-08-23T13:24:11.000Z</time>
      </trkpt>
      <trkpt lat="43.31134" lon="-1.35092">
        <ele>102</ele>
        <time>2026-08-23T13:24:13.000Z</time>
      </trkpt>
      <trkpt lat="43.31129" lon="-1.35097">
        <ele>102</ele>
        <time>2026-08-23T13:24:14.000Z</time>
      </trkpt>
      <trkpt lat="43.31124" lon="-1.35104">
        <ele>102</ele>
        <time>2026-08-23T13:24:15.000Z</time>
      </trkpt>
      <trkpt lat="43.31117" lon="-1.35114">
        <ele>102</ele>
        <time>2026-08-23T13:24:17.000Z</time>
      </trkpt>
      <trkpt lat="43.31109" lon="-1.35127">
        <ele>102</ele>
        <time>2026-08-23T13:24:19.000Z</time>
      </trkpt>
      <trkpt lat="43.31097" lon="-1.35151">
        <ele>101</ele>
        <time>2026-08-23T13:24:23.000Z</time>
      </trkpt>
      <trkpt lat="43.31093" lon="-1.35158">
        <ele>100</ele>
        <time>2026-08-23T13:24:24.000Z</time>
      </trkpt>
      <trkpt lat="43.3109" lon="-1.35166">
        <ele>99</ele>
        <time>2026-08-23T13:24:25.000Z</time>
      </trkpt>
      <trkpt lat="43.31083" lon="-1.35181">
        <ele>98</ele>
        <time>2026-08-23T13:24:28.000Z</time>
      </trkpt>
      <trkpt lat="43.31073" lon="-1.352">
        <ele>99</ele>
        <time>2026-08-23T13:24:31.000Z</time>
      </trkpt>
      <trkpt lat="43.31065" lon="-1.35215">
        <ele>100</ele>
        <time>2026-08-23T13:24:33.000Z</time>
      </trkpt>
      <trkpt lat="43.3106" lon="-1.35223">
        <ele>101</ele>
        <time>2026-08-23T13:24:35.000Z</time>
      </trkpt>
      <trkpt lat="43.31048" lon="-1.3524">
        <ele>102</ele>
        <time>2026-08-23T13:24:38.000Z</time>
      </trkpt>
      <trkpt lat="43.31039" lon="-1.3525">
        <ele>102</ele>
        <time>2026-08-23T13:24:40.000Z</time>
      </trkpt>
      <trkpt lat="43.31024" lon="-1.35264">
        <ele>104</ele>
        <time>2026-08-23T13:24:43.000Z</time>
      </trkpt>
      <trkpt lat="43.31017" lon="-1.3527">
        <ele>104</ele>
        <time>2026-08-23T13:24:44.000Z</time>
      </trkpt>
      <trkpt lat="43.31012" lon="-1.35276">
        <ele>104</ele>
        <time>2026-08-23T13:24:46.000Z</time>
      </trkpt>
      <trkpt lat="43.31007" lon="-1.35284">
        <ele>104</ele>
        <time>2026-08-23T13:24:47.000Z</time>
      </trkpt>
      <trkpt lat="43.30996" lon="-1.35304">
        <ele>102</ele>
        <time>2026-08-23T13:24:50.000Z</time>
      </trkpt>
      <trkpt lat="43.30972" lon="-1.3535">
        <ele>103</ele>
        <time>2026-08-23T13:24:57.000Z</time>
      </trkpt>
      <trkpt lat="43.30946" lon="-1.35401">
        <ele>100</ele>
        <time>2026-08-23T13:25:06.000Z</time>
      </trkpt>
      <trkpt lat="43.30933" lon="-1.35425">
        <ele>98</ele>
        <time>2026-08-23T13:25:09.000Z</time>
      </trkpt>
      <trkpt lat="43.30927" lon="-1.35438">
        <ele>97</ele>
        <time>2026-08-23T13:25:11.000Z</time>
      </trkpt>
      <trkpt lat="43.30927" lon="-1.35438">
        <ele>97</ele>
        <time>2026-08-23T13:25:11.000Z</time>
      </trkpt>
      <trkpt lat="43.30926" lon="-1.35445">
        <ele>96</ele>
        <time>2026-08-23T13:25:12.000Z</time>
      </trkpt>
      <trkpt lat="43.30916" lon="-1.3547">
        <ele>94</ele>
        <time>2026-08-23T13:25:16.000Z</time>
      </trkpt>
      <trkpt lat="43.3091" lon="-1.35491">
        <ele>93</ele>
        <time>2026-08-23T13:25:19.000Z</time>
      </trkpt>
      <trkpt lat="43.30905" lon="-1.35509">
        <ele>93</ele>
        <time>2026-08-23T13:25:21.000Z</time>
      </trkpt>
      <trkpt lat="43.30903" lon="-1.35516">
        <ele>93</ele>
        <time>2026-08-23T13:25:22.000Z</time>
      </trkpt>
      <trkpt lat="43.30888" lon="-1.35575">
        <ele>91</ele>
        <time>2026-08-23T13:25:30.000Z</time>
      </trkpt>
      <trkpt lat="43.30884" lon="-1.35588">
        <ele>90</ele>
        <time>2026-08-23T13:25:32.000Z</time>
      </trkpt>
      <trkpt lat="43.30862" lon="-1.35663">
        <ele>85</ele>
        <time>2026-08-23T13:25:43.000Z</time>
      </trkpt>
      <trkpt lat="43.30857" lon="-1.35673">
        <ele>85</ele>
        <time>2026-08-23T13:25:44.000Z</time>
      </trkpt>
      <trkpt lat="43.30816" lon="-1.3582">
        <ele>96</ele>
        <time>2026-08-23T13:26:05.000Z</time>
      </trkpt>
      <trkpt lat="43.30806" lon="-1.35855">
        <ele>97</ele>
        <time>2026-08-23T13:26:10.000Z</time>
      </trkpt>
      <trkpt lat="43.30795" lon="-1.35887">
        <ele>96</ele>
        <time>2026-08-23T13:26:14.000Z</time>
      </trkpt>
      <trkpt lat="43.30785" lon="-1.35912">
        <ele>94</ele>
        <time>2026-08-23T13:26:18.000Z</time>
      </trkpt>
      <trkpt lat="43.30778" lon="-1.35924">
        <ele>94</ele>
        <time>2026-08-23T13:26:20.000Z</time>
      </trkpt>
      <trkpt lat="43.30764" lon="-1.35946">
        <ele>92</ele>
        <time>2026-08-23T13:26:24.000Z</time>
      </trkpt>
      <trkpt lat="43.30753" lon="-1.3596">
        <ele>92</ele>
        <time>2026-08-23T13:26:26.000Z</time>
      </trkpt>
      <trkpt lat="43.30739" lon="-1.35975">
        <ele>91</ele>
        <time>2026-08-23T13:26:29.000Z</time>
      </trkpt>
      <trkpt lat="43.30733" lon="-1.35981">
        <ele>91</ele>
        <time>2026-08-23T13:26:31.000Z</time>
      </trkpt>
      <trkpt lat="43.30698" lon="-1.36012">
        <ele>90</ele>
        <time>2026-08-23T13:26:38.000Z</time>
      </trkpt>
      <trkpt lat="43.30684" lon="-1.36022">
        <ele>90</ele>
        <time>2026-08-23T13:26:41.000Z</time>
      </trkpt>
      <trkpt lat="43.30674" lon="-1.36029">
        <ele>90</ele>
        <time>2026-08-23T13:26:43.000Z</time>
      </trkpt>
      <trkpt lat="43.30667" lon="-1.36033">
        <ele>90</ele>
        <time>2026-08-23T13:26:44.000Z</time>
      </trkpt>
      <trkpt lat="43.30661" lon="-1.36034">
        <ele>89</ele>
        <time>2026-08-23T13:26:45.000Z</time>
      </trkpt>
      <trkpt lat="43.30655" lon="-1.36036">
        <ele>89</ele>
        <time>2026-08-23T13:26:47.000Z</time>
      </trkpt>
      <trkpt lat="43.30647" lon="-1.36038">
        <ele>88</ele>
        <time>2026-08-23T13:26:48.000Z</time>
      </trkpt>
      <trkpt lat="43.30638" lon="-1.36039">
        <ele>88</ele>
        <time>2026-08-23T13:26:50.000Z</time>
      </trkpt>
      <trkpt lat="43.30628" lon="-1.36038">
        <ele>88</ele>
        <time>2026-08-23T13:26:51.000Z</time>
      </trkpt>
      <trkpt lat="43.30619" lon="-1.36035">
        <ele>88</ele>
        <time>2026-08-23T13:26:53.000Z</time>
      </trkpt>
      <trkpt lat="43.3061" lon="-1.36031">
        <ele>88</ele>
        <time>2026-08-23T13:26:55.000Z</time>
      </trkpt>
      <trkpt lat="43.30605" lon="-1.36028">
        <ele>88</ele>
        <time>2026-08-23T13:26:56.000Z</time>
      </trkpt>
      <trkpt lat="43.306" lon="-1.36024">
        <ele>88</ele>
        <time>2026-08-23T13:26:57.000Z</time>
      </trkpt>
      <trkpt lat="43.30589" lon="-1.36016">
        <ele>89</ele>
        <time>2026-08-23T13:26:59.000Z</time>
      </trkpt>
      <trkpt lat="43.30581" lon="-1.36009">
        <ele>89</ele>
        <time>2026-08-23T13:27:01.000Z</time>
      </trkpt>
      <trkpt lat="43.30569" lon="-1.35996">
        <ele>89</ele>
        <time>2026-08-23T13:27:03.000Z</time>
      </trkpt>
      <trkpt lat="43.30563" lon="-1.35988">
        <ele>90</ele>
        <time>2026-08-23T13:27:05.000Z</time>
      </trkpt>
      <trkpt lat="43.30551" lon="-1.35975">
        <ele>90</ele>
        <time>2026-08-23T13:27:08.000Z</time>
      </trkpt>
      <trkpt lat="43.30542" lon="-1.35961">
        <ele>91</ele>
        <time>2026-08-23T13:27:10.000Z</time>
      </trkpt>
      <trkpt lat="43.30534" lon="-1.35948">
        <ele>91</ele>
        <time>2026-08-23T13:27:12.000Z</time>
      </trkpt>
      <trkpt lat="43.3053" lon="-1.35942">
        <ele>92</ele>
        <time>2026-08-23T13:27:13.000Z</time>
      </trkpt>
      <trkpt lat="43.30511" lon="-1.35911">
        <ele>92</ele>
        <time>2026-08-23T13:27:18.000Z</time>
      </trkpt>
      <trkpt lat="43.30499" lon="-1.35884">
        <ele>94</ele>
        <time>2026-08-23T13:27:23.000Z</time>
      </trkpt>
      <trkpt lat="43.3049" lon="-1.3586">
        <ele>95</ele>
        <time>2026-08-23T13:27:26.000Z</time>
      </trkpt>
      <trkpt lat="43.30481" lon="-1.35831">
        <ele>97</ele>
        <time>2026-08-23T13:27:30.000Z</time>
      </trkpt>
      <trkpt lat="43.30463" lon="-1.35771">
        <ele>95</ele>
        <time>2026-08-23T13:27:39.000Z</time>
      </trkpt>
      <trkpt lat="43.30461" lon="-1.35762">
        <ele>95</ele>
        <time>2026-08-23T13:27:40.000Z</time>
      </trkpt>
      <trkpt lat="43.30453" lon="-1.35726">
        <ele>92</ele>
        <time>2026-08-23T13:27:45.000Z</time>
      </trkpt>
      <trkpt lat="43.3045" lon="-1.3571">
        <ele>91</ele>
        <time>2026-08-23T13:27:47.000Z</time>
      </trkpt>
      <trkpt lat="43.30448" lon="-1.35696">
        <ele>89</ele>
        <time>2026-08-23T13:27:49.000Z</time>
      </trkpt>
      <trkpt lat="43.30446" lon="-1.35674">
        <ele>88</ele>
        <time>2026-08-23T13:27:51.000Z</time>
      </trkpt>
      <trkpt lat="43.30446" lon="-1.35659">
        <ele>87</ele>
        <time>2026-08-23T13:27:53.000Z</time>
      </trkpt>
      <trkpt lat="43.30446" lon="-1.35641">
        <ele>86</ele>
        <time>2026-08-23T13:27:56.000Z</time>
      </trkpt>
      <trkpt lat="43.30447" lon="-1.35628">
        <ele>85</ele>
        <time>2026-08-23T13:27:57.000Z</time>
      </trkpt>
      <trkpt lat="43.30448" lon="-1.35614">
        <ele>85</ele>
        <time>2026-08-23T13:27:59.000Z</time>
      </trkpt>
      <trkpt lat="43.3045" lon="-1.35604">
        <ele>85</ele>
        <time>2026-08-23T13:28:01.000Z</time>
      </trkpt>
      <trkpt lat="43.30454" lon="-1.35587">
        <ele>85</ele>
        <time>2026-08-23T13:28:03.000Z</time>
      </trkpt>
      <trkpt lat="43.30458" lon="-1.35571">
        <ele>85</ele>
        <time>2026-08-23T13:28:05.000Z</time>
      </trkpt>
      <trkpt lat="43.30489" lon="-1.35467">
        <ele>87</ele>
        <time>2026-08-23T13:28:20.000Z</time>
      </trkpt>
      <trkpt lat="43.30494" lon="-1.35452">
        <ele>87</ele>
        <time>2026-08-23T13:28:22.000Z</time>
      </trkpt>
      <trkpt lat="43.30497" lon="-1.35436">
        <ele>87</ele>
        <time>2026-08-23T13:28:24.000Z</time>
      </trkpt>
      <trkpt lat="43.30501" lon="-1.35417">
        <ele>87</ele>
        <time>2026-08-23T13:28:27.000Z</time>
      </trkpt>
      <trkpt lat="43.30502" lon="-1.35407">
        <ele>88</ele>
        <time>2026-08-23T13:28:28.000Z</time>
      </trkpt>
      <trkpt lat="43.30502" lon="-1.35394">
        <ele>88</ele>
        <time>2026-08-23T13:28:30.000Z</time>
      </trkpt>
      <trkpt lat="43.30502" lon="-1.35378">
        <ele>88</ele>
        <time>2026-08-23T13:28:32.000Z</time>
      </trkpt>
      <trkpt lat="43.30501" lon="-1.35367">
        <ele>87</ele>
        <time>2026-08-23T13:28:33.000Z</time>
      </trkpt>
      <trkpt lat="43.30499" lon="-1.35357">
        <ele>87</ele>
        <time>2026-08-23T13:28:34.000Z</time>
      </trkpt>
      <trkpt lat="43.30497" lon="-1.35345">
        <ele>86</ele>
        <time>2026-08-23T13:28:36.000Z</time>
      </trkpt>
      <trkpt lat="43.30494" lon="-1.35335">
        <ele>86</ele>
        <time>2026-08-23T13:28:37.000Z</time>
      </trkpt>
      <trkpt lat="43.30486" lon="-1.35312">
        <ele>84</ele>
        <time>2026-08-23T13:28:41.000Z</time>
      </trkpt>
      <trkpt lat="43.30478" lon="-1.35291">
        <ele>83</ele>
        <time>2026-08-23T13:28:44.000Z</time>
      </trkpt>
      <trkpt lat="43.30447" lon="-1.3521">
        <ele>79</ele>
        <time>2026-08-23T13:28:56.000Z</time>
      </trkpt>
      <trkpt lat="43.30435" lon="-1.35181">
        <ele>77</ele>
        <time>2026-08-23T13:29:00.000Z</time>
      </trkpt>
      <trkpt lat="43.30422" lon="-1.35159">
        <ele>76</ele>
        <time>2026-08-23T13:29:04.000Z</time>
      </trkpt>
      <trkpt lat="43.30411" lon="-1.35141">
        <ele>76</ele>
        <time>2026-08-23T13:29:07.000Z</time>
      </trkpt>
      <trkpt lat="43.30399" lon="-1.35124">
        <ele>77</ele>
        <time>2026-08-23T13:29:10.000Z</time>
      </trkpt>
      <trkpt lat="43.30392" lon="-1.35115">
        <ele>77</ele>
        <time>2026-08-23T13:29:11.000Z</time>
      </trkpt>
      <trkpt lat="43.30368" lon="-1.35094">
        <ele>77</ele>
        <time>2026-08-23T13:29:16.000Z</time>
      </trkpt>
      <trkpt lat="43.30348" lon="-1.3508">
        <ele>76</ele>
        <time>2026-08-23T13:29:20.000Z</time>
      </trkpt>
      <trkpt lat="43.30332" lon="-1.35071">
        <ele>76</ele>
        <time>2026-08-23T13:29:24.000Z</time>
      </trkpt>
      <trkpt lat="43.30318" lon="-1.35063">
        <ele>77</ele>
        <time>2026-08-23T13:29:26.000Z</time>
      </trkpt>
      <trkpt lat="43.30303" lon="-1.35056">
        <ele>77</ele>
        <time>2026-08-23T13:29:29.000Z</time>
      </trkpt>
      <trkpt lat="43.30292" lon="-1.35052">
        <ele>77</ele>
        <time>2026-08-23T13:29:31.000Z</time>
      </trkpt>
      <trkpt lat="43.30246" lon="-1.3503">
        <ele>77</ele>
        <time>2026-08-23T13:29:40.000Z</time>
      </trkpt>
      <trkpt lat="43.3019" lon="-1.35005">
        <ele>75</ele>
        <time>2026-08-23T13:29:50.000Z</time>
      </trkpt>
      <trkpt lat="43.30171" lon="-1.34996">
        <ele>74</ele>
        <time>2026-08-23T13:29:54.000Z</time>
      </trkpt>
      <trkpt lat="43.30163" lon="-1.34994">
        <ele>74</ele>
        <time>2026-08-23T13:29:55.000Z</time>
      </trkpt>
      <trkpt lat="43.30151" lon="-1.34992">
        <ele>74</ele>
        <time>2026-08-23T13:29:57.000Z</time>
      </trkpt>
      <trkpt lat="43.30138" lon="-1.3499">
        <ele>74</ele>
        <time>2026-08-23T13:30:00.000Z</time>
      </trkpt>
      <trkpt lat="43.30123" lon="-1.34989">
        <ele>74</ele>
        <time>2026-08-23T13:30:02.000Z</time>
      </trkpt>
      <trkpt lat="43.30097" lon="-1.34987">
        <ele>74</ele>
        <time>2026-08-23T13:30:07.000Z</time>
      </trkpt>
      <trkpt lat="43.30085" lon="-1.34987">
        <ele>73</ele>
        <time>2026-08-23T13:30:09.000Z</time>
      </trkpt>
      <trkpt lat="43.30065" lon="-1.34987">
        <ele>73</ele>
        <time>2026-08-23T13:30:13.000Z</time>
      </trkpt>
      <trkpt lat="43.30012" lon="-1.34996">
        <ele>73</ele>
        <time>2026-08-23T13:30:22.000Z</time>
      </trkpt>
      <trkpt lat="43.29996" lon="-1.34998">
        <ele>72</ele>
        <time>2026-08-23T13:30:25.000Z</time>
      </trkpt>
      <trkpt lat="43.29983" lon="-1.34999">
        <ele>72</ele>
        <time>2026-08-23T13:30:27.000Z</time>
      </trkpt>
      <trkpt lat="43.29956" lon="-1.34999">
        <ele>73</ele>
        <time>2026-08-23T13:30:32.000Z</time>
      </trkpt>
      <trkpt lat="43.29938" lon="-1.34998">
        <ele>73</ele>
        <time>2026-08-23T13:30:35.000Z</time>
      </trkpt>
      <trkpt lat="43.29919" lon="-1.34998">
        <ele>73</ele>
        <time>2026-08-23T13:30:39.000Z</time>
      </trkpt>
      <trkpt lat="43.29908" lon="-1.34999">
        <ele>73</ele>
        <time>2026-08-23T13:30:41.000Z</time>
      </trkpt>
      <trkpt lat="43.29899" lon="-1.35001">
        <ele>73</ele>
        <time>2026-08-23T13:30:42.000Z</time>
      </trkpt>
      <trkpt lat="43.29863" lon="-1.35008">
        <ele>74</ele>
        <time>2026-08-23T13:30:49.000Z</time>
      </trkpt>
      <trkpt lat="43.29846" lon="-1.35011">
        <ele>74</ele>
        <time>2026-08-23T13:30:52.000Z</time>
      </trkpt>
      <trkpt lat="43.29827" lon="-1.35014">
        <ele>74</ele>
        <time>2026-08-23T13:30:55.000Z</time>
      </trkpt>
      <trkpt lat="43.29816" lon="-1.35014">
        <ele>75</ele>
        <time>2026-08-23T13:30:57.000Z</time>
      </trkpt>
      <trkpt lat="43.29781" lon="-1.35012">
        <ele>77</ele>
        <time>2026-08-23T13:31:03.000Z</time>
      </trkpt>
      <trkpt lat="43.29723" lon="-1.3501">
        <ele>82</ele>
        <time>2026-08-23T13:31:14.000Z</time>
      </trkpt>
      <trkpt lat="43.29703" lon="-1.3501">
        <ele>84</ele>
        <time>2026-08-23T13:31:17.000Z</time>
      </trkpt>
      <trkpt lat="43.29678" lon="-1.35012">
        <ele>86</ele>
        <time>2026-08-23T13:31:22.000Z</time>
      </trkpt>
      <trkpt lat="43.29655" lon="-1.35015">
        <ele>87</ele>
        <time>2026-08-23T13:31:26.000Z</time>
      </trkpt>
      <trkpt lat="43.29642" lon="-1.35018">
        <ele>88</ele>
        <time>2026-08-23T13:31:28.000Z</time>
      </trkpt>
      <trkpt lat="43.29619" lon="-1.35022">
        <ele>89</ele>
        <time>2026-08-23T13:31:32.000Z</time>
      </trkpt>
      <trkpt lat="43.296" lon="-1.35029">
        <ele>89</ele>
        <time>2026-08-23T13:31:36.000Z</time>
      </trkpt>
      <trkpt lat="43.29571" lon="-1.35039">
        <ele>89</ele>
        <time>2026-08-23T13:31:41.000Z</time>
      </trkpt>
      <trkpt lat="43.29551" lon="-1.3505">
        <ele>88</ele>
        <time>2026-08-23T13:31:45.000Z</time>
      </trkpt>
      <trkpt lat="43.29528" lon="-1.35064">
        <ele>87</ele>
        <time>2026-08-23T13:31:50.000Z</time>
      </trkpt>
      <trkpt lat="43.29513" lon="-1.35075">
        <ele>84</ele>
        <time>2026-08-23T13:31:53.000Z</time>
      </trkpt>
      <trkpt lat="43.29485" lon="-1.35098">
        <ele>85</ele>
        <time>2026-08-23T13:31:58.000Z</time>
      </trkpt>
      <trkpt lat="43.2944" lon="-1.35141">
        <ele>84</ele>
        <time>2026-08-23T13:32:08.000Z</time>
      </trkpt>
      <trkpt lat="43.29386" lon="-1.35193">
        <ele>83</ele>
        <time>2026-08-23T13:32:20.000Z</time>
      </trkpt>
      <trkpt lat="43.29361" lon="-1.35218">
        <ele>81</ele>
        <time>2026-08-23T13:32:25.000Z</time>
      </trkpt>
      <trkpt lat="43.29346" lon="-1.35232">
        <ele>78</ele>
        <time>2026-08-23T13:32:29.000Z</time>
      </trkpt>
      <trkpt lat="43.29322" lon="-1.35253">
        <ele>74</ele>
        <time>2026-08-23T13:32:34.000Z</time>
      </trkpt>
      <trkpt lat="43.29299" lon="-1.35271">
        <ele>75</ele>
        <time>2026-08-23T13:32:38.000Z</time>
      </trkpt>
      <trkpt lat="43.29275" lon="-1.35288">
        <ele>75</ele>
        <time>2026-08-23T13:32:43.000Z</time>
      </trkpt>
      <trkpt lat="43.2925" lon="-1.35304">
        <ele>73</ele>
        <time>2026-08-23T13:32:48.000Z</time>
      </trkpt>
      <trkpt lat="43.29236" lon="-1.35312">
        <ele>72</ele>
        <time>2026-08-23T13:32:51.000Z</time>
      </trkpt>
      <trkpt lat="43.29221" lon="-1.35317">
        <ele>72</ele>
        <time>2026-08-23T13:32:53.000Z</time>
      </trkpt>
      <trkpt lat="43.29213" lon="-1.3532">
        <ele>72</ele>
        <time>2026-08-23T13:32:55.000Z</time>
      </trkpt>
      <trkpt lat="43.29203" lon="-1.35322">
        <ele>72</ele>
        <time>2026-08-23T13:32:57.000Z</time>
      </trkpt>
      <trkpt lat="43.29182" lon="-1.35324">
        <ele>72</ele>
        <time>2026-08-23T13:33:01.000Z</time>
      </trkpt>
      <trkpt lat="43.29165" lon="-1.35323">
        <ele>72</ele>
        <time>2026-08-23T13:33:04.000Z</time>
      </trkpt>
      <trkpt lat="43.29145" lon="-1.35321">
        <ele>72</ele>
        <time>2026-08-23T13:33:07.000Z</time>
      </trkpt>
      <trkpt lat="43.29133" lon="-1.3532">
        <ele>72</ele>
        <time>2026-08-23T13:33:09.000Z</time>
      </trkpt>
      <trkpt lat="43.29123" lon="-1.35317">
        <ele>72</ele>
        <time>2026-08-23T13:33:11.000Z</time>
      </trkpt>
      <trkpt lat="43.29116" lon="-1.35316">
        <ele>72</ele>
        <time>2026-08-23T13:33:12.000Z</time>
      </trkpt>
      <trkpt lat="43.29109" lon="-1.35314">
        <ele>72</ele>
        <time>2026-08-23T13:33:14.000Z</time>
      </trkpt>
      <trkpt lat="43.29094" lon="-1.35308">
        <ele>72</ele>
        <time>2026-08-23T13:33:16.000Z</time>
      </trkpt>
      <trkpt lat="43.29067" lon="-1.35296">
        <ele>73</ele>
        <time>2026-08-23T13:33:21.000Z</time>
      </trkpt>
      <trkpt lat="43.2902" lon="-1.35271">
        <ele>75</ele>
        <time>2026-08-23T13:33:30.000Z</time>
      </trkpt>
      <trkpt lat="43.28968" lon="-1.35244">
        <ele>75</ele>
        <time>2026-08-23T13:33:40.000Z</time>
      </trkpt>
      <trkpt lat="43.28906" lon="-1.35209">
        <ele>81</ele>
        <time>2026-08-23T13:33:52.000Z</time>
      </trkpt>
      <trkpt lat="43.28879" lon="-1.35195">
        <ele>84</ele>
        <time>2026-08-23T13:33:57.000Z</time>
      </trkpt>
      <trkpt lat="43.28871" lon="-1.35191">
        <ele>85</ele>
        <time>2026-08-23T13:33:59.000Z</time>
      </trkpt>
      <trkpt lat="43.28861" lon="-1.35188">
        <ele>85</ele>
        <time>2026-08-23T13:34:01.000Z</time>
      </trkpt>
      <trkpt lat="43.28834" lon="-1.3518">
        <ele>87</ele>
        <time>2026-08-23T13:34:06.000Z</time>
      </trkpt>
      <trkpt lat="43.28802" lon="-1.35173">
        <ele>87</ele>
        <time>2026-08-23T13:34:11.000Z</time>
      </trkpt>
      <trkpt lat="43.28767" lon="-1.35165">
        <ele>87</ele>
        <time>2026-08-23T13:34:18.000Z</time>
      </trkpt>
      <trkpt lat="43.28741" lon="-1.35161">
        <ele>88</ele>
        <time>2026-08-23T13:34:22.000Z</time>
      </trkpt>
      <trkpt lat="43.28715" lon="-1.3516">
        <ele>89</ele>
        <time>2026-08-23T13:34:27.000Z</time>
      </trkpt>
      <trkpt lat="43.287" lon="-1.3516">
        <ele>90</ele>
        <time>2026-08-23T13:34:30.000Z</time>
      </trkpt>
      <trkpt lat="43.28685" lon="-1.3516">
        <ele>91</ele>
        <time>2026-08-23T13:34:32.000Z</time>
      </trkpt>
      <trkpt lat="43.28675" lon="-1.35161">
        <ele>91</ele>
        <time>2026-08-23T13:34:34.000Z</time>
      </trkpt>
      <trkpt lat="43.28661" lon="-1.35164">
        <ele>90</ele>
        <time>2026-08-23T13:34:37.000Z</time>
      </trkpt>
      <trkpt lat="43.28648" lon="-1.35168">
        <ele>89</ele>
        <time>2026-08-23T13:34:39.000Z</time>
      </trkpt>
      <trkpt lat="43.28631" lon="-1.35174">
        <ele>88</ele>
        <time>2026-08-23T13:34:42.000Z</time>
      </trkpt>
      <trkpt lat="43.28604" lon="-1.35187">
        <ele>86</ele>
        <time>2026-08-23T13:34:47.000Z</time>
      </trkpt>
      <trkpt lat="43.28587" lon="-1.35197">
        <ele>84</ele>
        <time>2026-08-23T13:34:50.000Z</time>
      </trkpt>
      <trkpt lat="43.28568" lon="-1.35211">
        <ele>81</ele>
        <time>2026-08-23T13:34:54.000Z</time>
      </trkpt>
      <trkpt lat="43.28546" lon="-1.35231">
        <ele>78</ele>
        <time>2026-08-23T13:34:59.000Z</time>
      </trkpt>
      <trkpt lat="43.28522" lon="-1.35253">
        <ele>76</ele>
        <time>2026-08-23T13:35:04.000Z</time>
      </trkpt>
      <trkpt lat="43.28479" lon="-1.35292">
        <ele>77</ele>
        <time>2026-08-23T13:35:13.000Z</time>
      </trkpt>
      <trkpt lat="43.28465" lon="-1.35305">
        <ele>76</ele>
        <time>2026-08-23T13:35:16.000Z</time>
      </trkpt>
      <trkpt lat="43.28442" lon="-1.35321">
        <ele>75</ele>
        <time>2026-08-23T13:35:21.000Z</time>
      </trkpt>
      <trkpt lat="43.28428" lon="-1.3533">
        <ele>74</ele>
        <time>2026-08-23T13:35:24.000Z</time>
      </trkpt>
      <trkpt lat="43.28391" lon="-1.35352">
        <ele>74</ele>
        <time>2026-08-23T13:35:31.000Z</time>
      </trkpt>
      <trkpt lat="43.28366" lon="-1.35367">
        <ele>74</ele>
        <time>2026-08-23T13:35:36.000Z</time>
      </trkpt>
      <trkpt lat="43.28344" lon="-1.35377">
        <ele>74</ele>
        <time>2026-08-23T13:35:40.000Z</time>
      </trkpt>
      <trkpt lat="43.28328" lon="-1.35383">
        <ele>74</ele>
        <time>2026-08-23T13:35:43.000Z</time>
      </trkpt>
      <trkpt lat="43.28305" lon="-1.35391">
        <ele>75</ele>
        <time>2026-08-23T13:35:47.000Z</time>
      </trkpt>
      <trkpt lat="43.28289" lon="-1.35394">
        <ele>75</ele>
        <time>2026-08-23T13:35:50.000Z</time>
      </trkpt>
      <trkpt lat="43.28278" lon="-1.35395">
        <ele>75</ele>
        <time>2026-08-23T13:35:52.000Z</time>
      </trkpt>
      <trkpt lat="43.28263" lon="-1.35396">
        <ele>76</ele>
        <time>2026-08-23T13:35:54.000Z</time>
      </trkpt>
      <trkpt lat="43.2824" lon="-1.35395">
        <ele>77</ele>
        <time>2026-08-23T13:35:59.000Z</time>
      </trkpt>
      <trkpt lat="43.28223" lon="-1.35393">
        <ele>77</ele>
        <time>2026-08-23T13:36:02.000Z</time>
      </trkpt>
      <trkpt lat="43.28214" lon="-1.35392">
        <ele>77</ele>
        <time>2026-08-23T13:36:03.000Z</time>
      </trkpt>
      <trkpt lat="43.28204" lon="-1.35389">
        <ele>78</ele>
        <time>2026-08-23T13:36:05.000Z</time>
      </trkpt>
      <trkpt lat="43.28184" lon="-1.35381">
        <ele>79</ele>
        <time>2026-08-23T13:36:09.000Z</time>
      </trkpt>
      <trkpt lat="43.28159" lon="-1.35371">
        <ele>80</ele>
        <time>2026-08-23T13:36:13.000Z</time>
      </trkpt>
      <trkpt lat="43.2811" lon="-1.3535">
        <ele>81</ele>
        <time>2026-08-23T13:36:22.000Z</time>
      </trkpt>
      <trkpt lat="43.28085" lon="-1.35337">
        <ele>82</ele>
        <time>2026-08-23T13:36:27.000Z</time>
      </trkpt>
      <trkpt lat="43.28037" lon="-1.35309">
        <ele>83</ele>
        <time>2026-08-23T13:36:37.000Z</time>
      </trkpt>
      <trkpt lat="43.28022" lon="-1.35299">
        <ele>83</ele>
        <time>2026-08-23T13:36:39.000Z</time>
      </trkpt>
      <trkpt lat="43.28009" lon="-1.3529">
        <ele>83</ele>
        <time>2026-08-23T13:36:42.000Z</time>
      </trkpt>
      <trkpt lat="43.27999" lon="-1.35282">
        <ele>83</ele>
        <time>2026-08-23T13:36:44.000Z</time>
      </trkpt>
      <trkpt lat="43.27991" lon="-1.35273">
        <ele>83</ele>
        <time>2026-08-23T13:36:46.000Z</time>
      </trkpt>
      <trkpt lat="43.27973" lon="-1.35255">
        <ele>84</ele>
        <time>2026-08-23T13:36:50.000Z</time>
      </trkpt>
      <trkpt lat="43.27963" lon="-1.35243">
        <ele>84</ele>
        <time>2026-08-23T13:36:52.000Z</time>
      </trkpt>
      <trkpt lat="43.27951" lon="-1.35227">
        <ele>85</ele>
        <time>2026-08-23T13:36:55.000Z</time>
      </trkpt>
      <trkpt lat="43.27931" lon="-1.35199">
        <ele>86</ele>
        <time>2026-08-23T13:37:00.000Z</time>
      </trkpt>
      <trkpt lat="43.27914" lon="-1.35178">
        <ele>86</ele>
        <time>2026-08-23T13:37:04.000Z</time>
      </trkpt>
      <trkpt lat="43.27902" lon="-1.35164">
        <ele>86</ele>
        <time>2026-08-23T13:37:07.000Z</time>
      </trkpt>
      <trkpt lat="43.27889" lon="-1.35151">
        <ele>86</ele>
        <time>2026-08-23T13:37:10.000Z</time>
      </trkpt>
      <trkpt lat="43.27876" lon="-1.35141">
        <ele>87</ele>
        <time>2026-08-23T13:37:13.000Z</time>
      </trkpt>
      <trkpt lat="43.2786" lon="-1.35129">
        <ele>87</ele>
        <time>2026-08-23T13:37:16.000Z</time>
      </trkpt>
      <trkpt lat="43.27827" lon="-1.35109">
        <ele>87</ele>
        <time>2026-08-23T13:37:22.000Z</time>
      </trkpt>
      <trkpt lat="43.2779" lon="-1.3509">
        <ele>86</ele>
        <time>2026-08-23T13:37:29.000Z</time>
      </trkpt>
      <trkpt lat="43.2774" lon="-1.35065">
        <ele>88</ele>
        <time>2026-08-23T13:37:39.000Z</time>
      </trkpt>
      <trkpt lat="43.27698" lon="-1.35042">
        <ele>91</ele>
        <time>2026-08-23T13:37:47.000Z</time>
      </trkpt>
      <trkpt lat="43.27676" lon="-1.3503">
        <ele>92</ele>
        <time>2026-08-23T13:37:51.000Z</time>
      </trkpt>
      <trkpt lat="43.27646" lon="-1.35012">
        <ele>92</ele>
        <time>2026-08-23T13:37:57.000Z</time>
      </trkpt>
      <trkpt lat="43.27594" lon="-1.34983">
        <ele>91</ele>
        <time>2026-08-23T13:38:07.000Z</time>
      </trkpt>
      <trkpt lat="43.2756" lon="-1.34962">
        <ele>93</ele>
        <time>2026-08-23T13:38:14.000Z</time>
      </trkpt>
      <trkpt lat="43.27539" lon="-1.3495">
        <ele>93</ele>
        <time>2026-08-23T13:38:18.000Z</time>
      </trkpt>
      <trkpt lat="43.27512" lon="-1.34936">
        <ele>91</ele>
        <time>2026-08-23T13:38:23.000Z</time>
      </trkpt>
      <trkpt lat="43.27475" lon="-1.34919">
        <ele>89</ele>
        <time>2026-08-23T13:38:30.000Z</time>
      </trkpt>
      <trkpt lat="43.27449" lon="-1.34907">
        <ele>89</ele>
        <time>2026-08-23T13:38:35.000Z</time>
      </trkpt>
      <trkpt lat="43.27431" lon="-1.34899">
        <ele>89</ele>
        <time>2026-08-23T13:38:38.000Z</time>
      </trkpt>
      <trkpt lat="43.27396" lon="-1.34884">
        <ele>89</ele>
        <time>2026-08-23T13:38:45.000Z</time>
      </trkpt>
      <trkpt lat="43.27374" lon="-1.34875">
        <ele>88</ele>
        <time>2026-08-23T13:38:49.000Z</time>
      </trkpt>
      <trkpt lat="43.27366" lon="-1.34871">
        <ele>87</ele>
        <time>2026-08-23T13:38:50.000Z</time>
      </trkpt>
      <trkpt lat="43.27354" lon="-1.34865">
        <ele>86</ele>
        <time>2026-08-23T13:38:52.000Z</time>
      </trkpt>
      <trkpt lat="43.27341" lon="-1.34857">
        <ele>86</ele>
        <time>2026-08-23T13:38:55.000Z</time>
      </trkpt>
      <trkpt lat="43.27326" lon="-1.34847">
        <ele>85</ele>
        <time>2026-08-23T13:38:58.000Z</time>
      </trkpt>
      <trkpt lat="43.27292" lon="-1.34819">
        <ele>89</ele>
        <time>2026-08-23T13:39:05.000Z</time>
      </trkpt>
      <trkpt lat="43.27249" lon="-1.34783">
        <ele>96</ele>
        <time>2026-08-23T13:39:14.000Z</time>
      </trkpt>
      <trkpt lat="43.27218" lon="-1.3476">
        <ele>96</ele>
        <time>2026-08-23T13:39:20.000Z</time>
      </trkpt>
      <trkpt lat="43.27198" lon="-1.34746">
        <ele>94</ele>
        <time>2026-08-23T13:39:24.000Z</time>
      </trkpt>
      <trkpt lat="43.27175" lon="-1.34731">
        <ele>94</ele>
        <time>2026-08-23T13:39:29.000Z</time>
      </trkpt>
      <trkpt lat="43.2716" lon="-1.34722">
        <ele>94</ele>
        <time>2026-08-23T13:39:32.000Z</time>
      </trkpt>
      <trkpt lat="43.27111" lon="-1.34693">
        <ele>93</ele>
        <time>2026-08-23T13:39:41.000Z</time>
      </trkpt>
      <trkpt lat="43.27064" lon="-1.34668">
        <ele>87</ele>
        <time>2026-08-23T13:39:50.000Z</time>
      </trkpt>
      <trkpt lat="43.27056" lon="-1.34665">
        <ele>87</ele>
        <time>2026-08-23T13:39:52.000Z</time>
      </trkpt>
      <trkpt lat="43.27031" lon="-1.34651">
        <ele>87</ele>
        <time>2026-08-23T13:39:56.000Z</time>
      </trkpt>
      <trkpt lat="43.27021" lon="-1.34644">
        <ele>88</ele>
        <time>2026-08-23T13:39:58.000Z</time>
      </trkpt>
      <trkpt lat="43.27008" lon="-1.34636">
        <ele>87</ele>
        <time>2026-08-23T13:40:01.000Z</time>
      </trkpt>
      <trkpt lat="43.26999" lon="-1.34629">
        <ele>87</ele>
        <time>2026-08-23T13:40:03.000Z</time>
      </trkpt>
      <trkpt lat="43.2699" lon="-1.34621">
        <ele>88</ele>
        <time>2026-08-23T13:40:05.000Z</time>
      </trkpt>
      <trkpt lat="43.26987" lon="-1.34618">
        <ele>89</ele>
        <time>2026-08-23T13:40:05.000Z</time>
      </trkpt>
      <trkpt lat="43.26975" lon="-1.34607">
        <ele>89</ele>
        <time>2026-08-23T13:40:08.000Z</time>
      </trkpt>
      <trkpt lat="43.26975" lon="-1.34607">
        <ele>89</ele>
        <time>2026-08-23T13:40:08.000Z</time>
      </trkpt>
      <trkpt lat="43.26967" lon="-1.34607">
        <ele>88</ele>
        <time>2026-08-23T13:40:09.000Z</time>
      </trkpt>
      <trkpt lat="43.2696" lon="-1.34604">
        <ele>88</ele>
        <time>2026-08-23T13:40:11.000Z</time>
      </trkpt>
      <trkpt lat="43.26958" lon="-1.34604">
        <ele>87</ele>
        <time>2026-08-23T13:40:11.000Z</time>
      </trkpt>
      <trkpt lat="43.26955" lon="-1.34604">
        <ele>87</ele>
        <time>2026-08-23T13:40:11.000Z</time>
      </trkpt>
      <trkpt lat="43.26948" lon="-1.34604">
        <ele>86</ele>
        <time>2026-08-23T13:40:13.000Z</time>
      </trkpt>
      <trkpt lat="43.2694" lon="-1.34607">
        <ele>84</ele>
        <time>2026-08-23T13:40:14.000Z</time>
      </trkpt>
      <trkpt lat="43.26935" lon="-1.34617">
        <ele>82</ele>
        <time>2026-08-23T13:40:16.000Z</time>
      </trkpt>
      <trkpt lat="43.26933" lon="-1.34622">
        <ele>82</ele>
        <time>2026-08-23T13:40:16.000Z</time>
      </trkpt>
      <trkpt lat="43.26906" lon="-1.34677">
        <ele>80</ele>
        <time>2026-08-23T13:40:25.000Z</time>
      </trkpt>
      <trkpt lat="43.26875" lon="-1.3474">
        <ele>98</ele>
        <time>2026-08-23T13:40:35.000Z</time>
      </trkpt>
      <trkpt lat="43.26882" lon="-1.34752">
        <ele>97</ele>
        <time>2026-08-23T13:40:37.000Z</time>
      </trkpt>
      <trkpt lat="43.2689" lon="-1.34761">
        <ele>94</ele>
        <time>2026-08-23T13:40:39.000Z</time>
      </trkpt>
      <trkpt lat="43.26904" lon="-1.34775">
        <ele>89</ele>
        <time>2026-08-23T13:40:42.000Z</time>
      </trkpt>
      <trkpt lat="43.26907" lon="-1.34779">
        <ele>88</ele>
        <time>2026-08-23T13:40:43.000Z</time>
      </trkpt>
      <trkpt lat="43.26918" lon="-1.34796">
        <ele>84</ele>
        <time>2026-08-23T13:40:46.000Z</time>
      </trkpt>
      <trkpt lat="43.26921" lon="-1.34802">
        <ele>84</ele>
        <time>2026-08-23T13:40:46.000Z</time>
      </trkpt>
      <trkpt lat="43.26923" lon="-1.34809">
        <ele>84</ele>
        <time>2026-08-23T13:40:47.000Z</time>
      </trkpt>
      <trkpt lat="43.26924" lon="-1.34815">
        <ele>84</ele>
        <time>2026-08-23T13:40:48.000Z</time>
      </trkpt>
      <trkpt lat="43.26924" lon="-1.34821">
        <ele>85</ele>
        <time>2026-08-23T13:40:49.000Z</time>
      </trkpt>
      <trkpt lat="43.26923" lon="-1.34831">
        <ele>85</ele>
        <time>2026-08-23T13:40:50.000Z</time>
      </trkpt>
      <trkpt lat="43.26917" lon="-1.34856">
        <ele>84</ele>
        <time>2026-08-23T13:40:54.000Z</time>
      </trkpt>
      <trkpt lat="43.26914" lon="-1.34872">
        <ele>83</ele>
        <time>2026-08-23T13:40:56.000Z</time>
      </trkpt>
      <trkpt lat="43.26913" lon="-1.34882">
        <ele>83</ele>
        <time>2026-08-23T13:40:57.000Z</time>
      </trkpt>
      <trkpt lat="43.26912" lon="-1.34892">
        <ele>82</ele>
        <time>2026-08-23T13:40:59.000Z</time>
      </trkpt>
      <trkpt lat="43.26912" lon="-1.34937">
        <ele>81</ele>
        <time>2026-08-23T13:41:04.000Z</time>
      </trkpt>
      <trkpt lat="43.26911" lon="-1.34969">
        <ele>81</ele>
        <time>2026-08-23T13:41:08.000Z</time>
      </trkpt>
      <trkpt lat="43.26911" lon="-1.34969">
        <ele>81</ele>
        <time>2026-08-23T13:41:08.000Z</time>
      </trkpt>
      <trkpt lat="43.26926" lon="-1.34972">
        <ele>81</ele>
        <time>2026-08-23T13:41:11.000Z</time>
      </trkpt>
      <trkpt lat="43.26935" lon="-1.34975">
        <ele>81</ele>
        <time>2026-08-23T13:41:13.000Z</time>
      </trkpt>
      <trkpt lat="43.26942" lon="-1.34977">
        <ele>81</ele>
        <time>2026-08-23T13:41:14.000Z</time>
      </trkpt>
      <trkpt lat="43.26946" lon="-1.3498">
        <ele>81</ele>
        <time>2026-08-23T13:41:15.000Z</time>
      </trkpt>
      <trkpt lat="43.26948" lon="-1.34984">
        <ele>81</ele>
        <time>2026-08-23T13:41:16.000Z</time>
      </trkpt>
      <trkpt lat="43.26951" lon="-1.34989">
        <ele>81</ele>
        <time>2026-08-23T13:41:16.000Z</time>
      </trkpt>
      <trkpt lat="43.26954" lon="-1.34996">
        <ele>81</ele>
        <time>2026-08-23T13:41:17.000Z</time>
      </trkpt>
      <trkpt lat="43.2696" lon="-1.35013">
        <ele>81</ele>
        <time>2026-08-23T13:41:20.000Z</time>
      </trkpt>
      <trkpt lat="43.26963" lon="-1.35023">
        <ele>81</ele>
        <time>2026-08-23T13:41:21.000Z</time>
      </trkpt>
      <trkpt lat="43.26963" lon="-1.35023">
        <ele>81</ele>
        <time>2026-08-23T13:41:21.000Z</time>
      </trkpt>
      <trkpt lat="43.26974" lon="-1.35026">
        <ele>81</ele>
        <time>2026-08-23T13:41:23.000Z</time>
      </trkpt>
      <trkpt lat="43.27004" lon="-1.35032">
        <ele>81</ele>
        <time>2026-08-23T13:41:29.000Z</time>
      </trkpt>
      <trkpt lat="43.27021" lon="-1.35036">
        <ele>81</ele>
        <time>2026-08-23T13:41:32.000Z</time>
      </trkpt>
      <trkpt lat="43.27027" lon="-1.35037">
        <ele>82</ele>
        <time>2026-08-23T13:41:33.000Z</time>
      </trkpt>
      <trkpt lat="43.27033" lon="-1.35037">
        <ele>82</ele>
        <time>2026-08-23T13:41:34.000Z</time>
      </trkpt>
      <trkpt lat="43.2704" lon="-1.35035">
        <ele>82</ele>
        <time>2026-08-23T13:41:35.000Z</time>
      </trkpt>
      <trkpt lat="43.27063" lon="-1.3503">
        <ele>84</ele>
        <time>2026-08-23T13:41:39.000Z</time>
      </trkpt>
      <trkpt lat="43.27069" lon="-1.35027">
        <ele>84</ele>
        <time>2026-08-23T13:41:40.000Z</time>
      </trkpt>
      <trkpt lat="43.27075" lon="-1.35023">
        <ele>84</ele>
        <time>2026-08-23T13:41:42.000Z</time>
      </trkpt>
      <trkpt lat="43.2708" lon="-1.35019">
        <ele>85</ele>
        <time>2026-08-23T13:41:43.000Z</time>
      </trkpt>
      <trkpt lat="43.27084" lon="-1.35012">
        <ele>85</ele>
        <time>2026-08-23T13:41:44.000Z</time>
      </trkpt>
      <trkpt lat="43.27088" lon="-1.35003">
        <ele>86</ele>
        <time>2026-08-23T13:41:45.000Z</time>
      </trkpt>
      <trkpt lat="43.2709" lon="-1.34995">
        <ele>86</ele>
        <time>2026-08-23T13:41:46.000Z</time>
      </trkpt>
      <trkpt lat="43.27093" lon="-1.3499">
        <ele>87</ele>
        <time>2026-08-23T13:41:47.000Z</time>
      </trkpt>
      <trkpt lat="43.27095" lon="-1.34987">
        <ele>88</ele>
        <time>2026-08-23T13:41:48.000Z</time>
      </trkpt>
      <trkpt lat="43.27098" lon="-1.34985">
        <ele>89</ele>
        <time>2026-08-23T13:41:48.000Z</time>
      </trkpt>
      <trkpt lat="43.27101" lon="-1.34984">
        <ele>89</ele>
        <time>2026-08-23T13:41:49.000Z</time>
      </trkpt>
      <trkpt lat="43.27104" lon="-1.34984">
        <ele>89</ele>
        <time>2026-08-23T13:41:49.000Z</time>
      </trkpt>
      <trkpt lat="43.2712" lon="-1.34986">
        <ele>91</ele>
        <time>2026-08-23T13:41:52.000Z</time>
      </trkpt>
      <trkpt lat="43.27144" lon="-1.3499">
        <ele>93</ele>
        <time>2026-08-23T13:41:56.000Z</time>
      </trkpt>
      <trkpt lat="43.27153" lon="-1.34994">
        <ele>94</ele>
        <time>2026-08-23T13:41:58.000Z</time>
      </trkpt>
      <trkpt lat="43.27164" lon="-1.35001">
        <ele>96</ele>
        <time>2026-08-23T13:42:00.000Z</time>
      </trkpt>
      <trkpt lat="43.2717" lon="-1.35003">
        <ele>95</ele>
        <time>2026-08-23T13:42:01.000Z</time>
      </trkpt>
      <trkpt lat="43.27174" lon="-1.35003">
        <ele>95</ele>
        <time>2026-08-23T13:42:02.000Z</time>
      </trkpt>
      <trkpt lat="43.27177" lon="-1.35004">
        <ele>94</ele>
        <time>2026-08-23T13:42:03.000Z</time>
      </trkpt>
      <trkpt lat="43.2718" lon="-1.35005">
        <ele>93</ele>
        <time>2026-08-23T13:42:03.000Z</time>
      </trkpt>
      <trkpt lat="43.27182" lon="-1.35007">
        <ele>93</ele>
        <time>2026-08-23T13:42:04.000Z</time>
      </trkpt>
      <trkpt lat="43.27184" lon="-1.35012">
        <ele>93</ele>
        <time>2026-08-23T13:42:04.000Z</time>
      </trkpt>
      <trkpt lat="43.27187" lon="-1.35021">
        <ele>92</ele>
        <time>2026-08-23T13:42:06.000Z</time>
      </trkpt>
      <trkpt lat="43.2719" lon="-1.35032">
        <ele>91</ele>
        <time>2026-08-23T13:42:07.000Z</time>
      </trkpt>
      <trkpt lat="43.27192" lon="-1.3504">
        <ele>91</ele>
        <time>2026-08-23T13:42:08.000Z</time>
      </trkpt>
      <trkpt lat="43.27193" lon="-1.35045">
        <ele>91</ele>
        <time>2026-08-23T13:42:09.000Z</time>
      </trkpt>
      <trkpt lat="43.27192" lon="-1.35055">
        <ele>91</ele>
        <time>2026-08-23T13:42:10.000Z</time>
      </trkpt>
      <trkpt lat="43.27194" lon="-1.35067">
        <ele>90</ele>
        <time>2026-08-23T13:42:12.000Z</time>
      </trkpt>
      <trkpt lat="43.27199" lon="-1.3508">
        <ele>90</ele>
        <time>2026-08-23T13:42:14.000Z</time>
      </trkpt>
      <trkpt lat="43.27203" lon="-1.35087">
        <ele>89</ele>
        <time>2026-08-23T13:42:15.000Z</time>
      </trkpt>
      <trkpt lat="43.27213" lon="-1.35113">
        <ele>92</ele>
        <time>2026-08-23T13:42:19.000Z</time>
      </trkpt>
      <trkpt lat="43.27223" lon="-1.35129">
        <ele>93</ele>
        <time>2026-08-23T13:42:21.000Z</time>
      </trkpt>
      <trkpt lat="43.27235" lon="-1.35148">
        <ele>96</ele>
        <time>2026-08-23T13:42:25.000Z</time>
      </trkpt>
      <trkpt lat="43.27244" lon="-1.35158">
        <ele>97</ele>
        <time>2026-08-23T13:42:27.000Z</time>
      </trkpt>
      <trkpt lat="43.27255" lon="-1.35166">
        <ele>97</ele>
        <time>2026-08-23T13:42:29.000Z</time>
      </trkpt>
      <trkpt lat="43.27285" lon="-1.35185">
        <ele>94</ele>
        <time>2026-08-23T13:42:35.000Z</time>
      </trkpt>
      <trkpt lat="43.27309" lon="-1.35203">
        <ele>93</ele>
        <time>2026-08-23T13:42:40.000Z</time>
      </trkpt>
      <trkpt lat="43.2733" lon="-1.35219">
        <ele>93</ele>
        <time>2026-08-23T13:42:44.000Z</time>
      </trkpt>
      <trkpt lat="43.2734" lon="-1.35232">
        <ele>95</ele>
        <time>2026-08-23T13:42:46.000Z</time>
      </trkpt>
      <trkpt lat="43.27344" lon="-1.35238">
        <ele>96</ele>
        <time>2026-08-23T13:42:48.000Z</time>
      </trkpt>
      <trkpt lat="43.27349" lon="-1.3524">
        <ele>96</ele>
        <time>2026-08-23T13:42:48.000Z</time>
      </trkpt>
      <trkpt lat="43.27353" lon="-1.3524">
        <ele>96</ele>
        <time>2026-08-23T13:42:49.000Z</time>
      </trkpt>
      <trkpt lat="43.27358" lon="-1.35239">
        <ele>96</ele>
        <time>2026-08-23T13:42:50.000Z</time>
      </trkpt>
      <trkpt lat="43.27361" lon="-1.35237">
        <ele>95</ele>
        <time>2026-08-23T13:42:51.000Z</time>
      </trkpt>
      <trkpt lat="43.27371" lon="-1.35233">
        <ele>94</ele>
        <time>2026-08-23T13:42:53.000Z</time>
      </trkpt>
      <trkpt lat="43.27378" lon="-1.35231">
        <ele>93</ele>
        <time>2026-08-23T13:42:54.000Z</time>
      </trkpt>
      <trkpt lat="43.2739" lon="-1.35232">
        <ele>93</ele>
        <time>2026-08-23T13:42:56.000Z</time>
      </trkpt>
      <trkpt lat="43.27413" lon="-1.35238">
        <ele>94</ele>
        <time>2026-08-23T13:43:00.000Z</time>
      </trkpt>
      <trkpt lat="43.27436" lon="-1.35243">
        <ele>94</ele>
        <time>2026-08-23T13:43:04.000Z</time>
      </trkpt>
      <trkpt lat="43.27447" lon="-1.35248">
        <ele>94</ele>
        <time>2026-08-23T13:43:06.000Z</time>
      </trkpt>
      <trkpt lat="43.27454" lon="-1.35251">
        <ele>94</ele>
        <time>2026-08-23T13:43:08.000Z</time>
      </trkpt>
      <trkpt lat="43.2746" lon="-1.35254">
        <ele>94</ele>
        <time>2026-08-23T13:43:09.000Z</time>
      </trkpt>
      <trkpt lat="43.27466" lon="-1.35256">
        <ele>94</ele>
        <time>2026-08-23T13:43:10.000Z</time>
      </trkpt>
      <trkpt lat="43.27472" lon="-1.35256">
        <ele>94</ele>
        <time>2026-08-23T13:43:11.000Z</time>
      </trkpt>
      <trkpt lat="43.27477" lon="-1.35256">
        <ele>93</ele>
        <time>2026-08-23T13:43:12.000Z</time>
      </trkpt>
      <trkpt lat="43.27493" lon="-1.35252">
        <ele>90</ele>
        <time>2026-08-23T13:43:15.000Z</time>
      </trkpt>
      <trkpt lat="43.275" lon="-1.35251">
        <ele>89</ele>
        <time>2026-08-23T13:43:16.000Z</time>
      </trkpt>
      <trkpt lat="43.27506" lon="-1.35252">
        <ele>89</ele>
        <time>2026-08-23T13:43:17.000Z</time>
      </trkpt>
      <trkpt lat="43.27557" lon="-1.35265">
        <ele>89</ele>
        <time>2026-08-23T13:43:26.000Z</time>
      </trkpt>
      <trkpt lat="43.27588" lon="-1.35276">
        <ele>90</ele>
        <time>2026-08-23T13:43:32.000Z</time>
      </trkpt>
      <trkpt lat="43.27611" lon="-1.35286">
        <ele>91</ele>
        <time>2026-08-23T13:43:36.000Z</time>
      </trkpt>
      <trkpt lat="43.27643" lon="-1.35306">
        <ele>91</ele>
        <time>2026-08-23T13:43:42.000Z</time>
      </trkpt>
      <trkpt lat="43.27665" lon="-1.35323">
        <ele>91</ele>
        <time>2026-08-23T13:43:47.000Z</time>
      </trkpt>
      <trkpt lat="43.27695" lon="-1.35345">
        <ele>89</ele>
        <time>2026-08-23T13:43:53.000Z</time>
      </trkpt>
      <trkpt lat="43.27704" lon="-1.35354">
        <ele>89</ele>
        <time>2026-08-23T13:43:55.000Z</time>
      </trkpt>
      <trkpt lat="43.2771" lon="-1.3536">
        <ele>89</ele>
        <time>2026-08-23T13:43:56.000Z</time>
      </trkpt>
      <trkpt lat="43.27715" lon="-1.35368">
        <ele>90</ele>
        <time>2026-08-23T13:43:58.000Z</time>
      </trkpt>
      <trkpt lat="43.27724" lon="-1.35379">
        <ele>89</ele>
        <time>2026-08-23T13:44:00.000Z</time>
      </trkpt>
      <trkpt lat="43.27734" lon="-1.35389">
        <ele>89</ele>
        <time>2026-08-23T13:44:02.000Z</time>
      </trkpt>
      <trkpt lat="43.27744" lon="-1.354">
        <ele>88</ele>
        <time>2026-08-23T13:44:04.000Z</time>
      </trkpt>
      <trkpt lat="43.27759" lon="-1.3541">
        <ele>86</ele>
        <time>2026-08-23T13:44:07.000Z</time>
      </trkpt>
      <trkpt lat="43.27778" lon="-1.35426">
        <ele>86</ele>
        <time>2026-08-23T13:44:11.000Z</time>
      </trkpt>
      <trkpt lat="43.27798" lon="-1.35441">
        <ele>87</ele>
        <time>2026-08-23T13:44:15.000Z</time>
      </trkpt>
      <trkpt lat="43.27819" lon="-1.35451">
        <ele>87</ele>
        <time>2026-08-23T13:44:19.000Z</time>
      </trkpt>
      <trkpt lat="43.27836" lon="-1.35457">
        <ele>86</ele>
        <time>2026-08-23T13:44:22.000Z</time>
      </trkpt>
      <trkpt lat="43.2786" lon="-1.35463">
        <ele>85</ele>
        <time>2026-08-23T13:44:27.000Z</time>
      </trkpt>
      <trkpt lat="43.27877" lon="-1.35469">
        <ele>85</ele>
        <time>2026-08-23T13:44:30.000Z</time>
      </trkpt>
      <trkpt lat="43.27888" lon="-1.35474">
        <ele>84</ele>
        <time>2026-08-23T13:44:32.000Z</time>
      </trkpt>
      <trkpt lat="43.27903" lon="-1.35487">
        <ele>85</ele>
        <time>2026-08-23T13:44:35.000Z</time>
      </trkpt>
      <trkpt lat="43.27924" lon="-1.35502">
        <ele>85</ele>
        <time>2026-08-23T13:44:39.000Z</time>
      </trkpt>
      <trkpt lat="43.2794" lon="-1.35513">
        <ele>86</ele>
        <time>2026-08-23T13:44:42.000Z</time>
      </trkpt>
      <trkpt lat="43.27951" lon="-1.3552">
        <ele>87</ele>
        <time>2026-08-23T13:44:45.000Z</time>
      </trkpt>
      <trkpt lat="43.27959" lon="-1.35524">
        <ele>88</ele>
        <time>2026-08-23T13:44:46.000Z</time>
      </trkpt>
      <trkpt lat="43.27968" lon="-1.35529">
        <ele>89</ele>
        <time>2026-08-23T13:44:48.000Z</time>
      </trkpt>
      <trkpt lat="43.27983" lon="-1.35534">
        <ele>90</ele>
        <time>2026-08-23T13:44:51.000Z</time>
      </trkpt>
      <trkpt lat="43.28028" lon="-1.35542">
        <ele>92</ele>
        <time>2026-08-23T13:44:59.000Z</time>
      </trkpt>
      <trkpt lat="43.28071" lon="-1.35551">
        <ele>93</ele>
        <time>2026-08-23T13:45:06.000Z</time>
      </trkpt>
      <trkpt lat="43.28097" lon="-1.35554">
        <ele>92</ele>
        <time>2026-08-23T13:45:11.000Z</time>
      </trkpt>
      <trkpt lat="43.28112" lon="-1.35555">
        <ele>91</ele>
        <time>2026-08-23T13:45:14.000Z</time>
      </trkpt>
      <trkpt lat="43.2814" lon="-1.35551">
        <ele>87</ele>
        <time>2026-08-23T13:45:19.000Z</time>
      </trkpt>
      <trkpt lat="43.28155" lon="-1.3555">
        <ele>86</ele>
        <time>2026-08-23T13:45:21.000Z</time>
      </trkpt>
      <trkpt lat="43.28166" lon="-1.35552">
        <ele>85</ele>
        <time>2026-08-23T13:45:23.000Z</time>
      </trkpt>
      <trkpt lat="43.28184" lon="-1.35557">
        <ele>86</ele>
        <time>2026-08-23T13:45:27.000Z</time>
      </trkpt>
      <trkpt lat="43.28235" lon="-1.35568">
        <ele>88</ele>
        <time>2026-08-23T13:45:36.000Z</time>
      </trkpt>
      <trkpt lat="43.28258" lon="-1.3557">
        <ele>88</ele>
        <time>2026-08-23T13:45:40.000Z</time>
      </trkpt>
      <trkpt lat="43.28277" lon="-1.3557">
        <ele>87</ele>
        <time>2026-08-23T13:45:43.000Z</time>
      </trkpt>
      <trkpt lat="43.28298" lon="-1.35569">
        <ele>86</ele>
        <time>2026-08-23T13:45:47.000Z</time>
      </trkpt>
      <trkpt lat="43.28312" lon="-1.35568">
        <ele>86</ele>
        <time>2026-08-23T13:45:50.000Z</time>
      </trkpt>
      <trkpt lat="43.28333" lon="-1.35571">
        <ele>86</ele>
        <time>2026-08-23T13:45:53.000Z</time>
      </trkpt>
      <trkpt lat="43.28372" lon="-1.35572">
        <ele>85</ele>
        <time>2026-08-23T13:46:00.000Z</time>
      </trkpt>
      <trkpt lat="43.28403" lon="-1.3557">
        <ele>84</ele>
        <time>2026-08-23T13:46:06.000Z</time>
      </trkpt>
      <trkpt lat="43.28438" lon="-1.35564">
        <ele>83</ele>
        <time>2026-08-23T13:46:12.000Z</time>
      </trkpt>
      <trkpt lat="43.28462" lon="-1.35561">
        <ele>83</ele>
        <time>2026-08-23T13:46:16.000Z</time>
      </trkpt>
      <trkpt lat="43.28486" lon="-1.35562">
        <ele>84</ele>
        <time>2026-08-23T13:46:21.000Z</time>
      </trkpt>
      <trkpt lat="43.28499" lon="-1.35564">
        <ele>84</ele>
        <time>2026-08-23T13:46:23.000Z</time>
      </trkpt>
      <trkpt lat="43.28501" lon="-1.35564">
        <ele>84</ele>
        <time>2026-08-23T13:46:23.000Z</time>
      </trkpt>
      <trkpt lat="43.28513" lon="-1.35564">
        <ele>87</ele>
        <time>2026-08-23T13:46:25.000Z</time>
      </trkpt>
      <trkpt lat="43.28538" lon="-1.35553">
        <ele>91</ele>
        <time>2026-08-23T13:46:30.000Z</time>
      </trkpt>
      <trkpt lat="43.28547" lon="-1.35548">
        <ele>92</ele>
        <time>2026-08-23T13:46:32.000Z</time>
      </trkpt>
      <trkpt lat="43.28557" lon="-1.35532">
        <ele>92</ele>
        <time>2026-08-23T13:46:35.000Z</time>
      </trkpt>
      <trkpt lat="43.2856" lon="-1.3552">
        <ele>91</ele>
        <time>2026-08-23T13:46:36.000Z</time>
      </trkpt>
      <trkpt lat="43.28566" lon="-1.35502">
        <ele>90</ele>
        <time>2026-08-23T13:46:39.000Z</time>
      </trkpt>
      <trkpt lat="43.28571" lon="-1.35491">
        <ele>90</ele>
        <time>2026-08-23T13:46:40.000Z</time>
      </trkpt>
      <trkpt lat="43.28579" lon="-1.35482">
        <ele>90</ele>
        <time>2026-08-23T13:46:42.000Z</time>
      </trkpt>
      <trkpt lat="43.286" lon="-1.35454">
        <ele>94</ele>
        <time>2026-08-23T13:46:48.000Z</time>
      </trkpt>
      <trkpt lat="43.28612" lon="-1.35436">
        <ele>97</ele>
        <time>2026-08-23T13:46:51.000Z</time>
      </trkpt>
      <trkpt lat="43.28622" lon="-1.35428">
        <ele>100</ele>
        <time>2026-08-23T13:46:53.000Z</time>
      </trkpt>
      <trkpt lat="43.28628" lon="-1.35416">
        <ele>101</ele>
        <time>2026-08-23T13:46:55.000Z</time>
      </trkpt>
      <trkpt lat="43.28633" lon="-1.35401">
        <ele>101</ele>
        <time>2026-08-23T13:46:57.000Z</time>
      </trkpt>
      <trkpt lat="43.28644" lon="-1.35366">
        <ele>101</ele>
        <time>2026-08-23T13:47:02.000Z</time>
      </trkpt>
      <trkpt lat="43.28652" lon="-1.35351">
        <ele>101</ele>
        <time>2026-08-23T13:47:04.000Z</time>
      </trkpt>
      <trkpt lat="43.28661" lon="-1.35342">
        <ele>103</ele>
        <time>2026-08-23T13:47:06.000Z</time>
      </trkpt>
      <trkpt lat="43.2867" lon="-1.35335">
        <ele>103</ele>
        <time>2026-08-23T13:47:08.000Z</time>
      </trkpt>
      <trkpt lat="43.28687" lon="-1.35328">
        <ele>103</ele>
        <time>2026-08-23T13:47:11.000Z</time>
      </trkpt>
      <trkpt lat="43.28699" lon="-1.35328">
        <ele>103</ele>
        <time>2026-08-23T13:47:13.000Z</time>
      </trkpt>
      <trkpt lat="43.28716" lon="-1.35329">
        <ele>104</ele>
        <time>2026-08-23T13:47:16.000Z</time>
      </trkpt>
      <trkpt lat="43.28739" lon="-1.35333">
        <ele>106</ele>
        <time>2026-08-23T13:47:20.000Z</time>
      </trkpt>
      <trkpt lat="43.2876" lon="-1.3534">
        <ele>108</ele>
        <time>2026-08-23T13:47:24.000Z</time>
      </trkpt>
      <trkpt lat="43.28781" lon="-1.35348">
        <ele>109</ele>
        <time>2026-08-23T13:47:28.000Z</time>
      </trkpt>
      <trkpt lat="43.28797" lon="-1.35355">
        <ele>109</ele>
        <time>2026-08-23T13:47:31.000Z</time>
      </trkpt>
      <trkpt lat="43.28812" lon="-1.35362">
        <ele>110</ele>
        <time>2026-08-23T13:47:34.000Z</time>
      </trkpt>
      <trkpt lat="43.28824" lon="-1.35365">
        <ele>110</ele>
        <time>2026-08-23T13:47:36.000Z</time>
      </trkpt>
      <trkpt lat="43.28836" lon="-1.35369">
        <ele>109</ele>
        <time>2026-08-23T13:47:38.000Z</time>
      </trkpt>
      <trkpt lat="43.28854" lon="-1.35374">
        <ele>106</ele>
        <time>2026-08-23T13:47:42.000Z</time>
      </trkpt>
      <trkpt lat="43.28872" lon="-1.35383">
        <ele>105</ele>
        <time>2026-08-23T13:47:45.000Z</time>
      </trkpt>
      <trkpt lat="43.28885" lon="-1.35392">
        <ele>104</ele>
        <time>2026-08-23T13:47:48.000Z</time>
      </trkpt>
      <trkpt lat="43.28892" lon="-1.35397">
        <ele>104</ele>
        <time>2026-08-23T13:47:49.000Z</time>
      </trkpt>
      <trkpt lat="43.28899" lon="-1.35402">
        <ele>104</ele>
        <time>2026-08-23T13:47:50.000Z</time>
      </trkpt>
      <trkpt lat="43.2891" lon="-1.35408">
        <ele>103</ele>
        <time>2026-08-23T13:47:52.000Z</time>
      </trkpt>
      <trkpt lat="43.28917" lon="-1.35417">
        <ele>104</ele>
        <time>2026-08-23T13:47:54.000Z</time>
      </trkpt>
      <trkpt lat="43.2892" lon="-1.35425">
        <ele>105</ele>
        <time>2026-08-23T13:47:55.000Z</time>
      </trkpt>
      <trkpt lat="43.28922" lon="-1.35432">
        <ele>106</ele>
        <time>2026-08-23T13:47:56.000Z</time>
      </trkpt>
      <trkpt lat="43.28922" lon="-1.35438">
        <ele>107</ele>
        <time>2026-08-23T13:47:57.000Z</time>
      </trkpt>
      <trkpt lat="43.28925" lon="-1.35459">
        <ele>111</ele>
        <time>2026-08-23T13:48:00.000Z</time>
      </trkpt>
      <trkpt lat="43.28928" lon="-1.35472">
        <ele>113</ele>
        <time>2026-08-23T13:48:02.000Z</time>
      </trkpt>
      <trkpt lat="43.28932" lon="-1.35481">
        <ele>114</ele>
        <time>2026-08-23T13:48:03.000Z</time>
      </trkpt>
      <trkpt lat="43.28934" lon="-1.35482">
        <ele>114</ele>
        <time>2026-08-23T13:48:03.000Z</time>
      </trkpt>
      <trkpt lat="43.28943" lon="-1.35484">
        <ele>114</ele>
        <time>2026-08-23T13:48:05.000Z</time>
      </trkpt>
      <trkpt lat="43.28948" lon="-1.35479">
        <ele>113</ele>
        <time>2026-08-23T13:48:06.000Z</time>
      </trkpt>
      <trkpt lat="43.28954" lon="-1.35471">
        <ele>111</ele>
        <time>2026-08-23T13:48:08.000Z</time>
      </trkpt>
      <trkpt lat="43.28961" lon="-1.35463">
        <ele>109</ele>
        <time>2026-08-23T13:48:09.000Z</time>
      </trkpt>
      <trkpt lat="43.28971" lon="-1.35458">
        <ele>108</ele>
        <time>2026-08-23T13:48:11.000Z</time>
      </trkpt>
      <trkpt lat="43.28979" lon="-1.35458">
        <ele>107</ele>
        <time>2026-08-23T13:48:12.000Z</time>
      </trkpt>
      <trkpt lat="43.28992" lon="-1.35462">
        <ele>107</ele>
        <time>2026-08-23T13:48:15.000Z</time>
      </trkpt>
      <trkpt lat="43.29003" lon="-1.35466">
        <ele>108</ele>
        <time>2026-08-23T13:48:17.000Z</time>
      </trkpt>
      <trkpt lat="43.29012" lon="-1.35468">
        <ele>108</ele>
        <time>2026-08-23T13:48:19.000Z</time>
      </trkpt>
      <trkpt lat="43.29027" lon="-1.35469">
        <ele>108</ele>
        <time>2026-08-23T13:48:21.000Z</time>
      </trkpt>
      <trkpt lat="43.29052" lon="-1.35463">
        <ele>105</ele>
        <time>2026-08-23T13:48:26.000Z</time>
      </trkpt>
      <trkpt lat="43.29074" lon="-1.3546">
        <ele>103</ele>
        <time>2026-08-23T13:48:30.000Z</time>
      </trkpt>
      <trkpt lat="43.29093" lon="-1.35466">
        <ele>104</ele>
        <time>2026-08-23T13:48:33.000Z</time>
      </trkpt>
      <trkpt lat="43.29112" lon="-1.35475">
        <ele>105</ele>
        <time>2026-08-23T13:48:37.000Z</time>
      </trkpt>
      <trkpt lat="43.29124" lon="-1.35479">
        <ele>105</ele>
        <time>2026-08-23T13:48:39.000Z</time>
      </trkpt>
      <trkpt lat="43.29137" lon="-1.35481">
        <ele>104</ele>
        <time>2026-08-23T13:48:41.000Z</time>
      </trkpt>
      <trkpt lat="43.29154" lon="-1.35477">
        <ele>101</ele>
        <time>2026-08-23T13:48:44.000Z</time>
      </trkpt>
      <trkpt lat="43.29167" lon="-1.35472">
        <ele>98</ele>
        <time>2026-08-23T13:48:47.000Z</time>
      </trkpt>
      <trkpt lat="43.29179" lon="-1.35469">
        <ele>97</ele>
        <time>2026-08-23T13:48:49.000Z</time>
      </trkpt>
      <trkpt lat="43.29183" lon="-1.35473">
        <ele>98</ele>
        <time>2026-08-23T13:48:50.000Z</time>
      </trkpt>
      <trkpt lat="43.29189" lon="-1.35477">
        <ele>99</ele>
        <time>2026-08-23T13:48:51.000Z</time>
      </trkpt>
      <trkpt lat="43.29193" lon="-1.35485">
        <ele>102</ele>
        <time>2026-08-23T13:48:52.000Z</time>
      </trkpt>
      <trkpt lat="43.29198" lon="-1.35497">
        <ele>105</ele>
        <time>2026-08-23T13:48:54.000Z</time>
      </trkpt>
      <trkpt lat="43.29205" lon="-1.35505">
        <ele>107</ele>
        <time>2026-08-23T13:48:56.000Z</time>
      </trkpt>
      <trkpt lat="43.29212" lon="-1.35508">
        <ele>108</ele>
        <time>2026-08-23T13:48:57.000Z</time>
      </trkpt>
      <trkpt lat="43.29218" lon="-1.35507">
        <ele>107</ele>
        <time>2026-08-23T13:48:58.000Z</time>
      </trkpt>
      <trkpt lat="43.29224" lon="-1.35503">
        <ele>105</ele>
        <time>2026-08-23T13:48:59.000Z</time>
      </trkpt>
      <trkpt lat="43.29229" lon="-1.35494">
        <ele>102</ele>
        <time>2026-08-23T13:49:01.000Z</time>
      </trkpt>
      <trkpt lat="43.29232" lon="-1.35483">
        <ele>99</ele>
        <time>2026-08-23T13:49:02.000Z</time>
      </trkpt>
      <trkpt lat="43.29234" lon="-1.35471">
        <ele>96</ele>
        <time>2026-08-23T13:49:04.000Z</time>
      </trkpt>
      <trkpt lat="43.29239" lon="-1.35464">
        <ele>95</ele>
        <time>2026-08-23T13:49:05.000Z</time>
      </trkpt>
      <trkpt lat="43.29247" lon="-1.35457">
        <ele>93</ele>
        <time>2026-08-23T13:49:07.000Z</time>
      </trkpt>
      <trkpt lat="43.29256" lon="-1.35454">
        <ele>94</ele>
        <time>2026-08-23T13:49:08.000Z</time>
      </trkpt>
      <trkpt lat="43.29266" lon="-1.35451">
        <ele>95</ele>
        <time>2026-08-23T13:49:10.000Z</time>
      </trkpt>
      <trkpt lat="43.29272" lon="-1.3545">
        <ele>95</ele>
        <time>2026-08-23T13:49:11.000Z</time>
      </trkpt>
      <trkpt lat="43.29276" lon="-1.35449">
        <ele>96</ele>
        <time>2026-08-23T13:49:12.000Z</time>
      </trkpt>
      <trkpt lat="43.29283" lon="-1.35446">
        <ele>96</ele>
        <time>2026-08-23T13:49:13.000Z</time>
      </trkpt>
      <trkpt lat="43.29301" lon="-1.35436">
        <ele>96</ele>
        <time>2026-08-23T13:49:17.000Z</time>
      </trkpt>
      <trkpt lat="43.29321" lon="-1.35423">
        <ele>94</ele>
        <time>2026-08-23T13:49:21.000Z</time>
      </trkpt>
      <trkpt lat="43.29338" lon="-1.3541">
        <ele>93</ele>
        <time>2026-08-23T13:49:24.000Z</time>
      </trkpt>
      <trkpt lat="43.29351" lon="-1.35398">
        <ele>94</ele>
        <time>2026-08-23T13:49:27.000Z</time>
      </trkpt>
      <trkpt lat="43.29364" lon="-1.35384">
        <ele>93</ele>
        <time>2026-08-23T13:49:30.000Z</time>
      </trkpt>
      <trkpt lat="43.29375" lon="-1.35373">
        <ele>93</ele>
        <time>2026-08-23T13:49:32.000Z</time>
      </trkpt>
      <trkpt lat="43.29386" lon="-1.35362">
        <ele>93</ele>
        <time>2026-08-23T13:49:35.000Z</time>
      </trkpt>
      <trkpt lat="43.294" lon="-1.35349">
        <ele>92</ele>
        <time>2026-08-23T13:49:38.000Z</time>
      </trkpt>
      <trkpt lat="43.29417" lon="-1.35334">
        <ele>90</ele>
        <time>2026-08-23T13:49:41.000Z</time>
      </trkpt>
      <trkpt lat="43.29434" lon="-1.35315">
        <ele>92</ele>
        <time>2026-08-23T13:49:45.000Z</time>
      </trkpt>
      <trkpt lat="43.29446" lon="-1.35302">
        <ele>92</ele>
        <time>2026-08-23T13:49:48.000Z</time>
      </trkpt>
      <trkpt lat="43.29456" lon="-1.35291">
        <ele>92</ele>
        <time>2026-08-23T13:49:50.000Z</time>
      </trkpt>
      <trkpt lat="43.29466" lon="-1.35283">
        <ele>92</ele>
        <time>2026-08-23T13:49:52.000Z</time>
      </trkpt>
      <trkpt lat="43.29477" lon="-1.35276">
        <ele>93</ele>
        <time>2026-08-23T13:49:54.000Z</time>
      </trkpt>
      <trkpt lat="43.29489" lon="-1.35269">
        <ele>93</ele>
        <time>2026-08-23T13:49:57.000Z</time>
      </trkpt>
      <trkpt lat="43.29502" lon="-1.3526">
        <ele>92</ele>
        <time>2026-08-23T13:49:59.000Z</time>
      </trkpt>
      <trkpt lat="43.29512" lon="-1.35253">
        <ele>92</ele>
        <time>2026-08-23T13:50:01.000Z</time>
      </trkpt>
      <trkpt lat="43.29526" lon="-1.35244">
        <ele>93</ele>
        <time>2026-08-23T13:50:04.000Z</time>
      </trkpt>
      <trkpt lat="43.2954" lon="-1.35233">
        <ele>94</ele>
        <time>2026-08-23T13:50:07.000Z</time>
      </trkpt>
      <trkpt lat="43.29559" lon="-1.35217">
        <ele>93</ele>
        <time>2026-08-23T13:50:11.000Z</time>
      </trkpt>
      <trkpt lat="43.2958" lon="-1.35207">
        <ele>94</ele>
        <time>2026-08-23T13:50:15.000Z</time>
      </trkpt>
      <trkpt lat="43.29592" lon="-1.35202">
        <ele>94</ele>
        <time>2026-08-23T13:50:17.000Z</time>
      </trkpt>
      <trkpt lat="43.29602" lon="-1.35197">
        <ele>93</ele>
        <time>2026-08-23T13:50:19.000Z</time>
      </trkpt>
      <trkpt lat="43.29613" lon="-1.35193">
        <ele>92</ele>
        <time>2026-08-23T13:50:21.000Z</time>
      </trkpt>
      <trkpt lat="43.2963" lon="-1.35189">
        <ele>92</ele>
        <time>2026-08-23T13:50:24.000Z</time>
      </trkpt>
      <trkpt lat="43.29645" lon="-1.35189">
        <ele>93</ele>
        <time>2026-08-23T13:50:27.000Z</time>
      </trkpt>
      <trkpt lat="43.29653" lon="-1.3519">
        <ele>94</ele>
        <time>2026-08-23T13:50:28.000Z</time>
      </trkpt>
      <trkpt lat="43.29664" lon="-1.35195">
        <ele>96</ele>
        <time>2026-08-23T13:50:30.000Z</time>
      </trkpt>
      <trkpt lat="43.29677" lon="-1.35201">
        <ele>97</ele>
        <time>2026-08-23T13:50:33.000Z</time>
      </trkpt>
      <trkpt lat="43.29685" lon="-1.35205">
        <ele>98</ele>
        <time>2026-08-23T13:50:34.000Z</time>
      </trkpt>
      <trkpt lat="43.297" lon="-1.35214">
        <ele>99</ele>
        <time>2026-08-23T13:50:37.000Z</time>
      </trkpt>
      <trkpt lat="43.29725" lon="-1.35229">
        <ele>100</ele>
        <time>2026-08-23T13:50:42.000Z</time>
      </trkpt>
      <trkpt lat="43.29731" lon="-1.35233">
        <ele>100</ele>
        <time>2026-08-23T13:50:43.000Z</time>
      </trkpt>
      <trkpt lat="43.29739" lon="-1.35239">
        <ele>100</ele>
        <time>2026-08-23T13:50:45.000Z</time>
      </trkpt>
      <trkpt lat="43.2975" lon="-1.3525">
        <ele>101</ele>
        <time>2026-08-23T13:50:47.000Z</time>
      </trkpt>
      <trkpt lat="43.29756" lon="-1.35258">
        <ele>102</ele>
        <time>2026-08-23T13:50:49.000Z</time>
      </trkpt>
      <trkpt lat="43.29761" lon="-1.35265">
        <ele>103</ele>
        <time>2026-08-23T13:50:50.000Z</time>
      </trkpt>
      <trkpt lat="43.29766" lon="-1.35275">
        <ele>104</ele>
        <time>2026-08-23T13:50:51.000Z</time>
      </trkpt>
      <trkpt lat="43.29768" lon="-1.35284">
        <ele>106</ele>
        <time>2026-08-23T13:50:53.000Z</time>
      </trkpt>
      <trkpt lat="43.2977" lon="-1.35291">
        <ele>107</ele>
        <time>2026-08-23T13:50:54.000Z</time>
      </trkpt>
      <trkpt lat="43.29772" lon="-1.35297">
        <ele>109</ele>
        <time>2026-08-23T13:50:55.000Z</time>
      </trkpt>
      <trkpt lat="43.29775" lon="-1.35302">
        <ele>109</ele>
        <time>2026-08-23T13:50:55.000Z</time>
      </trkpt>
      <trkpt lat="43.29778" lon="-1.35307">
        <ele>110</ele>
        <time>2026-08-23T13:50:56.000Z</time>
      </trkpt>
      <trkpt lat="43.29782" lon="-1.35311">
        <ele>110</ele>
        <time>2026-08-23T13:50:57.000Z</time>
      </trkpt>
      <trkpt lat="43.29788" lon="-1.35314">
        <ele>110</ele>
        <time>2026-08-23T13:50:58.000Z</time>
      </trkpt>
      <trkpt lat="43.29802" lon="-1.35315">
        <ele>108</ele>
        <time>2026-08-23T13:51:01.000Z</time>
      </trkpt>
      <trkpt lat="43.29812" lon="-1.35315">
        <ele>107</ele>
        <time>2026-08-23T13:51:03.000Z</time>
      </trkpt>
      <trkpt lat="43.29819" lon="-1.35318">
        <ele>107</ele>
        <time>2026-08-23T13:51:04.000Z</time>
      </trkpt>
      <trkpt lat="43.29823" lon="-1.35322">
        <ele>107</ele>
        <time>2026-08-23T13:51:05.000Z</time>
      </trkpt>
      <trkpt lat="43.29828" lon="-1.35327">
        <ele>107</ele>
        <time>2026-08-23T13:51:06.000Z</time>
      </trkpt>
      <trkpt lat="43.29848" lon="-1.35346">
        <ele>110</ele>
        <time>2026-08-23T13:51:10.000Z</time>
      </trkpt>
      <trkpt lat="43.29858" lon="-1.35354">
        <ele>110</ele>
        <time>2026-08-23T13:51:12.000Z</time>
      </trkpt>
      <trkpt lat="43.29865" lon="-1.35359">
        <ele>111</ele>
        <time>2026-08-23T13:51:14.000Z</time>
      </trkpt>
      <trkpt lat="43.29871" lon="-1.35364">
        <ele>111</ele>
        <time>2026-08-23T13:51:15.000Z</time>
      </trkpt>
      <trkpt lat="43.29882" lon="-1.35373">
        <ele>111</ele>
        <time>2026-08-23T13:51:17.000Z</time>
      </trkpt>
      <trkpt lat="43.29897" lon="-1.35391">
        <ele>112</ele>
        <time>2026-08-23T13:51:21.000Z</time>
      </trkpt>
      <trkpt lat="43.29908" lon="-1.35407">
        <ele>112</ele>
        <time>2026-08-23T13:51:23.000Z</time>
      </trkpt>
      <trkpt lat="43.29912" lon="-1.35413">
        <ele>113</ele>
        <time>2026-08-23T13:51:25.000Z</time>
      </trkpt>
      <trkpt lat="43.29932" lon="-1.35442">
        <ele>114</ele>
        <time>2026-08-23T13:51:30.000Z</time>
      </trkpt>
      <trkpt lat="43.29956" lon="-1.35468">
        <ele>113</ele>
        <time>2026-08-23T13:51:35.000Z</time>
      </trkpt>
      <trkpt lat="43.29977" lon="-1.35494">
        <ele>111</ele>
        <time>2026-08-23T13:51:40.000Z</time>
      </trkpt>
      <trkpt lat="43.3" lon="-1.35521">
        <ele>106</ele>
        <time>2026-08-23T13:51:46.000Z</time>
      </trkpt>
      <trkpt lat="43.30017" lon="-1.35538">
        <ele>102</ele>
        <time>2026-08-23T13:51:49.000Z</time>
      </trkpt>
      <trkpt lat="43.30021" lon="-1.35544">
        <ele>101</ele>
        <time>2026-08-23T13:51:50.000Z</time>
      </trkpt>
      <trkpt lat="43.30034" lon="-1.35562">
        <ele>98</ele>
        <time>2026-08-23T13:51:54.000Z</time>
      </trkpt>
      <trkpt lat="43.3004" lon="-1.35574">
        <ele>96</ele>
        <time>2026-08-23T13:51:56.000Z</time>
      </trkpt>
      <trkpt lat="43.30042" lon="-1.35581">
        <ele>95</ele>
        <time>2026-08-23T13:51:57.000Z</time>
      </trkpt>
      <trkpt lat="43.30044" lon="-1.35586">
        <ele>94</ele>
        <time>2026-08-23T13:51:57.000Z</time>
      </trkpt>
      <trkpt lat="43.30044" lon="-1.35592">
        <ele>93</ele>
        <time>2026-08-23T13:51:58.000Z</time>
      </trkpt>
      <trkpt lat="43.30044" lon="-1.356">
        <ele>92</ele>
        <time>2026-08-23T13:51:59.000Z</time>
      </trkpt>
      <trkpt lat="43.30041" lon="-1.3561">
        <ele>92</ele>
        <time>2026-08-23T13:52:00.000Z</time>
      </trkpt>
      <trkpt lat="43.30032" lon="-1.35633">
        <ele>93</ele>
        <time>2026-08-23T13:52:04.000Z</time>
      </trkpt>
      <trkpt lat="43.30021" lon="-1.35658">
        <ele>94</ele>
        <time>2026-08-23T13:52:08.000Z</time>
      </trkpt>
      <trkpt lat="43.30014" lon="-1.35672">
        <ele>95</ele>
        <time>2026-08-23T13:52:10.000Z</time>
      </trkpt>
      <trkpt lat="43.30003" lon="-1.35683">
        <ele>98</ele>
        <time>2026-08-23T13:52:12.000Z</time>
      </trkpt>
      <trkpt lat="43.29996" lon="-1.35691">
        <ele>100</ele>
        <time>2026-08-23T13:52:14.000Z</time>
      </trkpt>
      <trkpt lat="43.29994" lon="-1.35698">
        <ele>100</ele>
        <time>2026-08-23T13:52:15.000Z</time>
      </trkpt>
      <trkpt lat="43.29993" lon="-1.35706">
        <ele>100</ele>
        <time>2026-08-23T13:52:16.000Z</time>
      </trkpt>
      <trkpt lat="43.29994" lon="-1.35713">
        <ele>98</ele>
        <time>2026-08-23T13:52:17.000Z</time>
      </trkpt>
      <trkpt lat="43.29995" lon="-1.35725">
        <ele>96</ele>
        <time>2026-08-23T13:52:18.000Z</time>
      </trkpt>
      <trkpt lat="43.29995" lon="-1.35743">
        <ele>93</ele>
        <time>2026-08-23T13:52:21.000Z</time>
      </trkpt>
      <trkpt lat="43.29991" lon="-1.3576">
        <ele>92</ele>
        <time>2026-08-23T13:52:23.000Z</time>
      </trkpt>
      <trkpt lat="43.29985" lon="-1.35777">
        <ele>93</ele>
        <time>2026-08-23T13:52:25.000Z</time>
      </trkpt>
      <trkpt lat="43.29977" lon="-1.35793">
        <ele>95</ele>
        <time>2026-08-23T13:52:28.000Z</time>
      </trkpt>
      <trkpt lat="43.2997" lon="-1.35806">
        <ele>97</ele>
        <time>2026-08-23T13:52:30.000Z</time>
      </trkpt>
      <trkpt lat="43.29966" lon="-1.35815">
        <ele>98</ele>
        <time>2026-08-23T13:52:31.000Z</time>
      </trkpt>
      <trkpt lat="43.29961" lon="-1.35826">
        <ele>99</ele>
        <time>2026-08-23T13:52:33.000Z</time>
      </trkpt>
      <trkpt lat="43.29959" lon="-1.35832">
        <ele>99</ele>
        <time>2026-08-23T13:52:34.000Z</time>
      </trkpt>
      <trkpt lat="43.29957" lon="-1.35848">
        <ele>99</ele>
        <time>2026-08-23T13:52:36.000Z</time>
      </trkpt>
      <trkpt lat="43.29956" lon="-1.35856">
        <ele>98</ele>
        <time>2026-08-23T13:52:37.000Z</time>
      </trkpt>
      <trkpt lat="43.29954" lon="-1.35868">
        <ele>98</ele>
        <time>2026-08-23T13:52:39.000Z</time>
      </trkpt>
      <trkpt lat="43.29953" lon="-1.35879">
        <ele>97</ele>
        <time>2026-08-23T13:52:40.000Z</time>
      </trkpt>
      <trkpt lat="43.29951" lon="-1.35895">
        <ele>97</ele>
        <time>2026-08-23T13:52:42.000Z</time>
      </trkpt>
      <trkpt lat="43.2995" lon="-1.3591">
        <ele>96</ele>
        <time>2026-08-23T13:52:44.000Z</time>
      </trkpt>
      <trkpt lat="43.29949" lon="-1.35922">
        <ele>95</ele>
        <time>2026-08-23T13:52:46.000Z</time>
      </trkpt>
      <trkpt lat="43.2995" lon="-1.35938">
        <ele>94</ele>
        <time>2026-08-23T13:52:48.000Z</time>
      </trkpt>
      <trkpt lat="43.2995" lon="-1.35956">
        <ele>93</ele>
        <time>2026-08-23T13:52:50.000Z</time>
      </trkpt>
      <trkpt lat="43.29951" lon="-1.35967">
        <ele>92</ele>
        <time>2026-08-23T13:52:52.000Z</time>
      </trkpt>
      <trkpt lat="43.29951" lon="-1.35978">
        <ele>91</ele>
        <time>2026-08-23T13:52:53.000Z</time>
      </trkpt>
      <trkpt lat="43.29951" lon="-1.35983">
        <ele>91</ele>
        <time>2026-08-23T13:52:54.000Z</time>
      </trkpt>
      <trkpt lat="43.29952" lon="-1.36006">
        <ele>89</ele>
        <time>2026-08-23T13:52:57.000Z</time>
      </trkpt>
      <trkpt lat="43.29952" lon="-1.36018">
        <ele>89</ele>
        <time>2026-08-23T13:52:58.000Z</time>
      </trkpt>
      <trkpt lat="43.29951" lon="-1.36026">
        <ele>89</ele>
        <time>2026-08-23T13:52:59.000Z</time>
      </trkpt>
      <trkpt lat="43.2995" lon="-1.36038">
        <ele>89</ele>
        <time>2026-08-23T13:53:01.000Z</time>
      </trkpt>
      <trkpt lat="43.2995" lon="-1.36052">
        <ele>89</ele>
        <time>2026-08-23T13:53:03.000Z</time>
      </trkpt>
      <trkpt lat="43.2995" lon="-1.36063">
        <ele>88</ele>
        <time>2026-08-23T13:53:04.000Z</time>
      </trkpt>
      <trkpt lat="43.29953" lon="-1.36075">
        <ele>86</ele>
        <time>2026-08-23T13:53:06.000Z</time>
      </trkpt>
      <trkpt lat="43.29955" lon="-1.36084">
        <ele>85</ele>
        <time>2026-08-23T13:53:07.000Z</time>
      </trkpt>
      <trkpt lat="43.29957" lon="-1.36089">
        <ele>85</ele>
        <time>2026-08-23T13:53:08.000Z</time>
      </trkpt>
      <trkpt lat="43.29958" lon="-1.36094">
        <ele>85</ele>
        <time>2026-08-23T13:53:08.000Z</time>
      </trkpt>
      <trkpt lat="43.29957" lon="-1.361">
        <ele>86</ele>
        <time>2026-08-23T13:53:09.000Z</time>
      </trkpt>
      <trkpt lat="43.29956" lon="-1.36107">
        <ele>87</ele>
        <time>2026-08-23T13:53:10.000Z</time>
      </trkpt>
      <trkpt lat="43.2995" lon="-1.36121">
        <ele>90</ele>
        <time>2026-08-23T13:53:12.000Z</time>
      </trkpt>
      <trkpt lat="43.2995" lon="-1.36127">
        <ele>91</ele>
        <time>2026-08-23T13:53:13.000Z</time>
      </trkpt>
      <trkpt lat="43.2995" lon="-1.36134">
        <ele>92</ele>
        <time>2026-08-23T13:53:14.000Z</time>
      </trkpt>
      <trkpt lat="43.29952" lon="-1.36142">
        <ele>91</ele>
        <time>2026-08-23T13:53:15.000Z</time>
      </trkpt>
      <trkpt lat="43.29955" lon="-1.36146">
        <ele>90</ele>
        <time>2026-08-23T13:53:16.000Z</time>
      </trkpt>
      <trkpt lat="43.29956" lon="-1.3615">
        <ele>90</ele>
        <time>2026-08-23T13:53:16.000Z</time>
      </trkpt>
      <trkpt lat="43.29957" lon="-1.36153">
        <ele>90</ele>
        <time>2026-08-23T13:53:17.000Z</time>
      </trkpt>
      <trkpt lat="43.2996" lon="-1.36161">
        <ele>89</ele>
        <time>2026-08-23T13:53:18.000Z</time>
      </trkpt>
      <trkpt lat="43.29966" lon="-1.36173">
        <ele>88</ele>
        <time>2026-08-23T13:53:20.000Z</time>
      </trkpt>
      <trkpt lat="43.29973" lon="-1.36187">
        <ele>87</ele>
        <time>2026-08-23T13:53:22.000Z</time>
      </trkpt>
      <trkpt lat="43.29982" lon="-1.36201">
        <ele>85</ele>
        <time>2026-08-23T13:53:24.000Z</time>
      </trkpt>
      <trkpt lat="43.29987" lon="-1.36212">
        <ele>85</ele>
        <time>2026-08-23T13:53:26.000Z</time>
      </trkpt>
      <trkpt lat="43.2999" lon="-1.36219">
        <ele>85</ele>
        <time>2026-08-23T13:53:27.000Z</time>
      </trkpt>
      <trkpt lat="43.29992" lon="-1.36229">
        <ele>86</ele>
        <time>2026-08-23T13:53:28.000Z</time>
      </trkpt>
      <trkpt lat="43.29993" lon="-1.36239">
        <ele>87</ele>
        <time>2026-08-23T13:53:30.000Z</time>
      </trkpt>
      <trkpt lat="43.29992" lon="-1.36252">
        <ele>89</ele>
        <time>2026-08-23T13:53:31.000Z</time>
      </trkpt>
      <trkpt lat="43.29991" lon="-1.36276">
        <ele>89</ele>
        <time>2026-08-23T13:53:35.000Z</time>
      </trkpt>
      <trkpt lat="43.29991" lon="-1.36283">
        <ele>89</ele>
        <time>2026-08-23T13:53:35.000Z</time>
      </trkpt>
      <trkpt lat="43.29992" lon="-1.36288">
        <ele>89</ele>
        <time>2026-08-23T13:53:36.000Z</time>
      </trkpt>
      <trkpt lat="43.29993" lon="-1.36293">
        <ele>88</ele>
        <time>2026-08-23T13:53:37.000Z</time>
      </trkpt>
      <trkpt lat="43.29996" lon="-1.36303">
        <ele>87</ele>
        <time>2026-08-23T13:53:38.000Z</time>
      </trkpt>
      <trkpt lat="43.29997" lon="-1.36309">
        <ele>87</ele>
        <time>2026-08-23T13:53:39.000Z</time>
      </trkpt>
      <trkpt lat="43.29996" lon="-1.3632">
        <ele>87</ele>
        <time>2026-08-23T13:53:40.000Z</time>
      </trkpt>
      <trkpt lat="43.29993" lon="-1.36329">
        <ele>88</ele>
        <time>2026-08-23T13:53:42.000Z</time>
      </trkpt>
      <trkpt lat="43.2999" lon="-1.36334">
        <ele>89</ele>
        <time>2026-08-23T13:53:43.000Z</time>
      </trkpt>
      <trkpt lat="43.29986" lon="-1.36345">
        <ele>90</ele>
        <time>2026-08-23T13:53:44.000Z</time>
      </trkpt>
      <trkpt lat="43.29977" lon="-1.3636">
        <ele>91</ele>
        <time>2026-08-23T13:53:47.000Z</time>
      </trkpt>
      <trkpt lat="43.29972" lon="-1.36364">
        <ele>92</ele>
        <time>2026-08-23T13:53:48.000Z</time>
      </trkpt>
      <trkpt lat="43.29968" lon="-1.36366">
        <ele>92</ele>
        <time>2026-08-23T13:53:48.000Z</time>
      </trkpt>
      <trkpt lat="43.29961" lon="-1.36368">
        <ele>94</ele>
        <time>2026-08-23T13:53:50.000Z</time>
      </trkpt>
      <trkpt lat="43.29937" lon="-1.36368">
        <ele>99</ele>
        <time>2026-08-23T13:53:54.000Z</time>
      </trkpt>
      <trkpt lat="43.29915" lon="-1.36363">
        <ele>104</ele>
        <time>2026-08-23T13:53:58.000Z</time>
      </trkpt>
      <trkpt lat="43.299" lon="-1.36361">
        <ele>108</ele>
        <time>2026-08-23T13:54:01.000Z</time>
      </trkpt>
      <trkpt lat="43.29893" lon="-1.36363">
        <ele>109</ele>
        <time>2026-08-23T13:54:02.000Z</time>
      </trkpt>
      <trkpt lat="43.29889" lon="-1.36365">
        <ele>109</ele>
        <time>2026-08-23T13:54:03.000Z</time>
      </trkpt>
      <trkpt lat="43.29883" lon="-1.3637">
        <ele>109</ele>
        <time>2026-08-23T13:54:04.000Z</time>
      </trkpt>
      <trkpt lat="43.29876" lon="-1.36378">
        <ele>110</ele>
        <time>2026-08-23T13:54:06.000Z</time>
      </trkpt>
      <trkpt lat="43.2987" lon="-1.36386">
        <ele>109</ele>
        <time>2026-08-23T13:54:07.000Z</time>
      </trkpt>
      <trkpt lat="43.29863" lon="-1.36391">
        <ele>110</ele>
        <time>2026-08-23T13:54:08.000Z</time>
      </trkpt>
      <trkpt lat="43.29856" lon="-1.364">
        <ele>110</ele>
        <time>2026-08-23T13:54:10.000Z</time>
      </trkpt>
      <trkpt lat="43.29853" lon="-1.36406">
        <ele>110</ele>
        <time>2026-08-23T13:54:11.000Z</time>
      </trkpt>
      <trkpt lat="43.29852" lon="-1.36412">
        <ele>109</ele>
        <time>2026-08-23T13:54:12.000Z</time>
      </trkpt>
      <trkpt lat="43.29852" lon="-1.36416">
        <ele>109</ele>
        <time>2026-08-23T13:54:12.000Z</time>
      </trkpt>
      <trkpt lat="43.29853" lon="-1.36421">
        <ele>108</ele>
        <time>2026-08-23T13:54:13.000Z</time>
      </trkpt>
      <trkpt lat="43.29853" lon="-1.36425">
        <ele>108</ele>
        <time>2026-08-23T13:54:14.000Z</time>
      </trkpt>
      <trkpt lat="43.29854" lon="-1.36438">
        <ele>108</ele>
        <time>2026-08-23T13:54:15.000Z</time>
      </trkpt>
      <trkpt lat="43.29854" lon="-1.36457">
        <ele>108</ele>
        <time>2026-08-23T13:54:18.000Z</time>
      </trkpt>
      <trkpt lat="43.2985" lon="-1.3647">
        <ele>108</ele>
        <time>2026-08-23T13:54:20.000Z</time>
      </trkpt>
      <trkpt lat="43.29843" lon="-1.36483">
        <ele>109</ele>
        <time>2026-08-23T13:54:22.000Z</time>
      </trkpt>
      <trkpt lat="43.29837" lon="-1.36491">
        <ele>109</ele>
        <time>2026-08-23T13:54:23.000Z</time>
      </trkpt>
      <trkpt lat="43.2983" lon="-1.36494">
        <ele>110</ele>
        <time>2026-08-23T13:54:24.000Z</time>
      </trkpt>
      <trkpt lat="43.29823" lon="-1.36496">
        <ele>111</ele>
        <time>2026-08-23T13:54:26.000Z</time>
      </trkpt>
      <trkpt lat="43.29814" lon="-1.36494">
        <ele>112</ele>
        <time>2026-08-23T13:54:27.000Z</time>
      </trkpt>
      <trkpt lat="43.29801" lon="-1.36492">
        <ele>114</ele>
        <time>2026-08-23T13:54:30.000Z</time>
      </trkpt>
      <trkpt lat="43.29784" lon="-1.36491">
        <ele>117</ele>
        <time>2026-08-23T13:54:33.000Z</time>
      </trkpt>
      <trkpt lat="43.2977" lon="-1.36495">
        <ele>118</ele>
        <time>2026-08-23T13:54:35.000Z</time>
      </trkpt>
      <trkpt lat="43.2976" lon="-1.36499">
        <ele>119</ele>
        <time>2026-08-23T13:54:37.000Z</time>
      </trkpt>
      <trkpt lat="43.29752" lon="-1.36508">
        <ele>120</ele>
        <time>2026-08-23T13:54:39.000Z</time>
      </trkpt>
      <trkpt lat="43.29751" lon="-1.36509">
        <ele>120</ele>
        <time>2026-08-23T13:54:39.000Z</time>
      </trkpt>
      <trkpt lat="43.29748" lon="-1.36513">
        <ele>121</ele>
        <time>2026-08-23T13:54:40.000Z</time>
      </trkpt>
      <trkpt lat="43.29746" lon="-1.36517">
        <ele>121</ele>
        <time>2026-08-23T13:54:41.000Z</time>
      </trkpt>
      <trkpt lat="43.29744" lon="-1.36522">
        <ele>122</ele>
        <time>2026-08-23T13:54:41.000Z</time>
      </trkpt>
      <trkpt lat="43.29741" lon="-1.36526">
        <ele>122</ele>
        <time>2026-08-23T13:54:42.000Z</time>
      </trkpt>
      <trkpt lat="43.29739" lon="-1.36531">
        <ele>123</ele>
        <time>2026-08-23T13:54:43.000Z</time>
      </trkpt>
      <trkpt lat="43.29736" lon="-1.36537">
        <ele>123</ele>
        <time>2026-08-23T13:54:44.000Z</time>
      </trkpt>
      <trkpt lat="43.29733" lon="-1.36542">
        <ele>124</ele>
        <time>2026-08-23T13:54:45.000Z</time>
      </trkpt>
      <trkpt lat="43.29731" lon="-1.36546">
        <ele>124</ele>
        <time>2026-08-23T13:54:45.000Z</time>
      </trkpt>
      <trkpt lat="43.29729" lon="-1.3655">
        <ele>125</ele>
        <time>2026-08-23T13:54:46.000Z</time>
      </trkpt>
      <trkpt lat="43.29728" lon="-1.36554">
        <ele>125</ele>
        <time>2026-08-23T13:54:46.000Z</time>
      </trkpt>
      <trkpt lat="43.29728" lon="-1.3656">
        <ele>125</ele>
        <time>2026-08-23T13:54:47.000Z</time>
      </trkpt>
      <trkpt lat="43.29731" lon="-1.36566">
        <ele>124</ele>
        <time>2026-08-23T13:54:48.000Z</time>
      </trkpt>
      <trkpt lat="43.29735" lon="-1.36568">
        <ele>123</ele>
        <time>2026-08-23T13:54:49.000Z</time>
      </trkpt>
      <trkpt lat="43.29739" lon="-1.36567">
        <ele>122</ele>
        <time>2026-08-23T13:54:50.000Z</time>
      </trkpt>
      <trkpt lat="43.29746" lon="-1.36563">
        <ele>121</ele>
        <time>2026-08-23T13:54:51.000Z</time>
      </trkpt>
      <trkpt lat="43.29753" lon="-1.36557">
        <ele>120</ele>
        <time>2026-08-23T13:54:52.000Z</time>
      </trkpt>
      <trkpt lat="43.29757" lon="-1.36555">
        <ele>120</ele>
        <time>2026-08-23T13:54:53.000Z</time>
      </trkpt>
      <trkpt lat="43.29762" lon="-1.36553">
        <ele>119</ele>
        <time>2026-08-23T13:54:54.000Z</time>
      </trkpt>
      <trkpt lat="43.29769" lon="-1.36554">
        <ele>119</ele>
        <time>2026-08-23T13:54:55.000Z</time>
      </trkpt>
      <trkpt lat="43.2978" lon="-1.36558">
        <ele>118</ele>
        <time>2026-08-23T13:54:57.000Z</time>
      </trkpt>
      <trkpt lat="43.2979" lon="-1.36568">
        <ele>118</ele>
        <time>2026-08-23T13:55:00.000Z</time>
      </trkpt>
      <trkpt lat="43.29799" lon="-1.36579">
        <ele>118</ele>
        <time>2026-08-23T13:55:02.000Z</time>
      </trkpt>
      <trkpt lat="43.29804" lon="-1.36584">
        <ele>118</ele>
        <time>2026-08-23T13:55:03.000Z</time>
      </trkpt>
      <trkpt lat="43.29814" lon="-1.36594">
        <ele>120</ele>
        <time>2026-08-23T13:55:05.000Z</time>
      </trkpt>
      <trkpt lat="43.29822" lon="-1.36607">
        <ele>123</ele>
        <time>2026-08-23T13:55:07.000Z</time>
      </trkpt>
      <trkpt lat="43.29824" lon="-1.36612">
        <ele>124</ele>
        <time>2026-08-23T13:55:08.000Z</time>
      </trkpt>
      <trkpt lat="43.29827" lon="-1.36617">
        <ele>125</ele>
        <time>2026-08-23T13:55:09.000Z</time>
      </trkpt>
      <trkpt lat="43.29829" lon="-1.3662">
        <ele>125</ele>
        <time>2026-08-23T13:55:09.000Z</time>
      </trkpt>
      <trkpt lat="43.29831" lon="-1.36623">
        <ele>126</ele>
        <time>2026-08-23T13:55:10.000Z</time>
      </trkpt>
      <trkpt lat="43.29835" lon="-1.36629">
        <ele>127</ele>
        <time>2026-08-23T13:55:11.000Z</time>
      </trkpt>
      <trkpt lat="43.29839" lon="-1.36634">
        <ele>129</ele>
        <time>2026-08-23T13:55:12.000Z</time>
      </trkpt>
      <trkpt lat="43.29851" lon="-1.36637">
        <ele>130</ele>
        <time>2026-08-23T13:55:14.000Z</time>
      </trkpt>
      <trkpt lat="43.29861" lon="-1.36639">
        <ele>131</ele>
        <time>2026-08-23T13:55:16.000Z</time>
      </trkpt>
      <trkpt lat="43.29871" lon="-1.36638">
        <ele>131</ele>
        <time>2026-08-23T13:55:18.000Z</time>
      </trkpt>
      <trkpt lat="43.2988" lon="-1.36634">
        <ele>130</ele>
        <time>2026-08-23T13:55:19.000Z</time>
      </trkpt>
      <trkpt lat="43.29891" lon="-1.36629">
        <ele>130</ele>
        <time>2026-08-23T13:55:21.000Z</time>
      </trkpt>
      <trkpt lat="43.29908" lon="-1.36621">
        <ele>129</ele>
        <time>2026-08-23T13:55:24.000Z</time>
      </trkpt>
      <trkpt lat="43.29922" lon="-1.36616">
        <ele>128</ele>
        <time>2026-08-23T13:55:27.000Z</time>
      </trkpt>
      <trkpt lat="43.29935" lon="-1.36614">
        <ele>125</ele>
        <time>2026-08-23T13:55:29.000Z</time>
      </trkpt>
      <trkpt lat="43.29935" lon="-1.36614">
        <ele>125</ele>
        <time>2026-08-23T13:55:29.000Z</time>
      </trkpt>
      <trkpt lat="43.29945" lon="-1.36614">
        <ele>124</ele>
        <time>2026-08-23T13:55:31.000Z</time>
      </trkpt>
      <trkpt lat="43.29957" lon="-1.36616">
        <ele>122</ele>
        <time>2026-08-23T13:55:33.000Z</time>
      </trkpt>
      <trkpt lat="43.29969" lon="-1.3662">
        <ele>122</ele>
        <time>2026-08-23T13:55:36.000Z</time>
      </trkpt>
      <trkpt lat="43.29978" lon="-1.36627">
        <ele>122</ele>
        <time>2026-08-23T13:55:37.000Z</time>
      </trkpt>
      <trkpt lat="43.29983" lon="-1.36633">
        <ele>122</ele>
        <time>2026-08-23T13:55:39.000Z</time>
      </trkpt>
      <trkpt lat="43.29988" lon="-1.36639">
        <ele>122</ele>
        <time>2026-08-23T13:55:40.000Z</time>
      </trkpt>
      <trkpt lat="43.29996" lon="-1.36649">
        <ele>123</ele>
        <time>2026-08-23T13:55:42.000Z</time>
      </trkpt>
      <trkpt lat="43.3" lon="-1.36652">
        <ele>123</ele>
        <time>2026-08-23T13:55:42.000Z</time>
      </trkpt>
      <trkpt lat="43.3" lon="-1.36652">
        <ele>123</ele>
        <time>2026-08-23T13:55:42.000Z</time>
      </trkpt>
      <trkpt lat="43.30013" lon="-1.36659">
        <ele>123</ele>
        <time>2026-08-23T13:55:45.000Z</time>
      </trkpt>
      <trkpt lat="43.30023" lon="-1.36663">
        <ele>122</ele>
        <time>2026-08-23T13:55:47.000Z</time>
      </trkpt>
      <trkpt lat="43.30043" lon="-1.36667">
        <ele>120</ele>
        <time>2026-08-23T13:55:50.000Z</time>
      </trkpt>
      <trkpt lat="43.3006" lon="-1.36673">
        <ele>119</ele>
        <time>2026-08-23T13:55:54.000Z</time>
      </trkpt>
      <trkpt lat="43.3007" lon="-1.36677">
        <ele>118</ele>
        <time>2026-08-23T13:55:55.000Z</time>
      </trkpt>
      <trkpt lat="43.30084" lon="-1.36684">
        <ele>117</ele>
        <time>2026-08-23T13:55:58.000Z</time>
      </trkpt>
      <trkpt lat="43.30101" lon="-1.3669">
        <ele>116</ele>
        <time>2026-08-23T13:56:01.000Z</time>
      </trkpt>
      <trkpt lat="43.30125" lon="-1.36696">
        <ele>114</ele>
        <time>2026-08-23T13:56:05.000Z</time>
      </trkpt>
      <trkpt lat="43.30165" lon="-1.36703">
        <ele>111</ele>
        <time>2026-08-23T13:56:13.000Z</time>
      </trkpt>
      <trkpt lat="43.30197" lon="-1.36709">
        <ele>111</ele>
        <time>2026-08-23T13:56:18.000Z</time>
      </trkpt>
      <trkpt lat="43.30214" lon="-1.36708">
        <ele>111</ele>
        <time>2026-08-23T13:56:21.000Z</time>
      </trkpt>
      <trkpt lat="43.30219" lon="-1.36707">
        <ele>110</ele>
        <time>2026-08-23T13:56:22.000Z</time>
      </trkpt>
      <trkpt lat="43.30225" lon="-1.36705">
        <ele>110</ele>
        <time>2026-08-23T13:56:23.000Z</time>
      </trkpt>
      <trkpt lat="43.3024" lon="-1.36697">
        <ele>107</ele>
        <time>2026-08-23T13:56:26.000Z</time>
      </trkpt>
      <trkpt lat="43.30274" lon="-1.36678">
        <ele>102</ele>
        <time>2026-08-23T13:56:33.000Z</time>
      </trkpt>
      <trkpt lat="43.30281" lon="-1.36675">
        <ele>101</ele>
        <time>2026-08-23T13:56:34.000Z</time>
      </trkpt>
      <trkpt lat="43.30286" lon="-1.36673">
        <ele>100</ele>
        <time>2026-08-23T13:56:35.000Z</time>
      </trkpt>
      <trkpt lat="43.30291" lon="-1.36674">
        <ele>100</ele>
        <time>2026-08-23T13:56:36.000Z</time>
      </trkpt>
      <trkpt lat="43.30314" lon="-1.36676">
        <ele>100</ele>
        <time>2026-08-23T13:56:40.000Z</time>
      </trkpt>
      <trkpt lat="43.30328" lon="-1.36678">
        <ele>100</ele>
        <time>2026-08-23T13:56:43.000Z</time>
      </trkpt>
      <trkpt lat="43.30339" lon="-1.36682">
        <ele>99</ele>
        <time>2026-08-23T13:56:45.000Z</time>
      </trkpt>
      <trkpt lat="43.30347" lon="-1.36684">
        <ele>98</ele>
        <time>2026-08-23T13:56:46.000Z</time>
      </trkpt>
      <trkpt lat="43.30362" lon="-1.36686">
        <ele>95</ele>
        <time>2026-08-23T13:56:49.000Z</time>
      </trkpt>
      <trkpt lat="43.30395" lon="-1.36692">
        <ele>88</ele>
        <time>2026-08-23T13:56:55.000Z</time>
      </trkpt>
      <trkpt lat="43.30399" lon="-1.36692">
        <ele>87</ele>
        <time>2026-08-23T13:56:55.000Z</time>
      </trkpt>
      <trkpt lat="43.30402" lon="-1.36692">
        <ele>86</ele>
        <time>2026-08-23T13:56:56.000Z</time>
      </trkpt>
      <trkpt lat="43.30407" lon="-1.36691">
        <ele>85</ele>
        <time>2026-08-23T13:56:57.000Z</time>
      </trkpt>
      <trkpt lat="43.30409" lon="-1.3669">
        <ele>84</ele>
        <time>2026-08-23T13:56:57.000Z</time>
      </trkpt>
      <trkpt lat="43.30412" lon="-1.36689">
        <ele>83</ele>
        <time>2026-08-23T13:56:58.000Z</time>
      </trkpt>
      <trkpt lat="43.30414" lon="-1.36687">
        <ele>83</ele>
        <time>2026-08-23T13:56:58.000Z</time>
      </trkpt>
      <trkpt lat="43.30414" lon="-1.36687">
        <ele>83</ele>
        <time>2026-08-23T13:56:58.000Z</time>
      </trkpt>
      <trkpt lat="43.30416" lon="-1.36688">
        <ele>82</ele>
        <time>2026-08-23T13:56:59.000Z</time>
      </trkpt>
      <trkpt lat="43.30436" lon="-1.36696">
        <ele>81</ele>
        <time>2026-08-23T13:57:02.000Z</time>
      </trkpt>
      <trkpt lat="43.30453" lon="-1.36702">
        <ele>79</ele>
        <time>2026-08-23T13:57:05.000Z</time>
      </trkpt>
      <trkpt lat="43.30472" lon="-1.3671">
        <ele>77</ele>
        <time>2026-08-23T13:57:09.000Z</time>
      </trkpt>
      <trkpt lat="43.30491" lon="-1.36721">
        <ele>75</ele>
        <time>2026-08-23T13:57:13.000Z</time>
      </trkpt>
      <trkpt lat="43.30502" lon="-1.36726">
        <ele>74</ele>
        <time>2026-08-23T13:57:15.000Z</time>
      </trkpt>
      <trkpt lat="43.30508" lon="-1.36729">
        <ele>74</ele>
        <time>2026-08-23T13:57:16.000Z</time>
      </trkpt>
      <trkpt lat="43.30514" lon="-1.36731">
        <ele>73</ele>
        <time>2026-08-23T13:57:17.000Z</time>
      </trkpt>
      <trkpt lat="43.30524" lon="-1.36732">
        <ele>72</ele>
        <time>2026-08-23T13:57:19.000Z</time>
      </trkpt>
      <trkpt lat="43.30535" lon="-1.36735">
        <ele>71</ele>
        <time>2026-08-23T13:57:21.000Z</time>
      </trkpt>
      <trkpt lat="43.30546" lon="-1.36738">
        <ele>70</ele>
        <time>2026-08-23T13:57:23.000Z</time>
      </trkpt>
      <trkpt lat="43.30555" lon="-1.36743">
        <ele>70</ele>
        <time>2026-08-23T13:57:24.000Z</time>
      </trkpt>
      <trkpt lat="43.30566" lon="-1.3675">
        <ele>69</ele>
        <time>2026-08-23T13:57:27.000Z</time>
      </trkpt>
      <trkpt lat="43.30574" lon="-1.36755">
        <ele>68</ele>
        <time>2026-08-23T13:57:28.000Z</time>
      </trkpt>
      <trkpt lat="43.30593" lon="-1.3677">
        <ele>67</ele>
        <time>2026-08-23T13:57:32.000Z</time>
      </trkpt>
      <trkpt lat="43.30608" lon="-1.36781">
        <ele>67</ele>
        <time>2026-08-23T13:57:35.000Z</time>
      </trkpt>
      <trkpt lat="43.30628" lon="-1.36795">
        <ele>67</ele>
        <time>2026-08-23T13:57:39.000Z</time>
      </trkpt>
      <trkpt lat="43.30642" lon="-1.36802">
        <ele>67</ele>
        <time>2026-08-23T13:57:42.000Z</time>
      </trkpt>
      <trkpt lat="43.30659" lon="-1.36808">
        <ele>66</ele>
        <time>2026-08-23T13:57:45.000Z</time>
      </trkpt>
      <trkpt lat="43.30679" lon="-1.36811">
        <ele>65</ele>
        <time>2026-08-23T13:57:48.000Z</time>
      </trkpt>
      <trkpt lat="43.30695" lon="-1.36815">
        <ele>64</ele>
        <time>2026-08-23T13:57:51.000Z</time>
      </trkpt>
      <trkpt lat="43.30714" lon="-1.36826">
        <ele>64</ele>
        <time>2026-08-23T13:57:55.000Z</time>
      </trkpt>
      <trkpt lat="43.30743" lon="-1.36841">
        <ele>62</ele>
        <time>2026-08-23T13:58:00.000Z</time>
      </trkpt>
      <trkpt lat="43.3077" lon="-1.36861">
        <ele>61</ele>
        <time>2026-08-23T13:58:06.000Z</time>
      </trkpt>
      <trkpt lat="43.30785" lon="-1.36875">
        <ele>61</ele>
        <time>2026-08-23T13:58:09.000Z</time>
      </trkpt>
      <trkpt lat="43.30797" lon="-1.36896">
        <ele>61</ele>
        <time>2026-08-23T13:58:13.000Z</time>
      </trkpt>
      <trkpt lat="43.30804" lon="-1.3691">
        <ele>61</ele>
        <time>2026-08-23T13:58:15.000Z</time>
      </trkpt>
      <trkpt lat="43.30806" lon="-1.36919">
        <ele>61</ele>
        <time>2026-08-23T13:58:16.000Z</time>
      </trkpt>
      <trkpt lat="43.30808" lon="-1.36928">
        <ele>61</ele>
        <time>2026-08-23T13:58:17.000Z</time>
      </trkpt>
      <trkpt lat="43.30807" lon="-1.36938">
        <ele>61</ele>
        <time>2026-08-23T13:58:19.000Z</time>
      </trkpt>
      <trkpt lat="43.30807" lon="-1.36948">
        <ele>61</ele>
        <time>2026-08-23T13:58:20.000Z</time>
      </trkpt>
      <trkpt lat="43.30804" lon="-1.36957">
        <ele>61</ele>
        <time>2026-08-23T13:58:21.000Z</time>
      </trkpt>
      <trkpt lat="43.30797" lon="-1.36972">
        <ele>62</ele>
        <time>2026-08-23T13:58:23.000Z</time>
      </trkpt>
      <trkpt lat="43.30793" lon="-1.36983">
        <ele>62</ele>
        <time>2026-08-23T13:58:25.000Z</time>
      </trkpt>
      <trkpt lat="43.30793" lon="-1.36991">
        <ele>62</ele>
        <time>2026-08-23T13:58:26.000Z</time>
      </trkpt>
      <trkpt lat="43.30793" lon="-1.36999">
        <ele>62</ele>
        <time>2026-08-23T13:58:27.000Z</time>
      </trkpt>
      <trkpt lat="43.30796" lon="-1.37011">
        <ele>62</ele>
        <time>2026-08-23T13:58:29.000Z</time>
      </trkpt>
      <trkpt lat="43.30802" lon="-1.3703">
        <ele>62</ele>
        <time>2026-08-23T13:58:31.000Z</time>
      </trkpt>
      <trkpt lat="43.30809" lon="-1.37047">
        <ele>61</ele>
        <time>2026-08-23T13:58:34.000Z</time>
      </trkpt>
      <trkpt lat="43.30814" lon="-1.37066">
        <ele>61</ele>
        <time>2026-08-23T13:58:37.000Z</time>
      </trkpt>
      <trkpt lat="43.30814" lon="-1.37066">
        <ele>61</ele>
        <time>2026-08-23T13:58:37.000Z</time>
      </trkpt>
      <trkpt lat="43.30821" lon="-1.37073">
        <ele>61</ele>
        <time>2026-08-23T13:58:38.000Z</time>
      </trkpt>
      <trkpt lat="43.30828" lon="-1.37091">
        <ele>61</ele>
        <time>2026-08-23T13:58:41.000Z</time>
      </trkpt>
      <trkpt lat="43.30835" lon="-1.37114">
        <ele>63</ele>
        <time>2026-08-23T13:58:44.000Z</time>
      </trkpt>
      <trkpt lat="43.30841" lon="-1.37134">
        <ele>64</ele>
        <time>2026-08-23T13:58:47.000Z</time>
      </trkpt>
      <trkpt lat="43.30852" lon="-1.37159">
        <ele>65</ele>
        <time>2026-08-23T13:58:51.000Z</time>
      </trkpt>
      <trkpt lat="43.30861" lon="-1.37172">
        <ele>64</ele>
        <time>2026-08-23T13:58:53.000Z</time>
      </trkpt>
      <trkpt lat="43.30864" lon="-1.37178">
        <ele>64</ele>
        <time>2026-08-23T13:58:54.000Z</time>
      </trkpt>
      <trkpt lat="43.30866" lon="-1.37181">
        <ele>64</ele>
        <time>2026-08-23T13:58:54.000Z</time>
      </trkpt>
      <trkpt lat="43.30877" lon="-1.37195">
        <ele>63</ele>
        <time>2026-08-23T13:58:57.000Z</time>
      </trkpt>
      <trkpt lat="43.30881" lon="-1.37202">
        <ele>63</ele>
        <time>2026-08-23T13:58:58.000Z</time>
      </trkpt>
      <trkpt lat="43.30886" lon="-1.37212">
        <ele>63</ele>
        <time>2026-08-23T13:59:00.000Z</time>
      </trkpt>
      <trkpt lat="43.30888" lon="-1.37222">
        <ele>63</ele>
        <time>2026-08-23T13:59:01.000Z</time>
      </trkpt>
      <trkpt lat="43.30891" lon="-1.37234">
        <ele>63</ele>
        <time>2026-08-23T13:59:03.000Z</time>
      </trkpt>
      <trkpt lat="43.30892" lon="-1.37245">
        <ele>64</ele>
        <time>2026-08-23T13:59:04.000Z</time>
      </trkpt>
      <trkpt lat="43.30893" lon="-1.37257">
        <ele>64</ele>
        <time>2026-08-23T13:59:06.000Z</time>
      </trkpt>
      <trkpt lat="43.30893" lon="-1.37269">
        <ele>64</ele>
        <time>2026-08-23T13:59:07.000Z</time>
      </trkpt>
      <trkpt lat="43.30892" lon="-1.37282">
        <ele>64</ele>
        <time>2026-08-23T13:59:09.000Z</time>
      </trkpt>
      <trkpt lat="43.30891" lon="-1.37287">
        <ele>64</ele>
        <time>2026-08-23T13:59:10.000Z</time>
      </trkpt>
      <trkpt lat="43.3089" lon="-1.37295">
        <ele>64</ele>
        <time>2026-08-23T13:59:11.000Z</time>
      </trkpt>
      <trkpt lat="43.30886" lon="-1.37307">
        <ele>65</ele>
        <time>2026-08-23T13:59:12.000Z</time>
      </trkpt>
      <trkpt lat="43.30883" lon="-1.37316">
        <ele>65</ele>
        <time>2026-08-23T13:59:14.000Z</time>
      </trkpt>
      <trkpt lat="43.3088" lon="-1.37325">
        <ele>66</ele>
        <time>2026-08-23T13:59:15.000Z</time>
      </trkpt>
      <trkpt lat="43.30877" lon="-1.37335">
        <ele>66</ele>
        <time>2026-08-23T13:59:16.000Z</time>
      </trkpt>
      <trkpt lat="43.30875" lon="-1.37349">
        <ele>66</ele>
        <time>2026-08-23T13:59:18.000Z</time>
      </trkpt>
      <trkpt lat="43.30874" lon="-1.37372">
        <ele>66</ele>
        <time>2026-08-23T13:59:21.000Z</time>
      </trkpt>
      <trkpt lat="43.30874" lon="-1.37377">
        <ele>66</ele>
        <time>2026-08-23T13:59:22.000Z</time>
      </trkpt>
      <trkpt lat="43.30874" lon="-1.37387">
        <ele>66</ele>
        <time>2026-08-23T13:59:23.000Z</time>
      </trkpt>
      <trkpt lat="43.30875" lon="-1.37402">
        <ele>66</ele>
        <time>2026-08-23T13:59:25.000Z</time>
      </trkpt>
      <trkpt lat="43.30877" lon="-1.37416">
        <ele>66</ele>
        <time>2026-08-23T13:59:27.000Z</time>
      </trkpt>
      <trkpt lat="43.30879" lon="-1.3743">
        <ele>65</ele>
        <time>2026-08-23T13:59:29.000Z</time>
      </trkpt>
      <trkpt lat="43.30884" lon="-1.37444">
        <ele>64</ele>
        <time>2026-08-23T13:59:31.000Z</time>
      </trkpt>
      <trkpt lat="43.3089" lon="-1.37462">
        <ele>63</ele>
        <time>2026-08-23T13:59:33.000Z</time>
      </trkpt>
      <trkpt lat="43.30896" lon="-1.37474">
        <ele>62</ele>
        <time>2026-08-23T13:59:35.000Z</time>
      </trkpt>
      <trkpt lat="43.30899" lon="-1.37483">
        <ele>61</ele>
        <time>2026-08-23T13:59:37.000Z</time>
      </trkpt>
      <trkpt lat="43.30899" lon="-1.37485">
        <ele>61</ele>
        <time>2026-08-23T13:59:37.000Z</time>
      </trkpt>
      <trkpt lat="43.30902" lon="-1.37495">
        <ele>60</ele>
        <time>2026-08-23T13:59:38.000Z</time>
      </trkpt>
      <trkpt lat="43.30903" lon="-1.37504">
        <ele>60</ele>
        <time>2026-08-23T13:59:39.000Z</time>
      </trkpt>
      <trkpt lat="43.30903" lon="-1.37516">
        <ele>59</ele>
        <time>2026-08-23T13:59:41.000Z</time>
      </trkpt>
      <trkpt lat="43.30904" lon="-1.37529">
        <ele>58</ele>
        <time>2026-08-23T13:59:43.000Z</time>
      </trkpt>
      <trkpt lat="43.30903" lon="-1.37547">
        <ele>57</ele>
        <time>2026-08-23T13:59:45.000Z</time>
      </trkpt>
      <trkpt lat="43.30903" lon="-1.37571">
        <ele>55</ele>
        <time>2026-08-23T13:59:48.000Z</time>
      </trkpt>
      <trkpt lat="43.30904" lon="-1.37583">
        <ele>55</ele>
        <time>2026-08-23T13:59:50.000Z</time>
      </trkpt>
      <trkpt lat="43.30908" lon="-1.37614">
        <ele>54</ele>
        <time>2026-08-23T13:59:54.000Z</time>
      </trkpt>
      <trkpt lat="43.30911" lon="-1.37631">
        <ele>54</ele>
        <time>2026-08-23T13:59:56.000Z</time>
      </trkpt>
      <trkpt lat="43.30912" lon="-1.37644">
        <ele>54</ele>
        <time>2026-08-23T13:59:58.000Z</time>
      </trkpt>
      <trkpt lat="43.30919" lon="-1.37673">
        <ele>54</ele>
        <time>2026-08-23T14:00:02.000Z</time>
      </trkpt>
      <trkpt lat="43.30923" lon="-1.37704">
        <ele>54</ele>
        <time>2026-08-23T14:00:06.000Z</time>
      </trkpt>
      <trkpt lat="43.30926" lon="-1.3773">
        <ele>54</ele>
        <time>2026-08-23T14:00:09.000Z</time>
      </trkpt>
      <trkpt lat="43.30927" lon="-1.37751">
        <ele>54</ele>
        <time>2026-08-23T14:00:12.000Z</time>
      </trkpt>
      <trkpt lat="43.30927" lon="-1.37772">
        <ele>54</ele>
        <time>2026-08-23T14:00:15.000Z</time>
      </trkpt>
      <trkpt lat="43.30927" lon="-1.37794">
        <ele>54</ele>
        <time>2026-08-23T14:00:17.000Z</time>
      </trkpt>
      <trkpt lat="43.30925" lon="-1.37827">
        <ele>53</ele>
        <time>2026-08-23T14:00:22.000Z</time>
      </trkpt>
      <trkpt lat="43.30923" lon="-1.37848">
        <ele>53</ele>
        <time>2026-08-23T14:00:24.000Z</time>
      </trkpt>
      <trkpt lat="43.3092" lon="-1.37864">
        <ele>53</ele>
        <time>2026-08-23T14:00:27.000Z</time>
      </trkpt>
      <trkpt lat="43.30914" lon="-1.37892">
        <ele>53</ele>
        <time>2026-08-23T14:00:30.000Z</time>
      </trkpt>
      <trkpt lat="43.30906" lon="-1.37923">
        <ele>53</ele>
        <time>2026-08-23T14:00:35.000Z</time>
      </trkpt>
      <trkpt lat="43.309" lon="-1.37943">
        <ele>54</ele>
        <time>2026-08-23T14:00:37.000Z</time>
      </trkpt>
      <trkpt lat="43.30893" lon="-1.37963">
        <ele>55</ele>
        <time>2026-08-23T14:00:40.000Z</time>
      </trkpt>
      <trkpt lat="43.30878" lon="-1.37998">
        <ele>57</ele>
        <time>2026-08-23T14:00:46.000Z</time>
      </trkpt>
      <trkpt lat="43.30872" lon="-1.38008">
        <ele>57</ele>
        <time>2026-08-23T14:00:47.000Z</time>
      </trkpt>
      <trkpt lat="43.30864" lon="-1.38021">
        <ele>58</ele>
        <time>2026-08-23T14:00:49.000Z</time>
      </trkpt>
      <trkpt lat="43.30853" lon="-1.38033">
        <ele>59</ele>
        <time>2026-08-23T14:00:52.000Z</time>
      </trkpt>
      <trkpt lat="43.30848" lon="-1.38035">
        <ele>59</ele>
        <time>2026-08-23T14:00:53.000Z</time>
      </trkpt>
      <trkpt lat="43.30828" lon="-1.38036">
        <ele>61</ele>
        <time>2026-08-23T14:00:56.000Z</time>
      </trkpt>
      <trkpt lat="43.30828" lon="-1.38036">
        <ele>61</ele>
        <time>2026-08-23T14:00:56.000Z</time>
      </trkpt>
      <trkpt lat="43.30827" lon="-1.38043">
        <ele>62</ele>
        <time>2026-08-23T14:00:57.000Z</time>
      </trkpt>
      <trkpt lat="43.30827" lon="-1.3805">
        <ele>61</ele>
        <time>2026-08-23T14:00:58.000Z</time>
      </trkpt>
      <trkpt lat="43.30827" lon="-1.38057">
        <ele>61</ele>
        <time>2026-08-23T14:00:59.000Z</time>
      </trkpt>
      <trkpt lat="43.30824" lon="-1.38073">
        <ele>62</ele>
        <time>2026-08-23T14:01:01.000Z</time>
      </trkpt>
      <trkpt lat="43.30821" lon="-1.38097">
        <ele>63</ele>
        <time>2026-08-23T14:01:04.000Z</time>
      </trkpt>
      <trkpt lat="43.30813" lon="-1.38162">
        <ele>66</ele>
        <time>2026-08-23T14:01:13.000Z</time>
      </trkpt>
      <trkpt lat="43.30809" lon="-1.38188">
        <ele>67</ele>
        <time>2026-08-23T14:01:16.000Z</time>
      </trkpt>
      <trkpt lat="43.30807" lon="-1.38221">
        <ele>67</ele>
        <time>2026-08-23T14:01:21.000Z</time>
      </trkpt>
      <trkpt lat="43.30805" lon="-1.38246">
        <ele>66</ele>
        <time>2026-08-23T14:01:24.000Z</time>
      </trkpt>
      <trkpt lat="43.30807" lon="-1.38273">
        <ele>64</ele>
        <time>2026-08-23T14:01:27.000Z</time>
      </trkpt>
      <trkpt lat="43.30806" lon="-1.38281">
        <ele>64</ele>
        <time>2026-08-23T14:01:28.000Z</time>
      </trkpt>
      <trkpt lat="43.30807" lon="-1.38289">
        <ele>64</ele>
        <time>2026-08-23T14:01:30.000Z</time>
      </trkpt>
      <trkpt lat="43.3081" lon="-1.38296">
        <ele>62</ele>
        <time>2026-08-23T14:01:31.000Z</time>
      </trkpt>
      <trkpt lat="43.30812" lon="-1.38302">
        <ele>62</ele>
        <time>2026-08-23T14:01:31.000Z</time>
      </trkpt>
      <trkpt lat="43.30815" lon="-1.38309">
        <ele>60</ele>
        <time>2026-08-23T14:01:32.000Z</time>
      </trkpt>
      <trkpt lat="43.30818" lon="-1.38317">
        <ele>60</ele>
        <time>2026-08-23T14:01:34.000Z</time>
      </trkpt>
      <trkpt lat="43.30819" lon="-1.38323">
        <ele>59</ele>
        <time>2026-08-23T14:01:34.000Z</time>
      </trkpt>
      <trkpt lat="43.30819" lon="-1.38331">
        <ele>59</ele>
        <time>2026-08-23T14:01:35.000Z</time>
      </trkpt>
      <trkpt lat="43.3081" lon="-1.3841">
        <ele>58</ele>
        <time>2026-08-23T14:01:46.000Z</time>
      </trkpt>
      <trkpt lat="43.30811" lon="-1.38422">
        <ele>58</ele>
        <time>2026-08-23T14:01:47.000Z</time>
      </trkpt>
      <trkpt lat="43.30811" lon="-1.38434">
        <ele>59</ele>
        <time>2026-08-23T14:01:49.000Z</time>
      </trkpt>
      <trkpt lat="43.30813" lon="-1.38457">
        <ele>59</ele>
        <time>2026-08-23T14:01:52.000Z</time>
      </trkpt>
      <trkpt lat="43.30814" lon="-1.38462">
        <ele>59</ele>
        <time>2026-08-23T14:01:53.000Z</time>
      </trkpt>
      <trkpt lat="43.30813" lon="-1.38468">
        <ele>60</ele>
        <time>2026-08-23T14:01:53.000Z</time>
      </trkpt>
      <trkpt lat="43.30808" lon="-1.38483">
        <ele>61</ele>
        <time>2026-08-23T14:01:56.000Z</time>
      </trkpt>
      <trkpt lat="43.30808" lon="-1.38486">
        <ele>61</ele>
        <time>2026-08-23T14:01:56.000Z</time>
      </trkpt>
      <trkpt lat="43.30809" lon="-1.38491">
        <ele>61</ele>
        <time>2026-08-23T14:01:57.000Z</time>
      </trkpt>
      <trkpt lat="43.30811" lon="-1.38499">
        <ele>61</ele>
        <time>2026-08-23T14:01:58.000Z</time>
      </trkpt>
      <trkpt lat="43.30814" lon="-1.38507">
        <ele>61</ele>
        <time>2026-08-23T14:01:59.000Z</time>
      </trkpt>
      <trkpt lat="43.30816" lon="-1.3852">
        <ele>61</ele>
        <time>2026-08-23T14:02:01.000Z</time>
      </trkpt>
      <trkpt lat="43.30818" lon="-1.3854">
        <ele>61</ele>
        <time>2026-08-23T14:02:03.000Z</time>
      </trkpt>
      <trkpt lat="43.3082" lon="-1.38583">
        <ele>62</ele>
        <time>2026-08-23T14:02:09.000Z</time>
      </trkpt>
      <trkpt lat="43.30822" lon="-1.38692">
        <ele>62</ele>
        <time>2026-08-23T14:02:23.000Z</time>
      </trkpt>
      <trkpt lat="43.30828" lon="-1.38766">
        <ele>63</ele>
        <time>2026-08-23T14:02:33.000Z</time>
      </trkpt>
      <trkpt lat="43.30831" lon="-1.3878">
        <ele>64</ele>
        <time>2026-08-23T14:02:34.000Z</time>
      </trkpt>
      <trkpt lat="43.30839" lon="-1.38806">
        <ele>66</ele>
        <time>2026-08-23T14:02:38.000Z</time>
      </trkpt>
      <trkpt lat="43.30844" lon="-1.38815">
        <ele>67</ele>
        <time>2026-08-23T14:02:40.000Z</time>
      </trkpt>
      <trkpt lat="43.30851" lon="-1.38822">
        <ele>66</ele>
        <time>2026-08-23T14:02:41.000Z</time>
      </trkpt>
      <trkpt lat="43.3086" lon="-1.38829">
        <ele>66</ele>
        <time>2026-08-23T14:02:43.000Z</time>
      </trkpt>
      <trkpt lat="43.30868" lon="-1.38831">
        <ele>64</ele>
        <time>2026-08-23T14:02:44.000Z</time>
      </trkpt>
      <trkpt lat="43.30882" lon="-1.38835">
        <ele>62</ele>
        <time>2026-08-23T14:02:47.000Z</time>
      </trkpt>
      <trkpt lat="43.30888" lon="-1.38837">
        <ele>62</ele>
        <time>2026-08-23T14:02:48.000Z</time>
      </trkpt>
      <trkpt lat="43.30892" lon="-1.38841">
        <ele>62</ele>
        <time>2026-08-23T14:02:49.000Z</time>
      </trkpt>
      <trkpt lat="43.30896" lon="-1.38845">
        <ele>62</ele>
        <time>2026-08-23T14:02:50.000Z</time>
      </trkpt>
      <trkpt lat="43.30899" lon="-1.38853">
        <ele>62</ele>
        <time>2026-08-23T14:02:51.000Z</time>
      </trkpt>
      <trkpt lat="43.30901" lon="-1.38862">
        <ele>64</ele>
        <time>2026-08-23T14:02:52.000Z</time>
      </trkpt>
      <trkpt lat="43.30904" lon="-1.38868">
        <ele>64</ele>
        <time>2026-08-23T14:02:53.000Z</time>
      </trkpt>
      <trkpt lat="43.30908" lon="-1.38875">
        <ele>65</ele>
        <time>2026-08-23T14:02:54.000Z</time>
      </trkpt>
      <trkpt lat="43.30911" lon="-1.38877">
        <ele>65</ele>
        <time>2026-08-23T14:02:55.000Z</time>
      </trkpt>
      <trkpt lat="43.30914" lon="-1.38878">
        <ele>65</ele>
        <time>2026-08-23T14:02:55.000Z</time>
      </trkpt>
      <trkpt lat="43.3092" lon="-1.38878">
        <ele>64</ele>
        <time>2026-08-23T14:02:56.000Z</time>
      </trkpt>
      <trkpt lat="43.30926" lon="-1.38876">
        <ele>63</ele>
        <time>2026-08-23T14:02:58.000Z</time>
      </trkpt>
      <trkpt lat="43.3094" lon="-1.38872">
        <ele>61</ele>
        <time>2026-08-23T14:03:00.000Z</time>
      </trkpt>
      <trkpt lat="43.30945" lon="-1.38872">
        <ele>60</ele>
        <time>2026-08-23T14:03:01.000Z</time>
      </trkpt>
      <trkpt lat="43.30949" lon="-1.38872">
        <ele>60</ele>
        <time>2026-08-23T14:03:02.000Z</time>
      </trkpt>
      <trkpt lat="43.30954" lon="-1.38875">
        <ele>60</ele>
        <time>2026-08-23T14:03:03.000Z</time>
      </trkpt>
      <trkpt lat="43.30957" lon="-1.38878">
        <ele>60</ele>
        <time>2026-08-23T14:03:03.000Z</time>
      </trkpt>
      <trkpt lat="43.3096" lon="-1.38887">
        <ele>61</ele>
        <time>2026-08-23T14:03:05.000Z</time>
      </trkpt>
      <trkpt lat="43.30964" lon="-1.38904">
        <ele>62</ele>
        <time>2026-08-23T14:03:07.000Z</time>
      </trkpt>
      <trkpt lat="43.30965" lon="-1.38907">
        <ele>63</ele>
        <time>2026-08-23T14:03:07.000Z</time>
      </trkpt>
      <trkpt lat="43.30965" lon="-1.38907">
        <ele>63</ele>
        <time>2026-08-23T14:03:07.000Z</time>
      </trkpt>
      <trkpt lat="43.30974" lon="-1.38916">
        <ele>62</ele>
        <time>2026-08-23T14:03:09.000Z</time>
      </trkpt>
      <trkpt lat="43.30984" lon="-1.38926">
        <ele>62</ele>
        <time>2026-08-23T14:03:12.000Z</time>
      </trkpt>
      <trkpt lat="43.30992" lon="-1.38936">
        <ele>62</ele>
        <time>2026-08-23T14:03:13.000Z</time>
      </trkpt>
      <trkpt lat="43.30999" lon="-1.38948">
        <ele>62</ele>
        <time>2026-08-23T14:03:15.000Z</time>
      </trkpt>
      <trkpt lat="43.31002" lon="-1.38956">
        <ele>63</ele>
        <time>2026-08-23T14:03:17.000Z</time>
      </trkpt>
      <trkpt lat="43.31007" lon="-1.38971">
        <ele>64</ele>
        <time>2026-08-23T14:03:19.000Z</time>
      </trkpt>
      <trkpt lat="43.31011" lon="-1.38986">
        <ele>65</ele>
        <time>2026-08-23T14:03:21.000Z</time>
      </trkpt>
      <trkpt lat="43.31014" lon="-1.38999">
        <ele>66</ele>
        <time>2026-08-23T14:03:23.000Z</time>
      </trkpt>
      <trkpt lat="43.31016" lon="-1.39016">
        <ele>67</ele>
        <time>2026-08-23T14:03:25.000Z</time>
      </trkpt>
      <trkpt lat="43.31017" lon="-1.39033">
        <ele>69</ele>
        <time>2026-08-23T14:03:27.000Z</time>
      </trkpt>
      <trkpt lat="43.31016" lon="-1.39051">
        <ele>71</ele>
        <time>2026-08-23T14:03:29.000Z</time>
      </trkpt>
      <trkpt lat="43.31016" lon="-1.39066">
        <ele>72</ele>
        <time>2026-08-23T14:03:31.000Z</time>
      </trkpt>
      <trkpt lat="43.31017" lon="-1.39083">
        <ele>74</ele>
        <time>2026-08-23T14:03:34.000Z</time>
      </trkpt>
      <trkpt lat="43.31015" lon="-1.39093">
        <ele>76</ele>
        <time>2026-08-23T14:03:35.000Z</time>
      </trkpt>
      <trkpt lat="43.31013" lon="-1.39099">
        <ele>78</ele>
        <time>2026-08-23T14:03:36.000Z</time>
      </trkpt>
      <trkpt lat="43.3101" lon="-1.39104">
        <ele>79</ele>
        <time>2026-08-23T14:03:37.000Z</time>
      </trkpt>
      <trkpt lat="43.31009" lon="-1.3911">
        <ele>81</ele>
        <time>2026-08-23T14:03:37.000Z</time>
      </trkpt>
      <trkpt lat="43.31008" lon="-1.39116">
        <ele>82</ele>
        <time>2026-08-23T14:03:38.000Z</time>
      </trkpt>
      <trkpt lat="43.31008" lon="-1.39122">
        <ele>83</ele>
        <time>2026-08-23T14:03:39.000Z</time>
      </trkpt>
      <trkpt lat="43.31009" lon="-1.39138">
        <ele>86</ele>
        <time>2026-08-23T14:03:41.000Z</time>
      </trkpt>
      <trkpt lat="43.31012" lon="-1.39169">
        <ele>92</ele>
        <time>2026-08-23T14:03:45.000Z</time>
      </trkpt>
      <trkpt lat="43.31017" lon="-1.39202">
        <ele>97</ele>
        <time>2026-08-23T14:03:49.000Z</time>
      </trkpt>
      <trkpt lat="43.31024" lon="-1.39227">
        <ele>99</ele>
        <time>2026-08-23T14:03:53.000Z</time>
      </trkpt>
      <trkpt lat="43.31032" lon="-1.39248">
        <ele>99</ele>
        <time>2026-08-23T14:03:56.000Z</time>
      </trkpt>
      <trkpt lat="43.31041" lon="-1.39274">
        <ele>100</ele>
        <time>2026-08-23T14:04:00.000Z</time>
      </trkpt>
      <trkpt lat="43.31052" lon="-1.393">
        <ele>101</ele>
        <time>2026-08-23T14:04:04.000Z</time>
      </trkpt>
      <trkpt lat="43.31064" lon="-1.39323">
        <ele>100</ele>
        <time>2026-08-23T14:04:07.000Z</time>
      </trkpt>
      <trkpt lat="43.31077" lon="-1.39346">
        <ele>99</ele>
        <time>2026-08-23T14:04:11.000Z</time>
      </trkpt>
      <trkpt lat="43.31082" lon="-1.39356">
        <ele>98</ele>
        <time>2026-08-23T14:04:13.000Z</time>
      </trkpt>
      <trkpt lat="43.31084" lon="-1.3936">
        <ele>98</ele>
        <time>2026-08-23T14:04:13.000Z</time>
      </trkpt>
      <trkpt lat="43.31085" lon="-1.39369">
        <ele>99</ele>
        <time>2026-08-23T14:04:14.000Z</time>
      </trkpt>
      <trkpt lat="43.31085" lon="-1.39369">
        <ele>99</ele>
        <time>2026-08-23T14:04:14.000Z</time>
      </trkpt>
      <trkpt lat="43.31088" lon="-1.39386">
        <ele>101</ele>
        <time>2026-08-23T14:04:17.000Z</time>
      </trkpt>
      <trkpt lat="43.31091" lon="-1.39401">
        <ele>102</ele>
        <time>2026-08-23T14:04:19.000Z</time>
      </trkpt>
      <trkpt lat="43.31096" lon="-1.39417">
        <ele>103</ele>
        <time>2026-08-23T14:04:21.000Z</time>
      </trkpt>
      <trkpt lat="43.31099" lon="-1.39425">
        <ele>102</ele>
        <time>2026-08-23T14:04:22.000Z</time>
      </trkpt>
      <trkpt lat="43.31106" lon="-1.39437">
        <ele>99</ele>
        <time>2026-08-23T14:04:24.000Z</time>
      </trkpt>
      <trkpt lat="43.31111" lon="-1.39446">
        <ele>97</ele>
        <time>2026-08-23T14:04:26.000Z</time>
      </trkpt>
      <trkpt lat="43.3112" lon="-1.39456">
        <ele>93</ele>
        <time>2026-08-23T14:04:28.000Z</time>
      </trkpt>
      <trkpt lat="43.31122" lon="-1.39458">
        <ele>92</ele>
        <time>2026-08-23T14:04:28.000Z</time>
      </trkpt>
      <trkpt lat="43.31124" lon="-1.39459">
        <ele>92</ele>
        <time>2026-08-23T14:04:28.000Z</time>
      </trkpt>
      <trkpt lat="43.31126" lon="-1.39463">
        <ele>91</ele>
        <time>2026-08-23T14:04:29.000Z</time>
      </trkpt>
      <trkpt lat="43.31127" lon="-1.39468">
        <ele>90</ele>
        <time>2026-08-23T14:04:30.000Z</time>
      </trkpt>
      <trkpt lat="43.31127" lon="-1.39473">
        <ele>90</ele>
        <time>2026-08-23T14:04:30.000Z</time>
      </trkpt>
      <trkpt lat="43.31125" lon="-1.39479">
        <ele>91</ele>
        <time>2026-08-23T14:04:31.000Z</time>
      </trkpt>
      <trkpt lat="43.31122" lon="-1.39492">
        <ele>92</ele>
        <time>2026-08-23T14:04:33.000Z</time>
      </trkpt>
      <trkpt lat="43.31116" lon="-1.3951">
        <ele>94</ele>
        <time>2026-08-23T14:04:36.000Z</time>
      </trkpt>
      <trkpt lat="43.31113" lon="-1.39528">
        <ele>95</ele>
        <time>2026-08-23T14:04:38.000Z</time>
      </trkpt>
      <trkpt lat="43.31108" lon="-1.39544">
        <ele>97</ele>
        <time>2026-08-23T14:04:40.000Z</time>
      </trkpt>
      <trkpt lat="43.31104" lon="-1.39567">
        <ele>97</ele>
        <time>2026-08-23T14:04:43.000Z</time>
      </trkpt>
      <trkpt lat="43.31103" lon="-1.39582">
        <ele>97</ele>
        <time>2026-08-23T14:04:45.000Z</time>
      </trkpt>
      <trkpt lat="43.31102" lon="-1.39597">
        <ele>98</ele>
        <time>2026-08-23T14:04:47.000Z</time>
      </trkpt>
      <trkpt lat="43.31102" lon="-1.39624">
        <ele>99</ele>
        <time>2026-08-23T14:04:51.000Z</time>
      </trkpt>
      <trkpt lat="43.31102" lon="-1.39639">
        <ele>99</ele>
        <time>2026-08-23T14:04:53.000Z</time>
      </trkpt>
      <trkpt lat="43.31103" lon="-1.39649">
        <ele>99</ele>
        <time>2026-08-23T14:04:54.000Z</time>
      </trkpt>
      <trkpt lat="43.31103" lon="-1.39665">
        <ele>99</ele>
        <time>2026-08-23T14:04:56.000Z</time>
      </trkpt>
      <trkpt lat="43.31105" lon="-1.39682">
        <ele>99</ele>
        <time>2026-08-23T14:04:58.000Z</time>
      </trkpt>
      <trkpt lat="43.31106" lon="-1.39692">
        <ele>98</ele>
        <time>2026-08-23T14:05:00.000Z</time>
      </trkpt>
      <trkpt lat="43.31108" lon="-1.39705">
        <ele>98</ele>
        <time>2026-08-23T14:05:01.000Z</time>
      </trkpt>
      <trkpt lat="43.31108" lon="-1.3973">
        <ele>98</ele>
        <time>2026-08-23T14:05:04.000Z</time>
      </trkpt>
      <trkpt lat="43.3111" lon="-1.39744">
        <ele>98</ele>
        <time>2026-08-23T14:05:06.000Z</time>
      </trkpt>
      <trkpt lat="43.31118" lon="-1.39788">
        <ele>94</ele>
        <time>2026-08-23T14:05:12.000Z</time>
      </trkpt>
      <trkpt lat="43.31124" lon="-1.39808">
        <ele>90</ele>
        <time>2026-08-23T14:05:15.000Z</time>
      </trkpt>
      <trkpt lat="43.31135" lon="-1.39829">
        <ele>83</ele>
        <time>2026-08-23T14:05:18.000Z</time>
      </trkpt>
      <trkpt lat="43.31143" lon="-1.39853">
        <ele>79</ele>
        <time>2026-08-23T14:05:22.000Z</time>
      </trkpt>
      <trkpt lat="43.31153" lon="-1.39881">
        <ele>74</ele>
        <time>2026-08-23T14:05:26.000Z</time>
      </trkpt>
      <trkpt lat="43.31156" lon="-1.39896">
        <ele>73</ele>
        <time>2026-08-23T14:05:28.000Z</time>
      </trkpt>
      <trkpt lat="43.3116" lon="-1.39918">
        <ele>72</ele>
        <time>2026-08-23T14:05:31.000Z</time>
      </trkpt>
      <trkpt lat="43.31164" lon="-1.3994">
        <ele>73</ele>
        <time>2026-08-23T14:05:34.000Z</time>
      </trkpt>
      <trkpt lat="43.31167" lon="-1.39958">
        <ele>75</ele>
        <time>2026-08-23T14:05:36.000Z</time>
      </trkpt>
      <trkpt lat="43.3117" lon="-1.39973">
        <ele>77</ele>
        <time>2026-08-23T14:05:38.000Z</time>
      </trkpt>
      <trkpt lat="43.31172" lon="-1.39979">
        <ele>77</ele>
        <time>2026-08-23T14:05:39.000Z</time>
      </trkpt>
      <trkpt lat="43.31177" lon="-1.39985">
        <ele>76</ele>
        <time>2026-08-23T14:05:40.000Z</time>
      </trkpt>
      <trkpt lat="43.31185" lon="-1.39993">
        <ele>75</ele>
        <time>2026-08-23T14:05:42.000Z</time>
      </trkpt>
      <trkpt lat="43.31193" lon="-1.4">
        <ele>74</ele>
        <time>2026-08-23T14:05:44.000Z</time>
      </trkpt>
      <trkpt lat="43.31201" lon="-1.4001">
        <ele>73</ele>
        <time>2026-08-23T14:05:46.000Z</time>
      </trkpt>
      <trkpt lat="43.31215" lon="-1.40027">
        <ele>70</ele>
        <time>2026-08-23T14:05:49.000Z</time>
      </trkpt>
      <trkpt lat="43.3123" lon="-1.40041">
        <ele>67</ele>
        <time>2026-08-23T14:05:52.000Z</time>
      </trkpt>
      <trkpt lat="43.31243" lon="-1.40048">
        <ele>63</ele>
        <time>2026-08-23T14:05:55.000Z</time>
      </trkpt>
      <trkpt lat="43.3125" lon="-1.40049">
        <ele>61</ele>
        <time>2026-08-23T14:05:56.000Z</time>
      </trkpt>
      <trkpt lat="43.31257" lon="-1.4005">
        <ele>60</ele>
        <time>2026-08-23T14:05:57.000Z</time>
      </trkpt>
      <trkpt lat="43.31265" lon="-1.40047">
        <ele>59</ele>
        <time>2026-08-23T14:05:59.000Z</time>
      </trkpt>
      <trkpt lat="43.31269" lon="-1.40043">
        <ele>59</ele>
        <time>2026-08-23T14:05:59.000Z</time>
      </trkpt>
      <trkpt lat="43.31273" lon="-1.40039">
        <ele>58</ele>
        <time>2026-08-23T14:06:00.000Z</time>
      </trkpt>
      <trkpt lat="43.31279" lon="-1.40042">
        <ele>58</ele>
        <time>2026-08-23T14:06:01.000Z</time>
      </trkpt>
      <trkpt lat="43.31281" lon="-1.40045">
        <ele>58</ele>
        <time>2026-08-23T14:06:02.000Z</time>
      </trkpt>
      <trkpt lat="43.31296" lon="-1.4007">
        <ele>59</ele>
        <time>2026-08-23T14:06:06.000Z</time>
      </trkpt>
      <trkpt lat="43.31306" lon="-1.40089">
        <ele>60</ele>
        <time>2026-08-23T14:06:09.000Z</time>
      </trkpt>
      <trkpt lat="43.31315" lon="-1.40106">
        <ele>61</ele>
        <time>2026-08-23T14:06:12.000Z</time>
      </trkpt>
      <trkpt lat="43.31318" lon="-1.40112">
        <ele>61</ele>
        <time>2026-08-23T14:06:13.000Z</time>
      </trkpt>
      <trkpt lat="43.31323" lon="-1.40116">
        <ele>61</ele>
        <time>2026-08-23T14:06:14.000Z</time>
      </trkpt>
      <trkpt lat="43.31323" lon="-1.40116">
        <ele>61</ele>
        <time>2026-08-23T14:06:14.000Z</time>
      </trkpt>
      <trkpt lat="43.31328" lon="-1.40119">
        <ele>61</ele>
        <time>2026-08-23T14:06:15.000Z</time>
      </trkpt>
      <trkpt lat="43.31334" lon="-1.40121">
        <ele>61</ele>
        <time>2026-08-23T14:06:16.000Z</time>
      </trkpt>
      <trkpt lat="43.31337" lon="-1.40123">
        <ele>62</ele>
        <time>2026-08-23T14:06:17.000Z</time>
      </trkpt>
      <trkpt lat="43.31342" lon="-1.40115">
        <ele>63</ele>
        <time>2026-08-23T14:06:18.000Z</time>
      </trkpt>
      <trkpt lat="43.31346" lon="-1.40105">
        <ele>62</ele>
        <time>2026-08-23T14:06:19.000Z</time>
      </trkpt>
      <trkpt lat="43.31347" lon="-1.40097">
        <ele>61</ele>
        <time>2026-08-23T14:06:20.000Z</time>
      </trkpt>
      <trkpt lat="43.31348" lon="-1.40087">
        <ele>60</ele>
        <time>2026-08-23T14:06:22.000Z</time>
      </trkpt>
      <trkpt lat="43.31348" lon="-1.40079">
        <ele>59</ele>
        <time>2026-08-23T14:06:23.000Z</time>
      </trkpt>
      <trkpt lat="43.31348" lon="-1.4007">
        <ele>58</ele>
        <time>2026-08-23T14:06:24.000Z</time>
      </trkpt>
      <trkpt lat="43.31348" lon="-1.40064">
        <ele>57</ele>
        <time>2026-08-23T14:06:25.000Z</time>
      </trkpt>
      <trkpt lat="43.31349" lon="-1.40059">
        <ele>57</ele>
        <time>2026-08-23T14:06:25.000Z</time>
      </trkpt>
      <trkpt lat="43.31351" lon="-1.40051">
        <ele>56</ele>
        <time>2026-08-23T14:06:26.000Z</time>
      </trkpt>
      <trkpt lat="43.31354" lon="-1.40046">
        <ele>56</ele>
        <time>2026-08-23T14:06:27.000Z</time>
      </trkpt>
      <trkpt lat="43.31358" lon="-1.40039">
        <ele>55</ele>
        <time>2026-08-23T14:06:28.000Z</time>
      </trkpt>
      <trkpt lat="43.31362" lon="-1.40035">
        <ele>55</ele>
        <time>2026-08-23T14:06:29.000Z</time>
      </trkpt>
      <trkpt lat="43.31366" lon="-1.40032">
        <ele>55</ele>
        <time>2026-08-23T14:06:30.000Z</time>
      </trkpt>
      <trkpt lat="43.31371" lon="-1.40029">
        <ele>55</ele>
        <time>2026-08-23T14:06:31.000Z</time>
      </trkpt>
      <trkpt lat="43.31378" lon="-1.40028">
        <ele>56</ele>
        <time>2026-08-23T14:06:32.000Z</time>
      </trkpt>
      <trkpt lat="43.31384" lon="-1.40028">
        <ele>56</ele>
        <time>2026-08-23T14:06:33.000Z</time>
      </trkpt>
      <trkpt lat="43.31388" lon="-1.4003">
        <ele>56</ele>
        <time>2026-08-23T14:06:34.000Z</time>
      </trkpt>
      <trkpt lat="43.31393" lon="-1.40034">
        <ele>57</ele>
        <time>2026-08-23T14:06:35.000Z</time>
      </trkpt>
      <trkpt lat="43.31402" lon="-1.4004">
        <ele>59</ele>
        <time>2026-08-23T14:06:37.000Z</time>
      </trkpt>
      <trkpt lat="43.31409" lon="-1.40045">
        <ele>60</ele>
        <time>2026-08-23T14:06:38.000Z</time>
      </trkpt>
      <trkpt lat="43.31418" lon="-1.40055">
        <ele>62</ele>
        <time>2026-08-23T14:06:40.000Z</time>
      </trkpt>
      <trkpt lat="43.31422" lon="-1.40059">
        <ele>62</ele>
        <time>2026-08-23T14:06:41.000Z</time>
      </trkpt>
      <trkpt lat="43.31426" lon="-1.40061">
        <ele>62</ele>
        <time>2026-08-23T14:06:42.000Z</time>
      </trkpt>
      <trkpt lat="43.31432" lon="-1.40062">
        <ele>62</ele>
        <time>2026-08-23T14:06:43.000Z</time>
      </trkpt>
      <trkpt lat="43.31436" lon="-1.40065">
        <ele>62</ele>
        <time>2026-08-23T14:06:44.000Z</time>
      </trkpt>
      <trkpt lat="43.31438" lon="-1.40068">
        <ele>62</ele>
        <time>2026-08-23T14:06:45.000Z</time>
      </trkpt>
      <trkpt lat="43.31441" lon="-1.40073">
        <ele>62</ele>
        <time>2026-08-23T14:06:45.000Z</time>
      </trkpt>
      <trkpt lat="43.31444" lon="-1.40078">
        <ele>61</ele>
        <time>2026-08-23T14:06:46.000Z</time>
      </trkpt>
      <trkpt lat="43.31447" lon="-1.40081">
        <ele>61</ele>
        <time>2026-08-23T14:06:47.000Z</time>
      </trkpt>
      <trkpt lat="43.31452" lon="-1.40084">
        <ele>60</ele>
        <time>2026-08-23T14:06:48.000Z</time>
      </trkpt>
      <trkpt lat="43.31458" lon="-1.40087">
        <ele>60</ele>
        <time>2026-08-23T14:06:49.000Z</time>
      </trkpt>
      <trkpt lat="43.31461" lon="-1.40089">
        <ele>60</ele>
        <time>2026-08-23T14:06:50.000Z</time>
      </trkpt>
      <trkpt lat="43.31463" lon="-1.40091">
        <ele>61</ele>
        <time>2026-08-23T14:06:50.000Z</time>
      </trkpt>
      <trkpt lat="43.31466" lon="-1.40097">
        <ele>62</ele>
        <time>2026-08-23T14:06:51.000Z</time>
      </trkpt>
      <trkpt lat="43.31469" lon="-1.40105">
        <ele>63</ele>
        <time>2026-08-23T14:06:52.000Z</time>
      </trkpt>
      <trkpt lat="43.31475" lon="-1.40117">
        <ele>65</ele>
        <time>2026-08-23T14:06:54.000Z</time>
      </trkpt>
      <trkpt lat="43.31512" lon="-1.40176">
        <ele>68</ele>
        <time>2026-08-23T14:07:04.000Z</time>
      </trkpt>
      <trkpt lat="43.3153" lon="-1.40204">
        <ele>74</ele>
        <time>2026-08-23T14:07:09.000Z</time>
      </trkpt>
      <trkpt lat="43.31547" lon="-1.40227">
        <ele>73</ele>
        <time>2026-08-23T14:07:13.000Z</time>
      </trkpt>
      <trkpt lat="43.3156" lon="-1.40245">
        <ele>68</ele>
        <time>2026-08-23T14:07:16.000Z</time>
      </trkpt>
      <trkpt lat="43.31568" lon="-1.40254">
        <ele>66</ele>
        <time>2026-08-23T14:07:18.000Z</time>
      </trkpt>
      <trkpt lat="43.31586" lon="-1.40273">
        <ele>63</ele>
        <time>2026-08-23T14:07:22.000Z</time>
      </trkpt>
      <trkpt lat="43.31594" lon="-1.40281">
        <ele>66</ele>
        <time>2026-08-23T14:07:24.000Z</time>
      </trkpt>
      <trkpt lat="43.31597" lon="-1.40287">
        <ele>67</ele>
        <time>2026-08-23T14:07:25.000Z</time>
      </trkpt>
      <trkpt lat="43.31607" lon="-1.403">
        <ele>69</ele>
        <time>2026-08-23T14:07:27.000Z</time>
      </trkpt>
      <trkpt lat="43.3165" lon="-1.40342">
        <ele>67</ele>
        <time>2026-08-23T14:07:37.000Z</time>
      </trkpt>
      <trkpt lat="43.31657" lon="-1.4035">
        <ele>68</ele>
        <time>2026-08-23T14:07:38.000Z</time>
      </trkpt>
      <trkpt lat="43.31673" lon="-1.40365">
        <ele>71</ele>
        <time>2026-08-23T14:07:42.000Z</time>
      </trkpt>
      <trkpt lat="43.31682" lon="-1.40373">
        <ele>73</ele>
        <time>2026-08-23T14:07:44.000Z</time>
      </trkpt>
      <trkpt lat="43.31688" lon="-1.40379">
        <ele>75</ele>
        <time>2026-08-23T14:07:45.000Z</time>
      </trkpt>
      <trkpt lat="43.31695" lon="-1.40382">
        <ele>75</ele>
        <time>2026-08-23T14:07:46.000Z</time>
      </trkpt>
      <trkpt lat="43.31701" lon="-1.40384">
        <ele>75</ele>
        <time>2026-08-23T14:07:48.000Z</time>
      </trkpt>
      <trkpt lat="43.31723" lon="-1.40386">
        <ele>73</ele>
        <time>2026-08-23T14:07:51.000Z</time>
      </trkpt>
      <trkpt lat="43.31736" lon="-1.40388">
        <ele>72</ele>
        <time>2026-08-23T14:07:54.000Z</time>
      </trkpt>
      <trkpt lat="43.31747" lon="-1.4039">
        <ele>71</ele>
        <time>2026-08-23T14:07:56.000Z</time>
      </trkpt>
      <trkpt lat="43.31751" lon="-1.40391">
        <ele>71</ele>
        <time>2026-08-23T14:07:57.000Z</time>
      </trkpt>
      <trkpt lat="43.31755" lon="-1.40393">
        <ele>71</ele>
        <time>2026-08-23T14:07:57.000Z</time>
      </trkpt>
      <trkpt lat="43.3176" lon="-1.40398">
        <ele>71</ele>
        <time>2026-08-23T14:07:58.000Z</time>
      </trkpt>
      <trkpt lat="43.3177" lon="-1.40407">
        <ele>71</ele>
        <time>2026-08-23T14:08:01.000Z</time>
      </trkpt>
      <trkpt lat="43.31775" lon="-1.4041">
        <ele>70</ele>
        <time>2026-08-23T14:08:01.000Z</time>
      </trkpt>
      <trkpt lat="43.31781" lon="-1.40412">
        <ele>70</ele>
        <time>2026-08-23T14:08:03.000Z</time>
      </trkpt>
      <trkpt lat="43.31791" lon="-1.40412">
        <ele>68</ele>
        <time>2026-08-23T14:08:04.000Z</time>
      </trkpt>
      <trkpt lat="43.31804" lon="-1.40413">
        <ele>65</ele>
        <time>2026-08-23T14:08:07.000Z</time>
      </trkpt>
      <trkpt lat="43.31816" lon="-1.40414">
        <ele>63</ele>
        <time>2026-08-23T14:08:09.000Z</time>
      </trkpt>
      <trkpt lat="43.31834" lon="-1.40418">
        <ele>61</ele>
        <time>2026-08-23T14:08:12.000Z</time>
      </trkpt>
      <trkpt lat="43.31859" lon="-1.40424">
        <ele>61</ele>
        <time>2026-08-23T14:08:17.000Z</time>
      </trkpt>
      <trkpt lat="43.31886" lon="-1.40428">
        <ele>60</ele>
        <time>2026-08-23T14:08:21.000Z</time>
      </trkpt>
      <trkpt lat="43.319" lon="-1.4043">
        <ele>60</ele>
        <time>2026-08-23T14:08:24.000Z</time>
      </trkpt>
      <trkpt lat="43.31923" lon="-1.40432">
        <ele>58</ele>
        <time>2026-08-23T14:08:28.000Z</time>
      </trkpt>
      <trkpt lat="43.3194" lon="-1.40433">
        <ele>57</ele>
        <time>2026-08-23T14:08:31.000Z</time>
      </trkpt>
      <trkpt lat="43.31959" lon="-1.40436">
        <ele>56</ele>
        <time>2026-08-23T14:08:34.000Z</time>
      </trkpt>
      <trkpt lat="43.31979" lon="-1.40441">
        <ele>56</ele>
        <time>2026-08-23T14:08:38.000Z</time>
      </trkpt>
      <trkpt lat="43.31993" lon="-1.40446">
        <ele>57</ele>
        <time>2026-08-23T14:08:41.000Z</time>
      </trkpt>
      <trkpt lat="43.32008" lon="-1.40452">
        <ele>57</ele>
        <time>2026-08-23T14:08:43.000Z</time>
      </trkpt>
      <trkpt lat="43.32024" lon="-1.40459">
        <ele>57</ele>
        <time>2026-08-23T14:08:46.000Z</time>
      </trkpt>
      <trkpt lat="43.32037" lon="-1.40462">
        <ele>56</ele>
        <time>2026-08-23T14:08:49.000Z</time>
      </trkpt>
      <trkpt lat="43.32049" lon="-1.40465">
        <ele>55</ele>
        <time>2026-08-23T14:08:51.000Z</time>
      </trkpt>
      <trkpt lat="43.32068" lon="-1.40468">
        <ele>52</ele>
        <time>2026-08-23T14:08:54.000Z</time>
      </trkpt>
      <trkpt lat="43.32071" lon="-1.40469">
        <ele>52</ele>
        <time>2026-08-23T14:08:55.000Z</time>
      </trkpt>
      <trkpt lat="43.32082" lon="-1.40471">
        <ele>51</ele>
        <time>2026-08-23T14:08:57.000Z</time>
      </trkpt>
      <trkpt lat="43.3209" lon="-1.40472">
        <ele>50</ele>
        <time>2026-08-23T14:08:58.000Z</time>
      </trkpt>
      <trkpt lat="43.32094" lon="-1.40472">
        <ele>50</ele>
        <time>2026-08-23T14:08:59.000Z</time>
      </trkpt>
      <trkpt lat="43.32097" lon="-1.40472">
        <ele>50</ele>
        <time>2026-08-23T14:09:00.000Z</time>
      </trkpt>
      <trkpt lat="43.32104" lon="-1.40469">
        <ele>48</ele>
        <time>2026-08-23T14:09:01.000Z</time>
      </trkpt>
      <trkpt lat="43.32114" lon="-1.40465">
        <ele>47</ele>
        <time>2026-08-23T14:09:03.000Z</time>
      </trkpt>
      <trkpt lat="43.32119" lon="-1.40462">
        <ele>46</ele>
        <time>2026-08-23T14:09:04.000Z</time>
      </trkpt>
      <trkpt lat="43.32129" lon="-1.40461">
        <ele>46</ele>
        <time>2026-08-23T14:09:05.000Z</time>
      </trkpt>
      <trkpt lat="43.32151" lon="-1.40459">
        <ele>44</ele>
        <time>2026-08-23T14:09:09.000Z</time>
      </trkpt>
      <trkpt lat="43.32178" lon="-1.40454">
        <ele>43</ele>
        <time>2026-08-23T14:09:14.000Z</time>
      </trkpt>
      <trkpt lat="43.32199" lon="-1.40448">
        <ele>43</ele>
        <time>2026-08-23T14:09:18.000Z</time>
      </trkpt>
      <trkpt lat="43.32216" lon="-1.40442">
        <ele>43</ele>
        <time>2026-08-23T14:09:21.000Z</time>
      </trkpt>
      <trkpt lat="43.32221" lon="-1.40438">
        <ele>43</ele>
        <time>2026-08-23T14:09:22.000Z</time>
      </trkpt>
      <trkpt lat="43.32227" lon="-1.40433">
        <ele>42</ele>
        <time>2026-08-23T14:09:23.000Z</time>
      </trkpt>
      <trkpt lat="43.32231" lon="-1.40427">
        <ele>42</ele>
        <time>2026-08-23T14:09:24.000Z</time>
      </trkpt>
      <trkpt lat="43.32239" lon="-1.40414">
        <ele>42</ele>
        <time>2026-08-23T14:09:27.000Z</time>
      </trkpt>
      <trkpt lat="43.32251" lon="-1.40401">
        <ele>41</ele>
        <time>2026-08-23T14:09:29.000Z</time>
      </trkpt>
      <trkpt lat="43.32272" lon="-1.40383">
        <ele>41</ele>
        <time>2026-08-23T14:09:34.000Z</time>
      </trkpt>
      <trkpt lat="43.32281" lon="-1.40376">
        <ele>41</ele>
        <time>2026-08-23T14:09:36.000Z</time>
      </trkpt>
      <trkpt lat="43.32294" lon="-1.40368">
        <ele>41</ele>
        <time>2026-08-23T14:09:38.000Z</time>
      </trkpt>
      <trkpt lat="43.323" lon="-1.40366">
        <ele>41</ele>
        <time>2026-08-23T14:09:39.000Z</time>
      </trkpt>
      <trkpt lat="43.32306" lon="-1.40364">
        <ele>41</ele>
        <time>2026-08-23T14:09:40.000Z</time>
      </trkpt>
      <trkpt lat="43.32312" lon="-1.40362">
        <ele>41</ele>
        <time>2026-08-23T14:09:41.000Z</time>
      </trkpt>
      <trkpt lat="43.32319" lon="-1.40361">
        <ele>41</ele>
        <time>2026-08-23T14:09:43.000Z</time>
      </trkpt>
      <trkpt lat="43.32328" lon="-1.40361">
        <ele>42</ele>
        <time>2026-08-23T14:09:44.000Z</time>
      </trkpt>
      <trkpt lat="43.32337" lon="-1.40361">
        <ele>42</ele>
        <time>2026-08-23T14:09:46.000Z</time>
      </trkpt>
      <trkpt lat="43.32345" lon="-1.40362">
        <ele>42</ele>
        <time>2026-08-23T14:09:47.000Z</time>
      </trkpt>
      <trkpt lat="43.32373" lon="-1.40364">
        <ele>44</ele>
        <time>2026-08-23T14:09:52.000Z</time>
      </trkpt>
      <trkpt lat="43.32385" lon="-1.40364">
        <ele>45</ele>
        <time>2026-08-23T14:09:54.000Z</time>
      </trkpt>
      <trkpt lat="43.32394" lon="-1.40364">
        <ele>45</ele>
        <time>2026-08-23T14:09:56.000Z</time>
      </trkpt>
      <trkpt lat="43.32405" lon="-1.40363">
        <ele>46</ele>
        <time>2026-08-23T14:09:58.000Z</time>
      </trkpt>
      <trkpt lat="43.32408" lon="-1.40362">
        <ele>46</ele>
        <time>2026-08-23T14:09:59.000Z</time>
      </trkpt>
      <trkpt lat="43.3242" lon="-1.40353">
        <ele>47</ele>
        <time>2026-08-23T14:10:01.000Z</time>
      </trkpt>
      <trkpt lat="43.32443" lon="-1.40334">
        <ele>46</ele>
        <time>2026-08-23T14:10:06.000Z</time>
      </trkpt>
      <trkpt lat="43.32462" lon="-1.40319">
        <ele>46</ele>
        <time>2026-08-23T14:10:10.000Z</time>
      </trkpt>
      <trkpt lat="43.32462" lon="-1.40319">
        <ele>46</ele>
        <time>2026-08-23T14:10:10.000Z</time>
      </trkpt>
      <trkpt lat="43.32467" lon="-1.40342">
        <ele>46</ele>
        <time>2026-08-23T14:10:13.000Z</time>
      </trkpt>
      <trkpt lat="43.32471" lon="-1.40352">
        <ele>47</ele>
        <time>2026-08-23T14:10:14.000Z</time>
      </trkpt>
      <trkpt lat="43.3248" lon="-1.40374">
        <ele>48</ele>
        <time>2026-08-23T14:10:18.000Z</time>
      </trkpt>
      <trkpt lat="43.3248" lon="-1.40374">
        <ele>48</ele>
        <time>2026-08-23T14:10:18.000Z</time>
      </trkpt>
      <trkpt lat="43.32486" lon="-1.40378">
        <ele>49</ele>
        <time>2026-08-23T14:10:19.000Z</time>
      </trkpt>
      <trkpt lat="43.32492" lon="-1.40382">
        <ele>49</ele>
        <time>2026-08-23T14:10:20.000Z</time>
      </trkpt>
      <trkpt lat="43.32498" lon="-1.40389">
        <ele>50</ele>
        <time>2026-08-23T14:10:21.000Z</time>
      </trkpt>
      <trkpt lat="43.32503" lon="-1.40395">
        <ele>51</ele>
        <time>2026-08-23T14:10:22.000Z</time>
      </trkpt>
      <trkpt lat="43.3251" lon="-1.4041">
        <ele>52</ele>
        <time>2026-08-23T14:10:25.000Z</time>
      </trkpt>
      <trkpt lat="43.32518" lon="-1.40434">
        <ele>54</ele>
        <time>2026-08-23T14:10:28.000Z</time>
      </trkpt>
      <trkpt lat="43.32521" lon="-1.40455">
        <ele>55</ele>
        <time>2026-08-23T14:10:31.000Z</time>
      </trkpt>
      <trkpt lat="43.32522" lon="-1.40459">
        <ele>56</ele>
        <time>2026-08-23T14:10:32.000Z</time>
      </trkpt>
      <trkpt lat="43.32523" lon="-1.40462">
        <ele>56</ele>
        <time>2026-08-23T14:10:32.000Z</time>
      </trkpt>
      <trkpt lat="43.32525" lon="-1.40466">
        <ele>56</ele>
        <time>2026-08-23T14:10:33.000Z</time>
      </trkpt>
      <trkpt lat="43.32532" lon="-1.40472">
        <ele>57</ele>
        <time>2026-08-23T14:10:34.000Z</time>
      </trkpt>
      <trkpt lat="43.32544" lon="-1.40483">
        <ele>58</ele>
        <time>2026-08-23T14:10:37.000Z</time>
      </trkpt>
      <trkpt lat="43.32576" lon="-1.40506">
        <ele>61</ele>
        <time>2026-08-23T14:10:43.000Z</time>
      </trkpt>
      <trkpt lat="43.32589" lon="-1.40515">
        <ele>61</ele>
        <time>2026-08-23T14:10:46.000Z</time>
      </trkpt>
      <trkpt lat="43.32597" lon="-1.40518">
        <ele>61</ele>
        <time>2026-08-23T14:10:47.000Z</time>
      </trkpt>
      <trkpt lat="43.32604" lon="-1.4052">
        <ele>61</ele>
        <time>2026-08-23T14:10:48.000Z</time>
      </trkpt>
      <trkpt lat="43.32607" lon="-1.40519">
        <ele>61</ele>
        <time>2026-08-23T14:10:49.000Z</time>
      </trkpt>
      <trkpt lat="43.32609" lon="-1.40519">
        <ele>60</ele>
        <time>2026-08-23T14:10:49.000Z</time>
      </trkpt>
      <trkpt lat="43.32611" lon="-1.40518">
        <ele>60</ele>
        <time>2026-08-23T14:10:50.000Z</time>
      </trkpt>
      <trkpt lat="43.32613" lon="-1.40517">
        <ele>60</ele>
        <time>2026-08-23T14:10:50.000Z</time>
      </trkpt>
      <trkpt lat="43.32614" lon="-1.40516">
        <ele>60</ele>
        <time>2026-08-23T14:10:50.000Z</time>
      </trkpt>
      <trkpt lat="43.32616" lon="-1.40514">
        <ele>59</ele>
        <time>2026-08-23T14:10:51.000Z</time>
      </trkpt>
      <trkpt lat="43.32618" lon="-1.40511">
        <ele>59</ele>
        <time>2026-08-23T14:10:51.000Z</time>
      </trkpt>
      <trkpt lat="43.32621" lon="-1.40508">
        <ele>59</ele>
        <time>2026-08-23T14:10:52.000Z</time>
      </trkpt>
      <trkpt lat="43.32629" lon="-1.4049">
        <ele>57</ele>
        <time>2026-08-23T14:10:55.000Z</time>
      </trkpt>
      <trkpt lat="43.32645" lon="-1.40463">
        <ele>55</ele>
        <time>2026-08-23T14:10:59.000Z</time>
      </trkpt>
      <trkpt lat="43.3265" lon="-1.40456">
        <ele>55</ele>
        <time>2026-08-23T14:11:00.000Z</time>
      </trkpt>
      <trkpt lat="43.32656" lon="-1.40452">
        <ele>55</ele>
        <time>2026-08-23T14:11:02.000Z</time>
      </trkpt>
      <trkpt lat="43.32665" lon="-1.4045">
        <ele>54</ele>
        <time>2026-08-23T14:11:03.000Z</time>
      </trkpt>
      <trkpt lat="43.32688" lon="-1.40443">
        <ele>54</ele>
        <time>2026-08-23T14:11:07.000Z</time>
      </trkpt>
      <trkpt lat="43.32698" lon="-1.4044">
        <ele>54</ele>
        <time>2026-08-23T14:11:09.000Z</time>
      </trkpt>
      <trkpt lat="43.32714" lon="-1.40436">
        <ele>54</ele>
        <time>2026-08-23T14:11:12.000Z</time>
      </trkpt>
      <trkpt lat="43.32732" lon="-1.40431">
        <ele>54</ele>
        <time>2026-08-23T14:11:15.000Z</time>
      </trkpt>
      <trkpt lat="43.32742" lon="-1.40429">
        <ele>53</ele>
        <time>2026-08-23T14:11:17.000Z</time>
      </trkpt>
      <trkpt lat="43.32749" lon="-1.4043">
        <ele>53</ele>
        <time>2026-08-23T14:11:18.000Z</time>
      </trkpt>
      <trkpt lat="43.32755" lon="-1.40431">
        <ele>54</ele>
        <time>2026-08-23T14:11:20.000Z</time>
      </trkpt>
      <trkpt lat="43.32764" lon="-1.40435">
        <ele>55</ele>
        <time>2026-08-23T14:11:21.000Z</time>
      </trkpt>
      <trkpt lat="43.32785" lon="-1.40445">
        <ele>57</ele>
        <time>2026-08-23T14:11:25.000Z</time>
      </trkpt>
      <trkpt lat="43.32792" lon="-1.40448">
        <ele>58</ele>
        <time>2026-08-23T14:11:26.000Z</time>
      </trkpt>
      <trkpt lat="43.32798" lon="-1.40448">
        <ele>58</ele>
        <time>2026-08-23T14:11:28.000Z</time>
      </trkpt>
      <trkpt lat="43.3281" lon="-1.40448">
        <ele>59</ele>
        <time>2026-08-23T14:11:30.000Z</time>
      </trkpt>
      <trkpt lat="43.32818" lon="-1.40446">
        <ele>60</ele>
        <time>2026-08-23T14:11:31.000Z</time>
      </trkpt>
      <trkpt lat="43.32826" lon="-1.40444">
        <ele>61</ele>
        <time>2026-08-23T14:11:33.000Z</time>
      </trkpt>
      <trkpt lat="43.32828" lon="-1.40444">
        <ele>61</ele>
        <time>2026-08-23T14:11:33.000Z</time>
      </trkpt>
      <trkpt lat="43.32847" lon="-1.40438">
        <ele>63</ele>
        <time>2026-08-23T14:11:36.000Z</time>
      </trkpt>
      <trkpt lat="43.32863" lon="-1.40435">
        <ele>65</ele>
        <time>2026-08-23T14:11:39.000Z</time>
      </trkpt>
      <trkpt lat="43.32863" lon="-1.40435">
        <ele>65</ele>
        <time>2026-08-23T14:11:39.000Z</time>
      </trkpt>
      <trkpt lat="43.32866" lon="-1.40435">
        <ele>65</ele>
        <time>2026-08-23T14:11:40.000Z</time>
      </trkpt>
      <trkpt lat="43.32868" lon="-1.40436">
        <ele>66</ele>
        <time>2026-08-23T14:11:40.000Z</time>
      </trkpt>
      <trkpt lat="43.32871" lon="-1.40438">
        <ele>66</ele>
        <time>2026-08-23T14:11:41.000Z</time>
      </trkpt>
      <trkpt lat="43.32876" lon="-1.40444">
        <ele>67</ele>
        <time>2026-08-23T14:11:42.000Z</time>
      </trkpt>
      <trkpt lat="43.32887" lon="-1.40461">
        <ele>68</ele>
        <time>2026-08-23T14:11:45.000Z</time>
      </trkpt>
      <trkpt lat="43.32898" lon="-1.40483">
        <ele>70</ele>
        <time>2026-08-23T14:11:48.000Z</time>
      </trkpt>
      <trkpt lat="43.32908" lon="-1.40497">
        <ele>72</ele>
        <time>2026-08-23T14:11:51.000Z</time>
      </trkpt>
      <trkpt lat="43.32916" lon="-1.40511">
        <ele>73</ele>
        <time>2026-08-23T14:11:53.000Z</time>
      </trkpt>
      <trkpt lat="43.32918" lon="-1.40514">
        <ele>73</ele>
        <time>2026-08-23T14:11:54.000Z</time>
      </trkpt>
      <trkpt lat="43.32923" lon="-1.4052">
        <ele>73</ele>
        <time>2026-08-23T14:11:55.000Z</time>
      </trkpt>
      <trkpt lat="43.3294" lon="-1.40538">
        <ele>72</ele>
        <time>2026-08-23T14:11:59.000Z</time>
      </trkpt>
      <trkpt lat="43.32949" lon="-1.4055">
        <ele>71</ele>
        <time>2026-08-23T14:12:01.000Z</time>
      </trkpt>
      <trkpt lat="43.32963" lon="-1.40569">
        <ele>69</ele>
        <time>2026-08-23T14:12:04.000Z</time>
      </trkpt>
      <trkpt lat="43.32978" lon="-1.40589">
        <ele>66</ele>
        <time>2026-08-23T14:12:08.000Z</time>
      </trkpt>
      <trkpt lat="43.32986" lon="-1.40602">
        <ele>65</ele>
        <time>2026-08-23T14:12:10.000Z</time>
      </trkpt>
      <trkpt lat="43.3299" lon="-1.40609">
        <ele>64</ele>
        <time>2026-08-23T14:12:12.000Z</time>
      </trkpt>
      <trkpt lat="43.3299" lon="-1.40609">
        <ele>64</ele>
        <time>2026-08-23T14:12:12.000Z</time>
      </trkpt>
      <trkpt lat="43.32992" lon="-1.40611">
        <ele>64</ele>
        <time>2026-08-23T14:12:12.000Z</time>
      </trkpt>
      <trkpt lat="43.32995" lon="-1.40617">
        <ele>63</ele>
        <time>2026-08-23T14:12:13.000Z</time>
      </trkpt>
      <trkpt lat="43.33" lon="-1.40625">
        <ele>62</ele>
        <time>2026-08-23T14:12:14.000Z</time>
      </trkpt>
      <trkpt lat="43.33003" lon="-1.40632">
        <ele>62</ele>
        <time>2026-08-23T14:12:15.000Z</time>
      </trkpt>
      <trkpt lat="43.3301" lon="-1.40649">
        <ele>62</ele>
        <time>2026-08-23T14:12:18.000Z</time>
      </trkpt>
      <trkpt lat="43.33019" lon="-1.40671">
        <ele>63</ele>
        <time>2026-08-23T14:12:21.000Z</time>
      </trkpt>
      <trkpt lat="43.3303" lon="-1.40701">
        <ele>65</ele>
        <time>2026-08-23T14:12:25.000Z</time>
      </trkpt>
      <trkpt lat="43.33036" lon="-1.4072">
        <ele>66</ele>
        <time>2026-08-23T14:12:28.000Z</time>
      </trkpt>
      <trkpt lat="43.33041" lon="-1.40733">
        <ele>67</ele>
        <time>2026-08-23T14:12:30.000Z</time>
      </trkpt>
      <trkpt lat="43.33041" lon="-1.40733">
        <ele>67</ele>
        <time>2026-08-23T14:12:30.000Z</time>
      </trkpt>
      <trkpt lat="43.3303" lon="-1.40744">
        <ele>66</ele>
        <time>2026-08-23T14:12:32.000Z</time>
      </trkpt>
      <trkpt lat="43.33019" lon="-1.40753">
        <ele>65</ele>
        <time>2026-08-23T14:12:35.000Z</time>
      </trkpt>
      <trkpt lat="43.33012" lon="-1.40759">
        <ele>65</ele>
        <time>2026-08-23T14:12:36.000Z</time>
      </trkpt>
      <trkpt lat="43.33007" lon="-1.40766">
        <ele>65</ele>
        <time>2026-08-23T14:12:38.000Z</time>
      </trkpt>
      <trkpt lat="43.33001" lon="-1.4078">
        <ele>65</ele>
        <time>2026-08-23T14:12:40.000Z</time>
      </trkpt>
      <trkpt lat="43.32999" lon="-1.40785">
        <ele>65</ele>
        <time>2026-08-23T14:12:40.000Z</time>
      </trkpt>
      <trkpt lat="43.32998" lon="-1.40791">
        <ele>65</ele>
        <time>2026-08-23T14:12:41.000Z</time>
      </trkpt>
      <trkpt lat="43.32996" lon="-1.40802">
        <ele>66</ele>
        <time>2026-08-23T14:12:43.000Z</time>
      </trkpt>
      <trkpt lat="43.32996" lon="-1.40814">
        <ele>66</ele>
        <time>2026-08-23T14:12:44.000Z</time>
      </trkpt>
      <trkpt lat="43.32997" lon="-1.40841">
        <ele>67</ele>
        <time>2026-08-23T14:12:48.000Z</time>
      </trkpt>
      <trkpt lat="43.32998" lon="-1.40864">
        <ele>68</ele>
        <time>2026-08-23T14:12:51.000Z</time>
      </trkpt>
      <trkpt lat="43.32999" lon="-1.40912">
        <ele>71</ele>
        <time>2026-08-23T14:12:57.000Z</time>
      </trkpt>
      <trkpt lat="43.32999" lon="-1.40923">
        <ele>71</ele>
        <time>2026-08-23T14:12:58.000Z</time>
      </trkpt>
      <trkpt lat="43.33" lon="-1.40932">
        <ele>71</ele>
        <time>2026-08-23T14:12:59.000Z</time>
      </trkpt>
      <trkpt lat="43.33006" lon="-1.40954">
        <ele>71</ele>
        <time>2026-08-23T14:13:03.000Z</time>
      </trkpt>
      <trkpt lat="43.33011" lon="-1.40963">
        <ele>72</ele>
        <time>2026-08-23T14:13:04.000Z</time>
      </trkpt>
      <trkpt lat="43.33022" lon="-1.40988">
        <ele>73</ele>
        <time>2026-08-23T14:13:08.000Z</time>
      </trkpt>
      <trkpt lat="43.3303" lon="-1.41008">
        <ele>74</ele>
        <time>2026-08-23T14:13:11.000Z</time>
      </trkpt>
      <trkpt lat="43.33036" lon="-1.41033">
        <ele>75</ele>
        <time>2026-08-23T14:13:14.000Z</time>
      </trkpt>
      <trkpt lat="43.33041" lon="-1.41064">
        <ele>76</ele>
        <time>2026-08-23T14:13:18.000Z</time>
      </trkpt>
      <trkpt lat="43.33043" lon="-1.41078">
        <ele>76</ele>
        <time>2026-08-23T14:13:20.000Z</time>
      </trkpt>
      <trkpt lat="43.33042" lon="-1.41105">
        <ele>78</ele>
        <time>2026-08-23T14:13:24.000Z</time>
      </trkpt>
      <trkpt lat="43.3304" lon="-1.41129">
        <ele>79</ele>
        <time>2026-08-23T14:13:27.000Z</time>
      </trkpt>
      <trkpt lat="43.33041" lon="-1.41142">
        <ele>79</ele>
        <time>2026-08-23T14:13:28.000Z</time>
      </trkpt>
      <trkpt lat="43.33042" lon="-1.41152">
        <ele>80</ele>
        <time>2026-08-23T14:13:30.000Z</time>
      </trkpt>
      <trkpt lat="43.33046" lon="-1.41159">
        <ele>80</ele>
        <time>2026-08-23T14:13:31.000Z</time>
      </trkpt>
      <trkpt lat="43.3305" lon="-1.41161">
        <ele>81</ele>
        <time>2026-08-23T14:13:32.000Z</time>
      </trkpt>
      <trkpt lat="43.33057" lon="-1.41161">
        <ele>81</ele>
        <time>2026-08-23T14:13:33.000Z</time>
      </trkpt>
      <trkpt lat="43.33104" lon="-1.41156">
        <ele>83</ele>
        <time>2026-08-23T14:13:41.000Z</time>
      </trkpt>
      <trkpt lat="43.3313" lon="-1.41151">
        <ele>84</ele>
        <time>2026-08-23T14:13:46.000Z</time>
      </trkpt>
      <trkpt lat="43.33151" lon="-1.41148">
        <ele>86</ele>
        <time>2026-08-23T14:13:50.000Z</time>
      </trkpt>
      <trkpt lat="43.33191" lon="-1.4114">
        <ele>88</ele>
        <time>2026-08-23T14:13:57.000Z</time>
      </trkpt>
      <trkpt lat="43.3322" lon="-1.41133">
        <ele>90</ele>
        <time>2026-08-23T14:14:02.000Z</time>
      </trkpt>
      <trkpt lat="43.33232" lon="-1.4113">
        <ele>91</ele>
        <time>2026-08-23T14:14:04.000Z</time>
      </trkpt>
      <trkpt lat="43.33239" lon="-1.41131">
        <ele>91</ele>
        <time>2026-08-23T14:14:06.000Z</time>
      </trkpt>
      <trkpt lat="43.33248" lon="-1.41133">
        <ele>92</ele>
        <time>2026-08-23T14:14:07.000Z</time>
      </trkpt>
      <trkpt lat="43.33259" lon="-1.41138">
        <ele>92</ele>
        <time>2026-08-23T14:14:09.000Z</time>
      </trkpt>
      <trkpt lat="43.33271" lon="-1.41143">
        <ele>92</ele>
        <time>2026-08-23T14:14:11.000Z</time>
      </trkpt>
      <trkpt lat="43.33271" lon="-1.41143">
        <ele>92</ele>
        <time>2026-08-23T14:14:11.000Z</time>
      </trkpt>
      <trkpt lat="43.33274" lon="-1.41178">
        <ele>92</ele>
        <time>2026-08-23T14:14:16.000Z</time>
      </trkpt>
      <trkpt lat="43.33277" lon="-1.41199">
        <ele>93</ele>
        <time>2026-08-23T14:14:19.000Z</time>
      </trkpt>
      <trkpt lat="43.33277" lon="-1.41205">
        <ele>93</ele>
        <time>2026-08-23T14:14:20.000Z</time>
      </trkpt>
      <trkpt lat="43.3328" lon="-1.4122">
        <ele>93</ele>
        <time>2026-08-23T14:14:22.000Z</time>
      </trkpt>
      <trkpt lat="43.33281" lon="-1.41233">
        <ele>93</ele>
        <time>2026-08-23T14:14:23.000Z</time>
      </trkpt>
      <trkpt lat="43.33281" lon="-1.41245">
        <ele>94</ele>
        <time>2026-08-23T14:14:25.000Z</time>
      </trkpt>
      <trkpt lat="43.33281" lon="-1.41258">
        <ele>93</ele>
        <time>2026-08-23T14:14:26.000Z</time>
      </trkpt>
      <trkpt lat="43.33278" lon="-1.41268">
        <ele>93</ele>
        <time>2026-08-23T14:14:28.000Z</time>
      </trkpt>
      <trkpt lat="43.33276" lon="-1.41275">
        <ele>93</ele>
        <time>2026-08-23T14:14:29.000Z</time>
      </trkpt>
      <trkpt lat="43.33274" lon="-1.4128">
        <ele>93</ele>
        <time>2026-08-23T14:14:30.000Z</time>
      </trkpt>
      <trkpt lat="43.3327" lon="-1.41286">
        <ele>92</ele>
        <time>2026-08-23T14:14:31.000Z</time>
      </trkpt>
      <trkpt lat="43.33268" lon="-1.41289">
        <ele>92</ele>
        <time>2026-08-23T14:14:31.000Z</time>
      </trkpt>
      <trkpt lat="43.3326" lon="-1.41299">
        <ele>92</ele>
        <time>2026-08-23T14:14:33.000Z</time>
      </trkpt>
      <trkpt lat="43.33248" lon="-1.41315">
        <ele>91</ele>
        <time>2026-08-23T14:14:36.000Z</time>
      </trkpt>
      <trkpt lat="43.33241" lon="-1.41327">
        <ele>89</ele>
        <time>2026-08-23T14:14:38.000Z</time>
      </trkpt>
      <trkpt lat="43.33237" lon="-1.41335">
        <ele>89</ele>
        <time>2026-08-23T14:14:39.000Z</time>
      </trkpt>
      <trkpt lat="43.33232" lon="-1.41347">
        <ele>87</ele>
        <time>2026-08-23T14:14:41.000Z</time>
      </trkpt>
      <trkpt lat="43.33229" lon="-1.41356">
        <ele>87</ele>
        <time>2026-08-23T14:14:42.000Z</time>
      </trkpt>
      <trkpt lat="43.33227" lon="-1.41367">
        <ele>86</ele>
        <time>2026-08-23T14:14:44.000Z</time>
      </trkpt>
      <trkpt lat="43.33227" lon="-1.41372">
        <ele>86</ele>
        <time>2026-08-23T14:14:45.000Z</time>
      </trkpt>
      <trkpt lat="43.33225" lon="-1.4139">
        <ele>85</ele>
        <time>2026-08-23T14:14:47.000Z</time>
      </trkpt>
      <trkpt lat="43.33225" lon="-1.41412">
        <ele>84</ele>
        <time>2026-08-23T14:14:50.000Z</time>
      </trkpt>
      <trkpt lat="43.33224" lon="-1.4144">
        <ele>85</ele>
        <time>2026-08-23T14:14:53.000Z</time>
      </trkpt>
      <trkpt lat="43.33222" lon="-1.4147">
        <ele>86</ele>
        <time>2026-08-23T14:14:57.000Z</time>
      </trkpt>
      <trkpt lat="43.33221" lon="-1.41492">
        <ele>87</ele>
        <time>2026-08-23T14:15:00.000Z</time>
      </trkpt>
      <trkpt lat="43.3322" lon="-1.4151">
        <ele>87</ele>
        <time>2026-08-23T14:15:02.000Z</time>
      </trkpt>
      <trkpt lat="43.33217" lon="-1.41529">
        <ele>88</ele>
        <time>2026-08-23T14:15:05.000Z</time>
      </trkpt>
      <trkpt lat="43.33213" lon="-1.41555">
        <ele>90</ele>
        <time>2026-08-23T14:15:08.000Z</time>
      </trkpt>
      <trkpt lat="43.33209" lon="-1.41575">
        <ele>91</ele>
        <time>2026-08-23T14:15:11.000Z</time>
      </trkpt>
      <trkpt lat="43.33205" lon="-1.41602">
        <ele>92</ele>
        <time>2026-08-23T14:15:15.000Z</time>
      </trkpt>
      <trkpt lat="43.33203" lon="-1.4162">
        <ele>92</ele>
        <time>2026-08-23T14:15:17.000Z</time>
      </trkpt>
      <trkpt lat="43.33201" lon="-1.41636">
        <ele>93</ele>
        <time>2026-08-23T14:15:19.000Z</time>
      </trkpt>
      <trkpt lat="43.332" lon="-1.41652">
        <ele>93</ele>
        <time>2026-08-23T14:15:21.000Z</time>
      </trkpt>
      <trkpt lat="43.332" lon="-1.41666">
        <ele>94</ele>
        <time>2026-08-23T14:15:23.000Z</time>
      </trkpt>
      <trkpt lat="43.332" lon="-1.41683">
        <ele>94</ele>
        <time>2026-08-23T14:15:25.000Z</time>
      </trkpt>
      <trkpt lat="43.33203" lon="-1.417">
        <ele>95</ele>
        <time>2026-08-23T14:15:27.000Z</time>
      </trkpt>
      <trkpt lat="43.33205" lon="-1.41706">
        <ele>95</ele>
        <time>2026-08-23T14:15:28.000Z</time>
      </trkpt>
      <trkpt lat="43.33207" lon="-1.41713">
        <ele>95</ele>
        <time>2026-08-23T14:15:29.000Z</time>
      </trkpt>
      <trkpt lat="43.33211" lon="-1.41726">
        <ele>96</ele>
        <time>2026-08-23T14:15:31.000Z</time>
      </trkpt>
      <trkpt lat="43.33215" lon="-1.41731">
        <ele>96</ele>
        <time>2026-08-23T14:15:32.000Z</time>
      </trkpt>
      <trkpt lat="43.3323" lon="-1.41743">
        <ele>97</ele>
        <time>2026-08-23T14:15:35.000Z</time>
      </trkpt>
      <trkpt lat="43.33248" lon="-1.41758">
        <ele>97</ele>
        <time>2026-08-23T14:15:39.000Z</time>
      </trkpt>
      <trkpt lat="43.33259" lon="-1.41768">
        <ele>98</ele>
        <time>2026-08-23T14:15:41.000Z</time>
      </trkpt>
      <trkpt lat="43.33269" lon="-1.41783">
        <ele>98</ele>
        <time>2026-08-23T14:15:44.000Z</time>
      </trkpt>
      <trkpt lat="43.33272" lon="-1.41794">
        <ele>99</ele>
        <time>2026-08-23T14:15:45.000Z</time>
      </trkpt>
      <trkpt lat="43.33273" lon="-1.4181">
        <ele>99</ele>
        <time>2026-08-23T14:15:47.000Z</time>
      </trkpt>
      <trkpt lat="43.33273" lon="-1.41845">
        <ele>100</ele>
        <time>2026-08-23T14:15:52.000Z</time>
      </trkpt>
      <trkpt lat="43.3327" lon="-1.41888">
        <ele>103</ele>
        <time>2026-08-23T14:15:58.000Z</time>
      </trkpt>
      <trkpt lat="43.33266" lon="-1.41915">
        <ele>104</ele>
        <time>2026-08-23T14:16:01.000Z</time>
      </trkpt>
      <trkpt lat="43.33262" lon="-1.41932">
        <ele>104</ele>
        <time>2026-08-23T14:16:03.000Z</time>
      </trkpt>
      <trkpt lat="43.33258" lon="-1.41943">
        <ele>103</ele>
        <time>2026-08-23T14:16:05.000Z</time>
      </trkpt>
      <trkpt lat="43.3325" lon="-1.41958">
        <ele>102</ele>
        <time>2026-08-23T14:16:07.000Z</time>
      </trkpt>
      <trkpt lat="43.33232" lon="-1.4199">
        <ele>101</ele>
        <time>2026-08-23T14:16:13.000Z</time>
      </trkpt>
      <trkpt lat="43.33205" lon="-1.42034">
        <ele>98</ele>
        <time>2026-08-23T14:16:20.000Z</time>
      </trkpt>
      <trkpt lat="43.33189" lon="-1.4206">
        <ele>96</ele>
        <time>2026-08-23T14:16:25.000Z</time>
      </trkpt>
      <trkpt lat="43.33175" lon="-1.42081">
        <ele>95</ele>
        <time>2026-08-23T14:16:28.000Z</time>
      </trkpt>
      <trkpt lat="43.33168" lon="-1.42093">
        <ele>95</ele>
        <time>2026-08-23T14:16:30.000Z</time>
      </trkpt>
      <trkpt lat="43.33162" lon="-1.42107">
        <ele>95</ele>
        <time>2026-08-23T14:16:32.000Z</time>
      </trkpt>
      <trkpt lat="43.33158" lon="-1.4212">
        <ele>95</ele>
        <time>2026-08-23T14:16:34.000Z</time>
      </trkpt>
      <trkpt lat="43.33155" lon="-1.42135">
        <ele>95</ele>
        <time>2026-08-23T14:16:36.000Z</time>
      </trkpt>
      <trkpt lat="43.33151" lon="-1.42154">
        <ele>96</ele>
        <time>2026-08-23T14:16:39.000Z</time>
      </trkpt>
      <trkpt lat="43.33149" lon="-1.42171">
        <ele>96</ele>
        <time>2026-08-23T14:16:41.000Z</time>
      </trkpt>
      <trkpt lat="43.33148" lon="-1.42177">
        <ele>97</ele>
        <time>2026-08-23T14:16:42.000Z</time>
      </trkpt>
      <trkpt lat="43.33147" lon="-1.42197">
        <ele>98</ele>
        <time>2026-08-23T14:16:44.000Z</time>
      </trkpt>
      <trkpt lat="43.33148" lon="-1.42229">
        <ele>100</ele>
        <time>2026-08-23T14:16:49.000Z</time>
      </trkpt>
      <trkpt lat="43.33148" lon="-1.42246">
        <ele>101</ele>
        <time>2026-08-23T14:16:51.000Z</time>
      </trkpt>
      <trkpt lat="43.33148" lon="-1.4226">
        <ele>101</ele>
        <time>2026-08-23T14:16:53.000Z</time>
      </trkpt>
      <trkpt lat="43.33144" lon="-1.42281">
        <ele>102</ele>
        <time>2026-08-23T14:16:55.000Z</time>
      </trkpt>
      <trkpt lat="43.33141" lon="-1.42306">
        <ele>102</ele>
        <time>2026-08-23T14:16:59.000Z</time>
      </trkpt>
      <trkpt lat="43.3314" lon="-1.4232">
        <ele>103</ele>
        <time>2026-08-23T14:17:00.000Z</time>
      </trkpt>
      <trkpt lat="43.3314" lon="-1.42337">
        <ele>104</ele>
        <time>2026-08-23T14:17:03.000Z</time>
      </trkpt>
      <trkpt lat="43.3314" lon="-1.42356">
        <ele>103</ele>
        <time>2026-08-23T14:17:05.000Z</time>
      </trkpt>
      <trkpt lat="43.3314" lon="-1.42385">
        <ele>103</ele>
        <time>2026-08-23T14:17:09.000Z</time>
      </trkpt>
      <trkpt lat="43.3314" lon="-1.42421">
        <ele>103</ele>
        <time>2026-08-23T14:17:14.000Z</time>
      </trkpt>
      <trkpt lat="43.3314" lon="-1.42455">
        <ele>103</ele>
        <time>2026-08-23T14:17:18.000Z</time>
      </trkpt>
      <trkpt lat="43.3314" lon="-1.42468">
        <ele>103</ele>
        <time>2026-08-23T14:17:20.000Z</time>
      </trkpt>
      <trkpt lat="43.33139" lon="-1.42478">
        <ele>103</ele>
        <time>2026-08-23T14:17:21.000Z</time>
      </trkpt>
      <trkpt lat="43.33138" lon="-1.42484">
        <ele>103</ele>
        <time>2026-08-23T14:17:22.000Z</time>
      </trkpt>
      <trkpt lat="43.33133" lon="-1.42496">
        <ele>102</ele>
        <time>2026-08-23T14:17:23.000Z</time>
      </trkpt>
      <trkpt lat="43.33129" lon="-1.42506">
        <ele>102</ele>
        <time>2026-08-23T14:17:25.000Z</time>
      </trkpt>
      <trkpt lat="43.33116" lon="-1.42529">
        <ele>101</ele>
        <time>2026-08-23T14:17:29.000Z</time>
      </trkpt>
      <trkpt lat="43.33108" lon="-1.42547">
        <ele>101</ele>
        <time>2026-08-23T14:17:31.000Z</time>
      </trkpt>
      <trkpt lat="43.33105" lon="-1.42554">
        <ele>101</ele>
        <time>2026-08-23T14:17:33.000Z</time>
      </trkpt>
      <trkpt lat="43.33102" lon="-1.42566">
        <ele>101</ele>
        <time>2026-08-23T14:17:34.000Z</time>
      </trkpt>
      <trkpt lat="43.33097" lon="-1.42592">
        <ele>102</ele>
        <time>2026-08-23T14:17:38.000Z</time>
      </trkpt>
      <trkpt lat="43.3309" lon="-1.42617">
        <ele>103</ele>
        <time>2026-08-23T14:17:41.000Z</time>
      </trkpt>
      <trkpt lat="43.33083" lon="-1.42641">
        <ele>105</ele>
        <time>2026-08-23T14:17:44.000Z</time>
      </trkpt>
      <trkpt lat="43.33074" lon="-1.42668">
        <ele>107</ele>
        <time>2026-08-23T14:17:48.000Z</time>
      </trkpt>
      <trkpt lat="43.33068" lon="-1.42683">
        <ele>108</ele>
        <time>2026-08-23T14:17:51.000Z</time>
      </trkpt>
      <trkpt lat="43.33064" lon="-1.42693">
        <ele>108</ele>
        <time>2026-08-23T14:17:52.000Z</time>
      </trkpt>
      <trkpt lat="43.33059" lon="-1.42701">
        <ele>108</ele>
        <time>2026-08-23T14:17:53.000Z</time>
      </trkpt>
      <trkpt lat="43.33053" lon="-1.42707">
        <ele>108</ele>
        <time>2026-08-23T14:17:55.000Z</time>
      </trkpt>
      <trkpt lat="43.33052" lon="-1.42708">
        <ele>107</ele>
        <time>2026-08-23T14:17:55.000Z</time>
      </trkpt>
      <trkpt lat="43.33036" lon="-1.42719">
        <ele>106</ele>
        <time>2026-08-23T14:17:58.000Z</time>
      </trkpt>
      <trkpt lat="43.33025" lon="-1.42725">
        <ele>105</ele>
        <time>2026-08-23T14:18:00.000Z</time>
      </trkpt>
      <trkpt lat="43.33011" lon="-1.42731">
        <ele>103</ele>
        <time>2026-08-23T14:18:03.000Z</time>
      </trkpt>
      <trkpt lat="43.33" lon="-1.42739">
        <ele>101</ele>
        <time>2026-08-23T14:18:05.000Z</time>
      </trkpt>
      <trkpt lat="43.32996" lon="-1.42741">
        <ele>102</ele>
        <time>2026-08-23T14:18:06.000Z</time>
      </trkpt>
      <trkpt lat="43.32993" lon="-1.42745">
        <ele>102</ele>
        <time>2026-08-23T14:18:06.000Z</time>
      </trkpt>
      <trkpt lat="43.32988" lon="-1.42751">
        <ele>102</ele>
        <time>2026-08-23T14:18:08.000Z</time>
      </trkpt>
      <trkpt lat="43.32983" lon="-1.42762">
        <ele>103</ele>
        <time>2026-08-23T14:18:09.000Z</time>
      </trkpt>
      <trkpt lat="43.32961" lon="-1.42813">
        <ele>106</ele>
        <time>2026-08-23T14:18:17.000Z</time>
      </trkpt>
      <trkpt lat="43.32935" lon="-1.42861">
        <ele>107</ele>
        <time>2026-08-23T14:18:25.000Z</time>
      </trkpt>
      <trkpt lat="43.32931" lon="-1.42869">
        <ele>107</ele>
        <time>2026-08-23T14:18:26.000Z</time>
      </trkpt>
      <trkpt lat="43.32919" lon="-1.42887">
        <ele>107</ele>
        <time>2026-08-23T14:18:29.000Z</time>
      </trkpt>
      <trkpt lat="43.32909" lon="-1.42898">
        <ele>107</ele>
        <time>2026-08-23T14:18:31.000Z</time>
      </trkpt>
      <trkpt lat="43.32902" lon="-1.42909">
        <ele>108</ele>
        <time>2026-08-23T14:18:33.000Z</time>
      </trkpt>
      <trkpt lat="43.32896" lon="-1.42923">
        <ele>108</ele>
        <time>2026-08-23T14:18:35.000Z</time>
      </trkpt>
      <trkpt lat="43.32894" lon="-1.42935">
        <ele>109</ele>
        <time>2026-08-23T14:18:37.000Z</time>
      </trkpt>
      <trkpt lat="43.32893" lon="-1.42946">
        <ele>109</ele>
        <time>2026-08-23T14:18:38.000Z</time>
      </trkpt>
      <trkpt lat="43.32894" lon="-1.4296">
        <ele>109</ele>
        <time>2026-08-23T14:18:40.000Z</time>
      </trkpt>
      <trkpt lat="43.32895" lon="-1.42998">
        <ele>111</ele>
        <time>2026-08-23T14:18:45.000Z</time>
      </trkpt>
      <trkpt lat="43.32895" lon="-1.43015">
        <ele>111</ele>
        <time>2026-08-23T14:18:47.000Z</time>
      </trkpt>
      <trkpt lat="43.32897" lon="-1.43026">
        <ele>112</ele>
        <time>2026-08-23T14:18:49.000Z</time>
      </trkpt>
      <trkpt lat="43.329" lon="-1.43042">
        <ele>113</ele>
        <time>2026-08-23T14:18:51.000Z</time>
      </trkpt>
      <trkpt lat="43.32902" lon="-1.43057">
        <ele>113</ele>
        <time>2026-08-23T14:18:53.000Z</time>
      </trkpt>
      <trkpt lat="43.32902" lon="-1.43066">
        <ele>113</ele>
        <time>2026-08-23T14:18:54.000Z</time>
      </trkpt>
      <trkpt lat="43.32901" lon="-1.43075">
        <ele>114</ele>
        <time>2026-08-23T14:18:55.000Z</time>
      </trkpt>
      <trkpt lat="43.32898" lon="-1.43082">
        <ele>114</ele>
        <time>2026-08-23T14:18:56.000Z</time>
      </trkpt>
      <trkpt lat="43.3289" lon="-1.43093">
        <ele>114</ele>
        <time>2026-08-23T14:18:58.000Z</time>
      </trkpt>
      <trkpt lat="43.32878" lon="-1.4311">
        <ele>114</ele>
        <time>2026-08-23T14:19:01.000Z</time>
      </trkpt>
      <trkpt lat="43.32871" lon="-1.43123">
        <ele>114</ele>
        <time>2026-08-23T14:19:04.000Z</time>
      </trkpt>
      <trkpt lat="43.32864" lon="-1.43137">
        <ele>114</ele>
        <time>2026-08-23T14:19:06.000Z</time>
      </trkpt>
      <trkpt lat="43.32853" lon="-1.43162">
        <ele>114</ele>
        <time>2026-08-23T14:19:10.000Z</time>
      </trkpt>
      <trkpt lat="43.32844" lon="-1.43186">
        <ele>114</ele>
        <time>2026-08-23T14:19:13.000Z</time>
      </trkpt>
      <trkpt lat="43.32841" lon="-1.43198">
        <ele>115</ele>
        <time>2026-08-23T14:19:15.000Z</time>
      </trkpt>
      <trkpt lat="43.32838" lon="-1.43214">
        <ele>115</ele>
        <time>2026-08-23T14:19:17.000Z</time>
      </trkpt>
      <trkpt lat="43.32834" lon="-1.43251">
        <ele>117</ele>
        <time>2026-08-23T14:19:22.000Z</time>
      </trkpt>
      <trkpt lat="43.3283" lon="-1.43278">
        <ele>117</ele>
        <time>2026-08-23T14:19:25.000Z</time>
      </trkpt>
      <trkpt lat="43.32828" lon="-1.43303">
        <ele>117</ele>
        <time>2026-08-23T14:19:29.000Z</time>
      </trkpt>
      <trkpt lat="43.32824" lon="-1.43329">
        <ele>117</ele>
        <time>2026-08-23T14:19:32.000Z</time>
      </trkpt>
      <trkpt lat="43.32819" lon="-1.43356">
        <ele>118</ele>
        <time>2026-08-23T14:19:36.000Z</time>
      </trkpt>
      <trkpt lat="43.32814" lon="-1.43388">
        <ele>120</ele>
        <time>2026-08-23T14:19:40.000Z</time>
      </trkpt>
      <trkpt lat="43.32809" lon="-1.43412">
        <ele>121</ele>
        <time>2026-08-23T14:19:43.000Z</time>
      </trkpt>
      <trkpt lat="43.32808" lon="-1.43426">
        <ele>121</ele>
        <time>2026-08-23T14:19:45.000Z</time>
      </trkpt>
      <trkpt lat="43.32808" lon="-1.4344">
        <ele>122</ele>
        <time>2026-08-23T14:19:47.000Z</time>
      </trkpt>
      <trkpt lat="43.32809" lon="-1.43452">
        <ele>122</ele>
        <time>2026-08-23T14:19:48.000Z</time>
      </trkpt>
      <trkpt lat="43.3281" lon="-1.43464">
        <ele>122</ele>
        <time>2026-08-23T14:19:50.000Z</time>
      </trkpt>
      <trkpt lat="43.32814" lon="-1.43482">
        <ele>123</ele>
        <time>2026-08-23T14:19:52.000Z</time>
      </trkpt>
      <trkpt lat="43.3282" lon="-1.43503">
        <ele>124</ele>
        <time>2026-08-23T14:19:55.000Z</time>
      </trkpt>
      <trkpt lat="43.32825" lon="-1.43521">
        <ele>125</ele>
        <time>2026-08-23T14:19:58.000Z</time>
      </trkpt>
      <trkpt lat="43.32828" lon="-1.43539">
        <ele>127</ele>
        <time>2026-08-23T14:20:00.000Z</time>
      </trkpt>
      <trkpt lat="43.3283" lon="-1.43556">
        <ele>128</ele>
        <time>2026-08-23T14:20:02.000Z</time>
      </trkpt>
      <trkpt lat="43.3283" lon="-1.43572">
        <ele>129</ele>
        <time>2026-08-23T14:20:04.000Z</time>
      </trkpt>
      <trkpt lat="43.32828" lon="-1.43587">
        <ele>130</ele>
        <time>2026-08-23T14:20:06.000Z</time>
      </trkpt>
      <trkpt lat="43.32825" lon="-1.43598">
        <ele>131</ele>
        <time>2026-08-23T14:20:08.000Z</time>
      </trkpt>
      <trkpt lat="43.32822" lon="-1.43606">
        <ele>132</ele>
        <time>2026-08-23T14:20:09.000Z</time>
      </trkpt>
      <trkpt lat="43.32811" lon="-1.43615">
        <ele>133</ele>
        <time>2026-08-23T14:20:11.000Z</time>
      </trkpt>
      <trkpt lat="43.3279" lon="-1.43633">
        <ele>134</ele>
        <time>2026-08-23T14:20:16.000Z</time>
      </trkpt>
      <trkpt lat="43.32765" lon="-1.43655">
        <ele>135</ele>
        <time>2026-08-23T14:20:21.000Z</time>
      </trkpt>
      <trkpt lat="43.32745" lon="-1.43676">
        <ele>135</ele>
        <time>2026-08-23T14:20:25.000Z</time>
      </trkpt>
      <trkpt lat="43.32737" lon="-1.43683">
        <ele>135</ele>
        <time>2026-08-23T14:20:27.000Z</time>
      </trkpt>
      <trkpt lat="43.32721" lon="-1.43704">
        <ele>134</ele>
        <time>2026-08-23T14:20:31.000Z</time>
      </trkpt>
      <trkpt lat="43.32716" lon="-1.43712">
        <ele>134</ele>
        <time>2026-08-23T14:20:32.000Z</time>
      </trkpt>
      <trkpt lat="43.32712" lon="-1.43722">
        <ele>134</ele>
        <time>2026-08-23T14:20:34.000Z</time>
      </trkpt>
      <trkpt lat="43.32707" lon="-1.43738">
        <ele>134</ele>
        <time>2026-08-23T14:20:36.000Z</time>
      </trkpt>
      <trkpt lat="43.32705" lon="-1.43745">
        <ele>134</ele>
        <time>2026-08-23T14:20:37.000Z</time>
      </trkpt>
      <trkpt lat="43.32701" lon="-1.43762">
        <ele>133</ele>
        <time>2026-08-23T14:20:39.000Z</time>
      </trkpt>
      <trkpt lat="43.32697" lon="-1.43775">
        <ele>132</ele>
        <time>2026-08-23T14:20:41.000Z</time>
      </trkpt>
      <trkpt lat="43.32691" lon="-1.43787">
        <ele>131</ele>
        <time>2026-08-23T14:20:43.000Z</time>
      </trkpt>
      <trkpt lat="43.32685" lon="-1.43796">
        <ele>130</ele>
        <time>2026-08-23T14:20:45.000Z</time>
      </trkpt>
      <trkpt lat="43.32677" lon="-1.43807">
        <ele>129</ele>
        <time>2026-08-23T14:20:47.000Z</time>
      </trkpt>
      <trkpt lat="43.32668" lon="-1.43817">
        <ele>127</ele>
        <time>2026-08-23T14:20:49.000Z</time>
      </trkpt>
      <trkpt lat="43.32657" lon="-1.43827">
        <ele>126</ele>
        <time>2026-08-23T14:20:51.000Z</time>
      </trkpt>
      <trkpt lat="43.32635" lon="-1.43844">
        <ele>125</ele>
        <time>2026-08-23T14:20:56.000Z</time>
      </trkpt>
      <trkpt lat="43.32615" lon="-1.43862">
        <ele>123</ele>
        <time>2026-08-23T14:21:00.000Z</time>
      </trkpt>
      <trkpt lat="43.32603" lon="-1.43874">
        <ele>122</ele>
        <time>2026-08-23T14:21:03.000Z</time>
      </trkpt>
      <trkpt lat="43.32591" lon="-1.43888">
        <ele>120</ele>
        <time>2026-08-23T14:21:05.000Z</time>
      </trkpt>
      <trkpt lat="43.32586" lon="-1.43894">
        <ele>119</ele>
        <time>2026-08-23T14:21:06.000Z</time>
      </trkpt>
      <trkpt lat="43.32581" lon="-1.43903">
        <ele>119</ele>
        <time>2026-08-23T14:21:08.000Z</time>
      </trkpt>
      <trkpt lat="43.32576" lon="-1.43916">
        <ele>119</ele>
        <time>2026-08-23T14:21:10.000Z</time>
      </trkpt>
      <trkpt lat="43.32571" lon="-1.43929">
        <ele>120</ele>
        <time>2026-08-23T14:21:12.000Z</time>
      </trkpt>
      <trkpt lat="43.32563" lon="-1.43962">
        <ele>122</ele>
        <time>2026-08-23T14:21:16.000Z</time>
      </trkpt>
      <trkpt lat="43.32561" lon="-1.43969">
        <ele>122</ele>
        <time>2026-08-23T14:21:17.000Z</time>
      </trkpt>
      <trkpt lat="43.32559" lon="-1.43984">
        <ele>123</ele>
        <time>2026-08-23T14:21:19.000Z</time>
      </trkpt>
      <trkpt lat="43.32557" lon="-1.43994">
        <ele>123</ele>
        <time>2026-08-23T14:21:21.000Z</time>
      </trkpt>
      <trkpt lat="43.32555" lon="-1.44014">
        <ele>123</ele>
        <time>2026-08-23T14:21:23.000Z</time>
      </trkpt>
      <trkpt lat="43.32553" lon="-1.44033">
        <ele>122</ele>
        <time>2026-08-23T14:21:26.000Z</time>
      </trkpt>
      <trkpt lat="43.3255" lon="-1.44053">
        <ele>121</ele>
        <time>2026-08-23T14:21:28.000Z</time>
      </trkpt>
      <trkpt lat="43.32548" lon="-1.44068">
        <ele>120</ele>
        <time>2026-08-23T14:21:30.000Z</time>
      </trkpt>
      <trkpt lat="43.32546" lon="-1.44082">
        <ele>119</ele>
        <time>2026-08-23T14:21:32.000Z</time>
      </trkpt>
      <trkpt lat="43.32542" lon="-1.44097">
        <ele>118</ele>
        <time>2026-08-23T14:21:34.000Z</time>
      </trkpt>
      <trkpt lat="43.3254" lon="-1.44107">
        <ele>118</ele>
        <time>2026-08-23T14:21:36.000Z</time>
      </trkpt>
      <trkpt lat="43.32532" lon="-1.44134">
        <ele>116</ele>
        <time>2026-08-23T14:21:39.000Z</time>
      </trkpt>
      <trkpt lat="43.32526" lon="-1.44157">
        <ele>114</ele>
        <time>2026-08-23T14:21:42.000Z</time>
      </trkpt>
      <trkpt lat="43.32522" lon="-1.44178">
        <ele>112</ele>
        <time>2026-08-23T14:21:45.000Z</time>
      </trkpt>
      <trkpt lat="43.3252" lon="-1.44192">
        <ele>111</ele>
        <time>2026-08-23T14:21:47.000Z</time>
      </trkpt>
      <trkpt lat="43.32519" lon="-1.44202">
        <ele>111</ele>
        <time>2026-08-23T14:21:48.000Z</time>
      </trkpt>
      <trkpt lat="43.32518" lon="-1.44215">
        <ele>110</ele>
        <time>2026-08-23T14:21:50.000Z</time>
      </trkpt>
      <trkpt lat="43.32518" lon="-1.44227">
        <ele>109</ele>
        <time>2026-08-23T14:21:52.000Z</time>
      </trkpt>
      <trkpt lat="43.32518" lon="-1.44237">
        <ele>108</ele>
        <time>2026-08-23T14:21:53.000Z</time>
      </trkpt>
      <trkpt lat="43.32519" lon="-1.44256">
        <ele>107</ele>
        <time>2026-08-23T14:21:55.000Z</time>
      </trkpt>
      <trkpt lat="43.32518" lon="-1.44271">
        <ele>107</ele>
        <time>2026-08-23T14:21:57.000Z</time>
      </trkpt>
      <trkpt lat="43.32517" lon="-1.44279">
        <ele>107</ele>
        <time>2026-08-23T14:21:58.000Z</time>
      </trkpt>
      <trkpt lat="43.32515" lon="-1.44286">
        <ele>107</ele>
        <time>2026-08-23T14:21:59.000Z</time>
      </trkpt>
      <trkpt lat="43.32514" lon="-1.44293">
        <ele>107</ele>
        <time>2026-08-23T14:22:00.000Z</time>
      </trkpt>
      <trkpt lat="43.32513" lon="-1.44298">
        <ele>107</ele>
        <time>2026-08-23T14:22:01.000Z</time>
      </trkpt>
      <trkpt lat="43.32511" lon="-1.44302">
        <ele>106</ele>
        <time>2026-08-23T14:22:02.000Z</time>
      </trkpt>
      <trkpt lat="43.32504" lon="-1.44317">
        <ele>106</ele>
        <time>2026-08-23T14:22:04.000Z</time>
      </trkpt>
      <trkpt lat="43.32502" lon="-1.44322">
        <ele>106</ele>
        <time>2026-08-23T14:22:05.000Z</time>
      </trkpt>
      <trkpt lat="43.32501" lon="-1.44328">
        <ele>106</ele>
        <time>2026-08-23T14:22:05.000Z</time>
      </trkpt>
      <trkpt lat="43.325" lon="-1.44334">
        <ele>106</ele>
        <time>2026-08-23T14:22:06.000Z</time>
      </trkpt>
      <trkpt lat="43.32501" lon="-1.44338">
        <ele>106</ele>
        <time>2026-08-23T14:22:07.000Z</time>
      </trkpt>
      <trkpt lat="43.32501" lon="-1.44342">
        <ele>106</ele>
        <time>2026-08-23T14:22:07.000Z</time>
      </trkpt>
      <trkpt lat="43.32505" lon="-1.44352">
        <ele>107</ele>
        <time>2026-08-23T14:22:09.000Z</time>
      </trkpt>
      <trkpt lat="43.32508" lon="-1.44362">
        <ele>107</ele>
        <time>2026-08-23T14:22:10.000Z</time>
      </trkpt>
      <trkpt lat="43.32512" lon="-1.44374">
        <ele>108</ele>
        <time>2026-08-23T14:22:12.000Z</time>
      </trkpt>
      <trkpt lat="43.32522" lon="-1.44406">
        <ele>109</ele>
        <time>2026-08-23T14:22:16.000Z</time>
      </trkpt>
      <trkpt lat="43.32526" lon="-1.4442">
        <ele>109</ele>
        <time>2026-08-23T14:22:18.000Z</time>
      </trkpt>
      <trkpt lat="43.32533" lon="-1.44442">
        <ele>109</ele>
        <time>2026-08-23T14:22:21.000Z</time>
      </trkpt>
      <trkpt lat="43.32539" lon="-1.44475">
        <ele>109</ele>
        <time>2026-08-23T14:22:26.000Z</time>
      </trkpt>
      <trkpt lat="43.32545" lon="-1.44502">
        <ele>109</ele>
        <time>2026-08-23T14:22:30.000Z</time>
      </trkpt>
      <trkpt lat="43.32548" lon="-1.4452">
        <ele>107</ele>
        <time>2026-08-23T14:22:32.000Z</time>
      </trkpt>
      <trkpt lat="43.32549" lon="-1.44529">
        <ele>107</ele>
        <time>2026-08-23T14:22:33.000Z</time>
      </trkpt>
      <trkpt lat="43.32551" lon="-1.44551">
        <ele>105</ele>
        <time>2026-08-23T14:22:36.000Z</time>
      </trkpt>
      <trkpt lat="43.32553" lon="-1.44567">
        <ele>104</ele>
        <time>2026-08-23T14:22:38.000Z</time>
      </trkpt>
      <trkpt lat="43.32556" lon="-1.44587">
        <ele>103</ele>
        <time>2026-08-23T14:22:41.000Z</time>
      </trkpt>
      <trkpt lat="43.32563" lon="-1.44617">
        <ele>99</ele>
        <time>2026-08-23T14:22:45.000Z</time>
      </trkpt>
      <trkpt lat="43.32567" lon="-1.44635">
        <ele>97</ele>
        <time>2026-08-23T14:22:47.000Z</time>
      </trkpt>
      <trkpt lat="43.32568" lon="-1.44642">
        <ele>96</ele>
        <time>2026-08-23T14:22:48.000Z</time>
      </trkpt>
      <trkpt lat="43.3257" lon="-1.44648">
        <ele>95</ele>
        <time>2026-08-23T14:22:49.000Z</time>
      </trkpt>
      <trkpt lat="43.32572" lon="-1.44658">
        <ele>94</ele>
        <time>2026-08-23T14:22:50.000Z</time>
      </trkpt>
      <trkpt lat="43.3258" lon="-1.44691">
        <ele>92</ele>
        <time>2026-08-23T14:22:55.000Z</time>
      </trkpt>
      <trkpt lat="43.32581" lon="-1.44695">
        <ele>92</ele>
        <time>2026-08-23T14:22:55.000Z</time>
      </trkpt>
      <trkpt lat="43.32585" lon="-1.44714">
        <ele>92</ele>
        <time>2026-08-23T14:22:58.000Z</time>
      </trkpt>
      <trkpt lat="43.32587" lon="-1.44726">
        <ele>92</ele>
        <time>2026-08-23T14:23:00.000Z</time>
      </trkpt>
      <trkpt lat="43.32594" lon="-1.44754">
        <ele>92</ele>
        <time>2026-08-23T14:23:03.000Z</time>
      </trkpt>
      <trkpt lat="43.32597" lon="-1.44764">
        <ele>95</ele>
        <time>2026-08-23T14:23:05.000Z</time>
      </trkpt>
      <trkpt lat="43.32601" lon="-1.44772">
        <ele>96</ele>
        <time>2026-08-23T14:23:06.000Z</time>
      </trkpt>
      <trkpt lat="43.32612" lon="-1.44781">
        <ele>98</ele>
        <time>2026-08-23T14:23:08.000Z</time>
      </trkpt>
      <trkpt lat="43.3263" lon="-1.44791">
        <ele>100</ele>
        <time>2026-08-23T14:23:12.000Z</time>
      </trkpt>
      <trkpt lat="43.32647" lon="-1.44798">
        <ele>100</ele>
        <time>2026-08-23T14:23:15.000Z</time>
      </trkpt>
      <trkpt lat="43.32658" lon="-1.44803">
        <ele>101</ele>
        <time>2026-08-23T14:23:17.000Z</time>
      </trkpt>
      <trkpt lat="43.32667" lon="-1.44809">
        <ele>101</ele>
        <time>2026-08-23T14:23:19.000Z</time>
      </trkpt>
      <trkpt lat="43.32677" lon="-1.4482">
        <ele>102</ele>
        <time>2026-08-23T14:23:21.000Z</time>
      </trkpt>
      <trkpt lat="43.3269" lon="-1.4484">
        <ele>104</ele>
        <time>2026-08-23T14:23:25.000Z</time>
      </trkpt>
      <trkpt lat="43.32692" lon="-1.44842">
        <ele>104</ele>
        <time>2026-08-23T14:23:25.000Z</time>
      </trkpt>
      <trkpt lat="43.32706" lon="-1.44862">
        <ele>107</ele>
        <time>2026-08-23T14:23:29.000Z</time>
      </trkpt>
      <trkpt lat="43.3272" lon="-1.44881">
        <ele>107</ele>
        <time>2026-08-23T14:23:32.000Z</time>
      </trkpt>
      <trkpt lat="43.32732" lon="-1.44893">
        <ele>105</ele>
        <time>2026-08-23T14:23:35.000Z</time>
      </trkpt>
      <trkpt lat="43.3274" lon="-1.44897">
        <ele>102</ele>
        <time>2026-08-23T14:23:36.000Z</time>
      </trkpt>
      <trkpt lat="43.32754" lon="-1.44909">
        <ele>99</ele>
        <time>2026-08-23T14:23:39.000Z</time>
      </trkpt>
      <trkpt lat="43.32766" lon="-1.44922">
        <ele>99</ele>
        <time>2026-08-23T14:23:42.000Z</time>
      </trkpt>
      <trkpt lat="43.3277" lon="-1.44925">
        <ele>100</ele>
        <time>2026-08-23T14:23:43.000Z</time>
      </trkpt>
      <trkpt lat="43.32774" lon="-1.44928">
        <ele>101</ele>
        <time>2026-08-23T14:23:44.000Z</time>
      </trkpt>
      <trkpt lat="43.32781" lon="-1.44933">
        <ele>102</ele>
        <time>2026-08-23T14:23:45.000Z</time>
      </trkpt>
      <trkpt lat="43.32791" lon="-1.44938">
        <ele>102</ele>
        <time>2026-08-23T14:23:47.000Z</time>
      </trkpt>
      <trkpt lat="43.32802" lon="-1.44941">
        <ele>102</ele>
        <time>2026-08-23T14:23:49.000Z</time>
      </trkpt>
      <trkpt lat="43.32817" lon="-1.44942">
        <ele>101</ele>
        <time>2026-08-23T14:23:51.000Z</time>
      </trkpt>
      <trkpt lat="43.32837" lon="-1.4494">
        <ele>99</ele>
        <time>2026-08-23T14:23:55.000Z</time>
      </trkpt>
      <trkpt lat="43.32852" lon="-1.44936">
        <ele>97</ele>
        <time>2026-08-23T14:23:58.000Z</time>
      </trkpt>
      <trkpt lat="43.32858" lon="-1.44934">
        <ele>96</ele>
        <time>2026-08-23T14:23:59.000Z</time>
      </trkpt>
      <trkpt lat="43.32872" lon="-1.44928">
        <ele>93</ele>
        <time>2026-08-23T14:24:01.000Z</time>
      </trkpt>
      <trkpt lat="43.32882" lon="-1.44926">
        <ele>92</ele>
        <time>2026-08-23T14:24:03.000Z</time>
      </trkpt>
      <trkpt lat="43.32892" lon="-1.44926">
        <ele>92</ele>
        <time>2026-08-23T14:24:05.000Z</time>
      </trkpt>
      <trkpt lat="43.32894" lon="-1.44927">
        <ele>92</ele>
        <time>2026-08-23T14:24:05.000Z</time>
      </trkpt>
      <trkpt lat="43.32898" lon="-1.44927">
        <ele>91</ele>
        <time>2026-08-23T14:24:06.000Z</time>
      </trkpt>
      <trkpt lat="43.32903" lon="-1.44928">
        <ele>92</ele>
        <time>2026-08-23T14:24:07.000Z</time>
      </trkpt>
      <trkpt lat="43.32914" lon="-1.44926">
        <ele>90</ele>
        <time>2026-08-23T14:24:09.000Z</time>
      </trkpt>
      <trkpt lat="43.32923" lon="-1.44924">
        <ele>89</ele>
        <time>2026-08-23T14:24:11.000Z</time>
      </trkpt>
      <trkpt lat="43.32934" lon="-1.44923">
        <ele>88</ele>
        <time>2026-08-23T14:24:13.000Z</time>
      </trkpt>
      <trkpt lat="43.32951" lon="-1.44926">
        <ele>87</ele>
        <time>2026-08-23T14:24:16.000Z</time>
      </trkpt>
      <trkpt lat="43.32973" lon="-1.44932">
        <ele>86</ele>
        <time>2026-08-23T14:24:20.000Z</time>
      </trkpt>
      <trkpt lat="43.32995" lon="-1.44941">
        <ele>86</ele>
        <time>2026-08-23T14:24:24.000Z</time>
      </trkpt>
      <trkpt lat="43.3301" lon="-1.44949">
        <ele>87</ele>
        <time>2026-08-23T14:24:27.000Z</time>
      </trkpt>
      <trkpt lat="43.33027" lon="-1.4496">
        <ele>88</ele>
        <time>2026-08-23T14:24:30.000Z</time>
      </trkpt>
      <trkpt lat="43.33044" lon="-1.4497">
        <ele>89</ele>
        <time>2026-08-23T14:24:33.000Z</time>
      </trkpt>
      <trkpt lat="43.33053" lon="-1.44975">
        <ele>89</ele>
        <time>2026-08-23T14:24:35.000Z</time>
      </trkpt>
      <trkpt lat="43.33056" lon="-1.44977">
        <ele>89</ele>
        <time>2026-08-23T14:24:36.000Z</time>
      </trkpt>
      <trkpt lat="43.33057" lon="-1.44977">
        <ele>89</ele>
        <time>2026-08-23T14:24:36.000Z</time>
      </trkpt>
      <trkpt lat="43.3306" lon="-1.44978">
        <ele>89</ele>
        <time>2026-08-23T14:24:36.000Z</time>
      </trkpt>
      <trkpt lat="43.33064" lon="-1.4498">
        <ele>89</ele>
        <time>2026-08-23T14:24:37.000Z</time>
      </trkpt>
      <trkpt lat="43.33067" lon="-1.44981">
        <ele>89</ele>
        <time>2026-08-23T14:24:38.000Z</time>
      </trkpt>
      <trkpt lat="43.33078" lon="-1.44981">
        <ele>88</ele>
        <time>2026-08-23T14:24:40.000Z</time>
      </trkpt>
      <trkpt lat="43.33086" lon="-1.44981">
        <ele>89</ele>
        <time>2026-08-23T14:24:41.000Z</time>
      </trkpt>
      <trkpt lat="43.33095" lon="-1.44976">
        <ele>91</ele>
        <time>2026-08-23T14:24:43.000Z</time>
      </trkpt>
      <trkpt lat="43.33097" lon="-1.44973">
        <ele>91</ele>
        <time>2026-08-23T14:24:43.000Z</time>
      </trkpt>
      <trkpt lat="43.33104" lon="-1.44965">
        <ele>93</ele>
        <time>2026-08-23T14:24:45.000Z</time>
      </trkpt>
      <trkpt lat="43.33116" lon="-1.44948">
        <ele>94</ele>
        <time>2026-08-23T14:24:48.000Z</time>
      </trkpt>
      <trkpt lat="43.33126" lon="-1.44932">
        <ele>95</ele>
        <time>2026-08-23T14:24:51.000Z</time>
      </trkpt>
      <trkpt lat="43.33132" lon="-1.4491">
        <ele>94</ele>
        <time>2026-08-23T14:24:54.000Z</time>
      </trkpt>
      <trkpt lat="43.33139" lon="-1.44884">
        <ele>92</ele>
        <time>2026-08-23T14:24:57.000Z</time>
      </trkpt>
      <trkpt lat="43.33143" lon="-1.44865">
        <ele>90</ele>
        <time>2026-08-23T14:25:00.000Z</time>
      </trkpt>
      <trkpt lat="43.33144" lon="-1.44848">
        <ele>88</ele>
        <time>2026-08-23T14:25:02.000Z</time>
      </trkpt>
      <trkpt lat="43.33146" lon="-1.4483">
        <ele>86</ele>
        <time>2026-08-23T14:25:04.000Z</time>
      </trkpt>
      <trkpt lat="43.33151" lon="-1.44812">
        <ele>87</ele>
        <time>2026-08-23T14:25:07.000Z</time>
      </trkpt>
      <trkpt lat="43.33155" lon="-1.44797">
        <ele>88</ele>
        <time>2026-08-23T14:25:09.000Z</time>
      </trkpt>
      <trkpt lat="43.33161" lon="-1.44783">
        <ele>89</ele>
        <time>2026-08-23T14:25:11.000Z</time>
      </trkpt>
      <trkpt lat="43.33169" lon="-1.44769">
        <ele>89</ele>
        <time>2026-08-23T14:25:13.000Z</time>
      </trkpt>
      <trkpt lat="43.33177" lon="-1.44757">
        <ele>88</ele>
        <time>2026-08-23T14:25:15.000Z</time>
      </trkpt>
      <trkpt lat="43.33186" lon="-1.44746">
        <ele>88</ele>
        <time>2026-08-23T14:25:18.000Z</time>
      </trkpt>
      <trkpt lat="43.33196" lon="-1.44737">
        <ele>89</ele>
        <time>2026-08-23T14:25:20.000Z</time>
      </trkpt>
      <trkpt lat="43.33205" lon="-1.44732">
        <ele>88</ele>
        <time>2026-08-23T14:25:21.000Z</time>
      </trkpt>
      <trkpt lat="43.33215" lon="-1.4473">
        <ele>87</ele>
        <time>2026-08-23T14:25:23.000Z</time>
      </trkpt>
      <trkpt lat="43.33227" lon="-1.44727">
        <ele>86</ele>
        <time>2026-08-23T14:25:25.000Z</time>
      </trkpt>
      <trkpt lat="43.33265" lon="-1.44722">
        <ele>81</ele>
        <time>2026-08-23T14:25:32.000Z</time>
      </trkpt>
      <trkpt lat="43.33288" lon="-1.44718">
        <ele>81</ele>
        <time>2026-08-23T14:25:36.000Z</time>
      </trkpt>
      <trkpt lat="43.33304" lon="-1.44715">
        <ele>80</ele>
        <time>2026-08-23T14:25:39.000Z</time>
      </trkpt>
      <trkpt lat="43.33318" lon="-1.44711">
        <ele>79</ele>
        <time>2026-08-23T14:25:42.000Z</time>
      </trkpt>
      <trkpt lat="43.33331" lon="-1.44705">
        <ele>79</ele>
        <time>2026-08-23T14:25:44.000Z</time>
      </trkpt>
      <trkpt lat="43.3334" lon="-1.44698">
        <ele>80</ele>
        <time>2026-08-23T14:25:46.000Z</time>
      </trkpt>
      <trkpt lat="43.33349" lon="-1.4469">
        <ele>81</ele>
        <time>2026-08-23T14:25:48.000Z</time>
      </trkpt>
      <trkpt lat="43.33355" lon="-1.44681">
        <ele>82</ele>
        <time>2026-08-23T14:25:50.000Z</time>
      </trkpt>
      <trkpt lat="43.33361" lon="-1.4467">
        <ele>83</ele>
        <time>2026-08-23T14:25:51.000Z</time>
      </trkpt>
      <trkpt lat="43.33368" lon="-1.44649">
        <ele>84</ele>
        <time>2026-08-23T14:25:54.000Z</time>
      </trkpt>
      <trkpt lat="43.33382" lon="-1.4461">
        <ele>83</ele>
        <time>2026-08-23T14:26:00.000Z</time>
      </trkpt>
      <trkpt lat="43.33394" lon="-1.44574">
        <ele>80</ele>
        <time>2026-08-23T14:26:05.000Z</time>
      </trkpt>
      <trkpt lat="43.33397" lon="-1.44566">
        <ele>80</ele>
        <time>2026-08-23T14:26:06.000Z</time>
      </trkpt>
      <trkpt lat="43.334" lon="-1.44559">
        <ele>80</ele>
        <time>2026-08-23T14:26:07.000Z</time>
      </trkpt>
      <trkpt lat="43.33406" lon="-1.44551">
        <ele>80</ele>
        <time>2026-08-23T14:26:09.000Z</time>
      </trkpt>
      <trkpt lat="43.33413" lon="-1.44544">
        <ele>79</ele>
        <time>2026-08-23T14:26:10.000Z</time>
      </trkpt>
      <trkpt lat="43.33418" lon="-1.44541">
        <ele>78</ele>
        <time>2026-08-23T14:26:11.000Z</time>
      </trkpt>
      <trkpt lat="43.33422" lon="-1.44538">
        <ele>78</ele>
        <time>2026-08-23T14:26:12.000Z</time>
      </trkpt>
      <trkpt lat="43.33434" lon="-1.44534">
        <ele>78</ele>
        <time>2026-08-23T14:26:14.000Z</time>
      </trkpt>
      <trkpt lat="43.33447" lon="-1.44533">
        <ele>78</ele>
        <time>2026-08-23T14:26:17.000Z</time>
      </trkpt>
      <trkpt lat="43.33463" lon="-1.44535">
        <ele>77</ele>
        <time>2026-08-23T14:26:19.000Z</time>
      </trkpt>
      <trkpt lat="43.33485" lon="-1.44544">
        <ele>78</ele>
        <time>2026-08-23T14:26:24.000Z</time>
      </trkpt>
      <trkpt lat="43.3351" lon="-1.44559">
        <ele>80</ele>
        <time>2026-08-23T14:26:28.000Z</time>
      </trkpt>
      <trkpt lat="43.33536" lon="-1.44578">
        <ele>80</ele>
        <time>2026-08-23T14:26:34.000Z</time>
      </trkpt>
      <trkpt lat="43.33555" lon="-1.44595">
        <ele>81</ele>
        <time>2026-08-23T14:26:38.000Z</time>
      </trkpt>
      <trkpt lat="43.3358" lon="-1.44611">
        <ele>81</ele>
        <time>2026-08-23T14:26:43.000Z</time>
      </trkpt>
      <trkpt lat="43.33593" lon="-1.44617">
        <ele>81</ele>
        <time>2026-08-23T14:26:45.000Z</time>
      </trkpt>
      <trkpt lat="43.33605" lon="-1.44622">
        <ele>82</ele>
        <time>2026-08-23T14:26:47.000Z</time>
      </trkpt>
      <trkpt lat="43.33615" lon="-1.44623">
        <ele>81</ele>
        <time>2026-08-23T14:26:49.000Z</time>
      </trkpt>
      <trkpt lat="43.33619" lon="-1.44622">
        <ele>81</ele>
        <time>2026-08-23T14:26:50.000Z</time>
      </trkpt>
      <trkpt lat="43.33629" lon="-1.44621">
        <ele>81</ele>
        <time>2026-08-23T14:26:52.000Z</time>
      </trkpt>
      <trkpt lat="43.33633" lon="-1.4462">
        <ele>80</ele>
        <time>2026-08-23T14:26:52.000Z</time>
      </trkpt>
      <trkpt lat="43.33647" lon="-1.44617">
        <ele>79</ele>
        <time>2026-08-23T14:26:55.000Z</time>
      </trkpt>
      <trkpt lat="43.33665" lon="-1.44615">
        <ele>79</ele>
        <time>2026-08-23T14:26:58.000Z</time>
      </trkpt>
      <trkpt lat="43.33684" lon="-1.44614">
        <ele>78</ele>
        <time>2026-08-23T14:27:01.000Z</time>
      </trkpt>
      <trkpt lat="43.33698" lon="-1.44614">
        <ele>78</ele>
        <time>2026-08-23T14:27:04.000Z</time>
      </trkpt>
      <trkpt lat="43.33698" lon="-1.44614">
        <ele>78</ele>
        <time>2026-08-23T14:27:04.000Z</time>
      </trkpt>
      <trkpt lat="43.33697" lon="-1.44622">
        <ele>79</ele>
        <time>2026-08-23T14:27:05.000Z</time>
      </trkpt>
      <trkpt lat="43.33697" lon="-1.44622">
        <ele>79</ele>
        <time>2026-08-23T14:27:05.000Z</time>
      </trkpt>
      <trkpt lat="43.33698" lon="-1.44614">
        <ele>78</ele>
        <time>2026-08-23T14:27:06.000Z</time>
      </trkpt>
      <trkpt lat="43.33698" lon="-1.44614">
        <ele>78</ele>
        <time>2026-08-23T14:27:06.000Z</time>
      </trkpt>
      <trkpt lat="43.33717" lon="-1.44616">
        <ele>78</ele>
        <time>2026-08-23T14:27:09.000Z</time>
      </trkpt>
      <trkpt lat="43.33743" lon="-1.44618">
        <ele>78</ele>
        <time>2026-08-23T14:27:14.000Z</time>
      </trkpt>
      <trkpt lat="43.33756" lon="-1.44619">
        <ele>78</ele>
        <time>2026-08-23T14:27:16.000Z</time>
      </trkpt>
      <trkpt lat="43.33764" lon="-1.44621">
        <ele>78</ele>
        <time>2026-08-23T14:27:18.000Z</time>
      </trkpt>
      <trkpt lat="43.33768" lon="-1.44622">
        <ele>78</ele>
        <time>2026-08-23T14:27:18.000Z</time>
      </trkpt>
      <trkpt lat="43.3378" lon="-1.44624">
        <ele>78</ele>
        <time>2026-08-23T14:27:21.000Z</time>
      </trkpt>
      <trkpt lat="43.33807" lon="-1.44634">
        <ele>79</ele>
        <time>2026-08-23T14:27:26.000Z</time>
      </trkpt>
      <trkpt lat="43.33812" lon="-1.44635">
        <ele>79</ele>
        <time>2026-08-23T14:27:26.000Z</time>
      </trkpt>
      <trkpt lat="43.33817" lon="-1.44639">
        <ele>79</ele>
        <time>2026-08-23T14:27:28.000Z</time>
      </trkpt>
      <trkpt lat="43.33821" lon="-1.44643">
        <ele>79</ele>
        <time>2026-08-23T14:27:28.000Z</time>
      </trkpt>
      <trkpt lat="43.3383" lon="-1.4465">
        <ele>79</ele>
        <time>2026-08-23T14:27:30.000Z</time>
      </trkpt>
      <trkpt lat="43.3383" lon="-1.4465">
        <ele>79</ele>
        <time>2026-08-23T14:27:30.000Z</time>
      </trkpt>
      <trkpt lat="43.33831" lon="-1.44649">
        <ele>79</ele>
        <time>2026-08-23T14:27:30.000Z</time>
      </trkpt>
      <trkpt lat="43.33831" lon="-1.44648">
        <ele>79</ele>
        <time>2026-08-23T14:27:31.000Z</time>
      </trkpt>
      <trkpt lat="43.33832" lon="-1.44648">
        <ele>79</ele>
        <time>2026-08-23T14:27:31.000Z</time>
      </trkpt>
      <trkpt lat="43.33832" lon="-1.44647">
        <ele>79</ele>
        <time>2026-08-23T14:27:31.000Z</time>
      </trkpt>
      <trkpt lat="43.33833" lon="-1.44647">
        <ele>79</ele>
        <time>2026-08-23T14:27:31.000Z</time>
      </trkpt>
      <trkpt lat="43.33834" lon="-1.44647">
        <ele>79</ele>
        <time>2026-08-23T14:27:31.000Z</time>
      </trkpt>
      <trkpt lat="43.33834" lon="-1.44646">
        <ele>79</ele>
        <time>2026-08-23T14:27:31.000Z</time>
      </trkpt>
      <trkpt lat="43.33835" lon="-1.44646">
        <ele>79</ele>
        <time>2026-08-23T14:27:32.000Z</time>
      </trkpt>
      <trkpt lat="43.33836" lon="-1.44646">
        <ele>79</ele>
        <time>2026-08-23T14:27:32.000Z</time>
      </trkpt>
      <trkpt lat="43.33837" lon="-1.44646">
        <ele>79</ele>
        <time>2026-08-23T14:27:32.000Z</time>
      </trkpt>
      <trkpt lat="43.33838" lon="-1.44646">
        <ele>79</ele>
        <time>2026-08-23T14:27:32.000Z</time>
      </trkpt>
      <trkpt lat="43.33839" lon="-1.44646">
        <ele>79</ele>
        <time>2026-08-23T14:27:32.000Z</time>
      </trkpt>
      <trkpt lat="43.3384" lon="-1.44646">
        <ele>79</ele>
        <time>2026-08-23T14:27:32.000Z</time>
      </trkpt>
      <trkpt lat="43.3384" lon="-1.44647">
        <ele>79</ele>
        <time>2026-08-23T14:27:33.000Z</time>
      </trkpt>
      <trkpt lat="43.33841" lon="-1.44647">
        <ele>79</ele>
        <time>2026-08-23T14:27:33.000Z</time>
      </trkpt>
      <trkpt lat="43.33842" lon="-1.44647">
        <ele>79</ele>
        <time>2026-08-23T14:27:33.000Z</time>
      </trkpt>
      <trkpt lat="43.33842" lon="-1.44648">
        <ele>79</ele>
        <time>2026-08-23T14:27:33.000Z</time>
      </trkpt>
      <trkpt lat="43.33843" lon="-1.44648">
        <ele>79</ele>
        <time>2026-08-23T14:27:33.000Z</time>
      </trkpt>
      <trkpt lat="43.33843" lon="-1.44649">
        <ele>79</ele>
        <time>2026-08-23T14:27:33.000Z</time>
      </trkpt>
      <trkpt lat="43.33844" lon="-1.44649">
        <ele>79</ele>
        <time>2026-08-23T14:27:34.000Z</time>
      </trkpt>
      <trkpt lat="43.33844" lon="-1.4465">
        <ele>79</ele>
        <time>2026-08-23T14:27:34.000Z</time>
      </trkpt>
      <trkpt lat="43.33845" lon="-1.44651">
        <ele>79</ele>
        <time>2026-08-23T14:27:34.000Z</time>
      </trkpt>
      <trkpt lat="43.33845" lon="-1.44652">
        <ele>79</ele>
        <time>2026-08-23T14:27:34.000Z</time>
      </trkpt>
      <trkpt lat="43.33846" lon="-1.44653">
        <ele>79</ele>
        <time>2026-08-23T14:27:34.000Z</time>
      </trkpt>
      <trkpt lat="43.33846" lon="-1.44654">
        <ele>79</ele>
        <time>2026-08-23T14:27:34.000Z</time>
      </trkpt>
      <trkpt lat="43.33846" lon="-1.44655">
        <ele>79</ele>
        <time>2026-08-23T14:27:34.000Z</time>
      </trkpt>
      <trkpt lat="43.33847" lon="-1.44655">
        <ele>79</ele>
        <time>2026-08-23T14:27:35.000Z</time>
      </trkpt>
      <trkpt lat="43.33847" lon="-1.44656">
        <ele>79</ele>
        <time>2026-08-23T14:27:35.000Z</time>
      </trkpt>
      <trkpt lat="43.33847" lon="-1.44657">
        <ele>79</ele>
        <time>2026-08-23T14:27:35.000Z</time>
      </trkpt>
      <trkpt lat="43.33847" lon="-1.44658">
        <ele>79</ele>
        <time>2026-08-23T14:27:35.000Z</time>
      </trkpt>
      <trkpt lat="43.33847" lon="-1.44659">
        <ele>79</ele>
        <time>2026-08-23T14:27:35.000Z</time>
      </trkpt>
      <trkpt lat="43.33847" lon="-1.4466">
        <ele>79</ele>
        <time>2026-08-23T14:27:35.000Z</time>
      </trkpt>
      <trkpt lat="43.33847" lon="-1.44661">
        <ele>79</ele>
        <time>2026-08-23T14:27:35.000Z</time>
      </trkpt>
      <trkpt lat="43.33847" lon="-1.44662">
        <ele>79</ele>
        <time>2026-08-23T14:27:36.000Z</time>
      </trkpt>
      <trkpt lat="43.33847" lon="-1.44663">
        <ele>79</ele>
        <time>2026-08-23T14:27:36.000Z</time>
      </trkpt>
      <trkpt lat="43.33846" lon="-1.44664">
        <ele>79</ele>
        <time>2026-08-23T14:27:36.000Z</time>
      </trkpt>
      <trkpt lat="43.33846" lon="-1.44665">
        <ele>79</ele>
        <time>2026-08-23T14:27:36.000Z</time>
      </trkpt>
      <trkpt lat="43.33846" lon="-1.44666">
        <ele>79</ele>
        <time>2026-08-23T14:27:36.000Z</time>
      </trkpt>
      <trkpt lat="43.33845" lon="-1.44667">
        <ele>79</ele>
        <time>2026-08-23T14:27:36.000Z</time>
      </trkpt>
      <trkpt lat="43.33845" lon="-1.44668">
        <ele>79</ele>
        <time>2026-08-23T14:27:37.000Z</time>
      </trkpt>
      <trkpt lat="43.33844" lon="-1.44669">
        <ele>79</ele>
        <time>2026-08-23T14:27:37.000Z</time>
      </trkpt>
      <trkpt lat="43.33843" lon="-1.4467">
        <ele>79</ele>
        <time>2026-08-23T14:27:37.000Z</time>
      </trkpt>
      <trkpt lat="43.33843" lon="-1.44671">
        <ele>79</ele>
        <time>2026-08-23T14:27:37.000Z</time>
      </trkpt>
      <trkpt lat="43.33842" lon="-1.44671">
        <ele>79</ele>
        <time>2026-08-23T14:27:37.000Z</time>
      </trkpt>
      <trkpt lat="43.33843" lon="-1.4469">
        <ele>78</ele>
        <time>2026-08-23T14:27:40.000Z</time>
      </trkpt>
      <trkpt lat="43.33843" lon="-1.44697">
        <ele>78</ele>
        <time>2026-08-23T14:27:41.000Z</time>
      </trkpt>
      <trkpt lat="43.33842" lon="-1.44699">
        <ele>78</ele>
        <time>2026-08-23T14:27:41.000Z</time>
      </trkpt>
      <trkpt lat="43.3384" lon="-1.44707">
        <ele>78</ele>
        <time>2026-08-23T14:27:42.000Z</time>
      </trkpt>
      <trkpt lat="43.33841" lon="-1.4474">
        <ele>77</ele>
        <time>2026-08-23T14:27:46.000Z</time>
      </trkpt>
      <trkpt lat="43.33842" lon="-1.44774">
        <ele>76</ele>
        <time>2026-08-23T14:27:51.000Z</time>
      </trkpt>
      <trkpt lat="43.33841" lon="-1.44801">
        <ele>75</ele>
        <time>2026-08-23T14:27:54.000Z</time>
      </trkpt>
      <trkpt lat="43.33842" lon="-1.44818">
        <ele>74</ele>
        <time>2026-08-23T14:27:56.000Z</time>
      </trkpt>
      <trkpt lat="43.33842" lon="-1.44832">
        <ele>73</ele>
        <time>2026-08-23T14:27:58.000Z</time>
      </trkpt>
      <trkpt lat="43.33843" lon="-1.44843">
        <ele>73</ele>
        <time>2026-08-23T14:28:00.000Z</time>
      </trkpt>
      <trkpt lat="43.33845" lon="-1.44855">
        <ele>73</ele>
        <time>2026-08-23T14:28:01.000Z</time>
      </trkpt>
      <trkpt lat="43.33849" lon="-1.44868">
        <ele>73</ele>
        <time>2026-08-23T14:28:03.000Z</time>
      </trkpt>
      <trkpt lat="43.33854" lon="-1.44883">
        <ele>73</ele>
        <time>2026-08-23T14:28:05.000Z</time>
      </trkpt>
      <trkpt lat="43.33859" lon="-1.44894">
        <ele>73</ele>
        <time>2026-08-23T14:28:07.000Z</time>
      </trkpt>
      <trkpt lat="43.33866" lon="-1.4491">
        <ele>72</ele>
        <time>2026-08-23T14:28:09.000Z</time>
      </trkpt>
      <trkpt lat="43.33879" lon="-1.44932">
        <ele>71</ele>
        <time>2026-08-23T14:28:13.000Z</time>
      </trkpt>
      <trkpt lat="43.33896" lon="-1.44961">
        <ele>70</ele>
        <time>2026-08-23T14:28:18.000Z</time>
      </trkpt>
      <trkpt lat="43.33953" lon="-1.45059">
        <ele>67</ele>
        <time>2026-08-23T14:28:34.000Z</time>
      </trkpt>
      <trkpt lat="43.33986" lon="-1.45117">
        <ele>63</ele>
        <time>2026-08-23T14:28:44.000Z</time>
      </trkpt>
      <trkpt lat="43.33995" lon="-1.45125">
        <ele>62</ele>
        <time>2026-08-23T14:28:45.000Z</time>
      </trkpt>
      <trkpt lat="43.33998" lon="-1.45128">
        <ele>62</ele>
        <time>2026-08-23T14:28:46.000Z</time>
      </trkpt>
      <trkpt lat="43.34007" lon="-1.45132">
        <ele>62</ele>
        <time>2026-08-23T14:28:48.000Z</time>
      </trkpt>
      <trkpt lat="43.34007" lon="-1.45132">
        <ele>62</ele>
        <time>2026-08-23T14:28:48.000Z</time>
      </trkpt>
      <trkpt lat="43.34008" lon="-1.45132">
        <ele>62</ele>
        <time>2026-08-23T14:28:48.000Z</time>
      </trkpt>
      <trkpt lat="43.34009" lon="-1.45133">
        <ele>62</ele>
        <time>2026-08-23T14:28:48.000Z</time>
      </trkpt>
      <trkpt lat="43.3401" lon="-1.45133">
        <ele>62</ele>
        <time>2026-08-23T14:28:48.000Z</time>
      </trkpt>
      <trkpt lat="43.34011" lon="-1.45134">
        <ele>62</ele>
        <time>2026-08-23T14:28:49.000Z</time>
      </trkpt>
      <trkpt lat="43.34012" lon="-1.45135">
        <ele>62</ele>
        <time>2026-08-23T14:28:49.000Z</time>
      </trkpt>
      <trkpt lat="43.34013" lon="-1.45135">
        <ele>62</ele>
        <time>2026-08-23T14:28:49.000Z</time>
      </trkpt>
      <trkpt lat="43.34013" lon="-1.45136">
        <ele>62</ele>
        <time>2026-08-23T14:28:49.000Z</time>
      </trkpt>
      <trkpt lat="43.34014" lon="-1.45136">
        <ele>62</ele>
        <time>2026-08-23T14:28:49.000Z</time>
      </trkpt>
      <trkpt lat="43.34015" lon="-1.45137">
        <ele>62</ele>
        <time>2026-08-23T14:28:50.000Z</time>
      </trkpt>
      <trkpt lat="43.34015" lon="-1.45138">
        <ele>62</ele>
        <time>2026-08-23T14:28:50.000Z</time>
      </trkpt>
      <trkpt lat="43.34016" lon="-1.45139">
        <ele>62</ele>
        <time>2026-08-23T14:28:50.000Z</time>
      </trkpt>
      <trkpt lat="43.34016" lon="-1.4514">
        <ele>62</ele>
        <time>2026-08-23T14:28:50.000Z</time>
      </trkpt>
      <trkpt lat="43.34017" lon="-1.45141">
        <ele>62</ele>
        <time>2026-08-23T14:28:50.000Z</time>
      </trkpt>
      <trkpt lat="43.34017" lon="-1.45142">
        <ele>62</ele>
        <time>2026-08-23T14:28:50.000Z</time>
      </trkpt>
      <trkpt lat="43.34018" lon="-1.45143">
        <ele>62</ele>
        <time>2026-08-23T14:28:51.000Z</time>
      </trkpt>
      <trkpt lat="43.34018" lon="-1.45144">
        <ele>62</ele>
        <time>2026-08-23T14:28:51.000Z</time>
      </trkpt>
      <trkpt lat="43.34018" lon="-1.45145">
        <ele>62</ele>
        <time>2026-08-23T14:28:51.000Z</time>
      </trkpt>
      <trkpt lat="43.34018" lon="-1.45146">
        <ele>62</ele>
        <time>2026-08-23T14:28:51.000Z</time>
      </trkpt>
      <trkpt lat="43.34019" lon="-1.45147">
        <ele>62</ele>
        <time>2026-08-23T14:28:51.000Z</time>
      </trkpt>
      <trkpt lat="43.34019" lon="-1.45148">
        <ele>62</ele>
        <time>2026-08-23T14:28:51.000Z</time>
      </trkpt>
      <trkpt lat="43.34019" lon="-1.45149">
        <ele>62</ele>
        <time>2026-08-23T14:28:51.000Z</time>
      </trkpt>
      <trkpt lat="43.34019" lon="-1.4515">
        <ele>62</ele>
        <time>2026-08-23T14:28:52.000Z</time>
      </trkpt>
      <trkpt lat="43.34019" lon="-1.45151">
        <ele>62</ele>
        <time>2026-08-23T14:28:52.000Z</time>
      </trkpt>
      <trkpt lat="43.34019" lon="-1.45152">
        <ele>62</ele>
        <time>2026-08-23T14:28:52.000Z</time>
      </trkpt>
      <trkpt lat="43.34019" lon="-1.45154">
        <ele>61</ele>
        <time>2026-08-23T14:28:52.000Z</time>
      </trkpt>
      <trkpt lat="43.34018" lon="-1.45155">
        <ele>61</ele>
        <time>2026-08-23T14:28:52.000Z</time>
      </trkpt>
      <trkpt lat="43.34018" lon="-1.45156">
        <ele>61</ele>
        <time>2026-08-23T14:28:52.000Z</time>
      </trkpt>
      <trkpt lat="43.34018" lon="-1.45157">
        <ele>61</ele>
        <time>2026-08-23T14:28:53.000Z</time>
      </trkpt>
      <trkpt lat="43.34018" lon="-1.45158">
        <ele>61</ele>
        <time>2026-08-23T14:28:53.000Z</time>
      </trkpt>
      <trkpt lat="43.34017" lon="-1.45159">
        <ele>61</ele>
        <time>2026-08-23T14:28:53.000Z</time>
      </trkpt>
      <trkpt lat="43.34017" lon="-1.4516">
        <ele>61</ele>
        <time>2026-08-23T14:28:53.000Z</time>
      </trkpt>
      <trkpt lat="43.34017" lon="-1.45161">
        <ele>61</ele>
        <time>2026-08-23T14:28:53.000Z</time>
      </trkpt>
      <trkpt lat="43.34016" lon="-1.45162">
        <ele>61</ele>
        <time>2026-08-23T14:28:53.000Z</time>
      </trkpt>
      <trkpt lat="43.34016" lon="-1.45163">
        <ele>61</ele>
        <time>2026-08-23T14:28:54.000Z</time>
      </trkpt>
      <trkpt lat="43.34015" lon="-1.45163">
        <ele>61</ele>
        <time>2026-08-23T14:28:54.000Z</time>
      </trkpt>
      <trkpt lat="43.34015" lon="-1.45164">
        <ele>61</ele>
        <time>2026-08-23T14:28:54.000Z</time>
      </trkpt>
      <trkpt lat="43.34014" lon="-1.45165">
        <ele>61</ele>
        <time>2026-08-23T14:28:54.000Z</time>
      </trkpt>
      <trkpt lat="43.34013" lon="-1.45166">
        <ele>61</ele>
        <time>2026-08-23T14:28:54.000Z</time>
      </trkpt>
      <trkpt lat="43.34012" lon="-1.45167">
        <ele>60</ele>
        <time>2026-08-23T14:28:55.000Z</time>
      </trkpt>
      <trkpt lat="43.34011" lon="-1.45167">
        <ele>60</ele>
        <time>2026-08-23T14:28:55.000Z</time>
      </trkpt>
      <trkpt lat="43.3401" lon="-1.45168">
        <ele>60</ele>
        <time>2026-08-23T14:28:55.000Z</time>
      </trkpt>
      <trkpt lat="43.34009" lon="-1.45169">
        <ele>60</ele>
        <time>2026-08-23T14:28:55.000Z</time>
      </trkpt>
      <trkpt lat="43.34008" lon="-1.45169">
        <ele>60</ele>
        <time>2026-08-23T14:28:55.000Z</time>
      </trkpt>
      <trkpt lat="43.34007" lon="-1.45169">
        <ele>60</ele>
        <time>2026-08-23T14:28:55.000Z</time>
      </trkpt>
      <trkpt lat="43.34006" lon="-1.45169">
        <ele>60</ele>
        <time>2026-08-23T14:28:56.000Z</time>
      </trkpt>
      <trkpt lat="43.34005" lon="-1.45169">
        <ele>60</ele>
        <time>2026-08-23T14:28:56.000Z</time>
      </trkpt>
      <trkpt lat="43.34004" lon="-1.45169">
        <ele>60</ele>
        <time>2026-08-23T14:28:56.000Z</time>
      </trkpt>
      <trkpt lat="43.34003" lon="-1.45169">
        <ele>60</ele>
        <time>2026-08-23T14:28:56.000Z</time>
      </trkpt>
      <trkpt lat="43.34002" lon="-1.45169">
        <ele>60</ele>
        <time>2026-08-23T14:28:56.000Z</time>
      </trkpt>
      <trkpt lat="43.34001" lon="-1.45168">
        <ele>60</ele>
        <time>2026-08-23T14:28:57.000Z</time>
      </trkpt>
      <trkpt lat="43.33999" lon="-1.45168">
        <ele>60</ele>
        <time>2026-08-23T14:28:57.000Z</time>
      </trkpt>
      <trkpt lat="43.33998" lon="-1.45174">
        <ele>60</ele>
        <time>2026-08-23T14:28:58.000Z</time>
      </trkpt>
      <trkpt lat="43.33995" lon="-1.45185">
        <ele>60</ele>
        <time>2026-08-23T14:28:59.000Z</time>
      </trkpt>
      <trkpt lat="43.33991" lon="-1.45199">
        <ele>60</ele>
        <time>2026-08-23T14:29:01.000Z</time>
      </trkpt>
      <trkpt lat="43.33989" lon="-1.45208">
        <ele>60</ele>
        <time>2026-08-23T14:29:02.000Z</time>
      </trkpt>
      <trkpt lat="43.33988" lon="-1.45218">
        <ele>60</ele>
        <time>2026-08-23T14:29:04.000Z</time>
      </trkpt>
      <trkpt lat="43.33986" lon="-1.45227">
        <ele>60</ele>
        <time>2026-08-23T14:29:05.000Z</time>
      </trkpt>
      <trkpt lat="43.33983" lon="-1.45236">
        <ele>60</ele>
        <time>2026-08-23T14:29:06.000Z</time>
      </trkpt>
      <trkpt lat="43.33979" lon="-1.45245">
        <ele>60</ele>
        <time>2026-08-23T14:29:08.000Z</time>
      </trkpt>
      <trkpt lat="43.33977" lon="-1.4525">
        <ele>60</ele>
        <time>2026-08-23T14:29:08.000Z</time>
      </trkpt>
      <trkpt lat="43.33975" lon="-1.45255">
        <ele>60</ele>
        <time>2026-08-23T14:29:09.000Z</time>
      </trkpt>
      <trkpt lat="43.3397" lon="-1.45263">
        <ele>60</ele>
        <time>2026-08-23T14:29:10.000Z</time>
      </trkpt>
      <trkpt lat="43.33967" lon="-1.45268">
        <ele>60</ele>
        <time>2026-08-23T14:29:11.000Z</time>
      </trkpt>
      <trkpt lat="43.33964" lon="-1.45272">
        <ele>60</ele>
        <time>2026-08-23T14:29:12.000Z</time>
      </trkpt>
      <trkpt lat="43.33958" lon="-1.45279">
        <ele>60</ele>
        <time>2026-08-23T14:29:13.000Z</time>
      </trkpt>
      <trkpt lat="43.33942" lon="-1.45295">
        <ele>60</ele>
        <time>2026-08-23T14:29:17.000Z</time>
      </trkpt>
      <trkpt lat="43.3393" lon="-1.45306">
        <ele>60</ele>
        <time>2026-08-23T14:29:20.000Z</time>
      </trkpt>
      <trkpt lat="43.33908" lon="-1.45326">
        <ele>61</ele>
        <time>2026-08-23T14:29:24.000Z</time>
      </trkpt>
      <trkpt lat="43.33893" lon="-1.45341">
        <ele>60</ele>
        <time>2026-08-23T14:29:28.000Z</time>
      </trkpt>
      <trkpt lat="43.3388" lon="-1.45355">
        <ele>60</ele>
        <time>2026-08-23T14:29:30.000Z</time>
      </trkpt>
      <trkpt lat="43.33872" lon="-1.45363">
        <ele>60</ele>
        <time>2026-08-23T14:29:32.000Z</time>
      </trkpt>
      <trkpt lat="43.33868" lon="-1.45367">
        <ele>60</ele>
        <time>2026-08-23T14:29:33.000Z</time>
      </trkpt>
      <trkpt lat="43.33862" lon="-1.45374">
        <ele>60</ele>
        <time>2026-08-23T14:29:34.000Z</time>
      </trkpt>
      <trkpt lat="43.33855" lon="-1.45383">
        <ele>59</ele>
        <time>2026-08-23T14:29:36.000Z</time>
      </trkpt>
      <trkpt lat="43.33849" lon="-1.45391">
        <ele>59</ele>
        <time>2026-08-23T14:29:38.000Z</time>
      </trkpt>
      <trkpt lat="43.3384" lon="-1.45405">
        <ele>59</ele>
        <time>2026-08-23T14:29:40.000Z</time>
      </trkpt>
      <trkpt lat="43.33832" lon="-1.45421">
        <ele>59</ele>
        <time>2026-08-23T14:29:43.000Z</time>
      </trkpt>
      <trkpt lat="43.33828" lon="-1.4543">
        <ele>59</ele>
        <time>2026-08-23T14:29:44.000Z</time>
      </trkpt>
      <trkpt lat="43.33825" lon="-1.45438">
        <ele>60</ele>
        <time>2026-08-23T14:29:45.000Z</time>
      </trkpt>
      <trkpt lat="43.33821" lon="-1.45451">
        <ele>60</ele>
        <time>2026-08-23T14:29:47.000Z</time>
      </trkpt>
      <trkpt lat="43.33816" lon="-1.45463">
        <ele>61</ele>
        <time>2026-08-23T14:29:49.000Z</time>
      </trkpt>
      <trkpt lat="43.33812" lon="-1.45474">
        <ele>61</ele>
        <time>2026-08-23T14:29:50.000Z</time>
      </trkpt>
      <trkpt lat="43.33804" lon="-1.45498">
        <ele>62</ele>
        <time>2026-08-23T14:29:54.000Z</time>
      </trkpt>
      <trkpt lat="43.33794" lon="-1.4552">
        <ele>62</ele>
        <time>2026-08-23T14:29:57.000Z</time>
      </trkpt>
      <trkpt lat="43.33785" lon="-1.4554">
        <ele>63</ele>
        <time>2026-08-23T14:30:00.000Z</time>
      </trkpt>
      <trkpt lat="43.33773" lon="-1.45563">
        <ele>62</ele>
        <time>2026-08-23T14:30:04.000Z</time>
      </trkpt>
      <trkpt lat="43.33763" lon="-1.45583">
        <ele>62</ele>
        <time>2026-08-23T14:30:07.000Z</time>
      </trkpt>
      <trkpt lat="43.33748" lon="-1.45605">
        <ele>61</ele>
        <time>2026-08-23T14:30:11.000Z</time>
      </trkpt>
      <trkpt lat="43.33735" lon="-1.45625">
        <ele>62</ele>
        <time>2026-08-23T14:30:14.000Z</time>
      </trkpt>
      <trkpt lat="43.33707" lon="-1.45666">
        <ele>64</ele>
        <time>2026-08-23T14:30:22.000Z</time>
      </trkpt>
      <trkpt lat="43.33678" lon="-1.45709">
        <ele>64</ele>
        <time>2026-08-23T14:30:29.000Z</time>
      </trkpt>
      <trkpt lat="43.33655" lon="-1.45743">
        <ele>62</ele>
        <time>2026-08-23T14:30:35.000Z</time>
      </trkpt>
      <trkpt lat="43.3363" lon="-1.45779">
        <ele>65</ele>
        <time>2026-08-23T14:30:42.000Z</time>
      </trkpt>
      <trkpt lat="43.33616" lon="-1.458">
        <ele>67</ele>
        <time>2026-08-23T14:30:45.000Z</time>
      </trkpt>
      <trkpt lat="43.33596" lon="-1.45829">
        <ele>67</ele>
        <time>2026-08-23T14:30:51.000Z</time>
      </trkpt>
      <trkpt lat="43.33584" lon="-1.45847">
        <ele>66</ele>
        <time>2026-08-23T14:30:54.000Z</time>
      </trkpt>
      <trkpt lat="43.33578" lon="-1.45856">
        <ele>67</ele>
        <time>2026-08-23T14:30:55.000Z</time>
      </trkpt>
      <trkpt lat="43.33571" lon="-1.45872">
        <ele>67</ele>
        <time>2026-08-23T14:30:58.000Z</time>
      </trkpt>
      <trkpt lat="43.33565" lon="-1.45884">
        <ele>67</ele>
        <time>2026-08-23T14:31:00.000Z</time>
      </trkpt>
      <trkpt lat="43.33562" lon="-1.45892">
        <ele>66</ele>
        <time>2026-08-23T14:31:01.000Z</time>
      </trkpt>
      <trkpt lat="43.33559" lon="-1.459">
        <ele>66</ele>
        <time>2026-08-23T14:31:02.000Z</time>
      </trkpt>
      <trkpt lat="43.33556" lon="-1.45911">
        <ele>65</ele>
        <time>2026-08-23T14:31:03.000Z</time>
      </trkpt>
      <trkpt lat="43.33554" lon="-1.45925">
        <ele>64</ele>
        <time>2026-08-23T14:31:05.000Z</time>
      </trkpt>
      <trkpt lat="43.33553" lon="-1.45933">
        <ele>63</ele>
        <time>2026-08-23T14:31:06.000Z</time>
      </trkpt>
      <trkpt lat="43.33552" lon="-1.45954">
        <ele>62</ele>
        <time>2026-08-23T14:31:09.000Z</time>
      </trkpt>
      <trkpt lat="43.33552" lon="-1.45963">
        <ele>61</ele>
        <time>2026-08-23T14:31:10.000Z</time>
      </trkpt>
      <trkpt lat="43.33553" lon="-1.45975">
        <ele>60</ele>
        <time>2026-08-23T14:31:12.000Z</time>
      </trkpt>
      <trkpt lat="43.33554" lon="-1.45987">
        <ele>59</ele>
        <time>2026-08-23T14:31:13.000Z</time>
      </trkpt>
      <trkpt lat="43.33556" lon="-1.45997">
        <ele>58</ele>
        <time>2026-08-23T14:31:15.000Z</time>
      </trkpt>
      <trkpt lat="43.33558" lon="-1.4601">
        <ele>58</ele>
        <time>2026-08-23T14:31:16.000Z</time>
      </trkpt>
      <trkpt lat="43.33564" lon="-1.4603">
        <ele>57</ele>
        <time>2026-08-23T14:31:19.000Z</time>
      </trkpt>
      <trkpt lat="43.33572" lon="-1.46058">
        <ele>57</ele>
        <time>2026-08-23T14:31:23.000Z</time>
      </trkpt>
      <trkpt lat="43.33579" lon="-1.46082">
        <ele>57</ele>
        <time>2026-08-23T14:31:26.000Z</time>
      </trkpt>
      <trkpt lat="43.3358" lon="-1.46092">
        <ele>57</ele>
        <time>2026-08-23T14:31:28.000Z</time>
      </trkpt>
      <trkpt lat="43.33585" lon="-1.46104">
        <ele>57</ele>
        <time>2026-08-23T14:31:30.000Z</time>
      </trkpt>
      <trkpt lat="43.33599" lon="-1.46129">
        <ele>57</ele>
        <time>2026-08-23T14:31:34.000Z</time>
      </trkpt>
      <trkpt lat="43.33609" lon="-1.46147">
        <ele>57</ele>
        <time>2026-08-23T14:31:37.000Z</time>
      </trkpt>
      <trkpt lat="43.33619" lon="-1.46164">
        <ele>56</ele>
        <time>2026-08-23T14:31:39.000Z</time>
      </trkpt>
      <trkpt lat="43.33626" lon="-1.46179">
        <ele>56</ele>
        <time>2026-08-23T14:31:42.000Z</time>
      </trkpt>
      <trkpt lat="43.33632" lon="-1.46191">
        <ele>56</ele>
        <time>2026-08-23T14:31:44.000Z</time>
      </trkpt>
      <trkpt lat="43.33633" lon="-1.46196">
        <ele>56</ele>
        <time>2026-08-23T14:31:44.000Z</time>
      </trkpt>
      <trkpt lat="43.33634" lon="-1.46198">
        <ele>56</ele>
        <time>2026-08-23T14:31:45.000Z</time>
      </trkpt>
      <trkpt lat="43.33639" lon="-1.46209">
        <ele>56</ele>
        <time>2026-08-23T14:31:46.000Z</time>
      </trkpt>
      <trkpt lat="43.33645" lon="-1.46232">
        <ele>56</ele>
        <time>2026-08-23T14:31:49.000Z</time>
      </trkpt>
      <trkpt lat="43.33646" lon="-1.46232">
        <ele>56</ele>
        <time>2026-08-23T14:31:50.000Z</time>
      </trkpt>
      <trkpt lat="43.33647" lon="-1.4624">
        <ele>56</ele>
        <time>2026-08-23T14:31:51.000Z</time>
      </trkpt>
      <trkpt lat="43.33651" lon="-1.46257">
        <ele>56</ele>
        <time>2026-08-23T14:31:53.000Z</time>
      </trkpt>
      <trkpt lat="43.33657" lon="-1.46288">
        <ele>56</ele>
        <time>2026-08-23T14:31:57.000Z</time>
      </trkpt>
      <trkpt lat="43.33665" lon="-1.46337">
        <ele>56</ele>
        <time>2026-08-23T14:32:04.000Z</time>
      </trkpt>
      <trkpt lat="43.33679" lon="-1.46424">
        <ele>59</ele>
        <time>2026-08-23T14:32:15.000Z</time>
      </trkpt>
      <trkpt lat="43.3369" lon="-1.46491">
        <ele>62</ele>
        <time>2026-08-23T14:32:24.000Z</time>
      </trkpt>
      <trkpt lat="43.33695" lon="-1.4652">
        <ele>63</ele>
        <time>2026-08-23T14:32:28.000Z</time>
      </trkpt>
      <trkpt lat="43.33697" lon="-1.46538">
        <ele>63</ele>
        <time>2026-08-23T14:32:30.000Z</time>
      </trkpt>
      <trkpt lat="43.33698" lon="-1.46546">
        <ele>64</ele>
        <time>2026-08-23T14:32:31.000Z</time>
      </trkpt>
      <trkpt lat="43.337" lon="-1.46557">
        <ele>64</ele>
        <time>2026-08-23T14:32:33.000Z</time>
      </trkpt>
      <trkpt lat="43.33701" lon="-1.46589">
        <ele>64</ele>
        <time>2026-08-23T14:32:37.000Z</time>
      </trkpt>
      <trkpt lat="43.337" lon="-1.46618">
        <ele>64</ele>
        <time>2026-08-23T14:32:41.000Z</time>
      </trkpt>
      <trkpt lat="43.337" lon="-1.46623">
        <ele>64</ele>
        <time>2026-08-23T14:32:41.000Z</time>
      </trkpt>
      <trkpt lat="43.33699" lon="-1.46652">
        <ele>65</ele>
        <time>2026-08-23T14:32:45.000Z</time>
      </trkpt>
      <trkpt lat="43.33698" lon="-1.46688">
        <ele>65</ele>
        <time>2026-08-23T14:32:50.000Z</time>
      </trkpt>
      <trkpt lat="43.33698" lon="-1.46705">
        <ele>66</ele>
        <time>2026-08-23T14:32:52.000Z</time>
      </trkpt>
      <trkpt lat="43.337" lon="-1.46715">
        <ele>66</ele>
        <time>2026-08-23T14:32:53.000Z</time>
      </trkpt>
      <trkpt lat="43.33702" lon="-1.46726">
        <ele>66</ele>
        <time>2026-08-23T14:32:55.000Z</time>
      </trkpt>
      <trkpt lat="43.33704" lon="-1.46742">
        <ele>66</ele>
        <time>2026-08-23T14:32:57.000Z</time>
      </trkpt>
      <trkpt lat="43.3371" lon="-1.46763">
        <ele>66</ele>
        <time>2026-08-23T14:33:00.000Z</time>
      </trkpt>
      <trkpt lat="43.33714" lon="-1.46776">
        <ele>66</ele>
        <time>2026-08-23T14:33:02.000Z</time>
      </trkpt>
      <trkpt lat="43.33719" lon="-1.46792">
        <ele>67</ele>
        <time>2026-08-23T14:33:04.000Z</time>
      </trkpt>
      <trkpt lat="43.33725" lon="-1.46803">
        <ele>67</ele>
        <time>2026-08-23T14:33:06.000Z</time>
      </trkpt>
      <trkpt lat="43.33731" lon="-1.46817">
        <ele>67</ele>
        <time>2026-08-23T14:33:08.000Z</time>
      </trkpt>
      <trkpt lat="43.33738" lon="-1.46829">
        <ele>67</ele>
        <time>2026-08-23T14:33:10.000Z</time>
      </trkpt>
      <trkpt lat="43.33744" lon="-1.4684">
        <ele>67</ele>
        <time>2026-08-23T14:33:11.000Z</time>
      </trkpt>
      <trkpt lat="43.33755" lon="-1.46855">
        <ele>67</ele>
        <time>2026-08-23T14:33:14.000Z</time>
      </trkpt>
      <trkpt lat="43.33761" lon="-1.46863">
        <ele>67</ele>
        <time>2026-08-23T14:33:16.000Z</time>
      </trkpt>
      <trkpt lat="43.33771" lon="-1.46875">
        <ele>67</ele>
        <time>2026-08-23T14:33:18.000Z</time>
      </trkpt>
      <trkpt lat="43.3379" lon="-1.4689">
        <ele>67</ele>
        <time>2026-08-23T14:33:22.000Z</time>
      </trkpt>
      <trkpt lat="43.33798" lon="-1.46896">
        <ele>67</ele>
        <time>2026-08-23T14:33:24.000Z</time>
      </trkpt>
      <trkpt lat="43.3382" lon="-1.46912">
        <ele>67</ele>
        <time>2026-08-23T14:33:28.000Z</time>
      </trkpt>
      <trkpt lat="43.3383" lon="-1.46921">
        <ele>67</ele>
        <time>2026-08-23T14:33:30.000Z</time>
      </trkpt>
      <trkpt lat="43.33853" lon="-1.46936">
        <ele>66</ele>
        <time>2026-08-23T14:33:35.000Z</time>
      </trkpt>
      <trkpt lat="43.33873" lon="-1.4695">
        <ele>65</ele>
        <time>2026-08-23T14:33:39.000Z</time>
      </trkpt>
      <trkpt lat="43.33886" lon="-1.46959">
        <ele>65</ele>
        <time>2026-08-23T14:33:41.000Z</time>
      </trkpt>
      <trkpt lat="43.33892" lon="-1.46965">
        <ele>64</ele>
        <time>2026-08-23T14:33:43.000Z</time>
      </trkpt>
      <trkpt lat="43.33905" lon="-1.46977">
        <ele>64</ele>
        <time>2026-08-23T14:33:45.000Z</time>
      </trkpt>
      <trkpt lat="43.33914" lon="-1.46986">
        <ele>63</ele>
        <time>2026-08-23T14:33:47.000Z</time>
      </trkpt>
      <trkpt lat="43.33928" lon="-1.47001">
        <ele>63</ele>
        <time>2026-08-23T14:33:50.000Z</time>
      </trkpt>
      <trkpt lat="43.33942" lon="-1.47018">
        <ele>63</ele>
        <time>2026-08-23T14:33:54.000Z</time>
      </trkpt>
      <trkpt lat="43.3395" lon="-1.47026">
        <ele>63</ele>
        <time>2026-08-23T14:33:56.000Z</time>
      </trkpt>
      <trkpt lat="43.33956" lon="-1.47034">
        <ele>63</ele>
        <time>2026-08-23T14:33:57.000Z</time>
      </trkpt>
      <trkpt lat="43.33961" lon="-1.47041">
        <ele>63</ele>
        <time>2026-08-23T14:33:58.000Z</time>
      </trkpt>
      <trkpt lat="43.33966" lon="-1.47046">
        <ele>63</ele>
        <time>2026-08-23T14:33:59.000Z</time>
      </trkpt>
      <trkpt lat="43.33971" lon="-1.47056">
        <ele>64</ele>
        <time>2026-08-23T14:34:01.000Z</time>
      </trkpt>
      <trkpt lat="43.33978" lon="-1.47067">
        <ele>64</ele>
        <time>2026-08-23T14:34:03.000Z</time>
      </trkpt>
      <trkpt lat="43.33988" lon="-1.47084">
        <ele>64</ele>
        <time>2026-08-23T14:34:06.000Z</time>
      </trkpt>
      <trkpt lat="43.33996" lon="-1.471">
        <ele>65</ele>
        <time>2026-08-23T14:34:08.000Z</time>
      </trkpt>
      <trkpt lat="43.34034" lon="-1.47178">
        <ele>64</ele>
        <time>2026-08-23T14:34:20.000Z</time>
      </trkpt>
      <trkpt lat="43.34046" lon="-1.47204">
        <ele>65</ele>
        <time>2026-08-23T14:34:24.000Z</time>
      </trkpt>
      <trkpt lat="43.34054" lon="-1.47223">
        <ele>65</ele>
        <time>2026-08-23T14:34:27.000Z</time>
      </trkpt>
      <trkpt lat="43.34059" lon="-1.47233">
        <ele>64</ele>
        <time>2026-08-23T14:34:29.000Z</time>
      </trkpt>
      <trkpt lat="43.34071" lon="-1.47265">
        <ele>64</ele>
        <time>2026-08-23T14:34:33.000Z</time>
      </trkpt>
      <trkpt lat="43.34071" lon="-1.47265">
        <ele>64</ele>
        <time>2026-08-23T14:34:33.000Z</time>
      </trkpt>
      <trkpt lat="43.34072" lon="-1.47264">
        <ele>64</ele>
        <time>2026-08-23T14:34:34.000Z</time>
      </trkpt>
      <trkpt lat="43.34073" lon="-1.47264">
        <ele>63</ele>
        <time>2026-08-23T14:34:34.000Z</time>
      </trkpt>
      <trkpt lat="43.34073" lon="-1.47263">
        <ele>63</ele>
        <time>2026-08-23T14:34:34.000Z</time>
      </trkpt>
      <trkpt lat="43.34074" lon="-1.47263">
        <ele>63</ele>
        <time>2026-08-23T14:34:34.000Z</time>
      </trkpt>
      <trkpt lat="43.34075" lon="-1.47263">
        <ele>63</ele>
        <time>2026-08-23T14:34:34.000Z</time>
      </trkpt>
      <trkpt lat="43.34076" lon="-1.47263">
        <ele>63</ele>
        <time>2026-08-23T14:34:35.000Z</time>
      </trkpt>
      <trkpt lat="43.34077" lon="-1.47262">
        <ele>63</ele>
        <time>2026-08-23T14:34:35.000Z</time>
      </trkpt>
      <trkpt lat="43.34078" lon="-1.47262">
        <ele>63</ele>
        <time>2026-08-23T14:34:35.000Z</time>
      </trkpt>
      <trkpt lat="43.34079" lon="-1.47262">
        <ele>62</ele>
        <time>2026-08-23T14:34:35.000Z</time>
      </trkpt>
      <trkpt lat="43.3408" lon="-1.47263">
        <ele>62</ele>
        <time>2026-08-23T14:34:35.000Z</time>
      </trkpt>
      <trkpt lat="43.34081" lon="-1.47263">
        <ele>62</ele>
        <time>2026-08-23T14:34:35.000Z</time>
      </trkpt>
      <trkpt lat="43.34082" lon="-1.47263">
        <ele>62</ele>
        <time>2026-08-23T14:34:36.000Z</time>
      </trkpt>
      <trkpt lat="43.34083" lon="-1.47264">
        <ele>62</ele>
        <time>2026-08-23T14:34:36.000Z</time>
      </trkpt>
      <trkpt lat="43.34084" lon="-1.47265">
        <ele>62</ele>
        <time>2026-08-23T14:34:36.000Z</time>
      </trkpt>
      <trkpt lat="43.34085" lon="-1.47266">
        <ele>62</ele>
        <time>2026-08-23T14:34:36.000Z</time>
      </trkpt>
      <trkpt lat="43.34086" lon="-1.47266">
        <ele>62</ele>
        <time>2026-08-23T14:34:36.000Z</time>
      </trkpt>
      <trkpt lat="43.34086" lon="-1.47267">
        <ele>62</ele>
        <time>2026-08-23T14:34:37.000Z</time>
      </trkpt>
      <trkpt lat="43.34087" lon="-1.47267">
        <ele>62</ele>
        <time>2026-08-23T14:34:37.000Z</time>
      </trkpt>
      <trkpt lat="43.34087" lon="-1.47268">
        <ele>62</ele>
        <time>2026-08-23T14:34:37.000Z</time>
      </trkpt>
      <trkpt lat="43.34088" lon="-1.47269">
        <ele>62</ele>
        <time>2026-08-23T14:34:37.000Z</time>
      </trkpt>
      <trkpt lat="43.34088" lon="-1.4727">
        <ele>62</ele>
        <time>2026-08-23T14:34:37.000Z</time>
      </trkpt>
      <trkpt lat="43.34089" lon="-1.47271">
        <ele>62</ele>
        <time>2026-08-23T14:34:37.000Z</time>
      </trkpt>
      <trkpt lat="43.34089" lon="-1.47272">
        <ele>62</ele>
        <time>2026-08-23T14:34:38.000Z</time>
      </trkpt>
      <trkpt lat="43.3409" lon="-1.47273">
        <ele>62</ele>
        <time>2026-08-23T14:34:38.000Z</time>
      </trkpt>
      <trkpt lat="43.3409" lon="-1.47274">
        <ele>62</ele>
        <time>2026-08-23T14:34:38.000Z</time>
      </trkpt>
      <trkpt lat="43.3409" lon="-1.47275">
        <ele>62</ele>
        <time>2026-08-23T14:34:38.000Z</time>
      </trkpt>
      <trkpt lat="43.3409" lon="-1.47276">
        <ele>62</ele>
        <time>2026-08-23T14:34:38.000Z</time>
      </trkpt>
      <trkpt lat="43.3409" lon="-1.47277">
        <ele>62</ele>
        <time>2026-08-23T14:34:38.000Z</time>
      </trkpt>
      <trkpt lat="43.34091" lon="-1.47278">
        <ele>62</ele>
        <time>2026-08-23T14:34:39.000Z</time>
      </trkpt>
      <trkpt lat="43.34091" lon="-1.47279">
        <ele>62</ele>
        <time>2026-08-23T14:34:39.000Z</time>
      </trkpt>
      <trkpt lat="43.34091" lon="-1.4728">
        <ele>63</ele>
        <time>2026-08-23T14:34:39.000Z</time>
      </trkpt>
      <trkpt lat="43.34091" lon="-1.47281">
        <ele>63</ele>
        <time>2026-08-23T14:34:39.000Z</time>
      </trkpt>
      <trkpt lat="43.34091" lon="-1.47282">
        <ele>63</ele>
        <time>2026-08-23T14:34:39.000Z</time>
      </trkpt>
      <trkpt lat="43.3409" lon="-1.47283">
        <ele>63</ele>
        <time>2026-08-23T14:34:39.000Z</time>
      </trkpt>
      <trkpt lat="43.3409" lon="-1.47284">
        <ele>63</ele>
        <time>2026-08-23T14:34:39.000Z</time>
      </trkpt>
      <trkpt lat="43.3409" lon="-1.47285">
        <ele>63</ele>
        <time>2026-08-23T14:34:40.000Z</time>
      </trkpt>
      <trkpt lat="43.3409" lon="-1.47286">
        <ele>63</ele>
        <time>2026-08-23T14:34:40.000Z</time>
      </trkpt>
      <trkpt lat="43.3409" lon="-1.47287">
        <ele>63</ele>
        <time>2026-08-23T14:34:40.000Z</time>
      </trkpt>
      <trkpt lat="43.34089" lon="-1.47288">
        <ele>63</ele>
        <time>2026-08-23T14:34:40.000Z</time>
      </trkpt>
      <trkpt lat="43.34089" lon="-1.47289">
        <ele>63</ele>
        <time>2026-08-23T14:34:40.000Z</time>
      </trkpt>
      <trkpt lat="43.34089" lon="-1.4729">
        <ele>63</ele>
        <time>2026-08-23T14:34:40.000Z</time>
      </trkpt>
      <trkpt lat="43.34088" lon="-1.47291">
        <ele>63</ele>
        <time>2026-08-23T14:34:41.000Z</time>
      </trkpt>
      <trkpt lat="43.34087" lon="-1.47292">
        <ele>63</ele>
        <time>2026-08-23T14:34:41.000Z</time>
      </trkpt>
      <trkpt lat="43.34087" lon="-1.47293">
        <ele>63</ele>
        <time>2026-08-23T14:34:41.000Z</time>
      </trkpt>
      <trkpt lat="43.34086" lon="-1.47294">
        <ele>63</ele>
        <time>2026-08-23T14:34:41.000Z</time>
      </trkpt>
      <trkpt lat="43.34085" lon="-1.47294">
        <ele>63</ele>
        <time>2026-08-23T14:34:41.000Z</time>
      </trkpt>
      <trkpt lat="43.34085" lon="-1.47295">
        <ele>63</ele>
        <time>2026-08-23T14:34:41.000Z</time>
      </trkpt>
      <trkpt lat="43.34084" lon="-1.47295">
        <ele>63</ele>
        <time>2026-08-23T14:34:42.000Z</time>
      </trkpt>
      <trkpt lat="43.34084" lon="-1.47296">
        <ele>63</ele>
        <time>2026-08-23T14:34:42.000Z</time>
      </trkpt>
      <trkpt lat="43.34083" lon="-1.47296">
        <ele>63</ele>
        <time>2026-08-23T14:34:42.000Z</time>
      </trkpt>
      <trkpt lat="43.34082" lon="-1.47297">
        <ele>63</ele>
        <time>2026-08-23T14:34:42.000Z</time>
      </trkpt>
      <trkpt lat="43.34081" lon="-1.47297">
        <ele>64</ele>
        <time>2026-08-23T14:34:42.000Z</time>
      </trkpt>
      <trkpt lat="43.3408" lon="-1.47297">
        <ele>64</ele>
        <time>2026-08-23T14:34:42.000Z</time>
      </trkpt>
      <trkpt lat="43.34079" lon="-1.47298">
        <ele>64</ele>
        <time>2026-08-23T14:34:43.000Z</time>
      </trkpt>
      <trkpt lat="43.34078" lon="-1.47298">
        <ele>64</ele>
        <time>2026-08-23T14:34:43.000Z</time>
      </trkpt>
      <trkpt lat="43.34077" lon="-1.47298">
        <ele>64</ele>
        <time>2026-08-23T14:34:43.000Z</time>
      </trkpt>
      <trkpt lat="43.34076" lon="-1.47298">
        <ele>65</ele>
        <time>2026-08-23T14:34:43.000Z</time>
      </trkpt>
      <trkpt lat="43.34075" lon="-1.47297">
        <ele>65</ele>
        <time>2026-08-23T14:34:43.000Z</time>
      </trkpt>
      <trkpt lat="43.34074" lon="-1.47297">
        <ele>65</ele>
        <time>2026-08-23T14:34:44.000Z</time>
      </trkpt>
      <trkpt lat="43.34073" lon="-1.47309">
        <ele>66</ele>
        <time>2026-08-23T14:34:45.000Z</time>
      </trkpt>
      <trkpt lat="43.34073" lon="-1.47321">
        <ele>66</ele>
        <time>2026-08-23T14:34:47.000Z</time>
      </trkpt>
      <trkpt lat="43.34073" lon="-1.47332">
        <ele>67</ele>
        <time>2026-08-23T14:34:48.000Z</time>
      </trkpt>
      <trkpt lat="43.34074" lon="-1.47343">
        <ele>66</ele>
        <time>2026-08-23T14:34:50.000Z</time>
      </trkpt>
      <trkpt lat="43.34075" lon="-1.47354">
        <ele>66</ele>
        <time>2026-08-23T14:34:51.000Z</time>
      </trkpt>
      <trkpt lat="43.34078" lon="-1.47373">
        <ele>66</ele>
        <time>2026-08-23T14:34:54.000Z</time>
      </trkpt>
      <trkpt lat="43.34082" lon="-1.47404">
        <ele>65</ele>
        <time>2026-08-23T14:34:58.000Z</time>
      </trkpt>
      <trkpt lat="43.34084" lon="-1.47417">
        <ele>65</ele>
        <time>2026-08-23T14:34:59.000Z</time>
      </trkpt>
      <trkpt lat="43.34087" lon="-1.47429">
        <ele>65</ele>
        <time>2026-08-23T14:35:01.000Z</time>
      </trkpt>
      <trkpt lat="43.34089" lon="-1.47448">
        <ele>65</ele>
        <time>2026-08-23T14:35:03.000Z</time>
      </trkpt>
      <trkpt lat="43.34091" lon="-1.47467">
        <ele>64</ele>
        <time>2026-08-23T14:35:06.000Z</time>
      </trkpt>
      <trkpt lat="43.3409" lon="-1.47479">
        <ele>64</ele>
        <time>2026-08-23T14:35:08.000Z</time>
      </trkpt>
      <trkpt lat="43.34089" lon="-1.47494">
        <ele>64</ele>
        <time>2026-08-23T14:35:09.000Z</time>
      </trkpt>
      <trkpt lat="43.34088" lon="-1.47505">
        <ele>64</ele>
        <time>2026-08-23T14:35:11.000Z</time>
      </trkpt>
      <trkpt lat="43.34087" lon="-1.4751">
        <ele>64</ele>
        <time>2026-08-23T14:35:12.000Z</time>
      </trkpt>
      <trkpt lat="43.34087" lon="-1.4752">
        <ele>64</ele>
        <time>2026-08-23T14:35:13.000Z</time>
      </trkpt>
      <trkpt lat="43.34087" lon="-1.4752">
        <ele>64</ele>
        <time>2026-08-23T14:35:13.000Z</time>
      </trkpt>
      <trkpt lat="43.34088" lon="-1.4752">
        <ele>64</ele>
        <time>2026-08-23T14:35:13.000Z</time>
      </trkpt>
      <trkpt lat="43.34088" lon="-1.47521">
        <ele>65</ele>
        <time>2026-08-23T14:35:13.000Z</time>
      </trkpt>
      <trkpt lat="43.34089" lon="-1.47522">
        <ele>65</ele>
        <time>2026-08-23T14:35:13.000Z</time>
      </trkpt>
      <trkpt lat="43.34089" lon="-1.47523">
        <ele>65</ele>
        <time>2026-08-23T14:35:14.000Z</time>
      </trkpt>
      <trkpt lat="43.3409" lon="-1.47524">
        <ele>65</ele>
        <time>2026-08-23T14:35:14.000Z</time>
      </trkpt>
      <trkpt lat="43.3409" lon="-1.47525">
        <ele>65</ele>
        <time>2026-08-23T14:35:14.000Z</time>
      </trkpt>
      <trkpt lat="43.3409" lon="-1.47526">
        <ele>65</ele>
        <time>2026-08-23T14:35:14.000Z</time>
      </trkpt>
      <trkpt lat="43.34091" lon="-1.47527">
        <ele>65</ele>
        <time>2026-08-23T14:35:14.000Z</time>
      </trkpt>
      <trkpt lat="43.34091" lon="-1.47528">
        <ele>65</ele>
        <time>2026-08-23T14:35:14.000Z</time>
      </trkpt>
      <trkpt lat="43.34091" lon="-1.47529">
        <ele>65</ele>
        <time>2026-08-23T14:35:14.000Z</time>
      </trkpt>
      <trkpt lat="43.34091" lon="-1.4753">
        <ele>65</ele>
        <time>2026-08-23T14:35:15.000Z</time>
      </trkpt>
      <trkpt lat="43.34091" lon="-1.47531">
        <ele>65</ele>
        <time>2026-08-23T14:35:15.000Z</time>
      </trkpt>
      <trkpt lat="43.34091" lon="-1.47532">
        <ele>65</ele>
        <time>2026-08-23T14:35:15.000Z</time>
      </trkpt>
      <trkpt lat="43.34091" lon="-1.47533">
        <ele>65</ele>
        <time>2026-08-23T14:35:15.000Z</time>
      </trkpt>
      <trkpt lat="43.34091" lon="-1.47534">
        <ele>65</ele>
        <time>2026-08-23T14:35:15.000Z</time>
      </trkpt>
      <trkpt lat="43.3409" lon="-1.47535">
        <ele>65</ele>
        <time>2026-08-23T14:35:15.000Z</time>
      </trkpt>
      <trkpt lat="43.3409" lon="-1.47536">
        <ele>66</ele>
        <time>2026-08-23T14:35:15.000Z</time>
      </trkpt>
      <trkpt lat="43.3409" lon="-1.47537">
        <ele>66</ele>
        <time>2026-08-23T14:35:16.000Z</time>
      </trkpt>
      <trkpt lat="43.34089" lon="-1.47538">
        <ele>66</ele>
        <time>2026-08-23T14:35:16.000Z</time>
      </trkpt>
      <trkpt lat="43.34089" lon="-1.47539">
        <ele>66</ele>
        <time>2026-08-23T14:35:16.000Z</time>
      </trkpt>
      <trkpt lat="43.34088" lon="-1.4754">
        <ele>66</ele>
        <time>2026-08-23T14:35:16.000Z</time>
      </trkpt>
      <trkpt lat="43.34087" lon="-1.47541">
        <ele>66</ele>
        <time>2026-08-23T14:35:16.000Z</time>
      </trkpt>
      <trkpt lat="43.34087" lon="-1.47542">
        <ele>66</ele>
        <time>2026-08-23T14:35:17.000Z</time>
      </trkpt>
      <trkpt lat="43.34086" lon="-1.47542">
        <ele>66</ele>
        <time>2026-08-23T14:35:17.000Z</time>
      </trkpt>
      <trkpt lat="43.34086" lon="-1.47543">
        <ele>66</ele>
        <time>2026-08-23T14:35:17.000Z</time>
      </trkpt>
      <trkpt lat="43.34085" lon="-1.47543">
        <ele>66</ele>
        <time>2026-08-23T14:35:17.000Z</time>
      </trkpt>
      <trkpt lat="43.34084" lon="-1.47543">
        <ele>66</ele>
        <time>2026-08-23T14:35:17.000Z</time>
      </trkpt>
      <trkpt lat="43.34084" lon="-1.47544">
        <ele>66</ele>
        <time>2026-08-23T14:35:17.000Z</time>
      </trkpt>
      <trkpt lat="43.34083" lon="-1.47544">
        <ele>66</ele>
        <time>2026-08-23T14:35:17.000Z</time>
      </trkpt>
      <trkpt lat="43.34082" lon="-1.47544">
        <ele>66</ele>
        <time>2026-08-23T14:35:18.000Z</time>
      </trkpt>
      <trkpt lat="43.34081" lon="-1.47544">
        <ele>66</ele>
        <time>2026-08-23T14:35:18.000Z</time>
      </trkpt>
      <trkpt lat="43.34075" lon="-1.47556">
        <ele>67</ele>
        <time>2026-08-23T14:35:20.000Z</time>
      </trkpt>
      <trkpt lat="43.34066" lon="-1.4757">
        <ele>68</ele>
        <time>2026-08-23T14:35:22.000Z</time>
      </trkpt>
      <trkpt lat="43.34047" lon="-1.47602">
        <ele>68</ele>
        <time>2026-08-23T14:35:28.000Z</time>
      </trkpt>
      <trkpt lat="43.34042" lon="-1.4761">
        <ele>68</ele>
        <time>2026-08-23T14:35:29.000Z</time>
      </trkpt>
      <trkpt lat="43.34034" lon="-1.47623">
        <ele>68</ele>
        <time>2026-08-23T14:35:31.000Z</time>
      </trkpt>
      <trkpt lat="43.34026" lon="-1.47635">
        <ele>68</ele>
        <time>2026-08-23T14:35:33.000Z</time>
      </trkpt>
      <trkpt lat="43.34012" lon="-1.47654">
        <ele>68</ele>
        <time>2026-08-23T14:35:37.000Z</time>
      </trkpt>
      <trkpt lat="43.34004" lon="-1.47659">
        <ele>67</ele>
        <time>2026-08-23T14:35:38.000Z</time>
      </trkpt>
      <trkpt lat="43.33992" lon="-1.47675">
        <ele>67</ele>
        <time>2026-08-23T14:35:41.000Z</time>
      </trkpt>
      <trkpt lat="43.33979" lon="-1.4769">
        <ele>68</ele>
        <time>2026-08-23T14:35:44.000Z</time>
      </trkpt>
      <trkpt lat="43.33967" lon="-1.47703">
        <ele>68</ele>
        <time>2026-08-23T14:35:47.000Z</time>
      </trkpt>
      <trkpt lat="43.33955" lon="-1.47715">
        <ele>67</ele>
        <time>2026-08-23T14:35:50.000Z</time>
      </trkpt>
      <trkpt lat="43.33942" lon="-1.47726">
        <ele>67</ele>
        <time>2026-08-23T14:35:52.000Z</time>
      </trkpt>
      <trkpt lat="43.33928" lon="-1.47735">
        <ele>66</ele>
        <time>2026-08-23T14:35:55.000Z</time>
      </trkpt>
      <trkpt lat="43.3392" lon="-1.4774">
        <ele>65</ele>
        <time>2026-08-23T14:35:57.000Z</time>
      </trkpt>
      <trkpt lat="43.33912" lon="-1.47744">
        <ele>65</ele>
        <time>2026-08-23T14:35:58.000Z</time>
      </trkpt>
      <trkpt lat="43.33899" lon="-1.4775">
        <ele>65</ele>
        <time>2026-08-23T14:36:01.000Z</time>
      </trkpt>
      <trkpt lat="43.33889" lon="-1.47752">
        <ele>65</ele>
        <time>2026-08-23T14:36:02.000Z</time>
      </trkpt>
      <trkpt lat="43.33882" lon="-1.47753">
        <ele>65</ele>
        <time>2026-08-23T14:36:04.000Z</time>
      </trkpt>
      <trkpt lat="43.33875" lon="-1.47754">
        <ele>65</ele>
        <time>2026-08-23T14:36:05.000Z</time>
      </trkpt>
      <trkpt lat="43.33869" lon="-1.47754">
        <ele>65</ele>
        <time>2026-08-23T14:36:06.000Z</time>
      </trkpt>
      <trkpt lat="43.33857" lon="-1.47754">
        <ele>65</ele>
        <time>2026-08-23T14:36:08.000Z</time>
      </trkpt>
      <trkpt lat="43.33846" lon="-1.47754">
        <ele>65</ele>
        <time>2026-08-23T14:36:10.000Z</time>
      </trkpt>
      <trkpt lat="43.33835" lon="-1.47753">
        <ele>65</ele>
        <time>2026-08-23T14:36:12.000Z</time>
      </trkpt>
      <trkpt lat="43.33826" lon="-1.47751">
        <ele>65</ele>
        <time>2026-08-23T14:36:14.000Z</time>
      </trkpt>
      <trkpt lat="43.33819" lon="-1.47749">
        <ele>65</ele>
        <time>2026-08-23T14:36:15.000Z</time>
      </trkpt>
      <trkpt lat="43.33797" lon="-1.47743">
        <ele>66</ele>
        <time>2026-08-23T14:36:19.000Z</time>
      </trkpt>
      <trkpt lat="43.33765" lon="-1.47734">
        <ele>67</ele>
        <time>2026-08-23T14:36:25.000Z</time>
      </trkpt>
      <trkpt lat="43.33745" lon="-1.47729">
        <ele>67</ele>
        <time>2026-08-23T14:36:28.000Z</time>
      </trkpt>
      <trkpt lat="43.33736" lon="-1.47727">
        <ele>68</ele>
        <time>2026-08-23T14:36:30.000Z</time>
      </trkpt>
      <trkpt lat="43.33726" lon="-1.47726">
        <ele>68</ele>
        <time>2026-08-23T14:36:32.000Z</time>
      </trkpt>
      <trkpt lat="43.33716" lon="-1.47726">
        <ele>69</ele>
        <time>2026-08-23T14:36:33.000Z</time>
      </trkpt>
      <trkpt lat="43.33708" lon="-1.47728">
        <ele>69</ele>
        <time>2026-08-23T14:36:35.000Z</time>
      </trkpt>
      <trkpt lat="43.33701" lon="-1.47729">
        <ele>69</ele>
        <time>2026-08-23T14:36:36.000Z</time>
      </trkpt>
      <trkpt lat="43.33693" lon="-1.47732">
        <ele>70</ele>
        <time>2026-08-23T14:36:38.000Z</time>
      </trkpt>
      <trkpt lat="43.33685" lon="-1.47736">
        <ele>70</ele>
        <time>2026-08-23T14:36:39.000Z</time>
      </trkpt>
      <trkpt lat="43.33678" lon="-1.47739">
        <ele>70</ele>
        <time>2026-08-23T14:36:40.000Z</time>
      </trkpt>
      <trkpt lat="43.33671" lon="-1.47745">
        <ele>71</ele>
        <time>2026-08-23T14:36:42.000Z</time>
      </trkpt>
      <trkpt lat="43.33663" lon="-1.47753">
        <ele>71</ele>
        <time>2026-08-23T14:36:44.000Z</time>
      </trkpt>
      <trkpt lat="43.33655" lon="-1.4776">
        <ele>72</ele>
        <time>2026-08-23T14:36:45.000Z</time>
      </trkpt>
      <trkpt lat="43.33649" lon="-1.47768">
        <ele>72</ele>
        <time>2026-08-23T14:36:47.000Z</time>
      </trkpt>
      <trkpt lat="43.33644" lon="-1.47776">
        <ele>72</ele>
        <time>2026-08-23T14:36:48.000Z</time>
      </trkpt>
      <trkpt lat="43.33639" lon="-1.47786">
        <ele>73</ele>
        <time>2026-08-23T14:36:50.000Z</time>
      </trkpt>
      <trkpt lat="43.33633" lon="-1.47797">
        <ele>73</ele>
        <time>2026-08-23T14:36:52.000Z</time>
      </trkpt>
      <trkpt lat="43.3363" lon="-1.47805">
        <ele>74</ele>
        <time>2026-08-23T14:36:53.000Z</time>
      </trkpt>
      <trkpt lat="43.33627" lon="-1.47815">
        <ele>74</ele>
        <time>2026-08-23T14:36:54.000Z</time>
      </trkpt>
      <trkpt lat="43.33623" lon="-1.47834">
        <ele>75</ele>
        <time>2026-08-23T14:36:57.000Z</time>
      </trkpt>
      <trkpt lat="43.3362" lon="-1.47851">
        <ele>76</ele>
        <time>2026-08-23T14:36:59.000Z</time>
      </trkpt>
      <trkpt lat="43.33612" lon="-1.47909">
        <ele>79</ele>
        <time>2026-08-23T14:37:07.000Z</time>
      </trkpt>
      <trkpt lat="43.33601" lon="-1.47995">
        <ele>84</ele>
        <time>2026-08-23T14:37:18.000Z</time>
      </trkpt>
      <trkpt lat="43.33593" lon="-1.48064">
        <ele>87</ele>
        <time>2026-08-23T14:37:27.000Z</time>
      </trkpt>
      <trkpt lat="43.33583" lon="-1.48136">
        <ele>91</ele>
        <time>2026-08-23T14:37:36.000Z</time>
      </trkpt>
      <trkpt lat="43.33581" lon="-1.48154">
        <ele>92</ele>
        <time>2026-08-23T14:37:39.000Z</time>
      </trkpt>
      <trkpt lat="43.33577" lon="-1.4818">
        <ele>93</ele>
        <time>2026-08-23T14:37:42.000Z</time>
      </trkpt>
      <trkpt lat="43.33574" lon="-1.48197">
        <ele>94</ele>
        <time>2026-08-23T14:37:45.000Z</time>
      </trkpt>
      <trkpt lat="43.33571" lon="-1.48215">
        <ele>95</ele>
        <time>2026-08-23T14:37:47.000Z</time>
      </trkpt>
      <trkpt lat="43.33568" lon="-1.48235">
        <ele>96</ele>
        <time>2026-08-23T14:37:50.000Z</time>
      </trkpt>
      <trkpt lat="43.33564" lon="-1.4825">
        <ele>97</ele>
        <time>2026-08-23T14:37:52.000Z</time>
      </trkpt>
      <trkpt lat="43.33561" lon="-1.48261">
        <ele>97</ele>
        <time>2026-08-23T14:37:53.000Z</time>
      </trkpt>
      <trkpt lat="43.33557" lon="-1.48272">
        <ele>98</ele>
        <time>2026-08-23T14:37:55.000Z</time>
      </trkpt>
      <trkpt lat="43.33554" lon="-1.48281">
        <ele>98</ele>
        <time>2026-08-23T14:37:56.000Z</time>
      </trkpt>
      <trkpt lat="43.33544" lon="-1.48305">
        <ele>99</ele>
        <time>2026-08-23T14:38:00.000Z</time>
      </trkpt>
      <trkpt lat="43.33537" lon="-1.48321">
        <ele>99</ele>
        <time>2026-08-23T14:38:02.000Z</time>
      </trkpt>
      <trkpt lat="43.33529" lon="-1.48335">
        <ele>99</ele>
        <time>2026-08-23T14:38:04.000Z</time>
      </trkpt>
      <trkpt lat="43.33516" lon="-1.48356">
        <ele>99</ele>
        <time>2026-08-23T14:38:08.000Z</time>
      </trkpt>
      <trkpt lat="43.33505" lon="-1.48376">
        <ele>100</ele>
        <time>2026-08-23T14:38:11.000Z</time>
      </trkpt>
      <trkpt lat="43.33497" lon="-1.48391">
        <ele>101</ele>
        <time>2026-08-23T14:38:14.000Z</time>
      </trkpt>
      <trkpt lat="43.33488" lon="-1.48406">
        <ele>102</ele>
        <time>2026-08-23T14:38:16.000Z</time>
      </trkpt>
      <trkpt lat="43.33482" lon="-1.4842">
        <ele>103</ele>
        <time>2026-08-23T14:38:18.000Z</time>
      </trkpt>
      <trkpt lat="43.33475" lon="-1.48432">
        <ele>103</ele>
        <time>2026-08-23T14:38:20.000Z</time>
      </trkpt>
      <trkpt lat="43.3347" lon="-1.48444">
        <ele>104</ele>
        <time>2026-08-23T14:38:22.000Z</time>
      </trkpt>
      <trkpt lat="43.33466" lon="-1.48456">
        <ele>105</ele>
        <time>2026-08-23T14:38:24.000Z</time>
      </trkpt>
      <trkpt lat="43.33461" lon="-1.48469">
        <ele>105</ele>
        <time>2026-08-23T14:38:26.000Z</time>
      </trkpt>
      <trkpt lat="43.33457" lon="-1.48481">
        <ele>106</ele>
        <time>2026-08-23T14:38:27.000Z</time>
      </trkpt>
      <trkpt lat="43.33454" lon="-1.48494">
        <ele>107</ele>
        <time>2026-08-23T14:38:29.000Z</time>
      </trkpt>
      <trkpt lat="43.3345" lon="-1.48513">
        <ele>108</ele>
        <time>2026-08-23T14:38:32.000Z</time>
      </trkpt>
      <trkpt lat="43.33446" lon="-1.48533">
        <ele>108</ele>
        <time>2026-08-23T14:38:34.000Z</time>
      </trkpt>
      <trkpt lat="43.33442" lon="-1.48569">
        <ele>110</ele>
        <time>2026-08-23T14:38:39.000Z</time>
      </trkpt>
      <trkpt lat="43.3344" lon="-1.48583">
        <ele>111</ele>
        <time>2026-08-23T14:38:41.000Z</time>
      </trkpt>
      <trkpt lat="43.33437" lon="-1.48596">
        <ele>111</ele>
        <time>2026-08-23T14:38:43.000Z</time>
      </trkpt>
      <trkpt lat="43.33432" lon="-1.48611">
        <ele>111</ele>
        <time>2026-08-23T14:38:45.000Z</time>
      </trkpt>
      <trkpt lat="43.33428" lon="-1.48623">
        <ele>111</ele>
        <time>2026-08-23T14:38:46.000Z</time>
      </trkpt>
      <trkpt lat="43.33423" lon="-1.48636">
        <ele>110</ele>
        <time>2026-08-23T14:38:48.000Z</time>
      </trkpt>
      <trkpt lat="43.33417" lon="-1.48648">
        <ele>110</ele>
        <time>2026-08-23T14:38:50.000Z</time>
      </trkpt>
      <trkpt lat="43.33411" lon="-1.48658">
        <ele>110</ele>
        <time>2026-08-23T14:38:52.000Z</time>
      </trkpt>
      <trkpt lat="43.33402" lon="-1.4867">
        <ele>111</ele>
        <time>2026-08-23T14:38:54.000Z</time>
      </trkpt>
      <trkpt lat="43.33395" lon="-1.4868">
        <ele>111</ele>
        <time>2026-08-23T14:38:56.000Z</time>
      </trkpt>
      <trkpt lat="43.33385" lon="-1.48689">
        <ele>112</ele>
        <time>2026-08-23T14:38:58.000Z</time>
      </trkpt>
      <trkpt lat="43.33376" lon="-1.48698">
        <ele>113</ele>
        <time>2026-08-23T14:39:00.000Z</time>
      </trkpt>
      <trkpt lat="43.33362" lon="-1.48714">
        <ele>114</ele>
        <time>2026-08-23T14:39:03.000Z</time>
      </trkpt>
      <trkpt lat="43.33356" lon="-1.48721">
        <ele>115</ele>
        <time>2026-08-23T14:39:05.000Z</time>
      </trkpt>
      <trkpt lat="43.3335" lon="-1.48728">
        <ele>116</ele>
        <time>2026-08-23T14:39:06.000Z</time>
      </trkpt>
      <trkpt lat="43.33343" lon="-1.48738">
        <ele>117</ele>
        <time>2026-08-23T14:39:08.000Z</time>
      </trkpt>
      <trkpt lat="43.33337" lon="-1.48747">
        <ele>118</ele>
        <time>2026-08-23T14:39:09.000Z</time>
      </trkpt>
      <trkpt lat="43.3333" lon="-1.48757">
        <ele>118</ele>
        <time>2026-08-23T14:39:11.000Z</time>
      </trkpt>
      <trkpt lat="43.33322" lon="-1.48773">
        <ele>119</ele>
        <time>2026-08-23T14:39:14.000Z</time>
      </trkpt>
      <trkpt lat="43.33315" lon="-1.48785">
        <ele>120</ele>
        <time>2026-08-23T14:39:16.000Z</time>
      </trkpt>
      <trkpt lat="43.33307" lon="-1.488">
        <ele>120</ele>
        <time>2026-08-23T14:39:18.000Z</time>
      </trkpt>
      <trkpt lat="43.33302" lon="-1.48811">
        <ele>121</ele>
        <time>2026-08-23T14:39:20.000Z</time>
      </trkpt>
      <trkpt lat="43.33296" lon="-1.48827">
        <ele>121</ele>
        <time>2026-08-23T14:39:22.000Z</time>
      </trkpt>
      <trkpt lat="43.33291" lon="-1.4884">
        <ele>122</ele>
        <time>2026-08-23T14:39:24.000Z</time>
      </trkpt>
      <trkpt lat="43.3329" lon="-1.48846">
        <ele>122</ele>
        <time>2026-08-23T14:39:25.000Z</time>
      </trkpt>
      <trkpt lat="43.33287" lon="-1.48855">
        <ele>122</ele>
        <time>2026-08-23T14:39:26.000Z</time>
      </trkpt>
      <trkpt lat="43.33286" lon="-1.48865">
        <ele>122</ele>
        <time>2026-08-23T14:39:27.000Z</time>
      </trkpt>
      <trkpt lat="43.33284" lon="-1.48874">
        <ele>122</ele>
        <time>2026-08-23T14:39:29.000Z</time>
      </trkpt>
      <trkpt lat="43.33283" lon="-1.48903">
        <ele>123</ele>
        <time>2026-08-23T14:39:32.000Z</time>
      </trkpt>
      <trkpt lat="43.33283" lon="-1.48914">
        <ele>123</ele>
        <time>2026-08-23T14:39:34.000Z</time>
      </trkpt>
      <trkpt lat="43.33283" lon="-1.48922">
        <ele>123</ele>
        <time>2026-08-23T14:39:35.000Z</time>
      </trkpt>
      <trkpt lat="43.33283" lon="-1.48922">
        <ele>123</ele>
        <time>2026-08-23T14:39:35.000Z</time>
      </trkpt>
      <trkpt lat="43.33284" lon="-1.48922">
        <ele>123</ele>
        <time>2026-08-23T14:39:35.000Z</time>
      </trkpt>
      <trkpt lat="43.33285" lon="-1.48922">
        <ele>123</ele>
        <time>2026-08-23T14:39:35.000Z</time>
      </trkpt>
      <trkpt lat="43.33285" lon="-1.48923">
        <ele>123</ele>
        <time>2026-08-23T14:39:35.000Z</time>
      </trkpt>
      <trkpt lat="43.33286" lon="-1.48923">
        <ele>123</ele>
        <time>2026-08-23T14:39:36.000Z</time>
      </trkpt>
      <trkpt lat="43.33287" lon="-1.48924">
        <ele>123</ele>
        <time>2026-08-23T14:39:36.000Z</time>
      </trkpt>
      <trkpt lat="43.33288" lon="-1.48924">
        <ele>123</ele>
        <time>2026-08-23T14:39:36.000Z</time>
      </trkpt>
      <trkpt lat="43.33288" lon="-1.48925">
        <ele>123</ele>
        <time>2026-08-23T14:39:36.000Z</time>
      </trkpt>
      <trkpt lat="43.33289" lon="-1.48925">
        <ele>123</ele>
        <time>2026-08-23T14:39:36.000Z</time>
      </trkpt>
      <trkpt lat="43.33289" lon="-1.48926">
        <ele>123</ele>
        <time>2026-08-23T14:39:36.000Z</time>
      </trkpt>
      <trkpt lat="43.3329" lon="-1.48926">
        <ele>123</ele>
        <time>2026-08-23T14:39:37.000Z</time>
      </trkpt>
      <trkpt lat="43.3329" lon="-1.48927">
        <ele>123</ele>
        <time>2026-08-23T14:39:37.000Z</time>
      </trkpt>
      <trkpt lat="43.33291" lon="-1.48928">
        <ele>123</ele>
        <time>2026-08-23T14:39:37.000Z</time>
      </trkpt>
      <trkpt lat="43.33291" lon="-1.48929">
        <ele>123</ele>
        <time>2026-08-23T14:39:37.000Z</time>
      </trkpt>
      <trkpt lat="43.33291" lon="-1.4893">
        <ele>123</ele>
        <time>2026-08-23T14:39:37.000Z</time>
      </trkpt>
      <trkpt lat="43.33292" lon="-1.4893">
        <ele>123</ele>
        <time>2026-08-23T14:39:37.000Z</time>
      </trkpt>
      <trkpt lat="43.33292" lon="-1.48931">
        <ele>123</ele>
        <time>2026-08-23T14:39:37.000Z</time>
      </trkpt>
      <trkpt lat="43.33292" lon="-1.48932">
        <ele>123</ele>
        <time>2026-08-23T14:39:38.000Z</time>
      </trkpt>
      <trkpt lat="43.33292" lon="-1.48933">
        <ele>123</ele>
        <time>2026-08-23T14:39:38.000Z</time>
      </trkpt>
      <trkpt lat="43.33293" lon="-1.48934">
        <ele>123</ele>
        <time>2026-08-23T14:39:38.000Z</time>
      </trkpt>
      <trkpt lat="43.33293" lon="-1.48935">
        <ele>124</ele>
        <time>2026-08-23T14:39:38.000Z</time>
      </trkpt>
      <trkpt lat="43.33293" lon="-1.48936">
        <ele>124</ele>
        <time>2026-08-23T14:39:38.000Z</time>
      </trkpt>
      <trkpt lat="43.33293" lon="-1.48937">
        <ele>124</ele>
        <time>2026-08-23T14:39:38.000Z</time>
      </trkpt>
      <trkpt lat="43.33293" lon="-1.48938">
        <ele>124</ele>
        <time>2026-08-23T14:39:38.000Z</time>
      </trkpt>
      <trkpt lat="43.33293" lon="-1.48939">
        <ele>124</ele>
        <time>2026-08-23T14:39:39.000Z</time>
      </trkpt>
      <trkpt lat="43.33293" lon="-1.4894">
        <ele>124</ele>
        <time>2026-08-23T14:39:39.000Z</time>
      </trkpt>
      <trkpt lat="43.33292" lon="-1.4894">
        <ele>124</ele>
        <time>2026-08-23T14:39:39.000Z</time>
      </trkpt>
      <trkpt lat="43.33292" lon="-1.48941">
        <ele>124</ele>
        <time>2026-08-23T14:39:39.000Z</time>
      </trkpt>
      <trkpt lat="43.33292" lon="-1.48942">
        <ele>124</ele>
        <time>2026-08-23T14:39:39.000Z</time>
      </trkpt>
      <trkpt lat="43.33292" lon="-1.48943">
        <ele>124</ele>
        <time>2026-08-23T14:39:39.000Z</time>
      </trkpt>
      <trkpt lat="43.33291" lon="-1.48944">
        <ele>124</ele>
        <time>2026-08-23T14:39:40.000Z</time>
      </trkpt>
      <trkpt lat="43.33291" lon="-1.48945">
        <ele>124</ele>
        <time>2026-08-23T14:39:40.000Z</time>
      </trkpt>
      <trkpt lat="43.3329" lon="-1.48946">
        <ele>124</ele>
        <time>2026-08-23T14:39:40.000Z</time>
      </trkpt>
      <trkpt lat="43.3329" lon="-1.48947">
        <ele>124</ele>
        <time>2026-08-23T14:39:40.000Z</time>
      </trkpt>
      <trkpt lat="43.33289" lon="-1.48947">
        <ele>124</ele>
        <time>2026-08-23T14:39:40.000Z</time>
      </trkpt>
      <trkpt lat="43.33289" lon="-1.48948">
        <ele>124</ele>
        <time>2026-08-23T14:39:40.000Z</time>
      </trkpt>
      <trkpt lat="43.33288" lon="-1.48949">
        <ele>124</ele>
        <time>2026-08-23T14:39:41.000Z</time>
      </trkpt>
      <trkpt lat="43.33287" lon="-1.48949">
        <ele>124</ele>
        <time>2026-08-23T14:39:41.000Z</time>
      </trkpt>
      <trkpt lat="43.33295" lon="-1.48967">
        <ele>124</ele>
        <time>2026-08-23T14:39:43.000Z</time>
      </trkpt>
      <trkpt lat="43.333" lon="-1.48979">
        <ele>124</ele>
        <time>2026-08-23T14:39:45.000Z</time>
      </trkpt>
      <trkpt lat="43.33303" lon="-1.48988">
        <ele>124</ele>
        <time>2026-08-23T14:39:46.000Z</time>
      </trkpt>
      <trkpt lat="43.33306" lon="-1.49001">
        <ele>123</ele>
        <time>2026-08-23T14:39:48.000Z</time>
      </trkpt>
      <trkpt lat="43.33308" lon="-1.49013">
        <ele>122</ele>
        <time>2026-08-23T14:39:50.000Z</time>
      </trkpt>
      <trkpt lat="43.33309" lon="-1.49019">
        <ele>122</ele>
        <time>2026-08-23T14:39:51.000Z</time>
      </trkpt>
      <trkpt lat="43.33311" lon="-1.49031">
        <ele>121</ele>
        <time>2026-08-23T14:39:52.000Z</time>
      </trkpt>
      <trkpt lat="43.33312" lon="-1.49042">
        <ele>121</ele>
        <time>2026-08-23T14:39:54.000Z</time>
      </trkpt>
      <trkpt lat="43.33314" lon="-1.4907">
        <ele>119</ele>
        <time>2026-08-23T14:39:57.000Z</time>
      </trkpt>
      <trkpt lat="43.33317" lon="-1.49105">
        <ele>117</ele>
        <time>2026-08-23T14:40:02.000Z</time>
      </trkpt>
      <trkpt lat="43.33318" lon="-1.49134">
        <ele>115</ele>
        <time>2026-08-23T14:40:06.000Z</time>
      </trkpt>
      <trkpt lat="43.33321" lon="-1.49175">
        <ele>112</ele>
        <time>2026-08-23T14:40:11.000Z</time>
      </trkpt>
      <trkpt lat="43.33325" lon="-1.49228">
        <ele>111</ele>
        <time>2026-08-23T14:40:18.000Z</time>
      </trkpt>
      <trkpt lat="43.3333" lon="-1.49304">
        <ele>108</ele>
        <time>2026-08-23T14:40:28.000Z</time>
      </trkpt>
      <trkpt lat="43.33333" lon="-1.49346">
        <ele>106</ele>
        <time>2026-08-23T14:40:33.000Z</time>
      </trkpt>
      <trkpt lat="43.33336" lon="-1.49382">
        <ele>105</ele>
        <time>2026-08-23T14:40:38.000Z</time>
      </trkpt>
      <trkpt lat="43.33337" lon="-1.49405">
        <ele>104</ele>
        <time>2026-08-23T14:40:41.000Z</time>
      </trkpt>
      <trkpt lat="43.33337" lon="-1.49418">
        <ele>104</ele>
        <time>2026-08-23T14:40:43.000Z</time>
      </trkpt>
      <trkpt lat="43.33337" lon="-1.49424">
        <ele>104</ele>
        <time>2026-08-23T14:40:43.000Z</time>
      </trkpt>
      <trkpt lat="43.33337" lon="-1.49432">
        <ele>104</ele>
        <time>2026-08-23T14:40:44.000Z</time>
      </trkpt>
      <trkpt lat="43.33337" lon="-1.49439">
        <ele>104</ele>
        <time>2026-08-23T14:40:45.000Z</time>
      </trkpt>
      <trkpt lat="43.33337" lon="-1.49453">
        <ele>105</ele>
        <time>2026-08-23T14:40:47.000Z</time>
      </trkpt>
      <trkpt lat="43.33337" lon="-1.49469">
        <ele>105</ele>
        <time>2026-08-23T14:40:49.000Z</time>
      </trkpt>
      <trkpt lat="43.33336" lon="-1.49486">
        <ele>105</ele>
        <time>2026-08-23T14:40:51.000Z</time>
      </trkpt>
      <trkpt lat="43.33336" lon="-1.49499">
        <ele>106</ele>
        <time>2026-08-23T14:40:53.000Z</time>
      </trkpt>
      <trkpt lat="43.33334" lon="-1.49515">
        <ele>105</ele>
        <time>2026-08-23T14:40:55.000Z</time>
      </trkpt>
      <trkpt lat="43.33332" lon="-1.49533">
        <ele>104</ele>
        <time>2026-08-23T14:40:58.000Z</time>
      </trkpt>
      <trkpt lat="43.33327" lon="-1.49571">
        <ele>103</ele>
        <time>2026-08-23T14:41:03.000Z</time>
      </trkpt>
      <trkpt lat="43.33321" lon="-1.49618">
        <ele>101</ele>
        <time>2026-08-23T14:41:09.000Z</time>
      </trkpt>
      <trkpt lat="43.33315" lon="-1.49664">
        <ele>98</ele>
        <time>2026-08-23T14:41:15.000Z</time>
      </trkpt>
      <trkpt lat="43.33312" lon="-1.49701">
        <ele>96</ele>
        <time>2026-08-23T14:41:20.000Z</time>
      </trkpt>
      <trkpt lat="43.3331" lon="-1.49732">
        <ele>95</ele>
        <time>2026-08-23T14:41:24.000Z</time>
      </trkpt>
      <trkpt lat="43.3331" lon="-1.49773">
        <ele>94</ele>
        <time>2026-08-23T14:41:29.000Z</time>
      </trkpt>
      <trkpt lat="43.33311" lon="-1.49794">
        <ele>94</ele>
        <time>2026-08-23T14:41:32.000Z</time>
      </trkpt>
      <trkpt lat="43.33313" lon="-1.49812">
        <ele>93</ele>
        <time>2026-08-23T14:41:34.000Z</time>
      </trkpt>
      <trkpt lat="43.33316" lon="-1.49827">
        <ele>93</ele>
        <time>2026-08-23T14:41:36.000Z</time>
      </trkpt>
      <trkpt lat="43.33318" lon="-1.49838">
        <ele>92</ele>
        <time>2026-08-23T14:41:37.000Z</time>
      </trkpt>
      <trkpt lat="43.33325" lon="-1.49864">
        <ele>90</ele>
        <time>2026-08-23T14:41:41.000Z</time>
      </trkpt>
      <trkpt lat="43.33333" lon="-1.49884">
        <ele>88</ele>
        <time>2026-08-23T14:41:44.000Z</time>
      </trkpt>
      <trkpt lat="43.33346" lon="-1.49921">
        <ele>86</ele>
        <time>2026-08-23T14:41:49.000Z</time>
      </trkpt>
      <trkpt lat="43.33372" lon="-1.49994">
        <ele>82</ele>
        <time>2026-08-23T14:42:00.000Z</time>
      </trkpt>
      <trkpt lat="43.3339" lon="-1.50049">
        <ele>81</ele>
        <time>2026-08-23T14:42:08.000Z</time>
      </trkpt>
      <trkpt lat="43.33409" lon="-1.501">
        <ele>78</ele>
        <time>2026-08-23T14:42:15.000Z</time>
      </trkpt>
      <trkpt lat="43.33425" lon="-1.50147">
        <ele>77</ele>
        <time>2026-08-23T14:42:22.000Z</time>
      </trkpt>
      <trkpt lat="43.33437" lon="-1.50182">
        <ele>77</ele>
        <time>2026-08-23T14:42:27.000Z</time>
      </trkpt>
      <trkpt lat="43.33447" lon="-1.50212">
        <ele>77</ele>
        <time>2026-08-23T14:42:31.000Z</time>
      </trkpt>
      <trkpt lat="43.33454" lon="-1.50232">
        <ele>77</ele>
        <time>2026-08-23T14:42:34.000Z</time>
      </trkpt>
      <trkpt lat="43.33464" lon="-1.50255">
        <ele>77</ele>
        <time>2026-08-23T14:42:37.000Z</time>
      </trkpt>
      <trkpt lat="43.33468" lon="-1.50265">
        <ele>76</ele>
        <time>2026-08-23T14:42:39.000Z</time>
      </trkpt>
      <trkpt lat="43.33474" lon="-1.50275">
        <ele>76</ele>
        <time>2026-08-23T14:42:41.000Z</time>
      </trkpt>
      <trkpt lat="43.33482" lon="-1.50289">
        <ele>76</ele>
        <time>2026-08-23T14:42:43.000Z</time>
      </trkpt>
      <trkpt lat="43.33493" lon="-1.50305">
        <ele>75</ele>
        <time>2026-08-23T14:42:46.000Z</time>
      </trkpt>
      <trkpt lat="43.33504" lon="-1.5032">
        <ele>75</ele>
        <time>2026-08-23T14:42:48.000Z</time>
      </trkpt>
      <trkpt lat="43.33514" lon="-1.50333">
        <ele>75</ele>
        <time>2026-08-23T14:42:51.000Z</time>
      </trkpt>
      <trkpt lat="43.33545" lon="-1.50372">
        <ele>77</ele>
        <time>2026-08-23T14:42:58.000Z</time>
      </trkpt>
      <trkpt lat="43.33556" lon="-1.50386">
        <ele>76</ele>
        <time>2026-08-23T14:43:01.000Z</time>
      </trkpt>
      <trkpt lat="43.33563" lon="-1.50397">
        <ele>76</ele>
        <time>2026-08-23T14:43:03.000Z</time>
      </trkpt>
      <trkpt lat="43.3357" lon="-1.5041">
        <ele>75</ele>
        <time>2026-08-23T14:43:05.000Z</time>
      </trkpt>
      <trkpt lat="43.33576" lon="-1.50424">
        <ele>75</ele>
        <time>2026-08-23T14:43:07.000Z</time>
      </trkpt>
      <trkpt lat="43.33584" lon="-1.50442">
        <ele>75</ele>
        <time>2026-08-23T14:43:10.000Z</time>
      </trkpt>
      <trkpt lat="43.3359" lon="-1.50462">
        <ele>76</ele>
        <time>2026-08-23T14:43:13.000Z</time>
      </trkpt>
      <trkpt lat="43.33595" lon="-1.5048">
        <ele>77</ele>
        <time>2026-08-23T14:43:15.000Z</time>
      </trkpt>
      <trkpt lat="43.33601" lon="-1.50501">
        <ele>77</ele>
        <time>2026-08-23T14:43:18.000Z</time>
      </trkpt>
      <trkpt lat="43.33603" lon="-1.50513">
        <ele>77</ele>
        <time>2026-08-23T14:43:20.000Z</time>
      </trkpt>
      <trkpt lat="43.33607" lon="-1.50535">
        <ele>76</ele>
        <time>2026-08-23T14:43:23.000Z</time>
      </trkpt>
      <trkpt lat="43.33609" lon="-1.5055">
        <ele>76</ele>
        <time>2026-08-23T14:43:25.000Z</time>
      </trkpt>
      <trkpt lat="43.33609" lon="-1.50563">
        <ele>76</ele>
        <time>2026-08-23T14:43:26.000Z</time>
      </trkpt>
      <trkpt lat="43.33608" lon="-1.50575">
        <ele>76</ele>
        <time>2026-08-23T14:43:28.000Z</time>
      </trkpt>
      <trkpt lat="43.33607" lon="-1.50588">
        <ele>76</ele>
        <time>2026-08-23T14:43:30.000Z</time>
      </trkpt>
      <trkpt lat="43.33605" lon="-1.506">
        <ele>75</ele>
        <time>2026-08-23T14:43:31.000Z</time>
      </trkpt>
      <trkpt lat="43.336" lon="-1.50627">
        <ele>73</ele>
        <time>2026-08-23T14:43:35.000Z</time>
      </trkpt>
      <trkpt lat="43.33592" lon="-1.50664">
        <ele>69</ele>
        <time>2026-08-23T14:43:40.000Z</time>
      </trkpt>
      <trkpt lat="43.33592" lon="-1.50673">
        <ele>69</ele>
        <time>2026-08-23T14:43:41.000Z</time>
      </trkpt>
      <trkpt lat="43.3359" lon="-1.50691">
        <ele>67</ele>
        <time>2026-08-23T14:43:43.000Z</time>
      </trkpt>
      <trkpt lat="43.33589" lon="-1.50702">
        <ele>66</ele>
        <time>2026-08-23T14:43:45.000Z</time>
      </trkpt>
      <trkpt lat="43.33588" lon="-1.50731">
        <ele>62</ele>
        <time>2026-08-23T14:43:48.000Z</time>
      </trkpt>
      <trkpt lat="43.33589" lon="-1.50746">
        <ele>61</ele>
        <time>2026-08-23T14:43:50.000Z</time>
      </trkpt>
      <trkpt lat="43.33589" lon="-1.50757">
        <ele>60</ele>
        <time>2026-08-23T14:43:52.000Z</time>
      </trkpt>
      <trkpt lat="43.33591" lon="-1.50775">
        <ele>60</ele>
        <time>2026-08-23T14:43:54.000Z</time>
      </trkpt>
      <trkpt lat="43.336" lon="-1.50844">
        <ele>59</ele>
        <time>2026-08-23T14:44:03.000Z</time>
      </trkpt>
      <trkpt lat="43.336" lon="-1.50856">
        <ele>59</ele>
        <time>2026-08-23T14:44:05.000Z</time>
      </trkpt>
      <trkpt lat="43.33608" lon="-1.50926">
        <ele>57</ele>
        <time>2026-08-23T14:44:14.000Z</time>
      </trkpt>
      <trkpt lat="43.33615" lon="-1.50974">
        <ele>55</ele>
        <time>2026-08-23T14:44:20.000Z</time>
      </trkpt>
      <trkpt lat="43.33621" lon="-1.51021">
        <ele>54</ele>
        <time>2026-08-23T14:44:26.000Z</time>
      </trkpt>
      <trkpt lat="43.33628" lon="-1.51078">
        <ele>53</ele>
        <time>2026-08-23T14:44:34.000Z</time>
      </trkpt>
      <trkpt lat="43.33632" lon="-1.51108">
        <ele>53</ele>
        <time>2026-08-23T14:44:38.000Z</time>
      </trkpt>
      <trkpt lat="43.33638" lon="-1.51135">
        <ele>52</ele>
        <time>2026-08-23T14:44:42.000Z</time>
      </trkpt>
      <trkpt lat="43.33645" lon="-1.51166">
        <ele>52</ele>
        <time>2026-08-23T14:44:46.000Z</time>
      </trkpt>
      <trkpt lat="43.33657" lon="-1.51204">
        <ele>51</ele>
        <time>2026-08-23T14:44:51.000Z</time>
      </trkpt>
      <trkpt lat="43.33662" lon="-1.51222">
        <ele>50</ele>
        <time>2026-08-23T14:44:54.000Z</time>
      </trkpt>
      <trkpt lat="43.33678" lon="-1.51274">
        <ele>50</ele>
        <time>2026-08-23T14:45:01.000Z</time>
      </trkpt>
      <trkpt lat="43.33695" lon="-1.51327">
        <ele>49</ele>
        <time>2026-08-23T14:45:08.000Z</time>
      </trkpt>
      <trkpt lat="43.33715" lon="-1.51392">
        <ele>48</ele>
        <time>2026-08-23T14:45:18.000Z</time>
      </trkpt>
      <trkpt lat="43.33735" lon="-1.51459">
        <ele>48</ele>
        <time>2026-08-23T14:45:27.000Z</time>
      </trkpt>
      <trkpt lat="43.33748" lon="-1.51501">
        <ele>47</ele>
        <time>2026-08-23T14:45:33.000Z</time>
      </trkpt>
      <trkpt lat="43.33749" lon="-1.51502">
        <ele>47</ele>
        <time>2026-08-23T14:45:33.000Z</time>
      </trkpt>
      <trkpt lat="43.33756" lon="-1.51521">
        <ele>47</ele>
        <time>2026-08-23T14:45:36.000Z</time>
      </trkpt>
      <trkpt lat="43.33761" lon="-1.51533">
        <ele>47</ele>
        <time>2026-08-23T14:45:38.000Z</time>
      </trkpt>
      <trkpt lat="43.33772" lon="-1.51561">
        <ele>47</ele>
        <time>2026-08-23T14:45:42.000Z</time>
      </trkpt>
      <trkpt lat="43.3382" lon="-1.51674">
        <ele>45</ele>
        <time>2026-08-23T14:45:59.000Z</time>
      </trkpt>
      <trkpt lat="43.33835" lon="-1.5171">
        <ele>44</ele>
        <time>2026-08-23T14:46:04.000Z</time>
      </trkpt>
      <trkpt lat="43.33908" lon="-1.51887">
        <ele>44</ele>
        <time>2026-08-23T14:46:30.000Z</time>
      </trkpt>
      <trkpt lat="43.33969" lon="-1.52031">
        <ele>41</ele>
        <time>2026-08-23T14:46:52.000Z</time>
      </trkpt>
      <trkpt lat="43.33981" lon="-1.52058">
        <ele>41</ele>
        <time>2026-08-23T14:46:56.000Z</time>
      </trkpt>
      <trkpt lat="43.33993" lon="-1.52089">
        <ele>41</ele>
        <time>2026-08-23T14:47:01.000Z</time>
      </trkpt>
      <trkpt lat="43.34076" lon="-1.52288">
        <ele>42</ele>
        <time>2026-08-23T14:47:30.000Z</time>
      </trkpt>
      <trkpt lat="43.34133" lon="-1.52424">
        <ele>42</ele>
        <time>2026-08-23T14:47:51.000Z</time>
      </trkpt>
      <trkpt lat="43.3414" lon="-1.52441">
        <ele>42</ele>
        <time>2026-08-23T14:47:53.000Z</time>
      </trkpt>
      <trkpt lat="43.34147" lon="-1.52454">
        <ele>42</ele>
        <time>2026-08-23T14:47:55.000Z</time>
      </trkpt>
      <trkpt lat="43.34159" lon="-1.52479">
        <ele>41</ele>
        <time>2026-08-23T14:47:59.000Z</time>
      </trkpt>
      <trkpt lat="43.34182" lon="-1.52518">
        <ele>42</ele>
        <time>2026-08-23T14:48:06.000Z</time>
      </trkpt>
      <trkpt lat="43.34264" lon="-1.52653">
        <ele>40</ele>
        <time>2026-08-23T14:48:28.000Z</time>
      </trkpt>
      <trkpt lat="43.34276" lon="-1.52671">
        <ele>40</ele>
        <time>2026-08-23T14:48:31.000Z</time>
      </trkpt>
      <trkpt lat="43.34301" lon="-1.52712">
        <ele>39</ele>
        <time>2026-08-23T14:48:38.000Z</time>
      </trkpt>
      <trkpt lat="43.34319" lon="-1.52744">
        <ele>36</ele>
        <time>2026-08-23T14:48:44.000Z</time>
      </trkpt>
      <trkpt lat="43.34327" lon="-1.52761">
        <ele>35</ele>
        <time>2026-08-23T14:48:46.000Z</time>
      </trkpt>
      <trkpt lat="43.34327" lon="-1.52761">
        <ele>35</ele>
        <time>2026-08-23T14:48:46.000Z</time>
      </trkpt>
      <trkpt lat="43.34329" lon="-1.5276">
        <ele>35</ele>
        <time>2026-08-23T14:48:47.000Z</time>
      </trkpt>
      <trkpt lat="43.3433" lon="-1.52759">
        <ele>35</ele>
        <time>2026-08-23T14:48:47.000Z</time>
      </trkpt>
      <trkpt lat="43.34331" lon="-1.52758">
        <ele>35</ele>
        <time>2026-08-23T14:48:47.000Z</time>
      </trkpt>
      <trkpt lat="43.34333" lon="-1.52758">
        <ele>35</ele>
        <time>2026-08-23T14:48:47.000Z</time>
      </trkpt>
      <trkpt lat="43.34334" lon="-1.52758">
        <ele>35</ele>
        <time>2026-08-23T14:48:48.000Z</time>
      </trkpt>
      <trkpt lat="43.34335" lon="-1.52758">
        <ele>35</ele>
        <time>2026-08-23T14:48:48.000Z</time>
      </trkpt>
      <trkpt lat="43.34337" lon="-1.52758">
        <ele>35</ele>
        <time>2026-08-23T14:48:48.000Z</time>
      </trkpt>
      <trkpt lat="43.34338" lon="-1.52758">
        <ele>35</ele>
        <time>2026-08-23T14:48:48.000Z</time>
      </trkpt>
      <trkpt lat="43.3434" lon="-1.52758">
        <ele>35</ele>
        <time>2026-08-23T14:48:49.000Z</time>
      </trkpt>
      <trkpt lat="43.34341" lon="-1.52758">
        <ele>35</ele>
        <time>2026-08-23T14:48:49.000Z</time>
      </trkpt>
      <trkpt lat="43.34342" lon="-1.52759">
        <ele>35</ele>
        <time>2026-08-23T14:48:49.000Z</time>
      </trkpt>
      <trkpt lat="43.34344" lon="-1.5276">
        <ele>35</ele>
        <time>2026-08-23T14:48:49.000Z</time>
      </trkpt>
      <trkpt lat="43.34345" lon="-1.52761">
        <ele>35</ele>
        <time>2026-08-23T14:48:50.000Z</time>
      </trkpt>
      <trkpt lat="43.34346" lon="-1.52762">
        <ele>35</ele>
        <time>2026-08-23T14:48:50.000Z</time>
      </trkpt>
      <trkpt lat="43.34347" lon="-1.52763">
        <ele>35</ele>
        <time>2026-08-23T14:48:50.000Z</time>
      </trkpt>
      <trkpt lat="43.34348" lon="-1.52764">
        <ele>35</ele>
        <time>2026-08-23T14:48:50.000Z</time>
      </trkpt>
      <trkpt lat="43.34349" lon="-1.52765">
        <ele>35</ele>
        <time>2026-08-23T14:48:51.000Z</time>
      </trkpt>
      <trkpt lat="43.3435" lon="-1.52767">
        <ele>35</ele>
        <time>2026-08-23T14:48:51.000Z</time>
      </trkpt>
      <trkpt lat="43.34351" lon="-1.52768">
        <ele>35</ele>
        <time>2026-08-23T14:48:51.000Z</time>
      </trkpt>
      <trkpt lat="43.34352" lon="-1.5277">
        <ele>35</ele>
        <time>2026-08-23T14:48:51.000Z</time>
      </trkpt>
      <trkpt lat="43.34352" lon="-1.52772">
        <ele>35</ele>
        <time>2026-08-23T14:48:52.000Z</time>
      </trkpt>
      <trkpt lat="43.34353" lon="-1.52774">
        <ele>35</ele>
        <time>2026-08-23T14:48:52.000Z</time>
      </trkpt>
      <trkpt lat="43.34353" lon="-1.52777">
        <ele>35</ele>
        <time>2026-08-23T14:48:52.000Z</time>
      </trkpt>
      <trkpt lat="43.34354" lon="-1.52779">
        <ele>35</ele>
        <time>2026-08-23T14:48:53.000Z</time>
      </trkpt>
      <trkpt lat="43.34354" lon="-1.52781">
        <ele>35</ele>
        <time>2026-08-23T14:48:53.000Z</time>
      </trkpt>
      <trkpt lat="43.34354" lon="-1.52783">
        <ele>35</ele>
        <time>2026-08-23T14:48:53.000Z</time>
      </trkpt>
      <trkpt lat="43.34354" lon="-1.52785">
        <ele>35</ele>
        <time>2026-08-23T14:48:53.000Z</time>
      </trkpt>
      <trkpt lat="43.34353" lon="-1.52787">
        <ele>35</ele>
        <time>2026-08-23T14:48:54.000Z</time>
      </trkpt>
      <trkpt lat="43.34353" lon="-1.52788">
        <ele>35</ele>
        <time>2026-08-23T14:48:54.000Z</time>
      </trkpt>
      <trkpt lat="43.34353" lon="-1.5279">
        <ele>35</ele>
        <time>2026-08-23T14:48:54.000Z</time>
      </trkpt>
      <trkpt lat="43.34352" lon="-1.52792">
        <ele>35</ele>
        <time>2026-08-23T14:48:54.000Z</time>
      </trkpt>
      <trkpt lat="43.34352" lon="-1.52794">
        <ele>35</ele>
        <time>2026-08-23T14:48:55.000Z</time>
      </trkpt>
      <trkpt lat="43.34351" lon="-1.52795">
        <ele>35</ele>
        <time>2026-08-23T14:48:55.000Z</time>
      </trkpt>
      <trkpt lat="43.3435" lon="-1.52797">
        <ele>35</ele>
        <time>2026-08-23T14:48:55.000Z</time>
      </trkpt>
      <trkpt lat="43.34349" lon="-1.52798">
        <ele>35</ele>
        <time>2026-08-23T14:48:55.000Z</time>
      </trkpt>
      <trkpt lat="43.34375" lon="-1.5284">
        <ele>36</ele>
        <time>2026-08-23T14:49:03.000Z</time>
      </trkpt>
      <trkpt lat="43.34412" lon="-1.52901">
        <ele>35</ele>
        <time>2026-08-23T14:49:13.000Z</time>
      </trkpt>
      <trkpt lat="43.34425" lon="-1.52926">
        <ele>36</ele>
        <time>2026-08-23T14:49:17.000Z</time>
      </trkpt>
      <trkpt lat="43.34429" lon="-1.52936">
        <ele>36</ele>
        <time>2026-08-23T14:49:18.000Z</time>
      </trkpt>
      <trkpt lat="43.34432" lon="-1.52945">
        <ele>36</ele>
        <time>2026-08-23T14:49:20.000Z</time>
      </trkpt>
      <trkpt lat="43.34439" lon="-1.52963">
        <ele>36</ele>
        <time>2026-08-23T14:49:22.000Z</time>
      </trkpt>
      <trkpt lat="43.34443" lon="-1.52977">
        <ele>37</ele>
        <time>2026-08-23T14:49:24.000Z</time>
      </trkpt>
      <trkpt lat="43.34447" lon="-1.52994">
        <ele>37</ele>
        <time>2026-08-23T14:49:26.000Z</time>
      </trkpt>
      <trkpt lat="43.3445" lon="-1.53016">
        <ele>37</ele>
        <time>2026-08-23T14:49:29.000Z</time>
      </trkpt>
      <trkpt lat="43.34453" lon="-1.53048">
        <ele>39</ele>
        <time>2026-08-23T14:49:34.000Z</time>
      </trkpt>
      <trkpt lat="43.34462" lon="-1.53135">
        <ele>40</ele>
        <time>2026-08-23T14:49:45.000Z</time>
      </trkpt>
      <trkpt lat="43.34467" lon="-1.53193">
        <ele>39</ele>
        <time>2026-08-23T14:49:52.000Z</time>
      </trkpt>
      <trkpt lat="43.34472" lon="-1.53244">
        <ele>38</ele>
        <time>2026-08-23T14:49:59.000Z</time>
      </trkpt>
      <trkpt lat="43.34477" lon="-1.533">
        <ele>39</ele>
        <time>2026-08-23T14:50:06.000Z</time>
      </trkpt>
      <trkpt lat="43.34489" lon="-1.53447">
        <ele>42</ele>
        <time>2026-08-23T14:50:26.000Z</time>
      </trkpt>
      <trkpt lat="43.34498" lon="-1.53511">
        <ele>41</ele>
        <time>2026-08-23T14:50:34.000Z</time>
      </trkpt>
      <trkpt lat="43.34523" lon="-1.53669">
        <ele>39</ele>
        <time>2026-08-23T14:50:55.000Z</time>
      </trkpt>
      <trkpt lat="43.34531" lon="-1.53715">
        <ele>39</ele>
        <time>2026-08-23T14:51:01.000Z</time>
      </trkpt>
      <trkpt lat="43.34536" lon="-1.53744">
        <ele>38</ele>
        <time>2026-08-23T14:51:05.000Z</time>
      </trkpt>
      <trkpt lat="43.34547" lon="-1.53787">
        <ele>38</ele>
        <time>2026-08-23T14:51:11.000Z</time>
      </trkpt>
      <trkpt lat="43.34553" lon="-1.5381">
        <ele>38</ele>
        <time>2026-08-23T14:51:14.000Z</time>
      </trkpt>
      <trkpt lat="43.34558" lon="-1.53829">
        <ele>38</ele>
        <time>2026-08-23T14:51:17.000Z</time>
      </trkpt>
      <trkpt lat="43.3456" lon="-1.53848">
        <ele>37</ele>
        <time>2026-08-23T14:51:19.000Z</time>
      </trkpt>
      <trkpt lat="43.34564" lon="-1.53872">
        <ele>36</ele>
        <time>2026-08-23T14:51:22.000Z</time>
      </trkpt>
      <trkpt lat="43.34567" lon="-1.53901">
        <ele>35</ele>
        <time>2026-08-23T14:51:26.000Z</time>
      </trkpt>
      <trkpt lat="43.34567" lon="-1.53925">
        <ele>34</ele>
        <time>2026-08-23T14:51:29.000Z</time>
      </trkpt>
      <trkpt lat="43.34568" lon="-1.53951">
        <ele>34</ele>
        <time>2026-08-23T14:51:33.000Z</time>
      </trkpt>
      <trkpt lat="43.34568" lon="-1.5397">
        <ele>34</ele>
        <time>2026-08-23T14:51:35.000Z</time>
      </trkpt>
      <trkpt lat="43.34571" lon="-1.53987">
        <ele>34</ele>
        <time>2026-08-23T14:51:37.000Z</time>
      </trkpt>
      <trkpt lat="43.34573" lon="-1.54001">
        <ele>34</ele>
        <time>2026-08-23T14:51:39.000Z</time>
      </trkpt>
      <trkpt lat="43.34579" lon="-1.54027">
        <ele>34</ele>
        <time>2026-08-23T14:51:43.000Z</time>
      </trkpt>
      <trkpt lat="43.34586" lon="-1.54048">
        <ele>34</ele>
        <time>2026-08-23T14:51:46.000Z</time>
      </trkpt>
      <trkpt lat="43.34592" lon="-1.54064">
        <ele>34</ele>
        <time>2026-08-23T14:51:48.000Z</time>
      </trkpt>
      <trkpt lat="43.34605" lon="-1.5409">
        <ele>35</ele>
        <time>2026-08-23T14:51:52.000Z</time>
      </trkpt>
      <trkpt lat="43.34621" lon="-1.54121">
        <ele>36</ele>
        <time>2026-08-23T14:51:57.000Z</time>
      </trkpt>
      <trkpt lat="43.34641" lon="-1.5416">
        <ele>37</ele>
        <time>2026-08-23T14:52:03.000Z</time>
      </trkpt>
      <trkpt lat="43.34648" lon="-1.54177">
        <ele>37</ele>
        <time>2026-08-23T14:52:06.000Z</time>
      </trkpt>
      <trkpt lat="43.34655" lon="-1.54195">
        <ele>37</ele>
        <time>2026-08-23T14:52:08.000Z</time>
      </trkpt>
      <trkpt lat="43.34659" lon="-1.54213">
        <ele>37</ele>
        <time>2026-08-23T14:52:11.000Z</time>
      </trkpt>
      <trkpt lat="43.34664" lon="-1.54233">
        <ele>36</ele>
        <time>2026-08-23T14:52:13.000Z</time>
      </trkpt>
      <trkpt lat="43.34667" lon="-1.54253">
        <ele>35</ele>
        <time>2026-08-23T14:52:16.000Z</time>
      </trkpt>
      <trkpt lat="43.34668" lon="-1.54262">
        <ele>35</ele>
        <time>2026-08-23T14:52:17.000Z</time>
      </trkpt>
      <trkpt lat="43.3467" lon="-1.54296">
        <ele>33</ele>
        <time>2026-08-23T14:52:22.000Z</time>
      </trkpt>
      <trkpt lat="43.34673" lon="-1.54386">
        <ele>31</ele>
        <time>2026-08-23T14:52:33.000Z</time>
      </trkpt>
      <trkpt lat="43.34674" lon="-1.54407">
        <ele>30</ele>
        <time>2026-08-23T14:52:36.000Z</time>
      </trkpt>
      <trkpt lat="43.34675" lon="-1.5442">
        <ele>30</ele>
        <time>2026-08-23T14:52:38.000Z</time>
      </trkpt>
      <trkpt lat="43.34677" lon="-1.54436">
        <ele>30</ele>
        <time>2026-08-23T14:52:40.000Z</time>
      </trkpt>
      <trkpt lat="43.34679" lon="-1.54448">
        <ele>29</ele>
        <time>2026-08-23T14:52:41.000Z</time>
      </trkpt>
      <trkpt lat="43.34682" lon="-1.54462">
        <ele>29</ele>
        <time>2026-08-23T14:52:43.000Z</time>
      </trkpt>
      <trkpt lat="43.34688" lon="-1.54481">
        <ele>28</ele>
        <time>2026-08-23T14:52:46.000Z</time>
      </trkpt>
      <trkpt lat="43.34695" lon="-1.54498">
        <ele>28</ele>
        <time>2026-08-23T14:52:49.000Z</time>
      </trkpt>
      <trkpt lat="43.34699" lon="-1.54508">
        <ele>28</ele>
        <time>2026-08-23T14:52:50.000Z</time>
      </trkpt>
      <trkpt lat="43.34706" lon="-1.5452">
        <ele>28</ele>
        <time>2026-08-23T14:52:52.000Z</time>
      </trkpt>
      <trkpt lat="43.34734" lon="-1.54566">
        <ele>27</ele>
        <time>2026-08-23T14:53:00.000Z</time>
      </trkpt>
      <trkpt lat="43.34786" lon="-1.54648">
        <ele>27</ele>
        <time>2026-08-23T14:53:14.000Z</time>
      </trkpt>
      <trkpt lat="43.34824" lon="-1.54708">
        <ele>26</ele>
        <time>2026-08-23T14:53:24.000Z</time>
      </trkpt>
      <trkpt lat="43.34848" lon="-1.54746">
        <ele>25</ele>
        <time>2026-08-23T14:53:31.000Z</time>
      </trkpt>
      <trkpt lat="43.34864" lon="-1.54768">
        <ele>25</ele>
        <time>2026-08-23T14:53:35.000Z</time>
      </trkpt>
      <trkpt lat="43.34879" lon="-1.54789">
        <ele>25</ele>
        <time>2026-08-23T14:53:39.000Z</time>
      </trkpt>
      <trkpt lat="43.34893" lon="-1.54805">
        <ele>24</ele>
        <time>2026-08-23T14:53:42.000Z</time>
      </trkpt>
      <trkpt lat="43.34908" lon="-1.54818">
        <ele>24</ele>
        <time>2026-08-23T14:53:45.000Z</time>
      </trkpt>
      <trkpt lat="43.34918" lon="-1.54826">
        <ele>23</ele>
        <time>2026-08-23T14:53:47.000Z</time>
      </trkpt>
      <trkpt lat="43.34937" lon="-1.54838">
        <ele>23</ele>
        <time>2026-08-23T14:53:51.000Z</time>
      </trkpt>
      <trkpt lat="43.34978" lon="-1.54861">
        <ele>23</ele>
        <time>2026-08-23T14:53:59.000Z</time>
      </trkpt>
      <trkpt lat="43.35052" lon="-1.549">
        <ele>21</ele>
        <time>2026-08-23T14:54:13.000Z</time>
      </trkpt>
      <trkpt lat="43.35079" lon="-1.54914">
        <ele>20</ele>
        <time>2026-08-23T14:54:18.000Z</time>
      </trkpt>
      <trkpt lat="43.35083" lon="-1.54915">
        <ele>20</ele>
        <time>2026-08-23T14:54:19.000Z</time>
      </trkpt>
      <trkpt lat="43.35093" lon="-1.54925">
        <ele>20</ele>
        <time>2026-08-23T14:54:21.000Z</time>
      </trkpt>
      <trkpt lat="43.35099" lon="-1.54929">
        <ele>19</ele>
        <time>2026-08-23T14:54:22.000Z</time>
      </trkpt>
      <trkpt lat="43.35103" lon="-1.54931">
        <ele>19</ele>
        <time>2026-08-23T14:54:23.000Z</time>
      </trkpt>
      <trkpt lat="43.35108" lon="-1.54935">
        <ele>19</ele>
        <time>2026-08-23T14:54:24.000Z</time>
      </trkpt>
      <trkpt lat="43.35108" lon="-1.54935">
        <ele>19</ele>
        <time>2026-08-23T14:54:24.000Z</time>
      </trkpt>
      <trkpt lat="43.3511" lon="-1.54935">
        <ele>19</ele>
        <time>2026-08-23T14:54:24.000Z</time>
      </trkpt>
      <trkpt lat="43.35111" lon="-1.54935">
        <ele>19</ele>
        <time>2026-08-23T14:54:24.000Z</time>
      </trkpt>
      <trkpt lat="43.35113" lon="-1.54935">
        <ele>19</ele>
        <time>2026-08-23T14:54:25.000Z</time>
      </trkpt>
      <trkpt lat="43.35115" lon="-1.54935">
        <ele>19</ele>
        <time>2026-08-23T14:54:25.000Z</time>
      </trkpt>
      <trkpt lat="43.35117" lon="-1.54936">
        <ele>19</ele>
        <time>2026-08-23T14:54:25.000Z</time>
      </trkpt>
      <trkpt lat="43.35119" lon="-1.54937">
        <ele>19</ele>
        <time>2026-08-23T14:54:26.000Z</time>
      </trkpt>
      <trkpt lat="43.35121" lon="-1.54938">
        <ele>19</ele>
        <time>2026-08-23T14:54:26.000Z</time>
      </trkpt>
      <trkpt lat="43.35124" lon="-1.5494">
        <ele>19</ele>
        <time>2026-08-23T14:54:27.000Z</time>
      </trkpt>
      <trkpt lat="43.35132" lon="-1.54943">
        <ele>18</ele>
        <time>2026-08-23T14:54:28.000Z</time>
      </trkpt>
      <trkpt lat="43.35139" lon="-1.54945">
        <ele>18</ele>
        <time>2026-08-23T14:54:29.000Z</time>
      </trkpt>
      <trkpt lat="43.35146" lon="-1.54945">
        <ele>18</ele>
        <time>2026-08-23T14:54:31.000Z</time>
      </trkpt>
      <trkpt lat="43.35155" lon="-1.54945">
        <ele>18</ele>
        <time>2026-08-23T14:54:32.000Z</time>
      </trkpt>
      <trkpt lat="43.3516" lon="-1.54945">
        <ele>18</ele>
        <time>2026-08-23T14:54:33.000Z</time>
      </trkpt>
      <trkpt lat="43.35165" lon="-1.54947">
        <ele>18</ele>
        <time>2026-08-23T14:54:34.000Z</time>
      </trkpt>
      <trkpt lat="43.35171" lon="-1.54948">
        <ele>18</ele>
        <time>2026-08-23T14:54:35.000Z</time>
      </trkpt>
      <trkpt lat="43.35178" lon="-1.54951">
        <ele>18</ele>
        <time>2026-08-23T14:54:36.000Z</time>
      </trkpt>
      <trkpt lat="43.35193" lon="-1.54955">
        <ele>18</ele>
        <time>2026-08-23T14:54:39.000Z</time>
      </trkpt>
      <trkpt lat="43.3521" lon="-1.54961">
        <ele>18</ele>
        <time>2026-08-23T14:54:42.000Z</time>
      </trkpt>
      <trkpt lat="43.3523" lon="-1.54967">
        <ele>18</ele>
        <time>2026-08-23T14:54:46.000Z</time>
      </trkpt>
      <trkpt lat="43.35286" lon="-1.54985">
        <ele>19</ele>
        <time>2026-08-23T14:54:56.000Z</time>
      </trkpt>
      <trkpt lat="43.35295" lon="-1.54989">
        <ele>19</ele>
        <time>2026-08-23T14:54:58.000Z</time>
      </trkpt>
      <trkpt lat="43.35382" lon="-1.55015">
        <ele>19</ele>
        <time>2026-08-23T14:55:14.000Z</time>
      </trkpt>
      <trkpt lat="43.35423" lon="-1.55027">
        <ele>19</ele>
        <time>2026-08-23T14:55:21.000Z</time>
      </trkpt>
      <trkpt lat="43.35428" lon="-1.55028">
        <ele>19</ele>
        <time>2026-08-23T14:55:22.000Z</time>
      </trkpt>
      <trkpt lat="43.35433" lon="-1.5503">
        <ele>19</ele>
        <time>2026-08-23T14:55:23.000Z</time>
      </trkpt>
      <trkpt lat="43.35464" lon="-1.55039">
        <ele>20</ele>
        <time>2026-08-23T14:55:29.000Z</time>
      </trkpt>
      <trkpt lat="43.35481" lon="-1.55044">
        <ele>20</ele>
        <time>2026-08-23T14:55:32.000Z</time>
      </trkpt>
      <trkpt lat="43.35508" lon="-1.55051">
        <ele>20</ele>
        <time>2026-08-23T14:55:37.000Z</time>
      </trkpt>
      <trkpt lat="43.35529" lon="-1.55055">
        <ele>20</ele>
        <time>2026-08-23T14:55:40.000Z</time>
      </trkpt>
      <trkpt lat="43.35558" lon="-1.55057">
        <ele>20</ele>
        <time>2026-08-23T14:55:46.000Z</time>
      </trkpt>
      <trkpt lat="43.35584" lon="-1.5506">
        <ele>20</ele>
        <time>2026-08-23T14:55:50.000Z</time>
      </trkpt>
      <trkpt lat="43.35604" lon="-1.5506">
        <ele>21</ele>
        <time>2026-08-23T14:55:54.000Z</time>
      </trkpt>
      <trkpt lat="43.35626" lon="-1.5506">
        <ele>21</ele>
        <time>2026-08-23T14:55:58.000Z</time>
      </trkpt>
      <trkpt lat="43.35635" lon="-1.55059">
        <ele>22</ele>
        <time>2026-08-23T14:55:59.000Z</time>
      </trkpt>
      <trkpt lat="43.35639" lon="-1.55059">
        <ele>22</ele>
        <time>2026-08-23T14:56:00.000Z</time>
      </trkpt>
      <trkpt lat="43.35639" lon="-1.55059">
        <ele>22</ele>
        <time>2026-08-23T14:56:00.000Z</time>
      </trkpt>
      <trkpt lat="43.35659" lon="-1.551">
        <ele>21</ele>
        <time>2026-08-23T14:56:06.000Z</time>
      </trkpt>
      <trkpt lat="43.35666" lon="-1.55117">
        <ele>21</ele>
        <time>2026-08-23T14:56:09.000Z</time>
      </trkpt>
      <trkpt lat="43.35676" lon="-1.55136">
        <ele>21</ele>
        <time>2026-08-23T14:56:12.000Z</time>
      </trkpt>
      <trkpt lat="43.35693" lon="-1.55164">
        <ele>22</ele>
        <time>2026-08-23T14:56:17.000Z</time>
      </trkpt>
      <trkpt lat="43.35708" lon="-1.5519">
        <ele>22</ele>
        <time>2026-08-23T14:56:21.000Z</time>
      </trkpt>
      <trkpt lat="43.35725" lon="-1.55214">
        <ele>22</ele>
        <time>2026-08-23T14:56:25.000Z</time>
      </trkpt>
      <trkpt lat="43.35748" lon="-1.55248">
        <ele>22</ele>
        <time>2026-08-23T14:56:31.000Z</time>
      </trkpt>
      <trkpt lat="43.35753" lon="-1.55256">
        <ele>22</ele>
        <time>2026-08-23T14:56:33.000Z</time>
      </trkpt>
      <trkpt lat="43.35757" lon="-1.55265">
        <ele>22</ele>
        <time>2026-08-23T14:56:34.000Z</time>
      </trkpt>
      <trkpt lat="43.3576" lon="-1.55272">
        <ele>22</ele>
        <time>2026-08-23T14:56:35.000Z</time>
      </trkpt>
      <trkpt lat="43.35765" lon="-1.55287">
        <ele>22</ele>
        <time>2026-08-23T14:56:37.000Z</time>
      </trkpt>
      <trkpt lat="43.35767" lon="-1.55299">
        <ele>22</ele>
        <time>2026-08-23T14:56:39.000Z</time>
      </trkpt>
      <trkpt lat="43.3577" lon="-1.55312">
        <ele>21</ele>
        <time>2026-08-23T14:56:41.000Z</time>
      </trkpt>
      <trkpt lat="43.35775" lon="-1.55347">
        <ele>21</ele>
        <time>2026-08-23T14:56:45.000Z</time>
      </trkpt>
      <trkpt lat="43.3579" lon="-1.55455">
        <ele>23</ele>
        <time>2026-08-23T14:56:59.000Z</time>
      </trkpt>
      <trkpt lat="43.35793" lon="-1.55478">
        <ele>24</ele>
        <time>2026-08-23T14:57:02.000Z</time>
      </trkpt>
      <trkpt lat="43.35795" lon="-1.55499">
        <ele>25</ele>
        <time>2026-08-23T14:57:05.000Z</time>
      </trkpt>
      <trkpt lat="43.35797" lon="-1.55516">
        <ele>25</ele>
        <time>2026-08-23T14:57:07.000Z</time>
      </trkpt>
      <trkpt lat="43.35797" lon="-1.55531">
        <ele>25</ele>
        <time>2026-08-23T14:57:09.000Z</time>
      </trkpt>
      <trkpt lat="43.35795" lon="-1.55546">
        <ele>25</ele>
        <time>2026-08-23T14:57:11.000Z</time>
      </trkpt>
      <trkpt lat="43.35794" lon="-1.5556">
        <ele>25</ele>
        <time>2026-08-23T14:57:13.000Z</time>
      </trkpt>
      <trkpt lat="43.35789" lon="-1.55585">
        <ele>24</ele>
        <time>2026-08-23T14:57:16.000Z</time>
      </trkpt>
      <trkpt lat="43.35785" lon="-1.5561">
        <ele>23</ele>
        <time>2026-08-23T14:57:20.000Z</time>
      </trkpt>
      <trkpt lat="43.35781" lon="-1.55628">
        <ele>23</ele>
        <time>2026-08-23T14:57:22.000Z</time>
      </trkpt>
      <trkpt lat="43.3578" lon="-1.55638">
        <ele>23</ele>
        <time>2026-08-23T14:57:24.000Z</time>
      </trkpt>
      <trkpt lat="43.3578" lon="-1.55652">
        <ele>23</ele>
        <time>2026-08-23T14:57:25.000Z</time>
      </trkpt>
      <trkpt lat="43.35779" lon="-1.5567">
        <ele>23</ele>
        <time>2026-08-23T14:57:28.000Z</time>
      </trkpt>
      <trkpt lat="43.35779" lon="-1.55696">
        <ele>24</ele>
        <time>2026-08-23T14:57:31.000Z</time>
      </trkpt>
      <trkpt lat="43.3578" lon="-1.55733">
        <ele>25</ele>
        <time>2026-08-23T14:57:36.000Z</time>
      </trkpt>
      <trkpt lat="43.35783" lon="-1.55805">
        <ele>25</ele>
        <time>2026-08-23T14:57:45.000Z</time>
      </trkpt>
      <trkpt lat="43.35786" lon="-1.55881">
        <ele>21</ele>
        <time>2026-08-23T14:57:55.000Z</time>
      </trkpt>
      <trkpt lat="43.35786" lon="-1.55903">
        <ele>19</ele>
        <time>2026-08-23T14:57:58.000Z</time>
      </trkpt>
      <trkpt lat="43.35785" lon="-1.55916">
        <ele>18</ele>
        <time>2026-08-23T14:58:00.000Z</time>
      </trkpt>
      <trkpt lat="43.35783" lon="-1.55927">
        <ele>18</ele>
        <time>2026-08-23T14:58:01.000Z</time>
      </trkpt>
      <trkpt lat="43.35781" lon="-1.55938">
        <ele>18</ele>
        <time>2026-08-23T14:58:02.000Z</time>
      </trkpt>
      <trkpt lat="43.35778" lon="-1.55949">
        <ele>18</ele>
        <time>2026-08-23T14:58:04.000Z</time>
      </trkpt>
      <trkpt lat="43.35778" lon="-1.55952">
        <ele>18</ele>
        <time>2026-08-23T14:58:04.000Z</time>
      </trkpt>
      <trkpt lat="43.35778" lon="-1.55954">
        <ele>18</ele>
        <time>2026-08-23T14:58:05.000Z</time>
      </trkpt>
      <trkpt lat="43.3577" lon="-1.55975">
        <ele>18</ele>
        <time>2026-08-23T14:58:08.000Z</time>
      </trkpt>
      <trkpt lat="43.35766" lon="-1.55989">
        <ele>18</ele>
        <time>2026-08-23T14:58:10.000Z</time>
      </trkpt>
      <trkpt lat="43.35766" lon="-1.5599">
        <ele>18</ele>
        <time>2026-08-23T14:58:10.000Z</time>
      </trkpt>
      <trkpt lat="43.35766" lon="-1.55991">
        <ele>18</ele>
        <time>2026-08-23T14:58:10.000Z</time>
      </trkpt>
      <trkpt lat="43.35767" lon="-1.55992">
        <ele>18</ele>
        <time>2026-08-23T14:58:10.000Z</time>
      </trkpt>
      <trkpt lat="43.35767" lon="-1.55993">
        <ele>18</ele>
        <time>2026-08-23T14:58:10.000Z</time>
      </trkpt>
      <trkpt lat="43.35767" lon="-1.55994">
        <ele>18</ele>
        <time>2026-08-23T14:58:10.000Z</time>
      </trkpt>
      <trkpt lat="43.35767" lon="-1.55995">
        <ele>18</ele>
        <time>2026-08-23T14:58:11.000Z</time>
      </trkpt>
      <trkpt lat="43.35767" lon="-1.55996">
        <ele>18</ele>
        <time>2026-08-23T14:58:11.000Z</time>
      </trkpt>
      <trkpt lat="43.35767" lon="-1.55997">
        <ele>18</ele>
        <time>2026-08-23T14:58:11.000Z</time>
      </trkpt>
      <trkpt lat="43.35767" lon="-1.56">
        <ele>18</ele>
        <time>2026-08-23T14:58:11.000Z</time>
      </trkpt>
      <trkpt lat="43.35767" lon="-1.56001">
        <ele>18</ele>
        <time>2026-08-23T14:58:11.000Z</time>
      </trkpt>
      <trkpt lat="43.35766" lon="-1.56003">
        <ele>18</ele>
        <time>2026-08-23T14:58:12.000Z</time>
      </trkpt>
      <trkpt lat="43.35766" lon="-1.56004">
        <ele>18</ele>
        <time>2026-08-23T14:58:12.000Z</time>
      </trkpt>
      <trkpt lat="43.35766" lon="-1.56005">
        <ele>18</ele>
        <time>2026-08-23T14:58:12.000Z</time>
      </trkpt>
      <trkpt lat="43.35765" lon="-1.56006">
        <ele>19</ele>
        <time>2026-08-23T14:58:12.000Z</time>
      </trkpt>
      <trkpt lat="43.35765" lon="-1.56008">
        <ele>19</ele>
        <time>2026-08-23T14:58:12.000Z</time>
      </trkpt>
      <trkpt lat="43.35764" lon="-1.56009">
        <ele>19</ele>
        <time>2026-08-23T14:58:13.000Z</time>
      </trkpt>
      <trkpt lat="43.35764" lon="-1.5601">
        <ele>19</ele>
        <time>2026-08-23T14:58:13.000Z</time>
      </trkpt>
      <trkpt lat="43.35763" lon="-1.56011">
        <ele>19</ele>
        <time>2026-08-23T14:58:13.000Z</time>
      </trkpt>
      <trkpt lat="43.35762" lon="-1.56012">
        <ele>19</ele>
        <time>2026-08-23T14:58:13.000Z</time>
      </trkpt>
      <trkpt lat="43.35762" lon="-1.56013">
        <ele>19</ele>
        <time>2026-08-23T14:58:13.000Z</time>
      </trkpt>
      <trkpt lat="43.35761" lon="-1.56014">
        <ele>19</ele>
        <time>2026-08-23T14:58:13.000Z</time>
      </trkpt>
      <trkpt lat="43.3576" lon="-1.56014">
        <ele>19</ele>
        <time>2026-08-23T14:58:14.000Z</time>
      </trkpt>
      <trkpt lat="43.35759" lon="-1.56015">
        <ele>19</ele>
        <time>2026-08-23T14:58:14.000Z</time>
      </trkpt>
      <trkpt lat="43.35758" lon="-1.56016">
        <ele>19</ele>
        <time>2026-08-23T14:58:14.000Z</time>
      </trkpt>
      <trkpt lat="43.35757" lon="-1.56016">
        <ele>19</ele>
        <time>2026-08-23T14:58:14.000Z</time>
      </trkpt>
      <trkpt lat="43.35756" lon="-1.56017">
        <ele>19</ele>
        <time>2026-08-23T14:58:15.000Z</time>
      </trkpt>
      <trkpt lat="43.35755" lon="-1.56017">
        <ele>19</ele>
        <time>2026-08-23T14:58:15.000Z</time>
      </trkpt>
      <trkpt lat="43.35754" lon="-1.56017">
        <ele>19</ele>
        <time>2026-08-23T14:58:15.000Z</time>
      </trkpt>
      <trkpt lat="43.35753" lon="-1.56017">
        <ele>19</ele>
        <time>2026-08-23T14:58:15.000Z</time>
      </trkpt>
      <trkpt lat="43.35752" lon="-1.56017">
        <ele>19</ele>
        <time>2026-08-23T14:58:15.000Z</time>
      </trkpt>
      <trkpt lat="43.35751" lon="-1.56017">
        <ele>19</ele>
        <time>2026-08-23T14:58:15.000Z</time>
      </trkpt>
      <trkpt lat="43.3575" lon="-1.56017">
        <ele>19</ele>
        <time>2026-08-23T14:58:16.000Z</time>
      </trkpt>
      <trkpt lat="43.35749" lon="-1.56017">
        <ele>19</ele>
        <time>2026-08-23T14:58:16.000Z</time>
      </trkpt>
      <trkpt lat="43.35728" lon="-1.56038">
        <ele>19</ele>
        <time>2026-08-23T14:58:20.000Z</time>
      </trkpt>
      <trkpt lat="43.35727" lon="-1.56038">
        <ele>19</ele>
        <time>2026-08-23T14:58:21.000Z</time>
      </trkpt>
      <trkpt lat="43.35724" lon="-1.56038">
        <ele>19</ele>
        <time>2026-08-23T14:58:21.000Z</time>
      </trkpt>
      <trkpt lat="43.35714" lon="-1.56046">
        <ele>19</ele>
        <time>2026-08-23T14:58:23.000Z</time>
      </trkpt>
      <trkpt lat="43.35697" lon="-1.56056">
        <ele>18</ele>
        <time>2026-08-23T14:58:26.000Z</time>
      </trkpt>
      <trkpt lat="43.35674" lon="-1.5607">
        <ele>18</ele>
        <time>2026-08-23T14:58:31.000Z</time>
      </trkpt>
      <trkpt lat="43.35652" lon="-1.56087">
        <ele>18</ele>
        <time>2026-08-23T14:58:35.000Z</time>
      </trkpt>
      <trkpt lat="43.35644" lon="-1.56093">
        <ele>18</ele>
        <time>2026-08-23T14:58:37.000Z</time>
      </trkpt>
      <trkpt lat="43.35641" lon="-1.56097">
        <ele>18</ele>
        <time>2026-08-23T14:58:38.000Z</time>
      </trkpt>
      <trkpt lat="43.35637" lon="-1.56102">
        <ele>18</ele>
        <time>2026-08-23T14:58:39.000Z</time>
      </trkpt>
      <trkpt lat="43.35632" lon="-1.56109">
        <ele>18</ele>
        <time>2026-08-23T14:58:40.000Z</time>
      </trkpt>
      <trkpt lat="43.35628" lon="-1.56117">
        <ele>18</ele>
        <time>2026-08-23T14:58:41.000Z</time>
      </trkpt>
      <trkpt lat="43.35622" lon="-1.56134">
        <ele>18</ele>
        <time>2026-08-23T14:58:44.000Z</time>
      </trkpt>
      <trkpt lat="43.3562" lon="-1.56143">
        <ele>19</ele>
        <time>2026-08-23T14:58:45.000Z</time>
      </trkpt>
      <trkpt lat="43.35619" lon="-1.56151">
        <ele>19</ele>
        <time>2026-08-23T14:58:46.000Z</time>
      </trkpt>
      <trkpt lat="43.35618" lon="-1.56158">
        <ele>19</ele>
        <time>2026-08-23T14:58:47.000Z</time>
      </trkpt>
      <trkpt lat="43.35615" lon="-1.5618">
        <ele>19</ele>
        <time>2026-08-23T14:58:50.000Z</time>
      </trkpt>
      <trkpt lat="43.35615" lon="-1.56214">
        <ele>19</ele>
        <time>2026-08-23T14:58:54.000Z</time>
      </trkpt>
      <trkpt lat="43.35615" lon="-1.56229">
        <ele>18</ele>
        <time>2026-08-23T14:58:56.000Z</time>
      </trkpt>
      <trkpt lat="43.35615" lon="-1.56269">
        <ele>18</ele>
        <time>2026-08-23T14:59:01.000Z</time>
      </trkpt>
      <trkpt lat="43.35617" lon="-1.56314">
        <ele>18</ele>
        <time>2026-08-23T14:59:07.000Z</time>
      </trkpt>
      <trkpt lat="43.35619" lon="-1.56377">
        <ele>18</ele>
        <time>2026-08-23T14:59:15.000Z</time>
      </trkpt>
      <trkpt lat="43.35621" lon="-1.56507">
        <ele>19</ele>
        <time>2026-08-23T14:59:32.000Z</time>
      </trkpt>
      <trkpt lat="43.35621" lon="-1.56516">
        <ele>19</ele>
        <time>2026-08-23T14:59:33.000Z</time>
      </trkpt>
      <trkpt lat="43.35622" lon="-1.56561">
        <ele>19</ele>
        <time>2026-08-23T14:59:39.000Z</time>
      </trkpt>
      <trkpt lat="43.35623" lon="-1.5661">
        <ele>19</ele>
        <time>2026-08-23T14:59:45.000Z</time>
      </trkpt>
      <trkpt lat="43.35623" lon="-1.56643">
        <ele>19</ele>
        <time>2026-08-23T14:59:50.000Z</time>
      </trkpt>
      <trkpt lat="43.35622" lon="-1.56656">
        <ele>19</ele>
        <time>2026-08-23T14:59:51.000Z</time>
      </trkpt>
      <trkpt lat="43.35621" lon="-1.56668">
        <ele>19</ele>
        <time>2026-08-23T14:59:53.000Z</time>
      </trkpt>
      <trkpt lat="43.3562" lon="-1.56677">
        <ele>19</ele>
        <time>2026-08-23T14:59:54.000Z</time>
      </trkpt>
      <trkpt lat="43.35618" lon="-1.56687">
        <ele>19</ele>
        <time>2026-08-23T14:59:55.000Z</time>
      </trkpt>
      <trkpt lat="43.35615" lon="-1.56701">
        <ele>19</ele>
        <time>2026-08-23T14:59:57.000Z</time>
      </trkpt>
      <trkpt lat="43.3561" lon="-1.56721">
        <ele>18</ele>
        <time>2026-08-23T15:00:00.000Z</time>
      </trkpt>
      <trkpt lat="43.3559" lon="-1.56786">
        <ele>17</ele>
        <time>2026-08-23T15:00:09.000Z</time>
      </trkpt>
      <trkpt lat="43.35588" lon="-1.56797">
        <ele>17</ele>
        <time>2026-08-23T15:00:11.000Z</time>
      </trkpt>
      <trkpt lat="43.35586" lon="-1.56805">
        <ele>17</ele>
        <time>2026-08-23T15:00:12.000Z</time>
      </trkpt>
      <trkpt lat="43.35586" lon="-1.56809">
        <ele>17</ele>
        <time>2026-08-23T15:00:12.000Z</time>
      </trkpt>
      <trkpt lat="43.35586" lon="-1.56819">
        <ele>17</ele>
        <time>2026-08-23T15:00:14.000Z</time>
      </trkpt>
      <trkpt lat="43.35586" lon="-1.56829">
        <ele>17</ele>
        <time>2026-08-23T15:00:15.000Z</time>
      </trkpt>
      <trkpt lat="43.35587" lon="-1.56837">
        <ele>17</ele>
        <time>2026-08-23T15:00:16.000Z</time>
      </trkpt>
      <trkpt lat="43.35588" lon="-1.56846">
        <ele>17</ele>
        <time>2026-08-23T15:00:17.000Z</time>
      </trkpt>
      <trkpt lat="43.35591" lon="-1.56856">
        <ele>17</ele>
        <time>2026-08-23T15:00:19.000Z</time>
      </trkpt>
      <trkpt lat="43.35595" lon="-1.56868">
        <ele>17</ele>
        <time>2026-08-23T15:00:20.000Z</time>
      </trkpt>
      <trkpt lat="43.35598" lon="-1.56877">
        <ele>17</ele>
        <time>2026-08-23T15:00:22.000Z</time>
      </trkpt>
      <trkpt lat="43.35603" lon="-1.56887">
        <ele>17</ele>
        <time>2026-08-23T15:00:23.000Z</time>
      </trkpt>
      <trkpt lat="43.35608" lon="-1.56894">
        <ele>17</ele>
        <time>2026-08-23T15:00:24.000Z</time>
      </trkpt>
      <trkpt lat="43.35612" lon="-1.56902">
        <ele>17</ele>
        <time>2026-08-23T15:00:26.000Z</time>
      </trkpt>
      <trkpt lat="43.35616" lon="-1.56908">
        <ele>17</ele>
        <time>2026-08-23T15:00:27.000Z</time>
      </trkpt>
      <trkpt lat="43.35623" lon="-1.56921">
        <ele>17</ele>
        <time>2026-08-23T15:00:29.000Z</time>
      </trkpt>
      <trkpt lat="43.35632" lon="-1.56938">
        <ele>17</ele>
        <time>2026-08-23T15:00:31.000Z</time>
      </trkpt>
      <trkpt lat="43.35641" lon="-1.56954">
        <ele>16</ele>
        <time>2026-08-23T15:00:34.000Z</time>
      </trkpt>
      <trkpt lat="43.35648" lon="-1.56969">
        <ele>16</ele>
        <time>2026-08-23T15:00:36.000Z</time>
      </trkpt>
      <trkpt lat="43.35663" lon="-1.57005">
        <ele>15</ele>
        <time>2026-08-23T15:00:42.000Z</time>
      </trkpt>
      <trkpt lat="43.35681" lon="-1.57041">
        <ele>15</ele>
        <time>2026-08-23T15:00:47.000Z</time>
      </trkpt>
      <trkpt lat="43.35712" lon="-1.57106">
        <ele>15</ele>
        <time>2026-08-23T15:00:57.000Z</time>
      </trkpt>
      <trkpt lat="43.35723" lon="-1.57133">
        <ele>15</ele>
        <time>2026-08-23T15:01:01.000Z</time>
      </trkpt>
      <trkpt lat="43.35727" lon="-1.57142">
        <ele>15</ele>
        <time>2026-08-23T15:01:03.000Z</time>
      </trkpt>
      <trkpt lat="43.35731" lon="-1.57153">
        <ele>15</ele>
        <time>2026-08-23T15:01:04.000Z</time>
      </trkpt>
      <trkpt lat="43.35734" lon="-1.57164">
        <ele>15</ele>
        <time>2026-08-23T15:01:06.000Z</time>
      </trkpt>
      <trkpt lat="43.35737" lon="-1.57174">
        <ele>15</ele>
        <time>2026-08-23T15:01:07.000Z</time>
      </trkpt>
      <trkpt lat="43.3574" lon="-1.57186">
        <ele>15</ele>
        <time>2026-08-23T15:01:09.000Z</time>
      </trkpt>
      <trkpt lat="43.35741" lon="-1.57197">
        <ele>15</ele>
        <time>2026-08-23T15:01:10.000Z</time>
      </trkpt>
      <trkpt lat="43.35743" lon="-1.57209">
        <ele>14</ele>
        <time>2026-08-23T15:01:12.000Z</time>
      </trkpt>
      <trkpt lat="43.35745" lon="-1.57225">
        <ele>14</ele>
        <time>2026-08-23T15:01:14.000Z</time>
      </trkpt>
      <trkpt lat="43.35748" lon="-1.57256">
        <ele>14</ele>
        <time>2026-08-23T15:01:18.000Z</time>
      </trkpt>
      <trkpt lat="43.35754" lon="-1.57324">
        <ele>13</ele>
        <time>2026-08-23T15:01:27.000Z</time>
      </trkpt>
      <trkpt lat="43.35756" lon="-1.57342">
        <ele>13</ele>
        <time>2026-08-23T15:01:29.000Z</time>
      </trkpt>
      <trkpt lat="43.35758" lon="-1.57369">
        <ele>13</ele>
        <time>2026-08-23T15:01:33.000Z</time>
      </trkpt>
      <trkpt lat="43.35764" lon="-1.57416">
        <ele>13</ele>
        <time>2026-08-23T15:01:39.000Z</time>
      </trkpt>
      <trkpt lat="43.35766" lon="-1.57422">
        <ele>13</ele>
        <time>2026-08-23T15:01:40.000Z</time>
      </trkpt>
      <trkpt lat="43.35769" lon="-1.57429">
        <ele>13</ele>
        <time>2026-08-23T15:01:41.000Z</time>
      </trkpt>
      <trkpt lat="43.35772" lon="-1.57437">
        <ele>13</ele>
        <time>2026-08-23T15:01:42.000Z</time>
      </trkpt>
      <trkpt lat="43.35776" lon="-1.57444">
        <ele>13</ele>
        <time>2026-08-23T15:01:43.000Z</time>
      </trkpt>
      <trkpt lat="43.35781" lon="-1.57453">
        <ele>13</ele>
        <time>2026-08-23T15:01:45.000Z</time>
      </trkpt>
      <trkpt lat="43.35781" lon="-1.57453">
        <ele>13</ele>
        <time>2026-08-23T15:01:45.000Z</time>
      </trkpt>
      <trkpt lat="43.35782" lon="-1.57454">
        <ele>13</ele>
        <time>2026-08-23T15:01:45.000Z</time>
      </trkpt>
      <trkpt lat="43.35783" lon="-1.57454">
        <ele>13</ele>
        <time>2026-08-23T15:01:45.000Z</time>
      </trkpt>
      <trkpt lat="43.35783" lon="-1.57455">
        <ele>13</ele>
        <time>2026-08-23T15:01:45.000Z</time>
      </trkpt>
      <trkpt lat="43.35784" lon="-1.57455">
        <ele>13</ele>
        <time>2026-08-23T15:01:45.000Z</time>
      </trkpt>
      <trkpt lat="43.35785" lon="-1.57456">
        <ele>13</ele>
        <time>2026-08-23T15:01:46.000Z</time>
      </trkpt>
      <trkpt lat="43.35786" lon="-1.57457">
        <ele>13</ele>
        <time>2026-08-23T15:01:46.000Z</time>
      </trkpt>
      <trkpt lat="43.35787" lon="-1.57458">
        <ele>13</ele>
        <time>2026-08-23T15:01:46.000Z</time>
      </trkpt>
      <trkpt lat="43.35787" lon="-1.57459">
        <ele>13</ele>
        <time>2026-08-23T15:01:46.000Z</time>
      </trkpt>
      <trkpt lat="43.35787" lon="-1.5746">
        <ele>13</ele>
        <time>2026-08-23T15:01:46.000Z</time>
      </trkpt>
      <trkpt lat="43.35788" lon="-1.5746">
        <ele>13</ele>
        <time>2026-08-23T15:01:47.000Z</time>
      </trkpt>
      <trkpt lat="43.35788" lon="-1.57461">
        <ele>13</ele>
        <time>2026-08-23T15:01:47.000Z</time>
      </trkpt>
      <trkpt lat="43.35788" lon="-1.57462">
        <ele>13</ele>
        <time>2026-08-23T15:01:47.000Z</time>
      </trkpt>
      <trkpt lat="43.35789" lon="-1.57463">
        <ele>13</ele>
        <time>2026-08-23T15:01:47.000Z</time>
      </trkpt>
      <trkpt lat="43.35789" lon="-1.57464">
        <ele>13</ele>
        <time>2026-08-23T15:01:47.000Z</time>
      </trkpt>
      <trkpt lat="43.35789" lon="-1.57465">
        <ele>13</ele>
        <time>2026-08-23T15:01:47.000Z</time>
      </trkpt>
      <trkpt lat="43.35789" lon="-1.57466">
        <ele>13</ele>
        <time>2026-08-23T15:01:47.000Z</time>
      </trkpt>
      <trkpt lat="43.35789" lon="-1.57467">
        <ele>13</ele>
        <time>2026-08-23T15:01:48.000Z</time>
      </trkpt>
      <trkpt lat="43.35789" lon="-1.57468">
        <ele>13</ele>
        <time>2026-08-23T15:01:48.000Z</time>
      </trkpt>
      <trkpt lat="43.35789" lon="-1.57469">
        <ele>13</ele>
        <time>2026-08-23T15:01:48.000Z</time>
      </trkpt>
      <trkpt lat="43.35789" lon="-1.5747">
        <ele>13</ele>
        <time>2026-08-23T15:01:48.000Z</time>
      </trkpt>
      <trkpt lat="43.35789" lon="-1.57471">
        <ele>13</ele>
        <time>2026-08-23T15:01:48.000Z</time>
      </trkpt>
      <trkpt lat="43.35789" lon="-1.57472">
        <ele>13</ele>
        <time>2026-08-23T15:01:48.000Z</time>
      </trkpt>
      <trkpt lat="43.35788" lon="-1.57473">
        <ele>13</ele>
        <time>2026-08-23T15:01:48.000Z</time>
      </trkpt>
      <trkpt lat="43.35788" lon="-1.57474">
        <ele>13</ele>
        <time>2026-08-23T15:01:49.000Z</time>
      </trkpt>
      <trkpt lat="43.35788" lon="-1.57475">
        <ele>13</ele>
        <time>2026-08-23T15:01:49.000Z</time>
      </trkpt>
      <trkpt lat="43.35787" lon="-1.57476">
        <ele>13</ele>
        <time>2026-08-23T15:01:49.000Z</time>
      </trkpt>
      <trkpt lat="43.35787" lon="-1.57477">
        <ele>13</ele>
        <time>2026-08-23T15:01:49.000Z</time>
      </trkpt>
      <trkpt lat="43.35786" lon="-1.57477">
        <ele>13</ele>
        <time>2026-08-23T15:01:49.000Z</time>
      </trkpt>
      <trkpt lat="43.35786" lon="-1.57478">
        <ele>13</ele>
        <time>2026-08-23T15:01:49.000Z</time>
      </trkpt>
      <trkpt lat="43.35785" lon="-1.57479">
        <ele>13</ele>
        <time>2026-08-23T15:01:50.000Z</time>
      </trkpt>
      <trkpt lat="43.35784" lon="-1.5748">
        <ele>13</ele>
        <time>2026-08-23T15:01:50.000Z</time>
      </trkpt>
      <trkpt lat="43.35783" lon="-1.57484">
        <ele>13</ele>
        <time>2026-08-23T15:01:50.000Z</time>
      </trkpt>
      <trkpt lat="43.35782" lon="-1.57489">
        <ele>13</ele>
        <time>2026-08-23T15:01:51.000Z</time>
      </trkpt>
      <trkpt lat="43.35782" lon="-1.57493">
        <ele>13</ele>
        <time>2026-08-23T15:01:52.000Z</time>
      </trkpt>
      <trkpt lat="43.35781" lon="-1.57499">
        <ele>13</ele>
        <time>2026-08-23T15:01:52.000Z</time>
      </trkpt>
      <trkpt lat="43.3578" lon="-1.5752">
        <ele>13</ele>
        <time>2026-08-23T15:01:55.000Z</time>
      </trkpt>
      <trkpt lat="43.35778" lon="-1.57524">
        <ele>13</ele>
        <time>2026-08-23T15:01:56.000Z</time>
      </trkpt>
      <trkpt lat="43.35779" lon="-1.57536">
        <ele>13</ele>
        <time>2026-08-23T15:01:57.000Z</time>
      </trkpt>
      <trkpt lat="43.35779" lon="-1.57548">
        <ele>13</ele>
        <time>2026-08-23T15:01:59.000Z</time>
      </trkpt>
      <trkpt lat="43.3578" lon="-1.57562">
        <ele>13</ele>
        <time>2026-08-23T15:02:01.000Z</time>
      </trkpt>
      <trkpt lat="43.35782" lon="-1.57577">
        <ele>13</ele>
        <time>2026-08-23T15:02:03.000Z</time>
      </trkpt>
      <trkpt lat="43.35788" lon="-1.57615">
        <ele>13</ele>
        <time>2026-08-23T15:02:08.000Z</time>
      </trkpt>
      <trkpt lat="43.35808" lon="-1.57721">
        <ele>12</ele>
        <time>2026-08-23T15:02:22.000Z</time>
      </trkpt>
      <trkpt lat="43.35819" lon="-1.57781">
        <ele>11</ele>
        <time>2026-08-23T15:02:30.000Z</time>
      </trkpt>
      <trkpt lat="43.35829" lon="-1.57824">
        <ele>11</ele>
        <time>2026-08-23T15:02:36.000Z</time>
      </trkpt>
      <trkpt lat="43.35837" lon="-1.57863">
        <ele>11</ele>
        <time>2026-08-23T15:02:41.000Z</time>
      </trkpt>
      <trkpt lat="43.35844" lon="-1.57887">
        <ele>12</ele>
        <time>2026-08-23T15:02:44.000Z</time>
      </trkpt>
      <trkpt lat="43.3585" lon="-1.57904">
        <ele>12</ele>
        <time>2026-08-23T15:02:47.000Z</time>
      </trkpt>
      <trkpt lat="43.35859" lon="-1.57925">
        <ele>12</ele>
        <time>2026-08-23T15:02:50.000Z</time>
      </trkpt>
      <trkpt lat="43.35864" lon="-1.57936">
        <ele>12</ele>
        <time>2026-08-23T15:02:51.000Z</time>
      </trkpt>
      <trkpt lat="43.3587" lon="-1.57949">
        <ele>12</ele>
        <time>2026-08-23T15:02:53.000Z</time>
      </trkpt>
      <trkpt lat="43.35887" lon="-1.57979">
        <ele>11</ele>
        <time>2026-08-23T15:02:58.000Z</time>
      </trkpt>
      <trkpt lat="43.35898" lon="-1.57996">
        <ele>11</ele>
        <time>2026-08-23T15:03:01.000Z</time>
      </trkpt>
      <trkpt lat="43.35923" lon="-1.58033">
        <ele>11</ele>
        <time>2026-08-23T15:03:08.000Z</time>
      </trkpt>
      <trkpt lat="43.36063" lon="-1.58235">
        <ele>12</ele>
        <time>2026-08-23T15:03:44.000Z</time>
      </trkpt>
      <trkpt lat="43.36078" lon="-1.58256">
        <ele>12</ele>
        <time>2026-08-23T15:03:48.000Z</time>
      </trkpt>
      <trkpt lat="43.36092" lon="-1.58277">
        <ele>12</ele>
        <time>2026-08-23T15:03:51.000Z</time>
      </trkpt>
      <trkpt lat="43.36105" lon="-1.58298">
        <ele>12</ele>
        <time>2026-08-23T15:03:55.000Z</time>
      </trkpt>
      <trkpt lat="43.36116" lon="-1.58316">
        <ele>12</ele>
        <time>2026-08-23T15:03:58.000Z</time>
      </trkpt>
      <trkpt lat="43.3613" lon="-1.58342">
        <ele>12</ele>
        <time>2026-08-23T15:04:02.000Z</time>
      </trkpt>
      <trkpt lat="43.36135" lon="-1.58354">
        <ele>12</ele>
        <time>2026-08-23T15:04:04.000Z</time>
      </trkpt>
      <trkpt lat="43.3614" lon="-1.58367">
        <ele>12</ele>
        <time>2026-08-23T15:04:06.000Z</time>
      </trkpt>
      <trkpt lat="43.36144" lon="-1.58377">
        <ele>12</ele>
        <time>2026-08-23T15:04:07.000Z</time>
      </trkpt>
      <trkpt lat="43.3615" lon="-1.5839">
        <ele>12</ele>
        <time>2026-08-23T15:04:09.000Z</time>
      </trkpt>
      <trkpt lat="43.36157" lon="-1.58412">
        <ele>12</ele>
        <time>2026-08-23T15:04:13.000Z</time>
      </trkpt>
      <trkpt lat="43.36169" lon="-1.58447">
        <ele>12</ele>
        <time>2026-08-23T15:04:18.000Z</time>
      </trkpt>
      <trkpt lat="43.36189" lon="-1.58508">
        <ele>11</ele>
        <time>2026-08-23T15:04:26.000Z</time>
      </trkpt>
      <trkpt lat="43.36206" lon="-1.58564">
        <ele>11</ele>
        <time>2026-08-23T15:04:34.000Z</time>
      </trkpt>
      <trkpt lat="43.36229" lon="-1.58636">
        <ele>11</ele>
        <time>2026-08-23T15:04:44.000Z</time>
      </trkpt>
      <trkpt lat="43.3623" lon="-1.5864">
        <ele>11</ele>
        <time>2026-08-23T15:04:45.000Z</time>
      </trkpt>
      <trkpt lat="43.36231" lon="-1.58645">
        <ele>11</ele>
        <time>2026-08-23T15:04:45.000Z</time>
      </trkpt>
      <trkpt lat="43.36239" lon="-1.5867">
        <ele>12</ele>
        <time>2026-08-23T15:04:49.000Z</time>
      </trkpt>
      <trkpt lat="43.3625" lon="-1.58703">
        <ele>12</ele>
        <time>2026-08-23T15:04:54.000Z</time>
      </trkpt>
      <trkpt lat="43.36257" lon="-1.58721">
        <ele>14</ele>
        <time>2026-08-23T15:04:56.000Z</time>
      </trkpt>
      <trkpt lat="43.36265" lon="-1.5874">
        <ele>16</ele>
        <time>2026-08-23T15:04:59.000Z</time>
      </trkpt>
      <trkpt lat="43.36273" lon="-1.58756">
        <ele>18</ele>
        <time>2026-08-23T15:05:02.000Z</time>
      </trkpt>
      <trkpt lat="43.36282" lon="-1.58772">
        <ele>18</ele>
        <time>2026-08-23T15:05:04.000Z</time>
      </trkpt>
      <trkpt lat="43.36292" lon="-1.58786">
        <ele>18</ele>
        <time>2026-08-23T15:05:07.000Z</time>
      </trkpt>
      <trkpt lat="43.36306" lon="-1.58801">
        <ele>19</ele>
        <time>2026-08-23T15:05:10.000Z</time>
      </trkpt>
      <trkpt lat="43.36323" lon="-1.58817">
        <ele>19</ele>
        <time>2026-08-23T15:05:14.000Z</time>
      </trkpt>
      <trkpt lat="43.36336" lon="-1.58829">
        <ele>18</ele>
        <time>2026-08-23T15:05:16.000Z</time>
      </trkpt>
      <trkpt lat="43.36356" lon="-1.58846">
        <ele>18</ele>
        <time>2026-08-23T15:05:21.000Z</time>
      </trkpt>
      <trkpt lat="43.36402" lon="-1.58886">
        <ele>17</ele>
        <time>2026-08-23T15:05:30.000Z</time>
      </trkpt>
      <trkpt lat="43.36407" lon="-1.58892">
        <ele>16</ele>
        <time>2026-08-23T15:05:31.000Z</time>
      </trkpt>
      <trkpt lat="43.36413" lon="-1.58899">
        <ele>15</ele>
        <time>2026-08-23T15:05:33.000Z</time>
      </trkpt>
      <trkpt lat="43.36423" lon="-1.58911">
        <ele>13</ele>
        <time>2026-08-23T15:05:35.000Z</time>
      </trkpt>
      <trkpt lat="43.3643" lon="-1.58921">
        <ele>12</ele>
        <time>2026-08-23T15:05:37.000Z</time>
      </trkpt>
      <trkpt lat="43.36439" lon="-1.58935">
        <ele>12</ele>
        <time>2026-08-23T15:05:39.000Z</time>
      </trkpt>
      <trkpt lat="43.36448" lon="-1.5895">
        <ele>12</ele>
        <time>2026-08-23T15:05:42.000Z</time>
      </trkpt>
      <trkpt lat="43.36454" lon="-1.58963">
        <ele>11</ele>
        <time>2026-08-23T15:05:44.000Z</time>
      </trkpt>
      <trkpt lat="43.3646" lon="-1.58976">
        <ele>11</ele>
        <time>2026-08-23T15:05:46.000Z</time>
      </trkpt>
      <trkpt lat="43.36465" lon="-1.58989">
        <ele>10</ele>
        <time>2026-08-23T15:05:48.000Z</time>
      </trkpt>
      <trkpt lat="43.3647" lon="-1.59005">
        <ele>10</ele>
        <time>2026-08-23T15:05:50.000Z</time>
      </trkpt>
      <trkpt lat="43.3648" lon="-1.59037">
        <ele>9</ele>
        <time>2026-08-23T15:05:55.000Z</time>
      </trkpt>
      <trkpt lat="43.36481" lon="-1.59044">
        <ele>9</ele>
        <time>2026-08-23T15:05:56.000Z</time>
      </trkpt>
      <trkpt lat="43.3651" lon="-1.59136">
        <ele>9</ele>
        <time>2026-08-23T15:06:09.000Z</time>
      </trkpt>
      <trkpt lat="43.36538" lon="-1.59228">
        <ele>10</ele>
        <time>2026-08-23T15:06:21.000Z</time>
      </trkpt>
      <trkpt lat="43.36548" lon="-1.5926">
        <ele>10</ele>
        <time>2026-08-23T15:06:26.000Z</time>
      </trkpt>
      <trkpt lat="43.36562" lon="-1.59304">
        <ele>9</ele>
        <time>2026-08-23T15:06:32.000Z</time>
      </trkpt>
      <trkpt lat="43.36574" lon="-1.59349">
        <ele>9</ele>
        <time>2026-08-23T15:06:38.000Z</time>
      </trkpt>
      <trkpt lat="43.3658" lon="-1.59376">
        <ele>9</ele>
        <time>2026-08-23T15:06:42.000Z</time>
      </trkpt>
      <trkpt lat="43.36584" lon="-1.59396">
        <ele>9</ele>
        <time>2026-08-23T15:06:45.000Z</time>
      </trkpt>
      <trkpt lat="43.36586" lon="-1.59409">
        <ele>9</ele>
        <time>2026-08-23T15:06:46.000Z</time>
      </trkpt>
      <trkpt lat="43.36589" lon="-1.59436">
        <ele>9</ele>
        <time>2026-08-23T15:06:50.000Z</time>
      </trkpt>
      <trkpt lat="43.36591" lon="-1.59458">
        <ele>9</ele>
        <time>2026-08-23T15:06:53.000Z</time>
      </trkpt>
      <trkpt lat="43.36592" lon="-1.59476">
        <ele>9</ele>
        <time>2026-08-23T15:06:55.000Z</time>
      </trkpt>
      <trkpt lat="43.36591" lon="-1.5949">
        <ele>9</ele>
        <time>2026-08-23T15:06:57.000Z</time>
      </trkpt>
      <trkpt lat="43.36591" lon="-1.59506">
        <ele>10</ele>
        <time>2026-08-23T15:06:59.000Z</time>
      </trkpt>
      <trkpt lat="43.36588" lon="-1.59545">
        <ele>11</ele>
        <time>2026-08-23T15:07:04.000Z</time>
      </trkpt>
      <trkpt lat="43.36582" lon="-1.59605">
        <ele>13</ele>
        <time>2026-08-23T15:07:12.000Z</time>
      </trkpt>
      <trkpt lat="43.36575" lon="-1.59691">
        <ele>18</ele>
        <time>2026-08-23T15:07:23.000Z</time>
      </trkpt>
      <trkpt lat="43.36566" lon="-1.59803">
        <ele>18</ele>
        <time>2026-08-23T15:07:38.000Z</time>
      </trkpt>
      <trkpt lat="43.36564" lon="-1.59818">
        <ele>18</ele>
        <time>2026-08-23T15:07:40.000Z</time>
      </trkpt>
      <trkpt lat="43.36562" lon="-1.59828">
        <ele>18</ele>
        <time>2026-08-23T15:07:41.000Z</time>
      </trkpt>
      <trkpt lat="43.3656" lon="-1.59839">
        <ele>18</ele>
        <time>2026-08-23T15:07:42.000Z</time>
      </trkpt>
      <trkpt lat="43.36558" lon="-1.59845">
        <ele>18</ele>
        <time>2026-08-23T15:07:43.000Z</time>
      </trkpt>
      <trkpt lat="43.36557" lon="-1.5985">
        <ele>18</ele>
        <time>2026-08-23T15:07:44.000Z</time>
      </trkpt>
      <trkpt lat="43.36556" lon="-1.59854">
        <ele>18</ele>
        <time>2026-08-23T15:07:45.000Z</time>
      </trkpt>
      <trkpt lat="43.36553" lon="-1.59861">
        <ele>17</ele>
        <time>2026-08-23T15:07:46.000Z</time>
      </trkpt>
      <trkpt lat="43.3655" lon="-1.59867">
        <ele>17</ele>
        <time>2026-08-23T15:07:47.000Z</time>
      </trkpt>
      <trkpt lat="43.36546" lon="-1.59875">
        <ele>17</ele>
        <time>2026-08-23T15:07:48.000Z</time>
      </trkpt>
      <trkpt lat="43.36541" lon="-1.59882">
        <ele>16</ele>
        <time>2026-08-23T15:07:49.000Z</time>
      </trkpt>
      <trkpt lat="43.36537" lon="-1.59889">
        <ele>16</ele>
        <time>2026-08-23T15:07:50.000Z</time>
      </trkpt>
      <trkpt lat="43.36535" lon="-1.59892">
        <ele>16</ele>
        <time>2026-08-23T15:07:51.000Z</time>
      </trkpt>
      <trkpt lat="43.36533" lon="-1.59895">
        <ele>16</ele>
        <time>2026-08-23T15:07:51.000Z</time>
      </trkpt>
      <trkpt lat="43.3653" lon="-1.59897">
        <ele>15</ele>
        <time>2026-08-23T15:07:52.000Z</time>
      </trkpt>
      <trkpt lat="43.36528" lon="-1.599">
        <ele>15</ele>
        <time>2026-08-23T15:07:52.000Z</time>
      </trkpt>
      <trkpt lat="43.36523" lon="-1.59904">
        <ele>15</ele>
        <time>2026-08-23T15:07:53.000Z</time>
      </trkpt>
      <trkpt lat="43.36519" lon="-1.59907">
        <ele>14</ele>
        <time>2026-08-23T15:07:54.000Z</time>
      </trkpt>
      <trkpt lat="43.36516" lon="-1.5991">
        <ele>14</ele>
        <time>2026-08-23T15:07:55.000Z</time>
      </trkpt>
      <trkpt lat="43.36511" lon="-1.59913">
        <ele>13</ele>
        <time>2026-08-23T15:07:56.000Z</time>
      </trkpt>
      <trkpt lat="43.36497" lon="-1.59923">
        <ele>13</ele>
        <time>2026-08-23T15:07:59.000Z</time>
      </trkpt>
      <trkpt lat="43.36488" lon="-1.5993">
        <ele>13</ele>
        <time>2026-08-23T15:08:00.000Z</time>
      </trkpt>
      <trkpt lat="43.36469" lon="-1.59944">
        <ele>14</ele>
        <time>2026-08-23T15:08:04.000Z</time>
      </trkpt>
      <trkpt lat="43.36456" lon="-1.59956">
        <ele>14</ele>
        <time>2026-08-23T15:08:07.000Z</time>
      </trkpt>
      <trkpt lat="43.36444" lon="-1.59966">
        <ele>14</ele>
        <time>2026-08-23T15:08:10.000Z</time>
      </trkpt>
      <trkpt lat="43.36432" lon="-1.59979">
        <ele>14</ele>
        <time>2026-08-23T15:08:12.000Z</time>
      </trkpt>
      <trkpt lat="43.36421" lon="-1.59991">
        <ele>13</ele>
        <time>2026-08-23T15:08:15.000Z</time>
      </trkpt>
      <trkpt lat="43.36411" lon="-1.60004">
        <ele>13</ele>
        <time>2026-08-23T15:08:17.000Z</time>
      </trkpt>
      <trkpt lat="43.364" lon="-1.6002">
        <ele>14</ele>
        <time>2026-08-23T15:08:20.000Z</time>
      </trkpt>
      <trkpt lat="43.3639" lon="-1.60038">
        <ele>15</ele>
        <time>2026-08-23T15:08:23.000Z</time>
      </trkpt>
      <trkpt lat="43.36381" lon="-1.60052">
        <ele>15</ele>
        <time>2026-08-23T15:08:25.000Z</time>
      </trkpt>
      <trkpt lat="43.36375" lon="-1.60065">
        <ele>15</ele>
        <time>2026-08-23T15:08:27.000Z</time>
      </trkpt>
      <trkpt lat="43.36367" lon="-1.6008">
        <ele>15</ele>
        <time>2026-08-23T15:08:30.000Z</time>
      </trkpt>
      <trkpt lat="43.36362" lon="-1.60094">
        <ele>16</ele>
        <time>2026-08-23T15:08:32.000Z</time>
      </trkpt>
      <trkpt lat="43.36358" lon="-1.60105">
        <ele>16</ele>
        <time>2026-08-23T15:08:33.000Z</time>
      </trkpt>
      <trkpt lat="43.36355" lon="-1.60113">
        <ele>16</ele>
        <time>2026-08-23T15:08:35.000Z</time>
      </trkpt>
      <trkpt lat="43.36351" lon="-1.60124">
        <ele>16</ele>
        <time>2026-08-23T15:08:36.000Z</time>
      </trkpt>
      <trkpt lat="43.36345" lon="-1.6014">
        <ele>16</ele>
        <time>2026-08-23T15:08:39.000Z</time>
      </trkpt>
      <trkpt lat="43.3634" lon="-1.60153">
        <ele>16</ele>
        <time>2026-08-23T15:08:40.000Z</time>
      </trkpt>
      <trkpt lat="43.36337" lon="-1.60161">
        <ele>16</ele>
        <time>2026-08-23T15:08:42.000Z</time>
      </trkpt>
      <trkpt lat="43.36334" lon="-1.60167">
        <ele>16</ele>
        <time>2026-08-23T15:08:43.000Z</time>
      </trkpt>
      <trkpt lat="43.36329" lon="-1.60177">
        <ele>17</ele>
        <time>2026-08-23T15:08:44.000Z</time>
      </trkpt>
      <trkpt lat="43.36322" lon="-1.6019">
        <ele>19</ele>
        <time>2026-08-23T15:08:46.000Z</time>
      </trkpt>
      <trkpt lat="43.36318" lon="-1.60196">
        <ele>19</ele>
        <time>2026-08-23T15:08:47.000Z</time>
      </trkpt>
      <trkpt lat="43.3631" lon="-1.60208">
        <ele>20</ele>
        <time>2026-08-23T15:08:49.000Z</time>
      </trkpt>
      <trkpt lat="43.36304" lon="-1.60215">
        <ele>20</ele>
        <time>2026-08-23T15:08:51.000Z</time>
      </trkpt>
      <trkpt lat="43.36299" lon="-1.60221">
        <ele>20</ele>
        <time>2026-08-23T15:08:52.000Z</time>
      </trkpt>
      <trkpt lat="43.36292" lon="-1.60229">
        <ele>20</ele>
        <time>2026-08-23T15:08:54.000Z</time>
      </trkpt>
      <trkpt lat="43.36289" lon="-1.60232">
        <ele>20</ele>
        <time>2026-08-23T15:08:54.000Z</time>
      </trkpt>
      <trkpt lat="43.36258" lon="-1.60262">
        <ele>18</ele>
        <time>2026-08-23T15:09:01.000Z</time>
      </trkpt>
      <trkpt lat="43.36229" lon="-1.60286">
        <ele>17</ele>
        <time>2026-08-23T15:09:07.000Z</time>
      </trkpt>
      <trkpt lat="43.36212" lon="-1.60301">
        <ele>16</ele>
        <time>2026-08-23T15:09:11.000Z</time>
      </trkpt>
      <trkpt lat="43.36198" lon="-1.60313">
        <ele>15</ele>
        <time>2026-08-23T15:09:14.000Z</time>
      </trkpt>
      <trkpt lat="43.3618" lon="-1.60329">
        <ele>13</ele>
        <time>2026-08-23T15:09:17.000Z</time>
      </trkpt>
      <trkpt lat="43.36175" lon="-1.60334">
        <ele>13</ele>
        <time>2026-08-23T15:09:18.000Z</time>
      </trkpt>
      <trkpt lat="43.3617" lon="-1.60341">
        <ele>13</ele>
        <time>2026-08-23T15:09:20.000Z</time>
      </trkpt>
      <trkpt lat="43.36163" lon="-1.60348">
        <ele>14</ele>
        <time>2026-08-23T15:09:21.000Z</time>
      </trkpt>
      <trkpt lat="43.36158" lon="-1.60355">
        <ele>14</ele>
        <time>2026-08-23T15:09:23.000Z</time>
      </trkpt>
      <trkpt lat="43.36147" lon="-1.60369">
        <ele>14</ele>
        <time>2026-08-23T15:09:25.000Z</time>
      </trkpt>
      <trkpt lat="43.36143" lon="-1.60375">
        <ele>15</ele>
        <time>2026-08-23T15:09:26.000Z</time>
      </trkpt>
      <trkpt lat="43.36139" lon="-1.60381">
        <ele>15</ele>
        <time>2026-08-23T15:09:27.000Z</time>
      </trkpt>
      <trkpt lat="43.36135" lon="-1.60388">
        <ele>15</ele>
        <time>2026-08-23T15:09:28.000Z</time>
      </trkpt>
      <trkpt lat="43.36132" lon="-1.60396">
        <ele>15</ele>
        <time>2026-08-23T15:09:30.000Z</time>
      </trkpt>
      <trkpt lat="43.36125" lon="-1.60412">
        <ele>15</ele>
        <time>2026-08-23T15:09:32.000Z</time>
      </trkpt>
      <trkpt lat="43.36119" lon="-1.60427">
        <ele>15</ele>
        <time>2026-08-23T15:09:34.000Z</time>
      </trkpt>
      <trkpt lat="43.36116" lon="-1.60437">
        <ele>16</ele>
        <time>2026-08-23T15:09:36.000Z</time>
      </trkpt>
      <trkpt lat="43.36113" lon="-1.60445">
        <ele>16</ele>
        <time>2026-08-23T15:09:37.000Z</time>
      </trkpt>
      <trkpt lat="43.36108" lon="-1.60465">
        <ele>16</ele>
        <time>2026-08-23T15:09:40.000Z</time>
      </trkpt>
      <trkpt lat="43.36104" lon="-1.60486">
        <ele>17</ele>
        <time>2026-08-23T15:09:42.000Z</time>
      </trkpt>
      <trkpt lat="43.36102" lon="-1.60503">
        <ele>17</ele>
        <time>2026-08-23T15:09:45.000Z</time>
      </trkpt>
      <trkpt lat="43.36101" lon="-1.60516">
        <ele>17</ele>
        <time>2026-08-23T15:09:46.000Z</time>
      </trkpt>
      <trkpt lat="43.36101" lon="-1.60537">
        <ele>17</ele>
        <time>2026-08-23T15:09:49.000Z</time>
      </trkpt>
      <trkpt lat="43.36101" lon="-1.60551">
        <ele>17</ele>
        <time>2026-08-23T15:09:51.000Z</time>
      </trkpt>
      <trkpt lat="43.36102" lon="-1.60567">
        <ele>18</ele>
        <time>2026-08-23T15:09:53.000Z</time>
      </trkpt>
      <trkpt lat="43.36103" lon="-1.60584">
        <ele>18</ele>
        <time>2026-08-23T15:09:55.000Z</time>
      </trkpt>
      <trkpt lat="43.36106" lon="-1.60609">
        <ele>18</ele>
        <time>2026-08-23T15:09:58.000Z</time>
      </trkpt>
      <trkpt lat="43.3611" lon="-1.60644">
        <ele>18</ele>
        <time>2026-08-23T15:10:03.000Z</time>
      </trkpt>
      <trkpt lat="43.36112" lon="-1.60659">
        <ele>18</ele>
        <time>2026-08-23T15:10:05.000Z</time>
      </trkpt>
      <trkpt lat="43.36113" lon="-1.60672">
        <ele>18</ele>
        <time>2026-08-23T15:10:07.000Z</time>
      </trkpt>
      <trkpt lat="43.36115" lon="-1.60689">
        <ele>18</ele>
        <time>2026-08-23T15:10:09.000Z</time>
      </trkpt>
      <trkpt lat="43.36116" lon="-1.60708">
        <ele>18</ele>
        <time>2026-08-23T15:10:11.000Z</time>
      </trkpt>
      <trkpt lat="43.36117" lon="-1.60726">
        <ele>18</ele>
        <time>2026-08-23T15:10:14.000Z</time>
      </trkpt>
      <trkpt lat="43.36117" lon="-1.60739">
        <ele>18</ele>
        <time>2026-08-23T15:10:15.000Z</time>
      </trkpt>
      <trkpt lat="43.36117" lon="-1.60752">
        <ele>18</ele>
        <time>2026-08-23T15:10:17.000Z</time>
      </trkpt>
      <trkpt lat="43.36117" lon="-1.60759">
        <ele>18</ele>
        <time>2026-08-23T15:10:18.000Z</time>
      </trkpt>
      <trkpt lat="43.36116" lon="-1.6078">
        <ele>17</ele>
        <time>2026-08-23T15:10:21.000Z</time>
      </trkpt>
      <trkpt lat="43.36113" lon="-1.60832">
        <ele>16</ele>
        <time>2026-08-23T15:10:27.000Z</time>
      </trkpt>
      <trkpt lat="43.36112" lon="-1.60861">
        <ele>16</ele>
        <time>2026-08-23T15:10:31.000Z</time>
      </trkpt>
      <trkpt lat="43.36112" lon="-1.60875">
        <ele>16</ele>
        <time>2026-08-23T15:10:33.000Z</time>
      </trkpt>
      <trkpt lat="43.36112" lon="-1.60902">
        <ele>16</ele>
        <time>2026-08-23T15:10:36.000Z</time>
      </trkpt>
      <trkpt lat="43.36111" lon="-1.60936">
        <ele>16</ele>
        <time>2026-08-23T15:10:41.000Z</time>
      </trkpt>
      <trkpt lat="43.3611" lon="-1.60961">
        <ele>17</ele>
        <time>2026-08-23T15:10:44.000Z</time>
      </trkpt>
      <trkpt lat="43.36109" lon="-1.60986">
        <ele>17</ele>
        <time>2026-08-23T15:10:47.000Z</time>
      </trkpt>
      <trkpt lat="43.36107" lon="-1.61017">
        <ele>17</ele>
        <time>2026-08-23T15:10:51.000Z</time>
      </trkpt>
      <trkpt lat="43.36106" lon="-1.61041">
        <ele>17</ele>
        <time>2026-08-23T15:10:54.000Z</time>
      </trkpt>
      <trkpt lat="43.36105" lon="-1.61048">
        <ele>16</ele>
        <time>2026-08-23T15:10:55.000Z</time>
      </trkpt>
      <trkpt lat="43.36104" lon="-1.6106">
        <ele>16</ele>
        <time>2026-08-23T15:10:57.000Z</time>
      </trkpt>
      <trkpt lat="43.36103" lon="-1.61073">
        <ele>16</ele>
        <time>2026-08-23T15:10:59.000Z</time>
      </trkpt>
      <trkpt lat="43.36102" lon="-1.61082">
        <ele>15</ele>
        <time>2026-08-23T15:11:00.000Z</time>
      </trkpt>
      <trkpt lat="43.36101" lon="-1.61092">
        <ele>15</ele>
        <time>2026-08-23T15:11:01.000Z</time>
      </trkpt>
      <trkpt lat="43.36099" lon="-1.61103">
        <ele>15</ele>
        <time>2026-08-23T15:11:03.000Z</time>
      </trkpt>
      <trkpt lat="43.36097" lon="-1.61116">
        <ele>14</ele>
        <time>2026-08-23T15:11:04.000Z</time>
      </trkpt>
      <trkpt lat="43.36095" lon="-1.61127">
        <ele>14</ele>
        <time>2026-08-23T15:11:06.000Z</time>
      </trkpt>
      <trkpt lat="43.36091" lon="-1.61142">
        <ele>13</ele>
        <time>2026-08-23T15:11:08.000Z</time>
      </trkpt>
      <trkpt lat="43.36087" lon="-1.61149">
        <ele>13</ele>
        <time>2026-08-23T15:11:09.000Z</time>
      </trkpt>
      <trkpt lat="43.36082" lon="-1.61167">
        <ele>12</ele>
        <time>2026-08-23T15:11:11.000Z</time>
      </trkpt>
      <trkpt lat="43.36079" lon="-1.61175">
        <ele>12</ele>
        <time>2026-08-23T15:11:13.000Z</time>
      </trkpt>
      <trkpt lat="43.36076" lon="-1.61184">
        <ele>12</ele>
        <time>2026-08-23T15:11:14.000Z</time>
      </trkpt>
      <trkpt lat="43.36068" lon="-1.61204">
        <ele>11</ele>
        <time>2026-08-23T15:11:17.000Z</time>
      </trkpt>
      <trkpt lat="43.36058" lon="-1.61226">
        <ele>11</ele>
        <time>2026-08-23T15:11:20.000Z</time>
      </trkpt>
      <trkpt lat="43.36048" lon="-1.61243">
        <ele>11</ele>
        <time>2026-08-23T15:11:23.000Z</time>
      </trkpt>
      <trkpt lat="43.36042" lon="-1.61254">
        <ele>11</ele>
        <time>2026-08-23T15:11:25.000Z</time>
      </trkpt>
      <trkpt lat="43.36036" lon="-1.61262">
        <ele>11</ele>
        <time>2026-08-23T15:11:26.000Z</time>
      </trkpt>
      <trkpt lat="43.36026" lon="-1.61276">
        <ele>11</ele>
        <time>2026-08-23T15:11:29.000Z</time>
      </trkpt>
      <trkpt lat="43.36005" lon="-1.61304">
        <ele>11</ele>
        <time>2026-08-23T15:11:34.000Z</time>
      </trkpt>
      <trkpt lat="43.35992" lon="-1.6132">
        <ele>11</ele>
        <time>2026-08-23T15:11:37.000Z</time>
      </trkpt>
      <trkpt lat="43.35953" lon="-1.61369">
        <ele>14</ele>
        <time>2026-08-23T15:11:47.000Z</time>
      </trkpt>
      <trkpt lat="43.3594" lon="-1.61386">
        <ele>15</ele>
        <time>2026-08-23T15:11:50.000Z</time>
      </trkpt>
      <trkpt lat="43.35932" lon="-1.61396">
        <ele>15</ele>
        <time>2026-08-23T15:11:52.000Z</time>
      </trkpt>
      <trkpt lat="43.3592" lon="-1.61409">
        <ele>16</ele>
        <time>2026-08-23T15:11:54.000Z</time>
      </trkpt>
      <trkpt lat="43.3591" lon="-1.6142">
        <ele>16</ele>
        <time>2026-08-23T15:11:57.000Z</time>
      </trkpt>
      <trkpt lat="43.35903" lon="-1.61426">
        <ele>16</ele>
        <time>2026-08-23T15:11:58.000Z</time>
      </trkpt>
      <trkpt lat="43.35895" lon="-1.61433">
        <ele>16</ele>
        <time>2026-08-23T15:12:00.000Z</time>
      </trkpt>
      <trkpt lat="43.35872" lon="-1.61452">
        <ele>16</ele>
        <time>2026-08-23T15:12:05.000Z</time>
      </trkpt>
      <trkpt lat="43.35841" lon="-1.61476">
        <ele>13</ele>
        <time>2026-08-23T15:12:11.000Z</time>
      </trkpt>
      <trkpt lat="43.35826" lon="-1.61489">
        <ele>12</ele>
        <time>2026-08-23T15:12:14.000Z</time>
      </trkpt>
      <trkpt lat="43.35811" lon="-1.61503">
        <ele>12</ele>
        <time>2026-08-23T15:12:17.000Z</time>
      </trkpt>
      <trkpt lat="43.358" lon="-1.61516">
        <ele>13</ele>
        <time>2026-08-23T15:12:20.000Z</time>
      </trkpt>
      <trkpt lat="43.3579" lon="-1.61528">
        <ele>14</ele>
        <time>2026-08-23T15:12:22.000Z</time>
      </trkpt>
      <trkpt lat="43.35779" lon="-1.61546">
        <ele>14</ele>
        <time>2026-08-23T15:12:25.000Z</time>
      </trkpt>
      <trkpt lat="43.35758" lon="-1.61578">
        <ele>14</ele>
        <time>2026-08-23T15:12:31.000Z</time>
      </trkpt>
      <trkpt lat="43.35742" lon="-1.61603">
        <ele>15</ele>
        <time>2026-08-23T15:12:35.000Z</time>
      </trkpt>
      <trkpt lat="43.35714" lon="-1.61647">
        <ele>17</ele>
        <time>2026-08-23T15:12:43.000Z</time>
      </trkpt>
      <trkpt lat="43.35689" lon="-1.61686">
        <ele>16</ele>
        <time>2026-08-23T15:12:49.000Z</time>
      </trkpt>
      <trkpt lat="43.35668" lon="-1.6172">
        <ele>15</ele>
        <time>2026-08-23T15:12:55.000Z</time>
      </trkpt>
      <trkpt lat="43.35638" lon="-1.61767">
        <ele>15</ele>
        <time>2026-08-23T15:13:03.000Z</time>
      </trkpt>
      <trkpt lat="43.35615" lon="-1.61803">
        <ele>13</ele>
        <time>2026-08-23T15:13:10.000Z</time>
      </trkpt>
      <trkpt lat="43.35594" lon="-1.61837">
        <ele>12</ele>
        <time>2026-08-23T15:13:15.000Z</time>
      </trkpt>
      <trkpt lat="43.35566" lon="-1.6188">
        <ele>16</ele>
        <time>2026-08-23T15:13:23.000Z</time>
      </trkpt>
      <trkpt lat="43.35532" lon="-1.61933">
        <ele>17</ele>
        <time>2026-08-23T15:13:32.000Z</time>
      </trkpt>
      <trkpt lat="43.35513" lon="-1.61962">
        <ele>17</ele>
        <time>2026-08-23T15:13:37.000Z</time>
      </trkpt>
      <trkpt lat="43.35504" lon="-1.61975">
        <ele>17</ele>
        <time>2026-08-23T15:13:39.000Z</time>
      </trkpt>
      <trkpt lat="43.35493" lon="-1.6199">
        <ele>18</ele>
        <time>2026-08-23T15:13:42.000Z</time>
      </trkpt>
      <trkpt lat="43.35481" lon="-1.62002">
        <ele>18</ele>
        <time>2026-08-23T15:13:45.000Z</time>
      </trkpt>
      <trkpt lat="43.35468" lon="-1.62014">
        <ele>19</ele>
        <time>2026-08-23T15:13:47.000Z</time>
      </trkpt>
      <trkpt lat="43.35454" lon="-1.62026">
        <ele>19</ele>
        <time>2026-08-23T15:13:50.000Z</time>
      </trkpt>
      <trkpt lat="43.35443" lon="-1.62035">
        <ele>20</ele>
        <time>2026-08-23T15:13:53.000Z</time>
      </trkpt>
      <trkpt lat="43.35433" lon="-1.62042">
        <ele>20</ele>
        <time>2026-08-23T15:13:55.000Z</time>
      </trkpt>
      <trkpt lat="43.35422" lon="-1.62049">
        <ele>20</ele>
        <time>2026-08-23T15:13:57.000Z</time>
      </trkpt>
      <trkpt lat="43.35415" lon="-1.62054">
        <ele>21</ele>
        <time>2026-08-23T15:13:58.000Z</time>
      </trkpt>
      <trkpt lat="43.3541" lon="-1.62056">
        <ele>21</ele>
        <time>2026-08-23T15:13:59.000Z</time>
      </trkpt>
      <trkpt lat="43.35402" lon="-1.6206">
        <ele>21</ele>
        <time>2026-08-23T15:14:01.000Z</time>
      </trkpt>
      <trkpt lat="43.35389" lon="-1.62066">
        <ele>21</ele>
        <time>2026-08-23T15:14:03.000Z</time>
      </trkpt>
      <trkpt lat="43.35365" lon="-1.62076">
        <ele>20</ele>
        <time>2026-08-23T15:14:08.000Z</time>
      </trkpt>
      <trkpt lat="43.35336" lon="-1.62087">
        <ele>19</ele>
        <time>2026-08-23T15:14:13.000Z</time>
      </trkpt>
      <trkpt lat="43.35307" lon="-1.62098">
        <ele>18</ele>
        <time>2026-08-23T15:14:18.000Z</time>
      </trkpt>
      <trkpt lat="43.35285" lon="-1.62107">
        <ele>17</ele>
        <time>2026-08-23T15:14:22.000Z</time>
      </trkpt>
      <trkpt lat="43.35271" lon="-1.62113">
        <ele>16</ele>
        <time>2026-08-23T15:14:25.000Z</time>
      </trkpt>
      <trkpt lat="43.35252" lon="-1.6212">
        <ele>14</ele>
        <time>2026-08-23T15:14:28.000Z</time>
      </trkpt>
      <trkpt lat="43.35243" lon="-1.62124">
        <ele>14</ele>
        <time>2026-08-23T15:14:30.000Z</time>
      </trkpt>
      <trkpt lat="43.35235" lon="-1.62128">
        <ele>13</ele>
        <time>2026-08-23T15:14:32.000Z</time>
      </trkpt>
      <trkpt lat="43.35231" lon="-1.6213">
        <ele>13</ele>
        <time>2026-08-23T15:14:32.000Z</time>
      </trkpt>
      <trkpt lat="43.35224" lon="-1.62135">
        <ele>13</ele>
        <time>2026-08-23T15:14:34.000Z</time>
      </trkpt>
      <trkpt lat="43.35221" lon="-1.62137">
        <ele>13</ele>
        <time>2026-08-23T15:14:34.000Z</time>
      </trkpt>
      <trkpt lat="43.35217" lon="-1.6214">
        <ele>13</ele>
        <time>2026-08-23T15:14:35.000Z</time>
      </trkpt>
      <trkpt lat="43.35213" lon="-1.62144">
        <ele>12</ele>
        <time>2026-08-23T15:14:36.000Z</time>
      </trkpt>
      <trkpt lat="43.35207" lon="-1.62149">
        <ele>12</ele>
        <time>2026-08-23T15:14:37.000Z</time>
      </trkpt>
      <trkpt lat="43.35202" lon="-1.62154">
        <ele>12</ele>
        <time>2026-08-23T15:14:38.000Z</time>
      </trkpt>
      <trkpt lat="43.35198" lon="-1.62158">
        <ele>12</ele>
        <time>2026-08-23T15:14:39.000Z</time>
      </trkpt>
      <trkpt lat="43.35193" lon="-1.62165">
        <ele>11</ele>
        <time>2026-08-23T15:14:41.000Z</time>
      </trkpt>
      <trkpt lat="43.35188" lon="-1.62171">
        <ele>11</ele>
        <time>2026-08-23T15:14:42.000Z</time>
      </trkpt>
      <trkpt lat="43.35178" lon="-1.62189">
        <ele>10</ele>
        <time>2026-08-23T15:14:45.000Z</time>
      </trkpt>
      <trkpt lat="43.35168" lon="-1.62208">
        <ele>10</ele>
        <time>2026-08-23T15:14:48.000Z</time>
      </trkpt>
      <trkpt lat="43.35152" lon="-1.62239">
        <ele>10</ele>
        <time>2026-08-23T15:14:53.000Z</time>
      </trkpt>
      <trkpt lat="43.35142" lon="-1.6226">
        <ele>11</ele>
        <time>2026-08-23T15:14:56.000Z</time>
      </trkpt>
      <trkpt lat="43.35127" lon="-1.62288">
        <ele>11</ele>
        <time>2026-08-23T15:15:00.000Z</time>
      </trkpt>
      <trkpt lat="43.35125" lon="-1.62292">
        <ele>11</ele>
        <time>2026-08-23T15:15:01.000Z</time>
      </trkpt>
      <trkpt lat="43.35122" lon="-1.62299">
        <ele>11</ele>
        <time>2026-08-23T15:15:02.000Z</time>
      </trkpt>
      <trkpt lat="43.35116" lon="-1.62309">
        <ele>11</ele>
        <time>2026-08-23T15:15:04.000Z</time>
      </trkpt>
      <trkpt lat="43.35114" lon="-1.62315">
        <ele>11</ele>
        <time>2026-08-23T15:15:05.000Z</time>
      </trkpt>
      <trkpt lat="43.35111" lon="-1.62321">
        <ele>10</ele>
        <time>2026-08-23T15:15:06.000Z</time>
      </trkpt>
      <trkpt lat="43.3511" lon="-1.62326">
        <ele>10</ele>
        <time>2026-08-23T15:15:06.000Z</time>
      </trkpt>
      <trkpt lat="43.35109" lon="-1.6233">
        <ele>10</ele>
        <time>2026-08-23T15:15:07.000Z</time>
      </trkpt>
      <trkpt lat="43.35108" lon="-1.62337">
        <ele>10</ele>
        <time>2026-08-23T15:15:08.000Z</time>
      </trkpt>
      <trkpt lat="43.35107" lon="-1.62343">
        <ele>10</ele>
        <time>2026-08-23T15:15:09.000Z</time>
      </trkpt>
      <trkpt lat="43.35106" lon="-1.62351">
        <ele>10</ele>
        <time>2026-08-23T15:15:10.000Z</time>
      </trkpt>
      <trkpt lat="43.35105" lon="-1.62359">
        <ele>10</ele>
        <time>2026-08-23T15:15:11.000Z</time>
      </trkpt>
      <trkpt lat="43.35104" lon="-1.62381">
        <ele>10</ele>
        <time>2026-08-23T15:15:13.000Z</time>
      </trkpt>
      <trkpt lat="43.35102" lon="-1.62403">
        <ele>11</ele>
        <time>2026-08-23T15:15:16.000Z</time>
      </trkpt>
      <trkpt lat="43.35102" lon="-1.62423">
        <ele>11</ele>
        <time>2026-08-23T15:15:19.000Z</time>
      </trkpt>
      <trkpt lat="43.35102" lon="-1.62437">
        <ele>11</ele>
        <time>2026-08-23T15:15:21.000Z</time>
      </trkpt>
      <trkpt lat="43.35103" lon="-1.62449">
        <ele>11</ele>
        <time>2026-08-23T15:15:22.000Z</time>
      </trkpt>
      <trkpt lat="43.35103" lon="-1.62455">
        <ele>10</ele>
        <time>2026-08-23T15:15:23.000Z</time>
      </trkpt>
      <trkpt lat="43.35106" lon="-1.62475">
        <ele>11</ele>
        <time>2026-08-23T15:15:26.000Z</time>
      </trkpt>
      <trkpt lat="43.3511" lon="-1.62497">
        <ele>11</ele>
        <time>2026-08-23T15:15:29.000Z</time>
      </trkpt>
      <trkpt lat="43.35116" lon="-1.62524">
        <ele>11</ele>
        <time>2026-08-23T15:15:32.000Z</time>
      </trkpt>
      <trkpt lat="43.35121" lon="-1.62539">
        <ele>12</ele>
        <time>2026-08-23T15:15:34.000Z</time>
      </trkpt>
      <trkpt lat="43.3513" lon="-1.62562">
        <ele>12</ele>
        <time>2026-08-23T15:15:38.000Z</time>
      </trkpt>
      <trkpt lat="43.35145" lon="-1.62603">
        <ele>12</ele>
        <time>2026-08-23T15:15:44.000Z</time>
      </trkpt>
      <trkpt lat="43.35147" lon="-1.62608">
        <ele>11</ele>
        <time>2026-08-23T15:15:45.000Z</time>
      </trkpt>
      <trkpt lat="43.35157" lon="-1.62632">
        <ele>10</ele>
        <time>2026-08-23T15:15:48.000Z</time>
      </trkpt>
      <trkpt lat="43.3517" lon="-1.62665">
        <ele>8</ele>
        <time>2026-08-23T15:15:53.000Z</time>
      </trkpt>
      <trkpt lat="43.35189" lon="-1.62714">
        <ele>8</ele>
        <time>2026-08-23T15:16:00.000Z</time>
      </trkpt>
      <trkpt lat="43.35207" lon="-1.62758">
        <ele>8</ele>
        <time>2026-08-23T15:16:07.000Z</time>
      </trkpt>
      <trkpt lat="43.35221" lon="-1.62797">
        <ele>8</ele>
        <time>2026-08-23T15:16:12.000Z</time>
      </trkpt>
      <trkpt lat="43.35228" lon="-1.62818">
        <ele>7</ele>
        <time>2026-08-23T15:16:15.000Z</time>
      </trkpt>
      <trkpt lat="43.35236" lon="-1.62843">
        <ele>7</ele>
        <time>2026-08-23T15:16:19.000Z</time>
      </trkpt>
      <trkpt lat="43.35244" lon="-1.62867">
        <ele>6</ele>
        <time>2026-08-23T15:16:22.000Z</time>
      </trkpt>
      <trkpt lat="43.35251" lon="-1.62887">
        <ele>6</ele>
        <time>2026-08-23T15:16:25.000Z</time>
      </trkpt>
      <trkpt lat="43.35258" lon="-1.62906">
        <ele>6</ele>
        <time>2026-08-23T15:16:28.000Z</time>
      </trkpt>
      <trkpt lat="43.35263" lon="-1.62918">
        <ele>7</ele>
        <time>2026-08-23T15:16:30.000Z</time>
      </trkpt>
      <trkpt lat="43.35268" lon="-1.6293">
        <ele>6</ele>
        <time>2026-08-23T15:16:31.000Z</time>
      </trkpt>
      <trkpt lat="43.35274" lon="-1.62944">
        <ele>6</ele>
        <time>2026-08-23T15:16:34.000Z</time>
      </trkpt>
      <trkpt lat="43.35284" lon="-1.62963">
        <ele>6</ele>
        <time>2026-08-23T15:16:37.000Z</time>
      </trkpt>
      <trkpt lat="43.35291" lon="-1.62976">
        <ele>6</ele>
        <time>2026-08-23T15:16:39.000Z</time>
      </trkpt>
      <trkpt lat="43.35297" lon="-1.62986">
        <ele>6</ele>
        <time>2026-08-23T15:16:40.000Z</time>
      </trkpt>
      <trkpt lat="43.35302" lon="-1.62992">
        <ele>6</ele>
        <time>2026-08-23T15:16:42.000Z</time>
      </trkpt>
      <trkpt lat="43.3531" lon="-1.63002">
        <ele>6</ele>
        <time>2026-08-23T15:16:43.000Z</time>
      </trkpt>
      <trkpt lat="43.3532" lon="-1.63013">
        <ele>6</ele>
        <time>2026-08-23T15:16:46.000Z</time>
      </trkpt>
      <trkpt lat="43.3533" lon="-1.63025">
        <ele>7</ele>
        <time>2026-08-23T15:16:48.000Z</time>
      </trkpt>
      <trkpt lat="43.35342" lon="-1.63036">
        <ele>7</ele>
        <time>2026-08-23T15:16:51.000Z</time>
      </trkpt>
      <trkpt lat="43.35351" lon="-1.63045">
        <ele>7</ele>
        <time>2026-08-23T15:16:53.000Z</time>
      </trkpt>
      <trkpt lat="43.35366" lon="-1.63058">
        <ele>7</ele>
        <time>2026-08-23T15:16:56.000Z</time>
      </trkpt>
      <trkpt lat="43.35377" lon="-1.63066">
        <ele>7</ele>
        <time>2026-08-23T15:16:58.000Z</time>
      </trkpt>
      <trkpt lat="43.35386" lon="-1.63072">
        <ele>7</ele>
        <time>2026-08-23T15:17:00.000Z</time>
      </trkpt>
      <trkpt lat="43.35395" lon="-1.63077">
        <ele>7</ele>
        <time>2026-08-23T15:17:02.000Z</time>
      </trkpt>
      <trkpt lat="43.35405" lon="-1.63082">
        <ele>7</ele>
        <time>2026-08-23T15:17:03.000Z</time>
      </trkpt>
      <trkpt lat="43.35417" lon="-1.63087">
        <ele>7</ele>
        <time>2026-08-23T15:17:06.000Z</time>
      </trkpt>
      <trkpt lat="43.35426" lon="-1.63091">
        <ele>7</ele>
        <time>2026-08-23T15:17:07.000Z</time>
      </trkpt>
      <trkpt lat="43.35441" lon="-1.63096">
        <ele>6</ele>
        <time>2026-08-23T15:17:10.000Z</time>
      </trkpt>
      <trkpt lat="43.35453" lon="-1.631">
        <ele>6</ele>
        <time>2026-08-23T15:17:12.000Z</time>
      </trkpt>
      <trkpt lat="43.35482" lon="-1.63109">
        <ele>6</ele>
        <time>2026-08-23T15:17:18.000Z</time>
      </trkpt>
      <trkpt lat="43.35512" lon="-1.63118">
        <ele>6</ele>
        <time>2026-08-23T15:17:23.000Z</time>
      </trkpt>
      <trkpt lat="43.35543" lon="-1.63125">
        <ele>5</ele>
        <time>2026-08-23T15:17:29.000Z</time>
      </trkpt>
      <trkpt lat="43.35613" lon="-1.63143">
        <ele>5</ele>
        <time>2026-08-23T15:17:41.000Z</time>
      </trkpt>
      <trkpt lat="43.35651" lon="-1.63155">
        <ele>6</ele>
        <time>2026-08-23T15:17:48.000Z</time>
      </trkpt>
      <trkpt lat="43.35661" lon="-1.63159">
        <ele>6</ele>
        <time>2026-08-23T15:17:50.000Z</time>
      </trkpt>
      <trkpt lat="43.35676" lon="-1.63163">
        <ele>6</ele>
        <time>2026-08-23T15:17:53.000Z</time>
      </trkpt>
      <trkpt lat="43.35698" lon="-1.63171">
        <ele>6</ele>
        <time>2026-08-23T15:17:57.000Z</time>
      </trkpt>
      <trkpt lat="43.35716" lon="-1.63177">
        <ele>7</ele>
        <time>2026-08-23T15:18:00.000Z</time>
      </trkpt>
      <trkpt lat="43.35717" lon="-1.63177">
        <ele>7</ele>
        <time>2026-08-23T15:18:00.000Z</time>
      </trkpt>
      <trkpt lat="43.35736" lon="-1.63185">
        <ele>7</ele>
        <time>2026-08-23T15:18:04.000Z</time>
      </trkpt>
      <trkpt lat="43.35753" lon="-1.63193">
        <ele>7</ele>
        <time>2026-08-23T15:18:07.000Z</time>
      </trkpt>
      <trkpt lat="43.35768" lon="-1.63201">
        <ele>8</ele>
        <time>2026-08-23T15:18:10.000Z</time>
      </trkpt>
      <trkpt lat="43.35781" lon="-1.6321">
        <ele>9</ele>
        <time>2026-08-23T15:18:12.000Z</time>
      </trkpt>
      <trkpt lat="43.35793" lon="-1.6322">
        <ele>9</ele>
        <time>2026-08-23T15:18:15.000Z</time>
      </trkpt>
      <trkpt lat="43.35808" lon="-1.63232">
        <ele>9</ele>
        <time>2026-08-23T15:18:18.000Z</time>
      </trkpt>
      <trkpt lat="43.35825" lon="-1.63247">
        <ele>8</ele>
        <time>2026-08-23T15:18:22.000Z</time>
      </trkpt>
      <trkpt lat="43.35854" lon="-1.63273">
        <ele>9</ele>
        <time>2026-08-23T15:18:28.000Z</time>
      </trkpt>
      <trkpt lat="43.35896" lon="-1.6331">
        <ele>10</ele>
        <time>2026-08-23T15:18:37.000Z</time>
      </trkpt>
      <trkpt lat="43.35908" lon="-1.63322">
        <ele>9</ele>
        <time>2026-08-23T15:18:39.000Z</time>
      </trkpt>
      <trkpt lat="43.3592" lon="-1.63334">
        <ele>8</ele>
        <time>2026-08-23T15:18:42.000Z</time>
      </trkpt>
      <trkpt lat="43.35929" lon="-1.63344">
        <ele>9</ele>
        <time>2026-08-23T15:18:44.000Z</time>
      </trkpt>
      <trkpt lat="43.35936" lon="-1.63353">
        <ele>9</ele>
        <time>2026-08-23T15:18:46.000Z</time>
      </trkpt>
      <trkpt lat="43.35949" lon="-1.63373">
        <ele>9</ele>
        <time>2026-08-23T15:18:49.000Z</time>
      </trkpt>
      <trkpt lat="43.35963" lon="-1.63394">
        <ele>9</ele>
        <time>2026-08-23T15:18:53.000Z</time>
      </trkpt>
      <trkpt lat="43.35977" lon="-1.63416">
        <ele>9</ele>
        <time>2026-08-23T15:18:57.000Z</time>
      </trkpt>
      <trkpt lat="43.3599" lon="-1.63435">
        <ele>8</ele>
        <time>2026-08-23T15:19:00.000Z</time>
      </trkpt>
      <trkpt lat="43.35995" lon="-1.63444">
        <ele>8</ele>
        <time>2026-08-23T15:19:02.000Z</time>
      </trkpt>
      <trkpt lat="43.35996" lon="-1.63448">
        <ele>8</ele>
        <time>2026-08-23T15:19:02.000Z</time>
      </trkpt>
      <trkpt lat="43.36001" lon="-1.6346">
        <ele>8</ele>
        <time>2026-08-23T15:19:04.000Z</time>
      </trkpt>
      <trkpt lat="43.36007" lon="-1.63472">
        <ele>7</ele>
        <time>2026-08-23T15:19:06.000Z</time>
      </trkpt>
      <trkpt lat="43.36012" lon="-1.63486">
        <ele>7</ele>
        <time>2026-08-23T15:19:08.000Z</time>
      </trkpt>
      <trkpt lat="43.36018" lon="-1.635">
        <ele>7</ele>
        <time>2026-08-23T15:19:10.000Z</time>
      </trkpt>
      <trkpt lat="43.36022" lon="-1.63509">
        <ele>6</ele>
        <time>2026-08-23T15:19:11.000Z</time>
      </trkpt>
      <trkpt lat="43.36027" lon="-1.6352">
        <ele>6</ele>
        <time>2026-08-23T15:19:13.000Z</time>
      </trkpt>
      <trkpt lat="43.36033" lon="-1.63531">
        <ele>6</ele>
        <time>2026-08-23T15:19:15.000Z</time>
      </trkpt>
      <trkpt lat="43.36041" lon="-1.63544">
        <ele>6</ele>
        <time>2026-08-23T15:19:17.000Z</time>
      </trkpt>
      <trkpt lat="43.3605" lon="-1.63557">
        <ele>6</ele>
        <time>2026-08-23T15:19:19.000Z</time>
      </trkpt>
      <trkpt lat="43.36059" lon="-1.63568">
        <ele>6</ele>
        <time>2026-08-23T15:19:21.000Z</time>
      </trkpt>
      <trkpt lat="43.36065" lon="-1.63575">
        <ele>6</ele>
        <time>2026-08-23T15:19:23.000Z</time>
      </trkpt>
      <trkpt lat="43.36072" lon="-1.63582">
        <ele>6</ele>
        <time>2026-08-23T15:19:24.000Z</time>
      </trkpt>
      <trkpt lat="43.3608" lon="-1.63589">
        <ele>6</ele>
        <time>2026-08-23T15:19:26.000Z</time>
      </trkpt>
      <trkpt lat="43.3609" lon="-1.63595">
        <ele>5</ele>
        <time>2026-08-23T15:19:28.000Z</time>
      </trkpt>
      <trkpt lat="43.36096" lon="-1.63598">
        <ele>5</ele>
        <time>2026-08-23T15:19:29.000Z</time>
      </trkpt>
      <trkpt lat="43.361" lon="-1.636">
        <ele>5</ele>
        <time>2026-08-23T15:19:30.000Z</time>
      </trkpt>
      <trkpt lat="43.36108" lon="-1.63602">
        <ele>6</ele>
        <time>2026-08-23T15:19:31.000Z</time>
      </trkpt>
      <trkpt lat="43.3613" lon="-1.6361">
        <ele>6</ele>
        <time>2026-08-23T15:19:35.000Z</time>
      </trkpt>
      <trkpt lat="43.36161" lon="-1.63621">
        <ele>6</ele>
        <time>2026-08-23T15:19:41.000Z</time>
      </trkpt>
      <trkpt lat="43.3619" lon="-1.63632">
        <ele>6</ele>
        <time>2026-08-23T15:19:46.000Z</time>
      </trkpt>
      <trkpt lat="43.36216" lon="-1.63643">
        <ele>6</ele>
        <time>2026-08-23T15:19:51.000Z</time>
      </trkpt>
      <trkpt lat="43.36221" lon="-1.63649">
        <ele>6</ele>
        <time>2026-08-23T15:19:52.000Z</time>
      </trkpt>
      <trkpt lat="43.36235" lon="-1.63656">
        <ele>6</ele>
        <time>2026-08-23T15:19:55.000Z</time>
      </trkpt>
      <trkpt lat="43.36245" lon="-1.6366">
        <ele>6</ele>
        <time>2026-08-23T15:19:57.000Z</time>
      </trkpt>
      <trkpt lat="43.36255" lon="-1.63663">
        <ele>6</ele>
        <time>2026-08-23T15:19:59.000Z</time>
      </trkpt>
      <trkpt lat="43.36261" lon="-1.63665">
        <ele>6</ele>
        <time>2026-08-23T15:20:00.000Z</time>
      </trkpt>
      <trkpt lat="43.36268" lon="-1.63666">
        <ele>6</ele>
        <time>2026-08-23T15:20:01.000Z</time>
      </trkpt>
      <trkpt lat="43.36274" lon="-1.63663">
        <ele>6</ele>
        <time>2026-08-23T15:20:02.000Z</time>
      </trkpt>
      <trkpt lat="43.3628" lon="-1.63664">
        <ele>6</ele>
        <time>2026-08-23T15:20:03.000Z</time>
      </trkpt>
      <trkpt lat="43.36285" lon="-1.63665">
        <ele>6</ele>
        <time>2026-08-23T15:20:04.000Z</time>
      </trkpt>
      <trkpt lat="43.36291" lon="-1.63666">
        <ele>7</ele>
        <time>2026-08-23T15:20:05.000Z</time>
      </trkpt>
      <trkpt lat="43.36295" lon="-1.63667">
        <ele>7</ele>
        <time>2026-08-23T15:20:06.000Z</time>
      </trkpt>
      <trkpt lat="43.36301" lon="-1.63667">
        <ele>7</ele>
        <time>2026-08-23T15:20:07.000Z</time>
      </trkpt>
      <trkpt lat="43.36319" lon="-1.63666">
        <ele>7</ele>
        <time>2026-08-23T15:20:10.000Z</time>
      </trkpt>
      <trkpt lat="43.36341" lon="-1.63664">
        <ele>7</ele>
        <time>2026-08-23T15:20:14.000Z</time>
      </trkpt>
      <trkpt lat="43.36355" lon="-1.63662">
        <ele>7</ele>
        <time>2026-08-23T15:20:17.000Z</time>
      </trkpt>
      <trkpt lat="43.36368" lon="-1.63658">
        <ele>7</ele>
        <time>2026-08-23T15:20:19.000Z</time>
      </trkpt>
      <trkpt lat="43.36388" lon="-1.63652">
        <ele>7</ele>
        <time>2026-08-23T15:20:23.000Z</time>
      </trkpt>
      <trkpt lat="43.36402" lon="-1.63647">
        <ele>7</ele>
        <time>2026-08-23T15:20:25.000Z</time>
      </trkpt>
      <trkpt lat="43.36462" lon="-1.63627">
        <ele>5</ele>
        <time>2026-08-23T15:20:36.000Z</time>
      </trkpt>
      <trkpt lat="43.3655" lon="-1.63599">
        <ele>4</ele>
        <time>2026-08-23T15:20:52.000Z</time>
      </trkpt>
      <trkpt lat="43.36559" lon="-1.63598">
        <ele>5</ele>
        <time>2026-08-23T15:20:54.000Z</time>
      </trkpt>
      <trkpt lat="43.36581" lon="-1.63591">
        <ele>5</ele>
        <time>2026-08-23T15:20:58.000Z</time>
      </trkpt>
      <trkpt lat="43.36599" lon="-1.63585">
        <ele>6</ele>
        <time>2026-08-23T15:21:01.000Z</time>
      </trkpt>
      <trkpt lat="43.36616" lon="-1.6358">
        <ele>6</ele>
        <time>2026-08-23T15:21:04.000Z</time>
      </trkpt>
      <trkpt lat="43.36631" lon="-1.63577">
        <ele>7</ele>
        <time>2026-08-23T15:21:07.000Z</time>
      </trkpt>
      <trkpt lat="43.36633" lon="-1.63576">
        <ele>7</ele>
        <time>2026-08-23T15:21:07.000Z</time>
      </trkpt>
      <trkpt lat="43.36636" lon="-1.63576">
        <ele>7</ele>
        <time>2026-08-23T15:21:08.000Z</time>
      </trkpt>
      <trkpt lat="43.36641" lon="-1.63575">
        <ele>7</ele>
        <time>2026-08-23T15:21:09.000Z</time>
      </trkpt>
      <trkpt lat="43.36653" lon="-1.63575">
        <ele>8</ele>
        <time>2026-08-23T15:21:11.000Z</time>
      </trkpt>
      <trkpt lat="43.36668" lon="-1.63574">
        <ele>8</ele>
        <time>2026-08-23T15:21:14.000Z</time>
      </trkpt>
      <trkpt lat="43.36683" lon="-1.63575">
        <ele>8</ele>
        <time>2026-08-23T15:21:16.000Z</time>
      </trkpt>
      <trkpt lat="43.36701" lon="-1.63577">
        <ele>8</ele>
        <time>2026-08-23T15:21:20.000Z</time>
      </trkpt>
      <trkpt lat="43.36717" lon="-1.6358">
        <ele>7</ele>
        <time>2026-08-23T15:21:22.000Z</time>
      </trkpt>
      <trkpt lat="43.36734" lon="-1.63586">
        <ele>7</ele>
        <time>2026-08-23T15:21:26.000Z</time>
      </trkpt>
      <trkpt lat="43.36748" lon="-1.63591">
        <ele>7</ele>
        <time>2026-08-23T15:21:28.000Z</time>
      </trkpt>
      <trkpt lat="43.36756" lon="-1.63595">
        <ele>7</ele>
        <time>2026-08-23T15:21:30.000Z</time>
      </trkpt>
      <trkpt lat="43.36771" lon="-1.63603">
        <ele>6</ele>
        <time>2026-08-23T15:21:32.000Z</time>
      </trkpt>
      <trkpt lat="43.36787" lon="-1.63613">
        <ele>6</ele>
        <time>2026-08-23T15:21:36.000Z</time>
      </trkpt>
      <trkpt lat="43.36809" lon="-1.63627">
        <ele>5</ele>
        <time>2026-08-23T15:21:40.000Z</time>
      </trkpt>
      <trkpt lat="43.36857" lon="-1.63658">
        <ele>4</ele>
        <time>2026-08-23T15:21:49.000Z</time>
      </trkpt>
      <trkpt lat="43.36898" lon="-1.63685">
        <ele>4</ele>
        <time>2026-08-23T15:21:57.000Z</time>
      </trkpt>
      <trkpt lat="43.3703" lon="-1.63771">
        <ele>5</ele>
        <time>2026-08-23T15:22:23.000Z</time>
      </trkpt>
      <trkpt lat="43.37045" lon="-1.6378">
        <ele>6</ele>
        <time>2026-08-23T15:22:26.000Z</time>
      </trkpt>
      <trkpt lat="43.37058" lon="-1.63788">
        <ele>6</ele>
        <time>2026-08-23T15:22:29.000Z</time>
      </trkpt>
      <trkpt lat="43.37067" lon="-1.63793">
        <ele>6</ele>
        <time>2026-08-23T15:22:31.000Z</time>
      </trkpt>
      <trkpt lat="43.37076" lon="-1.63796">
        <ele>6</ele>
        <time>2026-08-23T15:22:32.000Z</time>
      </trkpt>
      <trkpt lat="43.37085" lon="-1.638">
        <ele>6</ele>
        <time>2026-08-23T15:22:34.000Z</time>
      </trkpt>
      <trkpt lat="43.37093" lon="-1.63802">
        <ele>6</ele>
        <time>2026-08-23T15:22:35.000Z</time>
      </trkpt>
      <trkpt lat="43.37099" lon="-1.63803">
        <ele>6</ele>
        <time>2026-08-23T15:22:36.000Z</time>
      </trkpt>
      <trkpt lat="43.37105" lon="-1.63804">
        <ele>5</ele>
        <time>2026-08-23T15:22:38.000Z</time>
      </trkpt>
      <trkpt lat="43.37108" lon="-1.63804">
        <ele>5</ele>
        <time>2026-08-23T15:22:38.000Z</time>
      </trkpt>
      <trkpt lat="43.37111" lon="-1.63805">
        <ele>5</ele>
        <time>2026-08-23T15:22:39.000Z</time>
      </trkpt>
      <trkpt lat="43.37123" lon="-1.63805">
        <ele>5</ele>
        <time>2026-08-23T15:22:41.000Z</time>
      </trkpt>
      <trkpt lat="43.37146" lon="-1.63804">
        <ele>5</ele>
        <time>2026-08-23T15:22:45.000Z</time>
      </trkpt>
      <trkpt lat="43.37189" lon="-1.63801">
        <ele>4</ele>
        <time>2026-08-23T15:22:52.000Z</time>
      </trkpt>
      <trkpt lat="43.37298" lon="-1.63793">
        <ele>3</ele>
        <time>2026-08-23T15:23:12.000Z</time>
      </trkpt>
      <trkpt lat="43.37385" lon="-1.63788">
        <ele>3</ele>
        <time>2026-08-23T15:23:27.000Z</time>
      </trkpt>
      <trkpt lat="43.37395" lon="-1.63785">
        <ele>4</ele>
        <time>2026-08-23T15:23:29.000Z</time>
      </trkpt>
      <trkpt lat="43.37413" lon="-1.63784">
        <ele>4</ele>
        <time>2026-08-23T15:23:32.000Z</time>
      </trkpt>
      <trkpt lat="43.37429" lon="-1.63781">
        <ele>4</ele>
        <time>2026-08-23T15:23:35.000Z</time>
      </trkpt>
      <trkpt lat="43.37451" lon="-1.63777">
        <ele>4</ele>
        <time>2026-08-23T15:23:39.000Z</time>
      </trkpt>
      <trkpt lat="43.37469" lon="-1.63776">
        <ele>4</ele>
        <time>2026-08-23T15:23:42.000Z</time>
      </trkpt>
      <trkpt lat="43.37516" lon="-1.63774">
        <ele>4</ele>
        <time>2026-08-23T15:23:51.000Z</time>
      </trkpt>
      <trkpt lat="43.37522" lon="-1.63774">
        <ele>5</ele>
        <time>2026-08-23T15:23:52.000Z</time>
      </trkpt>
      <trkpt lat="43.37536" lon="-1.63773">
        <ele>5</ele>
        <time>2026-08-23T15:23:54.000Z</time>
      </trkpt>
      <trkpt lat="43.37603" lon="-1.63769">
        <ele>6</ele>
        <time>2026-08-23T15:24:06.000Z</time>
      </trkpt>
      <trkpt lat="43.37615" lon="-1.6377">
        <ele>6</ele>
        <time>2026-08-23T15:24:08.000Z</time>
      </trkpt>
      <trkpt lat="43.3763" lon="-1.63771">
        <ele>6</ele>
        <time>2026-08-23T15:24:11.000Z</time>
      </trkpt>
      <trkpt lat="43.37649" lon="-1.63771">
        <ele>6</ele>
        <time>2026-08-23T15:24:15.000Z</time>
      </trkpt>
      <trkpt lat="43.37654" lon="-1.63774">
        <ele>6</ele>
        <time>2026-08-23T15:24:15.000Z</time>
      </trkpt>
      <trkpt lat="43.37724" lon="-1.6377">
        <ele>8</ele>
        <time>2026-08-23T15:24:28.000Z</time>
      </trkpt>
      <trkpt lat="43.37735" lon="-1.6377">
        <ele>8</ele>
        <time>2026-08-23T15:24:30.000Z</time>
      </trkpt>
      <trkpt lat="43.37746" lon="-1.6377">
        <ele>8</ele>
        <time>2026-08-23T15:24:32.000Z</time>
      </trkpt>
      <trkpt lat="43.3775" lon="-1.6377">
        <ele>8</ele>
        <time>2026-08-23T15:24:33.000Z</time>
      </trkpt>
      <trkpt lat="43.37754" lon="-1.63771">
        <ele>8</ele>
        <time>2026-08-23T15:24:33.000Z</time>
      </trkpt>
      <trkpt lat="43.37756" lon="-1.63772">
        <ele>8</ele>
        <time>2026-08-23T15:24:34.000Z</time>
      </trkpt>
      <trkpt lat="43.37762" lon="-1.63774">
        <ele>8</ele>
        <time>2026-08-23T15:24:35.000Z</time>
      </trkpt>
      <trkpt lat="43.37768" lon="-1.63777">
        <ele>8</ele>
        <time>2026-08-23T15:24:36.000Z</time>
      </trkpt>
      <trkpt lat="43.37774" lon="-1.63781">
        <ele>8</ele>
        <time>2026-08-23T15:24:37.000Z</time>
      </trkpt>
      <trkpt lat="43.37781" lon="-1.63785">
        <ele>8</ele>
        <time>2026-08-23T15:24:38.000Z</time>
      </trkpt>
      <trkpt lat="43.37788" lon="-1.63791">
        <ele>8</ele>
        <time>2026-08-23T15:24:40.000Z</time>
      </trkpt>
      <trkpt lat="43.37796" lon="-1.638">
        <ele>8</ele>
        <time>2026-08-23T15:24:42.000Z</time>
      </trkpt>
      <trkpt lat="43.37803" lon="-1.63806">
        <ele>8</ele>
        <time>2026-08-23T15:24:43.000Z</time>
      </trkpt>
      <trkpt lat="43.37817" lon="-1.6382">
        <ele>8</ele>
        <time>2026-08-23T15:24:46.000Z</time>
      </trkpt>
      <trkpt lat="43.37836" lon="-1.6384">
        <ele>8</ele>
        <time>2026-08-23T15:24:51.000Z</time>
      </trkpt>
      <trkpt lat="43.37864" lon="-1.63869">
        <ele>7</ele>
        <time>2026-08-23T15:24:57.000Z</time>
      </trkpt>
      <trkpt lat="43.37885" lon="-1.63891">
        <ele>6</ele>
        <time>2026-08-23T15:25:01.000Z</time>
      </trkpt>
      <trkpt lat="43.37911" lon="-1.63917">
        <ele>7</ele>
        <time>2026-08-23T15:25:07.000Z</time>
      </trkpt>
      <trkpt lat="43.37951" lon="-1.63955">
        <ele>7</ele>
        <time>2026-08-23T15:25:16.000Z</time>
      </trkpt>
      <trkpt lat="43.37975" lon="-1.63977">
        <ele>8</ele>
        <time>2026-08-23T15:25:21.000Z</time>
      </trkpt>
      <trkpt lat="43.38001" lon="-1.64001">
        <ele>8</ele>
        <time>2026-08-23T15:25:27.000Z</time>
      </trkpt>
      <trkpt lat="43.38026" lon="-1.64024">
        <ele>9</ele>
        <time>2026-08-23T15:25:32.000Z</time>
      </trkpt>
      <trkpt lat="43.3804" lon="-1.64037">
        <ele>9</ele>
        <time>2026-08-23T15:25:35.000Z</time>
      </trkpt>
      <trkpt lat="43.3805" lon="-1.64047">
        <ele>9</ele>
        <time>2026-08-23T15:25:37.000Z</time>
      </trkpt>
      <trkpt lat="43.38056" lon="-1.64055">
        <ele>9</ele>
        <time>2026-08-23T15:25:39.000Z</time>
      </trkpt>
      <trkpt lat="43.38062" lon="-1.64063">
        <ele>9</ele>
        <time>2026-08-23T15:25:40.000Z</time>
      </trkpt>
      <trkpt lat="43.38067" lon="-1.64071">
        <ele>9</ele>
        <time>2026-08-23T15:25:41.000Z</time>
      </trkpt>
      <trkpt lat="43.38071" lon="-1.64078">
        <ele>9</ele>
        <time>2026-08-23T15:25:43.000Z</time>
      </trkpt>
      <trkpt lat="43.38074" lon="-1.64086">
        <ele>8</ele>
        <time>2026-08-23T15:25:44.000Z</time>
      </trkpt>
      <trkpt lat="43.38084" lon="-1.64107">
        <ele>8</ele>
        <time>2026-08-23T15:25:47.000Z</time>
      </trkpt>
      <trkpt lat="43.38094" lon="-1.64129">
        <ele>8</ele>
        <time>2026-08-23T15:25:50.000Z</time>
      </trkpt>
      <trkpt lat="43.38103" lon="-1.6415">
        <ele>7</ele>
        <time>2026-08-23T15:25:54.000Z</time>
      </trkpt>
      <trkpt lat="43.3811" lon="-1.64167">
        <ele>7</ele>
        <time>2026-08-23T15:25:56.000Z</time>
      </trkpt>
      <trkpt lat="43.38116" lon="-1.6418">
        <ele>7</ele>
        <time>2026-08-23T15:25:58.000Z</time>
      </trkpt>
      <trkpt lat="43.38119" lon="-1.64186">
        <ele>7</ele>
        <time>2026-08-23T15:25:59.000Z</time>
      </trkpt>
      <trkpt lat="43.38121" lon="-1.6419">
        <ele>7</ele>
        <time>2026-08-23T15:26:00.000Z</time>
      </trkpt>
      <trkpt lat="43.38126" lon="-1.64198">
        <ele>7</ele>
        <time>2026-08-23T15:26:01.000Z</time>
      </trkpt>
      <trkpt lat="43.38132" lon="-1.64204">
        <ele>7</ele>
        <time>2026-08-23T15:26:02.000Z</time>
      </trkpt>
      <trkpt lat="43.38135" lon="-1.64208">
        <ele>6</ele>
        <time>2026-08-23T15:26:03.000Z</time>
      </trkpt>
      <trkpt lat="43.38139" lon="-1.64212">
        <ele>6</ele>
        <time>2026-08-23T15:26:04.000Z</time>
      </trkpt>
      <trkpt lat="43.38141" lon="-1.64213">
        <ele>7</ele>
        <time>2026-08-23T15:26:04.000Z</time>
      </trkpt>
      <trkpt lat="43.38155" lon="-1.64227">
        <ele>6</ele>
        <time>2026-08-23T15:26:07.000Z</time>
      </trkpt>
      <trkpt lat="43.3817" lon="-1.6424">
        <ele>6</ele>
        <time>2026-08-23T15:26:11.000Z</time>
      </trkpt>
      <trkpt lat="43.38187" lon="-1.64257">
        <ele>5</ele>
        <time>2026-08-23T15:26:14.000Z</time>
      </trkpt>
      <trkpt lat="43.38195" lon="-1.64264">
        <ele>5</ele>
        <time>2026-08-23T15:26:16.000Z</time>
      </trkpt>
      <trkpt lat="43.38203" lon="-1.64271">
        <ele>5</ele>
        <time>2026-08-23T15:26:18.000Z</time>
      </trkpt>
      <trkpt lat="43.38212" lon="-1.6428">
        <ele>5</ele>
        <time>2026-08-23T15:26:20.000Z</time>
      </trkpt>
      <trkpt lat="43.38215" lon="-1.64282">
        <ele>5</ele>
        <time>2026-08-23T15:26:20.000Z</time>
      </trkpt>
      <trkpt lat="43.38219" lon="-1.64286">
        <ele>5</ele>
        <time>2026-08-23T15:26:21.000Z</time>
      </trkpt>
      <trkpt lat="43.38223" lon="-1.64291">
        <ele>5</ele>
        <time>2026-08-23T15:26:22.000Z</time>
      </trkpt>
      <trkpt lat="43.38227" lon="-1.64296">
        <ele>5</ele>
        <time>2026-08-23T15:26:23.000Z</time>
      </trkpt>
      <trkpt lat="43.38231" lon="-1.64301">
        <ele>5</ele>
        <time>2026-08-23T15:26:24.000Z</time>
      </trkpt>
      <trkpt lat="43.38235" lon="-1.64307">
        <ele>5</ele>
        <time>2026-08-23T15:26:25.000Z</time>
      </trkpt>
      <trkpt lat="43.3824" lon="-1.64314">
        <ele>5</ele>
        <time>2026-08-23T15:26:26.000Z</time>
      </trkpt>
      <trkpt lat="43.38243" lon="-1.6432">
        <ele>5</ele>
        <time>2026-08-23T15:26:27.000Z</time>
      </trkpt>
      <trkpt lat="43.38247" lon="-1.64326">
        <ele>5</ele>
        <time>2026-08-23T15:26:28.000Z</time>
      </trkpt>
      <trkpt lat="43.3825" lon="-1.64332">
        <ele>5</ele>
        <time>2026-08-23T15:26:29.000Z</time>
      </trkpt>
      <trkpt lat="43.38254" lon="-1.64342">
        <ele>5</ele>
        <time>2026-08-23T15:26:31.000Z</time>
      </trkpt>
      <trkpt lat="43.3826" lon="-1.64355">
        <ele>6</ele>
        <time>2026-08-23T15:26:33.000Z</time>
      </trkpt>
      <trkpt lat="43.38264" lon="-1.64367">
        <ele>6</ele>
        <time>2026-08-23T15:26:34.000Z</time>
      </trkpt>
      <trkpt lat="43.38267" lon="-1.64378">
        <ele>7</ele>
        <time>2026-08-23T15:26:36.000Z</time>
      </trkpt>
      <trkpt lat="43.38269" lon="-1.64385">
        <ele>7</ele>
        <time>2026-08-23T15:26:37.000Z</time>
      </trkpt>
      <trkpt lat="43.38272" lon="-1.64398">
        <ele>8</ele>
        <time>2026-08-23T15:26:39.000Z</time>
      </trkpt>
      <trkpt lat="43.38273" lon="-1.64407">
        <ele>8</ele>
        <time>2026-08-23T15:26:40.000Z</time>
      </trkpt>
      <trkpt lat="43.38274" lon="-1.64415">
        <ele>8</ele>
        <time>2026-08-23T15:26:41.000Z</time>
      </trkpt>
      <trkpt lat="43.38275" lon="-1.64423">
        <ele>8</ele>
        <time>2026-08-23T15:26:42.000Z</time>
      </trkpt>
      <trkpt lat="43.38276" lon="-1.64431">
        <ele>9</ele>
        <time>2026-08-23T15:26:43.000Z</time>
      </trkpt>
      <trkpt lat="43.38277" lon="-1.64442">
        <ele>9</ele>
        <time>2026-08-23T15:26:44.000Z</time>
      </trkpt>
      <trkpt lat="43.38279" lon="-1.64473">
        <ele>10</ele>
        <time>2026-08-23T15:26:48.000Z</time>
      </trkpt>
      <trkpt lat="43.38281" lon="-1.64501">
        <ele>11</ele>
        <time>2026-08-23T15:26:52.000Z</time>
      </trkpt>
      <trkpt lat="43.38282" lon="-1.64525">
        <ele>10</ele>
        <time>2026-08-23T15:26:55.000Z</time>
      </trkpt>
      <trkpt lat="43.38282" lon="-1.64534">
        <ele>10</ele>
        <time>2026-08-23T15:26:56.000Z</time>
      </trkpt>
      <trkpt lat="43.38282" lon="-1.64568">
        <ele>9</ele>
        <time>2026-08-23T15:27:01.000Z</time>
      </trkpt>
      <trkpt lat="43.38282" lon="-1.64596">
        <ele>8</ele>
        <time>2026-08-23T15:27:04.000Z</time>
      </trkpt>
      <trkpt lat="43.38281" lon="-1.64622">
        <ele>8</ele>
        <time>2026-08-23T15:27:08.000Z</time>
      </trkpt>
      <trkpt lat="43.38277" lon="-1.64667">
        <ele>7</ele>
        <time>2026-08-23T15:27:14.000Z</time>
      </trkpt>
      <trkpt lat="43.38274" lon="-1.64697">
        <ele>7</ele>
        <time>2026-08-23T15:27:18.000Z</time>
      </trkpt>
      <trkpt lat="43.38273" lon="-1.64712">
        <ele>7</ele>
        <time>2026-08-23T15:27:19.000Z</time>
      </trkpt>
      <trkpt lat="43.38271" lon="-1.6473">
        <ele>7</ele>
        <time>2026-08-23T15:27:22.000Z</time>
      </trkpt>
      <trkpt lat="43.38265" lon="-1.64789">
        <ele>9</ele>
        <time>2026-08-23T15:27:30.000Z</time>
      </trkpt>
      <trkpt lat="43.38259" lon="-1.64848">
        <ele>10</ele>
        <time>2026-08-23T15:27:37.000Z</time>
      </trkpt>
      <trkpt lat="43.38255" lon="-1.64888">
        <ele>9</ele>
        <time>2026-08-23T15:27:42.000Z</time>
      </trkpt>
      <trkpt lat="43.38254" lon="-1.64897">
        <ele>9</ele>
        <time>2026-08-23T15:27:44.000Z</time>
      </trkpt>
      <trkpt lat="43.38254" lon="-1.64905">
        <ele>9</ele>
        <time>2026-08-23T15:27:45.000Z</time>
      </trkpt>
      <trkpt lat="43.38254" lon="-1.64913">
        <ele>9</ele>
        <time>2026-08-23T15:27:46.000Z</time>
      </trkpt>
      <trkpt lat="43.38254" lon="-1.64919">
        <ele>9</ele>
        <time>2026-08-23T15:27:46.000Z</time>
      </trkpt>
      <trkpt lat="43.38254" lon="-1.64928">
        <ele>8</ele>
        <time>2026-08-23T15:27:48.000Z</time>
      </trkpt>
      <trkpt lat="43.38254" lon="-1.64936">
        <ele>8</ele>
        <time>2026-08-23T15:27:49.000Z</time>
      </trkpt>
      <trkpt lat="43.38255" lon="-1.64941">
        <ele>8</ele>
        <time>2026-08-23T15:27:49.000Z</time>
      </trkpt>
      <trkpt lat="43.38256" lon="-1.6495">
        <ele>8</ele>
        <time>2026-08-23T15:27:51.000Z</time>
      </trkpt>
      <trkpt lat="43.38258" lon="-1.64958">
        <ele>8</ele>
        <time>2026-08-23T15:27:52.000Z</time>
      </trkpt>
      <trkpt lat="43.3826" lon="-1.64966">
        <ele>8</ele>
        <time>2026-08-23T15:27:53.000Z</time>
      </trkpt>
      <trkpt lat="43.38262" lon="-1.64974">
        <ele>8</ele>
        <time>2026-08-23T15:27:54.000Z</time>
      </trkpt>
      <trkpt lat="43.38267" lon="-1.64988">
        <ele>9</ele>
        <time>2026-08-23T15:27:56.000Z</time>
      </trkpt>
      <trkpt lat="43.38275" lon="-1.65009">
        <ele>9</ele>
        <time>2026-08-23T15:27:59.000Z</time>
      </trkpt>
      <trkpt lat="43.38279" lon="-1.6502">
        <ele>9</ele>
        <time>2026-08-23T15:28:00.000Z</time>
      </trkpt>
      <trkpt lat="43.38302" lon="-1.65083">
        <ele>11</ele>
        <time>2026-08-23T15:28:10.000Z</time>
      </trkpt>
      <trkpt lat="43.38334" lon="-1.65171">
        <ele>12</ele>
        <time>2026-08-23T15:28:22.000Z</time>
      </trkpt>
      <trkpt lat="43.3834" lon="-1.65189">
        <ele>12</ele>
        <time>2026-08-23T15:28:25.000Z</time>
      </trkpt>
      <trkpt lat="43.38345" lon="-1.65194">
        <ele>13</ele>
        <time>2026-08-23T15:28:26.000Z</time>
      </trkpt>
      <trkpt lat="43.38347" lon="-1.65198">
        <ele>13</ele>
        <time>2026-08-23T15:28:27.000Z</time>
      </trkpt>
      <trkpt lat="43.3835" lon="-1.65204">
        <ele>13</ele>
        <time>2026-08-23T15:28:28.000Z</time>
      </trkpt>
      <trkpt lat="43.38354" lon="-1.65211">
        <ele>13</ele>
        <time>2026-08-23T15:28:29.000Z</time>
      </trkpt>
      <trkpt lat="43.38355" lon="-1.65213">
        <ele>13</ele>
        <time>2026-08-23T15:28:29.000Z</time>
      </trkpt>
      <trkpt lat="43.38358" lon="-1.65218">
        <ele>13</ele>
        <time>2026-08-23T15:28:30.000Z</time>
      </trkpt>
      <trkpt lat="43.38363" lon="-1.65226">
        <ele>14</ele>
        <time>2026-08-23T15:28:31.000Z</time>
      </trkpt>
      <trkpt lat="43.3837" lon="-1.65235">
        <ele>14</ele>
        <time>2026-08-23T15:28:33.000Z</time>
      </trkpt>
      <trkpt lat="43.38377" lon="-1.65244">
        <ele>14</ele>
        <time>2026-08-23T15:28:35.000Z</time>
      </trkpt>
      <trkpt lat="43.38384" lon="-1.65251">
        <ele>14</ele>
        <time>2026-08-23T15:28:36.000Z</time>
      </trkpt>
      <trkpt lat="43.38392" lon="-1.65259">
        <ele>14</ele>
        <time>2026-08-23T15:28:38.000Z</time>
      </trkpt>
      <trkpt lat="43.38398" lon="-1.65264">
        <ele>14</ele>
        <time>2026-08-23T15:28:39.000Z</time>
      </trkpt>
      <trkpt lat="43.38404" lon="-1.65268">
        <ele>14</ele>
        <time>2026-08-23T15:28:40.000Z</time>
      </trkpt>
      <trkpt lat="43.38412" lon="-1.65274">
        <ele>14</ele>
        <time>2026-08-23T15:28:42.000Z</time>
      </trkpt>
      <trkpt lat="43.38412" lon="-1.65274">
        <ele>14</ele>
        <time>2026-08-23T15:28:42.000Z</time>
      </trkpt>
      <trkpt lat="43.38418" lon="-1.65278">
        <ele>14</ele>
        <time>2026-08-23T15:28:43.000Z</time>
      </trkpt>
      <trkpt lat="43.38417" lon="-1.65286">
        <ele>13</ele>
        <time>2026-08-23T15:28:44.000Z</time>
      </trkpt>
      <trkpt lat="43.38415" lon="-1.6529">
        <ele>12</ele>
        <time>2026-08-23T15:28:45.000Z</time>
      </trkpt>
      <trkpt lat="43.38406" lon="-1.65316">
        <ele>8</ele>
        <time>2026-08-23T15:28:49.000Z</time>
      </trkpt>
      <trkpt lat="43.38382" lon="-1.65371">
        <ele>5</ele>
        <time>2026-08-23T15:28:57.000Z</time>
      </trkpt>
      <trkpt lat="43.38378" lon="-1.65378">
        <ele>5</ele>
        <time>2026-08-23T15:28:58.000Z</time>
      </trkpt>
      <trkpt lat="43.38376" lon="-1.65382">
        <ele>5</ele>
        <time>2026-08-23T15:28:59.000Z</time>
      </trkpt>
      <trkpt lat="43.38346" lon="-1.65443">
        <ele>5</ele>
        <time>2026-08-23T15:29:08.000Z</time>
      </trkpt>
      <trkpt lat="43.3834" lon="-1.65453">
        <ele>5</ele>
        <time>2026-08-23T15:29:10.000Z</time>
      </trkpt>
      <trkpt lat="43.38339" lon="-1.65455">
        <ele>5</ele>
        <time>2026-08-23T15:29:10.000Z</time>
      </trkpt>
      <trkpt lat="43.38339" lon="-1.65455">
        <ele>5</ele>
        <time>2026-08-23T15:29:10.000Z</time>
      </trkpt>
      <trkpt lat="43.38362" lon="-1.65491">
        <ele>4</ele>
        <time>2026-08-23T15:29:16.000Z</time>
      </trkpt>
      <trkpt lat="43.38364" lon="-1.65496">
        <ele>4</ele>
        <time>2026-08-23T15:29:17.000Z</time>
      </trkpt>
      <trkpt lat="43.38363" lon="-1.65499">
        <ele>4</ele>
        <time>2026-08-23T15:29:18.000Z</time>
      </trkpt>
      <trkpt lat="43.38361" lon="-1.65504">
        <ele>4</ele>
        <time>2026-08-23T15:29:18.000Z</time>
      </trkpt>
      <trkpt lat="43.38357" lon="-1.65513">
        <ele>4</ele>
        <time>2026-08-23T15:29:20.000Z</time>
      </trkpt>
      <trkpt lat="43.38351" lon="-1.65522">
        <ele>4</ele>
        <time>2026-08-23T15:29:21.000Z</time>
      </trkpt>
      <trkpt lat="43.38308" lon="-1.65578">
        <ele>3</ele>
        <time>2026-08-23T15:29:32.000Z</time>
      </trkpt>
      <trkpt lat="43.38304" lon="-1.65583">
        <ele>3</ele>
        <time>2026-08-23T15:29:33.000Z</time>
      </trkpt>
      <trkpt lat="43.38299" lon="-1.6559">
        <ele>3</ele>
        <time>2026-08-23T15:29:34.000Z</time>
      </trkpt>
      <trkpt lat="43.38285" lon="-1.65609">
        <ele>3</ele>
        <time>2026-08-23T15:29:37.000Z</time>
      </trkpt>
      <trkpt lat="43.38267" lon="-1.65633">
        <ele>4</ele>
        <time>2026-08-23T15:29:42.000Z</time>
      </trkpt>
      <trkpt lat="43.38246" lon="-1.65661">
        <ele>4</ele>
        <time>2026-08-23T15:29:47.000Z</time>
      </trkpt>
      <trkpt lat="43.3824" lon="-1.6567">
        <ele>4</ele>
        <time>2026-08-23T15:29:49.000Z</time>
      </trkpt>
      <trkpt lat="43.38237" lon="-1.65676">
        <ele>4</ele>
        <time>2026-08-23T15:29:50.000Z</time>
      </trkpt>
      <trkpt lat="43.38235" lon="-1.65683">
        <ele>4</ele>
        <time>2026-08-23T15:29:51.000Z</time>
      </trkpt>
      <trkpt lat="43.38235" lon="-1.65689">
        <ele>4</ele>
        <time>2026-08-23T15:29:51.000Z</time>
      </trkpt>
      <trkpt lat="43.38235" lon="-1.65696">
        <ele>4</ele>
        <time>2026-08-23T15:29:52.000Z</time>
      </trkpt>
      <trkpt lat="43.38236" lon="-1.65703">
        <ele>4</ele>
        <time>2026-08-23T15:29:53.000Z</time>
      </trkpt>
      <trkpt lat="43.38264" lon="-1.65784">
        <ele>4</ele>
        <time>2026-08-23T15:30:05.000Z</time>
      </trkpt>
      <trkpt lat="43.38296" lon="-1.65874">
        <ele>4</ele>
        <time>2026-08-23T15:30:18.000Z</time>
      </trkpt>
      <trkpt lat="43.38303" lon="-1.6589">
        <ele>4</ele>
        <time>2026-08-23T15:30:20.000Z</time>
      </trkpt>
      <trkpt lat="43.38304" lon="-1.65892">
        <ele>4</ele>
        <time>2026-08-23T15:30:21.000Z</time>
      </trkpt>
      <trkpt lat="43.38308" lon="-1.65901">
        <ele>5</ele>
        <time>2026-08-23T15:30:22.000Z</time>
      </trkpt>
      <trkpt lat="43.3831" lon="-1.65904">
        <ele>5</ele>
        <time>2026-08-23T15:30:22.000Z</time>
      </trkpt>
      <trkpt lat="43.38317" lon="-1.65914">
        <ele>5</ele>
        <time>2026-08-23T15:30:24.000Z</time>
      </trkpt>
      <trkpt lat="43.38329" lon="-1.65927">
        <ele>6</ele>
        <time>2026-08-23T15:30:27.000Z</time>
      </trkpt>
      <trkpt lat="43.3833" lon="-1.65926">
        <ele>6</ele>
        <time>2026-08-23T15:30:27.000Z</time>
      </trkpt>
      <trkpt lat="43.38333" lon="-1.65923">
        <ele>6</ele>
        <time>2026-08-23T15:30:28.000Z</time>
      </trkpt>
      <trkpt lat="43.38335" lon="-1.65922">
        <ele>6</ele>
        <time>2026-08-23T15:30:28.000Z</time>
      </trkpt>
      <trkpt lat="43.38337" lon="-1.65922">
        <ele>6</ele>
        <time>2026-08-23T15:30:29.000Z</time>
      </trkpt>
      <trkpt lat="43.38339" lon="-1.65923">
        <ele>6</ele>
        <time>2026-08-23T15:30:29.000Z</time>
      </trkpt>
      <trkpt lat="43.3834" lon="-1.65925">
        <ele>6</ele>
        <time>2026-08-23T15:30:29.000Z</time>
      </trkpt>
      <trkpt lat="43.38342" lon="-1.65929">
        <ele>6</ele>
        <time>2026-08-23T15:30:30.000Z</time>
      </trkpt>
      <trkpt lat="43.38343" lon="-1.65931">
        <ele>6</ele>
        <time>2026-08-23T15:30:30.000Z</time>
      </trkpt>
      <trkpt lat="43.38343" lon="-1.65933">
        <ele>6</ele>
        <time>2026-08-23T15:30:30.000Z</time>
      </trkpt>
      <trkpt lat="43.38343" lon="-1.65935">
        <ele>6</ele>
        <time>2026-08-23T15:30:31.000Z</time>
      </trkpt>
      <trkpt lat="43.38342" lon="-1.65938">
        <ele>6</ele>
        <time>2026-08-23T15:30:31.000Z</time>
      </trkpt>
      <trkpt lat="43.38341" lon="-1.65941">
        <ele>6</ele>
        <time>2026-08-23T15:30:32.000Z</time>
      </trkpt>
      <trkpt lat="43.38358" lon="-1.65973">
        <ele>6</ele>
        <time>2026-08-23T15:30:37.000Z</time>
      </trkpt>
      <trkpt lat="43.38382" lon="-1.66008">
        <ele>5</ele>
        <time>2026-08-23T15:30:43.000Z</time>
      </trkpt>
      <trkpt lat="43.38395" lon="-1.66025">
        <ele>5</ele>
        <time>2026-08-23T15:30:46.000Z</time>
      </trkpt>
      <trkpt lat="43.38424" lon="-1.66064">
        <ele>5</ele>
        <time>2026-08-23T15:30:53.000Z</time>
      </trkpt>
      <trkpt lat="43.38429" lon="-1.66071">
        <ele>5</ele>
        <time>2026-08-23T15:30:55.000Z</time>
      </trkpt>
      <trkpt lat="43.38436" lon="-1.6608">
        <ele>5</ele>
        <time>2026-08-23T15:30:56.000Z</time>
      </trkpt>
      <trkpt lat="43.38446" lon="-1.66092">
        <ele>5</ele>
        <time>2026-08-23T15:30:59.000Z</time>
      </trkpt>
      <trkpt lat="43.38462" lon="-1.66117">
        <ele>5</ele>
        <time>2026-08-23T15:31:03.000Z</time>
      </trkpt>
      <trkpt lat="43.38473" lon="-1.66138">
        <ele>5</ele>
        <time>2026-08-23T15:31:06.000Z</time>
      </trkpt>
      <trkpt lat="43.38481" lon="-1.66156">
        <ele>5</ele>
        <time>2026-08-23T15:31:09.000Z</time>
      </trkpt>
      <trkpt lat="43.38483" lon="-1.66161">
        <ele>5</ele>
        <time>2026-08-23T15:31:10.000Z</time>
      </trkpt>
      <trkpt lat="43.3849" lon="-1.66182">
        <ele>5</ele>
        <time>2026-08-23T15:31:13.000Z</time>
      </trkpt>
      <trkpt lat="43.38495" lon="-1.66191">
        <ele>5</ele>
        <time>2026-08-23T15:31:14.000Z</time>
      </trkpt>
      <trkpt lat="43.385" lon="-1.66198">
        <ele>5</ele>
        <time>2026-08-23T15:31:15.000Z</time>
      </trkpt>
      <trkpt lat="43.38502" lon="-1.662">
        <ele>5</ele>
        <time>2026-08-23T15:31:16.000Z</time>
      </trkpt>
      <trkpt lat="43.38504" lon="-1.66202">
        <ele>5</ele>
        <time>2026-08-23T15:31:16.000Z</time>
      </trkpt>
      <trkpt lat="43.38506" lon="-1.66205">
        <ele>4</ele>
        <time>2026-08-23T15:31:17.000Z</time>
      </trkpt>
      <trkpt lat="43.38547" lon="-1.66242">
        <ele>4</ele>
        <time>2026-08-23T15:31:26.000Z</time>
      </trkpt>
      <trkpt lat="43.38568" lon="-1.6626">
        <ele>3</ele>
        <time>2026-08-23T15:31:30.000Z</time>
      </trkpt>
      <trkpt lat="43.38591" lon="-1.66282">
        <ele>2</ele>
        <time>2026-08-23T15:31:35.000Z</time>
      </trkpt>
      <trkpt lat="43.38617" lon="-1.66307">
        <ele>1</ele>
        <time>2026-08-23T15:31:41.000Z</time>
      </trkpt>
      <trkpt lat="43.38624" lon="-1.66311">
        <ele>1</ele>
        <time>2026-08-23T15:31:42.000Z</time>
      </trkpt>
      <trkpt lat="43.38627" lon="-1.66313">
        <ele>1</ele>
        <time>2026-08-23T15:31:43.000Z</time>
      </trkpt>
      <trkpt lat="43.38632" lon="-1.66315">
        <ele>3.8</ele>
        <time>2026-08-23T15:31:44.000Z</time>
      </trkpt>
      <trkpt lat="43.38638" lon="-1.66316">
        <ele>4</ele>
        <time>2026-08-23T15:31:45.000Z</time>
      </trkpt>
      <trkpt lat="43.38645" lon="-1.66316">
        <ele>1</ele>
        <time>2026-08-23T15:31:46.000Z</time>
      </trkpt>
      <trkpt lat="43.38648" lon="-1.66316">
        <ele>1</ele>
        <time>2026-08-23T15:31:46.000Z</time>
      </trkpt>
      <trkpt lat="43.3865" lon="-1.66316">
        <ele>1</ele>
        <time>2026-08-23T15:31:47.000Z</time>
      </trkpt>
      <trkpt lat="43.38668" lon="-1.6632">
        <ele>1</ele>
        <time>2026-08-23T15:31:50.000Z</time>
      </trkpt>
      <trkpt lat="43.38668" lon="-1.6632">
        <ele>1</ele>
        <time>2026-08-23T15:31:50.000Z</time>
      </trkpt>
      <trkpt lat="43.38668" lon="-1.66319">
        <ele>1</ele>
        <time>2026-08-23T15:31:50.000Z</time>
      </trkpt>
      <trkpt lat="43.38668" lon="-1.66318">
        <ele>1</ele>
        <time>2026-08-23T15:31:50.000Z</time>
      </trkpt>
      <trkpt lat="43.38668" lon="-1.66317">
        <ele>1</ele>
        <time>2026-08-23T15:31:50.000Z</time>
      </trkpt>
      <trkpt lat="43.38668" lon="-1.66316">
        <ele>1</ele>
        <time>2026-08-23T15:31:50.000Z</time>
      </trkpt>
      <trkpt lat="43.38668" lon="-1.66315">
        <ele>1</ele>
        <time>2026-08-23T15:31:51.000Z</time>
      </trkpt>
      <trkpt lat="43.38668" lon="-1.66314">
        <ele>1</ele>
        <time>2026-08-23T15:31:51.000Z</time>
      </trkpt>
      <trkpt lat="43.38669" lon="-1.66313">
        <ele>1</ele>
        <time>2026-08-23T15:31:51.000Z</time>
      </trkpt>
      <trkpt lat="43.38669" lon="-1.66312">
        <ele>1</ele>
        <time>2026-08-23T15:31:51.000Z</time>
      </trkpt>
      <trkpt lat="43.3867" lon="-1.66311">
        <ele>1</ele>
        <time>2026-08-23T15:31:51.000Z</time>
      </trkpt>
      <trkpt lat="43.3867" lon="-1.6631">
        <ele>1</ele>
        <time>2026-08-23T15:31:51.000Z</time>
      </trkpt>
      <trkpt lat="43.38671" lon="-1.66309">
        <ele>1</ele>
        <time>2026-08-23T15:31:52.000Z</time>
      </trkpt>
      <trkpt lat="43.38672" lon="-1.66308">
        <ele>1</ele>
        <time>2026-08-23T15:31:52.000Z</time>
      </trkpt>
      <trkpt lat="43.38672" lon="-1.66307">
        <ele>2</ele>
        <time>2026-08-23T15:31:52.000Z</time>
      </trkpt>
      <trkpt lat="43.38673" lon="-1.66306">
        <ele>2</ele>
        <time>2026-08-23T15:31:52.000Z</time>
      </trkpt>
      <trkpt lat="43.38674" lon="-1.66306">
        <ele>2</ele>
        <time>2026-08-23T15:31:52.000Z</time>
      </trkpt>
      <trkpt lat="43.38675" lon="-1.66305">
        <ele>2</ele>
        <time>2026-08-23T15:31:53.000Z</time>
      </trkpt>
      <trkpt lat="43.38676" lon="-1.66305">
        <ele>2</ele>
        <time>2026-08-23T15:31:53.000Z</time>
      </trkpt>
      <trkpt lat="43.38677" lon="-1.66304">
        <ele>2</ele>
        <time>2026-08-23T15:31:53.000Z</time>
      </trkpt>
      <trkpt lat="43.38678" lon="-1.66304">
        <ele>2</ele>
        <time>2026-08-23T15:31:53.000Z</time>
      </trkpt>
      <trkpt lat="43.38679" lon="-1.66304">
        <ele>2</ele>
        <time>2026-08-23T15:31:53.000Z</time>
      </trkpt>
      <trkpt lat="43.3868" lon="-1.66304">
        <ele>2</ele>
        <time>2026-08-23T15:31:54.000Z</time>
      </trkpt>
      <trkpt lat="43.38681" lon="-1.66304">
        <ele>2</ele>
        <time>2026-08-23T15:31:54.000Z</time>
      </trkpt>
      <trkpt lat="43.38682" lon="-1.66305">
        <ele>2</ele>
        <time>2026-08-23T15:31:54.000Z</time>
      </trkpt>
      <trkpt lat="43.38683" lon="-1.66305">
        <ele>2</ele>
        <time>2026-08-23T15:31:54.000Z</time>
      </trkpt>
      <trkpt lat="43.38684" lon="-1.66305">
        <ele>2</ele>
        <time>2026-08-23T15:31:54.000Z</time>
      </trkpt>
      <trkpt lat="43.38685" lon="-1.66305">
        <ele>2</ele>
        <time>2026-08-23T15:31:54.000Z</time>
      </trkpt>
      <trkpt lat="43.38685" lon="-1.66306">
        <ele>2</ele>
        <time>2026-08-23T15:31:55.000Z</time>
      </trkpt>
      <trkpt lat="43.38686" lon="-1.66306">
        <ele>2</ele>
        <time>2026-08-23T15:31:55.000Z</time>
      </trkpt>
      <trkpt lat="43.38686" lon="-1.66307">
        <ele>2</ele>
        <time>2026-08-23T15:31:55.000Z</time>
      </trkpt>
      <trkpt lat="43.38687" lon="-1.66307">
        <ele>2</ele>
        <time>2026-08-23T15:31:55.000Z</time>
      </trkpt>
      <trkpt lat="43.38687" lon="-1.66308">
        <ele>2</ele>
        <time>2026-08-23T15:31:55.000Z</time>
      </trkpt>
      <trkpt lat="43.38688" lon="-1.66308">
        <ele>2</ele>
        <time>2026-08-23T15:31:55.000Z</time>
      </trkpt>
      <trkpt lat="43.38688" lon="-1.66309">
        <ele>2</ele>
        <time>2026-08-23T15:31:56.000Z</time>
      </trkpt>
      <trkpt lat="43.38689" lon="-1.6631">
        <ele>2</ele>
        <time>2026-08-23T15:31:56.000Z</time>
      </trkpt>
      <trkpt lat="43.38689" lon="-1.66311">
        <ele>2</ele>
        <time>2026-08-23T15:31:56.000Z</time>
      </trkpt>
      <trkpt lat="43.3869" lon="-1.66311">
        <ele>2</ele>
        <time>2026-08-23T15:31:56.000Z</time>
      </trkpt>
      <trkpt lat="43.3869" lon="-1.66312">
        <ele>2</ele>
        <time>2026-08-23T15:31:56.000Z</time>
      </trkpt>
      <trkpt lat="43.3869" lon="-1.66313">
        <ele>2</ele>
        <time>2026-08-23T15:31:56.000Z</time>
      </trkpt>
      <trkpt lat="43.3869" lon="-1.66314">
        <ele>2</ele>
        <time>2026-08-23T15:31:56.000Z</time>
      </trkpt>
      <trkpt lat="43.38691" lon="-1.66314">
        <ele>2</ele>
        <time>2026-08-23T15:31:57.000Z</time>
      </trkpt>
      <trkpt lat="43.38691" lon="-1.66315">
        <ele>2</ele>
        <time>2026-08-23T15:31:57.000Z</time>
      </trkpt>
      <trkpt lat="43.38691" lon="-1.66316">
        <ele>2</ele>
        <time>2026-08-23T15:31:57.000Z</time>
      </trkpt>
      <trkpt lat="43.38691" lon="-1.66317">
        <ele>2</ele>
        <time>2026-08-23T15:31:57.000Z</time>
      </trkpt>
      <trkpt lat="43.38691" lon="-1.66318">
        <ele>2</ele>
        <time>2026-08-23T15:31:57.000Z</time>
      </trkpt>
      <trkpt lat="43.38691" lon="-1.66319">
        <ele>2</ele>
        <time>2026-08-23T15:31:57.000Z</time>
      </trkpt>
      <trkpt lat="43.38691" lon="-1.6632">
        <ele>2</ele>
        <time>2026-08-23T15:31:57.000Z</time>
      </trkpt>
      <trkpt lat="43.38691" lon="-1.66321">
        <ele>2</ele>
        <time>2026-08-23T15:31:58.000Z</time>
      </trkpt>
      <trkpt lat="43.38691" lon="-1.66322">
        <ele>2</ele>
        <time>2026-08-23T15:31:58.000Z</time>
      </trkpt>
      <trkpt lat="43.3869" lon="-1.66323">
        <ele>2</ele>
        <time>2026-08-23T15:31:58.000Z</time>
      </trkpt>
      <trkpt lat="43.3869" lon="-1.66325">
        <ele>2</ele>
        <time>2026-08-23T15:31:58.000Z</time>
      </trkpt>
      <trkpt lat="43.3869" lon="-1.66326">
        <ele>2</ele>
        <time>2026-08-23T15:31:58.000Z</time>
      </trkpt>
      <trkpt lat="43.38689" lon="-1.66327">
        <ele>2</ele>
        <time>2026-08-23T15:31:58.000Z</time>
      </trkpt>
      <trkpt lat="43.38689" lon="-1.66328">
        <ele>2</ele>
        <time>2026-08-23T15:31:59.000Z</time>
      </trkpt>
      <trkpt lat="43.38688" lon="-1.66329">
        <ele>1</ele>
        <time>2026-08-23T15:31:59.000Z</time>
      </trkpt>
      <trkpt lat="43.38688" lon="-1.6633">
        <ele>1</ele>
        <time>2026-08-23T15:31:59.000Z</time>
      </trkpt>
      <trkpt lat="43.38687" lon="-1.66331">
        <ele>1</ele>
        <time>2026-08-23T15:31:59.000Z</time>
      </trkpt>
      <trkpt lat="43.38687" lon="-1.66332">
        <ele>1</ele>
        <time>2026-08-23T15:31:59.000Z</time>
      </trkpt>
      <trkpt lat="43.38686" lon="-1.66332">
        <ele>1</ele>
        <time>2026-08-23T15:31:59.000Z</time>
      </trkpt>
      <trkpt lat="43.38686" lon="-1.66333">
        <ele>1</ele>
        <time>2026-08-23T15:32:00.000Z</time>
      </trkpt>
      <trkpt lat="43.38685" lon="-1.66333">
        <ele>1</ele>
        <time>2026-08-23T15:32:00.000Z</time>
      </trkpt>
      <trkpt lat="43.38684" lon="-1.66334">
        <ele>1</ele>
        <time>2026-08-23T15:32:00.000Z</time>
      </trkpt>
      <trkpt lat="43.38683" lon="-1.66335">
        <ele>1</ele>
        <time>2026-08-23T15:32:00.000Z</time>
      </trkpt>
      <trkpt lat="43.38682" lon="-1.66335">
        <ele>1</ele>
        <time>2026-08-23T15:32:00.000Z</time>
      </trkpt>
      <trkpt lat="43.38681" lon="-1.66335">
        <ele>1</ele>
        <time>2026-08-23T15:32:01.000Z</time>
      </trkpt>
      <trkpt lat="43.3868" lon="-1.66336">
        <ele>1</ele>
        <time>2026-08-23T15:32:01.000Z</time>
      </trkpt>
      <trkpt lat="43.38679" lon="-1.66336">
        <ele>1</ele>
        <time>2026-08-23T15:32:01.000Z</time>
      </trkpt>
      <trkpt lat="43.38678" lon="-1.66335">
        <ele>1</ele>
        <time>2026-08-23T15:32:01.000Z</time>
      </trkpt>
      <trkpt lat="43.38677" lon="-1.66335">
        <ele>1</ele>
        <time>2026-08-23T15:32:01.000Z</time>
      </trkpt>
      <trkpt lat="43.38675" lon="-1.66335">
        <ele>4</ele>
        <time>2026-08-23T15:32:02.000Z</time>
      </trkpt>
      <trkpt lat="43.38674" lon="-1.66334">
        <ele>4</ele>
        <time>2026-08-23T15:32:02.000Z</time>
      </trkpt>
      <trkpt lat="43.38673" lon="-1.66333">
        <ele>4</ele>
        <time>2026-08-23T15:32:02.000Z</time>
      </trkpt>
      <trkpt lat="43.38672" lon="-1.66333">
        <ele>4</ele>
        <time>2026-08-23T15:32:02.000Z</time>
      </trkpt>
      <trkpt lat="43.38671" lon="-1.66332">
        <ele>4</ele>
        <time>2026-08-23T15:32:03.000Z</time>
      </trkpt>
      <trkpt lat="43.38671" lon="-1.6633">
        <ele>4</ele>
        <time>2026-08-23T15:32:03.000Z</time>
      </trkpt>
      <trkpt lat="43.38669" lon="-1.66328">
        <ele>4</ele>
        <time>2026-08-23T15:32:03.000Z</time>
      </trkpt>
      <trkpt lat="43.38665" lon="-1.66329">
        <ele>4</ele>
        <time>2026-08-23T15:32:04.000Z</time>
      </trkpt>
      <trkpt lat="43.38662" lon="-1.66329">
        <ele>4</ele>
        <time>2026-08-23T15:32:05.000Z</time>
      </trkpt>
      <trkpt lat="43.38655" lon="-1.66328">
        <ele>4</ele>
        <time>2026-08-23T15:32:06.000Z</time>
      </trkpt>
      <trkpt lat="43.38649" lon="-1.66327">
        <ele>4</ele>
        <time>2026-08-23T15:32:07.000Z</time>
      </trkpt>
    </trkseg>
  </trk>
</gpx>